<?xml version="1.0" encoding="UTF-8" standalone="no" ?>
<gpx xmlns="http://www.topografix.com/GPX/1/1" xmlns:xsi="http://www.w3.org/2001/XMLSchema-instance" xsi:schemaLocation="http://www.topografix.com/GPX/1/1 http://www.topografix.com/GPX/1/1/gpx.xsd" version="1.1" creator="VisuGPX - https://www.visugpx.com">
  <metadata>
    <name>Classica 2013</name>
    <desc><![CDATA[Classica 2013 !]]></desc>
  </metadata>
  <trk>
    <name><![CDATA[Classica 2013_1]]></name>
    <trkseg>
      <trkpt lat="50.35455" lon="2.74829">
        <ele>175</ele>
        <time>2013-08-24T07:08:12.000Z</time>
      </trkpt>
      <trkpt lat="50.35447" lon="2.74827">
        <ele>146</ele>
        <time>2013-08-24T07:26:33.000Z</time>
      </trkpt>
      <trkpt lat="50.35442" lon="2.74817">
        <ele>146</ele>
        <time>2013-08-24T07:26:36.000Z</time>
      </trkpt>
      <trkpt lat="50.35436" lon="2.74805">
        <ele>145</ele>
        <time>2013-08-24T07:26:39.000Z</time>
      </trkpt>
      <trkpt lat="50.35431" lon="2.74791">
        <ele>144</ele>
        <time>2013-08-24T07:26:42.000Z</time>
      </trkpt>
      <trkpt lat="50.35427" lon="2.74773">
        <ele>142</ele>
        <time>2013-08-24T07:26:45.000Z</time>
      </trkpt>
      <trkpt lat="50.35423" lon="2.74732">
        <ele>142</ele>
        <time>2013-08-24T07:26:48.000Z</time>
      </trkpt>
      <trkpt lat="50.35423" lon="2.74712">
        <ele>141</ele>
        <time>2013-08-24T07:26:51.000Z</time>
      </trkpt>
      <trkpt lat="50.35422" lon="2.74691">
        <ele>140</ele>
        <time>2013-08-24T07:26:54.000Z</time>
      </trkpt>
      <trkpt lat="50.35419" lon="2.74652">
        <ele>142</ele>
        <time>2013-08-24T07:27:00.000Z</time>
      </trkpt>
      <trkpt lat="50.35416" lon="2.74632">
        <ele>143</ele>
        <time>2013-08-24T07:27:03.000Z</time>
      </trkpt>
      <trkpt lat="50.35413" lon="2.74611">
        <ele>145</ele>
        <time>2013-08-24T07:27:06.000Z</time>
      </trkpt>
      <trkpt lat="50.35408" lon="2.74575">
        <ele>145</ele>
        <time>2013-08-24T07:27:12.000Z</time>
      </trkpt>
      <trkpt lat="50.35405" lon="2.74553">
        <ele>146</ele>
        <time>2013-08-24T07:27:15.000Z</time>
      </trkpt>
      <trkpt lat="50.35403" lon="2.74532">
        <ele>147</ele>
        <time>2013-08-24T07:27:18.000Z</time>
      </trkpt>
      <trkpt lat="50.35401" lon="2.74512">
        <ele>147</ele>
        <time>2013-08-24T07:27:21.000Z</time>
      </trkpt>
      <trkpt lat="50.35395" lon="2.74476">
        <ele>144</ele>
        <time>2013-08-24T07:27:27.000Z</time>
      </trkpt>
      <trkpt lat="50.3539" lon="2.74436">
        <ele>142</ele>
        <time>2013-08-24T07:27:33.000Z</time>
      </trkpt>
      <trkpt lat="50.3538" lon="2.74419">
        <ele>142</ele>
        <time>2013-08-24T07:27:36.000Z</time>
      </trkpt>
      <trkpt lat="50.35374" lon="2.74381">
        <ele>144</ele>
        <time>2013-08-24T07:27:42.000Z</time>
      </trkpt>
      <trkpt lat="50.35367" lon="2.74342">
        <ele>145</ele>
        <time>2013-08-24T07:27:48.000Z</time>
      </trkpt>
      <trkpt lat="50.35363" lon="2.74321">
        <ele>145</ele>
        <time>2013-08-24T07:27:51.000Z</time>
      </trkpt>
      <trkpt lat="50.35356" lon="2.74284">
        <ele>146</ele>
        <time>2013-08-24T07:27:57.000Z</time>
      </trkpt>
      <trkpt lat="50.3535" lon="2.74243">
        <ele>146</ele>
        <time>2013-08-24T07:28:03.000Z</time>
      </trkpt>
      <trkpt lat="50.35346" lon="2.7422">
        <ele>147</ele>
        <time>2013-08-24T07:28:06.000Z</time>
      </trkpt>
      <trkpt lat="50.35342" lon="2.74196">
        <ele>147</ele>
        <time>2013-08-24T07:28:09.000Z</time>
      </trkpt>
      <trkpt lat="50.35337" lon="2.7417">
        <ele>146</ele>
        <time>2013-08-24T07:28:12.000Z</time>
      </trkpt>
      <trkpt lat="50.35334" lon="2.74145">
        <ele>146</ele>
        <time>2013-08-24T07:28:15.000Z</time>
      </trkpt>
      <trkpt lat="50.35331" lon="2.74119">
        <ele>146</ele>
        <time>2013-08-24T07:28:18.000Z</time>
      </trkpt>
      <trkpt lat="50.35327" lon="2.74093">
        <ele>146</ele>
        <time>2013-08-24T07:28:21.000Z</time>
      </trkpt>
      <trkpt lat="50.35324" lon="2.74066">
        <ele>146</ele>
        <time>2013-08-24T07:28:24.000Z</time>
      </trkpt>
      <trkpt lat="50.35322" lon="2.74038">
        <ele>146</ele>
        <time>2013-08-24T07:28:27.000Z</time>
      </trkpt>
      <trkpt lat="50.3532" lon="2.74009">
        <ele>146</ele>
        <time>2013-08-24T07:28:30.000Z</time>
      </trkpt>
      <trkpt lat="50.35316" lon="2.73979">
        <ele>147</ele>
        <time>2013-08-24T07:28:33.000Z</time>
      </trkpt>
      <trkpt lat="50.35312" lon="2.7395">
        <ele>146</ele>
        <time>2013-08-24T07:28:36.000Z</time>
      </trkpt>
      <trkpt lat="50.35307" lon="2.7392">
        <ele>145</ele>
        <time>2013-08-24T07:28:39.000Z</time>
      </trkpt>
      <trkpt lat="50.35301" lon="2.73892">
        <ele>144</ele>
        <time>2013-08-24T07:28:42.000Z</time>
      </trkpt>
      <trkpt lat="50.35293" lon="2.73863">
        <ele>143</ele>
        <time>2013-08-24T07:28:45.000Z</time>
      </trkpt>
      <trkpt lat="50.35285" lon="2.73835">
        <ele>141</ele>
        <time>2013-08-24T07:28:48.000Z</time>
      </trkpt>
      <trkpt lat="50.35276" lon="2.73806">
        <ele>140</ele>
        <time>2013-08-24T07:28:51.000Z</time>
      </trkpt>
      <trkpt lat="50.35268" lon="2.73778">
        <ele>141</ele>
        <time>2013-08-24T07:28:54.000Z</time>
      </trkpt>
      <trkpt lat="50.3526" lon="2.73752">
        <ele>142</ele>
        <time>2013-08-24T07:28:57.000Z</time>
      </trkpt>
      <trkpt lat="50.35252" lon="2.73727">
        <ele>142</ele>
        <time>2013-08-24T07:29:00.000Z</time>
      </trkpt>
      <trkpt lat="50.35245" lon="2.73704">
        <ele>143</ele>
        <time>2013-08-24T07:29:03.000Z</time>
      </trkpt>
      <trkpt lat="50.35238" lon="2.73681">
        <ele>142</ele>
        <time>2013-08-24T07:29:06.000Z</time>
      </trkpt>
      <trkpt lat="50.35232" lon="2.73659">
        <ele>142</ele>
        <time>2013-08-24T07:29:09.000Z</time>
      </trkpt>
      <trkpt lat="50.35226" lon="2.73636">
        <ele>142</ele>
        <time>2013-08-24T07:29:12.000Z</time>
      </trkpt>
      <trkpt lat="50.3522" lon="2.73613">
        <ele>141</ele>
        <time>2013-08-24T07:29:15.000Z</time>
      </trkpt>
      <trkpt lat="50.35214" lon="2.73589">
        <ele>141</ele>
        <time>2013-08-24T07:29:18.000Z</time>
      </trkpt>
      <trkpt lat="50.3521" lon="2.73565">
        <ele>141</ele>
        <time>2013-08-24T07:29:21.000Z</time>
      </trkpt>
      <trkpt lat="50.35206" lon="2.73542">
        <ele>141</ele>
        <time>2013-08-24T07:29:24.000Z</time>
      </trkpt>
      <trkpt lat="50.35203" lon="2.73517">
        <ele>142</ele>
        <time>2013-08-24T07:29:27.000Z</time>
      </trkpt>
      <trkpt lat="50.352" lon="2.73492">
        <ele>142</ele>
        <time>2013-08-24T07:29:30.000Z</time>
      </trkpt>
      <trkpt lat="50.35196" lon="2.73468">
        <ele>143</ele>
        <time>2013-08-24T07:29:33.000Z</time>
      </trkpt>
      <trkpt lat="50.35193" lon="2.73444">
        <ele>144</ele>
        <time>2013-08-24T07:29:36.000Z</time>
      </trkpt>
      <trkpt lat="50.35189" lon="2.73421">
        <ele>145</ele>
        <time>2013-08-24T07:29:39.000Z</time>
      </trkpt>
      <trkpt lat="50.35193" lon="2.73393">
        <ele>145</ele>
        <time>2013-08-24T07:29:42.000Z</time>
      </trkpt>
      <trkpt lat="50.35191" lon="2.7337">
        <ele>145</ele>
        <time>2013-08-24T07:29:45.000Z</time>
      </trkpt>
      <trkpt lat="50.35189" lon="2.73345">
        <ele>146</ele>
        <time>2013-08-24T07:29:48.000Z</time>
      </trkpt>
      <trkpt lat="50.35187" lon="2.73322">
        <ele>145</ele>
        <time>2013-08-24T07:29:51.000Z</time>
      </trkpt>
      <trkpt lat="50.35183" lon="2.73298">
        <ele>144</ele>
        <time>2013-08-24T07:29:54.000Z</time>
      </trkpt>
      <trkpt lat="50.3518" lon="2.73274">
        <ele>144</ele>
        <time>2013-08-24T07:29:57.000Z</time>
      </trkpt>
      <trkpt lat="50.35177" lon="2.73249">
        <ele>144</ele>
        <time>2013-08-24T07:30:00.000Z</time>
      </trkpt>
      <trkpt lat="50.35174" lon="2.73226">
        <ele>144</ele>
        <time>2013-08-24T07:30:03.000Z</time>
      </trkpt>
      <trkpt lat="50.35172" lon="2.73203">
        <ele>145</ele>
        <time>2013-08-24T07:30:06.000Z</time>
      </trkpt>
      <trkpt lat="50.35167" lon="2.73168">
        <ele>146</ele>
        <time>2013-08-24T07:30:12.000Z</time>
      </trkpt>
      <trkpt lat="50.35163" lon="2.73138">
        <ele>146</ele>
        <time>2013-08-24T07:30:18.000Z</time>
      </trkpt>
      <trkpt lat="50.3516" lon="2.73102">
        <ele>146</ele>
        <time>2013-08-24T07:30:24.000Z</time>
      </trkpt>
      <trkpt lat="50.35154" lon="2.73064">
        <ele>145</ele>
        <time>2013-08-24T07:30:30.000Z</time>
      </trkpt>
      <trkpt lat="50.35149" lon="2.73026">
        <ele>149</ele>
        <time>2013-08-24T07:30:36.000Z</time>
      </trkpt>
      <trkpt lat="50.35146" lon="2.73005">
        <ele>148</ele>
        <time>2013-08-24T07:30:39.000Z</time>
      </trkpt>
      <trkpt lat="50.35142" lon="2.72986">
        <ele>148</ele>
        <time>2013-08-24T07:30:42.000Z</time>
      </trkpt>
      <trkpt lat="50.35136" lon="2.72966">
        <ele>146</ele>
        <time>2013-08-24T07:30:45.000Z</time>
      </trkpt>
      <trkpt lat="50.35131" lon="2.72945">
        <ele>145</ele>
        <time>2013-08-24T07:30:48.000Z</time>
      </trkpt>
      <trkpt lat="50.35126" lon="2.72923">
        <ele>144</ele>
        <time>2013-08-24T07:30:51.000Z</time>
      </trkpt>
      <trkpt lat="50.3512" lon="2.72901">
        <ele>144</ele>
        <time>2013-08-24T07:30:54.000Z</time>
      </trkpt>
      <trkpt lat="50.35115" lon="2.7288">
        <ele>145</ele>
        <time>2013-08-24T07:30:57.000Z</time>
      </trkpt>
      <trkpt lat="50.3511" lon="2.72859">
        <ele>146</ele>
        <time>2013-08-24T07:31:00.000Z</time>
      </trkpt>
      <trkpt lat="50.35106" lon="2.72838">
        <ele>146</ele>
        <time>2013-08-24T07:31:03.000Z</time>
      </trkpt>
      <trkpt lat="50.35102" lon="2.72818">
        <ele>146</ele>
        <time>2013-08-24T07:31:06.000Z</time>
      </trkpt>
      <trkpt lat="50.35098" lon="2.72798">
        <ele>147</ele>
        <time>2013-08-24T07:31:10.000Z</time>
      </trkpt>
      <trkpt lat="50.35094" lon="2.72776">
        <ele>149</ele>
        <time>2013-08-24T07:31:12.000Z</time>
      </trkpt>
      <trkpt lat="50.3509" lon="2.72754">
        <ele>149</ele>
        <time>2013-08-24T07:31:15.000Z</time>
      </trkpt>
      <trkpt lat="50.35087" lon="2.72729">
        <ele>149</ele>
        <time>2013-08-24T07:31:18.000Z</time>
      </trkpt>
      <trkpt lat="50.35086" lon="2.72705">
        <ele>149</ele>
        <time>2013-08-24T07:31:21.000Z</time>
      </trkpt>
      <trkpt lat="50.35083" lon="2.72682">
        <ele>150</ele>
        <time>2013-08-24T07:31:24.000Z</time>
      </trkpt>
      <trkpt lat="50.35081" lon="2.7266">
        <ele>150</ele>
        <time>2013-08-24T07:31:27.000Z</time>
      </trkpt>
      <trkpt lat="50.35088" lon="2.72637">
        <ele>150</ele>
        <time>2013-08-24T07:31:30.000Z</time>
      </trkpt>
      <trkpt lat="50.35089" lon="2.72615">
        <ele>151</ele>
        <time>2013-08-24T07:31:33.000Z</time>
      </trkpt>
      <trkpt lat="50.35092" lon="2.72593">
        <ele>152</ele>
        <time>2013-08-24T07:31:36.000Z</time>
      </trkpt>
      <trkpt lat="50.35094" lon="2.72571">
        <ele>152</ele>
        <time>2013-08-24T07:31:39.000Z</time>
      </trkpt>
      <trkpt lat="50.35096" lon="2.7255">
        <ele>152</ele>
        <time>2013-08-24T07:31:43.000Z</time>
      </trkpt>
      <trkpt lat="50.35096" lon="2.72528">
        <ele>152</ele>
        <time>2013-08-24T07:31:45.000Z</time>
      </trkpt>
      <trkpt lat="50.35097" lon="2.72507">
        <ele>152</ele>
        <time>2013-08-24T07:31:48.000Z</time>
      </trkpt>
      <trkpt lat="50.35098" lon="2.72487">
        <ele>151</ele>
        <time>2013-08-24T07:31:51.000Z</time>
      </trkpt>
      <trkpt lat="50.35098" lon="2.72464">
        <ele>151</ele>
        <time>2013-08-24T07:31:54.000Z</time>
      </trkpt>
      <trkpt lat="50.35099" lon="2.72441">
        <ele>151</ele>
        <time>2013-08-24T07:31:58.000Z</time>
      </trkpt>
      <trkpt lat="50.35099" lon="2.72419">
        <ele>152</ele>
        <time>2013-08-24T07:32:00.000Z</time>
      </trkpt>
      <trkpt lat="50.351" lon="2.72399">
        <ele>153</ele>
        <time>2013-08-24T07:32:03.000Z</time>
      </trkpt>
      <trkpt lat="50.35103" lon="2.72377">
        <ele>152</ele>
        <time>2013-08-24T07:32:06.000Z</time>
      </trkpt>
      <trkpt lat="50.35105" lon="2.72352">
        <ele>152</ele>
        <time>2013-08-24T07:32:09.000Z</time>
      </trkpt>
      <trkpt lat="50.35106" lon="2.72327">
        <ele>152</ele>
        <time>2013-08-24T07:32:12.000Z</time>
      </trkpt>
      <trkpt lat="50.35107" lon="2.72304">
        <ele>152</ele>
        <time>2013-08-24T07:32:15.000Z</time>
      </trkpt>
      <trkpt lat="50.35109" lon="2.72281">
        <ele>152</ele>
        <time>2013-08-24T07:32:18.000Z</time>
      </trkpt>
      <trkpt lat="50.3511" lon="2.72258">
        <ele>153</ele>
        <time>2013-08-24T07:32:21.000Z</time>
      </trkpt>
      <trkpt lat="50.35111" lon="2.72234">
        <ele>153</ele>
        <time>2013-08-24T07:32:24.000Z</time>
      </trkpt>
      <trkpt lat="50.35112" lon="2.72211">
        <ele>153</ele>
        <time>2013-08-24T07:32:27.000Z</time>
      </trkpt>
      <trkpt lat="50.35113" lon="2.72187">
        <ele>153</ele>
        <time>2013-08-24T07:32:30.000Z</time>
      </trkpt>
      <trkpt lat="50.35114" lon="2.72164">
        <ele>152</ele>
        <time>2013-08-24T07:32:33.000Z</time>
      </trkpt>
      <trkpt lat="50.35115" lon="2.72139">
        <ele>151</ele>
        <time>2013-08-24T07:32:36.000Z</time>
      </trkpt>
      <trkpt lat="50.35118" lon="2.72115">
        <ele>151</ele>
        <time>2013-08-24T07:32:39.000Z</time>
      </trkpt>
      <trkpt lat="50.35119" lon="2.7209">
        <ele>151</ele>
        <time>2013-08-24T07:32:42.000Z</time>
      </trkpt>
      <trkpt lat="50.3512" lon="2.72065">
        <ele>150</ele>
        <time>2013-08-24T07:32:45.000Z</time>
      </trkpt>
      <trkpt lat="50.3512" lon="2.72041">
        <ele>150</ele>
        <time>2013-08-24T07:32:48.000Z</time>
      </trkpt>
      <trkpt lat="50.35122" lon="2.72017">
        <ele>151</ele>
        <time>2013-08-24T07:32:51.000Z</time>
      </trkpt>
      <trkpt lat="50.35122" lon="2.71992">
        <ele>151</ele>
        <time>2013-08-24T07:32:54.000Z</time>
      </trkpt>
      <trkpt lat="50.35125" lon="2.71967">
        <ele>152</ele>
        <time>2013-08-24T07:32:57.000Z</time>
      </trkpt>
      <trkpt lat="50.35126" lon="2.71941">
        <ele>151</ele>
        <time>2013-08-24T07:33:00.000Z</time>
      </trkpt>
      <trkpt lat="50.35127" lon="2.71915">
        <ele>151</ele>
        <time>2013-08-24T07:33:03.000Z</time>
      </trkpt>
      <trkpt lat="50.35128" lon="2.71886">
        <ele>151</ele>
        <time>2013-08-24T07:33:06.000Z</time>
      </trkpt>
      <trkpt lat="50.3513" lon="2.71855">
        <ele>151</ele>
        <time>2013-08-24T07:33:09.000Z</time>
      </trkpt>
      <trkpt lat="50.35131" lon="2.71823">
        <ele>151</ele>
        <time>2013-08-24T07:33:12.000Z</time>
      </trkpt>
      <trkpt lat="50.35133" lon="2.7179">
        <ele>152</ele>
        <time>2013-08-24T07:33:15.000Z</time>
      </trkpt>
      <trkpt lat="50.35136" lon="2.71757">
        <ele>151</ele>
        <time>2013-08-24T07:33:18.000Z</time>
      </trkpt>
      <trkpt lat="50.35137" lon="2.71722">
        <ele>149</ele>
        <time>2013-08-24T07:33:21.000Z</time>
      </trkpt>
      <trkpt lat="50.35138" lon="2.71687">
        <ele>147</ele>
        <time>2013-08-24T07:33:24.000Z</time>
      </trkpt>
      <trkpt lat="50.35139" lon="2.71648">
        <ele>147</ele>
        <time>2013-08-24T07:33:27.000Z</time>
      </trkpt>
      <trkpt lat="50.3514" lon="2.7161">
        <ele>147</ele>
        <time>2013-08-24T07:33:30.000Z</time>
      </trkpt>
      <trkpt lat="50.35142" lon="2.71574">
        <ele>146</ele>
        <time>2013-08-24T07:33:33.000Z</time>
      </trkpt>
      <trkpt lat="50.35144" lon="2.71539">
        <ele>146</ele>
        <time>2013-08-24T07:33:36.000Z</time>
      </trkpt>
      <trkpt lat="50.35146" lon="2.71505">
        <ele>146</ele>
        <time>2013-08-24T07:33:39.000Z</time>
      </trkpt>
      <trkpt lat="50.35147" lon="2.71473">
        <ele>146</ele>
        <time>2013-08-24T07:33:43.000Z</time>
      </trkpt>
      <trkpt lat="50.35147" lon="2.7144">
        <ele>145</ele>
        <time>2013-08-24T07:33:45.000Z</time>
      </trkpt>
      <trkpt lat="50.35146" lon="2.71408">
        <ele>145</ele>
        <time>2013-08-24T07:33:48.000Z</time>
      </trkpt>
      <trkpt lat="50.35138" lon="2.71377">
        <ele>146</ele>
        <time>2013-08-24T07:33:51.000Z</time>
      </trkpt>
      <trkpt lat="50.35128" lon="2.71352">
        <ele>145</ele>
        <time>2013-08-24T07:33:54.000Z</time>
      </trkpt>
      <trkpt lat="50.35116" lon="2.71328">
        <ele>143</ele>
        <time>2013-08-24T07:33:57.000Z</time>
      </trkpt>
      <trkpt lat="50.35104" lon="2.71305">
        <ele>142</ele>
        <time>2013-08-24T07:34:00.000Z</time>
      </trkpt>
      <trkpt lat="50.35092" lon="2.71279">
        <ele>142</ele>
        <time>2013-08-24T07:34:03.000Z</time>
      </trkpt>
      <trkpt lat="50.35079" lon="2.71253">
        <ele>142</ele>
        <time>2013-08-24T07:34:06.000Z</time>
      </trkpt>
      <trkpt lat="50.35067" lon="2.7123">
        <ele>143</ele>
        <time>2013-08-24T07:34:09.000Z</time>
      </trkpt>
      <trkpt lat="50.35055" lon="2.71206">
        <ele>144</ele>
        <time>2013-08-24T07:34:12.000Z</time>
      </trkpt>
      <trkpt lat="50.35041" lon="2.71183">
        <ele>143</ele>
        <time>2013-08-24T07:34:15.000Z</time>
      </trkpt>
      <trkpt lat="50.35028" lon="2.71163">
        <ele>143</ele>
        <time>2013-08-24T07:34:18.000Z</time>
      </trkpt>
      <trkpt lat="50.35014" lon="2.71141">
        <ele>143</ele>
        <time>2013-08-24T07:34:21.000Z</time>
      </trkpt>
      <trkpt lat="50.35" lon="2.71122">
        <ele>143</ele>
        <time>2013-08-24T07:34:24.000Z</time>
      </trkpt>
      <trkpt lat="50.34986" lon="2.71101">
        <ele>144</ele>
        <time>2013-08-24T07:34:27.000Z</time>
      </trkpt>
      <trkpt lat="50.34973" lon="2.71081">
        <ele>143</ele>
        <time>2013-08-24T07:34:30.000Z</time>
      </trkpt>
      <trkpt lat="50.34961" lon="2.71062">
        <ele>144</ele>
        <time>2013-08-24T07:34:34.000Z</time>
      </trkpt>
      <trkpt lat="50.34949" lon="2.71041">
        <ele>145</ele>
        <time>2013-08-24T07:34:36.000Z</time>
      </trkpt>
      <trkpt lat="50.3494" lon="2.71018">
        <ele>145</ele>
        <time>2013-08-24T07:34:39.000Z</time>
      </trkpt>
      <trkpt lat="50.3493" lon="2.70997">
        <ele>145</ele>
        <time>2013-08-24T07:34:42.000Z</time>
      </trkpt>
      <trkpt lat="50.34926" lon="2.70969">
        <ele>145</ele>
        <time>2013-08-24T07:34:45.000Z</time>
      </trkpt>
      <trkpt lat="50.3492" lon="2.70944">
        <ele>145</ele>
        <time>2013-08-24T07:34:48.000Z</time>
      </trkpt>
      <trkpt lat="50.34914" lon="2.70918">
        <ele>145</ele>
        <time>2013-08-24T07:34:51.000Z</time>
      </trkpt>
      <trkpt lat="50.34907" lon="2.70889">
        <ele>145</ele>
        <time>2013-08-24T07:34:54.000Z</time>
      </trkpt>
      <trkpt lat="50.34901" lon="2.70865">
        <ele>147</ele>
        <time>2013-08-24T07:34:57.000Z</time>
      </trkpt>
      <trkpt lat="50.34895" lon="2.7084">
        <ele>147</ele>
        <time>2013-08-24T07:35:00.000Z</time>
      </trkpt>
      <trkpt lat="50.34888" lon="2.70815">
        <ele>147</ele>
        <time>2013-08-24T07:35:03.000Z</time>
      </trkpt>
      <trkpt lat="50.34882" lon="2.7079">
        <ele>147</ele>
        <time>2013-08-24T07:35:06.000Z</time>
      </trkpt>
      <trkpt lat="50.34875" lon="2.70764">
        <ele>146</ele>
        <time>2013-08-24T07:35:09.000Z</time>
      </trkpt>
      <trkpt lat="50.34868" lon="2.70741">
        <ele>145</ele>
        <time>2013-08-24T07:35:12.000Z</time>
      </trkpt>
      <trkpt lat="50.34861" lon="2.70716">
        <ele>145</ele>
        <time>2013-08-24T07:35:15.000Z</time>
      </trkpt>
      <trkpt lat="50.34854" lon="2.70691">
        <ele>145</ele>
        <time>2013-08-24T07:35:18.000Z</time>
      </trkpt>
      <trkpt lat="50.34846" lon="2.70666">
        <ele>145</ele>
        <time>2013-08-24T07:35:21.000Z</time>
      </trkpt>
      <trkpt lat="50.3484" lon="2.70639">
        <ele>146</ele>
        <time>2013-08-24T07:35:24.000Z</time>
      </trkpt>
      <trkpt lat="50.34832" lon="2.70614">
        <ele>146</ele>
        <time>2013-08-24T07:35:27.000Z</time>
      </trkpt>
      <trkpt lat="50.34825" lon="2.70588">
        <ele>147</ele>
        <time>2013-08-24T07:35:30.000Z</time>
      </trkpt>
      <trkpt lat="50.34819" lon="2.70563">
        <ele>147</ele>
        <time>2013-08-24T07:35:33.000Z</time>
      </trkpt>
      <trkpt lat="50.34812" lon="2.70538">
        <ele>147</ele>
        <time>2013-08-24T07:35:36.000Z</time>
      </trkpt>
      <trkpt lat="50.34804" lon="2.70514">
        <ele>146</ele>
        <time>2013-08-24T07:35:39.000Z</time>
      </trkpt>
      <trkpt lat="50.34796" lon="2.7049">
        <ele>146</ele>
        <time>2013-08-24T07:35:42.000Z</time>
      </trkpt>
      <trkpt lat="50.34787" lon="2.70466">
        <ele>145</ele>
        <time>2013-08-24T07:35:45.000Z</time>
      </trkpt>
      <trkpt lat="50.34778" lon="2.70441">
        <ele>145</ele>
        <time>2013-08-24T07:35:48.000Z</time>
      </trkpt>
      <trkpt lat="50.34769" lon="2.70418">
        <ele>145</ele>
        <time>2013-08-24T07:35:51.000Z</time>
      </trkpt>
      <trkpt lat="50.34761" lon="2.70395">
        <ele>145</ele>
        <time>2013-08-24T07:35:54.000Z</time>
      </trkpt>
      <trkpt lat="50.34752" lon="2.7037">
        <ele>144</ele>
        <time>2013-08-24T07:35:57.000Z</time>
      </trkpt>
      <trkpt lat="50.34743" lon="2.70346">
        <ele>143</ele>
        <time>2013-08-24T07:36:01.000Z</time>
      </trkpt>
      <trkpt lat="50.34736" lon="2.70322">
        <ele>143</ele>
        <time>2013-08-24T07:36:03.000Z</time>
      </trkpt>
      <trkpt lat="50.34729" lon="2.70297">
        <ele>142</ele>
        <time>2013-08-24T07:36:06.000Z</time>
      </trkpt>
      <trkpt lat="50.34722" lon="2.70272">
        <ele>142</ele>
        <time>2013-08-24T07:36:09.000Z</time>
      </trkpt>
      <trkpt lat="50.34716" lon="2.70247">
        <ele>141</ele>
        <time>2013-08-24T07:36:12.000Z</time>
      </trkpt>
      <trkpt lat="50.3471" lon="2.70221">
        <ele>141</ele>
        <time>2013-08-24T07:36:15.000Z</time>
      </trkpt>
      <trkpt lat="50.34703" lon="2.70195">
        <ele>141</ele>
        <time>2013-08-24T07:36:18.000Z</time>
      </trkpt>
      <trkpt lat="50.34697" lon="2.70168">
        <ele>141</ele>
        <time>2013-08-24T07:36:21.000Z</time>
      </trkpt>
      <trkpt lat="50.34689" lon="2.70141">
        <ele>142</ele>
        <time>2013-08-24T07:36:24.000Z</time>
      </trkpt>
      <trkpt lat="50.34681" lon="2.70116">
        <ele>142</ele>
        <time>2013-08-24T07:36:27.000Z</time>
      </trkpt>
      <trkpt lat="50.34674" lon="2.70091">
        <ele>142</ele>
        <time>2013-08-24T07:36:30.000Z</time>
      </trkpt>
      <trkpt lat="50.34665" lon="2.70068">
        <ele>142</ele>
        <time>2013-08-24T07:36:33.000Z</time>
      </trkpt>
      <trkpt lat="50.34656" lon="2.70044">
        <ele>141</ele>
        <time>2013-08-24T07:36:36.000Z</time>
      </trkpt>
      <trkpt lat="50.34647" lon="2.70021">
        <ele>140</ele>
        <time>2013-08-24T07:36:39.000Z</time>
      </trkpt>
      <trkpt lat="50.34639" lon="2.69998">
        <ele>139</ele>
        <time>2013-08-24T07:36:42.000Z</time>
      </trkpt>
      <trkpt lat="50.3463" lon="2.69976">
        <ele>139</ele>
        <time>2013-08-24T07:36:45.000Z</time>
      </trkpt>
      <trkpt lat="50.34621" lon="2.69953">
        <ele>139</ele>
        <time>2013-08-24T07:36:48.000Z</time>
      </trkpt>
      <trkpt lat="50.34613" lon="2.69931">
        <ele>139</ele>
        <time>2013-08-24T07:36:51.000Z</time>
      </trkpt>
      <trkpt lat="50.34605" lon="2.69908">
        <ele>139</ele>
        <time>2013-08-24T07:36:54.000Z</time>
      </trkpt>
      <trkpt lat="50.34598" lon="2.69884">
        <ele>140</ele>
        <time>2013-08-24T07:36:57.000Z</time>
      </trkpt>
      <trkpt lat="50.34592" lon="2.6986">
        <ele>140</ele>
        <time>2013-08-24T07:37:01.000Z</time>
      </trkpt>
      <trkpt lat="50.34587" lon="2.69837">
        <ele>141</ele>
        <time>2013-08-24T07:37:03.000Z</time>
      </trkpt>
      <trkpt lat="50.34581" lon="2.69812">
        <ele>142</ele>
        <time>2013-08-24T07:37:06.000Z</time>
      </trkpt>
      <trkpt lat="50.34575" lon="2.69786">
        <ele>143</ele>
        <time>2013-08-24T07:37:09.000Z</time>
      </trkpt>
      <trkpt lat="50.3457" lon="2.6976">
        <ele>144</ele>
        <time>2013-08-24T07:37:12.000Z</time>
      </trkpt>
      <trkpt lat="50.34565" lon="2.69734">
        <ele>142</ele>
        <time>2013-08-24T07:37:15.000Z</time>
      </trkpt>
      <trkpt lat="50.34561" lon="2.69707">
        <ele>142</ele>
        <time>2013-08-24T07:37:18.000Z</time>
      </trkpt>
      <trkpt lat="50.34557" lon="2.69681">
        <ele>142</ele>
        <time>2013-08-24T07:37:21.000Z</time>
      </trkpt>
      <trkpt lat="50.34552" lon="2.69653">
        <ele>141</ele>
        <time>2013-08-24T07:37:24.000Z</time>
      </trkpt>
      <trkpt lat="50.34547" lon="2.69624">
        <ele>141</ele>
        <time>2013-08-24T07:37:27.000Z</time>
      </trkpt>
      <trkpt lat="50.34542" lon="2.69597">
        <ele>140</ele>
        <time>2013-08-24T07:37:30.000Z</time>
      </trkpt>
      <trkpt lat="50.34536" lon="2.69569">
        <ele>139</ele>
        <time>2013-08-24T07:37:33.000Z</time>
      </trkpt>
      <trkpt lat="50.34531" lon="2.69541">
        <ele>140</ele>
        <time>2013-08-24T07:37:36.000Z</time>
      </trkpt>
      <trkpt lat="50.34527" lon="2.69517">
        <ele>140</ele>
        <time>2013-08-24T07:37:39.000Z</time>
      </trkpt>
      <trkpt lat="50.34524" lon="2.69496">
        <ele>140</ele>
        <time>2013-08-24T07:37:42.000Z</time>
      </trkpt>
      <trkpt lat="50.3452" lon="2.69468">
        <ele>140</ele>
        <time>2013-08-24T07:37:48.000Z</time>
      </trkpt>
      <trkpt lat="50.34516" lon="2.69447">
        <ele>140</ele>
        <time>2013-08-24T07:37:54.000Z</time>
      </trkpt>
      <trkpt lat="50.34517" lon="2.69414">
        <ele>142</ele>
        <time>2013-08-24T07:38:00.000Z</time>
      </trkpt>
      <trkpt lat="50.34528" lon="2.69398">
        <ele>145</ele>
        <time>2013-08-24T07:38:03.000Z</time>
      </trkpt>
      <trkpt lat="50.34541" lon="2.69377">
        <ele>147</ele>
        <time>2013-08-24T07:38:06.000Z</time>
      </trkpt>
      <trkpt lat="50.34556" lon="2.69352">
        <ele>148</ele>
        <time>2013-08-24T07:38:09.000Z</time>
      </trkpt>
      <trkpt lat="50.34572" lon="2.69327">
        <ele>148</ele>
        <time>2013-08-24T07:38:12.000Z</time>
      </trkpt>
      <trkpt lat="50.34589" lon="2.693">
        <ele>146</ele>
        <time>2013-08-24T07:38:20.000Z</time>
      </trkpt>
      <trkpt lat="50.34605" lon="2.69273">
        <ele>145</ele>
        <time>2013-08-24T07:38:20.000Z</time>
      </trkpt>
      <trkpt lat="50.34623" lon="2.69246">
        <ele>144</ele>
        <time>2013-08-24T07:38:21.000Z</time>
      </trkpt>
      <trkpt lat="50.34638" lon="2.69221">
        <ele>143</ele>
        <time>2013-08-24T07:38:24.000Z</time>
      </trkpt>
      <trkpt lat="50.34653" lon="2.69197">
        <ele>143</ele>
        <time>2013-08-24T07:38:27.000Z</time>
      </trkpt>
      <trkpt lat="50.34665" lon="2.69177">
        <ele>142</ele>
        <time>2013-08-24T07:38:30.000Z</time>
      </trkpt>
      <trkpt lat="50.34679" lon="2.69155">
        <ele>140</ele>
        <time>2013-08-24T07:38:33.000Z</time>
      </trkpt>
      <trkpt lat="50.34689" lon="2.69138">
        <ele>140</ele>
        <time>2013-08-24T07:38:36.000Z</time>
      </trkpt>
      <trkpt lat="50.34694" lon="2.69114">
        <ele>142</ele>
        <time>2013-08-24T07:38:39.000Z</time>
      </trkpt>
      <trkpt lat="50.34702" lon="2.69096">
        <ele>143</ele>
        <time>2013-08-24T07:38:42.000Z</time>
      </trkpt>
      <trkpt lat="50.3471" lon="2.69078">
        <ele>143</ele>
        <time>2013-08-24T07:38:45.000Z</time>
      </trkpt>
      <trkpt lat="50.34718" lon="2.69059">
        <ele>144</ele>
        <time>2013-08-24T07:38:48.000Z</time>
      </trkpt>
      <trkpt lat="50.34724" lon="2.69039">
        <ele>145</ele>
        <time>2013-08-24T07:38:51.000Z</time>
      </trkpt>
      <trkpt lat="50.34731" lon="2.69018">
        <ele>146</ele>
        <time>2013-08-24T07:38:54.000Z</time>
      </trkpt>
      <trkpt lat="50.34739" lon="2.69">
        <ele>146</ele>
        <time>2013-08-24T07:38:57.000Z</time>
      </trkpt>
      <trkpt lat="50.34746" lon="2.68982">
        <ele>145</ele>
        <time>2013-08-24T07:39:00.000Z</time>
      </trkpt>
      <trkpt lat="50.34742" lon="2.68951">
        <ele>145</ele>
        <time>2013-08-24T07:39:03.000Z</time>
      </trkpt>
      <trkpt lat="50.34751" lon="2.68927">
        <ele>145</ele>
        <time>2013-08-24T07:39:06.000Z</time>
      </trkpt>
      <trkpt lat="50.34763" lon="2.68904">
        <ele>145</ele>
        <time>2013-08-24T07:39:09.000Z</time>
      </trkpt>
      <trkpt lat="50.34771" lon="2.68883">
        <ele>146</ele>
        <time>2013-08-24T07:39:12.000Z</time>
      </trkpt>
      <trkpt lat="50.34785" lon="2.68869">
        <ele>147</ele>
        <time>2013-08-24T07:39:17.000Z</time>
      </trkpt>
      <trkpt lat="50.348" lon="2.68848">
        <ele>146</ele>
        <time>2013-08-24T07:39:18.000Z</time>
      </trkpt>
      <trkpt lat="50.34816" lon="2.68823">
        <ele>144</ele>
        <time>2013-08-24T07:39:21.000Z</time>
      </trkpt>
      <trkpt lat="50.34834" lon="2.68797">
        <ele>142</ele>
        <time>2013-08-24T07:39:24.000Z</time>
      </trkpt>
      <trkpt lat="50.34855" lon="2.68773">
        <ele>140</ele>
        <time>2013-08-24T07:39:27.000Z</time>
      </trkpt>
      <trkpt lat="50.34879" lon="2.68749">
        <ele>141</ele>
        <time>2013-08-24T07:39:30.000Z</time>
      </trkpt>
      <trkpt lat="50.34903" lon="2.68728">
        <ele>140</ele>
        <time>2013-08-24T07:39:33.000Z</time>
      </trkpt>
      <trkpt lat="50.34929" lon="2.68705">
        <ele>137</ele>
        <time>2013-08-24T07:39:36.000Z</time>
      </trkpt>
      <trkpt lat="50.34956" lon="2.68682">
        <ele>136</ele>
        <time>2013-08-24T07:39:39.000Z</time>
      </trkpt>
      <trkpt lat="50.34981" lon="2.68652">
        <ele>135</ele>
        <time>2013-08-24T07:39:42.000Z</time>
      </trkpt>
      <trkpt lat="50.35003" lon="2.68618">
        <ele>133</ele>
        <time>2013-08-24T07:39:45.000Z</time>
      </trkpt>
      <trkpt lat="50.35021" lon="2.68588">
        <ele>131</ele>
        <time>2013-08-24T07:39:48.000Z</time>
      </trkpt>
      <trkpt lat="50.35036" lon="2.68562">
        <ele>129</ele>
        <time>2013-08-24T07:39:51.000Z</time>
      </trkpt>
      <trkpt lat="50.35049" lon="2.68538">
        <ele>128</ele>
        <time>2013-08-24T07:39:54.000Z</time>
      </trkpt>
      <trkpt lat="50.35062" lon="2.68515">
        <ele>128</ele>
        <time>2013-08-24T07:39:57.000Z</time>
      </trkpt>
      <trkpt lat="50.35077" lon="2.68493">
        <ele>128</ele>
        <time>2013-08-24T07:40:00.000Z</time>
      </trkpt>
      <trkpt lat="50.35091" lon="2.68473">
        <ele>130</ele>
        <time>2013-08-24T07:40:03.000Z</time>
      </trkpt>
      <trkpt lat="50.35103" lon="2.68454">
        <ele>131</ele>
        <time>2013-08-24T07:40:06.000Z</time>
      </trkpt>
      <trkpt lat="50.35115" lon="2.68435">
        <ele>132</ele>
        <time>2013-08-24T07:40:09.000Z</time>
      </trkpt>
      <trkpt lat="50.35126" lon="2.68418">
        <ele>133</ele>
        <time>2013-08-24T07:40:12.000Z</time>
      </trkpt>
      <trkpt lat="50.35137" lon="2.68401">
        <ele>134</ele>
        <time>2013-08-24T07:40:15.000Z</time>
      </trkpt>
      <trkpt lat="50.35148" lon="2.68385">
        <ele>137</ele>
        <time>2013-08-24T07:40:18.000Z</time>
      </trkpt>
      <trkpt lat="50.35158" lon="2.68369">
        <ele>140</ele>
        <time>2013-08-24T07:40:21.000Z</time>
      </trkpt>
      <trkpt lat="50.35167" lon="2.68354">
        <ele>143</ele>
        <time>2013-08-24T07:40:24.000Z</time>
      </trkpt>
      <trkpt lat="50.35178" lon="2.68335">
        <ele>143</ele>
        <time>2013-08-24T07:40:27.000Z</time>
      </trkpt>
      <trkpt lat="50.3519" lon="2.68317">
        <ele>143</ele>
        <time>2013-08-24T07:40:30.000Z</time>
      </trkpt>
      <trkpt lat="50.35204" lon="2.68296">
        <ele>141</ele>
        <time>2013-08-24T07:40:33.000Z</time>
      </trkpt>
      <trkpt lat="50.35218" lon="2.68272">
        <ele>141</ele>
        <time>2013-08-24T07:40:36.000Z</time>
      </trkpt>
      <trkpt lat="50.35234" lon="2.68246">
        <ele>140</ele>
        <time>2013-08-24T07:40:39.000Z</time>
      </trkpt>
      <trkpt lat="50.3525" lon="2.68218">
        <ele>139</ele>
        <time>2013-08-24T07:40:42.000Z</time>
      </trkpt>
      <trkpt lat="50.35266" lon="2.68191">
        <ele>140</ele>
        <time>2013-08-24T07:40:45.000Z</time>
      </trkpt>
      <trkpt lat="50.35282" lon="2.68167">
        <ele>139</ele>
        <time>2013-08-24T07:40:48.000Z</time>
      </trkpt>
      <trkpt lat="50.35296" lon="2.68144">
        <ele>139</ele>
        <time>2013-08-24T07:40:51.000Z</time>
      </trkpt>
      <trkpt lat="50.35309" lon="2.68122">
        <ele>139</ele>
        <time>2013-08-24T07:40:54.000Z</time>
      </trkpt>
      <trkpt lat="50.35323" lon="2.68101">
        <ele>137</ele>
        <time>2013-08-24T07:40:57.000Z</time>
      </trkpt>
      <trkpt lat="50.35336" lon="2.68079">
        <ele>137</ele>
        <time>2013-08-24T07:41:00.000Z</time>
      </trkpt>
      <trkpt lat="50.35349" lon="2.68057">
        <ele>137</ele>
        <time>2013-08-24T07:41:03.000Z</time>
      </trkpt>
      <trkpt lat="50.35361" lon="2.68035">
        <ele>137</ele>
        <time>2013-08-24T07:41:06.000Z</time>
      </trkpt>
      <trkpt lat="50.35374" lon="2.68013">
        <ele>137</ele>
        <time>2013-08-24T07:41:09.000Z</time>
      </trkpt>
      <trkpt lat="50.35386" lon="2.67994">
        <ele>138</ele>
        <time>2013-08-24T07:41:12.000Z</time>
      </trkpt>
      <trkpt lat="50.35398" lon="2.67975">
        <ele>139</ele>
        <time>2013-08-24T07:41:15.000Z</time>
      </trkpt>
      <trkpt lat="50.35411" lon="2.67953">
        <ele>139</ele>
        <time>2013-08-24T07:41:18.000Z</time>
      </trkpt>
      <trkpt lat="50.35423" lon="2.67933">
        <ele>139</ele>
        <time>2013-08-24T07:41:21.000Z</time>
      </trkpt>
      <trkpt lat="50.35437" lon="2.67916">
        <ele>139</ele>
        <time>2013-08-24T07:41:24.000Z</time>
      </trkpt>
      <trkpt lat="50.35448" lon="2.67897">
        <ele>138</ele>
        <time>2013-08-24T07:41:27.000Z</time>
      </trkpt>
      <trkpt lat="50.35458" lon="2.67877">
        <ele>137</ele>
        <time>2013-08-24T07:41:30.000Z</time>
      </trkpt>
      <trkpt lat="50.35469" lon="2.67857">
        <ele>136</ele>
        <time>2013-08-24T07:41:33.000Z</time>
      </trkpt>
      <trkpt lat="50.3548" lon="2.67837">
        <ele>136</ele>
        <time>2013-08-24T07:41:36.000Z</time>
      </trkpt>
      <trkpt lat="50.35493" lon="2.67817">
        <ele>135</ele>
        <time>2013-08-24T07:41:39.000Z</time>
      </trkpt>
      <trkpt lat="50.35506" lon="2.67797">
        <ele>135</ele>
        <time>2013-08-24T07:41:42.000Z</time>
      </trkpt>
      <trkpt lat="50.35518" lon="2.67778">
        <ele>135</ele>
        <time>2013-08-24T07:41:45.000Z</time>
      </trkpt>
      <trkpt lat="50.35531" lon="2.67759">
        <ele>134</ele>
        <time>2013-08-24T07:41:48.000Z</time>
      </trkpt>
      <trkpt lat="50.35544" lon="2.6774">
        <ele>133</ele>
        <time>2013-08-24T07:41:51.000Z</time>
      </trkpt>
      <trkpt lat="50.35556" lon="2.6772">
        <ele>134</ele>
        <time>2013-08-24T07:41:54.000Z</time>
      </trkpt>
      <trkpt lat="50.35568" lon="2.67701">
        <ele>135</ele>
        <time>2013-08-24T07:41:57.000Z</time>
      </trkpt>
      <trkpt lat="50.3558" lon="2.67681">
        <ele>135</ele>
        <time>2013-08-24T07:42:00.000Z</time>
      </trkpt>
      <trkpt lat="50.35591" lon="2.67662">
        <ele>136</ele>
        <time>2013-08-24T07:42:03.000Z</time>
      </trkpt>
      <trkpt lat="50.35604" lon="2.67642">
        <ele>136</ele>
        <time>2013-08-24T07:42:06.000Z</time>
      </trkpt>
      <trkpt lat="50.35617" lon="2.67622">
        <ele>136</ele>
        <time>2013-08-24T07:42:09.000Z</time>
      </trkpt>
      <trkpt lat="50.35629" lon="2.67602">
        <ele>137</ele>
        <time>2013-08-24T07:42:13.000Z</time>
      </trkpt>
      <trkpt lat="50.35641" lon="2.67583">
        <ele>137</ele>
        <time>2013-08-24T07:42:15.000Z</time>
      </trkpt>
      <trkpt lat="50.35653" lon="2.67565">
        <ele>135</ele>
        <time>2013-08-24T07:42:18.000Z</time>
      </trkpt>
      <trkpt lat="50.35665" lon="2.67547">
        <ele>135</ele>
        <time>2013-08-24T07:42:21.000Z</time>
      </trkpt>
      <trkpt lat="50.35676" lon="2.67527">
        <ele>136</ele>
        <time>2013-08-24T07:42:24.000Z</time>
      </trkpt>
      <trkpt lat="50.35689" lon="2.67508">
        <ele>137</ele>
        <time>2013-08-24T07:42:27.000Z</time>
      </trkpt>
      <trkpt lat="50.35701" lon="2.67489">
        <ele>136</ele>
        <time>2013-08-24T07:42:30.000Z</time>
      </trkpt>
      <trkpt lat="50.35714" lon="2.67469">
        <ele>136</ele>
        <time>2013-08-24T07:42:33.000Z</time>
      </trkpt>
      <trkpt lat="50.35728" lon="2.67447">
        <ele>137</ele>
        <time>2013-08-24T07:42:36.000Z</time>
      </trkpt>
      <trkpt lat="50.3574" lon="2.67428">
        <ele>139</ele>
        <time>2013-08-24T07:42:39.000Z</time>
      </trkpt>
      <trkpt lat="50.35751" lon="2.6741">
        <ele>141</ele>
        <time>2013-08-24T07:42:42.000Z</time>
      </trkpt>
      <trkpt lat="50.35762" lon="2.67391">
        <ele>141</ele>
        <time>2013-08-24T07:42:45.000Z</time>
      </trkpt>
      <trkpt lat="50.35774" lon="2.67372">
        <ele>140</ele>
        <time>2013-08-24T07:42:48.000Z</time>
      </trkpt>
      <trkpt lat="50.35785" lon="2.67353">
        <ele>138</ele>
        <time>2013-08-24T07:42:51.000Z</time>
      </trkpt>
      <trkpt lat="50.35796" lon="2.67334">
        <ele>137</ele>
        <time>2013-08-24T07:42:54.000Z</time>
      </trkpt>
      <trkpt lat="50.35808" lon="2.67316">
        <ele>137</ele>
        <time>2013-08-24T07:42:57.000Z</time>
      </trkpt>
      <trkpt lat="50.35819" lon="2.67299">
        <ele>139</ele>
        <time>2013-08-24T07:43:00.000Z</time>
      </trkpt>
      <trkpt lat="50.35831" lon="2.67281">
        <ele>139</ele>
        <time>2013-08-24T07:43:03.000Z</time>
      </trkpt>
      <trkpt lat="50.35842" lon="2.67263">
        <ele>142</ele>
        <time>2013-08-24T07:43:06.000Z</time>
      </trkpt>
      <trkpt lat="50.35852" lon="2.67247">
        <ele>143</ele>
        <time>2013-08-24T07:43:09.000Z</time>
      </trkpt>
      <trkpt lat="50.35863" lon="2.6723">
        <ele>143</ele>
        <time>2013-08-24T07:43:12.000Z</time>
      </trkpt>
      <trkpt lat="50.35875" lon="2.67212">
        <ele>144</ele>
        <time>2013-08-24T07:43:15.000Z</time>
      </trkpt>
      <trkpt lat="50.35885" lon="2.67196">
        <ele>143</ele>
        <time>2013-08-24T07:43:19.000Z</time>
      </trkpt>
      <trkpt lat="50.35894" lon="2.67177">
        <ele>143</ele>
        <time>2013-08-24T07:43:21.000Z</time>
      </trkpt>
      <trkpt lat="50.35905" lon="2.6716">
        <ele>143</ele>
        <time>2013-08-24T07:43:24.000Z</time>
      </trkpt>
      <trkpt lat="50.35917" lon="2.67143">
        <ele>143</ele>
        <time>2013-08-24T07:43:27.000Z</time>
      </trkpt>
      <trkpt lat="50.35927" lon="2.67127">
        <ele>143</ele>
        <time>2013-08-24T07:43:30.000Z</time>
      </trkpt>
      <trkpt lat="50.35937" lon="2.67112">
        <ele>143</ele>
        <time>2013-08-24T07:43:34.000Z</time>
      </trkpt>
      <trkpt lat="50.35946" lon="2.67098">
        <ele>143</ele>
        <time>2013-08-24T07:43:36.000Z</time>
      </trkpt>
      <trkpt lat="50.35956" lon="2.67083">
        <ele>143</ele>
        <time>2013-08-24T07:43:39.000Z</time>
      </trkpt>
      <trkpt lat="50.35963" lon="2.67065">
        <ele>144</ele>
        <time>2013-08-24T07:43:43.000Z</time>
      </trkpt>
      <trkpt lat="50.35971" lon="2.6705">
        <ele>144</ele>
        <time>2013-08-24T07:43:45.000Z</time>
      </trkpt>
      <trkpt lat="50.3599" lon="2.67021">
        <ele>144</ele>
        <time>2013-08-24T07:43:51.000Z</time>
      </trkpt>
      <trkpt lat="50.36008" lon="2.66992">
        <ele>144</ele>
        <time>2013-08-24T07:43:57.000Z</time>
      </trkpt>
      <trkpt lat="50.36017" lon="2.66978">
        <ele>145</ele>
        <time>2013-08-24T07:44:01.000Z</time>
      </trkpt>
      <trkpt lat="50.36026" lon="2.66962">
        <ele>145</ele>
        <time>2013-08-24T07:44:03.000Z</time>
      </trkpt>
      <trkpt lat="50.36052" lon="2.66919">
        <ele>148</ele>
        <time>2013-08-24T07:44:12.000Z</time>
      </trkpt>
      <trkpt lat="50.36062" lon="2.66902">
        <ele>147</ele>
        <time>2013-08-24T07:44:15.000Z</time>
      </trkpt>
      <trkpt lat="50.36073" lon="2.66884">
        <ele>146</ele>
        <time>2013-08-24T07:44:18.000Z</time>
      </trkpt>
      <trkpt lat="50.36085" lon="2.66864">
        <ele>144</ele>
        <time>2013-08-24T07:44:21.000Z</time>
      </trkpt>
      <trkpt lat="50.36097" lon="2.66845">
        <ele>143</ele>
        <time>2013-08-24T07:44:24.000Z</time>
      </trkpt>
      <trkpt lat="50.36108" lon="2.66826">
        <ele>144</ele>
        <time>2013-08-24T07:44:27.000Z</time>
      </trkpt>
      <trkpt lat="50.36121" lon="2.66806">
        <ele>144</ele>
        <time>2013-08-24T07:44:30.000Z</time>
      </trkpt>
      <trkpt lat="50.36134" lon="2.66786">
        <ele>146</ele>
        <time>2013-08-24T07:44:33.000Z</time>
      </trkpt>
      <trkpt lat="50.36146" lon="2.66767">
        <ele>146</ele>
        <time>2013-08-24T07:44:36.000Z</time>
      </trkpt>
      <trkpt lat="50.36156" lon="2.66751">
        <ele>146</ele>
        <time>2013-08-24T07:44:39.000Z</time>
      </trkpt>
      <trkpt lat="50.36166" lon="2.66735">
        <ele>147</ele>
        <time>2013-08-24T07:44:43.000Z</time>
      </trkpt>
      <trkpt lat="50.36174" lon="2.66721">
        <ele>147</ele>
        <time>2013-08-24T07:44:45.000Z</time>
      </trkpt>
      <trkpt lat="50.36184" lon="2.66702">
        <ele>146</ele>
        <time>2013-08-24T07:44:48.000Z</time>
      </trkpt>
      <trkpt lat="50.36191" lon="2.66686">
        <ele>147</ele>
        <time>2013-08-24T07:44:51.000Z</time>
      </trkpt>
      <trkpt lat="50.362" lon="2.66668">
        <ele>147</ele>
        <time>2013-08-24T07:44:54.000Z</time>
      </trkpt>
      <trkpt lat="50.36208" lon="2.66651">
        <ele>148</ele>
        <time>2013-08-24T07:44:57.000Z</time>
      </trkpt>
      <trkpt lat="50.36216" lon="2.66631">
        <ele>147</ele>
        <time>2013-08-24T07:45:00.000Z</time>
      </trkpt>
      <trkpt lat="50.36224" lon="2.66612">
        <ele>147</ele>
        <time>2013-08-24T07:45:03.000Z</time>
      </trkpt>
      <trkpt lat="50.36232" lon="2.66592">
        <ele>146</ele>
        <time>2013-08-24T07:45:06.000Z</time>
      </trkpt>
      <trkpt lat="50.3624" lon="2.66571">
        <ele>146</ele>
        <time>2013-08-24T07:45:09.000Z</time>
      </trkpt>
      <trkpt lat="50.36248" lon="2.66549">
        <ele>145</ele>
        <time>2013-08-24T07:45:12.000Z</time>
      </trkpt>
      <trkpt lat="50.36255" lon="2.66526">
        <ele>146</ele>
        <time>2013-08-24T07:45:15.000Z</time>
      </trkpt>
      <trkpt lat="50.36261" lon="2.66501">
        <ele>146</ele>
        <time>2013-08-24T07:45:18.000Z</time>
      </trkpt>
      <trkpt lat="50.36267" lon="2.66475">
        <ele>146</ele>
        <time>2013-08-24T07:45:21.000Z</time>
      </trkpt>
      <trkpt lat="50.36275" lon="2.66449">
        <ele>146</ele>
        <time>2013-08-24T07:45:24.000Z</time>
      </trkpt>
      <trkpt lat="50.36283" lon="2.66421">
        <ele>146</ele>
        <time>2013-08-24T07:45:27.000Z</time>
      </trkpt>
      <trkpt lat="50.36292" lon="2.66393">
        <ele>147</ele>
        <time>2013-08-24T07:45:30.000Z</time>
      </trkpt>
      <trkpt lat="50.36298" lon="2.66366">
        <ele>146</ele>
        <time>2013-08-24T07:45:33.000Z</time>
      </trkpt>
      <trkpt lat="50.36303" lon="2.66337">
        <ele>147</ele>
        <time>2013-08-24T07:45:36.000Z</time>
      </trkpt>
      <trkpt lat="50.36306" lon="2.66308">
        <ele>147</ele>
        <time>2013-08-24T07:45:39.000Z</time>
      </trkpt>
      <trkpt lat="50.3631" lon="2.6628">
        <ele>148</ele>
        <time>2013-08-24T07:45:42.000Z</time>
      </trkpt>
      <trkpt lat="50.36313" lon="2.66252">
        <ele>149</ele>
        <time>2013-08-24T07:45:45.000Z</time>
      </trkpt>
      <trkpt lat="50.36316" lon="2.66223">
        <ele>150</ele>
        <time>2013-08-24T07:45:48.000Z</time>
      </trkpt>
      <trkpt lat="50.36319" lon="2.66197">
        <ele>151</ele>
        <time>2013-08-24T07:45:51.000Z</time>
      </trkpt>
      <trkpt lat="50.36321" lon="2.6617">
        <ele>151</ele>
        <time>2013-08-24T07:45:54.000Z</time>
      </trkpt>
      <trkpt lat="50.36324" lon="2.66142">
        <ele>151</ele>
        <time>2013-08-24T07:45:57.000Z</time>
      </trkpt>
      <trkpt lat="50.36326" lon="2.66115">
        <ele>150</ele>
        <time>2013-08-24T07:46:00.000Z</time>
      </trkpt>
      <trkpt lat="50.36329" lon="2.66088">
        <ele>149</ele>
        <time>2013-08-24T07:46:03.000Z</time>
      </trkpt>
      <trkpt lat="50.36331" lon="2.6606">
        <ele>148</ele>
        <time>2013-08-24T07:46:06.000Z</time>
      </trkpt>
      <trkpt lat="50.36335" lon="2.66032">
        <ele>147</ele>
        <time>2013-08-24T07:46:09.000Z</time>
      </trkpt>
      <trkpt lat="50.36339" lon="2.66005">
        <ele>147</ele>
        <time>2013-08-24T07:46:12.000Z</time>
      </trkpt>
      <trkpt lat="50.36344" lon="2.65979">
        <ele>147</ele>
        <time>2013-08-24T07:46:15.000Z</time>
      </trkpt>
      <trkpt lat="50.36349" lon="2.65952">
        <ele>148</ele>
        <time>2013-08-24T07:46:18.000Z</time>
      </trkpt>
      <trkpt lat="50.36353" lon="2.65925">
        <ele>149</ele>
        <time>2013-08-24T07:46:21.000Z</time>
      </trkpt>
      <trkpt lat="50.36358" lon="2.65899">
        <ele>150</ele>
        <time>2013-08-24T07:46:24.000Z</time>
      </trkpt>
      <trkpt lat="50.36362" lon="2.65873">
        <ele>150</ele>
        <time>2013-08-24T07:46:27.000Z</time>
      </trkpt>
      <trkpt lat="50.36366" lon="2.65848">
        <ele>150</ele>
        <time>2013-08-24T07:46:30.000Z</time>
      </trkpt>
      <trkpt lat="50.36369" lon="2.65822">
        <ele>149</ele>
        <time>2013-08-24T07:46:33.000Z</time>
      </trkpt>
      <trkpt lat="50.36372" lon="2.65797">
        <ele>148</ele>
        <time>2013-08-24T07:46:36.000Z</time>
      </trkpt>
      <trkpt lat="50.36376" lon="2.65771">
        <ele>148</ele>
        <time>2013-08-24T07:46:39.000Z</time>
      </trkpt>
      <trkpt lat="50.36379" lon="2.65745">
        <ele>148</ele>
        <time>2013-08-24T07:46:42.000Z</time>
      </trkpt>
      <trkpt lat="50.36382" lon="2.65719">
        <ele>148</ele>
        <time>2013-08-24T07:46:45.000Z</time>
      </trkpt>
      <trkpt lat="50.36385" lon="2.65692">
        <ele>147</ele>
        <time>2013-08-24T07:46:48.000Z</time>
      </trkpt>
      <trkpt lat="50.36387" lon="2.65666">
        <ele>148</ele>
        <time>2013-08-24T07:46:51.000Z</time>
      </trkpt>
      <trkpt lat="50.3639" lon="2.6564">
        <ele>148</ele>
        <time>2013-08-24T07:46:54.000Z</time>
      </trkpt>
      <trkpt lat="50.36393" lon="2.65613">
        <ele>149</ele>
        <time>2013-08-24T07:46:57.000Z</time>
      </trkpt>
      <trkpt lat="50.36396" lon="2.65586">
        <ele>150</ele>
        <time>2013-08-24T07:47:00.000Z</time>
      </trkpt>
      <trkpt lat="50.364" lon="2.65559">
        <ele>151</ele>
        <time>2013-08-24T07:47:03.000Z</time>
      </trkpt>
      <trkpt lat="50.36404" lon="2.65533">
        <ele>152</ele>
        <time>2013-08-24T07:47:06.000Z</time>
      </trkpt>
      <trkpt lat="50.36408" lon="2.65507">
        <ele>152</ele>
        <time>2013-08-24T07:47:09.000Z</time>
      </trkpt>
      <trkpt lat="50.36414" lon="2.65482">
        <ele>153</ele>
        <time>2013-08-24T07:47:12.000Z</time>
      </trkpt>
      <trkpt lat="50.36419" lon="2.65456">
        <ele>152</ele>
        <time>2013-08-24T07:47:15.000Z</time>
      </trkpt>
      <trkpt lat="50.36423" lon="2.65431">
        <ele>153</ele>
        <time>2013-08-24T07:47:18.000Z</time>
      </trkpt>
      <trkpt lat="50.36439" lon="2.65413">
        <ele>152</ele>
        <time>2013-08-24T07:47:21.000Z</time>
      </trkpt>
      <trkpt lat="50.36445" lon="2.65387">
        <ele>151</ele>
        <time>2013-08-24T07:47:24.000Z</time>
      </trkpt>
      <trkpt lat="50.36452" lon="2.65361">
        <ele>149</ele>
        <time>2013-08-24T07:47:27.000Z</time>
      </trkpt>
      <trkpt lat="50.36457" lon="2.65337">
        <ele>150</ele>
        <time>2013-08-24T07:47:30.000Z</time>
      </trkpt>
      <trkpt lat="50.36464" lon="2.65313">
        <ele>150</ele>
        <time>2013-08-24T07:47:33.000Z</time>
      </trkpt>
      <trkpt lat="50.36469" lon="2.65292">
        <ele>151</ele>
        <time>2013-08-24T07:47:36.000Z</time>
      </trkpt>
      <trkpt lat="50.36474" lon="2.65269">
        <ele>153</ele>
        <time>2013-08-24T07:47:39.000Z</time>
      </trkpt>
      <trkpt lat="50.3648" lon="2.65245">
        <ele>153</ele>
        <time>2013-08-24T07:47:42.000Z</time>
      </trkpt>
      <trkpt lat="50.36485" lon="2.65218">
        <ele>153</ele>
        <time>2013-08-24T07:47:45.000Z</time>
      </trkpt>
      <trkpt lat="50.36489" lon="2.65191">
        <ele>152</ele>
        <time>2013-08-24T07:47:48.000Z</time>
      </trkpt>
      <trkpt lat="50.36493" lon="2.65166">
        <ele>151</ele>
        <time>2013-08-24T07:47:51.000Z</time>
      </trkpt>
      <trkpt lat="50.36497" lon="2.65141">
        <ele>150</ele>
        <time>2013-08-24T07:47:54.000Z</time>
      </trkpt>
      <trkpt lat="50.36502" lon="2.65116">
        <ele>149</ele>
        <time>2013-08-24T07:47:57.000Z</time>
      </trkpt>
      <trkpt lat="50.36507" lon="2.65087">
        <ele>147</ele>
        <time>2013-08-24T07:48:00.000Z</time>
      </trkpt>
      <trkpt lat="50.36513" lon="2.65062">
        <ele>147</ele>
        <time>2013-08-24T07:48:03.000Z</time>
      </trkpt>
      <trkpt lat="50.36518" lon="2.65037">
        <ele>148</ele>
        <time>2013-08-24T07:48:06.000Z</time>
      </trkpt>
      <trkpt lat="50.36525" lon="2.65013">
        <ele>149</ele>
        <time>2013-08-24T07:48:09.000Z</time>
      </trkpt>
      <trkpt lat="50.36534" lon="2.64988">
        <ele>150</ele>
        <time>2013-08-24T07:48:12.000Z</time>
      </trkpt>
      <trkpt lat="50.36542" lon="2.64964">
        <ele>150</ele>
        <time>2013-08-24T07:48:15.000Z</time>
      </trkpt>
      <trkpt lat="50.36549" lon="2.6494">
        <ele>150</ele>
        <time>2013-08-24T07:48:18.000Z</time>
      </trkpt>
      <trkpt lat="50.36557" lon="2.64917">
        <ele>149</ele>
        <time>2013-08-24T07:48:21.000Z</time>
      </trkpt>
      <trkpt lat="50.36568" lon="2.64895">
        <ele>149</ele>
        <time>2013-08-24T07:48:24.000Z</time>
      </trkpt>
      <trkpt lat="50.3658" lon="2.64873">
        <ele>148</ele>
        <time>2013-08-24T07:48:27.000Z</time>
      </trkpt>
      <trkpt lat="50.36592" lon="2.64851">
        <ele>149</ele>
        <time>2013-08-24T07:48:30.000Z</time>
      </trkpt>
      <trkpt lat="50.36604" lon="2.6483">
        <ele>149</ele>
        <time>2013-08-24T07:48:33.000Z</time>
      </trkpt>
      <trkpt lat="50.36615" lon="2.64809">
        <ele>148</ele>
        <time>2013-08-24T07:48:36.000Z</time>
      </trkpt>
      <trkpt lat="50.3663" lon="2.6479">
        <ele>148</ele>
        <time>2013-08-24T07:48:39.000Z</time>
      </trkpt>
      <trkpt lat="50.36642" lon="2.64769">
        <ele>148</ele>
        <time>2013-08-24T07:48:42.000Z</time>
      </trkpt>
      <trkpt lat="50.36655" lon="2.64749">
        <ele>148</ele>
        <time>2013-08-24T07:48:45.000Z</time>
      </trkpt>
      <trkpt lat="50.36666" lon="2.64728">
        <ele>149</ele>
        <time>2013-08-24T07:48:49.000Z</time>
      </trkpt>
      <trkpt lat="50.36677" lon="2.64709">
        <ele>151</ele>
        <time>2013-08-24T07:48:51.000Z</time>
      </trkpt>
      <trkpt lat="50.36689" lon="2.6469">
        <ele>153</ele>
        <time>2013-08-24T07:48:54.000Z</time>
      </trkpt>
      <trkpt lat="50.367" lon="2.64669">
        <ele>154</ele>
        <time>2013-08-24T07:48:57.000Z</time>
      </trkpt>
      <trkpt lat="50.36712" lon="2.64647">
        <ele>156</ele>
        <time>2013-08-24T07:49:00.000Z</time>
      </trkpt>
      <trkpt lat="50.36723" lon="2.64627">
        <ele>157</ele>
        <time>2013-08-24T07:49:03.000Z</time>
      </trkpt>
      <trkpt lat="50.36734" lon="2.64608">
        <ele>156</ele>
        <time>2013-08-24T07:49:06.000Z</time>
      </trkpt>
      <trkpt lat="50.3674" lon="2.64582">
        <ele>157</ele>
        <time>2013-08-24T07:49:09.000Z</time>
      </trkpt>
      <trkpt lat="50.36749" lon="2.64556">
        <ele>157</ele>
        <time>2013-08-24T07:49:12.000Z</time>
      </trkpt>
      <trkpt lat="50.3676" lon="2.64529">
        <ele>158</ele>
        <time>2013-08-24T07:49:15.000Z</time>
      </trkpt>
      <trkpt lat="50.3677" lon="2.64505">
        <ele>158</ele>
        <time>2013-08-24T07:49:18.000Z</time>
      </trkpt>
      <trkpt lat="50.36779" lon="2.6448">
        <ele>159</ele>
        <time>2013-08-24T07:49:21.000Z</time>
      </trkpt>
      <trkpt lat="50.3679" lon="2.64457">
        <ele>159</ele>
        <time>2013-08-24T07:49:24.000Z</time>
      </trkpt>
      <trkpt lat="50.36799" lon="2.64436">
        <ele>160</ele>
        <time>2013-08-24T07:49:27.000Z</time>
      </trkpt>
      <trkpt lat="50.36807" lon="2.64412">
        <ele>159</ele>
        <time>2013-08-24T07:49:30.000Z</time>
      </trkpt>
      <trkpt lat="50.36815" lon="2.6439">
        <ele>157</ele>
        <time>2013-08-24T07:49:33.000Z</time>
      </trkpt>
      <trkpt lat="50.36823" lon="2.6437">
        <ele>156</ele>
        <time>2013-08-24T07:49:36.000Z</time>
      </trkpt>
      <trkpt lat="50.36832" lon="2.64348">
        <ele>154</ele>
        <time>2013-08-24T07:49:39.000Z</time>
      </trkpt>
      <trkpt lat="50.3684" lon="2.64326">
        <ele>153</ele>
        <time>2013-08-24T07:49:42.000Z</time>
      </trkpt>
      <trkpt lat="50.36849" lon="2.64303">
        <ele>152</ele>
        <time>2013-08-24T07:49:45.000Z</time>
      </trkpt>
      <trkpt lat="50.36856" lon="2.64282">
        <ele>151</ele>
        <time>2013-08-24T07:49:48.000Z</time>
      </trkpt>
      <trkpt lat="50.36864" lon="2.64262">
        <ele>149</ele>
        <time>2013-08-24T07:49:51.000Z</time>
      </trkpt>
      <trkpt lat="50.36878" lon="2.64244">
        <ele>149</ele>
        <time>2013-08-24T07:49:54.000Z</time>
      </trkpt>
      <trkpt lat="50.36889" lon="2.64224">
        <ele>148</ele>
        <time>2013-08-24T07:49:57.000Z</time>
      </trkpt>
      <trkpt lat="50.36899" lon="2.64208">
        <ele>147</ele>
        <time>2013-08-24T07:50:00.000Z</time>
      </trkpt>
      <trkpt lat="50.36911" lon="2.64192">
        <ele>146</ele>
        <time>2013-08-24T07:50:03.000Z</time>
      </trkpt>
      <trkpt lat="50.36923" lon="2.64175">
        <ele>145</ele>
        <time>2013-08-24T07:50:06.000Z</time>
      </trkpt>
      <trkpt lat="50.36935" lon="2.64157">
        <ele>144</ele>
        <time>2013-08-24T07:50:09.000Z</time>
      </trkpt>
      <trkpt lat="50.36948" lon="2.64138">
        <ele>145</ele>
        <time>2013-08-24T07:50:12.000Z</time>
      </trkpt>
      <trkpt lat="50.36961" lon="2.6412">
        <ele>147</ele>
        <time>2013-08-24T07:50:16.000Z</time>
      </trkpt>
      <trkpt lat="50.36975" lon="2.64102">
        <ele>148</ele>
        <time>2013-08-24T07:50:18.000Z</time>
      </trkpt>
      <trkpt lat="50.36988" lon="2.64084">
        <ele>148</ele>
        <time>2013-08-24T07:50:21.000Z</time>
      </trkpt>
      <trkpt lat="50.37002" lon="2.64066">
        <ele>150</ele>
        <time>2013-08-24T07:50:24.000Z</time>
      </trkpt>
      <trkpt lat="50.37015" lon="2.64048">
        <ele>152</ele>
        <time>2013-08-24T07:50:27.000Z</time>
      </trkpt>
      <trkpt lat="50.37027" lon="2.64032">
        <ele>153</ele>
        <time>2013-08-24T07:50:30.000Z</time>
      </trkpt>
      <trkpt lat="50.3704" lon="2.64015">
        <ele>154</ele>
        <time>2013-08-24T07:50:33.000Z</time>
      </trkpt>
      <trkpt lat="50.37052" lon="2.63998">
        <ele>155</ele>
        <time>2013-08-24T07:50:36.000Z</time>
      </trkpt>
      <trkpt lat="50.37064" lon="2.63982">
        <ele>155</ele>
        <time>2013-08-24T07:50:39.000Z</time>
      </trkpt>
      <trkpt lat="50.37075" lon="2.63967">
        <ele>154</ele>
        <time>2013-08-24T07:50:43.000Z</time>
      </trkpt>
      <trkpt lat="50.37085" lon="2.63954">
        <ele>154</ele>
        <time>2013-08-24T07:50:47.000Z</time>
      </trkpt>
      <trkpt lat="50.37096" lon="2.63938">
        <ele>154</ele>
        <time>2013-08-24T07:50:48.000Z</time>
      </trkpt>
      <trkpt lat="50.37104" lon="2.63918">
        <ele>153</ele>
        <time>2013-08-24T07:50:51.000Z</time>
      </trkpt>
      <trkpt lat="50.37115" lon="2.63902">
        <ele>153</ele>
        <time>2013-08-24T07:50:54.000Z</time>
      </trkpt>
      <trkpt lat="50.37125" lon="2.63885">
        <ele>153</ele>
        <time>2013-08-24T07:50:57.000Z</time>
      </trkpt>
      <trkpt lat="50.37137" lon="2.63867">
        <ele>153</ele>
        <time>2013-08-24T07:51:00.000Z</time>
      </trkpt>
      <trkpt lat="50.3715" lon="2.63851">
        <ele>154</ele>
        <time>2013-08-24T07:51:03.000Z</time>
      </trkpt>
      <trkpt lat="50.37163" lon="2.63834">
        <ele>155</ele>
        <time>2013-08-24T07:51:06.000Z</time>
      </trkpt>
      <trkpt lat="50.37175" lon="2.63818">
        <ele>157</ele>
        <time>2013-08-24T07:51:09.000Z</time>
      </trkpt>
      <trkpt lat="50.37188" lon="2.63802">
        <ele>159</ele>
        <time>2013-08-24T07:51:12.000Z</time>
      </trkpt>
      <trkpt lat="50.372" lon="2.63787">
        <ele>160</ele>
        <time>2013-08-24T07:51:16.000Z</time>
      </trkpt>
      <trkpt lat="50.37211" lon="2.63774">
        <ele>161</ele>
        <time>2013-08-24T07:51:18.000Z</time>
      </trkpt>
      <trkpt lat="50.37224" lon="2.63759">
        <ele>161</ele>
        <time>2013-08-24T07:51:21.000Z</time>
      </trkpt>
      <trkpt lat="50.37236" lon="2.63744">
        <ele>161</ele>
        <time>2013-08-24T07:51:24.000Z</time>
      </trkpt>
      <trkpt lat="50.37249" lon="2.63729">
        <ele>161</ele>
        <time>2013-08-24T07:51:27.000Z</time>
      </trkpt>
      <trkpt lat="50.3726" lon="2.63709">
        <ele>160</ele>
        <time>2013-08-24T07:51:30.000Z</time>
      </trkpt>
      <trkpt lat="50.37275" lon="2.63692">
        <ele>159</ele>
        <time>2013-08-24T07:51:33.000Z</time>
      </trkpt>
      <trkpt lat="50.37288" lon="2.63677">
        <ele>157</ele>
        <time>2013-08-24T07:51:36.000Z</time>
      </trkpt>
      <trkpt lat="50.37301" lon="2.6366">
        <ele>156</ele>
        <time>2013-08-24T07:51:39.000Z</time>
      </trkpt>
      <trkpt lat="50.37315" lon="2.63644">
        <ele>155</ele>
        <time>2013-08-24T07:51:42.000Z</time>
      </trkpt>
      <trkpt lat="50.37325" lon="2.6362">
        <ele>155</ele>
        <time>2013-08-24T07:51:45.000Z</time>
      </trkpt>
      <trkpt lat="50.37336" lon="2.636">
        <ele>156</ele>
        <time>2013-08-24T07:51:48.000Z</time>
      </trkpt>
      <trkpt lat="50.37346" lon="2.63581">
        <ele>157</ele>
        <time>2013-08-24T07:51:51.000Z</time>
      </trkpt>
      <trkpt lat="50.37358" lon="2.63562">
        <ele>158</ele>
        <time>2013-08-24T07:51:54.000Z</time>
      </trkpt>
      <trkpt lat="50.3737" lon="2.63547">
        <ele>158</ele>
        <time>2013-08-24T07:51:57.000Z</time>
      </trkpt>
      <trkpt lat="50.37379" lon="2.63533">
        <ele>157</ele>
        <time>2013-08-24T07:52:00.000Z</time>
      </trkpt>
      <trkpt lat="50.37395" lon="2.63515">
        <ele>157</ele>
        <time>2013-08-24T07:52:06.000Z</time>
      </trkpt>
      <trkpt lat="50.37378" lon="2.63487">
        <ele>158</ele>
        <time>2013-08-24T07:52:12.000Z</time>
      </trkpt>
      <trkpt lat="50.37366" lon="2.63479">
        <ele>159</ele>
        <time>2013-08-24T07:52:15.000Z</time>
      </trkpt>
      <trkpt lat="50.37354" lon="2.6347">
        <ele>160</ele>
        <time>2013-08-24T07:52:18.000Z</time>
      </trkpt>
      <trkpt lat="50.3734" lon="2.6346">
        <ele>161</ele>
        <time>2013-08-24T07:52:21.000Z</time>
      </trkpt>
      <trkpt lat="50.37327" lon="2.6345">
        <ele>161</ele>
        <time>2013-08-24T07:52:24.000Z</time>
      </trkpt>
      <trkpt lat="50.37312" lon="2.63441">
        <ele>162</ele>
        <time>2013-08-24T07:52:27.000Z</time>
      </trkpt>
      <trkpt lat="50.37297" lon="2.6343">
        <ele>162</ele>
        <time>2013-08-24T07:52:30.000Z</time>
      </trkpt>
      <trkpt lat="50.37283" lon="2.63421">
        <ele>162</ele>
        <time>2013-08-24T07:52:33.000Z</time>
      </trkpt>
      <trkpt lat="50.3727" lon="2.63412">
        <ele>162</ele>
        <time>2013-08-24T07:52:36.000Z</time>
      </trkpt>
      <trkpt lat="50.37257" lon="2.63403">
        <ele>162</ele>
        <time>2013-08-24T07:52:39.000Z</time>
      </trkpt>
      <trkpt lat="50.37244" lon="2.63394">
        <ele>162</ele>
        <time>2013-08-24T07:52:42.000Z</time>
      </trkpt>
      <trkpt lat="50.37236" lon="2.63372">
        <ele>162</ele>
        <time>2013-08-24T07:52:45.000Z</time>
      </trkpt>
      <trkpt lat="50.37226" lon="2.63359">
        <ele>162</ele>
        <time>2013-08-24T07:52:48.000Z</time>
      </trkpt>
      <trkpt lat="50.37214" lon="2.63339">
        <ele>163</ele>
        <time>2013-08-24T07:52:54.000Z</time>
      </trkpt>
      <trkpt lat="50.37235" lon="2.63315">
        <ele>163</ele>
        <time>2013-08-24T07:53:01.000Z</time>
      </trkpt>
      <trkpt lat="50.37249" lon="2.63307">
        <ele>163</ele>
        <time>2013-08-24T07:53:03.000Z</time>
      </trkpt>
      <trkpt lat="50.37261" lon="2.63297">
        <ele>163</ele>
        <time>2013-08-24T07:53:06.000Z</time>
      </trkpt>
      <trkpt lat="50.37273" lon="2.63283">
        <ele>163</ele>
        <time>2013-08-24T07:53:09.000Z</time>
      </trkpt>
      <trkpt lat="50.37283" lon="2.63265">
        <ele>162</ele>
        <time>2013-08-24T07:53:12.000Z</time>
      </trkpt>
      <trkpt lat="50.3729" lon="2.63243">
        <ele>162</ele>
        <time>2013-08-24T07:53:15.000Z</time>
      </trkpt>
      <trkpt lat="50.37295" lon="2.63218">
        <ele>162</ele>
        <time>2013-08-24T07:53:18.000Z</time>
      </trkpt>
      <trkpt lat="50.37302" lon="2.6319">
        <ele>163</ele>
        <time>2013-08-24T07:53:21.000Z</time>
      </trkpt>
      <trkpt lat="50.3731" lon="2.63162">
        <ele>163</ele>
        <time>2013-08-24T07:53:24.000Z</time>
      </trkpt>
      <trkpt lat="50.37318" lon="2.63135">
        <ele>163</ele>
        <time>2013-08-24T07:53:27.000Z</time>
      </trkpt>
      <trkpt lat="50.37327" lon="2.63111">
        <ele>163</ele>
        <time>2013-08-24T07:53:30.000Z</time>
      </trkpt>
      <trkpt lat="50.37335" lon="2.63088">
        <ele>165</ele>
        <time>2013-08-24T07:53:33.000Z</time>
      </trkpt>
      <trkpt lat="50.37343" lon="2.63065">
        <ele>167</ele>
        <time>2013-08-24T07:53:36.000Z</time>
      </trkpt>
      <trkpt lat="50.37356" lon="2.63046">
        <ele>168</ele>
        <time>2013-08-24T07:53:39.000Z</time>
      </trkpt>
      <trkpt lat="50.37366" lon="2.63021">
        <ele>168</ele>
        <time>2013-08-24T07:53:42.000Z</time>
      </trkpt>
      <trkpt lat="50.37376" lon="2.62996">
        <ele>168</ele>
        <time>2013-08-24T07:53:45.000Z</time>
      </trkpt>
      <trkpt lat="50.37384" lon="2.62973">
        <ele>168</ele>
        <time>2013-08-24T07:53:48.000Z</time>
      </trkpt>
      <trkpt lat="50.37392" lon="2.62949">
        <ele>169</ele>
        <time>2013-08-24T07:53:51.000Z</time>
      </trkpt>
      <trkpt lat="50.37399" lon="2.62923">
        <ele>167</ele>
        <time>2013-08-24T07:53:54.000Z</time>
      </trkpt>
      <trkpt lat="50.37406" lon="2.62901">
        <ele>166</ele>
        <time>2013-08-24T07:53:57.000Z</time>
      </trkpt>
      <trkpt lat="50.37412" lon="2.62879">
        <ele>165</ele>
        <time>2013-08-24T07:54:00.000Z</time>
      </trkpt>
      <trkpt lat="50.3742" lon="2.62857">
        <ele>165</ele>
        <time>2013-08-24T07:54:03.000Z</time>
      </trkpt>
      <trkpt lat="50.37427" lon="2.62835">
        <ele>166</ele>
        <time>2013-08-24T07:54:06.000Z</time>
      </trkpt>
      <trkpt lat="50.37434" lon="2.62812">
        <ele>166</ele>
        <time>2013-08-24T07:54:09.000Z</time>
      </trkpt>
      <trkpt lat="50.37441" lon="2.62792">
        <ele>168</ele>
        <time>2013-08-24T07:54:12.000Z</time>
      </trkpt>
      <trkpt lat="50.37453" lon="2.62775">
        <ele>170</ele>
        <time>2013-08-24T07:54:15.000Z</time>
      </trkpt>
      <trkpt lat="50.37464" lon="2.62752">
        <ele>170</ele>
        <time>2013-08-24T07:54:18.000Z</time>
      </trkpt>
      <trkpt lat="50.37476" lon="2.62729">
        <ele>171</ele>
        <time>2013-08-24T07:54:21.000Z</time>
      </trkpt>
      <trkpt lat="50.37488" lon="2.62706">
        <ele>171</ele>
        <time>2013-08-24T07:54:24.000Z</time>
      </trkpt>
      <trkpt lat="50.37497" lon="2.62686">
        <ele>171</ele>
        <time>2013-08-24T07:54:27.000Z</time>
      </trkpt>
      <trkpt lat="50.37507" lon="2.62668">
        <ele>171</ele>
        <time>2013-08-24T07:54:30.000Z</time>
      </trkpt>
      <trkpt lat="50.37517" lon="2.62649">
        <ele>171</ele>
        <time>2013-08-24T07:54:33.000Z</time>
      </trkpt>
      <trkpt lat="50.37521" lon="2.62624">
        <ele>171</ele>
        <time>2013-08-24T07:54:36.000Z</time>
      </trkpt>
      <trkpt lat="50.37529" lon="2.62598">
        <ele>171</ele>
        <time>2013-08-24T07:54:39.000Z</time>
      </trkpt>
      <trkpt lat="50.37535" lon="2.62574">
        <ele>171</ele>
        <time>2013-08-24T07:54:42.000Z</time>
      </trkpt>
      <trkpt lat="50.37543" lon="2.62549">
        <ele>170</ele>
        <time>2013-08-24T07:54:45.000Z</time>
      </trkpt>
      <trkpt lat="50.37551" lon="2.62525">
        <ele>171</ele>
        <time>2013-08-24T07:54:48.000Z</time>
      </trkpt>
      <trkpt lat="50.3756" lon="2.62499">
        <ele>171</ele>
        <time>2013-08-24T07:54:51.000Z</time>
      </trkpt>
      <trkpt lat="50.37568" lon="2.62475">
        <ele>172</ele>
        <time>2013-08-24T07:54:54.000Z</time>
      </trkpt>
      <trkpt lat="50.37575" lon="2.62454">
        <ele>172</ele>
        <time>2013-08-24T07:54:57.000Z</time>
      </trkpt>
      <trkpt lat="50.37585" lon="2.62433">
        <ele>172</ele>
        <time>2013-08-24T07:55:00.000Z</time>
      </trkpt>
      <trkpt lat="50.37595" lon="2.62409">
        <ele>171</ele>
        <time>2013-08-24T07:55:03.000Z</time>
      </trkpt>
      <trkpt lat="50.37603" lon="2.62386">
        <ele>171</ele>
        <time>2013-08-24T07:55:06.000Z</time>
      </trkpt>
      <trkpt lat="50.37611" lon="2.62365">
        <ele>171</ele>
        <time>2013-08-24T07:55:09.000Z</time>
      </trkpt>
      <trkpt lat="50.37619" lon="2.62344">
        <ele>171</ele>
        <time>2013-08-24T07:55:12.000Z</time>
      </trkpt>
      <trkpt lat="50.37621" lon="2.62319">
        <ele>172</ele>
        <time>2013-08-24T07:55:15.000Z</time>
      </trkpt>
      <trkpt lat="50.37628" lon="2.62297">
        <ele>173</ele>
        <time>2013-08-24T07:55:18.000Z</time>
      </trkpt>
      <trkpt lat="50.37634" lon="2.62274">
        <ele>173</ele>
        <time>2013-08-24T07:55:21.000Z</time>
      </trkpt>
      <trkpt lat="50.37638" lon="2.6225">
        <ele>171</ele>
        <time>2013-08-24T07:55:24.000Z</time>
      </trkpt>
      <trkpt lat="50.37642" lon="2.62225">
        <ele>170</ele>
        <time>2013-08-24T07:55:27.000Z</time>
      </trkpt>
      <trkpt lat="50.37645" lon="2.62199">
        <ele>169</ele>
        <time>2013-08-24T07:55:30.000Z</time>
      </trkpt>
      <trkpt lat="50.37648" lon="2.62172">
        <ele>167</ele>
        <time>2013-08-24T07:55:33.000Z</time>
      </trkpt>
      <trkpt lat="50.37651" lon="2.62147">
        <ele>166</ele>
        <time>2013-08-24T07:55:36.000Z</time>
      </trkpt>
      <trkpt lat="50.37654" lon="2.62121">
        <ele>166</ele>
        <time>2013-08-24T07:55:39.000Z</time>
      </trkpt>
      <trkpt lat="50.37657" lon="2.62096">
        <ele>166</ele>
        <time>2013-08-24T07:55:42.000Z</time>
      </trkpt>
      <trkpt lat="50.37674" lon="2.62076">
        <ele>167</ele>
        <time>2013-08-24T07:55:51.000Z</time>
      </trkpt>
      <trkpt lat="50.37682" lon="2.62054">
        <ele>168</ele>
        <time>2013-08-24T07:55:51.000Z</time>
      </trkpt>
      <trkpt lat="50.3769" lon="2.62033">
        <ele>169</ele>
        <time>2013-08-24T07:55:51.000Z</time>
      </trkpt>
      <trkpt lat="50.37698" lon="2.62011">
        <ele>170</ele>
        <time>2013-08-24T07:55:54.000Z</time>
      </trkpt>
      <trkpt lat="50.37706" lon="2.61989">
        <ele>171</ele>
        <time>2013-08-24T07:55:57.000Z</time>
      </trkpt>
      <trkpt lat="50.37712" lon="2.61969">
        <ele>172</ele>
        <time>2013-08-24T07:56:00.000Z</time>
      </trkpt>
      <trkpt lat="50.37719" lon="2.61947">
        <ele>172</ele>
        <time>2013-08-24T07:56:03.000Z</time>
      </trkpt>
      <trkpt lat="50.37726" lon="2.61925">
        <ele>170</ele>
        <time>2013-08-24T07:56:06.000Z</time>
      </trkpt>
      <trkpt lat="50.37733" lon="2.61904">
        <ele>169</ele>
        <time>2013-08-24T07:56:09.000Z</time>
      </trkpt>
      <trkpt lat="50.37742" lon="2.61884">
        <ele>168</ele>
        <time>2013-08-24T07:56:12.000Z</time>
      </trkpt>
      <trkpt lat="50.37749" lon="2.61863">
        <ele>167</ele>
        <time>2013-08-24T07:56:15.000Z</time>
      </trkpt>
      <trkpt lat="50.37754" lon="2.61843">
        <ele>167</ele>
        <time>2013-08-24T07:56:18.000Z</time>
      </trkpt>
      <trkpt lat="50.37759" lon="2.61823">
        <ele>168</ele>
        <time>2013-08-24T07:56:21.000Z</time>
      </trkpt>
      <trkpt lat="50.37765" lon="2.618">
        <ele>168</ele>
        <time>2013-08-24T07:56:24.000Z</time>
      </trkpt>
      <trkpt lat="50.37772" lon="2.6178">
        <ele>169</ele>
        <time>2013-08-24T07:56:27.000Z</time>
      </trkpt>
      <trkpt lat="50.37778" lon="2.6176">
        <ele>170</ele>
        <time>2013-08-24T07:56:30.000Z</time>
      </trkpt>
      <trkpt lat="50.3779" lon="2.61742">
        <ele>171</ele>
        <time>2013-08-24T07:56:33.000Z</time>
      </trkpt>
      <trkpt lat="50.37796" lon="2.61722">
        <ele>172</ele>
        <time>2013-08-24T07:56:36.000Z</time>
      </trkpt>
      <trkpt lat="50.37803" lon="2.61704">
        <ele>173</ele>
        <time>2013-08-24T07:56:39.000Z</time>
      </trkpt>
      <trkpt lat="50.37811" lon="2.61687">
        <ele>174</ele>
        <time>2013-08-24T07:56:42.000Z</time>
      </trkpt>
      <trkpt lat="50.3782" lon="2.61669">
        <ele>174</ele>
        <time>2013-08-24T07:56:45.000Z</time>
      </trkpt>
      <trkpt lat="50.37831" lon="2.61655">
        <ele>175</ele>
        <time>2013-08-24T07:56:48.000Z</time>
      </trkpt>
      <trkpt lat="50.37843" lon="2.6164">
        <ele>174</ele>
        <time>2013-08-24T07:56:51.000Z</time>
      </trkpt>
      <trkpt lat="50.37855" lon="2.61627">
        <ele>174</ele>
        <time>2013-08-24T07:56:54.000Z</time>
      </trkpt>
      <trkpt lat="50.37865" lon="2.61609">
        <ele>174</ele>
        <time>2013-08-24T07:56:57.000Z</time>
      </trkpt>
      <trkpt lat="50.3788" lon="2.616">
        <ele>174</ele>
        <time>2013-08-24T07:57:00.000Z</time>
      </trkpt>
      <trkpt lat="50.37899" lon="2.61574">
        <ele>175</ele>
        <time>2013-08-24T07:57:06.000Z</time>
      </trkpt>
      <trkpt lat="50.37909" lon="2.61558">
        <ele>175</ele>
        <time>2013-08-24T07:57:09.000Z</time>
      </trkpt>
      <trkpt lat="50.37918" lon="2.61544">
        <ele>175</ele>
        <time>2013-08-24T07:57:12.000Z</time>
      </trkpt>
      <trkpt lat="50.37933" lon="2.61522">
        <ele>174</ele>
        <time>2013-08-24T07:57:18.000Z</time>
      </trkpt>
      <trkpt lat="50.3795" lon="2.61514">
        <ele>175</ele>
        <time>2013-08-24T07:57:27.000Z</time>
      </trkpt>
      <trkpt lat="50.3796" lon="2.61501">
        <ele>175</ele>
        <time>2013-08-24T07:57:33.000Z</time>
      </trkpt>
      <trkpt lat="50.37966" lon="2.61491">
        <ele>175</ele>
        <time>2013-08-24T07:57:39.000Z</time>
      </trkpt>
      <trkpt lat="50.37971" lon="2.6148">
        <ele>175</ele>
        <time>2013-08-24T07:57:42.000Z</time>
      </trkpt>
      <trkpt lat="50.37975" lon="2.61466">
        <ele>175</ele>
        <time>2013-08-24T07:57:45.000Z</time>
      </trkpt>
      <trkpt lat="50.37981" lon="2.6145">
        <ele>176</ele>
        <time>2013-08-24T07:57:48.000Z</time>
      </trkpt>
      <trkpt lat="50.37986" lon="2.6143">
        <ele>177</ele>
        <time>2013-08-24T07:57:51.000Z</time>
      </trkpt>
      <trkpt lat="50.37997" lon="2.61387">
        <ele>177</ele>
        <time>2013-08-24T07:57:54.000Z</time>
      </trkpt>
      <trkpt lat="50.38004" lon="2.61364">
        <ele>178</ele>
        <time>2013-08-24T07:57:57.000Z</time>
      </trkpt>
      <trkpt lat="50.38009" lon="2.6134">
        <ele>178</ele>
        <time>2013-08-24T07:58:00.000Z</time>
      </trkpt>
      <trkpt lat="50.38015" lon="2.61319">
        <ele>178</ele>
        <time>2013-08-24T07:58:03.000Z</time>
      </trkpt>
      <trkpt lat="50.38012" lon="2.61293">
        <ele>178</ele>
        <time>2013-08-24T07:58:06.000Z</time>
      </trkpt>
      <trkpt lat="50.38008" lon="2.61266">
        <ele>177</ele>
        <time>2013-08-24T07:58:09.000Z</time>
      </trkpt>
      <trkpt lat="50.38007" lon="2.61242">
        <ele>177</ele>
        <time>2013-08-24T07:58:12.000Z</time>
      </trkpt>
      <trkpt lat="50.38003" lon="2.61216">
        <ele>176</ele>
        <time>2013-08-24T07:58:15.000Z</time>
      </trkpt>
      <trkpt lat="50.37999" lon="2.6119">
        <ele>176</ele>
        <time>2013-08-24T07:58:18.000Z</time>
      </trkpt>
      <trkpt lat="50.37997" lon="2.61163">
        <ele>178</ele>
        <time>2013-08-24T07:58:21.000Z</time>
      </trkpt>
      <trkpt lat="50.37994" lon="2.6114">
        <ele>179</ele>
        <time>2013-08-24T07:58:24.000Z</time>
      </trkpt>
      <trkpt lat="50.38006" lon="2.61114">
        <ele>179</ele>
        <time>2013-08-24T07:58:27.000Z</time>
      </trkpt>
      <trkpt lat="50.38017" lon="2.61093">
        <ele>178</ele>
        <time>2013-08-24T07:58:30.000Z</time>
      </trkpt>
      <trkpt lat="50.38026" lon="2.61072">
        <ele>178</ele>
        <time>2013-08-24T07:58:33.000Z</time>
      </trkpt>
      <trkpt lat="50.38036" lon="2.61052">
        <ele>177</ele>
        <time>2013-08-24T07:58:36.000Z</time>
      </trkpt>
      <trkpt lat="50.38046" lon="2.61033">
        <ele>178</ele>
        <time>2013-08-24T07:58:39.000Z</time>
      </trkpt>
      <trkpt lat="50.38059" lon="2.6102">
        <ele>178</ele>
        <time>2013-08-24T07:58:42.000Z</time>
      </trkpt>
      <trkpt lat="50.38069" lon="2.60999">
        <ele>179</ele>
        <time>2013-08-24T07:58:56.000Z</time>
      </trkpt>
      <trkpt lat="50.38078" lon="2.6098">
        <ele>180</ele>
        <time>2013-08-24T07:58:56.000Z</time>
      </trkpt>
      <trkpt lat="50.38081" lon="2.60956">
        <ele>181</ele>
        <time>2013-08-24T07:58:56.000Z</time>
      </trkpt>
      <trkpt lat="50.38089" lon="2.60937">
        <ele>181</ele>
        <time>2013-08-24T07:58:56.000Z</time>
      </trkpt>
      <trkpt lat="50.38095" lon="2.60915">
        <ele>181</ele>
        <time>2013-08-24T07:58:57.000Z</time>
      </trkpt>
      <trkpt lat="50.38102" lon="2.60893">
        <ele>181</ele>
        <time>2013-08-24T07:59:00.000Z</time>
      </trkpt>
      <trkpt lat="50.38108" lon="2.6087">
        <ele>183</ele>
        <time>2013-08-24T07:59:03.000Z</time>
      </trkpt>
      <trkpt lat="50.38113" lon="2.60846">
        <ele>183</ele>
        <time>2013-08-24T07:59:06.000Z</time>
      </trkpt>
      <trkpt lat="50.38118" lon="2.60823">
        <ele>183</ele>
        <time>2013-08-24T07:59:09.000Z</time>
      </trkpt>
      <trkpt lat="50.38124" lon="2.60802">
        <ele>183</ele>
        <time>2013-08-24T07:59:12.000Z</time>
      </trkpt>
      <trkpt lat="50.38129" lon="2.6078">
        <ele>182</ele>
        <time>2013-08-24T07:59:16.000Z</time>
      </trkpt>
      <trkpt lat="50.38134" lon="2.60759">
        <ele>182</ele>
        <time>2013-08-24T07:59:18.000Z</time>
      </trkpt>
      <trkpt lat="50.38139" lon="2.60737">
        <ele>182</ele>
        <time>2013-08-24T07:59:21.000Z</time>
      </trkpt>
      <trkpt lat="50.38126" lon="2.60701">
        <ele>183</ele>
        <time>2013-08-24T07:59:24.000Z</time>
      </trkpt>
      <trkpt lat="50.38128" lon="2.60677">
        <ele>183</ele>
        <time>2013-08-24T07:59:27.000Z</time>
      </trkpt>
      <trkpt lat="50.38129" lon="2.60655">
        <ele>184</ele>
        <time>2013-08-24T07:59:30.000Z</time>
      </trkpt>
      <trkpt lat="50.38131" lon="2.60634">
        <ele>184</ele>
        <time>2013-08-24T07:59:33.000Z</time>
      </trkpt>
      <trkpt lat="50.38133" lon="2.60614">
        <ele>184</ele>
        <time>2013-08-24T07:59:36.000Z</time>
      </trkpt>
      <trkpt lat="50.38135" lon="2.60592">
        <ele>183</ele>
        <time>2013-08-24T07:59:39.000Z</time>
      </trkpt>
      <trkpt lat="50.38136" lon="2.60572">
        <ele>184</ele>
        <time>2013-08-24T07:59:42.000Z</time>
      </trkpt>
      <trkpt lat="50.38138" lon="2.60552">
        <ele>184</ele>
        <time>2013-08-24T07:59:45.000Z</time>
      </trkpt>
      <trkpt lat="50.38146" lon="2.6052">
        <ele>186</ele>
        <time>2013-08-24T07:59:51.000Z</time>
      </trkpt>
      <trkpt lat="50.38149" lon="2.605">
        <ele>186</ele>
        <time>2013-08-24T07:59:54.000Z</time>
      </trkpt>
      <trkpt lat="50.38152" lon="2.6048">
        <ele>186</ele>
        <time>2013-08-24T07:59:57.000Z</time>
      </trkpt>
      <trkpt lat="50.38155" lon="2.60458">
        <ele>187</ele>
        <time>2013-08-24T08:00:00.000Z</time>
      </trkpt>
      <trkpt lat="50.38158" lon="2.60436">
        <ele>189</ele>
        <time>2013-08-24T08:00:03.000Z</time>
      </trkpt>
      <trkpt lat="50.38158" lon="2.60416">
        <ele>191</ele>
        <time>2013-08-24T08:00:06.000Z</time>
      </trkpt>
      <trkpt lat="50.38158" lon="2.60395">
        <ele>191</ele>
        <time>2013-08-24T08:00:09.000Z</time>
      </trkpt>
      <trkpt lat="50.38158" lon="2.60373">
        <ele>190</ele>
        <time>2013-08-24T08:00:12.000Z</time>
      </trkpt>
      <trkpt lat="50.38158" lon="2.6034">
        <ele>189</ele>
        <time>2013-08-24T08:00:18.000Z</time>
      </trkpt>
      <trkpt lat="50.38158" lon="2.60308">
        <ele>190</ele>
        <time>2013-08-24T08:00:24.000Z</time>
      </trkpt>
      <trkpt lat="50.38161" lon="2.60275">
        <ele>191</ele>
        <time>2013-08-24T08:00:30.000Z</time>
      </trkpt>
      <trkpt lat="50.38162" lon="2.60238">
        <ele>191</ele>
        <time>2013-08-24T08:00:36.000Z</time>
      </trkpt>
      <trkpt lat="50.38163" lon="2.60201">
        <ele>194</ele>
        <time>2013-08-24T08:00:42.000Z</time>
      </trkpt>
      <trkpt lat="50.38164" lon="2.60168">
        <ele>195</ele>
        <time>2013-08-24T08:00:48.000Z</time>
      </trkpt>
      <trkpt lat="50.38165" lon="2.60133">
        <ele>196</ele>
        <time>2013-08-24T08:00:54.000Z</time>
      </trkpt>
      <trkpt lat="50.38163" lon="2.60112">
        <ele>196</ele>
        <time>2013-08-24T08:00:57.000Z</time>
      </trkpt>
      <trkpt lat="50.38163" lon="2.6009">
        <ele>197</ele>
        <time>2013-08-24T08:01:00.000Z</time>
      </trkpt>
      <trkpt lat="50.38161" lon="2.6007">
        <ele>198</ele>
        <time>2013-08-24T08:01:03.000Z</time>
      </trkpt>
      <trkpt lat="50.3816" lon="2.60031">
        <ele>198</ele>
        <time>2013-08-24T08:01:09.000Z</time>
      </trkpt>
      <trkpt lat="50.38161" lon="2.6001">
        <ele>198</ele>
        <time>2013-08-24T08:01:12.000Z</time>
      </trkpt>
      <trkpt lat="50.38161" lon="2.59986">
        <ele>198</ele>
        <time>2013-08-24T08:01:16.000Z</time>
      </trkpt>
      <trkpt lat="50.38161" lon="2.5996">
        <ele>199</ele>
        <time>2013-08-24T08:01:18.000Z</time>
      </trkpt>
      <trkpt lat="50.38162" lon="2.59933">
        <ele>199</ele>
        <time>2013-08-24T08:01:21.000Z</time>
      </trkpt>
      <trkpt lat="50.38163" lon="2.59906">
        <ele>199</ele>
        <time>2013-08-24T08:01:24.000Z</time>
      </trkpt>
      <trkpt lat="50.38165" lon="2.59879">
        <ele>200</ele>
        <time>2013-08-24T08:01:27.000Z</time>
      </trkpt>
      <trkpt lat="50.38166" lon="2.59852">
        <ele>200</ele>
        <time>2013-08-24T08:01:30.000Z</time>
      </trkpt>
      <trkpt lat="50.38169" lon="2.59827">
        <ele>199</ele>
        <time>2013-08-24T08:01:33.000Z</time>
      </trkpt>
      <trkpt lat="50.38173" lon="2.598">
        <ele>199</ele>
        <time>2013-08-24T08:01:36.000Z</time>
      </trkpt>
      <trkpt lat="50.38176" lon="2.59774">
        <ele>199</ele>
        <time>2013-08-24T08:01:39.000Z</time>
      </trkpt>
      <trkpt lat="50.38179" lon="2.59746">
        <ele>198</ele>
        <time>2013-08-24T08:01:42.000Z</time>
      </trkpt>
      <trkpt lat="50.38182" lon="2.59716">
        <ele>196</ele>
        <time>2013-08-24T08:01:47.000Z</time>
      </trkpt>
      <trkpt lat="50.38184" lon="2.59686">
        <ele>195</ele>
        <time>2013-08-24T08:01:48.000Z</time>
      </trkpt>
      <trkpt lat="50.38187" lon="2.59656">
        <ele>195</ele>
        <time>2013-08-24T08:01:51.000Z</time>
      </trkpt>
      <trkpt lat="50.38191" lon="2.59627">
        <ele>195</ele>
        <time>2013-08-24T08:01:54.000Z</time>
      </trkpt>
      <trkpt lat="50.38193" lon="2.59598">
        <ele>196</ele>
        <time>2013-08-24T08:01:57.000Z</time>
      </trkpt>
      <trkpt lat="50.3819" lon="2.59568">
        <ele>196</ele>
        <time>2013-08-24T08:02:00.000Z</time>
      </trkpt>
      <trkpt lat="50.38184" lon="2.59538">
        <ele>196</ele>
        <time>2013-08-24T08:02:03.000Z</time>
      </trkpt>
      <trkpt lat="50.38173" lon="2.59508">
        <ele>195</ele>
        <time>2013-08-24T08:02:06.000Z</time>
      </trkpt>
      <trkpt lat="50.38163" lon="2.59477">
        <ele>194</ele>
        <time>2013-08-24T08:02:09.000Z</time>
      </trkpt>
      <trkpt lat="50.38153" lon="2.59451">
        <ele>194</ele>
        <time>2013-08-24T08:02:12.000Z</time>
      </trkpt>
      <trkpt lat="50.38142" lon="2.59421">
        <ele>194</ele>
        <time>2013-08-24T08:02:15.000Z</time>
      </trkpt>
      <trkpt lat="50.38133" lon="2.59392">
        <ele>193</ele>
        <time>2013-08-24T08:02:18.000Z</time>
      </trkpt>
      <trkpt lat="50.38125" lon="2.59362">
        <ele>193</ele>
        <time>2013-08-24T08:02:21.000Z</time>
      </trkpt>
      <trkpt lat="50.38116" lon="2.59331">
        <ele>193</ele>
        <time>2013-08-24T08:02:24.000Z</time>
      </trkpt>
      <trkpt lat="50.38107" lon="2.59299">
        <ele>193</ele>
        <time>2013-08-24T08:02:27.000Z</time>
      </trkpt>
      <trkpt lat="50.38097" lon="2.59268">
        <ele>193</ele>
        <time>2013-08-24T08:02:30.000Z</time>
      </trkpt>
      <trkpt lat="50.38087" lon="2.59237">
        <ele>191</ele>
        <time>2013-08-24T08:02:33.000Z</time>
      </trkpt>
      <trkpt lat="50.38078" lon="2.59207">
        <ele>189</ele>
        <time>2013-08-24T08:02:36.000Z</time>
      </trkpt>
      <trkpt lat="50.38069" lon="2.59176">
        <ele>188</ele>
        <time>2013-08-24T08:02:39.000Z</time>
      </trkpt>
      <trkpt lat="50.38059" lon="2.59144">
        <ele>187</ele>
        <time>2013-08-24T08:02:42.000Z</time>
      </trkpt>
      <trkpt lat="50.3805" lon="2.59113">
        <ele>187</ele>
        <time>2013-08-24T08:02:45.000Z</time>
      </trkpt>
      <trkpt lat="50.38042" lon="2.59086">
        <ele>188</ele>
        <time>2013-08-24T08:02:48.000Z</time>
      </trkpt>
      <trkpt lat="50.38034" lon="2.5906">
        <ele>189</ele>
        <time>2013-08-24T08:02:51.000Z</time>
      </trkpt>
      <trkpt lat="50.38025" lon="2.59036">
        <ele>188</ele>
        <time>2013-08-24T08:02:54.000Z</time>
      </trkpt>
      <trkpt lat="50.38006" lon="2.59016">
        <ele>188</ele>
        <time>2013-08-24T08:02:57.000Z</time>
      </trkpt>
      <trkpt lat="50.37988" lon="2.59002">
        <ele>188</ele>
        <time>2013-08-24T08:03:00.000Z</time>
      </trkpt>
      <trkpt lat="50.37972" lon="2.58988">
        <ele>187</ele>
        <time>2013-08-24T08:03:03.000Z</time>
      </trkpt>
      <trkpt lat="50.37958" lon="2.58972">
        <ele>185</ele>
        <time>2013-08-24T08:03:06.000Z</time>
      </trkpt>
      <trkpt lat="50.37944" lon="2.58959">
        <ele>187</ele>
        <time>2013-08-24T08:03:09.000Z</time>
      </trkpt>
      <trkpt lat="50.37931" lon="2.58945">
        <ele>188</ele>
        <time>2013-08-24T08:03:12.000Z</time>
      </trkpt>
      <trkpt lat="50.3792" lon="2.58934">
        <ele>187</ele>
        <time>2013-08-24T08:03:15.000Z</time>
      </trkpt>
      <trkpt lat="50.37874" lon="2.58915">
        <ele>187</ele>
        <time>2013-08-24T08:03:27.000Z</time>
      </trkpt>
      <trkpt lat="50.37841" lon="2.5889">
        <ele>184</ele>
        <time>2013-08-24T08:03:36.000Z</time>
      </trkpt>
      <trkpt lat="50.37828" lon="2.58885">
        <ele>186</ele>
        <time>2013-08-24T08:03:39.000Z</time>
      </trkpt>
      <trkpt lat="50.37815" lon="2.58882">
        <ele>186</ele>
        <time>2013-08-24T08:03:42.000Z</time>
      </trkpt>
      <trkpt lat="50.37791" lon="2.58875">
        <ele>186</ele>
        <time>2013-08-24T08:03:48.000Z</time>
      </trkpt>
      <trkpt lat="50.37767" lon="2.58868">
        <ele>188</ele>
        <time>2013-08-24T08:03:54.000Z</time>
      </trkpt>
      <trkpt lat="50.37748" lon="2.58863">
        <ele>188</ele>
        <time>2013-08-24T08:04:00.000Z</time>
      </trkpt>
      <trkpt lat="50.3773" lon="2.58858">
        <ele>188</ele>
        <time>2013-08-24T08:04:06.000Z</time>
      </trkpt>
      <trkpt lat="50.37709" lon="2.58839">
        <ele>190</ele>
        <time>2013-08-24T08:04:12.000Z</time>
      </trkpt>
      <trkpt lat="50.37705" lon="2.58798">
        <ele>192</ele>
        <time>2013-08-24T08:04:18.000Z</time>
      </trkpt>
      <trkpt lat="50.37701" lon="2.58777">
        <ele>192</ele>
        <time>2013-08-24T08:04:21.000Z</time>
      </trkpt>
      <trkpt lat="50.37696" lon="2.58746">
        <ele>192</ele>
        <time>2013-08-24T08:04:27.000Z</time>
      </trkpt>
      <trkpt lat="50.37697" lon="2.58714">
        <ele>193</ele>
        <time>2013-08-24T08:04:33.000Z</time>
      </trkpt>
      <trkpt lat="50.37692" lon="2.5868">
        <ele>195</ele>
        <time>2013-08-24T08:04:39.000Z</time>
      </trkpt>
      <trkpt lat="50.3769" lon="2.58658">
        <ele>196</ele>
        <time>2013-08-24T08:04:42.000Z</time>
      </trkpt>
      <trkpt lat="50.37687" lon="2.58616">
        <ele>197</ele>
        <time>2013-08-24T08:04:47.000Z</time>
      </trkpt>
      <trkpt lat="50.37687" lon="2.58591">
        <ele>198</ele>
        <time>2013-08-24T08:04:50.000Z</time>
      </trkpt>
      <trkpt lat="50.37686" lon="2.58567">
        <ele>198</ele>
        <time>2013-08-24T08:04:53.000Z</time>
      </trkpt>
      <trkpt lat="50.37684" lon="2.58528">
        <ele>199</ele>
        <time>2013-08-24T08:04:59.000Z</time>
      </trkpt>
      <trkpt lat="50.37669" lon="2.58491">
        <ele>199</ele>
        <time>2013-08-24T08:05:05.000Z</time>
      </trkpt>
      <trkpt lat="50.37664" lon="2.58473">
        <ele>200</ele>
        <time>2013-08-24T08:05:08.000Z</time>
      </trkpt>
      <trkpt lat="50.37659" lon="2.58453">
        <ele>200</ele>
        <time>2013-08-24T08:05:11.000Z</time>
      </trkpt>
      <trkpt lat="50.37654" lon="2.58435">
        <ele>200</ele>
        <time>2013-08-24T08:05:14.000Z</time>
      </trkpt>
      <trkpt lat="50.37648" lon="2.58417">
        <ele>200</ele>
        <time>2013-08-24T08:05:17.000Z</time>
      </trkpt>
      <trkpt lat="50.37641" lon="2.58396">
        <ele>200</ele>
        <time>2013-08-24T08:05:20.000Z</time>
      </trkpt>
      <trkpt lat="50.37634" lon="2.58376">
        <ele>200</ele>
        <time>2013-08-24T08:05:23.000Z</time>
      </trkpt>
      <trkpt lat="50.37629" lon="2.58354">
        <ele>200</ele>
        <time>2013-08-24T08:05:26.000Z</time>
      </trkpt>
      <trkpt lat="50.37622" lon="2.58328">
        <ele>199</ele>
        <time>2013-08-24T08:05:29.000Z</time>
      </trkpt>
      <trkpt lat="50.37614" lon="2.583">
        <ele>197</ele>
        <time>2013-08-24T08:05:32.000Z</time>
      </trkpt>
      <trkpt lat="50.37606" lon="2.58274">
        <ele>196</ele>
        <time>2013-08-24T08:05:35.000Z</time>
      </trkpt>
      <trkpt lat="50.376" lon="2.58247">
        <ele>196</ele>
        <time>2013-08-24T08:05:38.000Z</time>
      </trkpt>
      <trkpt lat="50.37595" lon="2.58219">
        <ele>196</ele>
        <time>2013-08-24T08:05:41.000Z</time>
      </trkpt>
      <trkpt lat="50.37589" lon="2.58188">
        <ele>195</ele>
        <time>2013-08-24T08:05:45.000Z</time>
      </trkpt>
      <trkpt lat="50.37583" lon="2.58156">
        <ele>195</ele>
        <time>2013-08-24T08:05:47.000Z</time>
      </trkpt>
      <trkpt lat="50.37576" lon="2.5812">
        <ele>194</ele>
        <time>2013-08-24T08:05:50.000Z</time>
      </trkpt>
      <trkpt lat="50.37568" lon="2.58082">
        <ele>193</ele>
        <time>2013-08-24T08:05:53.000Z</time>
      </trkpt>
      <trkpt lat="50.37559" lon="2.58043">
        <ele>192</ele>
        <time>2013-08-24T08:05:56.000Z</time>
      </trkpt>
      <trkpt lat="50.37549" lon="2.58006">
        <ele>191</ele>
        <time>2013-08-24T08:05:59.000Z</time>
      </trkpt>
      <trkpt lat="50.37541" lon="2.57974">
        <ele>190</ele>
        <time>2013-08-24T08:06:02.000Z</time>
      </trkpt>
      <trkpt lat="50.37533" lon="2.57942">
        <ele>188</ele>
        <time>2013-08-24T08:06:05.000Z</time>
      </trkpt>
      <trkpt lat="50.37525" lon="2.57912">
        <ele>188</ele>
        <time>2013-08-24T08:06:08.000Z</time>
      </trkpt>
      <trkpt lat="50.37518" lon="2.57881">
        <ele>188</ele>
        <time>2013-08-24T08:06:11.000Z</time>
      </trkpt>
      <trkpt lat="50.37512" lon="2.57851">
        <ele>190</ele>
        <time>2013-08-24T08:06:14.000Z</time>
      </trkpt>
      <trkpt lat="50.37505" lon="2.57823">
        <ele>191</ele>
        <time>2013-08-24T08:06:17.000Z</time>
      </trkpt>
      <trkpt lat="50.37497" lon="2.57798">
        <ele>190</ele>
        <time>2013-08-24T08:06:20.000Z</time>
      </trkpt>
      <trkpt lat="50.37491" lon="2.57771">
        <ele>189</ele>
        <time>2013-08-24T08:06:23.000Z</time>
      </trkpt>
      <trkpt lat="50.37484" lon="2.57746">
        <ele>187</ele>
        <time>2013-08-24T08:06:26.000Z</time>
      </trkpt>
      <trkpt lat="50.37478" lon="2.5772">
        <ele>186</ele>
        <time>2013-08-24T08:06:29.000Z</time>
      </trkpt>
      <trkpt lat="50.37473" lon="2.57698">
        <ele>187</ele>
        <time>2013-08-24T08:06:32.000Z</time>
      </trkpt>
      <trkpt lat="50.37466" lon="2.5767">
        <ele>186</ele>
        <time>2013-08-24T08:06:38.000Z</time>
      </trkpt>
      <trkpt lat="50.37453" lon="2.57666">
        <ele>186</ele>
        <time>2013-08-24T08:06:41.000Z</time>
      </trkpt>
      <trkpt lat="50.3744" lon="2.57659">
        <ele>186</ele>
        <time>2013-08-24T08:06:44.000Z</time>
      </trkpt>
      <trkpt lat="50.37424" lon="2.57651">
        <ele>186</ele>
        <time>2013-08-24T08:06:47.000Z</time>
      </trkpt>
      <trkpt lat="50.37407" lon="2.57646">
        <ele>187</ele>
        <time>2013-08-24T08:06:50.000Z</time>
      </trkpt>
      <trkpt lat="50.37389" lon="2.5764">
        <ele>186</ele>
        <time>2013-08-24T08:06:53.000Z</time>
      </trkpt>
      <trkpt lat="50.37373" lon="2.57634">
        <ele>185</ele>
        <time>2013-08-24T08:06:56.000Z</time>
      </trkpt>
      <trkpt lat="50.37355" lon="2.57623">
        <ele>184</ele>
        <time>2013-08-24T08:06:59.000Z</time>
      </trkpt>
      <trkpt lat="50.37339" lon="2.57603">
        <ele>183</ele>
        <time>2013-08-24T08:07:02.000Z</time>
      </trkpt>
      <trkpt lat="50.37325" lon="2.57593">
        <ele>182</ele>
        <time>2013-08-24T08:07:05.000Z</time>
      </trkpt>
      <trkpt lat="50.37312" lon="2.57581">
        <ele>182</ele>
        <time>2013-08-24T08:07:08.000Z</time>
      </trkpt>
      <trkpt lat="50.37299" lon="2.57569">
        <ele>182</ele>
        <time>2013-08-24T08:07:11.000Z</time>
      </trkpt>
      <trkpt lat="50.37286" lon="2.57557">
        <ele>183</ele>
        <time>2013-08-24T08:07:15.000Z</time>
      </trkpt>
      <trkpt lat="50.37269" lon="2.57542">
        <ele>184</ele>
        <time>2013-08-24T08:07:20.000Z</time>
      </trkpt>
      <trkpt lat="50.37263" lon="2.57535">
        <ele>182</ele>
        <time>2013-08-24T08:12:02.000Z</time>
      </trkpt>
      <trkpt lat="50.37273" lon="2.57533">
        <ele>183</ele>
        <time>2013-08-24T08:12:29.000Z</time>
      </trkpt>
      <trkpt lat="50.3728" lon="2.57537">
        <ele>183</ele>
        <time>2013-08-24T08:12:32.000Z</time>
      </trkpt>
      <trkpt lat="50.37289" lon="2.57551">
        <ele>183</ele>
        <time>2013-08-24T08:12:38.000Z</time>
      </trkpt>
      <trkpt lat="50.373" lon="2.57564">
        <ele>182</ele>
        <time>2013-08-24T08:12:41.000Z</time>
      </trkpt>
      <trkpt lat="50.37313" lon="2.57574">
        <ele>182</ele>
        <time>2013-08-24T08:12:44.000Z</time>
      </trkpt>
      <trkpt lat="50.37323" lon="2.57586">
        <ele>181</ele>
        <time>2013-08-24T08:12:48.000Z</time>
      </trkpt>
      <trkpt lat="50.37332" lon="2.57598">
        <ele>182</ele>
        <time>2013-08-24T08:12:50.000Z</time>
      </trkpt>
      <trkpt lat="50.3735" lon="2.57623">
        <ele>182</ele>
        <time>2013-08-24T08:12:53.000Z</time>
      </trkpt>
      <trkpt lat="50.37372" lon="2.57639">
        <ele>183</ele>
        <time>2013-08-24T08:12:59.000Z</time>
      </trkpt>
      <trkpt lat="50.37384" lon="2.57632">
        <ele>183</ele>
        <time>2013-08-24T08:13:02.000Z</time>
      </trkpt>
      <trkpt lat="50.37395" lon="2.57616">
        <ele>183</ele>
        <time>2013-08-24T08:13:05.000Z</time>
      </trkpt>
      <trkpt lat="50.37408" lon="2.57605">
        <ele>184</ele>
        <time>2013-08-24T08:13:11.000Z</time>
      </trkpt>
      <trkpt lat="50.37423" lon="2.5759">
        <ele>184</ele>
        <time>2013-08-24T08:13:17.000Z</time>
      </trkpt>
      <trkpt lat="50.37433" lon="2.57556">
        <ele>184</ele>
        <time>2013-08-24T08:13:23.000Z</time>
      </trkpt>
      <trkpt lat="50.3745" lon="2.57534">
        <ele>185</ele>
        <time>2013-08-24T08:13:29.000Z</time>
      </trkpt>
      <trkpt lat="50.37461" lon="2.57519">
        <ele>186</ele>
        <time>2013-08-24T08:13:32.000Z</time>
      </trkpt>
      <trkpt lat="50.3747" lon="2.57505">
        <ele>185</ele>
        <time>2013-08-24T08:13:35.000Z</time>
      </trkpt>
      <trkpt lat="50.37487" lon="2.57482">
        <ele>187</ele>
        <time>2013-08-24T08:13:41.000Z</time>
      </trkpt>
      <trkpt lat="50.37506" lon="2.57457">
        <ele>189</ele>
        <time>2013-08-24T08:13:47.000Z</time>
      </trkpt>
      <trkpt lat="50.37523" lon="2.57426">
        <ele>192</ele>
        <time>2013-08-24T08:13:53.000Z</time>
      </trkpt>
      <trkpt lat="50.37534" lon="2.57414">
        <ele>194</ele>
        <time>2013-08-24T08:13:56.000Z</time>
      </trkpt>
      <trkpt lat="50.37544" lon="2.57401">
        <ele>195</ele>
        <time>2013-08-24T08:13:59.000Z</time>
      </trkpt>
      <trkpt lat="50.37555" lon="2.57387">
        <ele>195</ele>
        <time>2013-08-24T08:14:02.000Z</time>
      </trkpt>
      <trkpt lat="50.37565" lon="2.57371">
        <ele>194</ele>
        <time>2013-08-24T08:14:05.000Z</time>
      </trkpt>
      <trkpt lat="50.37576" lon="2.57336">
        <ele>193</ele>
        <time>2013-08-24T08:14:11.000Z</time>
      </trkpt>
      <trkpt lat="50.3758" lon="2.57317">
        <ele>195</ele>
        <time>2013-08-24T08:14:14.000Z</time>
      </trkpt>
      <trkpt lat="50.37589" lon="2.57277">
        <ele>197</ele>
        <time>2013-08-24T08:14:20.000Z</time>
      </trkpt>
      <trkpt lat="50.37593" lon="2.57256">
        <ele>196</ele>
        <time>2013-08-24T08:14:23.000Z</time>
      </trkpt>
      <trkpt lat="50.37597" lon="2.57235">
        <ele>194</ele>
        <time>2013-08-24T08:14:26.000Z</time>
      </trkpt>
      <trkpt lat="50.37602" lon="2.57214">
        <ele>192</ele>
        <time>2013-08-24T08:14:29.000Z</time>
      </trkpt>
      <trkpt lat="50.37608" lon="2.57196">
        <ele>192</ele>
        <time>2013-08-24T08:14:32.000Z</time>
      </trkpt>
      <trkpt lat="50.37614" lon="2.57175">
        <ele>194</ele>
        <time>2013-08-24T08:14:35.000Z</time>
      </trkpt>
      <trkpt lat="50.37621" lon="2.57151">
        <ele>194</ele>
        <time>2013-08-24T08:14:38.000Z</time>
      </trkpt>
      <trkpt lat="50.37629" lon="2.57126">
        <ele>194</ele>
        <time>2013-08-24T08:14:41.000Z</time>
      </trkpt>
      <trkpt lat="50.37637" lon="2.57098">
        <ele>194</ele>
        <time>2013-08-24T08:14:44.000Z</time>
      </trkpt>
      <trkpt lat="50.37645" lon="2.57068">
        <ele>193</ele>
        <time>2013-08-24T08:14:47.000Z</time>
      </trkpt>
      <trkpt lat="50.37643" lon="2.57039">
        <ele>193</ele>
        <time>2013-08-24T08:14:50.000Z</time>
      </trkpt>
      <trkpt lat="50.37632" lon="2.57015">
        <ele>194</ele>
        <time>2013-08-24T08:14:53.000Z</time>
      </trkpt>
      <trkpt lat="50.37617" lon="2.56994">
        <ele>194</ele>
        <time>2013-08-24T08:14:56.000Z</time>
      </trkpt>
      <trkpt lat="50.37602" lon="2.56973">
        <ele>194</ele>
        <time>2013-08-24T08:14:59.000Z</time>
      </trkpt>
      <trkpt lat="50.37587" lon="2.56952">
        <ele>193</ele>
        <time>2013-08-24T08:15:02.000Z</time>
      </trkpt>
      <trkpt lat="50.37571" lon="2.56931">
        <ele>192</ele>
        <time>2013-08-24T08:15:05.000Z</time>
      </trkpt>
      <trkpt lat="50.37556" lon="2.56908">
        <ele>191</ele>
        <time>2013-08-24T08:15:08.000Z</time>
      </trkpt>
      <trkpt lat="50.37543" lon="2.56881">
        <ele>190</ele>
        <time>2013-08-24T08:15:11.000Z</time>
      </trkpt>
      <trkpt lat="50.3753" lon="2.56851">
        <ele>189</ele>
        <time>2013-08-24T08:15:14.000Z</time>
      </trkpt>
      <trkpt lat="50.37518" lon="2.5682">
        <ele>189</ele>
        <time>2013-08-24T08:15:17.000Z</time>
      </trkpt>
      <trkpt lat="50.37506" lon="2.56791">
        <ele>188</ele>
        <time>2013-08-24T08:15:20.000Z</time>
      </trkpt>
      <trkpt lat="50.3749" lon="2.56763">
        <ele>187</ele>
        <time>2013-08-24T08:15:23.000Z</time>
      </trkpt>
      <trkpt lat="50.37473" lon="2.5674">
        <ele>186</ele>
        <time>2013-08-24T08:15:26.000Z</time>
      </trkpt>
      <trkpt lat="50.37456" lon="2.56714">
        <ele>185</ele>
        <time>2013-08-24T08:15:29.000Z</time>
      </trkpt>
      <trkpt lat="50.37454" lon="2.56679">
        <ele>184</ele>
        <time>2013-08-24T08:15:32.000Z</time>
      </trkpt>
      <trkpt lat="50.37466" lon="2.5665">
        <ele>182</ele>
        <time>2013-08-24T08:15:35.000Z</time>
      </trkpt>
      <trkpt lat="50.37469" lon="2.56622">
        <ele>182</ele>
        <time>2013-08-24T08:15:38.000Z</time>
      </trkpt>
      <trkpt lat="50.37465" lon="2.56591">
        <ele>181</ele>
        <time>2013-08-24T08:15:41.000Z</time>
      </trkpt>
      <trkpt lat="50.37459" lon="2.56564">
        <ele>180</ele>
        <time>2013-08-24T08:15:44.000Z</time>
      </trkpt>
      <trkpt lat="50.37452" lon="2.56534">
        <ele>179</ele>
        <time>2013-08-24T08:15:47.000Z</time>
      </trkpt>
      <trkpt lat="50.37443" lon="2.56505">
        <ele>180</ele>
        <time>2013-08-24T08:15:50.000Z</time>
      </trkpt>
      <trkpt lat="50.37433" lon="2.56479">
        <ele>180</ele>
        <time>2013-08-24T08:15:53.000Z</time>
      </trkpt>
      <trkpt lat="50.37421" lon="2.56452">
        <ele>180</ele>
        <time>2013-08-24T08:15:56.000Z</time>
      </trkpt>
      <trkpt lat="50.37408" lon="2.56426">
        <ele>180</ele>
        <time>2013-08-24T08:15:59.000Z</time>
      </trkpt>
      <trkpt lat="50.37395" lon="2.56398">
        <ele>180</ele>
        <time>2013-08-24T08:16:02.000Z</time>
      </trkpt>
      <trkpt lat="50.3738" lon="2.5637">
        <ele>180</ele>
        <time>2013-08-24T08:16:05.000Z</time>
      </trkpt>
      <trkpt lat="50.37365" lon="2.56342">
        <ele>178</ele>
        <time>2013-08-24T08:16:08.000Z</time>
      </trkpt>
      <trkpt lat="50.3735" lon="2.56316">
        <ele>178</ele>
        <time>2013-08-24T08:16:11.000Z</time>
      </trkpt>
      <trkpt lat="50.37336" lon="2.56293">
        <ele>179</ele>
        <time>2013-08-24T08:16:14.000Z</time>
      </trkpt>
      <trkpt lat="50.3732" lon="2.56269">
        <ele>179</ele>
        <time>2013-08-24T08:16:17.000Z</time>
      </trkpt>
      <trkpt lat="50.37304" lon="2.56245">
        <ele>179</ele>
        <time>2013-08-24T08:16:20.000Z</time>
      </trkpt>
      <trkpt lat="50.37288" lon="2.56222">
        <ele>179</ele>
        <time>2013-08-24T08:16:23.000Z</time>
      </trkpt>
      <trkpt lat="50.37272" lon="2.56198">
        <ele>178</ele>
        <time>2013-08-24T08:16:26.000Z</time>
      </trkpt>
      <trkpt lat="50.37256" lon="2.56173">
        <ele>177</ele>
        <time>2013-08-24T08:16:29.000Z</time>
      </trkpt>
      <trkpt lat="50.3724" lon="2.5615">
        <ele>176</ele>
        <time>2013-08-24T08:16:32.000Z</time>
      </trkpt>
      <trkpt lat="50.37226" lon="2.56124">
        <ele>174</ele>
        <time>2013-08-24T08:16:35.000Z</time>
      </trkpt>
      <trkpt lat="50.37218" lon="2.56092">
        <ele>173</ele>
        <time>2013-08-24T08:16:38.000Z</time>
      </trkpt>
      <trkpt lat="50.37215" lon="2.56056">
        <ele>173</ele>
        <time>2013-08-24T08:16:41.000Z</time>
      </trkpt>
      <trkpt lat="50.37212" lon="2.56018">
        <ele>172</ele>
        <time>2013-08-24T08:16:44.000Z</time>
      </trkpt>
      <trkpt lat="50.37212" lon="2.55983">
        <ele>170</ele>
        <time>2013-08-24T08:16:47.000Z</time>
      </trkpt>
      <trkpt lat="50.37218" lon="2.5595">
        <ele>169</ele>
        <time>2013-08-24T08:16:50.000Z</time>
      </trkpt>
      <trkpt lat="50.3723" lon="2.55921">
        <ele>168</ele>
        <time>2013-08-24T08:16:53.000Z</time>
      </trkpt>
      <trkpt lat="50.37242" lon="2.55897">
        <ele>168</ele>
        <time>2013-08-24T08:16:56.000Z</time>
      </trkpt>
      <trkpt lat="50.3725" lon="2.55871">
        <ele>169</ele>
        <time>2013-08-24T08:16:59.000Z</time>
      </trkpt>
      <trkpt lat="50.37246" lon="2.5584">
        <ele>169</ele>
        <time>2013-08-24T08:17:02.000Z</time>
      </trkpt>
      <trkpt lat="50.37239" lon="2.55812">
        <ele>170</ele>
        <time>2013-08-24T08:17:05.000Z</time>
      </trkpt>
      <trkpt lat="50.37231" lon="2.55786">
        <ele>170</ele>
        <time>2013-08-24T08:17:08.000Z</time>
      </trkpt>
      <trkpt lat="50.37222" lon="2.55759">
        <ele>170</ele>
        <time>2013-08-24T08:17:11.000Z</time>
      </trkpt>
      <trkpt lat="50.37214" lon="2.55734">
        <ele>171</ele>
        <time>2013-08-24T08:17:14.000Z</time>
      </trkpt>
      <trkpt lat="50.37207" lon="2.55707">
        <ele>172</ele>
        <time>2013-08-24T08:17:17.000Z</time>
      </trkpt>
      <trkpt lat="50.37201" lon="2.55681">
        <ele>172</ele>
        <time>2013-08-24T08:17:20.000Z</time>
      </trkpt>
      <trkpt lat="50.37196" lon="2.55656">
        <ele>173</ele>
        <time>2013-08-24T08:17:23.000Z</time>
      </trkpt>
      <trkpt lat="50.37191" lon="2.5563">
        <ele>173</ele>
        <time>2013-08-24T08:17:26.000Z</time>
      </trkpt>
      <trkpt lat="50.37187" lon="2.55605">
        <ele>174</ele>
        <time>2013-08-24T08:17:29.000Z</time>
      </trkpt>
      <trkpt lat="50.37183" lon="2.5558">
        <ele>174</ele>
        <time>2013-08-24T08:17:32.000Z</time>
      </trkpt>
      <trkpt lat="50.37178" lon="2.55556">
        <ele>175</ele>
        <time>2013-08-24T08:17:35.000Z</time>
      </trkpt>
      <trkpt lat="50.37174" lon="2.55533">
        <ele>175</ele>
        <time>2013-08-24T08:17:38.000Z</time>
      </trkpt>
      <trkpt lat="50.37169" lon="2.5551">
        <ele>176</ele>
        <time>2013-08-24T08:17:41.000Z</time>
      </trkpt>
      <trkpt lat="50.37164" lon="2.55488">
        <ele>176</ele>
        <time>2013-08-24T08:17:44.000Z</time>
      </trkpt>
      <trkpt lat="50.37158" lon="2.55466">
        <ele>176</ele>
        <time>2013-08-24T08:17:47.000Z</time>
      </trkpt>
      <trkpt lat="50.37152" lon="2.55446">
        <ele>177</ele>
        <time>2013-08-24T08:17:50.000Z</time>
      </trkpt>
      <trkpt lat="50.37146" lon="2.55428">
        <ele>177</ele>
        <time>2013-08-24T08:17:53.000Z</time>
      </trkpt>
      <trkpt lat="50.37139" lon="2.5541">
        <ele>178</ele>
        <time>2013-08-24T08:17:56.000Z</time>
      </trkpt>
      <trkpt lat="50.37132" lon="2.55393">
        <ele>179</ele>
        <time>2013-08-24T08:17:59.000Z</time>
      </trkpt>
      <trkpt lat="50.37126" lon="2.55375">
        <ele>179</ele>
        <time>2013-08-24T08:18:02.000Z</time>
      </trkpt>
      <trkpt lat="50.3712" lon="2.55356">
        <ele>180</ele>
        <time>2013-08-24T08:18:05.000Z</time>
      </trkpt>
      <trkpt lat="50.37115" lon="2.55336">
        <ele>180</ele>
        <time>2013-08-24T08:18:08.000Z</time>
      </trkpt>
      <trkpt lat="50.37111" lon="2.55316">
        <ele>181</ele>
        <time>2013-08-24T08:18:11.000Z</time>
      </trkpt>
      <trkpt lat="50.37107" lon="2.55295">
        <ele>181</ele>
        <time>2013-08-24T08:18:14.000Z</time>
      </trkpt>
      <trkpt lat="50.37103" lon="2.55274">
        <ele>182</ele>
        <time>2013-08-24T08:18:17.000Z</time>
      </trkpt>
      <trkpt lat="50.37099" lon="2.55255">
        <ele>182</ele>
        <time>2013-08-24T08:18:20.000Z</time>
      </trkpt>
      <trkpt lat="50.37093" lon="2.55217">
        <ele>182</ele>
        <time>2013-08-24T08:18:26.000Z</time>
      </trkpt>
      <trkpt lat="50.37086" lon="2.5518">
        <ele>183</ele>
        <time>2013-08-24T08:18:33.000Z</time>
      </trkpt>
      <trkpt lat="50.37079" lon="2.55143">
        <ele>184</ele>
        <time>2013-08-24T08:18:38.000Z</time>
      </trkpt>
      <trkpt lat="50.37074" lon="2.55115">
        <ele>184</ele>
        <time>2013-08-24T08:18:44.000Z</time>
      </trkpt>
      <trkpt lat="50.37091" lon="2.55099">
        <ele>184</ele>
        <time>2013-08-24T08:18:47.000Z</time>
      </trkpt>
      <trkpt lat="50.37104" lon="2.55091">
        <ele>185</ele>
        <time>2013-08-24T08:18:50.000Z</time>
      </trkpt>
      <trkpt lat="50.37115" lon="2.55082">
        <ele>187</ele>
        <time>2013-08-24T08:18:53.000Z</time>
      </trkpt>
      <trkpt lat="50.37127" lon="2.55071">
        <ele>187</ele>
        <time>2013-08-24T08:18:56.000Z</time>
      </trkpt>
      <trkpt lat="50.37138" lon="2.55059">
        <ele>187</ele>
        <time>2013-08-24T08:18:59.000Z</time>
      </trkpt>
      <trkpt lat="50.3715" lon="2.55048">
        <ele>186</ele>
        <time>2013-08-24T08:19:02.000Z</time>
      </trkpt>
      <trkpt lat="50.37162" lon="2.55037">
        <ele>186</ele>
        <time>2013-08-24T08:19:05.000Z</time>
      </trkpt>
      <trkpt lat="50.37173" lon="2.55025">
        <ele>186</ele>
        <time>2013-08-24T08:19:08.000Z</time>
      </trkpt>
      <trkpt lat="50.37185" lon="2.55014">
        <ele>186</ele>
        <time>2013-08-24T08:19:11.000Z</time>
      </trkpt>
      <trkpt lat="50.37196" lon="2.55002">
        <ele>186</ele>
        <time>2013-08-24T08:19:14.000Z</time>
      </trkpt>
      <trkpt lat="50.37209" lon="2.54989">
        <ele>186</ele>
        <time>2013-08-24T08:19:17.000Z</time>
      </trkpt>
      <trkpt lat="50.37221" lon="2.54977">
        <ele>187</ele>
        <time>2013-08-24T08:19:20.000Z</time>
      </trkpt>
      <trkpt lat="50.37233" lon="2.54964">
        <ele>187</ele>
        <time>2013-08-24T08:19:23.000Z</time>
      </trkpt>
      <trkpt lat="50.37251" lon="2.54962">
        <ele>188</ele>
        <time>2013-08-24T08:19:26.000Z</time>
      </trkpt>
      <trkpt lat="50.37264" lon="2.54959">
        <ele>188</ele>
        <time>2013-08-24T08:19:29.000Z</time>
      </trkpt>
      <trkpt lat="50.3728" lon="2.54958">
        <ele>188</ele>
        <time>2013-08-24T08:19:32.000Z</time>
      </trkpt>
      <trkpt lat="50.37295" lon="2.54957">
        <ele>187</ele>
        <time>2013-08-24T08:19:35.000Z</time>
      </trkpt>
      <trkpt lat="50.37309" lon="2.54956">
        <ele>186</ele>
        <time>2013-08-24T08:19:38.000Z</time>
      </trkpt>
      <trkpt lat="50.37323" lon="2.54955">
        <ele>186</ele>
        <time>2013-08-24T08:19:41.000Z</time>
      </trkpt>
      <trkpt lat="50.37337" lon="2.5496">
        <ele>186</ele>
        <time>2013-08-24T08:19:44.000Z</time>
      </trkpt>
      <trkpt lat="50.37353" lon="2.54961">
        <ele>187</ele>
        <time>2013-08-24T08:19:47.000Z</time>
      </trkpt>
      <trkpt lat="50.37368" lon="2.54963">
        <ele>186</ele>
        <time>2013-08-24T08:19:51.000Z</time>
      </trkpt>
      <trkpt lat="50.37383" lon="2.54965">
        <ele>187</ele>
        <time>2013-08-24T08:19:53.000Z</time>
      </trkpt>
      <trkpt lat="50.37395" lon="2.5498">
        <ele>188</ele>
        <time>2013-08-24T08:19:56.000Z</time>
      </trkpt>
      <trkpt lat="50.37408" lon="2.54994">
        <ele>190</ele>
        <time>2013-08-24T08:19:59.000Z</time>
      </trkpt>
      <trkpt lat="50.37417" lon="2.5501">
        <ele>192</ele>
        <time>2013-08-24T08:20:02.000Z</time>
      </trkpt>
      <trkpt lat="50.3743" lon="2.55028">
        <ele>193</ele>
        <time>2013-08-24T08:20:05.000Z</time>
      </trkpt>
      <trkpt lat="50.37444" lon="2.55044">
        <ele>193</ele>
        <time>2013-08-24T08:20:08.000Z</time>
      </trkpt>
      <trkpt lat="50.37457" lon="2.55055">
        <ele>193</ele>
        <time>2013-08-24T08:20:11.000Z</time>
      </trkpt>
      <trkpt lat="50.37471" lon="2.55066">
        <ele>193</ele>
        <time>2013-08-24T08:20:14.000Z</time>
      </trkpt>
      <trkpt lat="50.37484" lon="2.55077">
        <ele>193</ele>
        <time>2013-08-24T08:20:17.000Z</time>
      </trkpt>
      <trkpt lat="50.37496" lon="2.55087">
        <ele>194</ele>
        <time>2013-08-24T08:20:20.000Z</time>
      </trkpt>
      <trkpt lat="50.37515" lon="2.55084">
        <ele>195</ele>
        <time>2013-08-24T08:20:23.000Z</time>
      </trkpt>
      <trkpt lat="50.37532" lon="2.55092">
        <ele>194</ele>
        <time>2013-08-24T08:20:26.000Z</time>
      </trkpt>
      <trkpt lat="50.37548" lon="2.55099">
        <ele>194</ele>
        <time>2013-08-24T08:20:29.000Z</time>
      </trkpt>
      <trkpt lat="50.37562" lon="2.55114">
        <ele>193</ele>
        <time>2013-08-24T08:20:32.000Z</time>
      </trkpt>
      <trkpt lat="50.37574" lon="2.55132">
        <ele>192</ele>
        <time>2013-08-24T08:20:35.000Z</time>
      </trkpt>
      <trkpt lat="50.37587" lon="2.55146">
        <ele>191</ele>
        <time>2013-08-24T08:20:38.000Z</time>
      </trkpt>
      <trkpt lat="50.37604" lon="2.55146">
        <ele>191</ele>
        <time>2013-08-24T08:20:41.000Z</time>
      </trkpt>
      <trkpt lat="50.37623" lon="2.55136">
        <ele>191</ele>
        <time>2013-08-24T08:20:44.000Z</time>
      </trkpt>
      <trkpt lat="50.3764" lon="2.55129">
        <ele>192</ele>
        <time>2013-08-24T08:20:47.000Z</time>
      </trkpt>
      <trkpt lat="50.37657" lon="2.55126">
        <ele>192</ele>
        <time>2013-08-24T08:20:50.000Z</time>
      </trkpt>
      <trkpt lat="50.37675" lon="2.55125">
        <ele>192</ele>
        <time>2013-08-24T08:20:53.000Z</time>
      </trkpt>
      <trkpt lat="50.3769" lon="2.55125">
        <ele>191</ele>
        <time>2013-08-24T08:20:56.000Z</time>
      </trkpt>
      <trkpt lat="50.37708" lon="2.55124">
        <ele>191</ele>
        <time>2013-08-24T08:20:59.000Z</time>
      </trkpt>
      <trkpt lat="50.37728" lon="2.55119">
        <ele>190</ele>
        <time>2013-08-24T08:21:02.000Z</time>
      </trkpt>
      <trkpt lat="50.37747" lon="2.55115">
        <ele>189</ele>
        <time>2013-08-24T08:21:05.000Z</time>
      </trkpt>
      <trkpt lat="50.37767" lon="2.55109">
        <ele>190</ele>
        <time>2013-08-24T08:21:08.000Z</time>
      </trkpt>
      <trkpt lat="50.37785" lon="2.55091">
        <ele>189</ele>
        <time>2013-08-24T08:21:11.000Z</time>
      </trkpt>
      <trkpt lat="50.378" lon="2.55071">
        <ele>189</ele>
        <time>2013-08-24T08:21:14.000Z</time>
      </trkpt>
      <trkpt lat="50.37812" lon="2.55047">
        <ele>190</ele>
        <time>2013-08-24T08:21:17.000Z</time>
      </trkpt>
      <trkpt lat="50.37817" lon="2.5502">
        <ele>190</ele>
        <time>2013-08-24T08:21:20.000Z</time>
      </trkpt>
      <trkpt lat="50.37822" lon="2.54994">
        <ele>190</ele>
        <time>2013-08-24T08:21:23.000Z</time>
      </trkpt>
      <trkpt lat="50.37825" lon="2.54973">
        <ele>190</ele>
        <time>2013-08-24T08:21:26.000Z</time>
      </trkpt>
      <trkpt lat="50.3783" lon="2.5495">
        <ele>191</ele>
        <time>2013-08-24T08:21:29.000Z</time>
      </trkpt>
      <trkpt lat="50.37836" lon="2.54913">
        <ele>195</ele>
        <time>2013-08-24T08:21:35.000Z</time>
      </trkpt>
      <trkpt lat="50.37874" lon="2.54908">
        <ele>194</ele>
        <time>2013-08-24T08:21:38.000Z</time>
      </trkpt>
      <trkpt lat="50.37875" lon="2.5488">
        <ele>193</ele>
        <time>2013-08-24T08:21:41.000Z</time>
      </trkpt>
      <trkpt lat="50.37875" lon="2.54852">
        <ele>192</ele>
        <time>2013-08-24T08:21:44.000Z</time>
      </trkpt>
      <trkpt lat="50.37874" lon="2.54826">
        <ele>191</ele>
        <time>2013-08-24T08:21:47.000Z</time>
      </trkpt>
      <trkpt lat="50.37875" lon="2.548">
        <ele>191</ele>
        <time>2013-08-24T08:21:50.000Z</time>
      </trkpt>
      <trkpt lat="50.37875" lon="2.54775">
        <ele>191</ele>
        <time>2013-08-24T08:21:53.000Z</time>
      </trkpt>
      <trkpt lat="50.37875" lon="2.54753">
        <ele>191</ele>
        <time>2013-08-24T08:21:56.000Z</time>
      </trkpt>
      <trkpt lat="50.37875" lon="2.54729">
        <ele>191</ele>
        <time>2013-08-24T08:21:59.000Z</time>
      </trkpt>
      <trkpt lat="50.37875" lon="2.54705">
        <ele>191</ele>
        <time>2013-08-24T08:22:02.000Z</time>
      </trkpt>
      <trkpt lat="50.37872" lon="2.54681">
        <ele>191</ele>
        <time>2013-08-24T08:22:05.000Z</time>
      </trkpt>
      <trkpt lat="50.37871" lon="2.54656">
        <ele>191</ele>
        <time>2013-08-24T08:22:08.000Z</time>
      </trkpt>
      <trkpt lat="50.3787" lon="2.5463">
        <ele>191</ele>
        <time>2013-08-24T08:22:11.000Z</time>
      </trkpt>
      <trkpt lat="50.37869" lon="2.54604">
        <ele>190</ele>
        <time>2013-08-24T08:22:15.000Z</time>
      </trkpt>
      <trkpt lat="50.37867" lon="2.54577">
        <ele>191</ele>
        <time>2013-08-24T08:22:17.000Z</time>
      </trkpt>
      <trkpt lat="50.37864" lon="2.54551">
        <ele>190</ele>
        <time>2013-08-24T08:22:20.000Z</time>
      </trkpt>
      <trkpt lat="50.37859" lon="2.54526">
        <ele>189</ele>
        <time>2013-08-24T08:22:23.000Z</time>
      </trkpt>
      <trkpt lat="50.37855" lon="2.545">
        <ele>189</ele>
        <time>2013-08-24T08:22:26.000Z</time>
      </trkpt>
      <trkpt lat="50.3785" lon="2.54474">
        <ele>189</ele>
        <time>2013-08-24T08:22:29.000Z</time>
      </trkpt>
      <trkpt lat="50.37847" lon="2.54448">
        <ele>188</ele>
        <time>2013-08-24T08:22:32.000Z</time>
      </trkpt>
      <trkpt lat="50.37847" lon="2.54422">
        <ele>188</ele>
        <time>2013-08-24T08:22:35.000Z</time>
      </trkpt>
      <trkpt lat="50.37853" lon="2.54397">
        <ele>188</ele>
        <time>2013-08-24T08:22:38.000Z</time>
      </trkpt>
      <trkpt lat="50.37864" lon="2.54376">
        <ele>188</ele>
        <time>2013-08-24T08:22:41.000Z</time>
      </trkpt>
      <trkpt lat="50.37876" lon="2.54357">
        <ele>189</ele>
        <time>2013-08-24T08:22:44.000Z</time>
      </trkpt>
      <trkpt lat="50.37888" lon="2.54337">
        <ele>189</ele>
        <time>2013-08-24T08:22:47.000Z</time>
      </trkpt>
      <trkpt lat="50.37899" lon="2.54317">
        <ele>189</ele>
        <time>2013-08-24T08:22:50.000Z</time>
      </trkpt>
      <trkpt lat="50.3791" lon="2.54297">
        <ele>190</ele>
        <time>2013-08-24T08:22:53.000Z</time>
      </trkpt>
      <trkpt lat="50.37922" lon="2.54276">
        <ele>190</ele>
        <time>2013-08-24T08:22:56.000Z</time>
      </trkpt>
      <trkpt lat="50.37934" lon="2.54256">
        <ele>190</ele>
        <time>2013-08-24T08:22:59.000Z</time>
      </trkpt>
      <trkpt lat="50.37946" lon="2.54236">
        <ele>190</ele>
        <time>2013-08-24T08:23:02.000Z</time>
      </trkpt>
      <trkpt lat="50.37957" lon="2.54216">
        <ele>191</ele>
        <time>2013-08-24T08:23:05.000Z</time>
      </trkpt>
      <trkpt lat="50.37968" lon="2.54197">
        <ele>191</ele>
        <time>2013-08-24T08:23:08.000Z</time>
      </trkpt>
      <trkpt lat="50.37979" lon="2.54178">
        <ele>190</ele>
        <time>2013-08-24T08:23:11.000Z</time>
      </trkpt>
      <trkpt lat="50.3799" lon="2.54159">
        <ele>189</ele>
        <time>2013-08-24T08:23:14.000Z</time>
      </trkpt>
      <trkpt lat="50.38001" lon="2.5414">
        <ele>190</ele>
        <time>2013-08-24T08:23:17.000Z</time>
      </trkpt>
      <trkpt lat="50.38012" lon="2.54122">
        <ele>192</ele>
        <time>2013-08-24T08:23:20.000Z</time>
      </trkpt>
      <trkpt lat="50.38023" lon="2.54103">
        <ele>193</ele>
        <time>2013-08-24T08:23:23.000Z</time>
      </trkpt>
      <trkpt lat="50.38033" lon="2.54085">
        <ele>193</ele>
        <time>2013-08-24T08:23:26.000Z</time>
      </trkpt>
      <trkpt lat="50.38044" lon="2.54066">
        <ele>193</ele>
        <time>2013-08-24T08:23:29.000Z</time>
      </trkpt>
      <trkpt lat="50.38053" lon="2.5405">
        <ele>192</ele>
        <time>2013-08-24T08:23:32.000Z</time>
      </trkpt>
      <trkpt lat="50.38062" lon="2.54034">
        <ele>193</ele>
        <time>2013-08-24T08:23:35.000Z</time>
      </trkpt>
      <trkpt lat="50.38067" lon="2.54012">
        <ele>193</ele>
        <time>2013-08-24T08:23:38.000Z</time>
      </trkpt>
      <trkpt lat="50.38074" lon="2.53992">
        <ele>193</ele>
        <time>2013-08-24T08:23:41.000Z</time>
      </trkpt>
      <trkpt lat="50.38081" lon="2.53969">
        <ele>192</ele>
        <time>2013-08-24T08:23:44.000Z</time>
      </trkpt>
      <trkpt lat="50.38088" lon="2.53946">
        <ele>192</ele>
        <time>2013-08-24T08:23:47.000Z</time>
      </trkpt>
      <trkpt lat="50.38096" lon="2.53921">
        <ele>191</ele>
        <time>2013-08-24T08:23:50.000Z</time>
      </trkpt>
      <trkpt lat="50.38104" lon="2.53897">
        <ele>191</ele>
        <time>2013-08-24T08:23:53.000Z</time>
      </trkpt>
      <trkpt lat="50.38111" lon="2.53873">
        <ele>191</ele>
        <time>2013-08-24T08:23:56.000Z</time>
      </trkpt>
      <trkpt lat="50.3812" lon="2.53848">
        <ele>191</ele>
        <time>2013-08-24T08:23:59.000Z</time>
      </trkpt>
      <trkpt lat="50.38129" lon="2.5382">
        <ele>191</ele>
        <time>2013-08-24T08:24:02.000Z</time>
      </trkpt>
      <trkpt lat="50.38139" lon="2.53793">
        <ele>191</ele>
        <time>2013-08-24T08:24:05.000Z</time>
      </trkpt>
      <trkpt lat="50.38147" lon="2.53767">
        <ele>190</ele>
        <time>2013-08-24T08:24:08.000Z</time>
      </trkpt>
      <trkpt lat="50.38156" lon="2.53741">
        <ele>189</ele>
        <time>2013-08-24T08:24:11.000Z</time>
      </trkpt>
      <trkpt lat="50.38164" lon="2.53717">
        <ele>189</ele>
        <time>2013-08-24T08:24:14.000Z</time>
      </trkpt>
      <trkpt lat="50.38172" lon="2.53691">
        <ele>188</ele>
        <time>2013-08-24T08:24:17.000Z</time>
      </trkpt>
      <trkpt lat="50.38181" lon="2.53666">
        <ele>188</ele>
        <time>2013-08-24T08:24:20.000Z</time>
      </trkpt>
      <trkpt lat="50.38189" lon="2.53641">
        <ele>188</ele>
        <time>2013-08-24T08:24:23.000Z</time>
      </trkpt>
      <trkpt lat="50.38198" lon="2.53616">
        <ele>189</ele>
        <time>2013-08-24T08:24:26.000Z</time>
      </trkpt>
      <trkpt lat="50.38206" lon="2.53591">
        <ele>189</ele>
        <time>2013-08-24T08:24:29.000Z</time>
      </trkpt>
      <trkpt lat="50.38216" lon="2.53567">
        <ele>188</ele>
        <time>2013-08-24T08:24:32.000Z</time>
      </trkpt>
      <trkpt lat="50.38226" lon="2.53542">
        <ele>188</ele>
        <time>2013-08-24T08:24:35.000Z</time>
      </trkpt>
      <trkpt lat="50.38235" lon="2.5352">
        <ele>188</ele>
        <time>2013-08-24T08:24:38.000Z</time>
      </trkpt>
      <trkpt lat="50.38244" lon="2.53498">
        <ele>188</ele>
        <time>2013-08-24T08:24:41.000Z</time>
      </trkpt>
      <trkpt lat="50.38253" lon="2.53476">
        <ele>187</ele>
        <time>2013-08-24T08:24:44.000Z</time>
      </trkpt>
      <trkpt lat="50.38262" lon="2.53455">
        <ele>188</ele>
        <time>2013-08-24T08:24:47.000Z</time>
      </trkpt>
      <trkpt lat="50.38272" lon="2.53434">
        <ele>188</ele>
        <time>2013-08-24T08:24:50.000Z</time>
      </trkpt>
      <trkpt lat="50.38281" lon="2.53413">
        <ele>188</ele>
        <time>2013-08-24T08:24:53.000Z</time>
      </trkpt>
      <trkpt lat="50.3829" lon="2.53392">
        <ele>189</ele>
        <time>2013-08-24T08:24:56.000Z</time>
      </trkpt>
      <trkpt lat="50.38298" lon="2.53373">
        <ele>189</ele>
        <time>2013-08-24T08:24:59.000Z</time>
      </trkpt>
      <trkpt lat="50.38307" lon="2.53353">
        <ele>190</ele>
        <time>2013-08-24T08:25:02.000Z</time>
      </trkpt>
      <trkpt lat="50.38315" lon="2.53334">
        <ele>191</ele>
        <time>2013-08-24T08:25:05.000Z</time>
      </trkpt>
      <trkpt lat="50.38324" lon="2.53316">
        <ele>192</ele>
        <time>2013-08-24T08:25:08.000Z</time>
      </trkpt>
      <trkpt lat="50.38332" lon="2.53297">
        <ele>192</ele>
        <time>2013-08-24T08:25:11.000Z</time>
      </trkpt>
      <trkpt lat="50.3834" lon="2.53279">
        <ele>193</ele>
        <time>2013-08-24T08:25:14.000Z</time>
      </trkpt>
      <trkpt lat="50.38348" lon="2.53259">
        <ele>193</ele>
        <time>2013-08-24T08:25:17.000Z</time>
      </trkpt>
      <trkpt lat="50.38358" lon="2.53237">
        <ele>193</ele>
        <time>2013-08-24T08:25:20.000Z</time>
      </trkpt>
      <trkpt lat="50.38369" lon="2.53218">
        <ele>192</ele>
        <time>2013-08-24T08:25:23.000Z</time>
      </trkpt>
      <trkpt lat="50.3838" lon="2.53199">
        <ele>192</ele>
        <time>2013-08-24T08:25:26.000Z</time>
      </trkpt>
      <trkpt lat="50.38391" lon="2.53181">
        <ele>191</ele>
        <time>2013-08-24T08:25:29.000Z</time>
      </trkpt>
      <trkpt lat="50.38401" lon="2.53164">
        <ele>191</ele>
        <time>2013-08-24T08:25:32.000Z</time>
      </trkpt>
      <trkpt lat="50.38411" lon="2.53147">
        <ele>191</ele>
        <time>2013-08-24T08:25:35.000Z</time>
      </trkpt>
      <trkpt lat="50.3842" lon="2.53127">
        <ele>192</ele>
        <time>2013-08-24T08:25:38.000Z</time>
      </trkpt>
      <trkpt lat="50.3843" lon="2.53106">
        <ele>192</ele>
        <time>2013-08-24T08:25:41.000Z</time>
      </trkpt>
      <trkpt lat="50.38441" lon="2.53085">
        <ele>192</ele>
        <time>2013-08-24T08:25:44.000Z</time>
      </trkpt>
      <trkpt lat="50.38452" lon="2.53062">
        <ele>190</ele>
        <time>2013-08-24T08:25:47.000Z</time>
      </trkpt>
      <trkpt lat="50.38464" lon="2.53041">
        <ele>189</ele>
        <time>2013-08-24T08:25:50.000Z</time>
      </trkpt>
      <trkpt lat="50.3848" lon="2.53023">
        <ele>188</ele>
        <time>2013-08-24T08:25:53.000Z</time>
      </trkpt>
      <trkpt lat="50.38501" lon="2.53015">
        <ele>187</ele>
        <time>2013-08-24T08:25:56.000Z</time>
      </trkpt>
      <trkpt lat="50.38523" lon="2.53016">
        <ele>186</ele>
        <time>2013-08-24T08:25:59.000Z</time>
      </trkpt>
      <trkpt lat="50.38545" lon="2.53022">
        <ele>186</ele>
        <time>2013-08-24T08:26:02.000Z</time>
      </trkpt>
      <trkpt lat="50.38566" lon="2.53028">
        <ele>187</ele>
        <time>2013-08-24T08:26:05.000Z</time>
      </trkpt>
      <trkpt lat="50.38586" lon="2.53032">
        <ele>188</ele>
        <time>2013-08-24T08:26:08.000Z</time>
      </trkpt>
      <trkpt lat="50.38606" lon="2.53032">
        <ele>189</ele>
        <time>2013-08-24T08:26:11.000Z</time>
      </trkpt>
      <trkpt lat="50.38626" lon="2.53031">
        <ele>189</ele>
        <time>2013-08-24T08:26:14.000Z</time>
      </trkpt>
      <trkpt lat="50.38647" lon="2.53028">
        <ele>188</ele>
        <time>2013-08-24T08:26:17.000Z</time>
      </trkpt>
      <trkpt lat="50.38666" lon="2.53026">
        <ele>188</ele>
        <time>2013-08-24T08:26:20.000Z</time>
      </trkpt>
      <trkpt lat="50.38686" lon="2.53026">
        <ele>188</ele>
        <time>2013-08-24T08:26:23.000Z</time>
      </trkpt>
      <trkpt lat="50.38707" lon="2.53029">
        <ele>188</ele>
        <time>2013-08-24T08:26:26.000Z</time>
      </trkpt>
      <trkpt lat="50.38725" lon="2.53036">
        <ele>187</ele>
        <time>2013-08-24T08:26:29.000Z</time>
      </trkpt>
      <trkpt lat="50.38744" lon="2.53043">
        <ele>186</ele>
        <time>2013-08-24T08:26:32.000Z</time>
      </trkpt>
      <trkpt lat="50.38762" lon="2.53052">
        <ele>186</ele>
        <time>2013-08-24T08:26:35.000Z</time>
      </trkpt>
      <trkpt lat="50.38781" lon="2.5306">
        <ele>186</ele>
        <time>2013-08-24T08:26:38.000Z</time>
      </trkpt>
      <trkpt lat="50.38799" lon="2.53069">
        <ele>186</ele>
        <time>2013-08-24T08:26:41.000Z</time>
      </trkpt>
      <trkpt lat="50.38818" lon="2.53076">
        <ele>186</ele>
        <time>2013-08-24T08:26:44.000Z</time>
      </trkpt>
      <trkpt lat="50.38836" lon="2.53082">
        <ele>186</ele>
        <time>2013-08-24T08:26:47.000Z</time>
      </trkpt>
      <trkpt lat="50.38854" lon="2.53085">
        <ele>186</ele>
        <time>2013-08-24T08:26:50.000Z</time>
      </trkpt>
      <trkpt lat="50.38872" lon="2.5308">
        <ele>187</ele>
        <time>2013-08-24T08:26:53.000Z</time>
      </trkpt>
      <trkpt lat="50.3889" lon="2.5307">
        <ele>187</ele>
        <time>2013-08-24T08:26:56.000Z</time>
      </trkpt>
      <trkpt lat="50.38908" lon="2.53059">
        <ele>187</ele>
        <time>2013-08-24T08:26:59.000Z</time>
      </trkpt>
      <trkpt lat="50.38925" lon="2.53048">
        <ele>187</ele>
        <time>2013-08-24T08:27:02.000Z</time>
      </trkpt>
      <trkpt lat="50.38942" lon="2.53036">
        <ele>187</ele>
        <time>2013-08-24T08:27:05.000Z</time>
      </trkpt>
      <trkpt lat="50.38959" lon="2.53026">
        <ele>188</ele>
        <time>2013-08-24T08:27:08.000Z</time>
      </trkpt>
      <trkpt lat="50.38975" lon="2.53016">
        <ele>188</ele>
        <time>2013-08-24T08:27:11.000Z</time>
      </trkpt>
      <trkpt lat="50.3899" lon="2.53005">
        <ele>187</ele>
        <time>2013-08-24T08:27:14.000Z</time>
      </trkpt>
      <trkpt lat="50.39006" lon="2.52993">
        <ele>187</ele>
        <time>2013-08-24T08:27:17.000Z</time>
      </trkpt>
      <trkpt lat="50.39022" lon="2.52982">
        <ele>187</ele>
        <time>2013-08-24T08:27:20.000Z</time>
      </trkpt>
      <trkpt lat="50.39039" lon="2.5297">
        <ele>186</ele>
        <time>2013-08-24T08:27:23.000Z</time>
      </trkpt>
      <trkpt lat="50.39054" lon="2.5296">
        <ele>186</ele>
        <time>2013-08-24T08:27:26.000Z</time>
      </trkpt>
      <trkpt lat="50.39069" lon="2.5295">
        <ele>186</ele>
        <time>2013-08-24T08:27:29.000Z</time>
      </trkpt>
      <trkpt lat="50.39085" lon="2.5294">
        <ele>187</ele>
        <time>2013-08-24T08:27:32.000Z</time>
      </trkpt>
      <trkpt lat="50.391" lon="2.52929">
        <ele>187</ele>
        <time>2013-08-24T08:27:35.000Z</time>
      </trkpt>
      <trkpt lat="50.39115" lon="2.52919">
        <ele>188</ele>
        <time>2013-08-24T08:27:38.000Z</time>
      </trkpt>
      <trkpt lat="50.3913" lon="2.5291">
        <ele>189</ele>
        <time>2013-08-24T08:27:41.000Z</time>
      </trkpt>
      <trkpt lat="50.39145" lon="2.529">
        <ele>190</ele>
        <time>2013-08-24T08:27:44.000Z</time>
      </trkpt>
      <trkpt lat="50.3916" lon="2.5289">
        <ele>190</ele>
        <time>2013-08-24T08:27:47.000Z</time>
      </trkpt>
      <trkpt lat="50.39175" lon="2.52879">
        <ele>190</ele>
        <time>2013-08-24T08:27:50.000Z</time>
      </trkpt>
      <trkpt lat="50.39191" lon="2.52869">
        <ele>191</ele>
        <time>2013-08-24T08:27:53.000Z</time>
      </trkpt>
      <trkpt lat="50.39206" lon="2.52861">
        <ele>192</ele>
        <time>2013-08-24T08:27:56.000Z</time>
      </trkpt>
      <trkpt lat="50.39222" lon="2.52851">
        <ele>192</ele>
        <time>2013-08-24T08:27:59.000Z</time>
      </trkpt>
      <trkpt lat="50.39238" lon="2.52841">
        <ele>192</ele>
        <time>2013-08-24T08:28:02.000Z</time>
      </trkpt>
      <trkpt lat="50.39253" lon="2.52832">
        <ele>193</ele>
        <time>2013-08-24T08:28:05.000Z</time>
      </trkpt>
      <trkpt lat="50.39268" lon="2.52822">
        <ele>193</ele>
        <time>2013-08-24T08:28:08.000Z</time>
      </trkpt>
      <trkpt lat="50.39283" lon="2.52812">
        <ele>193</ele>
        <time>2013-08-24T08:28:11.000Z</time>
      </trkpt>
      <trkpt lat="50.39297" lon="2.52803">
        <ele>192</ele>
        <time>2013-08-24T08:28:14.000Z</time>
      </trkpt>
      <trkpt lat="50.39313" lon="2.52793">
        <ele>191</ele>
        <time>2013-08-24T08:28:17.000Z</time>
      </trkpt>
      <trkpt lat="50.39326" lon="2.52781">
        <ele>191</ele>
        <time>2013-08-24T08:28:20.000Z</time>
      </trkpt>
      <trkpt lat="50.39339" lon="2.52771">
        <ele>192</ele>
        <time>2013-08-24T08:28:23.000Z</time>
      </trkpt>
      <trkpt lat="50.39353" lon="2.52758">
        <ele>193</ele>
        <time>2013-08-24T08:28:27.000Z</time>
      </trkpt>
      <trkpt lat="50.39368" lon="2.52745">
        <ele>194</ele>
        <time>2013-08-24T08:28:29.000Z</time>
      </trkpt>
      <trkpt lat="50.39381" lon="2.52731">
        <ele>196</ele>
        <time>2013-08-24T08:28:32.000Z</time>
      </trkpt>
      <trkpt lat="50.39394" lon="2.52719">
        <ele>198</ele>
        <time>2013-08-24T08:28:35.000Z</time>
      </trkpt>
      <trkpt lat="50.39408" lon="2.52706">
        <ele>198</ele>
        <time>2013-08-24T08:28:38.000Z</time>
      </trkpt>
      <trkpt lat="50.39418" lon="2.52686">
        <ele>199</ele>
        <time>2013-08-24T08:28:41.000Z</time>
      </trkpt>
      <trkpt lat="50.3943" lon="2.5267">
        <ele>201</ele>
        <time>2013-08-24T08:28:44.000Z</time>
      </trkpt>
      <trkpt lat="50.39442" lon="2.52655">
        <ele>202</ele>
        <time>2013-08-24T08:28:47.000Z</time>
      </trkpt>
      <trkpt lat="50.39454" lon="2.5264">
        <ele>202</ele>
        <time>2013-08-24T08:28:50.000Z</time>
      </trkpt>
      <trkpt lat="50.39466" lon="2.52625">
        <ele>202</ele>
        <time>2013-08-24T08:28:53.000Z</time>
      </trkpt>
      <trkpt lat="50.39478" lon="2.52611">
        <ele>202</ele>
        <time>2013-08-24T08:28:56.000Z</time>
      </trkpt>
      <trkpt lat="50.39488" lon="2.52597">
        <ele>201</ele>
        <time>2013-08-24T08:28:59.000Z</time>
      </trkpt>
      <trkpt lat="50.39499" lon="2.52584">
        <ele>202</ele>
        <time>2013-08-24T08:29:02.000Z</time>
      </trkpt>
      <trkpt lat="50.39516" lon="2.52561">
        <ele>202</ele>
        <time>2013-08-24T08:29:08.000Z</time>
      </trkpt>
      <trkpt lat="50.39515" lon="2.52528">
        <ele>203</ele>
        <time>2013-08-24T08:29:11.000Z</time>
      </trkpt>
      <trkpt lat="50.39524" lon="2.52513">
        <ele>203</ele>
        <time>2013-08-24T08:29:14.000Z</time>
      </trkpt>
      <trkpt lat="50.39538" lon="2.52489">
        <ele>203</ele>
        <time>2013-08-24T08:29:24.000Z</time>
      </trkpt>
      <trkpt lat="50.39554" lon="2.52464">
        <ele>204</ele>
        <time>2013-08-24T08:29:27.000Z</time>
      </trkpt>
      <trkpt lat="50.39571" lon="2.52439">
        <ele>204</ele>
        <time>2013-08-24T08:29:32.000Z</time>
      </trkpt>
      <trkpt lat="50.39579" lon="2.52424">
        <ele>205</ele>
        <time>2013-08-24T08:29:35.000Z</time>
      </trkpt>
      <trkpt lat="50.39593" lon="2.52397">
        <ele>206</ele>
        <time>2013-08-24T08:29:41.000Z</time>
      </trkpt>
      <trkpt lat="50.39608" lon="2.52368">
        <ele>206</ele>
        <time>2013-08-24T08:29:47.000Z</time>
      </trkpt>
      <trkpt lat="50.39617" lon="2.52351">
        <ele>207</ele>
        <time>2013-08-24T08:29:50.000Z</time>
      </trkpt>
      <trkpt lat="50.39625" lon="2.52334">
        <ele>208</ele>
        <time>2013-08-24T08:29:53.000Z</time>
      </trkpt>
      <trkpt lat="50.39631" lon="2.52316">
        <ele>209</ele>
        <time>2013-08-24T08:29:56.000Z</time>
      </trkpt>
      <trkpt lat="50.39639" lon="2.523">
        <ele>208</ele>
        <time>2013-08-24T08:29:59.000Z</time>
      </trkpt>
      <trkpt lat="50.39654" lon="2.52265">
        <ele>209</ele>
        <time>2013-08-24T08:30:05.000Z</time>
      </trkpt>
      <trkpt lat="50.39662" lon="2.52247">
        <ele>210</ele>
        <time>2013-08-24T08:30:08.000Z</time>
      </trkpt>
      <trkpt lat="50.39669" lon="2.52231">
        <ele>210</ele>
        <time>2013-08-24T08:30:11.000Z</time>
      </trkpt>
      <trkpt lat="50.39677" lon="2.52212">
        <ele>210</ele>
        <time>2013-08-24T08:30:14.000Z</time>
      </trkpt>
      <trkpt lat="50.39685" lon="2.52194">
        <ele>211</ele>
        <time>2013-08-24T08:30:17.000Z</time>
      </trkpt>
      <trkpt lat="50.39692" lon="2.52175">
        <ele>212</ele>
        <time>2013-08-24T08:30:20.000Z</time>
      </trkpt>
      <trkpt lat="50.397" lon="2.52158">
        <ele>212</ele>
        <time>2013-08-24T08:30:23.000Z</time>
      </trkpt>
      <trkpt lat="50.39708" lon="2.52141">
        <ele>212</ele>
        <time>2013-08-24T08:30:26.000Z</time>
      </trkpt>
      <trkpt lat="50.39715" lon="2.52123">
        <ele>211</ele>
        <time>2013-08-24T08:30:29.000Z</time>
      </trkpt>
      <trkpt lat="50.39722" lon="2.52103">
        <ele>211</ele>
        <time>2013-08-24T08:30:32.000Z</time>
      </trkpt>
      <trkpt lat="50.3973" lon="2.52081">
        <ele>211</ele>
        <time>2013-08-24T08:30:35.000Z</time>
      </trkpt>
      <trkpt lat="50.39737" lon="2.52061">
        <ele>212</ele>
        <time>2013-08-24T08:30:38.000Z</time>
      </trkpt>
      <trkpt lat="50.39744" lon="2.52041">
        <ele>212</ele>
        <time>2013-08-24T08:30:41.000Z</time>
      </trkpt>
      <trkpt lat="50.39753" lon="2.52023">
        <ele>212</ele>
        <time>2013-08-24T08:30:44.000Z</time>
      </trkpt>
      <trkpt lat="50.3976" lon="2.52004">
        <ele>213</ele>
        <time>2013-08-24T08:30:47.000Z</time>
      </trkpt>
      <trkpt lat="50.39768" lon="2.51984">
        <ele>213</ele>
        <time>2013-08-24T08:30:50.000Z</time>
      </trkpt>
      <trkpt lat="50.39775" lon="2.51965">
        <ele>213</ele>
        <time>2013-08-24T08:30:53.000Z</time>
      </trkpt>
      <trkpt lat="50.39783" lon="2.51947">
        <ele>214</ele>
        <time>2013-08-24T08:30:56.000Z</time>
      </trkpt>
      <trkpt lat="50.39791" lon="2.51928">
        <ele>214</ele>
        <time>2013-08-24T08:30:59.000Z</time>
      </trkpt>
      <trkpt lat="50.39798" lon="2.51909">
        <ele>214</ele>
        <time>2013-08-24T08:31:02.000Z</time>
      </trkpt>
      <trkpt lat="50.39806" lon="2.51889">
        <ele>214</ele>
        <time>2013-08-24T08:31:05.000Z</time>
      </trkpt>
      <trkpt lat="50.39812" lon="2.51871">
        <ele>214</ele>
        <time>2013-08-24T08:31:08.000Z</time>
      </trkpt>
      <trkpt lat="50.3982" lon="2.51852">
        <ele>214</ele>
        <time>2013-08-24T08:31:11.000Z</time>
      </trkpt>
      <trkpt lat="50.39827" lon="2.51834">
        <ele>215</ele>
        <time>2013-08-24T08:31:14.000Z</time>
      </trkpt>
      <trkpt lat="50.39842" lon="2.51822">
        <ele>216</ele>
        <time>2013-08-24T08:31:24.000Z</time>
      </trkpt>
      <trkpt lat="50.39852" lon="2.51808">
        <ele>216</ele>
        <time>2013-08-24T08:31:24.000Z</time>
      </trkpt>
      <trkpt lat="50.39862" lon="2.51795">
        <ele>216</ele>
        <time>2013-08-24T08:31:24.000Z</time>
      </trkpt>
      <trkpt lat="50.39872" lon="2.51781">
        <ele>215</ele>
        <time>2013-08-24T08:31:26.000Z</time>
      </trkpt>
      <trkpt lat="50.39882" lon="2.51768">
        <ele>215</ele>
        <time>2013-08-24T08:31:29.000Z</time>
      </trkpt>
      <trkpt lat="50.399" lon="2.51742">
        <ele>215</ele>
        <time>2013-08-24T08:31:35.000Z</time>
      </trkpt>
      <trkpt lat="50.39915" lon="2.51712">
        <ele>217</ele>
        <time>2013-08-24T08:31:41.000Z</time>
      </trkpt>
      <trkpt lat="50.39926" lon="2.51685">
        <ele>217</ele>
        <time>2013-08-24T08:31:48.000Z</time>
      </trkpt>
      <trkpt lat="50.39937" lon="2.51663">
        <ele>217</ele>
        <time>2013-08-24T08:31:54.000Z</time>
      </trkpt>
      <trkpt lat="50.39948" lon="2.51637">
        <ele>218</ele>
        <time>2013-08-24T08:31:59.000Z</time>
      </trkpt>
      <trkpt lat="50.39958" lon="2.51616">
        <ele>218</ele>
        <time>2013-08-24T08:32:05.000Z</time>
      </trkpt>
      <trkpt lat="50.39973" lon="2.51593">
        <ele>218</ele>
        <time>2013-08-24T08:32:11.000Z</time>
      </trkpt>
      <trkpt lat="50.3998" lon="2.51579">
        <ele>218</ele>
        <time>2013-08-24T08:32:17.000Z</time>
      </trkpt>
      <trkpt lat="50.39987" lon="2.51565">
        <ele>219</ele>
        <time>2013-08-24T08:32:20.000Z</time>
      </trkpt>
      <trkpt lat="50.39994" lon="2.5155">
        <ele>219</ele>
        <time>2013-08-24T08:32:24.000Z</time>
      </trkpt>
      <trkpt lat="50.40003" lon="2.51533">
        <ele>219</ele>
        <time>2013-08-24T08:32:26.000Z</time>
      </trkpt>
      <trkpt lat="50.40013" lon="2.51516">
        <ele>218</ele>
        <time>2013-08-24T08:32:29.000Z</time>
      </trkpt>
      <trkpt lat="50.40031" lon="2.51485">
        <ele>219</ele>
        <time>2013-08-24T08:32:32.000Z</time>
      </trkpt>
      <trkpt lat="50.40041" lon="2.51469">
        <ele>219</ele>
        <time>2013-08-24T08:32:35.000Z</time>
      </trkpt>
      <trkpt lat="50.4005" lon="2.51453">
        <ele>219</ele>
        <time>2013-08-24T08:32:38.000Z</time>
      </trkpt>
      <trkpt lat="50.40059" lon="2.51438">
        <ele>219</ele>
        <time>2013-08-24T08:32:41.000Z</time>
      </trkpt>
      <trkpt lat="50.40067" lon="2.51423">
        <ele>218</ele>
        <time>2013-08-24T08:32:44.000Z</time>
      </trkpt>
      <trkpt lat="50.40076" lon="2.51408">
        <ele>219</ele>
        <time>2013-08-24T08:32:47.000Z</time>
      </trkpt>
      <trkpt lat="50.40086" lon="2.51394">
        <ele>219</ele>
        <time>2013-08-24T08:32:50.000Z</time>
      </trkpt>
      <trkpt lat="50.40097" lon="2.51384">
        <ele>220</ele>
        <time>2013-08-24T08:32:53.000Z</time>
      </trkpt>
      <trkpt lat="50.40111" lon="2.51376">
        <ele>220</ele>
        <time>2013-08-24T08:32:56.000Z</time>
      </trkpt>
      <trkpt lat="50.40125" lon="2.5137">
        <ele>219</ele>
        <time>2013-08-24T08:32:59.000Z</time>
      </trkpt>
      <trkpt lat="50.40137" lon="2.51365">
        <ele>219</ele>
        <time>2013-08-24T08:33:02.000Z</time>
      </trkpt>
      <trkpt lat="50.40151" lon="2.51361">
        <ele>220</ele>
        <time>2013-08-24T08:33:05.000Z</time>
      </trkpt>
      <trkpt lat="50.40165" lon="2.51356">
        <ele>220</ele>
        <time>2013-08-24T08:33:08.000Z</time>
      </trkpt>
      <trkpt lat="50.40178" lon="2.51352">
        <ele>220</ele>
        <time>2013-08-24T08:33:11.000Z</time>
      </trkpt>
      <trkpt lat="50.40191" lon="2.51347">
        <ele>220</ele>
        <time>2013-08-24T08:33:14.000Z</time>
      </trkpt>
      <trkpt lat="50.40205" lon="2.51342">
        <ele>220</ele>
        <time>2013-08-24T08:33:17.000Z</time>
      </trkpt>
      <trkpt lat="50.40221" lon="2.51337">
        <ele>220</ele>
        <time>2013-08-24T08:33:20.000Z</time>
      </trkpt>
      <trkpt lat="50.40238" lon="2.51332">
        <ele>219</ele>
        <time>2013-08-24T08:33:23.000Z</time>
      </trkpt>
      <trkpt lat="50.40257" lon="2.51326">
        <ele>219</ele>
        <time>2013-08-24T08:33:26.000Z</time>
      </trkpt>
      <trkpt lat="50.40278" lon="2.51319">
        <ele>218</ele>
        <time>2013-08-24T08:33:29.000Z</time>
      </trkpt>
      <trkpt lat="50.403" lon="2.51311">
        <ele>217</ele>
        <time>2013-08-24T08:33:32.000Z</time>
      </trkpt>
      <trkpt lat="50.40324" lon="2.51304">
        <ele>216</ele>
        <time>2013-08-24T08:33:35.000Z</time>
      </trkpt>
      <trkpt lat="50.40348" lon="2.51295">
        <ele>215</ele>
        <time>2013-08-24T08:33:38.000Z</time>
      </trkpt>
      <trkpt lat="50.40372" lon="2.51288">
        <ele>215</ele>
        <time>2013-08-24T08:33:41.000Z</time>
      </trkpt>
      <trkpt lat="50.40393" lon="2.51281">
        <ele>215</ele>
        <time>2013-08-24T08:33:44.000Z</time>
      </trkpt>
      <trkpt lat="50.40412" lon="2.51276">
        <ele>215</ele>
        <time>2013-08-24T08:33:47.000Z</time>
      </trkpt>
      <trkpt lat="50.40427" lon="2.51271">
        <ele>216</ele>
        <time>2013-08-24T08:33:50.000Z</time>
      </trkpt>
      <trkpt lat="50.40443" lon="2.51266">
        <ele>217</ele>
        <time>2013-08-24T08:33:53.000Z</time>
      </trkpt>
      <trkpt lat="50.40459" lon="2.51261">
        <ele>217</ele>
        <time>2013-08-24T08:33:56.000Z</time>
      </trkpt>
      <trkpt lat="50.40475" lon="2.51265">
        <ele>218</ele>
        <time>2013-08-24T08:33:59.000Z</time>
      </trkpt>
      <trkpt lat="50.4049" lon="2.51266">
        <ele>218</ele>
        <time>2013-08-24T08:34:02.000Z</time>
      </trkpt>
      <trkpt lat="50.40503" lon="2.51267">
        <ele>219</ele>
        <time>2013-08-24T08:34:05.000Z</time>
      </trkpt>
      <trkpt lat="50.40518" lon="2.51269">
        <ele>219</ele>
        <time>2013-08-24T08:34:08.000Z</time>
      </trkpt>
      <trkpt lat="50.40533" lon="2.51271">
        <ele>220</ele>
        <time>2013-08-24T08:34:11.000Z</time>
      </trkpt>
      <trkpt lat="50.40548" lon="2.51273">
        <ele>220</ele>
        <time>2013-08-24T08:34:14.000Z</time>
      </trkpt>
      <trkpt lat="50.40562" lon="2.51275">
        <ele>221</ele>
        <time>2013-08-24T08:34:17.000Z</time>
      </trkpt>
      <trkpt lat="50.40577" lon="2.51277">
        <ele>221</ele>
        <time>2013-08-24T08:34:20.000Z</time>
      </trkpt>
      <trkpt lat="50.40592" lon="2.51279">
        <ele>222</ele>
        <time>2013-08-24T08:34:23.000Z</time>
      </trkpt>
      <trkpt lat="50.40607" lon="2.5128">
        <ele>222</ele>
        <time>2013-08-24T08:34:26.000Z</time>
      </trkpt>
      <trkpt lat="50.40622" lon="2.51282">
        <ele>222</ele>
        <time>2013-08-24T08:34:29.000Z</time>
      </trkpt>
      <trkpt lat="50.40636" lon="2.5126">
        <ele>222</ele>
        <time>2013-08-24T08:34:32.000Z</time>
      </trkpt>
      <trkpt lat="50.4065" lon="2.51241">
        <ele>222</ele>
        <time>2013-08-24T08:34:35.000Z</time>
      </trkpt>
      <trkpt lat="50.40664" lon="2.5122">
        <ele>222</ele>
        <time>2013-08-24T08:34:38.000Z</time>
      </trkpt>
      <trkpt lat="50.40683" lon="2.51193">
        <ele>221</ele>
        <time>2013-08-24T08:34:41.000Z</time>
      </trkpt>
      <trkpt lat="50.40701" lon="2.51167">
        <ele>220</ele>
        <time>2013-08-24T08:34:44.000Z</time>
      </trkpt>
      <trkpt lat="50.4071" lon="2.51126">
        <ele>218</ele>
        <time>2013-08-24T08:34:47.000Z</time>
      </trkpt>
      <trkpt lat="50.40704" lon="2.51077">
        <ele>216</ele>
        <time>2013-08-24T08:34:50.000Z</time>
      </trkpt>
      <trkpt lat="50.40692" lon="2.51026">
        <ele>213</ele>
        <time>2013-08-24T08:34:54.000Z</time>
      </trkpt>
      <trkpt lat="50.4068" lon="2.5097">
        <ele>212</ele>
        <time>2013-08-24T08:34:56.000Z</time>
      </trkpt>
      <trkpt lat="50.4068" lon="2.50918">
        <ele>208</ele>
        <time>2013-08-24T08:34:59.000Z</time>
      </trkpt>
      <trkpt lat="50.40681" lon="2.50862">
        <ele>204</ele>
        <time>2013-08-24T08:35:02.000Z</time>
      </trkpt>
      <trkpt lat="50.40683" lon="2.50805">
        <ele>201</ele>
        <time>2013-08-24T08:35:05.000Z</time>
      </trkpt>
      <trkpt lat="50.40687" lon="2.50753">
        <ele>199</ele>
        <time>2013-08-24T08:35:08.000Z</time>
      </trkpt>
      <trkpt lat="50.40696" lon="2.50701">
        <ele>199</ele>
        <time>2013-08-24T08:35:11.000Z</time>
      </trkpt>
      <trkpt lat="50.40716" lon="2.50651">
        <ele>197</ele>
        <time>2013-08-24T08:35:14.000Z</time>
      </trkpt>
      <trkpt lat="50.40736" lon="2.50596">
        <ele>193</ele>
        <time>2013-08-24T08:35:17.000Z</time>
      </trkpt>
      <trkpt lat="50.40751" lon="2.5054">
        <ele>189</ele>
        <time>2013-08-24T08:35:23.000Z</time>
      </trkpt>
      <trkpt lat="50.40764" lon="2.50482">
        <ele>186</ele>
        <time>2013-08-24T08:35:23.000Z</time>
      </trkpt>
      <trkpt lat="50.40776" lon="2.50425">
        <ele>182</ele>
        <time>2013-08-24T08:35:26.000Z</time>
      </trkpt>
      <trkpt lat="50.40784" lon="2.50372">
        <ele>180</ele>
        <time>2013-08-24T08:35:29.000Z</time>
      </trkpt>
      <trkpt lat="50.40782" lon="2.50319">
        <ele>177</ele>
        <time>2013-08-24T08:35:32.000Z</time>
      </trkpt>
      <trkpt lat="50.40774" lon="2.5027">
        <ele>175</ele>
        <time>2013-08-24T08:35:35.000Z</time>
      </trkpt>
      <trkpt lat="50.40762" lon="2.50223">
        <ele>173</ele>
        <time>2013-08-24T08:35:38.000Z</time>
      </trkpt>
      <trkpt lat="50.40748" lon="2.50176">
        <ele>171</ele>
        <time>2013-08-24T08:35:41.000Z</time>
      </trkpt>
      <trkpt lat="50.40737" lon="2.50128">
        <ele>169</ele>
        <time>2013-08-24T08:35:44.000Z</time>
      </trkpt>
      <trkpt lat="50.40733" lon="2.50079">
        <ele>166</ele>
        <time>2013-08-24T08:35:47.000Z</time>
      </trkpt>
      <trkpt lat="50.40738" lon="2.5003">
        <ele>164</ele>
        <time>2013-08-24T08:35:51.000Z</time>
      </trkpt>
      <trkpt lat="50.40749" lon="2.49983">
        <ele>164</ele>
        <time>2013-08-24T08:35:53.000Z</time>
      </trkpt>
      <trkpt lat="50.40768" lon="2.49939">
        <ele>163</ele>
        <time>2013-08-24T08:35:56.000Z</time>
      </trkpt>
      <trkpt lat="50.40788" lon="2.49897">
        <ele>164</ele>
        <time>2013-08-24T08:35:59.000Z</time>
      </trkpt>
      <trkpt lat="50.40808" lon="2.49855">
        <ele>164</ele>
        <time>2013-08-24T08:36:02.000Z</time>
      </trkpt>
      <trkpt lat="50.40828" lon="2.49814">
        <ele>165</ele>
        <time>2013-08-24T08:36:05.000Z</time>
      </trkpt>
      <trkpt lat="50.4085" lon="2.49781">
        <ele>161</ele>
        <time>2013-08-24T08:36:08.000Z</time>
      </trkpt>
      <trkpt lat="50.40868" lon="2.49741">
        <ele>158</ele>
        <time>2013-08-24T08:36:11.000Z</time>
      </trkpt>
      <trkpt lat="50.40884" lon="2.49702">
        <ele>157</ele>
        <time>2013-08-24T08:36:14.000Z</time>
      </trkpt>
      <trkpt lat="50.40899" lon="2.49663">
        <ele>156</ele>
        <time>2013-08-24T08:36:17.000Z</time>
      </trkpt>
      <trkpt lat="50.40915" lon="2.49628">
        <ele>155</ele>
        <time>2013-08-24T08:36:21.000Z</time>
      </trkpt>
      <trkpt lat="50.40934" lon="2.49598">
        <ele>154</ele>
        <time>2013-08-24T08:36:23.000Z</time>
      </trkpt>
      <trkpt lat="50.40953" lon="2.49565">
        <ele>154</ele>
        <time>2013-08-24T08:36:26.000Z</time>
      </trkpt>
      <trkpt lat="50.40969" lon="2.49527">
        <ele>153</ele>
        <time>2013-08-24T08:36:29.000Z</time>
      </trkpt>
      <trkpt lat="50.40974" lon="2.4948">
        <ele>152</ele>
        <time>2013-08-24T08:36:33.000Z</time>
      </trkpt>
      <trkpt lat="50.40977" lon="2.49432">
        <ele>151</ele>
        <time>2013-08-24T08:36:35.000Z</time>
      </trkpt>
      <trkpt lat="50.40978" lon="2.49381">
        <ele>149</ele>
        <time>2013-08-24T08:36:38.000Z</time>
      </trkpt>
      <trkpt lat="50.4098" lon="2.49334">
        <ele>148</ele>
        <time>2013-08-24T08:36:41.000Z</time>
      </trkpt>
      <trkpt lat="50.40983" lon="2.49288">
        <ele>147</ele>
        <time>2013-08-24T08:36:44.000Z</time>
      </trkpt>
      <trkpt lat="50.40993" lon="2.49247">
        <ele>144</ele>
        <time>2013-08-24T08:36:47.000Z</time>
      </trkpt>
      <trkpt lat="50.41018" lon="2.49224">
        <ele>144</ele>
        <time>2013-08-24T08:36:50.000Z</time>
      </trkpt>
      <trkpt lat="50.41046" lon="2.4923">
        <ele>143</ele>
        <time>2013-08-24T08:36:54.000Z</time>
      </trkpt>
      <trkpt lat="50.41074" lon="2.49242">
        <ele>143</ele>
        <time>2013-08-24T08:36:56.000Z</time>
      </trkpt>
      <trkpt lat="50.41098" lon="2.49256">
        <ele>144</ele>
        <time>2013-08-24T08:36:59.000Z</time>
      </trkpt>
      <trkpt lat="50.41121" lon="2.49253">
        <ele>142</ele>
        <time>2013-08-24T08:37:02.000Z</time>
      </trkpt>
      <trkpt lat="50.4114" lon="2.49223">
        <ele>141</ele>
        <time>2013-08-24T08:37:05.000Z</time>
      </trkpt>
      <trkpt lat="50.41154" lon="2.49198">
        <ele>141</ele>
        <time>2013-08-24T08:37:08.000Z</time>
      </trkpt>
      <trkpt lat="50.41168" lon="2.49177">
        <ele>141</ele>
        <time>2013-08-24T08:37:14.000Z</time>
      </trkpt>
      <trkpt lat="50.41183" lon="2.49175">
        <ele>141</ele>
        <time>2013-08-24T08:38:35.000Z</time>
      </trkpt>
      <trkpt lat="50.412" lon="2.49193">
        <ele>141</ele>
        <time>2013-08-24T08:38:41.000Z</time>
      </trkpt>
      <trkpt lat="50.4122" lon="2.49212">
        <ele>143</ele>
        <time>2013-08-24T08:38:47.000Z</time>
      </trkpt>
      <trkpt lat="50.41231" lon="2.49224">
        <ele>143</ele>
        <time>2013-08-24T08:38:50.000Z</time>
      </trkpt>
      <trkpt lat="50.41242" lon="2.49235">
        <ele>142</ele>
        <time>2013-08-24T08:38:53.000Z</time>
      </trkpt>
      <trkpt lat="50.41255" lon="2.49246">
        <ele>141</ele>
        <time>2013-08-24T08:38:56.000Z</time>
      </trkpt>
      <trkpt lat="50.41268" lon="2.49257">
        <ele>139</ele>
        <time>2013-08-24T08:38:59.000Z</time>
      </trkpt>
      <trkpt lat="50.41281" lon="2.49267">
        <ele>139</ele>
        <time>2013-08-24T08:39:02.000Z</time>
      </trkpt>
      <trkpt lat="50.41294" lon="2.49278">
        <ele>139</ele>
        <time>2013-08-24T08:39:05.000Z</time>
      </trkpt>
      <trkpt lat="50.41309" lon="2.49288">
        <ele>140</ele>
        <time>2013-08-24T08:39:08.000Z</time>
      </trkpt>
      <trkpt lat="50.41323" lon="2.49299">
        <ele>140</ele>
        <time>2013-08-24T08:39:11.000Z</time>
      </trkpt>
      <trkpt lat="50.41336" lon="2.49309">
        <ele>140</ele>
        <time>2013-08-24T08:39:14.000Z</time>
      </trkpt>
      <trkpt lat="50.4135" lon="2.4932">
        <ele>139</ele>
        <time>2013-08-24T08:39:17.000Z</time>
      </trkpt>
      <trkpt lat="50.41368" lon="2.49315">
        <ele>138</ele>
        <time>2013-08-24T08:39:20.000Z</time>
      </trkpt>
      <trkpt lat="50.41385" lon="2.49319">
        <ele>138</ele>
        <time>2013-08-24T08:39:23.000Z</time>
      </trkpt>
      <trkpt lat="50.414" lon="2.49323">
        <ele>139</ele>
        <time>2013-08-24T08:39:26.000Z</time>
      </trkpt>
      <trkpt lat="50.41415" lon="2.4933">
        <ele>139</ele>
        <time>2013-08-24T08:39:29.000Z</time>
      </trkpt>
      <trkpt lat="50.41432" lon="2.49341">
        <ele>140</ele>
        <time>2013-08-24T08:39:32.000Z</time>
      </trkpt>
      <trkpt lat="50.41448" lon="2.49354">
        <ele>140</ele>
        <time>2013-08-24T08:39:35.000Z</time>
      </trkpt>
      <trkpt lat="50.41465" lon="2.49372">
        <ele>139</ele>
        <time>2013-08-24T08:39:38.000Z</time>
      </trkpt>
      <trkpt lat="50.41481" lon="2.49393">
        <ele>138</ele>
        <time>2013-08-24T08:39:41.000Z</time>
      </trkpt>
      <trkpt lat="50.41493" lon="2.49407">
        <ele>137</ele>
        <time>2013-08-24T08:39:44.000Z</time>
      </trkpt>
      <trkpt lat="50.41505" lon="2.49422">
        <ele>135</ele>
        <time>2013-08-24T08:39:47.000Z</time>
      </trkpt>
      <trkpt lat="50.41522" lon="2.49443">
        <ele>132</ele>
        <time>2013-08-24T08:39:53.000Z</time>
      </trkpt>
      <trkpt lat="50.41522" lon="2.49494">
        <ele>133</ele>
        <time>2013-08-24T08:39:59.000Z</time>
      </trkpt>
      <trkpt lat="50.41527" lon="2.49515">
        <ele>134</ele>
        <time>2013-08-24T08:40:02.000Z</time>
      </trkpt>
      <trkpt lat="50.41534" lon="2.49537">
        <ele>135</ele>
        <time>2013-08-24T08:40:05.000Z</time>
      </trkpt>
      <trkpt lat="50.41539" lon="2.49556">
        <ele>136</ele>
        <time>2013-08-24T08:40:08.000Z</time>
      </trkpt>
      <trkpt lat="50.41549" lon="2.4959">
        <ele>136</ele>
        <time>2013-08-24T08:40:14.000Z</time>
      </trkpt>
      <trkpt lat="50.41557" lon="2.49622">
        <ele>138</ele>
        <time>2013-08-24T08:40:20.000Z</time>
      </trkpt>
      <trkpt lat="50.41566" lon="2.49655">
        <ele>138</ele>
        <time>2013-08-24T08:40:26.000Z</time>
      </trkpt>
      <trkpt lat="50.41593" lon="2.49657">
        <ele>139</ele>
        <time>2013-08-24T08:40:29.000Z</time>
      </trkpt>
      <trkpt lat="50.41603" lon="2.49672">
        <ele>139</ele>
        <time>2013-08-24T08:40:32.000Z</time>
      </trkpt>
      <trkpt lat="50.41621" lon="2.49697">
        <ele>142</ele>
        <time>2013-08-24T08:40:38.000Z</time>
      </trkpt>
      <trkpt lat="50.41636" lon="2.49706">
        <ele>142</ele>
        <time>2013-08-24T08:40:41.000Z</time>
      </trkpt>
      <trkpt lat="50.41649" lon="2.49718">
        <ele>141</ele>
        <time>2013-08-24T08:40:44.000Z</time>
      </trkpt>
      <trkpt lat="50.41663" lon="2.49729">
        <ele>140</ele>
        <time>2013-08-24T08:40:47.000Z</time>
      </trkpt>
      <trkpt lat="50.41676" lon="2.49741">
        <ele>141</ele>
        <time>2013-08-24T08:40:50.000Z</time>
      </trkpt>
      <trkpt lat="50.41688" lon="2.49753">
        <ele>142</ele>
        <time>2013-08-24T08:40:53.000Z</time>
      </trkpt>
      <trkpt lat="50.41701" lon="2.49767">
        <ele>143</ele>
        <time>2013-08-24T08:40:56.000Z</time>
      </trkpt>
      <trkpt lat="50.41714" lon="2.49783">
        <ele>144</ele>
        <time>2013-08-24T08:40:59.000Z</time>
      </trkpt>
      <trkpt lat="50.41728" lon="2.49798">
        <ele>143</ele>
        <time>2013-08-24T08:41:02.000Z</time>
      </trkpt>
      <trkpt lat="50.41742" lon="2.49815">
        <ele>143</ele>
        <time>2013-08-24T08:41:05.000Z</time>
      </trkpt>
      <trkpt lat="50.41756" lon="2.49832">
        <ele>142</ele>
        <time>2013-08-24T08:41:08.000Z</time>
      </trkpt>
      <trkpt lat="50.41771" lon="2.49848">
        <ele>141</ele>
        <time>2013-08-24T08:41:11.000Z</time>
      </trkpt>
      <trkpt lat="50.41788" lon="2.49865">
        <ele>140</ele>
        <time>2013-08-24T08:41:14.000Z</time>
      </trkpt>
      <trkpt lat="50.41805" lon="2.49882">
        <ele>139</ele>
        <time>2013-08-24T08:41:17.000Z</time>
      </trkpt>
      <trkpt lat="50.41823" lon="2.499">
        <ele>138</ele>
        <time>2013-08-24T08:41:20.000Z</time>
      </trkpt>
      <trkpt lat="50.41841" lon="2.49919">
        <ele>137</ele>
        <time>2013-08-24T08:41:23.000Z</time>
      </trkpt>
      <trkpt lat="50.41859" lon="2.49939">
        <ele>137</ele>
        <time>2013-08-24T08:41:26.000Z</time>
      </trkpt>
      <trkpt lat="50.41878" lon="2.49958">
        <ele>136</ele>
        <time>2013-08-24T08:41:29.000Z</time>
      </trkpt>
      <trkpt lat="50.41897" lon="2.49976">
        <ele>136</ele>
        <time>2013-08-24T08:41:32.000Z</time>
      </trkpt>
      <trkpt lat="50.41915" lon="2.49992">
        <ele>137</ele>
        <time>2013-08-24T08:41:35.000Z</time>
      </trkpt>
      <trkpt lat="50.41935" lon="2.50008">
        <ele>137</ele>
        <time>2013-08-24T08:41:38.000Z</time>
      </trkpt>
      <trkpt lat="50.41955" lon="2.50024">
        <ele>136</ele>
        <time>2013-08-24T08:41:41.000Z</time>
      </trkpt>
      <trkpt lat="50.41975" lon="2.5004">
        <ele>135</ele>
        <time>2013-08-24T08:41:44.000Z</time>
      </trkpt>
      <trkpt lat="50.41995" lon="2.50055">
        <ele>134</ele>
        <time>2013-08-24T08:41:47.000Z</time>
      </trkpt>
      <trkpt lat="50.42015" lon="2.50069">
        <ele>133</ele>
        <time>2013-08-24T08:41:50.000Z</time>
      </trkpt>
      <trkpt lat="50.42036" lon="2.50076">
        <ele>134</ele>
        <time>2013-08-24T08:41:53.000Z</time>
      </trkpt>
      <trkpt lat="50.42056" lon="2.5008">
        <ele>135</ele>
        <time>2013-08-24T08:41:56.000Z</time>
      </trkpt>
      <trkpt lat="50.42076" lon="2.50082">
        <ele>135</ele>
        <time>2013-08-24T08:41:59.000Z</time>
      </trkpt>
      <trkpt lat="50.42097" lon="2.50085">
        <ele>135</ele>
        <time>2013-08-24T08:42:02.000Z</time>
      </trkpt>
      <trkpt lat="50.42117" lon="2.5009">
        <ele>135</ele>
        <time>2013-08-24T08:42:05.000Z</time>
      </trkpt>
      <trkpt lat="50.42135" lon="2.50101">
        <ele>135</ele>
        <time>2013-08-24T08:42:08.000Z</time>
      </trkpt>
      <trkpt lat="50.42152" lon="2.50114">
        <ele>135</ele>
        <time>2013-08-24T08:42:11.000Z</time>
      </trkpt>
      <trkpt lat="50.4217" lon="2.50127">
        <ele>134</ele>
        <time>2013-08-24T08:42:14.000Z</time>
      </trkpt>
      <trkpt lat="50.42188" lon="2.5014">
        <ele>134</ele>
        <time>2013-08-24T08:42:17.000Z</time>
      </trkpt>
      <trkpt lat="50.42205" lon="2.50153">
        <ele>134</ele>
        <time>2013-08-24T08:42:20.000Z</time>
      </trkpt>
      <trkpt lat="50.42223" lon="2.50166">
        <ele>134</ele>
        <time>2013-08-24T08:42:23.000Z</time>
      </trkpt>
      <trkpt lat="50.42239" lon="2.50176">
        <ele>135</ele>
        <time>2013-08-24T08:42:26.000Z</time>
      </trkpt>
      <trkpt lat="50.42258" lon="2.50186">
        <ele>134</ele>
        <time>2013-08-24T08:42:29.000Z</time>
      </trkpt>
      <trkpt lat="50.42276" lon="2.50196">
        <ele>133</ele>
        <time>2013-08-24T08:42:32.000Z</time>
      </trkpt>
      <trkpt lat="50.42291" lon="2.50205">
        <ele>132</ele>
        <time>2013-08-24T08:42:35.000Z</time>
      </trkpt>
      <trkpt lat="50.42305" lon="2.50212">
        <ele>133</ele>
        <time>2013-08-24T08:42:38.000Z</time>
      </trkpt>
      <trkpt lat="50.4232" lon="2.5022">
        <ele>134</ele>
        <time>2013-08-24T08:42:41.000Z</time>
      </trkpt>
      <trkpt lat="50.42334" lon="2.50249">
        <ele>134</ele>
        <time>2013-08-24T08:42:44.000Z</time>
      </trkpt>
      <trkpt lat="50.42349" lon="2.50263">
        <ele>136</ele>
        <time>2013-08-24T08:42:47.000Z</time>
      </trkpt>
      <trkpt lat="50.42362" lon="2.50275">
        <ele>136</ele>
        <time>2013-08-24T08:42:50.000Z</time>
      </trkpt>
      <trkpt lat="50.42374" lon="2.50287">
        <ele>136</ele>
        <time>2013-08-24T08:42:56.000Z</time>
      </trkpt>
      <trkpt lat="50.4237" lon="2.50267">
        <ele>135</ele>
        <time>2013-08-24T08:43:02.000Z</time>
      </trkpt>
      <trkpt lat="50.42348" lon="2.50251">
        <ele>134</ele>
        <time>2013-08-24T08:43:08.000Z</time>
      </trkpt>
      <trkpt lat="50.42349" lon="2.50216">
        <ele>134</ele>
        <time>2013-08-24T08:43:14.000Z</time>
      </trkpt>
      <trkpt lat="50.42361" lon="2.50189">
        <ele>133</ele>
        <time>2013-08-24T08:43:17.000Z</time>
      </trkpt>
      <trkpt lat="50.42376" lon="2.5016">
        <ele>132</ele>
        <time>2013-08-24T08:43:20.000Z</time>
      </trkpt>
      <trkpt lat="50.42392" lon="2.5013">
        <ele>130</ele>
        <time>2013-08-24T08:43:23.000Z</time>
      </trkpt>
      <trkpt lat="50.4241" lon="2.501">
        <ele>129</ele>
        <time>2013-08-24T08:43:26.000Z</time>
      </trkpt>
      <trkpt lat="50.4243" lon="2.50079">
        <ele>128</ele>
        <time>2013-08-24T08:43:29.000Z</time>
      </trkpt>
      <trkpt lat="50.42453" lon="2.50059">
        <ele>129</ele>
        <time>2013-08-24T08:43:32.000Z</time>
      </trkpt>
      <trkpt lat="50.42475" lon="2.50038">
        <ele>129</ele>
        <time>2013-08-24T08:43:35.000Z</time>
      </trkpt>
      <trkpt lat="50.42494" lon="2.50015">
        <ele>129</ele>
        <time>2013-08-24T08:43:38.000Z</time>
      </trkpt>
      <trkpt lat="50.4251" lon="2.49993">
        <ele>129</ele>
        <time>2013-08-24T08:43:41.000Z</time>
      </trkpt>
      <trkpt lat="50.42525" lon="2.49969">
        <ele>128</ele>
        <time>2013-08-24T08:43:44.000Z</time>
      </trkpt>
      <trkpt lat="50.42538" lon="2.49945">
        <ele>128</ele>
        <time>2013-08-24T08:43:47.000Z</time>
      </trkpt>
      <trkpt lat="50.42549" lon="2.49926">
        <ele>129</ele>
        <time>2013-08-24T08:43:50.000Z</time>
      </trkpt>
      <trkpt lat="50.42559" lon="2.49908">
        <ele>128</ele>
        <time>2013-08-24T08:43:53.000Z</time>
      </trkpt>
      <trkpt lat="50.4257" lon="2.49889">
        <ele>126</ele>
        <time>2013-08-24T08:43:59.000Z</time>
      </trkpt>
      <trkpt lat="50.42612" lon="2.49901">
        <ele>126</ele>
        <time>2013-08-24T08:44:08.000Z</time>
      </trkpt>
      <trkpt lat="50.4262" lon="2.49877">
        <ele>125</ele>
        <time>2013-08-24T08:44:11.000Z</time>
      </trkpt>
      <trkpt lat="50.42629" lon="2.49851">
        <ele>125</ele>
        <time>2013-08-24T08:44:14.000Z</time>
      </trkpt>
      <trkpt lat="50.42636" lon="2.49828">
        <ele>125</ele>
        <time>2013-08-24T08:44:17.000Z</time>
      </trkpt>
      <trkpt lat="50.42641" lon="2.49803">
        <ele>125</ele>
        <time>2013-08-24T08:44:20.000Z</time>
      </trkpt>
      <trkpt lat="50.42647" lon="2.49777">
        <ele>126</ele>
        <time>2013-08-24T08:44:23.000Z</time>
      </trkpt>
      <trkpt lat="50.42657" lon="2.49756">
        <ele>126</ele>
        <time>2013-08-24T08:44:26.000Z</time>
      </trkpt>
      <trkpt lat="50.42671" lon="2.49738">
        <ele>125</ele>
        <time>2013-08-24T08:44:29.000Z</time>
      </trkpt>
      <trkpt lat="50.42686" lon="2.49724">
        <ele>125</ele>
        <time>2013-08-24T08:44:32.000Z</time>
      </trkpt>
      <trkpt lat="50.427" lon="2.49707">
        <ele>125</ele>
        <time>2013-08-24T08:44:35.000Z</time>
      </trkpt>
      <trkpt lat="50.42716" lon="2.49695">
        <ele>125</ele>
        <time>2013-08-24T08:44:38.000Z</time>
      </trkpt>
      <trkpt lat="50.42729" lon="2.49683">
        <ele>126</ele>
        <time>2013-08-24T08:44:42.000Z</time>
      </trkpt>
      <trkpt lat="50.42743" lon="2.49669">
        <ele>126</ele>
        <time>2013-08-24T08:44:44.000Z</time>
      </trkpt>
      <trkpt lat="50.42756" lon="2.49655">
        <ele>126</ele>
        <time>2013-08-24T08:44:47.000Z</time>
      </trkpt>
      <trkpt lat="50.42768" lon="2.49639">
        <ele>126</ele>
        <time>2013-08-24T08:44:50.000Z</time>
      </trkpt>
      <trkpt lat="50.42778" lon="2.49619">
        <ele>126</ele>
        <time>2013-08-24T08:44:53.000Z</time>
      </trkpt>
      <trkpt lat="50.42789" lon="2.49606">
        <ele>126</ele>
        <time>2013-08-24T08:44:56.000Z</time>
      </trkpt>
      <trkpt lat="50.42809" lon="2.49583">
        <ele>129</ele>
        <time>2013-08-24T08:45:02.000Z</time>
      </trkpt>
      <trkpt lat="50.42807" lon="2.49517">
        <ele>130</ele>
        <time>2013-08-24T08:45:08.000Z</time>
      </trkpt>
      <trkpt lat="50.42813" lon="2.49497">
        <ele>130</ele>
        <time>2013-08-24T08:45:11.000Z</time>
      </trkpt>
      <trkpt lat="50.4282" lon="2.49477">
        <ele>130</ele>
        <time>2013-08-24T08:45:14.000Z</time>
      </trkpt>
      <trkpt lat="50.42829" lon="2.49439">
        <ele>131</ele>
        <time>2013-08-24T08:45:20.000Z</time>
      </trkpt>
      <trkpt lat="50.42833" lon="2.49418">
        <ele>131</ele>
        <time>2013-08-24T08:45:23.000Z</time>
      </trkpt>
      <trkpt lat="50.42839" lon="2.49395">
        <ele>130</ele>
        <time>2013-08-24T08:45:26.000Z</time>
      </trkpt>
      <trkpt lat="50.42845" lon="2.49373">
        <ele>130</ele>
        <time>2013-08-24T08:45:29.000Z</time>
      </trkpt>
      <trkpt lat="50.42853" lon="2.49351">
        <ele>130</ele>
        <time>2013-08-24T08:45:32.000Z</time>
      </trkpt>
      <trkpt lat="50.42862" lon="2.49326">
        <ele>131</ele>
        <time>2013-08-24T08:45:35.000Z</time>
      </trkpt>
      <trkpt lat="50.42867" lon="2.49302">
        <ele>130</ele>
        <time>2013-08-24T08:45:38.000Z</time>
      </trkpt>
      <trkpt lat="50.42862" lon="2.4927">
        <ele>129</ele>
        <time>2013-08-24T08:45:41.000Z</time>
      </trkpt>
      <trkpt lat="50.42854" lon="2.49235">
        <ele>128</ele>
        <time>2013-08-24T08:45:44.000Z</time>
      </trkpt>
      <trkpt lat="50.42845" lon="2.492">
        <ele>129</ele>
        <time>2013-08-24T08:45:47.000Z</time>
      </trkpt>
      <trkpt lat="50.42835" lon="2.49165">
        <ele>126</ele>
        <time>2013-08-24T08:45:50.000Z</time>
      </trkpt>
      <trkpt lat="50.42829" lon="2.49129">
        <ele>124</ele>
        <time>2013-08-24T08:45:53.000Z</time>
      </trkpt>
      <trkpt lat="50.42828" lon="2.49097">
        <ele>123</ele>
        <time>2013-08-24T08:45:56.000Z</time>
      </trkpt>
      <trkpt lat="50.42825" lon="2.49065">
        <ele>123</ele>
        <time>2013-08-24T08:45:59.000Z</time>
      </trkpt>
      <trkpt lat="50.42821" lon="2.49037">
        <ele>123</ele>
        <time>2013-08-24T08:46:02.000Z</time>
      </trkpt>
      <trkpt lat="50.42832" lon="2.49016">
        <ele>123</ele>
        <time>2013-08-24T08:46:05.000Z</time>
      </trkpt>
      <trkpt lat="50.4285" lon="2.49">
        <ele>122</ele>
        <time>2013-08-24T08:46:08.000Z</time>
      </trkpt>
      <trkpt lat="50.42868" lon="2.48986">
        <ele>122</ele>
        <time>2013-08-24T08:46:11.000Z</time>
      </trkpt>
      <trkpt lat="50.42885" lon="2.48977">
        <ele>124</ele>
        <time>2013-08-24T08:46:14.000Z</time>
      </trkpt>
      <trkpt lat="50.42902" lon="2.48972">
        <ele>126</ele>
        <time>2013-08-24T08:46:17.000Z</time>
      </trkpt>
      <trkpt lat="50.42918" lon="2.48964">
        <ele>126</ele>
        <time>2013-08-24T08:46:20.000Z</time>
      </trkpt>
      <trkpt lat="50.42934" lon="2.48957">
        <ele>125</ele>
        <time>2013-08-24T08:46:23.000Z</time>
      </trkpt>
      <trkpt lat="50.42949" lon="2.48951">
        <ele>124</ele>
        <time>2013-08-24T08:46:26.000Z</time>
      </trkpt>
      <trkpt lat="50.42962" lon="2.48946">
        <ele>124</ele>
        <time>2013-08-24T08:46:29.000Z</time>
      </trkpt>
      <trkpt lat="50.42977" lon="2.4894">
        <ele>125</ele>
        <time>2013-08-24T08:46:32.000Z</time>
      </trkpt>
      <trkpt lat="50.42992" lon="2.48933">
        <ele>125</ele>
        <time>2013-08-24T08:46:35.000Z</time>
      </trkpt>
      <trkpt lat="50.43013" lon="2.48965">
        <ele>125</ele>
        <time>2013-08-24T08:46:38.000Z</time>
      </trkpt>
      <trkpt lat="50.43029" lon="2.48962">
        <ele>124</ele>
        <time>2013-08-24T08:46:42.000Z</time>
      </trkpt>
      <trkpt lat="50.43046" lon="2.48959">
        <ele>124</ele>
        <time>2013-08-24T08:46:44.000Z</time>
      </trkpt>
      <trkpt lat="50.43062" lon="2.48958">
        <ele>123</ele>
        <time>2013-08-24T08:46:47.000Z</time>
      </trkpt>
      <trkpt lat="50.43077" lon="2.48956">
        <ele>124</ele>
        <time>2013-08-24T08:46:50.000Z</time>
      </trkpt>
      <trkpt lat="50.43092" lon="2.48954">
        <ele>124</ele>
        <time>2013-08-24T08:46:53.000Z</time>
      </trkpt>
      <trkpt lat="50.43107" lon="2.48952">
        <ele>125</ele>
        <time>2013-08-24T08:46:56.000Z</time>
      </trkpt>
      <trkpt lat="50.43121" lon="2.48941">
        <ele>125</ele>
        <time>2013-08-24T08:46:59.000Z</time>
      </trkpt>
      <trkpt lat="50.43137" lon="2.4893">
        <ele>126</ele>
        <time>2013-08-24T08:47:02.000Z</time>
      </trkpt>
      <trkpt lat="50.43154" lon="2.48918">
        <ele>125</ele>
        <time>2013-08-24T08:47:05.000Z</time>
      </trkpt>
      <trkpt lat="50.43171" lon="2.48907">
        <ele>124</ele>
        <time>2013-08-24T08:47:08.000Z</time>
      </trkpt>
      <trkpt lat="50.43186" lon="2.48896">
        <ele>124</ele>
        <time>2013-08-24T08:47:11.000Z</time>
      </trkpt>
      <trkpt lat="50.43201" lon="2.48884">
        <ele>124</ele>
        <time>2013-08-24T08:47:14.000Z</time>
      </trkpt>
      <trkpt lat="50.43217" lon="2.48873">
        <ele>124</ele>
        <time>2013-08-24T08:47:17.000Z</time>
      </trkpt>
      <trkpt lat="50.43233" lon="2.48862">
        <ele>124</ele>
        <time>2013-08-24T08:47:20.000Z</time>
      </trkpt>
      <trkpt lat="50.43248" lon="2.48851">
        <ele>124</ele>
        <time>2013-08-24T08:47:23.000Z</time>
      </trkpt>
      <trkpt lat="50.43264" lon="2.48842">
        <ele>124</ele>
        <time>2013-08-24T08:47:26.000Z</time>
      </trkpt>
      <trkpt lat="50.43279" lon="2.48832">
        <ele>125</ele>
        <time>2013-08-24T08:47:29.000Z</time>
      </trkpt>
      <trkpt lat="50.43293" lon="2.48822">
        <ele>125</ele>
        <time>2013-08-24T08:47:32.000Z</time>
      </trkpt>
      <trkpt lat="50.43307" lon="2.48813">
        <ele>125</ele>
        <time>2013-08-24T08:47:35.000Z</time>
      </trkpt>
      <trkpt lat="50.4332" lon="2.48804">
        <ele>124</ele>
        <time>2013-08-24T08:47:38.000Z</time>
      </trkpt>
      <trkpt lat="50.43333" lon="2.48796">
        <ele>125</ele>
        <time>2013-08-24T08:47:41.000Z</time>
      </trkpt>
      <trkpt lat="50.43353" lon="2.48783">
        <ele>126</ele>
        <time>2013-08-24T08:47:47.000Z</time>
      </trkpt>
      <trkpt lat="50.4337" lon="2.48772">
        <ele>128</ele>
        <time>2013-08-24T08:47:53.000Z</time>
      </trkpt>
      <trkpt lat="50.43387" lon="2.48761">
        <ele>131</ele>
        <time>2013-08-24T08:47:59.000Z</time>
      </trkpt>
      <trkpt lat="50.43429" lon="2.48867">
        <ele>131</ele>
        <time>2013-08-24T08:48:02.000Z</time>
      </trkpt>
      <trkpt lat="50.43442" lon="2.48872">
        <ele>130</ele>
        <time>2013-08-24T08:48:05.000Z</time>
      </trkpt>
      <trkpt lat="50.43466" lon="2.4888">
        <ele>131</ele>
        <time>2013-08-24T08:48:11.000Z</time>
      </trkpt>
      <trkpt lat="50.43489" lon="2.48888">
        <ele>133</ele>
        <time>2013-08-24T08:48:18.000Z</time>
      </trkpt>
      <trkpt lat="50.43503" lon="2.48879">
        <ele>134</ele>
        <time>2013-08-24T08:48:30.000Z</time>
      </trkpt>
      <trkpt lat="50.43527" lon="2.4887">
        <ele>135</ele>
        <time>2013-08-24T08:48:30.000Z</time>
      </trkpt>
      <trkpt lat="50.43549" lon="2.48859">
        <ele>134</ele>
        <time>2013-08-24T08:48:32.000Z</time>
      </trkpt>
      <trkpt lat="50.43562" lon="2.48853">
        <ele>134</ele>
        <time>2013-08-24T08:48:35.000Z</time>
      </trkpt>
      <trkpt lat="50.43575" lon="2.48847">
        <ele>135</ele>
        <time>2013-08-24T08:48:38.000Z</time>
      </trkpt>
      <trkpt lat="50.43589" lon="2.48841">
        <ele>136</ele>
        <time>2013-08-24T08:48:41.000Z</time>
      </trkpt>
      <trkpt lat="50.43604" lon="2.48835">
        <ele>135</ele>
        <time>2013-08-24T08:48:44.000Z</time>
      </trkpt>
      <trkpt lat="50.4362" lon="2.48829">
        <ele>134</ele>
        <time>2013-08-24T08:48:47.000Z</time>
      </trkpt>
      <trkpt lat="50.43636" lon="2.4882">
        <ele>133</ele>
        <time>2013-08-24T08:48:50.000Z</time>
      </trkpt>
      <trkpt lat="50.43653" lon="2.48812">
        <ele>132</ele>
        <time>2013-08-24T08:48:53.000Z</time>
      </trkpt>
      <trkpt lat="50.4367" lon="2.48804">
        <ele>132</ele>
        <time>2013-08-24T08:48:56.000Z</time>
      </trkpt>
      <trkpt lat="50.43686" lon="2.48796">
        <ele>132</ele>
        <time>2013-08-24T08:48:59.000Z</time>
      </trkpt>
      <trkpt lat="50.43701" lon="2.48789">
        <ele>132</ele>
        <time>2013-08-24T08:49:02.000Z</time>
      </trkpt>
      <trkpt lat="50.43715" lon="2.48782">
        <ele>132</ele>
        <time>2013-08-24T08:49:05.000Z</time>
      </trkpt>
      <trkpt lat="50.43727" lon="2.48776">
        <ele>134</ele>
        <time>2013-08-24T08:49:08.000Z</time>
      </trkpt>
      <trkpt lat="50.4374" lon="2.48769">
        <ele>135</ele>
        <time>2013-08-24T08:49:11.000Z</time>
      </trkpt>
      <trkpt lat="50.43758" lon="2.48762">
        <ele>135</ele>
        <time>2013-08-24T08:49:14.000Z</time>
      </trkpt>
      <trkpt lat="50.43778" lon="2.48754">
        <ele>133</ele>
        <time>2013-08-24T08:49:17.000Z</time>
      </trkpt>
      <trkpt lat="50.43796" lon="2.48749">
        <ele>132</ele>
        <time>2013-08-24T08:49:20.000Z</time>
      </trkpt>
      <trkpt lat="50.43811" lon="2.48743">
        <ele>133</ele>
        <time>2013-08-24T08:49:28.000Z</time>
      </trkpt>
      <trkpt lat="50.43824" lon="2.48739">
        <ele>133</ele>
        <time>2013-08-24T08:49:28.000Z</time>
      </trkpt>
      <trkpt lat="50.43854" lon="2.48781">
        <ele>132</ele>
        <time>2013-08-24T08:49:32.000Z</time>
      </trkpt>
      <trkpt lat="50.43867" lon="2.48792">
        <ele>133</ele>
        <time>2013-08-24T08:49:35.000Z</time>
      </trkpt>
      <trkpt lat="50.43879" lon="2.48802">
        <ele>134</ele>
        <time>2013-08-24T08:49:38.000Z</time>
      </trkpt>
      <trkpt lat="50.43893" lon="2.4881">
        <ele>134</ele>
        <time>2013-08-24T08:49:41.000Z</time>
      </trkpt>
      <trkpt lat="50.43907" lon="2.48814">
        <ele>135</ele>
        <time>2013-08-24T08:49:44.000Z</time>
      </trkpt>
      <trkpt lat="50.4392" lon="2.48815">
        <ele>134</ele>
        <time>2013-08-24T08:49:47.000Z</time>
      </trkpt>
      <trkpt lat="50.43931" lon="2.48812">
        <ele>135</ele>
        <time>2013-08-24T08:49:53.000Z</time>
      </trkpt>
      <trkpt lat="50.43942" lon="2.4881">
        <ele>135</ele>
        <time>2013-08-24T08:49:56.000Z</time>
      </trkpt>
      <trkpt lat="50.43953" lon="2.48807">
        <ele>136</ele>
        <time>2013-08-24T08:49:59.000Z</time>
      </trkpt>
      <trkpt lat="50.43963" lon="2.48805">
        <ele>138</ele>
        <time>2013-08-24T08:50:02.000Z</time>
      </trkpt>
      <trkpt lat="50.43973" lon="2.48808">
        <ele>139</ele>
        <time>2013-08-24T08:50:05.000Z</time>
      </trkpt>
      <trkpt lat="50.43997" lon="2.48797">
        <ele>140</ele>
        <time>2013-08-24T08:50:08.000Z</time>
      </trkpt>
      <trkpt lat="50.44018" lon="2.48793">
        <ele>141</ele>
        <time>2013-08-24T08:50:14.000Z</time>
      </trkpt>
      <trkpt lat="50.4404" lon="2.4879">
        <ele>141</ele>
        <time>2013-08-24T08:50:20.000Z</time>
      </trkpt>
      <trkpt lat="50.44062" lon="2.48786">
        <ele>141</ele>
        <time>2013-08-24T08:50:26.000Z</time>
      </trkpt>
      <trkpt lat="50.44085" lon="2.48782">
        <ele>143</ele>
        <time>2013-08-24T08:50:32.000Z</time>
      </trkpt>
      <trkpt lat="50.4411" lon="2.48777">
        <ele>145</ele>
        <time>2013-08-24T08:50:38.000Z</time>
      </trkpt>
      <trkpt lat="50.44122" lon="2.48772">
        <ele>145</ele>
        <time>2013-08-24T08:50:41.000Z</time>
      </trkpt>
      <trkpt lat="50.44146" lon="2.48766">
        <ele>146</ele>
        <time>2013-08-24T08:50:47.000Z</time>
      </trkpt>
      <trkpt lat="50.44158" lon="2.48757">
        <ele>146</ele>
        <time>2013-08-24T08:50:50.000Z</time>
      </trkpt>
      <trkpt lat="50.4417" lon="2.48749">
        <ele>146</ele>
        <time>2013-08-24T08:50:53.000Z</time>
      </trkpt>
      <trkpt lat="50.44183" lon="2.48741">
        <ele>147</ele>
        <time>2013-08-24T08:50:56.000Z</time>
      </trkpt>
      <trkpt lat="50.44196" lon="2.4873">
        <ele>146</ele>
        <time>2013-08-24T08:50:59.000Z</time>
      </trkpt>
      <trkpt lat="50.4421" lon="2.48719">
        <ele>146</ele>
        <time>2013-08-24T08:51:02.000Z</time>
      </trkpt>
      <trkpt lat="50.44223" lon="2.48707">
        <ele>146</ele>
        <time>2013-08-24T08:51:05.000Z</time>
      </trkpt>
      <trkpt lat="50.44236" lon="2.48696">
        <ele>145</ele>
        <time>2013-08-24T08:51:08.000Z</time>
      </trkpt>
      <trkpt lat="50.44249" lon="2.48686">
        <ele>145</ele>
        <time>2013-08-24T08:51:11.000Z</time>
      </trkpt>
      <trkpt lat="50.44261" lon="2.48675">
        <ele>146</ele>
        <time>2013-08-24T08:51:14.000Z</time>
      </trkpt>
      <trkpt lat="50.44275" lon="2.48663">
        <ele>146</ele>
        <time>2013-08-24T08:51:17.000Z</time>
      </trkpt>
      <trkpt lat="50.44288" lon="2.48653">
        <ele>146</ele>
        <time>2013-08-24T08:51:20.000Z</time>
      </trkpt>
      <trkpt lat="50.443" lon="2.48643">
        <ele>146</ele>
        <time>2013-08-24T08:51:23.000Z</time>
      </trkpt>
      <trkpt lat="50.44312" lon="2.48634">
        <ele>147</ele>
        <time>2013-08-24T08:51:26.000Z</time>
      </trkpt>
      <trkpt lat="50.44323" lon="2.48624">
        <ele>147</ele>
        <time>2013-08-24T08:51:29.000Z</time>
      </trkpt>
      <trkpt lat="50.44344" lon="2.48607">
        <ele>148</ele>
        <time>2013-08-24T08:51:35.000Z</time>
      </trkpt>
      <trkpt lat="50.44361" lon="2.48614">
        <ele>148</ele>
        <time>2013-08-24T08:51:38.000Z</time>
      </trkpt>
      <trkpt lat="50.44383" lon="2.48602">
        <ele>149</ele>
        <time>2013-08-24T08:51:44.000Z</time>
      </trkpt>
      <trkpt lat="50.44407" lon="2.48592">
        <ele>150</ele>
        <time>2013-08-24T08:51:50.000Z</time>
      </trkpt>
      <trkpt lat="50.44431" lon="2.48584">
        <ele>151</ele>
        <time>2013-08-24T08:51:56.000Z</time>
      </trkpt>
      <trkpt lat="50.44455" lon="2.48577">
        <ele>152</ele>
        <time>2013-08-24T08:52:02.000Z</time>
      </trkpt>
      <trkpt lat="50.44479" lon="2.4857">
        <ele>153</ele>
        <time>2013-08-24T08:52:08.000Z</time>
      </trkpt>
      <trkpt lat="50.44501" lon="2.48564">
        <ele>154</ele>
        <time>2013-08-24T08:52:14.000Z</time>
      </trkpt>
      <trkpt lat="50.44524" lon="2.48554">
        <ele>155</ele>
        <time>2013-08-24T08:52:20.000Z</time>
      </trkpt>
      <trkpt lat="50.44537" lon="2.48548">
        <ele>155</ele>
        <time>2013-08-24T08:52:30.000Z</time>
      </trkpt>
      <trkpt lat="50.44551" lon="2.48542">
        <ele>155</ele>
        <time>2013-08-24T08:52:30.000Z</time>
      </trkpt>
      <trkpt lat="50.44565" lon="2.48535">
        <ele>155</ele>
        <time>2013-08-24T08:52:30.000Z</time>
      </trkpt>
      <trkpt lat="50.44581" lon="2.48528">
        <ele>154</ele>
        <time>2013-08-24T08:52:32.000Z</time>
      </trkpt>
      <trkpt lat="50.44599" lon="2.48516">
        <ele>153</ele>
        <time>2013-08-24T08:52:35.000Z</time>
      </trkpt>
      <trkpt lat="50.44619" lon="2.48499">
        <ele>152</ele>
        <time>2013-08-24T08:52:38.000Z</time>
      </trkpt>
      <trkpt lat="50.4464" lon="2.48479">
        <ele>151</ele>
        <time>2013-08-24T08:52:41.000Z</time>
      </trkpt>
      <trkpt lat="50.44662" lon="2.48459">
        <ele>150</ele>
        <time>2013-08-24T08:52:44.000Z</time>
      </trkpt>
      <trkpt lat="50.44683" lon="2.48439">
        <ele>149</ele>
        <time>2013-08-24T08:52:47.000Z</time>
      </trkpt>
      <trkpt lat="50.44705" lon="2.48419">
        <ele>148</ele>
        <time>2013-08-24T08:52:50.000Z</time>
      </trkpt>
      <trkpt lat="50.44727" lon="2.48398">
        <ele>147</ele>
        <time>2013-08-24T08:52:53.000Z</time>
      </trkpt>
      <trkpt lat="50.44748" lon="2.48378">
        <ele>146</ele>
        <time>2013-08-24T08:52:56.000Z</time>
      </trkpt>
      <trkpt lat="50.44769" lon="2.48359">
        <ele>146</ele>
        <time>2013-08-24T08:52:59.000Z</time>
      </trkpt>
      <trkpt lat="50.44791" lon="2.4834">
        <ele>145</ele>
        <time>2013-08-24T08:53:02.000Z</time>
      </trkpt>
      <trkpt lat="50.44814" lon="2.48322">
        <ele>144</ele>
        <time>2013-08-24T08:53:05.000Z</time>
      </trkpt>
      <trkpt lat="50.44838" lon="2.48304">
        <ele>143</ele>
        <time>2013-08-24T08:53:08.000Z</time>
      </trkpt>
      <trkpt lat="50.44862" lon="2.48285">
        <ele>142</ele>
        <time>2013-08-24T08:53:11.000Z</time>
      </trkpt>
      <trkpt lat="50.44886" lon="2.48261">
        <ele>141</ele>
        <time>2013-08-24T08:53:14.000Z</time>
      </trkpt>
      <trkpt lat="50.44905" lon="2.48223">
        <ele>140</ele>
        <time>2013-08-24T08:53:17.000Z</time>
      </trkpt>
      <trkpt lat="50.44925" lon="2.48181">
        <ele>137</ele>
        <time>2013-08-24T08:53:20.000Z</time>
      </trkpt>
      <trkpt lat="50.44945" lon="2.4814">
        <ele>135</ele>
        <time>2013-08-24T08:53:23.000Z</time>
      </trkpt>
      <trkpt lat="50.44965" lon="2.48097">
        <ele>133</ele>
        <time>2013-08-24T08:53:26.000Z</time>
      </trkpt>
      <trkpt lat="50.44984" lon="2.48055">
        <ele>131</ele>
        <time>2013-08-24T08:53:29.000Z</time>
      </trkpt>
      <trkpt lat="50.44997" lon="2.48011">
        <ele>130</ele>
        <time>2013-08-24T08:53:32.000Z</time>
      </trkpt>
      <trkpt lat="50.45005" lon="2.4797">
        <ele>130</ele>
        <time>2013-08-24T08:53:35.000Z</time>
      </trkpt>
      <trkpt lat="50.45014" lon="2.47931">
        <ele>130</ele>
        <time>2013-08-24T08:53:38.000Z</time>
      </trkpt>
      <trkpt lat="50.45031" lon="2.479">
        <ele>130</ele>
        <time>2013-08-24T08:53:41.000Z</time>
      </trkpt>
      <trkpt lat="50.4505" lon="2.47877">
        <ele>130</ele>
        <time>2013-08-24T08:53:44.000Z</time>
      </trkpt>
      <trkpt lat="50.45071" lon="2.47859">
        <ele>130</ele>
        <time>2013-08-24T08:53:47.000Z</time>
      </trkpt>
      <trkpt lat="50.45091" lon="2.47842">
        <ele>131</ele>
        <time>2013-08-24T08:53:50.000Z</time>
      </trkpt>
      <trkpt lat="50.4511" lon="2.47825">
        <ele>131</ele>
        <time>2013-08-24T08:53:53.000Z</time>
      </trkpt>
      <trkpt lat="50.4513" lon="2.4781">
        <ele>131</ele>
        <time>2013-08-24T08:53:56.000Z</time>
      </trkpt>
      <trkpt lat="50.45151" lon="2.478">
        <ele>130</ele>
        <time>2013-08-24T08:53:59.000Z</time>
      </trkpt>
      <trkpt lat="50.45171" lon="2.47789">
        <ele>130</ele>
        <time>2013-08-24T08:54:02.000Z</time>
      </trkpt>
      <trkpt lat="50.45193" lon="2.47778">
        <ele>130</ele>
        <time>2013-08-24T08:54:05.000Z</time>
      </trkpt>
      <trkpt lat="50.45212" lon="2.47769">
        <ele>130</ele>
        <time>2013-08-24T08:54:08.000Z</time>
      </trkpt>
      <trkpt lat="50.45229" lon="2.47759">
        <ele>131</ele>
        <time>2013-08-24T08:54:11.000Z</time>
      </trkpt>
      <trkpt lat="50.45245" lon="2.47748">
        <ele>132</ele>
        <time>2013-08-24T08:54:14.000Z</time>
      </trkpt>
      <trkpt lat="50.4526" lon="2.4774">
        <ele>133</ele>
        <time>2013-08-24T08:54:17.000Z</time>
      </trkpt>
      <trkpt lat="50.45274" lon="2.47731">
        <ele>133</ele>
        <time>2013-08-24T08:54:20.000Z</time>
      </trkpt>
      <trkpt lat="50.45286" lon="2.47724">
        <ele>133</ele>
        <time>2013-08-24T08:54:25.000Z</time>
      </trkpt>
      <trkpt lat="50.453" lon="2.47715">
        <ele>133</ele>
        <time>2013-08-24T08:54:29.000Z</time>
      </trkpt>
      <trkpt lat="50.45314" lon="2.47713">
        <ele>135</ele>
        <time>2013-08-24T08:54:56.000Z</time>
      </trkpt>
      <trkpt lat="50.45327" lon="2.47702">
        <ele>135</ele>
        <time>2013-08-24T08:55:02.000Z</time>
      </trkpt>
      <trkpt lat="50.45346" lon="2.47689">
        <ele>136</ele>
        <time>2013-08-24T08:55:08.000Z</time>
      </trkpt>
      <trkpt lat="50.45359" lon="2.47679">
        <ele>137</ele>
        <time>2013-08-24T08:55:11.000Z</time>
      </trkpt>
      <trkpt lat="50.4538" lon="2.47661">
        <ele>138</ele>
        <time>2013-08-24T08:55:17.000Z</time>
      </trkpt>
      <trkpt lat="50.45398" lon="2.47644">
        <ele>138</ele>
        <time>2013-08-24T08:55:23.000Z</time>
      </trkpt>
      <trkpt lat="50.45415" lon="2.47629">
        <ele>139</ele>
        <time>2013-08-24T08:55:29.000Z</time>
      </trkpt>
      <trkpt lat="50.45433" lon="2.47611">
        <ele>140</ele>
        <time>2013-08-24T08:55:35.000Z</time>
      </trkpt>
      <trkpt lat="50.45449" lon="2.47596">
        <ele>141</ele>
        <time>2013-08-24T08:55:41.000Z</time>
      </trkpt>
      <trkpt lat="50.45471" lon="2.47581">
        <ele>142</ele>
        <time>2013-08-24T08:55:47.000Z</time>
      </trkpt>
      <trkpt lat="50.45496" lon="2.47565">
        <ele>144</ele>
        <time>2013-08-24T08:56:05.000Z</time>
      </trkpt>
      <trkpt lat="50.45512" lon="2.47555">
        <ele>144</ele>
        <time>2013-08-24T08:56:08.000Z</time>
      </trkpt>
      <trkpt lat="50.45525" lon="2.47548">
        <ele>145</ele>
        <time>2013-08-24T08:56:11.000Z</time>
      </trkpt>
      <trkpt lat="50.45537" lon="2.47544">
        <ele>145</ele>
        <time>2013-08-24T08:56:14.000Z</time>
      </trkpt>
      <trkpt lat="50.45547" lon="2.47539">
        <ele>146</ele>
        <time>2013-08-24T08:56:17.000Z</time>
      </trkpt>
      <trkpt lat="50.45568" lon="2.47531">
        <ele>146</ele>
        <time>2013-08-24T08:56:21.000Z</time>
      </trkpt>
      <trkpt lat="50.45591" lon="2.4752">
        <ele>149</ele>
        <time>2013-08-24T08:56:26.000Z</time>
      </trkpt>
      <trkpt lat="50.4561" lon="2.47506">
        <ele>151</ele>
        <time>2013-08-24T08:56:32.000Z</time>
      </trkpt>
      <trkpt lat="50.45632" lon="2.47489">
        <ele>152</ele>
        <time>2013-08-24T08:56:38.000Z</time>
      </trkpt>
      <trkpt lat="50.45653" lon="2.47473">
        <ele>152</ele>
        <time>2013-08-24T08:56:44.000Z</time>
      </trkpt>
      <trkpt lat="50.45671" lon="2.47448">
        <ele>154</ele>
        <time>2013-08-24T08:56:50.000Z</time>
      </trkpt>
      <trkpt lat="50.45681" lon="2.47435">
        <ele>155</ele>
        <time>2013-08-24T08:56:53.000Z</time>
      </trkpt>
      <trkpt lat="50.45691" lon="2.47421">
        <ele>155</ele>
        <time>2013-08-24T08:56:56.000Z</time>
      </trkpt>
      <trkpt lat="50.457" lon="2.47408">
        <ele>157</ele>
        <time>2013-08-24T08:56:59.000Z</time>
      </trkpt>
      <trkpt lat="50.4572" lon="2.47388">
        <ele>160</ele>
        <time>2013-08-24T08:57:05.000Z</time>
      </trkpt>
      <trkpt lat="50.45731" lon="2.47377">
        <ele>159</ele>
        <time>2013-08-24T08:57:08.000Z</time>
      </trkpt>
      <trkpt lat="50.45747" lon="2.47349">
        <ele>159</ele>
        <time>2013-08-24T08:57:14.000Z</time>
      </trkpt>
      <trkpt lat="50.45763" lon="2.47322">
        <ele>161</ele>
        <time>2013-08-24T08:57:20.000Z</time>
      </trkpt>
      <trkpt lat="50.4578" lon="2.47296">
        <ele>160</ele>
        <time>2013-08-24T08:57:26.000Z</time>
      </trkpt>
      <trkpt lat="50.45795" lon="2.47295">
        <ele>161</ele>
        <time>2013-08-24T08:57:29.000Z</time>
      </trkpt>
      <trkpt lat="50.45807" lon="2.47287">
        <ele>161</ele>
        <time>2013-08-24T08:57:32.000Z</time>
      </trkpt>
      <trkpt lat="50.45818" lon="2.4728">
        <ele>161</ele>
        <time>2013-08-24T08:57:35.000Z</time>
      </trkpt>
      <trkpt lat="50.4584" lon="2.47257">
        <ele>162</ele>
        <time>2013-08-24T08:57:41.000Z</time>
      </trkpt>
      <trkpt lat="50.45852" lon="2.47243">
        <ele>162</ele>
        <time>2013-08-24T08:57:44.000Z</time>
      </trkpt>
      <trkpt lat="50.45865" lon="2.47223">
        <ele>162</ele>
        <time>2013-08-24T08:57:47.000Z</time>
      </trkpt>
      <trkpt lat="50.45879" lon="2.47195">
        <ele>162</ele>
        <time>2013-08-24T08:57:50.000Z</time>
      </trkpt>
      <trkpt lat="50.45893" lon="2.47165">
        <ele>162</ele>
        <time>2013-08-24T08:57:53.000Z</time>
      </trkpt>
      <trkpt lat="50.45908" lon="2.47138">
        <ele>161</ele>
        <time>2013-08-24T08:57:56.000Z</time>
      </trkpt>
      <trkpt lat="50.45924" lon="2.47114">
        <ele>160</ele>
        <time>2013-08-24T08:57:59.000Z</time>
      </trkpt>
      <trkpt lat="50.45939" lon="2.47092">
        <ele>160</ele>
        <time>2013-08-24T08:58:02.000Z</time>
      </trkpt>
      <trkpt lat="50.45953" lon="2.47073">
        <ele>160</ele>
        <time>2013-08-24T08:58:05.000Z</time>
      </trkpt>
      <trkpt lat="50.45964" lon="2.47052">
        <ele>161</ele>
        <time>2013-08-24T08:58:08.000Z</time>
      </trkpt>
      <trkpt lat="50.45975" lon="2.47035">
        <ele>162</ele>
        <time>2013-08-24T08:58:11.000Z</time>
      </trkpt>
      <trkpt lat="50.45991" lon="2.47011">
        <ele>164</ele>
        <time>2013-08-24T08:58:17.000Z</time>
      </trkpt>
      <trkpt lat="50.45984" lon="2.46953">
        <ele>165</ele>
        <time>2013-08-24T08:58:23.000Z</time>
      </trkpt>
      <trkpt lat="50.45988" lon="2.46934">
        <ele>165</ele>
        <time>2013-08-24T08:58:26.000Z</time>
      </trkpt>
      <trkpt lat="50.45993" lon="2.46914">
        <ele>165</ele>
        <time>2013-08-24T08:58:29.000Z</time>
      </trkpt>
      <trkpt lat="50.46003" lon="2.46881">
        <ele>166</ele>
        <time>2013-08-24T08:58:35.000Z</time>
      </trkpt>
      <trkpt lat="50.46016" lon="2.46851">
        <ele>168</ele>
        <time>2013-08-24T08:58:41.000Z</time>
      </trkpt>
      <trkpt lat="50.46032" lon="2.46821">
        <ele>169</ele>
        <time>2013-08-24T08:58:47.000Z</time>
      </trkpt>
      <trkpt lat="50.46041" lon="2.46807">
        <ele>169</ele>
        <time>2013-08-24T08:58:50.000Z</time>
      </trkpt>
      <trkpt lat="50.46057" lon="2.46781">
        <ele>170</ele>
        <time>2013-08-24T08:58:56.000Z</time>
      </trkpt>
      <trkpt lat="50.46074" lon="2.46753">
        <ele>170</ele>
        <time>2013-08-24T08:59:02.000Z</time>
      </trkpt>
      <trkpt lat="50.4609" lon="2.46728">
        <ele>171</ele>
        <time>2013-08-24T08:59:08.000Z</time>
      </trkpt>
      <trkpt lat="50.4609" lon="2.46703">
        <ele>171</ele>
        <time>2013-08-24T08:59:11.000Z</time>
      </trkpt>
      <trkpt lat="50.46092" lon="2.46682">
        <ele>172</ele>
        <time>2013-08-24T08:59:14.000Z</time>
      </trkpt>
      <trkpt lat="50.4609" lon="2.46661">
        <ele>172</ele>
        <time>2013-08-24T08:59:17.000Z</time>
      </trkpt>
      <trkpt lat="50.4609" lon="2.46623">
        <ele>172</ele>
        <time>2013-08-24T08:59:23.000Z</time>
      </trkpt>
      <trkpt lat="50.46084" lon="2.46601">
        <ele>171</ele>
        <time>2013-08-24T08:59:26.000Z</time>
      </trkpt>
      <trkpt lat="50.46083" lon="2.46579">
        <ele>171</ele>
        <time>2013-08-24T08:59:29.000Z</time>
      </trkpt>
      <trkpt lat="50.46082" lon="2.46557">
        <ele>170</ele>
        <time>2013-08-24T08:59:32.000Z</time>
      </trkpt>
      <trkpt lat="50.46082" lon="2.46532">
        <ele>170</ele>
        <time>2013-08-24T08:59:35.000Z</time>
      </trkpt>
      <trkpt lat="50.46084" lon="2.46506">
        <ele>170</ele>
        <time>2013-08-24T08:59:38.000Z</time>
      </trkpt>
      <trkpt lat="50.46093" lon="2.46477">
        <ele>169</ele>
        <time>2013-08-24T08:59:41.000Z</time>
      </trkpt>
      <trkpt lat="50.46103" lon="2.46448">
        <ele>168</ele>
        <time>2013-08-24T08:59:44.000Z</time>
      </trkpt>
      <trkpt lat="50.46114" lon="2.46421">
        <ele>168</ele>
        <time>2013-08-24T08:59:47.000Z</time>
      </trkpt>
      <trkpt lat="50.46125" lon="2.46392">
        <ele>167</ele>
        <time>2013-08-24T08:59:50.000Z</time>
      </trkpt>
      <trkpt lat="50.46136" lon="2.46363">
        <ele>167</ele>
        <time>2013-08-24T08:59:53.000Z</time>
      </trkpt>
      <trkpt lat="50.46146" lon="2.46334">
        <ele>166</ele>
        <time>2013-08-24T08:59:56.000Z</time>
      </trkpt>
      <trkpt lat="50.46157" lon="2.46302">
        <ele>165</ele>
        <time>2013-08-24T08:59:59.000Z</time>
      </trkpt>
      <trkpt lat="50.46166" lon="2.46272">
        <ele>165</ele>
        <time>2013-08-24T09:00:02.000Z</time>
      </trkpt>
      <trkpt lat="50.46177" lon="2.46242">
        <ele>165</ele>
        <time>2013-08-24T09:00:05.000Z</time>
      </trkpt>
      <trkpt lat="50.46191" lon="2.46213">
        <ele>164</ele>
        <time>2013-08-24T09:00:08.000Z</time>
      </trkpt>
      <trkpt lat="50.46204" lon="2.46185">
        <ele>163</ele>
        <time>2013-08-24T09:00:11.000Z</time>
      </trkpt>
      <trkpt lat="50.46219" lon="2.46158">
        <ele>163</ele>
        <time>2013-08-24T09:00:14.000Z</time>
      </trkpt>
      <trkpt lat="50.46235" lon="2.46133">
        <ele>162</ele>
        <time>2013-08-24T09:00:17.000Z</time>
      </trkpt>
      <trkpt lat="50.46251" lon="2.46107">
        <ele>162</ele>
        <time>2013-08-24T09:00:20.000Z</time>
      </trkpt>
      <trkpt lat="50.46265" lon="2.4608">
        <ele>161</ele>
        <time>2013-08-24T09:00:23.000Z</time>
      </trkpt>
      <trkpt lat="50.46277" lon="2.4605">
        <ele>161</ele>
        <time>2013-08-24T09:00:26.000Z</time>
      </trkpt>
      <trkpt lat="50.46284" lon="2.46018">
        <ele>161</ele>
        <time>2013-08-24T09:00:29.000Z</time>
      </trkpt>
      <trkpt lat="50.46292" lon="2.45986">
        <ele>161</ele>
        <time>2013-08-24T09:00:32.000Z</time>
      </trkpt>
      <trkpt lat="50.46298" lon="2.45954">
        <ele>161</ele>
        <time>2013-08-24T09:00:35.000Z</time>
      </trkpt>
      <trkpt lat="50.46304" lon="2.45922">
        <ele>161</ele>
        <time>2013-08-24T09:00:38.000Z</time>
      </trkpt>
      <trkpt lat="50.4631" lon="2.45889">
        <ele>161</ele>
        <time>2013-08-24T09:00:41.000Z</time>
      </trkpt>
      <trkpt lat="50.46317" lon="2.45846">
        <ele>160</ele>
        <time>2013-08-24T09:00:45.000Z</time>
      </trkpt>
      <trkpt lat="50.46322" lon="2.45814">
        <ele>160</ele>
        <time>2013-08-24T09:00:48.000Z</time>
      </trkpt>
      <trkpt lat="50.46328" lon="2.45784">
        <ele>161</ele>
        <time>2013-08-24T09:00:51.000Z</time>
      </trkpt>
      <trkpt lat="50.46334" lon="2.45754">
        <ele>161</ele>
        <time>2013-08-24T09:00:54.000Z</time>
      </trkpt>
      <trkpt lat="50.4634" lon="2.45725">
        <ele>161</ele>
        <time>2013-08-24T09:00:57.000Z</time>
      </trkpt>
      <trkpt lat="50.46347" lon="2.45698">
        <ele>161</ele>
        <time>2013-08-24T09:01:00.000Z</time>
      </trkpt>
      <trkpt lat="50.46354" lon="2.45673">
        <ele>161</ele>
        <time>2013-08-24T09:01:03.000Z</time>
      </trkpt>
      <trkpt lat="50.4636" lon="2.45649">
        <ele>161</ele>
        <time>2013-08-24T09:01:06.000Z</time>
      </trkpt>
      <trkpt lat="50.46366" lon="2.45625">
        <ele>162</ele>
        <time>2013-08-24T09:01:09.000Z</time>
      </trkpt>
      <trkpt lat="50.46371" lon="2.45602">
        <ele>163</ele>
        <time>2013-08-24T09:01:12.000Z</time>
      </trkpt>
      <trkpt lat="50.46377" lon="2.4558">
        <ele>163</ele>
        <time>2013-08-24T09:01:15.000Z</time>
      </trkpt>
      <trkpt lat="50.46383" lon="2.45558">
        <ele>164</ele>
        <time>2013-08-24T09:01:18.000Z</time>
      </trkpt>
      <trkpt lat="50.46387" lon="2.45539">
        <ele>164</ele>
        <time>2013-08-24T09:01:21.000Z</time>
      </trkpt>
      <trkpt lat="50.46392" lon="2.45519">
        <ele>165</ele>
        <time>2013-08-24T09:01:24.000Z</time>
      </trkpt>
      <trkpt lat="50.46397" lon="2.455">
        <ele>165</ele>
        <time>2013-08-24T09:01:27.000Z</time>
      </trkpt>
      <trkpt lat="50.46406" lon="2.45463">
        <ele>166</ele>
        <time>2013-08-24T09:01:33.000Z</time>
      </trkpt>
      <trkpt lat="50.46395" lon="2.45432">
        <ele>166</ele>
        <time>2013-08-24T09:01:36.000Z</time>
      </trkpt>
      <trkpt lat="50.46398" lon="2.45409">
        <ele>167</ele>
        <time>2013-08-24T09:01:39.000Z</time>
      </trkpt>
      <trkpt lat="50.464" lon="2.45386">
        <ele>167</ele>
        <time>2013-08-24T09:01:42.000Z</time>
      </trkpt>
      <trkpt lat="50.46402" lon="2.45363">
        <ele>167</ele>
        <time>2013-08-24T09:01:45.000Z</time>
      </trkpt>
      <trkpt lat="50.46404" lon="2.45339">
        <ele>167</ele>
        <time>2013-08-24T09:01:48.000Z</time>
      </trkpt>
      <trkpt lat="50.46406" lon="2.45314">
        <ele>167</ele>
        <time>2013-08-24T09:01:51.000Z</time>
      </trkpt>
      <trkpt lat="50.46408" lon="2.45289">
        <ele>167</ele>
        <time>2013-08-24T09:01:54.000Z</time>
      </trkpt>
      <trkpt lat="50.46411" lon="2.45263">
        <ele>167</ele>
        <time>2013-08-24T09:01:57.000Z</time>
      </trkpt>
      <trkpt lat="50.46413" lon="2.45237">
        <ele>168</ele>
        <time>2013-08-24T09:02:00.000Z</time>
      </trkpt>
      <trkpt lat="50.46416" lon="2.45211">
        <ele>167</ele>
        <time>2013-08-24T09:02:03.000Z</time>
      </trkpt>
      <trkpt lat="50.46419" lon="2.45185">
        <ele>167</ele>
        <time>2013-08-24T09:02:06.000Z</time>
      </trkpt>
      <trkpt lat="50.46422" lon="2.4516">
        <ele>167</ele>
        <time>2013-08-24T09:02:09.000Z</time>
      </trkpt>
      <trkpt lat="50.46426" lon="2.45135">
        <ele>168</ele>
        <time>2013-08-24T09:02:12.000Z</time>
      </trkpt>
      <trkpt lat="50.46434" lon="2.45111">
        <ele>168</ele>
        <time>2013-08-24T09:02:15.000Z</time>
      </trkpt>
      <trkpt lat="50.46442" lon="2.45088">
        <ele>167</ele>
        <time>2013-08-24T09:02:18.000Z</time>
      </trkpt>
      <trkpt lat="50.46453" lon="2.45067">
        <ele>166</ele>
        <time>2013-08-24T09:02:21.000Z</time>
      </trkpt>
      <trkpt lat="50.46465" lon="2.45046">
        <ele>165</ele>
        <time>2013-08-24T09:02:24.000Z</time>
      </trkpt>
      <trkpt lat="50.46477" lon="2.45025">
        <ele>164</ele>
        <time>2013-08-24T09:02:27.000Z</time>
      </trkpt>
      <trkpt lat="50.46489" lon="2.45004">
        <ele>164</ele>
        <time>2013-08-24T09:02:30.000Z</time>
      </trkpt>
      <trkpt lat="50.465" lon="2.44982">
        <ele>164</ele>
        <time>2013-08-24T09:02:33.000Z</time>
      </trkpt>
      <trkpt lat="50.46513" lon="2.44957">
        <ele>163</ele>
        <time>2013-08-24T09:02:36.000Z</time>
      </trkpt>
      <trkpt lat="50.46525" lon="2.44936">
        <ele>163</ele>
        <time>2013-08-24T09:02:39.000Z</time>
      </trkpt>
      <trkpt lat="50.46537" lon="2.44914">
        <ele>163</ele>
        <time>2013-08-24T09:02:42.000Z</time>
      </trkpt>
      <trkpt lat="50.4655" lon="2.44892">
        <ele>163</ele>
        <time>2013-08-24T09:02:45.000Z</time>
      </trkpt>
      <trkpt lat="50.46561" lon="2.44871">
        <ele>163</ele>
        <time>2013-08-24T09:02:48.000Z</time>
      </trkpt>
      <trkpt lat="50.46572" lon="2.44849">
        <ele>164</ele>
        <time>2013-08-24T09:02:51.000Z</time>
      </trkpt>
      <trkpt lat="50.46584" lon="2.44827">
        <ele>165</ele>
        <time>2013-08-24T09:02:54.000Z</time>
      </trkpt>
      <trkpt lat="50.46595" lon="2.44807">
        <ele>166</ele>
        <time>2013-08-24T09:02:57.000Z</time>
      </trkpt>
      <trkpt lat="50.46606" lon="2.44787">
        <ele>167</ele>
        <time>2013-08-24T09:03:00.000Z</time>
      </trkpt>
      <trkpt lat="50.46618" lon="2.44766">
        <ele>167</ele>
        <time>2013-08-24T09:03:03.000Z</time>
      </trkpt>
      <trkpt lat="50.4663" lon="2.44747">
        <ele>167</ele>
        <time>2013-08-24T09:03:06.000Z</time>
      </trkpt>
      <trkpt lat="50.46642" lon="2.44727">
        <ele>168</ele>
        <time>2013-08-24T09:03:09.000Z</time>
      </trkpt>
      <trkpt lat="50.46655" lon="2.44706">
        <ele>167</ele>
        <time>2013-08-24T09:03:12.000Z</time>
      </trkpt>
      <trkpt lat="50.46667" lon="2.44688">
        <ele>167</ele>
        <time>2013-08-24T09:03:15.000Z</time>
      </trkpt>
      <trkpt lat="50.46679" lon="2.44671">
        <ele>168</ele>
        <time>2013-08-24T09:03:18.000Z</time>
      </trkpt>
      <trkpt lat="50.4669" lon="2.44654">
        <ele>168</ele>
        <time>2013-08-24T09:03:21.000Z</time>
      </trkpt>
      <trkpt lat="50.46701" lon="2.44638">
        <ele>169</ele>
        <time>2013-08-24T09:03:24.000Z</time>
      </trkpt>
      <trkpt lat="50.46712" lon="2.44621">
        <ele>170</ele>
        <time>2013-08-24T09:03:27.000Z</time>
      </trkpt>
      <trkpt lat="50.46722" lon="2.44605">
        <ele>170</ele>
        <time>2013-08-24T09:03:30.000Z</time>
      </trkpt>
      <trkpt lat="50.46732" lon="2.4459">
        <ele>171</ele>
        <time>2013-08-24T09:03:33.000Z</time>
      </trkpt>
      <trkpt lat="50.46741" lon="2.44576">
        <ele>171</ele>
        <time>2013-08-24T09:03:36.000Z</time>
      </trkpt>
      <trkpt lat="50.46758" lon="2.44552">
        <ele>171</ele>
        <time>2013-08-24T09:03:42.000Z</time>
      </trkpt>
      <trkpt lat="50.46765" lon="2.44533">
        <ele>170</ele>
        <time>2013-08-24T09:03:45.000Z</time>
      </trkpt>
      <trkpt lat="50.4678" lon="2.44506">
        <ele>171</ele>
        <time>2013-08-24T09:03:51.000Z</time>
      </trkpt>
      <trkpt lat="50.46799" lon="2.44482">
        <ele>171</ele>
        <time>2013-08-24T09:03:57.000Z</time>
      </trkpt>
      <trkpt lat="50.46811" lon="2.44467">
        <ele>171</ele>
        <time>2013-08-24T09:04:00.000Z</time>
      </trkpt>
      <trkpt lat="50.46825" lon="2.4445">
        <ele>170</ele>
        <time>2013-08-24T09:04:03.000Z</time>
      </trkpt>
      <trkpt lat="50.4684" lon="2.44432">
        <ele>170</ele>
        <time>2013-08-24T09:04:06.000Z</time>
      </trkpt>
      <trkpt lat="50.46856" lon="2.44416">
        <ele>169</ele>
        <time>2013-08-24T09:04:09.000Z</time>
      </trkpt>
      <trkpt lat="50.46873" lon="2.44402">
        <ele>168</ele>
        <time>2013-08-24T09:04:12.000Z</time>
      </trkpt>
      <trkpt lat="50.46889" lon="2.44388">
        <ele>168</ele>
        <time>2013-08-24T09:04:15.000Z</time>
      </trkpt>
      <trkpt lat="50.46906" lon="2.44373">
        <ele>168</ele>
        <time>2013-08-24T09:04:18.000Z</time>
      </trkpt>
      <trkpt lat="50.4692" lon="2.44358">
        <ele>169</ele>
        <time>2013-08-24T09:04:21.000Z</time>
      </trkpt>
      <trkpt lat="50.46933" lon="2.44339">
        <ele>169</ele>
        <time>2013-08-24T09:04:24.000Z</time>
      </trkpt>
      <trkpt lat="50.46944" lon="2.44313">
        <ele>170</ele>
        <time>2013-08-24T09:04:27.000Z</time>
      </trkpt>
      <trkpt lat="50.46952" lon="2.44287">
        <ele>170</ele>
        <time>2013-08-24T09:04:30.000Z</time>
      </trkpt>
      <trkpt lat="50.4696" lon="2.44261">
        <ele>170</ele>
        <time>2013-08-24T09:04:33.000Z</time>
      </trkpt>
      <trkpt lat="50.46968" lon="2.44237">
        <ele>169</ele>
        <time>2013-08-24T09:04:36.000Z</time>
      </trkpt>
      <trkpt lat="50.46976" lon="2.44215">
        <ele>169</ele>
        <time>2013-08-24T09:04:39.000Z</time>
      </trkpt>
      <trkpt lat="50.46986" lon="2.44194">
        <ele>169</ele>
        <time>2013-08-24T09:04:42.000Z</time>
      </trkpt>
      <trkpt lat="50.46997" lon="2.44174">
        <ele>170</ele>
        <time>2013-08-24T09:04:45.000Z</time>
      </trkpt>
      <trkpt lat="50.4701" lon="2.44152">
        <ele>170</ele>
        <time>2013-08-24T09:04:48.000Z</time>
      </trkpt>
      <trkpt lat="50.47022" lon="2.44131">
        <ele>169</ele>
        <time>2013-08-24T09:04:51.000Z</time>
      </trkpt>
      <trkpt lat="50.47037" lon="2.4411">
        <ele>168</ele>
        <time>2013-08-24T09:04:54.000Z</time>
      </trkpt>
      <trkpt lat="50.47052" lon="2.44095">
        <ele>168</ele>
        <time>2013-08-24T09:04:57.000Z</time>
      </trkpt>
      <trkpt lat="50.47066" lon="2.44084">
        <ele>168</ele>
        <time>2013-08-24T09:05:00.000Z</time>
      </trkpt>
      <trkpt lat="50.47084" lon="2.44074">
        <ele>168</ele>
        <time>2013-08-24T09:05:03.000Z</time>
      </trkpt>
      <trkpt lat="50.47101" lon="2.44067">
        <ele>168</ele>
        <time>2013-08-24T09:05:06.000Z</time>
      </trkpt>
      <trkpt lat="50.47118" lon="2.44061">
        <ele>169</ele>
        <time>2013-08-24T09:05:09.000Z</time>
      </trkpt>
      <trkpt lat="50.47135" lon="2.44053">
        <ele>170</ele>
        <time>2013-08-24T09:05:12.000Z</time>
      </trkpt>
      <trkpt lat="50.47151" lon="2.44048">
        <ele>171</ele>
        <time>2013-08-24T09:05:15.000Z</time>
      </trkpt>
      <trkpt lat="50.47167" lon="2.4404">
        <ele>171</ele>
        <time>2013-08-24T09:05:18.000Z</time>
      </trkpt>
      <trkpt lat="50.47183" lon="2.44028">
        <ele>171</ele>
        <time>2013-08-24T09:05:21.000Z</time>
      </trkpt>
      <trkpt lat="50.47199" lon="2.44013">
        <ele>171</ele>
        <time>2013-08-24T09:05:24.000Z</time>
      </trkpt>
      <trkpt lat="50.47216" lon="2.43992">
        <ele>171</ele>
        <time>2013-08-24T09:05:27.000Z</time>
      </trkpt>
      <trkpt lat="50.47236" lon="2.43967">
        <ele>170</ele>
        <time>2013-08-24T09:05:30.000Z</time>
      </trkpt>
      <trkpt lat="50.4726" lon="2.43944">
        <ele>169</ele>
        <time>2013-08-24T09:05:33.000Z</time>
      </trkpt>
      <trkpt lat="50.47289" lon="2.43921">
        <ele>168</ele>
        <time>2013-08-24T09:05:36.000Z</time>
      </trkpt>
      <trkpt lat="50.47321" lon="2.43899">
        <ele>166</ele>
        <time>2013-08-24T09:05:39.000Z</time>
      </trkpt>
      <trkpt lat="50.47351" lon="2.43892">
        <ele>163</ele>
        <time>2013-08-24T09:05:42.000Z</time>
      </trkpt>
      <trkpt lat="50.47379" lon="2.43905">
        <ele>160</ele>
        <time>2013-08-24T09:05:45.000Z</time>
      </trkpt>
      <trkpt lat="50.47404" lon="2.43915">
        <ele>159</ele>
        <time>2013-08-24T09:05:48.000Z</time>
      </trkpt>
      <trkpt lat="50.47428" lon="2.43912">
        <ele>159</ele>
        <time>2013-08-24T09:05:51.000Z</time>
      </trkpt>
      <trkpt lat="50.47448" lon="2.43889">
        <ele>160</ele>
        <time>2013-08-24T09:05:54.000Z</time>
      </trkpt>
      <trkpt lat="50.47464" lon="2.43861">
        <ele>161</ele>
        <time>2013-08-24T09:05:57.000Z</time>
      </trkpt>
      <trkpt lat="50.47478" lon="2.43833">
        <ele>161</ele>
        <time>2013-08-24T09:06:00.000Z</time>
      </trkpt>
      <trkpt lat="50.47491" lon="2.43809">
        <ele>162</ele>
        <time>2013-08-24T09:06:03.000Z</time>
      </trkpt>
      <trkpt lat="50.47505" lon="2.43786">
        <ele>162</ele>
        <time>2013-08-24T09:06:06.000Z</time>
      </trkpt>
      <trkpt lat="50.47517" lon="2.43763">
        <ele>162</ele>
        <time>2013-08-24T09:06:09.000Z</time>
      </trkpt>
      <trkpt lat="50.47531" lon="2.4374">
        <ele>163</ele>
        <time>2013-08-24T09:06:12.000Z</time>
      </trkpt>
      <trkpt lat="50.47546" lon="2.43719">
        <ele>162</ele>
        <time>2013-08-24T09:06:15.000Z</time>
      </trkpt>
      <trkpt lat="50.47561" lon="2.437">
        <ele>162</ele>
        <time>2013-08-24T09:06:18.000Z</time>
      </trkpt>
      <trkpt lat="50.47577" lon="2.43682">
        <ele>162</ele>
        <time>2013-08-24T09:06:21.000Z</time>
      </trkpt>
      <trkpt lat="50.47594" lon="2.43663">
        <ele>161</ele>
        <time>2013-08-24T09:06:24.000Z</time>
      </trkpt>
      <trkpt lat="50.47614" lon="2.43642">
        <ele>160</ele>
        <time>2013-08-24T09:06:27.000Z</time>
      </trkpt>
      <trkpt lat="50.47633" lon="2.43619">
        <ele>159</ele>
        <time>2013-08-24T09:06:30.000Z</time>
      </trkpt>
      <trkpt lat="50.47652" lon="2.43593">
        <ele>158</ele>
        <time>2013-08-24T09:06:33.000Z</time>
      </trkpt>
      <trkpt lat="50.4767" lon="2.43564">
        <ele>157</ele>
        <time>2013-08-24T09:06:36.000Z</time>
      </trkpt>
      <trkpt lat="50.47689" lon="2.43533">
        <ele>156</ele>
        <time>2013-08-24T09:06:39.000Z</time>
      </trkpt>
      <trkpt lat="50.4771" lon="2.43502">
        <ele>154</ele>
        <time>2013-08-24T09:06:42.000Z</time>
      </trkpt>
      <trkpt lat="50.47731" lon="2.4347">
        <ele>152</ele>
        <time>2013-08-24T09:06:45.000Z</time>
      </trkpt>
      <trkpt lat="50.47753" lon="2.43436">
        <ele>150</ele>
        <time>2013-08-24T09:06:48.000Z</time>
      </trkpt>
      <trkpt lat="50.47776" lon="2.43397">
        <ele>149</ele>
        <time>2013-08-24T09:06:51.000Z</time>
      </trkpt>
      <trkpt lat="50.47795" lon="2.43351">
        <ele>147</ele>
        <time>2013-08-24T09:06:54.000Z</time>
      </trkpt>
      <trkpt lat="50.47808" lon="2.43294">
        <ele>144</ele>
        <time>2013-08-24T09:06:57.000Z</time>
      </trkpt>
      <trkpt lat="50.47819" lon="2.43242">
        <ele>141</ele>
        <time>2013-08-24T09:07:01.000Z</time>
      </trkpt>
      <trkpt lat="50.47834" lon="2.432">
        <ele>139</ele>
        <time>2013-08-24T09:07:03.000Z</time>
      </trkpt>
      <trkpt lat="50.47855" lon="2.43169">
        <ele>137</ele>
        <time>2013-08-24T09:07:06.000Z</time>
      </trkpt>
      <trkpt lat="50.47878" lon="2.43142">
        <ele>136</ele>
        <time>2013-08-24T09:07:09.000Z</time>
      </trkpt>
      <trkpt lat="50.479" lon="2.43116">
        <ele>133</ele>
        <time>2013-08-24T09:07:12.000Z</time>
      </trkpt>
      <trkpt lat="50.47922" lon="2.43093">
        <ele>133</ele>
        <time>2013-08-24T09:07:15.000Z</time>
      </trkpt>
      <trkpt lat="50.47944" lon="2.43071">
        <ele>132</ele>
        <time>2013-08-24T09:07:18.000Z</time>
      </trkpt>
      <trkpt lat="50.47966" lon="2.43049">
        <ele>131</ele>
        <time>2013-08-24T09:07:22.000Z</time>
      </trkpt>
      <trkpt lat="50.47985" lon="2.43028">
        <ele>130</ele>
        <time>2013-08-24T09:07:24.000Z</time>
      </trkpt>
      <trkpt lat="50.48005" lon="2.43011">
        <ele>128</ele>
        <time>2013-08-24T09:07:27.000Z</time>
      </trkpt>
      <trkpt lat="50.48022" lon="2.42998">
        <ele>127</ele>
        <time>2013-08-24T09:07:30.000Z</time>
      </trkpt>
      <trkpt lat="50.48041" lon="2.42986">
        <ele>126</ele>
        <time>2013-08-24T09:07:33.000Z</time>
      </trkpt>
      <trkpt lat="50.48062" lon="2.42975">
        <ele>126</ele>
        <time>2013-08-24T09:07:36.000Z</time>
      </trkpt>
      <trkpt lat="50.4808" lon="2.42963">
        <ele>126</ele>
        <time>2013-08-24T09:07:39.000Z</time>
      </trkpt>
      <trkpt lat="50.48099" lon="2.42949">
        <ele>127</ele>
        <time>2013-08-24T09:07:42.000Z</time>
      </trkpt>
      <trkpt lat="50.4812" lon="2.42936">
        <ele>126</ele>
        <time>2013-08-24T09:07:45.000Z</time>
      </trkpt>
      <trkpt lat="50.4814" lon="2.42921">
        <ele>125</ele>
        <time>2013-08-24T09:07:49.000Z</time>
      </trkpt>
      <trkpt lat="50.48159" lon="2.42906">
        <ele>125</ele>
        <time>2013-08-24T09:07:51.000Z</time>
      </trkpt>
      <trkpt lat="50.48172" lon="2.42896">
        <ele>124</ele>
        <time>2013-08-24T09:07:54.000Z</time>
      </trkpt>
      <trkpt lat="50.48187" lon="2.42885">
        <ele>124</ele>
        <time>2013-08-24T09:08:00.000Z</time>
      </trkpt>
      <trkpt lat="50.48184" lon="2.4287">
        <ele>118</ele>
        <time>2013-08-24T09:14:12.000Z</time>
      </trkpt>
      <trkpt lat="50.48185" lon="2.42859">
        <ele>118</ele>
        <time>2013-08-24T09:14:15.000Z</time>
      </trkpt>
      <trkpt lat="50.48188" lon="2.4285">
        <ele>118</ele>
        <time>2013-08-24T09:14:18.000Z</time>
      </trkpt>
      <trkpt lat="50.48193" lon="2.42841">
        <ele>119</ele>
        <time>2013-08-24T09:14:21.000Z</time>
      </trkpt>
      <trkpt lat="50.48198" lon="2.42832">
        <ele>119</ele>
        <time>2013-08-24T09:14:24.000Z</time>
      </trkpt>
      <trkpt lat="50.48211" lon="2.42815">
        <ele>119</ele>
        <time>2013-08-24T09:14:27.000Z</time>
      </trkpt>
      <trkpt lat="50.48227" lon="2.42796">
        <ele>120</ele>
        <time>2013-08-24T09:14:33.000Z</time>
      </trkpt>
      <trkpt lat="50.48247" lon="2.42786">
        <ele>120</ele>
        <time>2013-08-24T09:14:39.000Z</time>
      </trkpt>
      <trkpt lat="50.48272" lon="2.42789">
        <ele>120</ele>
        <time>2013-08-24T09:14:45.000Z</time>
      </trkpt>
      <trkpt lat="50.48289" lon="2.42787">
        <ele>120</ele>
        <time>2013-08-24T09:14:48.000Z</time>
      </trkpt>
      <trkpt lat="50.48305" lon="2.42783">
        <ele>120</ele>
        <time>2013-08-24T09:14:51.000Z</time>
      </trkpt>
      <trkpt lat="50.48319" lon="2.42772">
        <ele>120</ele>
        <time>2013-08-24T09:14:56.000Z</time>
      </trkpt>
      <trkpt lat="50.48329" lon="2.42751">
        <ele>120</ele>
        <time>2013-08-24T09:14:58.000Z</time>
      </trkpt>
      <trkpt lat="50.48333" lon="2.42726">
        <ele>121</ele>
        <time>2013-08-24T09:15:00.000Z</time>
      </trkpt>
      <trkpt lat="50.48335" lon="2.427">
        <ele>120</ele>
        <time>2013-08-24T09:15:03.000Z</time>
      </trkpt>
      <trkpt lat="50.48333" lon="2.42678">
        <ele>120</ele>
        <time>2013-08-24T09:15:07.000Z</time>
      </trkpt>
      <trkpt lat="50.48333" lon="2.42642">
        <ele>121</ele>
        <time>2013-08-24T09:15:12.000Z</time>
      </trkpt>
      <trkpt lat="50.48332" lon="2.42613">
        <ele>122</ele>
        <time>2013-08-24T09:15:18.000Z</time>
      </trkpt>
      <trkpt lat="50.48331" lon="2.42585">
        <ele>123</ele>
        <time>2013-08-24T09:15:24.000Z</time>
      </trkpt>
      <trkpt lat="50.4831" lon="2.42546">
        <ele>124</ele>
        <time>2013-08-24T09:15:30.000Z</time>
      </trkpt>
      <trkpt lat="50.48307" lon="2.42507">
        <ele>124</ele>
        <time>2013-08-24T09:15:36.000Z</time>
      </trkpt>
      <trkpt lat="50.48306" lon="2.42474">
        <ele>124</ele>
        <time>2013-08-24T09:15:42.000Z</time>
      </trkpt>
      <trkpt lat="50.48306" lon="2.42439">
        <ele>124</ele>
        <time>2013-08-24T09:15:48.000Z</time>
      </trkpt>
      <trkpt lat="50.48306" lon="2.42402">
        <ele>126</ele>
        <time>2013-08-24T09:15:54.000Z</time>
      </trkpt>
      <trkpt lat="50.48306" lon="2.42382">
        <ele>126</ele>
        <time>2013-08-24T09:15:57.000Z</time>
      </trkpt>
      <trkpt lat="50.48309" lon="2.42347">
        <ele>127</ele>
        <time>2013-08-24T09:16:03.000Z</time>
      </trkpt>
      <trkpt lat="50.48312" lon="2.42314">
        <ele>127</ele>
        <time>2013-08-24T09:16:09.000Z</time>
      </trkpt>
      <trkpt lat="50.48314" lon="2.42282">
        <ele>127</ele>
        <time>2013-08-24T09:16:15.000Z</time>
      </trkpt>
      <trkpt lat="50.48317" lon="2.4225">
        <ele>128</ele>
        <time>2013-08-24T09:16:21.000Z</time>
      </trkpt>
      <trkpt lat="50.48319" lon="2.42217">
        <ele>129</ele>
        <time>2013-08-24T09:16:27.000Z</time>
      </trkpt>
      <trkpt lat="50.48336" lon="2.42202">
        <ele>132</ele>
        <time>2013-08-24T09:16:30.000Z</time>
      </trkpt>
      <trkpt lat="50.48343" lon="2.42169">
        <ele>133</ele>
        <time>2013-08-24T09:16:36.000Z</time>
      </trkpt>
      <trkpt lat="50.48351" lon="2.42134">
        <ele>136</ele>
        <time>2013-08-24T09:16:42.000Z</time>
      </trkpt>
      <trkpt lat="50.48359" lon="2.42101">
        <ele>138</ele>
        <time>2013-08-24T09:16:48.000Z</time>
      </trkpt>
      <trkpt lat="50.48367" lon="2.4207">
        <ele>138</ele>
        <time>2013-08-24T09:16:54.000Z</time>
      </trkpt>
      <trkpt lat="50.4837" lon="2.42032">
        <ele>139</ele>
        <time>2013-08-24T09:17:00.000Z</time>
      </trkpt>
      <trkpt lat="50.48372" lon="2.42012">
        <ele>138</ele>
        <time>2013-08-24T09:17:03.000Z</time>
      </trkpt>
      <trkpt lat="50.48374" lon="2.41991">
        <ele>138</ele>
        <time>2013-08-24T09:17:06.000Z</time>
      </trkpt>
      <trkpt lat="50.48374" lon="2.41968">
        <ele>137</ele>
        <time>2013-08-24T09:17:09.000Z</time>
      </trkpt>
      <trkpt lat="50.48374" lon="2.41945">
        <ele>138</ele>
        <time>2013-08-24T09:17:12.000Z</time>
      </trkpt>
      <trkpt lat="50.48373" lon="2.4192">
        <ele>138</ele>
        <time>2013-08-24T09:17:15.000Z</time>
      </trkpt>
      <trkpt lat="50.48372" lon="2.41894">
        <ele>138</ele>
        <time>2013-08-24T09:17:18.000Z</time>
      </trkpt>
      <trkpt lat="50.48371" lon="2.41863">
        <ele>137</ele>
        <time>2013-08-24T09:17:21.000Z</time>
      </trkpt>
      <trkpt lat="50.48368" lon="2.41826">
        <ele>136</ele>
        <time>2013-08-24T09:17:24.000Z</time>
      </trkpt>
      <trkpt lat="50.48369" lon="2.41788">
        <ele>136</ele>
        <time>2013-08-24T09:17:28.000Z</time>
      </trkpt>
      <trkpt lat="50.48369" lon="2.41746">
        <ele>136</ele>
        <time>2013-08-24T09:17:30.000Z</time>
      </trkpt>
      <trkpt lat="50.48368" lon="2.41704">
        <ele>135</ele>
        <time>2013-08-24T09:17:33.000Z</time>
      </trkpt>
      <trkpt lat="50.48366" lon="2.41662">
        <ele>133</ele>
        <time>2013-08-24T09:17:36.000Z</time>
      </trkpt>
      <trkpt lat="50.48361" lon="2.4162">
        <ele>131</ele>
        <time>2013-08-24T09:17:39.000Z</time>
      </trkpt>
      <trkpt lat="50.48357" lon="2.41579">
        <ele>129</ele>
        <time>2013-08-24T09:17:42.000Z</time>
      </trkpt>
      <trkpt lat="50.48357" lon="2.41542">
        <ele>129</ele>
        <time>2013-08-24T09:17:45.000Z</time>
      </trkpt>
      <trkpt lat="50.4836" lon="2.41509">
        <ele>130</ele>
        <time>2013-08-24T09:17:48.000Z</time>
      </trkpt>
      <trkpt lat="50.48361" lon="2.41485">
        <ele>129</ele>
        <time>2013-08-24T09:17:51.000Z</time>
      </trkpt>
      <trkpt lat="50.48376" lon="2.41461">
        <ele>131</ele>
        <time>2013-08-24T09:18:09.000Z</time>
      </trkpt>
      <trkpt lat="50.48381" lon="2.41402">
        <ele>130</ele>
        <time>2013-08-24T09:18:15.000Z</time>
      </trkpt>
      <trkpt lat="50.48384" lon="2.41363">
        <ele>130</ele>
        <time>2013-08-24T09:18:18.000Z</time>
      </trkpt>
      <trkpt lat="50.48388" lon="2.41326">
        <ele>129</ele>
        <time>2013-08-24T09:18:21.000Z</time>
      </trkpt>
      <trkpt lat="50.48391" lon="2.4129">
        <ele>128</ele>
        <time>2013-08-24T09:18:24.000Z</time>
      </trkpt>
      <trkpt lat="50.48392" lon="2.41255">
        <ele>128</ele>
        <time>2013-08-24T09:18:27.000Z</time>
      </trkpt>
      <trkpt lat="50.48394" lon="2.41226">
        <ele>130</ele>
        <time>2013-08-24T09:18:30.000Z</time>
      </trkpt>
      <trkpt lat="50.48429" lon="2.41219">
        <ele>131</ele>
        <time>2013-08-24T09:18:39.000Z</time>
      </trkpt>
      <trkpt lat="50.48444" lon="2.41223">
        <ele>132</ele>
        <time>2013-08-24T09:18:42.000Z</time>
      </trkpt>
      <trkpt lat="50.48458" lon="2.41228">
        <ele>131</ele>
        <time>2013-08-24T09:18:45.000Z</time>
      </trkpt>
      <trkpt lat="50.4848" lon="2.41234">
        <ele>133</ele>
        <time>2013-08-24T09:18:51.000Z</time>
      </trkpt>
      <trkpt lat="50.48503" lon="2.41241">
        <ele>134</ele>
        <time>2013-08-24T09:18:57.000Z</time>
      </trkpt>
      <trkpt lat="50.48526" lon="2.41245">
        <ele>137</ele>
        <time>2013-08-24T09:19:03.000Z</time>
      </trkpt>
      <trkpt lat="50.48549" lon="2.41254">
        <ele>139</ele>
        <time>2013-08-24T09:19:09.000Z</time>
      </trkpt>
      <trkpt lat="50.4856" lon="2.41258">
        <ele>138</ele>
        <time>2013-08-24T09:19:15.000Z</time>
      </trkpt>
      <trkpt lat="50.48571" lon="2.41261">
        <ele>139</ele>
        <time>2013-08-24T09:19:18.000Z</time>
      </trkpt>
      <trkpt lat="50.48584" lon="2.41263">
        <ele>138</ele>
        <time>2013-08-24T09:19:21.000Z</time>
      </trkpt>
      <trkpt lat="50.48595" lon="2.41261">
        <ele>138</ele>
        <time>2013-08-24T09:19:24.000Z</time>
      </trkpt>
      <trkpt lat="50.48605" lon="2.41255">
        <ele>138</ele>
        <time>2013-08-24T09:19:27.000Z</time>
      </trkpt>
      <trkpt lat="50.48625" lon="2.41247">
        <ele>138</ele>
        <time>2013-08-24T09:19:30.000Z</time>
      </trkpt>
      <trkpt lat="50.48642" lon="2.41241">
        <ele>138</ele>
        <time>2013-08-24T09:19:36.000Z</time>
      </trkpt>
      <trkpt lat="50.4864" lon="2.41189">
        <ele>138</ele>
        <time>2013-08-24T09:19:39.000Z</time>
      </trkpt>
      <trkpt lat="50.48651" lon="2.41159">
        <ele>138</ele>
        <time>2013-08-24T09:19:45.000Z</time>
      </trkpt>
      <trkpt lat="50.4866" lon="2.41133">
        <ele>138</ele>
        <time>2013-08-24T09:19:51.000Z</time>
      </trkpt>
      <trkpt lat="50.48669" lon="2.41105">
        <ele>139</ele>
        <time>2013-08-24T09:19:57.000Z</time>
      </trkpt>
      <trkpt lat="50.48679" lon="2.4108">
        <ele>139</ele>
        <time>2013-08-24T09:20:03.000Z</time>
      </trkpt>
      <trkpt lat="50.48688" lon="2.41054">
        <ele>140</ele>
        <time>2013-08-24T09:20:09.000Z</time>
      </trkpt>
      <trkpt lat="50.48695" lon="2.41034">
        <ele>141</ele>
        <time>2013-08-24T09:20:15.000Z</time>
      </trkpt>
      <trkpt lat="50.48711" lon="2.41035">
        <ele>141</ele>
        <time>2013-08-24T09:20:18.000Z</time>
      </trkpt>
      <trkpt lat="50.48729" lon="2.41024">
        <ele>141</ele>
        <time>2013-08-24T09:20:24.000Z</time>
      </trkpt>
      <trkpt lat="50.48749" lon="2.41018">
        <ele>142</ele>
        <time>2013-08-24T09:20:30.000Z</time>
      </trkpt>
      <trkpt lat="50.48766" lon="2.41013">
        <ele>142</ele>
        <time>2013-08-24T09:20:36.000Z</time>
      </trkpt>
      <trkpt lat="50.48783" lon="2.41008">
        <ele>143</ele>
        <time>2013-08-24T09:20:42.000Z</time>
      </trkpt>
      <trkpt lat="50.48802" lon="2.41004">
        <ele>144</ele>
        <time>2013-08-24T09:20:48.000Z</time>
      </trkpt>
      <trkpt lat="50.48817" lon="2.41">
        <ele>145</ele>
        <time>2013-08-24T09:20:54.000Z</time>
      </trkpt>
      <trkpt lat="50.48833" lon="2.40995">
        <ele>146</ele>
        <time>2013-08-24T09:21:00.000Z</time>
      </trkpt>
      <trkpt lat="50.48854" lon="2.40989">
        <ele>147</ele>
        <time>2013-08-24T09:21:06.000Z</time>
      </trkpt>
      <trkpt lat="50.48876" lon="2.40981">
        <ele>149</ele>
        <time>2013-08-24T09:21:12.000Z</time>
      </trkpt>
      <trkpt lat="50.48899" lon="2.40974">
        <ele>152</ele>
        <time>2013-08-24T09:21:18.000Z</time>
      </trkpt>
      <trkpt lat="50.48924" lon="2.40967">
        <ele>153</ele>
        <time>2013-08-24T09:21:24.000Z</time>
      </trkpt>
      <trkpt lat="50.48937" lon="2.40963">
        <ele>153</ele>
        <time>2013-08-24T09:21:27.000Z</time>
      </trkpt>
      <trkpt lat="50.48951" lon="2.40959">
        <ele>153</ele>
        <time>2013-08-24T09:21:30.000Z</time>
      </trkpt>
      <trkpt lat="50.48965" lon="2.40954">
        <ele>154</ele>
        <time>2013-08-24T09:21:33.000Z</time>
      </trkpt>
      <trkpt lat="50.4898" lon="2.4095">
        <ele>154</ele>
        <time>2013-08-24T09:21:36.000Z</time>
      </trkpt>
      <trkpt lat="50.48995" lon="2.40945">
        <ele>154</ele>
        <time>2013-08-24T09:21:39.000Z</time>
      </trkpt>
      <trkpt lat="50.49011" lon="2.40941">
        <ele>154</ele>
        <time>2013-08-24T09:21:42.000Z</time>
      </trkpt>
      <trkpt lat="50.49026" lon="2.40937">
        <ele>154</ele>
        <time>2013-08-24T09:21:45.000Z</time>
      </trkpt>
      <trkpt lat="50.49041" lon="2.40932">
        <ele>154</ele>
        <time>2013-08-24T09:21:48.000Z</time>
      </trkpt>
      <trkpt lat="50.49055" lon="2.40928">
        <ele>154</ele>
        <time>2013-08-24T09:21:51.000Z</time>
      </trkpt>
      <trkpt lat="50.4907" lon="2.40924">
        <ele>155</ele>
        <time>2013-08-24T09:21:54.000Z</time>
      </trkpt>
      <trkpt lat="50.49085" lon="2.40916">
        <ele>154</ele>
        <time>2013-08-24T09:21:57.000Z</time>
      </trkpt>
      <trkpt lat="50.49099" lon="2.40912">
        <ele>155</ele>
        <time>2013-08-24T09:22:00.000Z</time>
      </trkpt>
      <trkpt lat="50.49112" lon="2.40907">
        <ele>155</ele>
        <time>2013-08-24T09:22:03.000Z</time>
      </trkpt>
      <trkpt lat="50.49135" lon="2.40901">
        <ele>156</ele>
        <time>2013-08-24T09:22:09.000Z</time>
      </trkpt>
      <trkpt lat="50.49155" lon="2.40898">
        <ele>157</ele>
        <time>2013-08-24T09:22:15.000Z</time>
      </trkpt>
      <trkpt lat="50.49174" lon="2.40899">
        <ele>157</ele>
        <time>2013-08-24T09:22:21.000Z</time>
      </trkpt>
      <trkpt lat="50.49192" lon="2.40901">
        <ele>158</ele>
        <time>2013-08-24T09:22:27.000Z</time>
      </trkpt>
      <trkpt lat="50.4921" lon="2.40902">
        <ele>159</ele>
        <time>2013-08-24T09:22:33.000Z</time>
      </trkpt>
      <trkpt lat="50.49225" lon="2.40903">
        <ele>160</ele>
        <time>2013-08-24T09:22:39.000Z</time>
      </trkpt>
      <trkpt lat="50.4924" lon="2.40906">
        <ele>161</ele>
        <time>2013-08-24T09:22:45.000Z</time>
      </trkpt>
      <trkpt lat="50.49255" lon="2.40909">
        <ele>162</ele>
        <time>2013-08-24T09:22:51.000Z</time>
      </trkpt>
      <trkpt lat="50.49271" lon="2.40907">
        <ele>163</ele>
        <time>2013-08-24T09:22:57.000Z</time>
      </trkpt>
      <trkpt lat="50.49285" lon="2.40908">
        <ele>164</ele>
        <time>2013-08-24T09:23:03.000Z</time>
      </trkpt>
      <trkpt lat="50.49299" lon="2.40908">
        <ele>166</ele>
        <time>2013-08-24T09:23:09.000Z</time>
      </trkpt>
      <trkpt lat="50.49306" lon="2.40908">
        <ele>167</ele>
        <time>2013-08-24T09:23:15.000Z</time>
      </trkpt>
      <trkpt lat="50.49314" lon="2.40908">
        <ele>167</ele>
        <time>2013-08-24T09:23:18.000Z</time>
      </trkpt>
      <trkpt lat="50.4932" lon="2.40909">
        <ele>167</ele>
        <time>2013-08-24T09:23:21.000Z</time>
      </trkpt>
      <trkpt lat="50.49329" lon="2.40909">
        <ele>168</ele>
        <time>2013-08-24T09:23:27.000Z</time>
      </trkpt>
      <trkpt lat="50.49336" lon="2.40909">
        <ele>169</ele>
        <time>2013-08-24T09:23:30.000Z</time>
      </trkpt>
      <trkpt lat="50.49345" lon="2.4091">
        <ele>170</ele>
        <time>2013-08-24T09:23:36.000Z</time>
      </trkpt>
      <trkpt lat="50.49353" lon="2.40892">
        <ele>170</ele>
        <time>2013-08-24T09:23:39.000Z</time>
      </trkpt>
      <trkpt lat="50.4936" lon="2.40881">
        <ele>171</ele>
        <time>2013-08-24T09:23:42.000Z</time>
      </trkpt>
      <trkpt lat="50.49365" lon="2.40871">
        <ele>171</ele>
        <time>2013-08-24T09:23:45.000Z</time>
      </trkpt>
      <trkpt lat="50.49371" lon="2.40863">
        <ele>172</ele>
        <time>2013-08-24T09:23:48.000Z</time>
      </trkpt>
      <trkpt lat="50.49381" lon="2.40847">
        <ele>173</ele>
        <time>2013-08-24T09:23:51.000Z</time>
      </trkpt>
      <trkpt lat="50.49392" lon="2.40832">
        <ele>174</ele>
        <time>2013-08-24T09:23:59.000Z</time>
      </trkpt>
      <trkpt lat="50.49402" lon="2.40816">
        <ele>175</ele>
        <time>2013-08-24T09:24:03.000Z</time>
      </trkpt>
      <trkpt lat="50.49415" lon="2.40801">
        <ele>176</ele>
        <time>2013-08-24T09:24:09.000Z</time>
      </trkpt>
      <trkpt lat="50.49433" lon="2.40789">
        <ele>178</ele>
        <time>2013-08-24T09:24:15.000Z</time>
      </trkpt>
      <trkpt lat="50.49446" lon="2.40782">
        <ele>182</ele>
        <time>2013-08-24T09:24:18.000Z</time>
      </trkpt>
      <trkpt lat="50.49461" lon="2.40777">
        <ele>183</ele>
        <time>2013-08-24T09:24:21.000Z</time>
      </trkpt>
      <trkpt lat="50.49476" lon="2.4077">
        <ele>184</ele>
        <time>2013-08-24T09:24:24.000Z</time>
      </trkpt>
      <trkpt lat="50.49491" lon="2.40761">
        <ele>183</ele>
        <time>2013-08-24T09:24:27.000Z</time>
      </trkpt>
      <trkpt lat="50.49507" lon="2.40753">
        <ele>182</ele>
        <time>2013-08-24T09:24:30.000Z</time>
      </trkpt>
      <trkpt lat="50.49524" lon="2.40747">
        <ele>181</ele>
        <time>2013-08-24T09:24:33.000Z</time>
      </trkpt>
      <trkpt lat="50.49541" lon="2.40738">
        <ele>181</ele>
        <time>2013-08-24T09:24:36.000Z</time>
      </trkpt>
      <trkpt lat="50.49558" lon="2.40729">
        <ele>181</ele>
        <time>2013-08-24T09:24:39.000Z</time>
      </trkpt>
      <trkpt lat="50.49577" lon="2.4072">
        <ele>181</ele>
        <time>2013-08-24T09:24:42.000Z</time>
      </trkpt>
      <trkpt lat="50.49595" lon="2.40711">
        <ele>181</ele>
        <time>2013-08-24T09:24:45.000Z</time>
      </trkpt>
      <trkpt lat="50.49613" lon="2.40701">
        <ele>181</ele>
        <time>2013-08-24T09:24:48.000Z</time>
      </trkpt>
      <trkpt lat="50.4963" lon="2.40688">
        <ele>181</ele>
        <time>2013-08-24T09:24:51.000Z</time>
      </trkpt>
      <trkpt lat="50.49645" lon="2.40669">
        <ele>181</ele>
        <time>2013-08-24T09:24:54.000Z</time>
      </trkpt>
      <trkpt lat="50.49659" lon="2.40647">
        <ele>181</ele>
        <time>2013-08-24T09:24:57.000Z</time>
      </trkpt>
      <trkpt lat="50.49673" lon="2.40624">
        <ele>181</ele>
        <time>2013-08-24T09:25:00.000Z</time>
      </trkpt>
      <trkpt lat="50.49687" lon="2.40603">
        <ele>181</ele>
        <time>2013-08-24T09:25:03.000Z</time>
      </trkpt>
      <trkpt lat="50.49702" lon="2.40584">
        <ele>181</ele>
        <time>2013-08-24T09:25:06.000Z</time>
      </trkpt>
      <trkpt lat="50.49718" lon="2.40569">
        <ele>181</ele>
        <time>2013-08-24T09:25:09.000Z</time>
      </trkpt>
      <trkpt lat="50.49733" lon="2.40555">
        <ele>182</ele>
        <time>2013-08-24T09:25:12.000Z</time>
      </trkpt>
      <trkpt lat="50.49749" lon="2.40541">
        <ele>182</ele>
        <time>2013-08-24T09:25:15.000Z</time>
      </trkpt>
      <trkpt lat="50.49764" lon="2.40528">
        <ele>183</ele>
        <time>2013-08-24T09:25:18.000Z</time>
      </trkpt>
      <trkpt lat="50.49779" lon="2.40515">
        <ele>183</ele>
        <time>2013-08-24T09:25:21.000Z</time>
      </trkpt>
      <trkpt lat="50.49794" lon="2.40501">
        <ele>183</ele>
        <time>2013-08-24T09:25:24.000Z</time>
      </trkpt>
      <trkpt lat="50.49808" lon="2.40488">
        <ele>183</ele>
        <time>2013-08-24T09:25:27.000Z</time>
      </trkpt>
      <trkpt lat="50.49823" lon="2.40475">
        <ele>183</ele>
        <time>2013-08-24T09:25:30.000Z</time>
      </trkpt>
      <trkpt lat="50.49837" lon="2.40462">
        <ele>184</ele>
        <time>2013-08-24T09:25:33.000Z</time>
      </trkpt>
      <trkpt lat="50.49853" lon="2.40449">
        <ele>184</ele>
        <time>2013-08-24T09:25:36.000Z</time>
      </trkpt>
      <trkpt lat="50.4987" lon="2.40435">
        <ele>184</ele>
        <time>2013-08-24T09:25:39.000Z</time>
      </trkpt>
      <trkpt lat="50.49888" lon="2.40421">
        <ele>184</ele>
        <time>2013-08-24T09:25:42.000Z</time>
      </trkpt>
      <trkpt lat="50.49907" lon="2.40406">
        <ele>183</ele>
        <time>2013-08-24T09:25:45.000Z</time>
      </trkpt>
      <trkpt lat="50.49926" lon="2.40389">
        <ele>183</ele>
        <time>2013-08-24T09:25:48.000Z</time>
      </trkpt>
      <trkpt lat="50.49944" lon="2.4037">
        <ele>182</ele>
        <time>2013-08-24T09:25:51.000Z</time>
      </trkpt>
      <trkpt lat="50.4996" lon="2.40346">
        <ele>182</ele>
        <time>2013-08-24T09:25:54.000Z</time>
      </trkpt>
      <trkpt lat="50.49975" lon="2.40317">
        <ele>181</ele>
        <time>2013-08-24T09:25:58.000Z</time>
      </trkpt>
      <trkpt lat="50.4999" lon="2.40287">
        <ele>180</ele>
        <time>2013-08-24T09:26:00.000Z</time>
      </trkpt>
      <trkpt lat="50.50005" lon="2.40256">
        <ele>179</ele>
        <time>2013-08-24T09:26:03.000Z</time>
      </trkpt>
      <trkpt lat="50.50019" lon="2.40228">
        <ele>178</ele>
        <time>2013-08-24T09:26:06.000Z</time>
      </trkpt>
      <trkpt lat="50.50032" lon="2.40201">
        <ele>178</ele>
        <time>2013-08-24T09:26:09.000Z</time>
      </trkpt>
      <trkpt lat="50.50045" lon="2.40175">
        <ele>178</ele>
        <time>2013-08-24T09:26:12.000Z</time>
      </trkpt>
      <trkpt lat="50.50058" lon="2.40151">
        <ele>179</ele>
        <time>2013-08-24T09:26:15.000Z</time>
      </trkpt>
      <trkpt lat="50.50069" lon="2.40127">
        <ele>180</ele>
        <time>2013-08-24T09:26:18.000Z</time>
      </trkpt>
      <trkpt lat="50.5008" lon="2.40105">
        <ele>180</ele>
        <time>2013-08-24T09:26:21.000Z</time>
      </trkpt>
      <trkpt lat="50.5009" lon="2.40086">
        <ele>180</ele>
        <time>2013-08-24T09:26:24.000Z</time>
      </trkpt>
      <trkpt lat="50.50098" lon="2.40069">
        <ele>181</ele>
        <time>2013-08-24T09:26:27.000Z</time>
      </trkpt>
      <trkpt lat="50.50106" lon="2.40052">
        <ele>181</ele>
        <time>2013-08-24T09:26:30.000Z</time>
      </trkpt>
      <trkpt lat="50.50121" lon="2.40023">
        <ele>183</ele>
        <time>2013-08-24T09:26:36.000Z</time>
      </trkpt>
      <trkpt lat="50.50133" lon="2.39998">
        <ele>183</ele>
        <time>2013-08-24T09:26:42.000Z</time>
      </trkpt>
      <trkpt lat="50.50161" lon="2.39991">
        <ele>183</ele>
        <time>2013-08-24T09:26:48.000Z</time>
      </trkpt>
      <trkpt lat="50.50181" lon="2.39974">
        <ele>183</ele>
        <time>2013-08-24T09:26:54.000Z</time>
      </trkpt>
      <trkpt lat="50.50202" lon="2.39959">
        <ele>184</ele>
        <time>2013-08-24T09:27:00.000Z</time>
      </trkpt>
      <trkpt lat="50.50225" lon="2.39941">
        <ele>183</ele>
        <time>2013-08-24T09:27:06.000Z</time>
      </trkpt>
      <trkpt lat="50.50237" lon="2.39931">
        <ele>183</ele>
        <time>2013-08-24T09:27:09.000Z</time>
      </trkpt>
      <trkpt lat="50.50251" lon="2.3992">
        <ele>183</ele>
        <time>2013-08-24T09:27:12.000Z</time>
      </trkpt>
      <trkpt lat="50.50266" lon="2.39909">
        <ele>182</ele>
        <time>2013-08-24T09:27:15.000Z</time>
      </trkpt>
      <trkpt lat="50.5028" lon="2.39898">
        <ele>181</ele>
        <time>2013-08-24T09:27:18.000Z</time>
      </trkpt>
      <trkpt lat="50.50295" lon="2.39887">
        <ele>181</ele>
        <time>2013-08-24T09:27:21.000Z</time>
      </trkpt>
      <trkpt lat="50.5031" lon="2.39875">
        <ele>180</ele>
        <time>2013-08-24T09:27:25.000Z</time>
      </trkpt>
      <trkpt lat="50.50326" lon="2.39863">
        <ele>178</ele>
        <time>2013-08-24T09:27:27.000Z</time>
      </trkpt>
      <trkpt lat="50.5034" lon="2.39853">
        <ele>179</ele>
        <time>2013-08-24T09:27:30.000Z</time>
      </trkpt>
      <trkpt lat="50.50354" lon="2.39842">
        <ele>181</ele>
        <time>2013-08-24T09:27:33.000Z</time>
      </trkpt>
      <trkpt lat="50.50368" lon="2.39832">
        <ele>183</ele>
        <time>2013-08-24T09:27:36.000Z</time>
      </trkpt>
      <trkpt lat="50.50382" lon="2.39822">
        <ele>182</ele>
        <time>2013-08-24T09:27:39.000Z</time>
      </trkpt>
      <trkpt lat="50.50396" lon="2.39811">
        <ele>182</ele>
        <time>2013-08-24T09:27:42.000Z</time>
      </trkpt>
      <trkpt lat="50.50409" lon="2.39797">
        <ele>182</ele>
        <time>2013-08-24T09:27:45.000Z</time>
      </trkpt>
      <trkpt lat="50.50422" lon="2.39785">
        <ele>182</ele>
        <time>2013-08-24T09:27:48.000Z</time>
      </trkpt>
      <trkpt lat="50.50434" lon="2.39773">
        <ele>183</ele>
        <time>2013-08-24T09:27:51.000Z</time>
      </trkpt>
      <trkpt lat="50.50447" lon="2.39761">
        <ele>183</ele>
        <time>2013-08-24T09:27:54.000Z</time>
      </trkpt>
      <trkpt lat="50.50458" lon="2.39751">
        <ele>183</ele>
        <time>2013-08-24T09:27:57.000Z</time>
      </trkpt>
      <trkpt lat="50.50477" lon="2.39733">
        <ele>182</ele>
        <time>2013-08-24T09:28:03.000Z</time>
      </trkpt>
      <trkpt lat="50.5046" lon="2.3968">
        <ele>182</ele>
        <time>2013-08-24T09:28:51.000Z</time>
      </trkpt>
      <trkpt lat="50.5045" lon="2.39663">
        <ele>183</ele>
        <time>2013-08-24T09:28:57.000Z</time>
      </trkpt>
      <trkpt lat="50.50437" lon="2.39636">
        <ele>183</ele>
        <time>2013-08-24T09:29:03.000Z</time>
      </trkpt>
      <trkpt lat="50.50424" lon="2.39605">
        <ele>183</ele>
        <time>2013-08-24T09:29:09.000Z</time>
      </trkpt>
      <trkpt lat="50.50427" lon="2.39572">
        <ele>184</ele>
        <time>2013-08-24T09:29:15.000Z</time>
      </trkpt>
      <trkpt lat="50.50436" lon="2.39553">
        <ele>184</ele>
        <time>2013-08-24T09:29:18.000Z</time>
      </trkpt>
      <trkpt lat="50.50448" lon="2.39537">
        <ele>183</ele>
        <time>2013-08-24T09:29:21.000Z</time>
      </trkpt>
      <trkpt lat="50.50462" lon="2.39526">
        <ele>182</ele>
        <time>2013-08-24T09:29:24.000Z</time>
      </trkpt>
      <trkpt lat="50.50476" lon="2.39517">
        <ele>182</ele>
        <time>2013-08-24T09:29:27.000Z</time>
      </trkpt>
      <trkpt lat="50.50494" lon="2.39506">
        <ele>181</ele>
        <time>2013-08-24T09:29:30.000Z</time>
      </trkpt>
      <trkpt lat="50.50516" lon="2.3949">
        <ele>180</ele>
        <time>2013-08-24T09:29:33.000Z</time>
      </trkpt>
      <trkpt lat="50.50537" lon="2.39468">
        <ele>179</ele>
        <time>2013-08-24T09:29:36.000Z</time>
      </trkpt>
      <trkpt lat="50.50562" lon="2.39441">
        <ele>178</ele>
        <time>2013-08-24T09:29:39.000Z</time>
      </trkpt>
      <trkpt lat="50.50587" lon="2.39418">
        <ele>176</ele>
        <time>2013-08-24T09:29:42.000Z</time>
      </trkpt>
      <trkpt lat="50.50618" lon="2.39402">
        <ele>176</ele>
        <time>2013-08-24T09:29:45.000Z</time>
      </trkpt>
      <trkpt lat="50.50644" lon="2.39391">
        <ele>176</ele>
        <time>2013-08-24T09:29:48.000Z</time>
      </trkpt>
      <trkpt lat="50.50663" lon="2.39384">
        <ele>175</ele>
        <time>2013-08-24T09:29:51.000Z</time>
      </trkpt>
      <trkpt lat="50.50676" lon="2.39379">
        <ele>174</ele>
        <time>2013-08-24T09:29:54.000Z</time>
      </trkpt>
      <trkpt lat="50.50687" lon="2.39363">
        <ele>172</ele>
        <time>2013-08-24T09:29:57.000Z</time>
      </trkpt>
      <trkpt lat="50.50694" lon="2.39333">
        <ele>170</ele>
        <time>2013-08-24T09:30:00.000Z</time>
      </trkpt>
      <trkpt lat="50.50696" lon="2.39295">
        <ele>167</ele>
        <time>2013-08-24T09:30:03.000Z</time>
      </trkpt>
      <trkpt lat="50.50698" lon="2.39251">
        <ele>166</ele>
        <time>2013-08-24T09:30:06.000Z</time>
      </trkpt>
      <trkpt lat="50.507" lon="2.39208">
        <ele>165</ele>
        <time>2013-08-24T09:30:09.000Z</time>
      </trkpt>
      <trkpt lat="50.50692" lon="2.39171">
        <ele>164</ele>
        <time>2013-08-24T09:30:12.000Z</time>
      </trkpt>
      <trkpt lat="50.50679" lon="2.39139">
        <ele>163</ele>
        <time>2013-08-24T09:30:15.000Z</time>
      </trkpt>
      <trkpt lat="50.50665" lon="2.3911">
        <ele>161</ele>
        <time>2013-08-24T09:30:18.000Z</time>
      </trkpt>
      <trkpt lat="50.50652" lon="2.39084">
        <ele>160</ele>
        <time>2013-08-24T09:30:21.000Z</time>
      </trkpt>
      <trkpt lat="50.5064" lon="2.3906">
        <ele>160</ele>
        <time>2013-08-24T09:30:24.000Z</time>
      </trkpt>
      <trkpt lat="50.50633" lon="2.39035">
        <ele>161</ele>
        <time>2013-08-24T09:30:27.000Z</time>
      </trkpt>
      <trkpt lat="50.5063" lon="2.39009">
        <ele>162</ele>
        <time>2013-08-24T09:30:30.000Z</time>
      </trkpt>
      <trkpt lat="50.50625" lon="2.38986">
        <ele>163</ele>
        <time>2013-08-24T09:30:33.000Z</time>
      </trkpt>
      <trkpt lat="50.50621" lon="2.38965">
        <ele>163</ele>
        <time>2013-08-24T09:30:36.000Z</time>
      </trkpt>
      <trkpt lat="50.50616" lon="2.38943">
        <ele>163</ele>
        <time>2013-08-24T09:30:39.000Z</time>
      </trkpt>
      <trkpt lat="50.50632" lon="2.38916">
        <ele>163</ele>
        <time>2013-08-24T09:30:42.000Z</time>
      </trkpt>
      <trkpt lat="50.50638" lon="2.38893">
        <ele>162</ele>
        <time>2013-08-24T09:30:45.000Z</time>
      </trkpt>
      <trkpt lat="50.50643" lon="2.38867">
        <ele>162</ele>
        <time>2013-08-24T09:30:48.000Z</time>
      </trkpt>
      <trkpt lat="50.50647" lon="2.38842">
        <ele>162</ele>
        <time>2013-08-24T09:30:51.000Z</time>
      </trkpt>
      <trkpt lat="50.5065" lon="2.38822">
        <ele>161</ele>
        <time>2013-08-24T09:30:54.000Z</time>
      </trkpt>
      <trkpt lat="50.50678" lon="2.38806">
        <ele>162</ele>
        <time>2013-08-24T09:31:00.000Z</time>
      </trkpt>
      <trkpt lat="50.50699" lon="2.38803">
        <ele>162</ele>
        <time>2013-08-24T09:31:03.000Z</time>
      </trkpt>
      <trkpt lat="50.50722" lon="2.38806">
        <ele>162</ele>
        <time>2013-08-24T09:31:06.000Z</time>
      </trkpt>
      <trkpt lat="50.50746" lon="2.38807">
        <ele>159</ele>
        <time>2013-08-24T09:31:09.000Z</time>
      </trkpt>
      <trkpt lat="50.5077" lon="2.38804">
        <ele>157</ele>
        <time>2013-08-24T09:31:12.000Z</time>
      </trkpt>
      <trkpt lat="50.50793" lon="2.38802">
        <ele>157</ele>
        <time>2013-08-24T09:31:15.000Z</time>
      </trkpt>
      <trkpt lat="50.50816" lon="2.388">
        <ele>156</ele>
        <time>2013-08-24T09:31:18.000Z</time>
      </trkpt>
      <trkpt lat="50.50838" lon="2.38802">
        <ele>156</ele>
        <time>2013-08-24T09:31:21.000Z</time>
      </trkpt>
      <trkpt lat="50.50856" lon="2.38806">
        <ele>155</ele>
        <time>2013-08-24T09:31:24.000Z</time>
      </trkpt>
      <trkpt lat="50.50875" lon="2.38808">
        <ele>154</ele>
        <time>2013-08-24T09:31:27.000Z</time>
      </trkpt>
      <trkpt lat="50.50894" lon="2.38808">
        <ele>153</ele>
        <time>2013-08-24T09:31:30.000Z</time>
      </trkpt>
      <trkpt lat="50.50913" lon="2.38806">
        <ele>153</ele>
        <time>2013-08-24T09:31:33.000Z</time>
      </trkpt>
      <trkpt lat="50.50932" lon="2.38801">
        <ele>153</ele>
        <time>2013-08-24T09:31:36.000Z</time>
      </trkpt>
      <trkpt lat="50.50951" lon="2.38796">
        <ele>153</ele>
        <time>2013-08-24T09:31:39.000Z</time>
      </trkpt>
      <trkpt lat="50.50972" lon="2.38791">
        <ele>153</ele>
        <time>2013-08-24T09:31:42.000Z</time>
      </trkpt>
      <trkpt lat="50.50992" lon="2.38789">
        <ele>152</ele>
        <time>2013-08-24T09:31:45.000Z</time>
      </trkpt>
      <trkpt lat="50.51011" lon="2.38783">
        <ele>153</ele>
        <time>2013-08-24T09:31:48.000Z</time>
      </trkpt>
      <trkpt lat="50.51022" lon="2.38759">
        <ele>152</ele>
        <time>2013-08-24T09:31:51.000Z</time>
      </trkpt>
      <trkpt lat="50.51027" lon="2.38729">
        <ele>151</ele>
        <time>2013-08-24T09:31:54.000Z</time>
      </trkpt>
      <trkpt lat="50.51034" lon="2.38701">
        <ele>150</ele>
        <time>2013-08-24T09:31:57.000Z</time>
      </trkpt>
      <trkpt lat="50.51043" lon="2.38674">
        <ele>151</ele>
        <time>2013-08-24T09:32:00.000Z</time>
      </trkpt>
      <trkpt lat="50.51054" lon="2.38649">
        <ele>150</ele>
        <time>2013-08-24T09:32:03.000Z</time>
      </trkpt>
      <trkpt lat="50.51065" lon="2.38623">
        <ele>148</ele>
        <time>2013-08-24T09:32:06.000Z</time>
      </trkpt>
      <trkpt lat="50.51077" lon="2.38601">
        <ele>149</ele>
        <time>2013-08-24T09:32:09.000Z</time>
      </trkpt>
      <trkpt lat="50.51089" lon="2.3858">
        <ele>152</ele>
        <time>2013-08-24T09:32:12.000Z</time>
      </trkpt>
      <trkpt lat="50.51103" lon="2.38557">
        <ele>154</ele>
        <time>2013-08-24T09:32:15.000Z</time>
      </trkpt>
      <trkpt lat="50.51115" lon="2.38534">
        <ele>155</ele>
        <time>2013-08-24T09:32:18.000Z</time>
      </trkpt>
      <trkpt lat="50.51125" lon="2.38506">
        <ele>155</ele>
        <time>2013-08-24T09:32:21.000Z</time>
      </trkpt>
      <trkpt lat="50.51133" lon="2.38475">
        <ele>155</ele>
        <time>2013-08-24T09:32:24.000Z</time>
      </trkpt>
      <trkpt lat="50.51139" lon="2.38446">
        <ele>154</ele>
        <time>2013-08-24T09:32:28.000Z</time>
      </trkpt>
      <trkpt lat="50.51147" lon="2.38419">
        <ele>155</ele>
        <time>2013-08-24T09:32:30.000Z</time>
      </trkpt>
      <trkpt lat="50.51155" lon="2.38395">
        <ele>154</ele>
        <time>2013-08-24T09:32:33.000Z</time>
      </trkpt>
      <trkpt lat="50.51162" lon="2.38373">
        <ele>153</ele>
        <time>2013-08-24T09:32:36.000Z</time>
      </trkpt>
      <trkpt lat="50.51168" lon="2.38352">
        <ele>153</ele>
        <time>2013-08-24T09:32:39.000Z</time>
      </trkpt>
      <trkpt lat="50.51175" lon="2.38331">
        <ele>154</ele>
        <time>2013-08-24T09:32:42.000Z</time>
      </trkpt>
      <trkpt lat="50.51181" lon="2.3831">
        <ele>155</ele>
        <time>2013-08-24T09:32:45.000Z</time>
      </trkpt>
      <trkpt lat="50.51188" lon="2.38288">
        <ele>156</ele>
        <time>2013-08-24T09:32:48.000Z</time>
      </trkpt>
      <trkpt lat="50.51194" lon="2.38266">
        <ele>157</ele>
        <time>2013-08-24T09:32:51.000Z</time>
      </trkpt>
      <trkpt lat="50.51212" lon="2.38254">
        <ele>157</ele>
        <time>2013-08-24T09:32:54.000Z</time>
      </trkpt>
      <trkpt lat="50.51224" lon="2.38228">
        <ele>158</ele>
        <time>2013-08-24T09:32:59.000Z</time>
      </trkpt>
      <trkpt lat="50.51233" lon="2.38208">
        <ele>159</ele>
        <time>2013-08-24T09:33:01.000Z</time>
      </trkpt>
      <trkpt lat="50.51241" lon="2.38189">
        <ele>160</ele>
        <time>2013-08-24T09:33:04.000Z</time>
      </trkpt>
      <trkpt lat="50.51249" lon="2.38172">
        <ele>160</ele>
        <time>2013-08-24T09:33:07.000Z</time>
      </trkpt>
      <trkpt lat="50.51256" lon="2.38155">
        <ele>160</ele>
        <time>2013-08-24T09:33:10.000Z</time>
      </trkpt>
      <trkpt lat="50.51266" lon="2.38132">
        <ele>161</ele>
        <time>2013-08-24T09:33:16.000Z</time>
      </trkpt>
      <trkpt lat="50.51326" lon="2.3818">
        <ele>161</ele>
        <time>2013-08-24T09:33:37.000Z</time>
      </trkpt>
      <trkpt lat="50.5134" lon="2.38185">
        <ele>161</ele>
        <time>2013-08-24T09:33:44.000Z</time>
      </trkpt>
      <trkpt lat="50.51355" lon="2.38185">
        <ele>162</ele>
        <time>2013-08-24T09:33:49.000Z</time>
      </trkpt>
      <trkpt lat="50.51362" lon="2.38179">
        <ele>163</ele>
        <time>2013-08-24T09:33:55.000Z</time>
      </trkpt>
      <trkpt lat="50.51369" lon="2.38172">
        <ele>163</ele>
        <time>2013-08-24T09:33:59.000Z</time>
      </trkpt>
      <trkpt lat="50.51376" lon="2.38166">
        <ele>164</ele>
        <time>2013-08-24T09:34:01.000Z</time>
      </trkpt>
      <trkpt lat="50.5138" lon="2.38154">
        <ele>164</ele>
        <time>2013-08-24T09:34:04.000Z</time>
      </trkpt>
      <trkpt lat="50.51385" lon="2.38141">
        <ele>165</ele>
        <time>2013-08-24T09:34:07.000Z</time>
      </trkpt>
      <trkpt lat="50.51395" lon="2.38117">
        <ele>165</ele>
        <time>2013-08-24T09:34:10.000Z</time>
      </trkpt>
      <trkpt lat="50.51406" lon="2.38091">
        <ele>165</ele>
        <time>2013-08-24T09:34:16.000Z</time>
      </trkpt>
      <trkpt lat="50.51419" lon="2.38063">
        <ele>166</ele>
        <time>2013-08-24T09:34:23.000Z</time>
      </trkpt>
      <trkpt lat="50.51434" lon="2.38034">
        <ele>167</ele>
        <time>2013-08-24T09:34:28.000Z</time>
      </trkpt>
      <trkpt lat="50.51446" lon="2.38009">
        <ele>168</ele>
        <time>2013-08-24T09:34:34.000Z</time>
      </trkpt>
      <trkpt lat="50.51459" lon="2.37982">
        <ele>169</ele>
        <time>2013-08-24T09:34:40.000Z</time>
      </trkpt>
      <trkpt lat="50.51472" lon="2.37954">
        <ele>169</ele>
        <time>2013-08-24T09:34:46.000Z</time>
      </trkpt>
      <trkpt lat="50.51485" lon="2.3793">
        <ele>170</ele>
        <time>2013-08-24T09:34:52.000Z</time>
      </trkpt>
      <trkpt lat="50.51505" lon="2.37894">
        <ele>170</ele>
        <time>2013-08-24T09:35:01.000Z</time>
      </trkpt>
      <trkpt lat="50.51514" lon="2.37871">
        <ele>171</ele>
        <time>2013-08-24T09:35:07.000Z</time>
      </trkpt>
      <trkpt lat="50.51524" lon="2.37841">
        <ele>172</ele>
        <time>2013-08-24T09:35:13.000Z</time>
      </trkpt>
      <trkpt lat="50.51534" lon="2.37816">
        <ele>172</ele>
        <time>2013-08-24T09:35:19.000Z</time>
      </trkpt>
      <trkpt lat="50.5154" lon="2.37785">
        <ele>173</ele>
        <time>2013-08-24T09:35:25.000Z</time>
      </trkpt>
      <trkpt lat="50.51543" lon="2.37761">
        <ele>173</ele>
        <time>2013-08-24T09:35:31.000Z</time>
      </trkpt>
      <trkpt lat="50.51548" lon="2.37733">
        <ele>174</ele>
        <time>2013-08-24T09:35:37.000Z</time>
      </trkpt>
      <trkpt lat="50.51554" lon="2.37708">
        <ele>175</ele>
        <time>2013-08-24T09:35:43.000Z</time>
      </trkpt>
      <trkpt lat="50.5156" lon="2.37685">
        <ele>175</ele>
        <time>2013-08-24T09:35:49.000Z</time>
      </trkpt>
      <trkpt lat="50.51572" lon="2.37664">
        <ele>177</ele>
        <time>2013-08-24T09:35:55.000Z</time>
      </trkpt>
      <trkpt lat="50.51581" lon="2.3764">
        <ele>178</ele>
        <time>2013-08-24T09:36:01.000Z</time>
      </trkpt>
      <trkpt lat="50.51588" lon="2.37617">
        <ele>179</ele>
        <time>2013-08-24T09:36:07.000Z</time>
      </trkpt>
      <trkpt lat="50.51596" lon="2.3759">
        <ele>180</ele>
        <time>2013-08-24T09:36:13.000Z</time>
      </trkpt>
      <trkpt lat="50.51605" lon="2.37562">
        <ele>181</ele>
        <time>2013-08-24T09:36:20.000Z</time>
      </trkpt>
      <trkpt lat="50.51615" lon="2.37529">
        <ele>182</ele>
        <time>2013-08-24T09:36:25.000Z</time>
      </trkpt>
      <trkpt lat="50.5163" lon="2.37511">
        <ele>183</ele>
        <time>2013-08-24T09:36:31.000Z</time>
      </trkpt>
      <trkpt lat="50.51644" lon="2.3747">
        <ele>187</ele>
        <time>2013-08-24T09:36:37.000Z</time>
      </trkpt>
      <trkpt lat="50.51656" lon="2.37438">
        <ele>185</ele>
        <time>2013-08-24T09:36:40.000Z</time>
      </trkpt>
      <trkpt lat="50.51669" lon="2.37401">
        <ele>184</ele>
        <time>2013-08-24T09:36:43.000Z</time>
      </trkpt>
      <trkpt lat="50.51686" lon="2.37365">
        <ele>181</ele>
        <time>2013-08-24T09:36:46.000Z</time>
      </trkpt>
      <trkpt lat="50.51707" lon="2.37333">
        <ele>181</ele>
        <time>2013-08-24T09:36:49.000Z</time>
      </trkpt>
      <trkpt lat="50.5173" lon="2.37296">
        <ele>180</ele>
        <time>2013-08-24T09:36:52.000Z</time>
      </trkpt>
      <trkpt lat="50.51753" lon="2.37254">
        <ele>178</ele>
        <time>2013-08-24T09:36:55.000Z</time>
      </trkpt>
      <trkpt lat="50.51773" lon="2.37211">
        <ele>175</ele>
        <time>2013-08-24T09:36:58.000Z</time>
      </trkpt>
      <trkpt lat="50.51791" lon="2.37168">
        <ele>172</ele>
        <time>2013-08-24T09:37:01.000Z</time>
      </trkpt>
      <trkpt lat="50.51808" lon="2.37128">
        <ele>171</ele>
        <time>2013-08-24T09:37:04.000Z</time>
      </trkpt>
      <trkpt lat="50.51822" lon="2.37091">
        <ele>171</ele>
        <time>2013-08-24T09:37:07.000Z</time>
      </trkpt>
      <trkpt lat="50.51835" lon="2.37056">
        <ele>171</ele>
        <time>2013-08-24T09:37:10.000Z</time>
      </trkpt>
      <trkpt lat="50.51847" lon="2.37025">
        <ele>171</ele>
        <time>2013-08-24T09:37:13.000Z</time>
      </trkpt>
      <trkpt lat="50.5186" lon="2.36995">
        <ele>170</ele>
        <time>2013-08-24T09:37:16.000Z</time>
      </trkpt>
      <trkpt lat="50.51872" lon="2.36966">
        <ele>170</ele>
        <time>2013-08-24T09:37:19.000Z</time>
      </trkpt>
      <trkpt lat="50.51883" lon="2.3694">
        <ele>170</ele>
        <time>2013-08-24T09:37:22.000Z</time>
      </trkpt>
      <trkpt lat="50.51892" lon="2.36914">
        <ele>170</ele>
        <time>2013-08-24T09:37:25.000Z</time>
      </trkpt>
      <trkpt lat="50.51897" lon="2.36887">
        <ele>169</ele>
        <time>2013-08-24T09:37:28.000Z</time>
      </trkpt>
      <trkpt lat="50.519" lon="2.3686">
        <ele>168</ele>
        <time>2013-08-24T09:37:31.000Z</time>
      </trkpt>
      <trkpt lat="50.51902" lon="2.3683">
        <ele>167</ele>
        <time>2013-08-24T09:37:34.000Z</time>
      </trkpt>
      <trkpt lat="50.51904" lon="2.368">
        <ele>166</ele>
        <time>2013-08-24T09:37:37.000Z</time>
      </trkpt>
      <trkpt lat="50.51909" lon="2.36768">
        <ele>164</ele>
        <time>2013-08-24T09:37:40.000Z</time>
      </trkpt>
      <trkpt lat="50.51915" lon="2.36735">
        <ele>164</ele>
        <time>2013-08-24T09:37:43.000Z</time>
      </trkpt>
      <trkpt lat="50.51924" lon="2.36699">
        <ele>163</ele>
        <time>2013-08-24T09:37:46.000Z</time>
      </trkpt>
      <trkpt lat="50.51932" lon="2.36664">
        <ele>162</ele>
        <time>2013-08-24T09:37:49.000Z</time>
      </trkpt>
      <trkpt lat="50.51941" lon="2.36628">
        <ele>161</ele>
        <time>2013-08-24T09:37:52.000Z</time>
      </trkpt>
      <trkpt lat="50.51951" lon="2.36593">
        <ele>160</ele>
        <time>2013-08-24T09:37:55.000Z</time>
      </trkpt>
      <trkpt lat="50.51964" lon="2.36561">
        <ele>159</ele>
        <time>2013-08-24T09:37:59.000Z</time>
      </trkpt>
      <trkpt lat="50.51979" lon="2.36532">
        <ele>160</ele>
        <time>2013-08-24T09:38:01.000Z</time>
      </trkpt>
      <trkpt lat="50.51997" lon="2.36503">
        <ele>160</ele>
        <time>2013-08-24T09:38:04.000Z</time>
      </trkpt>
      <trkpt lat="50.52015" lon="2.36475">
        <ele>162</ele>
        <time>2013-08-24T09:38:07.000Z</time>
      </trkpt>
      <trkpt lat="50.52033" lon="2.36448">
        <ele>163</ele>
        <time>2013-08-24T09:38:10.000Z</time>
      </trkpt>
      <trkpt lat="50.5205" lon="2.36418">
        <ele>164</ele>
        <time>2013-08-24T09:38:13.000Z</time>
      </trkpt>
      <trkpt lat="50.52068" lon="2.36387">
        <ele>161</ele>
        <time>2013-08-24T09:38:16.000Z</time>
      </trkpt>
      <trkpt lat="50.52084" lon="2.36359">
        <ele>159</ele>
        <time>2013-08-24T09:38:19.000Z</time>
      </trkpt>
      <trkpt lat="50.52096" lon="2.36337">
        <ele>158</ele>
        <time>2013-08-24T09:38:23.000Z</time>
      </trkpt>
      <trkpt lat="50.52107" lon="2.36317">
        <ele>159</ele>
        <time>2013-08-24T09:38:25.000Z</time>
      </trkpt>
      <trkpt lat="50.52119" lon="2.36298">
        <ele>160</ele>
        <time>2013-08-24T09:38:28.000Z</time>
      </trkpt>
      <trkpt lat="50.52131" lon="2.36278">
        <ele>159</ele>
        <time>2013-08-24T09:38:31.000Z</time>
      </trkpt>
      <trkpt lat="50.52141" lon="2.36257">
        <ele>159</ele>
        <time>2013-08-24T09:38:34.000Z</time>
      </trkpt>
      <trkpt lat="50.52151" lon="2.36239">
        <ele>159</ele>
        <time>2013-08-24T09:38:37.000Z</time>
      </trkpt>
      <trkpt lat="50.52161" lon="2.36221">
        <ele>160</ele>
        <time>2013-08-24T09:38:40.000Z</time>
      </trkpt>
      <trkpt lat="50.5217" lon="2.362">
        <ele>161</ele>
        <time>2013-08-24T09:38:43.000Z</time>
      </trkpt>
      <trkpt lat="50.52179" lon="2.3618">
        <ele>160</ele>
        <time>2013-08-24T09:38:46.000Z</time>
      </trkpt>
      <trkpt lat="50.52188" lon="2.36161">
        <ele>161</ele>
        <time>2013-08-24T09:38:49.000Z</time>
      </trkpt>
      <trkpt lat="50.52198" lon="2.36139">
        <ele>161</ele>
        <time>2013-08-24T09:38:52.000Z</time>
      </trkpt>
      <trkpt lat="50.52206" lon="2.3612">
        <ele>161</ele>
        <time>2013-08-24T09:38:55.000Z</time>
      </trkpt>
      <trkpt lat="50.52214" lon="2.36103">
        <ele>162</ele>
        <time>2013-08-24T09:38:58.000Z</time>
      </trkpt>
      <trkpt lat="50.52223" lon="2.36083">
        <ele>161</ele>
        <time>2013-08-24T09:39:01.000Z</time>
      </trkpt>
      <trkpt lat="50.52235" lon="2.36058">
        <ele>160</ele>
        <time>2013-08-24T09:39:04.000Z</time>
      </trkpt>
      <trkpt lat="50.52249" lon="2.36028">
        <ele>158</ele>
        <time>2013-08-24T09:39:07.000Z</time>
      </trkpt>
      <trkpt lat="50.52264" lon="2.36">
        <ele>158</ele>
        <time>2013-08-24T09:39:10.000Z</time>
      </trkpt>
      <trkpt lat="50.52282" lon="2.35975">
        <ele>159</ele>
        <time>2013-08-24T09:39:13.000Z</time>
      </trkpt>
      <trkpt lat="50.52298" lon="2.35954">
        <ele>159</ele>
        <time>2013-08-24T09:39:16.000Z</time>
      </trkpt>
      <trkpt lat="50.52319" lon="2.35934">
        <ele>156</ele>
        <time>2013-08-24T09:39:19.000Z</time>
      </trkpt>
      <trkpt lat="50.5234" lon="2.35914">
        <ele>155</ele>
        <time>2013-08-24T09:39:22.000Z</time>
      </trkpt>
      <trkpt lat="50.52359" lon="2.35892">
        <ele>154</ele>
        <time>2013-08-24T09:39:25.000Z</time>
      </trkpt>
      <trkpt lat="50.52377" lon="2.35871">
        <ele>154</ele>
        <time>2013-08-24T09:39:28.000Z</time>
      </trkpt>
      <trkpt lat="50.52393" lon="2.35853">
        <ele>154</ele>
        <time>2013-08-24T09:39:31.000Z</time>
      </trkpt>
      <trkpt lat="50.52406" lon="2.35837">
        <ele>154</ele>
        <time>2013-08-24T09:39:34.000Z</time>
      </trkpt>
      <trkpt lat="50.52419" lon="2.35823">
        <ele>154</ele>
        <time>2013-08-24T09:39:37.000Z</time>
      </trkpt>
      <trkpt lat="50.5243" lon="2.3581">
        <ele>154</ele>
        <time>2013-08-24T09:39:40.000Z</time>
      </trkpt>
      <trkpt lat="50.52442" lon="2.35796">
        <ele>155</ele>
        <time>2013-08-24T09:39:43.000Z</time>
      </trkpt>
      <trkpt lat="50.52429" lon="2.35738">
        <ele>153</ele>
        <time>2013-08-24T09:39:49.000Z</time>
      </trkpt>
      <trkpt lat="50.5242" lon="2.35717">
        <ele>154</ele>
        <time>2013-08-24T09:39:52.000Z</time>
      </trkpt>
      <trkpt lat="50.52411" lon="2.35697">
        <ele>153</ele>
        <time>2013-08-24T09:39:55.000Z</time>
      </trkpt>
      <trkpt lat="50.52404" lon="2.35679">
        <ele>153</ele>
        <time>2013-08-24T09:39:59.000Z</time>
      </trkpt>
      <trkpt lat="50.52407" lon="2.35639">
        <ele>152</ele>
        <time>2013-08-24T09:40:04.000Z</time>
      </trkpt>
      <trkpt lat="50.52415" lon="2.35618">
        <ele>153</ele>
        <time>2013-08-24T09:40:07.000Z</time>
      </trkpt>
      <trkpt lat="50.52423" lon="2.356">
        <ele>153</ele>
        <time>2013-08-24T09:40:10.000Z</time>
      </trkpt>
      <trkpt lat="50.5243" lon="2.35583">
        <ele>153</ele>
        <time>2013-08-24T09:40:13.000Z</time>
      </trkpt>
      <trkpt lat="50.52445" lon="2.35555">
        <ele>152</ele>
        <time>2013-08-24T09:40:19.000Z</time>
      </trkpt>
      <trkpt lat="50.52465" lon="2.35525">
        <ele>152</ele>
        <time>2013-08-24T09:40:25.000Z</time>
      </trkpt>
      <trkpt lat="50.52476" lon="2.35511">
        <ele>152</ele>
        <time>2013-08-24T09:40:28.000Z</time>
      </trkpt>
      <trkpt lat="50.52486" lon="2.35493">
        <ele>151</ele>
        <time>2013-08-24T09:40:31.000Z</time>
      </trkpt>
      <trkpt lat="50.52493" lon="2.35473">
        <ele>152</ele>
        <time>2013-08-24T09:40:34.000Z</time>
      </trkpt>
      <trkpt lat="50.52502" lon="2.35455">
        <ele>152</ele>
        <time>2013-08-24T09:40:37.000Z</time>
      </trkpt>
      <trkpt lat="50.52512" lon="2.35434">
        <ele>152</ele>
        <time>2013-08-24T09:40:40.000Z</time>
      </trkpt>
      <trkpt lat="50.52522" lon="2.35414">
        <ele>151</ele>
        <time>2013-08-24T09:40:43.000Z</time>
      </trkpt>
      <trkpt lat="50.52523" lon="2.35385">
        <ele>150</ele>
        <time>2013-08-24T09:40:46.000Z</time>
      </trkpt>
      <trkpt lat="50.52533" lon="2.35364">
        <ele>150</ele>
        <time>2013-08-24T09:40:49.000Z</time>
      </trkpt>
      <trkpt lat="50.52542" lon="2.35344">
        <ele>150</ele>
        <time>2013-08-24T09:40:52.000Z</time>
      </trkpt>
      <trkpt lat="50.52551" lon="2.35323">
        <ele>152</ele>
        <time>2013-08-24T09:40:55.000Z</time>
      </trkpt>
      <trkpt lat="50.5256" lon="2.35303">
        <ele>153</ele>
        <time>2013-08-24T09:40:58.000Z</time>
      </trkpt>
      <trkpt lat="50.5257" lon="2.35283">
        <ele>153</ele>
        <time>2013-08-24T09:41:01.000Z</time>
      </trkpt>
      <trkpt lat="50.5257" lon="2.35254">
        <ele>153</ele>
        <time>2013-08-24T09:41:04.000Z</time>
      </trkpt>
      <trkpt lat="50.52573" lon="2.35228">
        <ele>153</ele>
        <time>2013-08-24T09:41:07.000Z</time>
      </trkpt>
      <trkpt lat="50.52576" lon="2.35204">
        <ele>153</ele>
        <time>2013-08-24T09:41:10.000Z</time>
      </trkpt>
      <trkpt lat="50.52576" lon="2.35181">
        <ele>152</ele>
        <time>2013-08-24T09:41:13.000Z</time>
      </trkpt>
      <trkpt lat="50.52577" lon="2.35157">
        <ele>151</ele>
        <time>2013-08-24T09:41:16.000Z</time>
      </trkpt>
      <trkpt lat="50.52579" lon="2.35134">
        <ele>150</ele>
        <time>2013-08-24T09:41:19.000Z</time>
      </trkpt>
      <trkpt lat="50.52581" lon="2.35111">
        <ele>151</ele>
        <time>2013-08-24T09:41:22.000Z</time>
      </trkpt>
      <trkpt lat="50.52585" lon="2.35089">
        <ele>153</ele>
        <time>2013-08-24T09:41:25.000Z</time>
      </trkpt>
      <trkpt lat="50.52587" lon="2.35068">
        <ele>154</ele>
        <time>2013-08-24T09:41:28.000Z</time>
      </trkpt>
      <trkpt lat="50.52589" lon="2.35047">
        <ele>154</ele>
        <time>2013-08-24T09:41:31.000Z</time>
      </trkpt>
      <trkpt lat="50.52591" lon="2.35026">
        <ele>155</ele>
        <time>2013-08-24T09:41:34.000Z</time>
      </trkpt>
      <trkpt lat="50.5259" lon="2.35003">
        <ele>155</ele>
        <time>2013-08-24T09:41:37.000Z</time>
      </trkpt>
      <trkpt lat="50.52588" lon="2.34982">
        <ele>156</ele>
        <time>2013-08-24T09:41:40.000Z</time>
      </trkpt>
      <trkpt lat="50.52586" lon="2.34963">
        <ele>158</ele>
        <time>2013-08-24T09:41:46.000Z</time>
      </trkpt>
      <trkpt lat="50.52585" lon="2.34943">
        <ele>160</ele>
        <time>2013-08-24T09:41:49.000Z</time>
      </trkpt>
      <trkpt lat="50.52583" lon="2.34925">
        <ele>160</ele>
        <time>2013-08-24T09:41:52.000Z</time>
      </trkpt>
      <trkpt lat="50.52582" lon="2.34906">
        <ele>160</ele>
        <time>2013-08-24T09:41:55.000Z</time>
      </trkpt>
      <trkpt lat="50.52581" lon="2.34888">
        <ele>159</ele>
        <time>2013-08-24T09:41:58.000Z</time>
      </trkpt>
      <trkpt lat="50.52541" lon="2.3486">
        <ele>160</ele>
        <time>2013-08-24T09:42:01.000Z</time>
      </trkpt>
      <trkpt lat="50.52531" lon="2.34843">
        <ele>159</ele>
        <time>2013-08-24T09:42:04.000Z</time>
      </trkpt>
      <trkpt lat="50.52522" lon="2.34827">
        <ele>157</ele>
        <time>2013-08-24T09:42:07.000Z</time>
      </trkpt>
      <trkpt lat="50.52506" lon="2.34801">
        <ele>158</ele>
        <time>2013-08-24T09:42:13.000Z</time>
      </trkpt>
      <trkpt lat="50.52493" lon="2.34768">
        <ele>157</ele>
        <time>2013-08-24T09:42:19.000Z</time>
      </trkpt>
      <trkpt lat="50.52481" lon="2.34737">
        <ele>156</ele>
        <time>2013-08-24T09:42:25.000Z</time>
      </trkpt>
      <trkpt lat="50.52474" lon="2.34719">
        <ele>156</ele>
        <time>2013-08-24T09:42:31.000Z</time>
      </trkpt>
      <trkpt lat="50.52503" lon="2.34688">
        <ele>156</ele>
        <time>2013-08-24T09:42:34.000Z</time>
      </trkpt>
      <trkpt lat="50.52519" lon="2.34662">
        <ele>160</ele>
        <time>2013-08-24T09:42:40.000Z</time>
      </trkpt>
      <trkpt lat="50.52529" lon="2.34645">
        <ele>160</ele>
        <time>2013-08-24T09:42:46.000Z</time>
      </trkpt>
      <trkpt lat="50.52511" lon="2.34612">
        <ele>160</ele>
        <time>2013-08-24T09:42:49.000Z</time>
      </trkpt>
      <trkpt lat="50.52501" lon="2.34582">
        <ele>161</ele>
        <time>2013-08-24T09:42:55.000Z</time>
      </trkpt>
      <trkpt lat="50.52489" lon="2.34551">
        <ele>161</ele>
        <time>2013-08-24T09:43:01.000Z</time>
      </trkpt>
      <trkpt lat="50.52479" lon="2.34522">
        <ele>162</ele>
        <time>2013-08-24T09:43:07.000Z</time>
      </trkpt>
      <trkpt lat="50.5247" lon="2.34497">
        <ele>162</ele>
        <time>2013-08-24T09:43:13.000Z</time>
      </trkpt>
      <trkpt lat="50.52462" lon="2.34473">
        <ele>163</ele>
        <time>2013-08-24T09:43:19.000Z</time>
      </trkpt>
      <trkpt lat="50.52453" lon="2.34447">
        <ele>163</ele>
        <time>2013-08-24T09:43:25.000Z</time>
      </trkpt>
      <trkpt lat="50.52444" lon="2.34423">
        <ele>164</ele>
        <time>2013-08-24T09:43:31.000Z</time>
      </trkpt>
      <trkpt lat="50.52436" lon="2.34399">
        <ele>164</ele>
        <time>2013-08-24T09:43:37.000Z</time>
      </trkpt>
      <trkpt lat="50.52426" lon="2.34374">
        <ele>164</ele>
        <time>2013-08-24T09:43:43.000Z</time>
      </trkpt>
      <trkpt lat="50.52419" lon="2.3435">
        <ele>164</ele>
        <time>2013-08-24T09:43:49.000Z</time>
      </trkpt>
      <trkpt lat="50.5241" lon="2.34327">
        <ele>164</ele>
        <time>2013-08-24T09:43:55.000Z</time>
      </trkpt>
      <trkpt lat="50.52401" lon="2.34301">
        <ele>165</ele>
        <time>2013-08-24T09:44:01.000Z</time>
      </trkpt>
      <trkpt lat="50.52389" lon="2.34277">
        <ele>166</ele>
        <time>2013-08-24T09:44:07.000Z</time>
      </trkpt>
      <trkpt lat="50.5238" lon="2.34253">
        <ele>166</ele>
        <time>2013-08-24T09:44:13.000Z</time>
      </trkpt>
      <trkpt lat="50.52372" lon="2.34228">
        <ele>167</ele>
        <time>2013-08-24T09:44:19.000Z</time>
      </trkpt>
      <trkpt lat="50.52367" lon="2.34201">
        <ele>168</ele>
        <time>2013-08-24T09:44:25.000Z</time>
      </trkpt>
      <trkpt lat="50.52365" lon="2.34173">
        <ele>168</ele>
        <time>2013-08-24T09:44:31.000Z</time>
      </trkpt>
      <trkpt lat="50.52363" lon="2.34146">
        <ele>169</ele>
        <time>2013-08-24T09:44:37.000Z</time>
      </trkpt>
      <trkpt lat="50.52362" lon="2.34123">
        <ele>170</ele>
        <time>2013-08-24T09:44:43.000Z</time>
      </trkpt>
      <trkpt lat="50.5236" lon="2.341">
        <ele>171</ele>
        <time>2013-08-24T09:44:49.000Z</time>
      </trkpt>
      <trkpt lat="50.52359" lon="2.34077">
        <ele>172</ele>
        <time>2013-08-24T09:44:55.000Z</time>
      </trkpt>
      <trkpt lat="50.52357" lon="2.34054">
        <ele>173</ele>
        <time>2013-08-24T09:45:01.000Z</time>
      </trkpt>
      <trkpt lat="50.52356" lon="2.34031">
        <ele>174</ele>
        <time>2013-08-24T09:45:07.000Z</time>
      </trkpt>
      <trkpt lat="50.52355" lon="2.3402">
        <ele>175</ele>
        <time>2013-08-24T09:45:13.000Z</time>
      </trkpt>
      <trkpt lat="50.52355" lon="2.34008">
        <ele>175</ele>
        <time>2013-08-24T09:45:16.000Z</time>
      </trkpt>
      <trkpt lat="50.52354" lon="2.33997">
        <ele>176</ele>
        <time>2013-08-24T09:45:19.000Z</time>
      </trkpt>
      <trkpt lat="50.52353" lon="2.33986">
        <ele>176</ele>
        <time>2013-08-24T09:45:22.000Z</time>
      </trkpt>
      <trkpt lat="50.52351" lon="2.33974">
        <ele>177</ele>
        <time>2013-08-24T09:45:35.000Z</time>
      </trkpt>
      <trkpt lat="50.52348" lon="2.3395">
        <ele>177</ele>
        <time>2013-08-24T09:45:35.000Z</time>
      </trkpt>
      <trkpt lat="50.52346" lon="2.33928">
        <ele>178</ele>
        <time>2013-08-24T09:45:35.000Z</time>
      </trkpt>
      <trkpt lat="50.52349" lon="2.33905">
        <ele>180</ele>
        <time>2013-08-24T09:45:40.000Z</time>
      </trkpt>
      <trkpt lat="50.5235" lon="2.33883">
        <ele>181</ele>
        <time>2013-08-24T09:45:46.000Z</time>
      </trkpt>
      <trkpt lat="50.52351" lon="2.33861">
        <ele>182</ele>
        <time>2013-08-24T09:45:52.000Z</time>
      </trkpt>
      <trkpt lat="50.52352" lon="2.33838">
        <ele>184</ele>
        <time>2013-08-24T09:45:58.000Z</time>
      </trkpt>
      <trkpt lat="50.52352" lon="2.33815">
        <ele>185</ele>
        <time>2013-08-24T09:46:04.000Z</time>
      </trkpt>
      <trkpt lat="50.52353" lon="2.33787">
        <ele>187</ele>
        <time>2013-08-24T09:46:11.000Z</time>
      </trkpt>
      <trkpt lat="50.52354" lon="2.33763">
        <ele>189</ele>
        <time>2013-08-24T09:46:17.000Z</time>
      </trkpt>
      <trkpt lat="50.52355" lon="2.33736">
        <ele>190</ele>
        <time>2013-08-24T09:46:23.000Z</time>
      </trkpt>
      <trkpt lat="50.52355" lon="2.33711">
        <ele>191</ele>
        <time>2013-08-24T09:46:32.000Z</time>
      </trkpt>
      <trkpt lat="50.52356" lon="2.33687">
        <ele>192</ele>
        <time>2013-08-24T09:46:35.000Z</time>
      </trkpt>
      <trkpt lat="50.52357" lon="2.3366">
        <ele>194</ele>
        <time>2013-08-24T09:46:41.000Z</time>
      </trkpt>
      <trkpt lat="50.52358" lon="2.33634">
        <ele>195</ele>
        <time>2013-08-24T09:46:47.000Z</time>
      </trkpt>
      <trkpt lat="50.52358" lon="2.33608">
        <ele>196</ele>
        <time>2013-08-24T09:46:53.000Z</time>
      </trkpt>
      <trkpt lat="50.52358" lon="2.33581">
        <ele>197</ele>
        <time>2013-08-24T09:47:00.000Z</time>
      </trkpt>
      <trkpt lat="50.52357" lon="2.33555">
        <ele>199</ele>
        <time>2013-08-24T09:47:05.000Z</time>
      </trkpt>
      <trkpt lat="50.52356" lon="2.33527">
        <ele>200</ele>
        <time>2013-08-24T09:47:11.000Z</time>
      </trkpt>
      <trkpt lat="50.52353" lon="2.33501">
        <ele>201</ele>
        <time>2013-08-24T09:47:17.000Z</time>
      </trkpt>
      <trkpt lat="50.5235" lon="2.33472">
        <ele>202</ele>
        <time>2013-08-24T09:47:23.000Z</time>
      </trkpt>
      <trkpt lat="50.52347" lon="2.33447">
        <ele>203</ele>
        <time>2013-08-24T09:47:29.000Z</time>
      </trkpt>
      <trkpt lat="50.52343" lon="2.3342">
        <ele>203</ele>
        <time>2013-08-24T09:47:35.000Z</time>
      </trkpt>
      <trkpt lat="50.52339" lon="2.33392">
        <ele>204</ele>
        <time>2013-08-24T09:47:41.000Z</time>
      </trkpt>
      <trkpt lat="50.52336" lon="2.33365">
        <ele>205</ele>
        <time>2013-08-24T09:47:47.000Z</time>
      </trkpt>
      <trkpt lat="50.52332" lon="2.3334">
        <ele>206</ele>
        <time>2013-08-24T09:47:53.000Z</time>
      </trkpt>
      <trkpt lat="50.5233" lon="2.33311">
        <ele>207</ele>
        <time>2013-08-24T09:47:59.000Z</time>
      </trkpt>
      <trkpt lat="50.52325" lon="2.33281">
        <ele>207</ele>
        <time>2013-08-24T09:48:05.000Z</time>
      </trkpt>
      <trkpt lat="50.52321" lon="2.3325">
        <ele>208</ele>
        <time>2013-08-24T09:48:11.000Z</time>
      </trkpt>
      <trkpt lat="50.52317" lon="2.33223">
        <ele>208</ele>
        <time>2013-08-24T09:48:17.000Z</time>
      </trkpt>
      <trkpt lat="50.52313" lon="2.33194">
        <ele>209</ele>
        <time>2013-08-24T09:48:23.000Z</time>
      </trkpt>
      <trkpt lat="50.52311" lon="2.3318">
        <ele>209</ele>
        <time>2013-08-24T09:48:29.000Z</time>
      </trkpt>
      <trkpt lat="50.52308" lon="2.33166">
        <ele>210</ele>
        <time>2013-08-24T09:48:32.000Z</time>
      </trkpt>
      <trkpt lat="50.52306" lon="2.33151">
        <ele>210</ele>
        <time>2013-08-24T09:48:35.000Z</time>
      </trkpt>
      <trkpt lat="50.52303" lon="2.33136">
        <ele>211</ele>
        <time>2013-08-24T09:48:38.000Z</time>
      </trkpt>
      <trkpt lat="50.523" lon="2.3312">
        <ele>211</ele>
        <time>2013-08-24T09:48:41.000Z</time>
      </trkpt>
      <trkpt lat="50.52295" lon="2.33091">
        <ele>211</ele>
        <time>2013-08-24T09:48:44.000Z</time>
      </trkpt>
      <trkpt lat="50.5229" lon="2.33061">
        <ele>212</ele>
        <time>2013-08-24T09:48:50.000Z</time>
      </trkpt>
      <trkpt lat="50.52285" lon="2.33034">
        <ele>212</ele>
        <time>2013-08-24T09:48:56.000Z</time>
      </trkpt>
      <trkpt lat="50.52281" lon="2.33008">
        <ele>213</ele>
        <time>2013-08-24T09:49:02.000Z</time>
      </trkpt>
      <trkpt lat="50.52276" lon="2.3298">
        <ele>214</ele>
        <time>2013-08-24T09:49:08.000Z</time>
      </trkpt>
      <trkpt lat="50.52269" lon="2.32951">
        <ele>214</ele>
        <time>2013-08-24T09:49:14.000Z</time>
      </trkpt>
      <trkpt lat="50.52268" lon="2.3292">
        <ele>215</ele>
        <time>2013-08-24T09:49:20.000Z</time>
      </trkpt>
      <trkpt lat="50.52269" lon="2.32891">
        <ele>215</ele>
        <time>2013-08-24T09:49:26.000Z</time>
      </trkpt>
      <trkpt lat="50.52271" lon="2.32861">
        <ele>216</ele>
        <time>2013-08-24T09:49:32.000Z</time>
      </trkpt>
      <trkpt lat="50.52272" lon="2.32832">
        <ele>216</ele>
        <time>2013-08-24T09:49:38.000Z</time>
      </trkpt>
      <trkpt lat="50.52274" lon="2.32802">
        <ele>217</ele>
        <time>2013-08-24T09:49:44.000Z</time>
      </trkpt>
      <trkpt lat="50.52275" lon="2.32773">
        <ele>217</ele>
        <time>2013-08-24T09:49:50.000Z</time>
      </trkpt>
      <trkpt lat="50.52276" lon="2.32744">
        <ele>218</ele>
        <time>2013-08-24T09:49:56.000Z</time>
      </trkpt>
      <trkpt lat="50.52281" lon="2.32717">
        <ele>219</ele>
        <time>2013-08-24T09:50:02.000Z</time>
      </trkpt>
      <trkpt lat="50.52283" lon="2.32686">
        <ele>220</ele>
        <time>2013-08-24T09:50:08.000Z</time>
      </trkpt>
      <trkpt lat="50.52285" lon="2.32655">
        <ele>220</ele>
        <time>2013-08-24T09:50:14.000Z</time>
      </trkpt>
      <trkpt lat="50.52286" lon="2.32621">
        <ele>220</ele>
        <time>2013-08-24T09:50:20.000Z</time>
      </trkpt>
      <trkpt lat="50.52288" lon="2.32601">
        <ele>220</ele>
        <time>2013-08-24T09:50:23.000Z</time>
      </trkpt>
      <trkpt lat="50.52289" lon="2.32566">
        <ele>221</ele>
        <time>2013-08-24T09:50:29.000Z</time>
      </trkpt>
      <trkpt lat="50.52288" lon="2.32528">
        <ele>222</ele>
        <time>2013-08-24T09:50:35.000Z</time>
      </trkpt>
      <trkpt lat="50.52287" lon="2.32495">
        <ele>222</ele>
        <time>2013-08-24T09:50:41.000Z</time>
      </trkpt>
      <trkpt lat="50.52285" lon="2.32466">
        <ele>223</ele>
        <time>2013-08-24T09:50:47.000Z</time>
      </trkpt>
      <trkpt lat="50.52284" lon="2.32439">
        <ele>223</ele>
        <time>2013-08-24T09:50:53.000Z</time>
      </trkpt>
      <trkpt lat="50.5228" lon="2.32428">
        <ele>227</ele>
        <time>2013-08-24T09:55:23.000Z</time>
      </trkpt>
      <trkpt lat="50.52277" lon="2.32415">
        <ele>227</ele>
        <time>2013-08-24T09:55:26.000Z</time>
      </trkpt>
      <trkpt lat="50.52274" lon="2.32399">
        <ele>227</ele>
        <time>2013-08-24T09:55:29.000Z</time>
      </trkpt>
      <trkpt lat="50.52272" lon="2.32381">
        <ele>227</ele>
        <time>2013-08-24T09:55:32.000Z</time>
      </trkpt>
      <trkpt lat="50.52269" lon="2.32365">
        <ele>228</ele>
        <time>2013-08-24T09:55:35.000Z</time>
      </trkpt>
      <trkpt lat="50.52263" lon="2.32329">
        <ele>229</ele>
        <time>2013-08-24T09:55:38.000Z</time>
      </trkpt>
      <trkpt lat="50.5226" lon="2.32307">
        <ele>229</ele>
        <time>2013-08-24T09:55:41.000Z</time>
      </trkpt>
      <trkpt lat="50.52258" lon="2.32287">
        <ele>229</ele>
        <time>2013-08-24T09:55:44.000Z</time>
      </trkpt>
      <trkpt lat="50.52255" lon="2.32267">
        <ele>229</ele>
        <time>2013-08-24T09:55:47.000Z</time>
      </trkpt>
      <trkpt lat="50.52253" lon="2.32246">
        <ele>230</ele>
        <time>2013-08-24T09:55:50.000Z</time>
      </trkpt>
      <trkpt lat="50.5225" lon="2.32226">
        <ele>230</ele>
        <time>2013-08-24T09:55:53.000Z</time>
      </trkpt>
      <trkpt lat="50.52248" lon="2.32205">
        <ele>230</ele>
        <time>2013-08-24T09:55:56.000Z</time>
      </trkpt>
      <trkpt lat="50.52245" lon="2.32164">
        <ele>231</ele>
        <time>2013-08-24T09:56:02.000Z</time>
      </trkpt>
      <trkpt lat="50.52244" lon="2.32144">
        <ele>231</ele>
        <time>2013-08-24T09:56:05.000Z</time>
      </trkpt>
      <trkpt lat="50.52243" lon="2.32123">
        <ele>232</ele>
        <time>2013-08-24T09:56:08.000Z</time>
      </trkpt>
      <trkpt lat="50.52243" lon="2.32102">
        <ele>232</ele>
        <time>2013-08-24T09:56:11.000Z</time>
      </trkpt>
      <trkpt lat="50.52243" lon="2.3208">
        <ele>233</ele>
        <time>2013-08-24T09:56:14.000Z</time>
      </trkpt>
      <trkpt lat="50.52243" lon="2.32057">
        <ele>233</ele>
        <time>2013-08-24T09:56:17.000Z</time>
      </trkpt>
      <trkpt lat="50.52242" lon="2.32034">
        <ele>233</ele>
        <time>2013-08-24T09:56:20.000Z</time>
      </trkpt>
      <trkpt lat="50.52241" lon="2.32012">
        <ele>233</ele>
        <time>2013-08-24T09:56:23.000Z</time>
      </trkpt>
      <trkpt lat="50.5224" lon="2.31989">
        <ele>234</ele>
        <time>2013-08-24T09:56:36.000Z</time>
      </trkpt>
      <trkpt lat="50.52239" lon="2.31968">
        <ele>233</ele>
        <time>2013-08-24T09:56:36.000Z</time>
      </trkpt>
      <trkpt lat="50.52238" lon="2.31946">
        <ele>233</ele>
        <time>2013-08-24T09:56:36.000Z</time>
      </trkpt>
      <trkpt lat="50.52237" lon="2.31925">
        <ele>233</ele>
        <time>2013-08-24T09:56:36.000Z</time>
      </trkpt>
      <trkpt lat="50.52236" lon="2.31901">
        <ele>234</ele>
        <time>2013-08-24T09:56:38.000Z</time>
      </trkpt>
      <trkpt lat="50.52238" lon="2.31878">
        <ele>233</ele>
        <time>2013-08-24T09:56:41.000Z</time>
      </trkpt>
      <trkpt lat="50.52238" lon="2.31857">
        <ele>233</ele>
        <time>2013-08-24T09:56:44.000Z</time>
      </trkpt>
      <trkpt lat="50.52238" lon="2.31835">
        <ele>233</ele>
        <time>2013-08-24T09:56:47.000Z</time>
      </trkpt>
      <trkpt lat="50.52238" lon="2.31814">
        <ele>234</ele>
        <time>2013-08-24T09:56:50.000Z</time>
      </trkpt>
      <trkpt lat="50.52237" lon="2.31793">
        <ele>233</ele>
        <time>2013-08-24T09:56:53.000Z</time>
      </trkpt>
      <trkpt lat="50.52238" lon="2.31753">
        <ele>233</ele>
        <time>2013-08-24T09:56:59.000Z</time>
      </trkpt>
      <trkpt lat="50.52237" lon="2.31729">
        <ele>233</ele>
        <time>2013-08-24T09:57:02.000Z</time>
      </trkpt>
      <trkpt lat="50.52236" lon="2.31706">
        <ele>233</ele>
        <time>2013-08-24T09:57:05.000Z</time>
      </trkpt>
      <trkpt lat="50.52236" lon="2.31683">
        <ele>233</ele>
        <time>2013-08-24T09:57:08.000Z</time>
      </trkpt>
      <trkpt lat="50.52236" lon="2.31661">
        <ele>234</ele>
        <time>2013-08-24T09:57:11.000Z</time>
      </trkpt>
      <trkpt lat="50.52236" lon="2.3164">
        <ele>234</ele>
        <time>2013-08-24T09:57:14.000Z</time>
      </trkpt>
      <trkpt lat="50.52236" lon="2.31619">
        <ele>235</ele>
        <time>2013-08-24T09:57:17.000Z</time>
      </trkpt>
      <trkpt lat="50.52234" lon="2.31595">
        <ele>235</ele>
        <time>2013-08-24T09:57:20.000Z</time>
      </trkpt>
      <trkpt lat="50.52233" lon="2.31572">
        <ele>235</ele>
        <time>2013-08-24T09:57:23.000Z</time>
      </trkpt>
      <trkpt lat="50.52232" lon="2.31547">
        <ele>234</ele>
        <time>2013-08-24T09:57:26.000Z</time>
      </trkpt>
      <trkpt lat="50.52231" lon="2.31524">
        <ele>233</ele>
        <time>2013-08-24T09:57:29.000Z</time>
      </trkpt>
      <trkpt lat="50.5223" lon="2.31502">
        <ele>233</ele>
        <time>2013-08-24T09:57:32.000Z</time>
      </trkpt>
      <trkpt lat="50.52229" lon="2.31479">
        <ele>233</ele>
        <time>2013-08-24T09:57:35.000Z</time>
      </trkpt>
      <trkpt lat="50.52228" lon="2.31457">
        <ele>233</ele>
        <time>2013-08-24T09:57:38.000Z</time>
      </trkpt>
      <trkpt lat="50.5223" lon="2.31435">
        <ele>233</ele>
        <time>2013-08-24T09:57:41.000Z</time>
      </trkpt>
      <trkpt lat="50.5223" lon="2.31413">
        <ele>233</ele>
        <time>2013-08-24T09:57:44.000Z</time>
      </trkpt>
      <trkpt lat="50.52229" lon="2.3139">
        <ele>233</ele>
        <time>2013-08-24T09:57:47.000Z</time>
      </trkpt>
      <trkpt lat="50.52228" lon="2.31368">
        <ele>234</ele>
        <time>2013-08-24T09:57:50.000Z</time>
      </trkpt>
      <trkpt lat="50.52225" lon="2.31344">
        <ele>234</ele>
        <time>2013-08-24T09:57:53.000Z</time>
      </trkpt>
      <trkpt lat="50.52223" lon="2.31321">
        <ele>234</ele>
        <time>2013-08-24T09:57:56.000Z</time>
      </trkpt>
      <trkpt lat="50.52221" lon="2.31297">
        <ele>234</ele>
        <time>2013-08-24T09:57:59.000Z</time>
      </trkpt>
      <trkpt lat="50.52221" lon="2.31273">
        <ele>234</ele>
        <time>2013-08-24T09:58:02.000Z</time>
      </trkpt>
      <trkpt lat="50.52221" lon="2.31252">
        <ele>235</ele>
        <time>2013-08-24T09:58:05.000Z</time>
      </trkpt>
      <trkpt lat="50.5222" lon="2.31231">
        <ele>235</ele>
        <time>2013-08-24T09:58:09.000Z</time>
      </trkpt>
      <trkpt lat="50.5222" lon="2.31208">
        <ele>235</ele>
        <time>2013-08-24T09:58:11.000Z</time>
      </trkpt>
      <trkpt lat="50.52219" lon="2.31186">
        <ele>235</ele>
        <time>2013-08-24T09:58:14.000Z</time>
      </trkpt>
      <trkpt lat="50.52219" lon="2.31151">
        <ele>235</ele>
        <time>2013-08-24T09:58:20.000Z</time>
      </trkpt>
      <trkpt lat="50.52218" lon="2.31128">
        <ele>238</ele>
        <time>2013-08-24T09:58:26.000Z</time>
      </trkpt>
      <trkpt lat="50.52267" lon="2.31106">
        <ele>237</ele>
        <time>2013-08-24T09:58:29.000Z</time>
      </trkpt>
      <trkpt lat="50.52261" lon="2.31082">
        <ele>235</ele>
        <time>2013-08-24T09:58:32.000Z</time>
      </trkpt>
      <trkpt lat="50.52249" lon="2.31067">
        <ele>234</ele>
        <time>2013-08-24T09:58:35.000Z</time>
      </trkpt>
      <trkpt lat="50.5224" lon="2.31044">
        <ele>234</ele>
        <time>2013-08-24T09:58:41.000Z</time>
      </trkpt>
      <trkpt lat="50.52232" lon="2.31027">
        <ele>233</ele>
        <time>2013-08-24T09:58:44.000Z</time>
      </trkpt>
      <trkpt lat="50.52213" lon="2.31016">
        <ele>232</ele>
        <time>2013-08-24T09:58:47.000Z</time>
      </trkpt>
      <trkpt lat="50.52203" lon="2.30992">
        <ele>231</ele>
        <time>2013-08-24T09:58:50.000Z</time>
      </trkpt>
      <trkpt lat="50.52195" lon="2.3097">
        <ele>231</ele>
        <time>2013-08-24T09:58:53.000Z</time>
      </trkpt>
      <trkpt lat="50.52188" lon="2.30947">
        <ele>231</ele>
        <time>2013-08-24T09:58:59.000Z</time>
      </trkpt>
      <trkpt lat="50.52181" lon="2.30926">
        <ele>230</ele>
        <time>2013-08-24T09:58:59.000Z</time>
      </trkpt>
      <trkpt lat="50.52175" lon="2.30907">
        <ele>230</ele>
        <time>2013-08-24T09:59:03.000Z</time>
      </trkpt>
      <trkpt lat="50.52169" lon="2.30889">
        <ele>230</ele>
        <time>2013-08-24T09:59:05.000Z</time>
      </trkpt>
      <trkpt lat="50.52163" lon="2.30868">
        <ele>231</ele>
        <time>2013-08-24T09:59:08.000Z</time>
      </trkpt>
      <trkpt lat="50.52156" lon="2.30848">
        <ele>231</ele>
        <time>2013-08-24T09:59:11.000Z</time>
      </trkpt>
      <trkpt lat="50.52152" lon="2.30823">
        <ele>230</ele>
        <time>2013-08-24T09:59:14.000Z</time>
      </trkpt>
      <trkpt lat="50.52146" lon="2.30801">
        <ele>230</ele>
        <time>2013-08-24T09:59:17.000Z</time>
      </trkpt>
      <trkpt lat="50.52139" lon="2.30778">
        <ele>230</ele>
        <time>2013-08-24T09:59:21.000Z</time>
      </trkpt>
      <trkpt lat="50.52132" lon="2.30757">
        <ele>230</ele>
        <time>2013-08-24T09:59:23.000Z</time>
      </trkpt>
      <trkpt lat="50.52126" lon="2.30735">
        <ele>230</ele>
        <time>2013-08-24T09:59:26.000Z</time>
      </trkpt>
      <trkpt lat="50.5212" lon="2.30713">
        <ele>230</ele>
        <time>2013-08-24T09:59:29.000Z</time>
      </trkpt>
      <trkpt lat="50.52113" lon="2.3069">
        <ele>230</ele>
        <time>2013-08-24T09:59:32.000Z</time>
      </trkpt>
      <trkpt lat="50.52108" lon="2.30668">
        <ele>230</ele>
        <time>2013-08-24T09:59:35.000Z</time>
      </trkpt>
      <trkpt lat="50.52101" lon="2.30645">
        <ele>230</ele>
        <time>2013-08-24T09:59:38.000Z</time>
      </trkpt>
      <trkpt lat="50.52094" lon="2.30623">
        <ele>230</ele>
        <time>2013-08-24T09:59:41.000Z</time>
      </trkpt>
      <trkpt lat="50.52088" lon="2.306">
        <ele>230</ele>
        <time>2013-08-24T09:59:44.000Z</time>
      </trkpt>
      <trkpt lat="50.52082" lon="2.30578">
        <ele>230</ele>
        <time>2013-08-24T09:59:47.000Z</time>
      </trkpt>
      <trkpt lat="50.52076" lon="2.30557">
        <ele>230</ele>
        <time>2013-08-24T09:59:50.000Z</time>
      </trkpt>
      <trkpt lat="50.52069" lon="2.30534">
        <ele>230</ele>
        <time>2013-08-24T09:59:53.000Z</time>
      </trkpt>
      <trkpt lat="50.52063" lon="2.30512">
        <ele>230</ele>
        <time>2013-08-24T09:59:56.000Z</time>
      </trkpt>
      <trkpt lat="50.52058" lon="2.30488">
        <ele>230</ele>
        <time>2013-08-24T09:59:59.000Z</time>
      </trkpt>
      <trkpt lat="50.52053" lon="2.30464">
        <ele>230</ele>
        <time>2013-08-24T10:00:02.000Z</time>
      </trkpt>
      <trkpt lat="50.52046" lon="2.30439">
        <ele>230</ele>
        <time>2013-08-24T10:00:05.000Z</time>
      </trkpt>
      <trkpt lat="50.5204" lon="2.30412">
        <ele>229</ele>
        <time>2013-08-24T10:00:08.000Z</time>
      </trkpt>
      <trkpt lat="50.52034" lon="2.30384">
        <ele>228</ele>
        <time>2013-08-24T10:00:11.000Z</time>
      </trkpt>
      <trkpt lat="50.52028" lon="2.30358">
        <ele>228</ele>
        <time>2013-08-24T10:00:15.000Z</time>
      </trkpt>
      <trkpt lat="50.52022" lon="2.30332">
        <ele>228</ele>
        <time>2013-08-24T10:00:17.000Z</time>
      </trkpt>
      <trkpt lat="50.52016" lon="2.30306">
        <ele>227</ele>
        <time>2013-08-24T10:00:20.000Z</time>
      </trkpt>
      <trkpt lat="50.5201" lon="2.3028">
        <ele>226</ele>
        <time>2013-08-24T10:00:23.000Z</time>
      </trkpt>
      <trkpt lat="50.52003" lon="2.30256">
        <ele>226</ele>
        <time>2013-08-24T10:00:26.000Z</time>
      </trkpt>
      <trkpt lat="50.51997" lon="2.30231">
        <ele>225</ele>
        <time>2013-08-24T10:00:29.000Z</time>
      </trkpt>
      <trkpt lat="50.51992" lon="2.30209">
        <ele>225</ele>
        <time>2013-08-24T10:00:32.000Z</time>
      </trkpt>
      <trkpt lat="50.51987" lon="2.30183">
        <ele>225</ele>
        <time>2013-08-24T10:00:35.000Z</time>
      </trkpt>
      <trkpt lat="50.5198" lon="2.30158">
        <ele>225</ele>
        <time>2013-08-24T10:00:38.000Z</time>
      </trkpt>
      <trkpt lat="50.51974" lon="2.30133">
        <ele>225</ele>
        <time>2013-08-24T10:00:41.000Z</time>
      </trkpt>
      <trkpt lat="50.51969" lon="2.30108">
        <ele>225</ele>
        <time>2013-08-24T10:00:44.000Z</time>
      </trkpt>
      <trkpt lat="50.51963" lon="2.30083">
        <ele>225</ele>
        <time>2013-08-24T10:00:47.000Z</time>
      </trkpt>
      <trkpt lat="50.51958" lon="2.30061">
        <ele>225</ele>
        <time>2013-08-24T10:00:50.000Z</time>
      </trkpt>
      <trkpt lat="50.51952" lon="2.30035">
        <ele>225</ele>
        <time>2013-08-24T10:00:53.000Z</time>
      </trkpt>
      <trkpt lat="50.51946" lon="2.3001">
        <ele>225</ele>
        <time>2013-08-24T10:00:56.000Z</time>
      </trkpt>
      <trkpt lat="50.51939" lon="2.29986">
        <ele>224</ele>
        <time>2013-08-24T10:00:59.000Z</time>
      </trkpt>
      <trkpt lat="50.51932" lon="2.29963">
        <ele>224</ele>
        <time>2013-08-24T10:01:02.000Z</time>
      </trkpt>
      <trkpt lat="50.51921" lon="2.29941">
        <ele>224</ele>
        <time>2013-08-24T10:01:05.000Z</time>
      </trkpt>
      <trkpt lat="50.51909" lon="2.2992">
        <ele>223</ele>
        <time>2013-08-24T10:01:08.000Z</time>
      </trkpt>
      <trkpt lat="50.51897" lon="2.29899">
        <ele>222</ele>
        <time>2013-08-24T10:01:11.000Z</time>
      </trkpt>
      <trkpt lat="50.51884" lon="2.29879">
        <ele>221</ele>
        <time>2013-08-24T10:01:14.000Z</time>
      </trkpt>
      <trkpt lat="50.51871" lon="2.29858">
        <ele>222</ele>
        <time>2013-08-24T10:01:17.000Z</time>
      </trkpt>
      <trkpt lat="50.51859" lon="2.29838">
        <ele>222</ele>
        <time>2013-08-24T10:01:20.000Z</time>
      </trkpt>
      <trkpt lat="50.51847" lon="2.29818">
        <ele>222</ele>
        <time>2013-08-24T10:01:23.000Z</time>
      </trkpt>
      <trkpt lat="50.51836" lon="2.29797">
        <ele>221</ele>
        <time>2013-08-24T10:01:26.000Z</time>
      </trkpt>
      <trkpt lat="50.51824" lon="2.29775">
        <ele>221</ele>
        <time>2013-08-24T10:01:29.000Z</time>
      </trkpt>
      <trkpt lat="50.51812" lon="2.29753">
        <ele>220</ele>
        <time>2013-08-24T10:01:32.000Z</time>
      </trkpt>
      <trkpt lat="50.51801" lon="2.2973">
        <ele>219</ele>
        <time>2013-08-24T10:01:35.000Z</time>
      </trkpt>
      <trkpt lat="50.5179" lon="2.2971">
        <ele>219</ele>
        <time>2013-08-24T10:01:38.000Z</time>
      </trkpt>
      <trkpt lat="50.5178" lon="2.2969">
        <ele>218</ele>
        <time>2013-08-24T10:01:41.000Z</time>
      </trkpt>
      <trkpt lat="50.5177" lon="2.29668">
        <ele>218</ele>
        <time>2013-08-24T10:01:44.000Z</time>
      </trkpt>
      <trkpt lat="50.51759" lon="2.29645">
        <ele>218</ele>
        <time>2013-08-24T10:01:47.000Z</time>
      </trkpt>
      <trkpt lat="50.51749" lon="2.29622">
        <ele>217</ele>
        <time>2013-08-24T10:01:50.000Z</time>
      </trkpt>
      <trkpt lat="50.51738" lon="2.29598">
        <ele>217</ele>
        <time>2013-08-24T10:01:53.000Z</time>
      </trkpt>
      <trkpt lat="50.51727" lon="2.29572">
        <ele>216</ele>
        <time>2013-08-24T10:01:56.000Z</time>
      </trkpt>
      <trkpt lat="50.51716" lon="2.29549">
        <ele>216</ele>
        <time>2013-08-24T10:01:59.000Z</time>
      </trkpt>
      <trkpt lat="50.51706" lon="2.29528">
        <ele>216</ele>
        <time>2013-08-24T10:02:02.000Z</time>
      </trkpt>
      <trkpt lat="50.51695" lon="2.29504">
        <ele>216</ele>
        <time>2013-08-24T10:02:05.000Z</time>
      </trkpt>
      <trkpt lat="50.51684" lon="2.2948">
        <ele>216</ele>
        <time>2013-08-24T10:02:08.000Z</time>
      </trkpt>
      <trkpt lat="50.51672" lon="2.29455">
        <ele>215</ele>
        <time>2013-08-24T10:02:11.000Z</time>
      </trkpt>
      <trkpt lat="50.51659" lon="2.29432">
        <ele>214</ele>
        <time>2013-08-24T10:02:14.000Z</time>
      </trkpt>
      <trkpt lat="50.51649" lon="2.2941">
        <ele>213</ele>
        <time>2013-08-24T10:02:17.000Z</time>
      </trkpt>
      <trkpt lat="50.51638" lon="2.29389">
        <ele>213</ele>
        <time>2013-08-24T10:02:20.000Z</time>
      </trkpt>
      <trkpt lat="50.51626" lon="2.29367">
        <ele>213</ele>
        <time>2013-08-24T10:02:23.000Z</time>
      </trkpt>
      <trkpt lat="50.51611" lon="2.29347">
        <ele>213</ele>
        <time>2013-08-24T10:02:26.000Z</time>
      </trkpt>
      <trkpt lat="50.51597" lon="2.2933">
        <ele>213</ele>
        <time>2013-08-24T10:02:29.000Z</time>
      </trkpt>
      <trkpt lat="50.51582" lon="2.29313">
        <ele>214</ele>
        <time>2013-08-24T10:02:32.000Z</time>
      </trkpt>
      <trkpt lat="50.51565" lon="2.29296">
        <ele>214</ele>
        <time>2013-08-24T10:02:35.000Z</time>
      </trkpt>
      <trkpt lat="50.51549" lon="2.29279">
        <ele>214</ele>
        <time>2013-08-24T10:02:38.000Z</time>
      </trkpt>
      <trkpt lat="50.51535" lon="2.29263">
        <ele>214</ele>
        <time>2013-08-24T10:02:41.000Z</time>
      </trkpt>
      <trkpt lat="50.51521" lon="2.29246">
        <ele>214</ele>
        <time>2013-08-24T10:02:44.000Z</time>
      </trkpt>
      <trkpt lat="50.51506" lon="2.29228">
        <ele>213</ele>
        <time>2013-08-24T10:02:47.000Z</time>
      </trkpt>
      <trkpt lat="50.51492" lon="2.29208">
        <ele>212</ele>
        <time>2013-08-24T10:02:50.000Z</time>
      </trkpt>
      <trkpt lat="50.51479" lon="2.29186">
        <ele>210</ele>
        <time>2013-08-24T10:02:53.000Z</time>
      </trkpt>
      <trkpt lat="50.51465" lon="2.29163">
        <ele>209</ele>
        <time>2013-08-24T10:02:56.000Z</time>
      </trkpt>
      <trkpt lat="50.51453" lon="2.29141">
        <ele>208</ele>
        <time>2013-08-24T10:02:59.000Z</time>
      </trkpt>
      <trkpt lat="50.51437" lon="2.29117">
        <ele>207</ele>
        <time>2013-08-24T10:03:02.000Z</time>
      </trkpt>
      <trkpt lat="50.51422" lon="2.29096">
        <ele>206</ele>
        <time>2013-08-24T10:03:05.000Z</time>
      </trkpt>
      <trkpt lat="50.51409" lon="2.29078">
        <ele>205</ele>
        <time>2013-08-24T10:03:08.000Z</time>
      </trkpt>
      <trkpt lat="50.51394" lon="2.29058">
        <ele>206</ele>
        <time>2013-08-24T10:03:11.000Z</time>
      </trkpt>
      <trkpt lat="50.51379" lon="2.29039">
        <ele>207</ele>
        <time>2013-08-24T10:03:14.000Z</time>
      </trkpt>
      <trkpt lat="50.51363" lon="2.29022">
        <ele>206</ele>
        <time>2013-08-24T10:03:17.000Z</time>
      </trkpt>
      <trkpt lat="50.51348" lon="2.29004">
        <ele>206</ele>
        <time>2013-08-24T10:03:20.000Z</time>
      </trkpt>
      <trkpt lat="50.51333" lon="2.28986">
        <ele>206</ele>
        <time>2013-08-24T10:03:23.000Z</time>
      </trkpt>
      <trkpt lat="50.51318" lon="2.28968">
        <ele>205</ele>
        <time>2013-08-24T10:03:26.000Z</time>
      </trkpt>
      <trkpt lat="50.51303" lon="2.28951">
        <ele>204</ele>
        <time>2013-08-24T10:03:29.000Z</time>
      </trkpt>
      <trkpt lat="50.51288" lon="2.28932">
        <ele>203</ele>
        <time>2013-08-24T10:03:32.000Z</time>
      </trkpt>
      <trkpt lat="50.51273" lon="2.28913">
        <ele>203</ele>
        <time>2013-08-24T10:03:35.000Z</time>
      </trkpt>
      <trkpt lat="50.51258" lon="2.28895">
        <ele>202</ele>
        <time>2013-08-24T10:03:38.000Z</time>
      </trkpt>
      <trkpt lat="50.51244" lon="2.28877">
        <ele>202</ele>
        <time>2013-08-24T10:03:41.000Z</time>
      </trkpt>
      <trkpt lat="50.51227" lon="2.2886">
        <ele>201</ele>
        <time>2013-08-24T10:03:44.000Z</time>
      </trkpt>
      <trkpt lat="50.51212" lon="2.28843">
        <ele>200</ele>
        <time>2013-08-24T10:03:47.000Z</time>
      </trkpt>
      <trkpt lat="50.51195" lon="2.28826">
        <ele>200</ele>
        <time>2013-08-24T10:03:50.000Z</time>
      </trkpt>
      <trkpt lat="50.51178" lon="2.28808">
        <ele>199</ele>
        <time>2013-08-24T10:03:53.000Z</time>
      </trkpt>
      <trkpt lat="50.51161" lon="2.2879">
        <ele>199</ele>
        <time>2013-08-24T10:03:56.000Z</time>
      </trkpt>
      <trkpt lat="50.51144" lon="2.28773">
        <ele>198</ele>
        <time>2013-08-24T10:03:59.000Z</time>
      </trkpt>
      <trkpt lat="50.51128" lon="2.28757">
        <ele>197</ele>
        <time>2013-08-24T10:04:02.000Z</time>
      </trkpt>
      <trkpt lat="50.51112" lon="2.28741">
        <ele>197</ele>
        <time>2013-08-24T10:04:05.000Z</time>
      </trkpt>
      <trkpt lat="50.51096" lon="2.28725">
        <ele>197</ele>
        <time>2013-08-24T10:04:08.000Z</time>
      </trkpt>
      <trkpt lat="50.51077" lon="2.28712">
        <ele>197</ele>
        <time>2013-08-24T10:04:11.000Z</time>
      </trkpt>
      <trkpt lat="50.51058" lon="2.28701">
        <ele>196</ele>
        <time>2013-08-24T10:04:14.000Z</time>
      </trkpt>
      <trkpt lat="50.51038" lon="2.2869">
        <ele>196</ele>
        <time>2013-08-24T10:04:17.000Z</time>
      </trkpt>
      <trkpt lat="50.51017" lon="2.28677">
        <ele>196</ele>
        <time>2013-08-24T10:04:20.000Z</time>
      </trkpt>
      <trkpt lat="50.50997" lon="2.28663">
        <ele>195</ele>
        <time>2013-08-24T10:04:23.000Z</time>
      </trkpt>
      <trkpt lat="50.50977" lon="2.28648">
        <ele>193</ele>
        <time>2013-08-24T10:04:26.000Z</time>
      </trkpt>
      <trkpt lat="50.50959" lon="2.28633">
        <ele>193</ele>
        <time>2013-08-24T10:04:29.000Z</time>
      </trkpt>
      <trkpt lat="50.5094" lon="2.28617">
        <ele>193</ele>
        <time>2013-08-24T10:04:32.000Z</time>
      </trkpt>
      <trkpt lat="50.5092" lon="2.28602">
        <ele>192</ele>
        <time>2013-08-24T10:04:35.000Z</time>
      </trkpt>
      <trkpt lat="50.50901" lon="2.28587">
        <ele>190</ele>
        <time>2013-08-24T10:04:38.000Z</time>
      </trkpt>
      <trkpt lat="50.50884" lon="2.28573">
        <ele>190</ele>
        <time>2013-08-24T10:04:41.000Z</time>
      </trkpt>
      <trkpt lat="50.50867" lon="2.28559">
        <ele>189</ele>
        <time>2013-08-24T10:04:44.000Z</time>
      </trkpt>
      <trkpt lat="50.50851" lon="2.28545">
        <ele>189</ele>
        <time>2013-08-24T10:04:47.000Z</time>
      </trkpt>
      <trkpt lat="50.50833" lon="2.2853">
        <ele>189</ele>
        <time>2013-08-24T10:04:50.000Z</time>
      </trkpt>
      <trkpt lat="50.50816" lon="2.28516">
        <ele>189</ele>
        <time>2013-08-24T10:04:53.000Z</time>
      </trkpt>
      <trkpt lat="50.508" lon="2.28502">
        <ele>189</ele>
        <time>2013-08-24T10:04:56.000Z</time>
      </trkpt>
      <trkpt lat="50.50784" lon="2.28489">
        <ele>188</ele>
        <time>2013-08-24T10:04:59.000Z</time>
      </trkpt>
      <trkpt lat="50.50768" lon="2.28476">
        <ele>188</ele>
        <time>2013-08-24T10:05:02.000Z</time>
      </trkpt>
      <trkpt lat="50.50752" lon="2.28464">
        <ele>188</ele>
        <time>2013-08-24T10:05:05.000Z</time>
      </trkpt>
      <trkpt lat="50.50736" lon="2.2845">
        <ele>187</ele>
        <time>2013-08-24T10:05:08.000Z</time>
      </trkpt>
      <trkpt lat="50.5072" lon="2.28438">
        <ele>187</ele>
        <time>2013-08-24T10:05:11.000Z</time>
      </trkpt>
      <trkpt lat="50.50705" lon="2.28425">
        <ele>186</ele>
        <time>2013-08-24T10:05:14.000Z</time>
      </trkpt>
      <trkpt lat="50.50689" lon="2.28412">
        <ele>186</ele>
        <time>2013-08-24T10:05:17.000Z</time>
      </trkpt>
      <trkpt lat="50.50673" lon="2.28397">
        <ele>186</ele>
        <time>2013-08-24T10:05:20.000Z</time>
      </trkpt>
      <trkpt lat="50.50657" lon="2.28383">
        <ele>185</ele>
        <time>2013-08-24T10:05:23.000Z</time>
      </trkpt>
      <trkpt lat="50.5064" lon="2.2837">
        <ele>185</ele>
        <time>2013-08-24T10:05:26.000Z</time>
      </trkpt>
      <trkpt lat="50.50624" lon="2.28356">
        <ele>185</ele>
        <time>2013-08-24T10:05:29.000Z</time>
      </trkpt>
      <trkpt lat="50.50607" lon="2.28341">
        <ele>183</ele>
        <time>2013-08-24T10:05:32.000Z</time>
      </trkpt>
      <trkpt lat="50.5059" lon="2.28325">
        <ele>183</ele>
        <time>2013-08-24T10:05:35.000Z</time>
      </trkpt>
      <trkpt lat="50.50571" lon="2.2831">
        <ele>182</ele>
        <time>2013-08-24T10:05:38.000Z</time>
      </trkpt>
      <trkpt lat="50.50553" lon="2.28293">
        <ele>182</ele>
        <time>2013-08-24T10:05:41.000Z</time>
      </trkpt>
      <trkpt lat="50.50533" lon="2.28275">
        <ele>181</ele>
        <time>2013-08-24T10:05:44.000Z</time>
      </trkpt>
      <trkpt lat="50.50514" lon="2.28258">
        <ele>180</ele>
        <time>2013-08-24T10:05:47.000Z</time>
      </trkpt>
      <trkpt lat="50.50494" lon="2.28241">
        <ele>179</ele>
        <time>2013-08-24T10:05:50.000Z</time>
      </trkpt>
      <trkpt lat="50.50475" lon="2.28225">
        <ele>178</ele>
        <time>2013-08-24T10:05:53.000Z</time>
      </trkpt>
      <trkpt lat="50.50457" lon="2.28208">
        <ele>177</ele>
        <time>2013-08-24T10:05:56.000Z</time>
      </trkpt>
      <trkpt lat="50.50439" lon="2.28191">
        <ele>177</ele>
        <time>2013-08-24T10:05:59.000Z</time>
      </trkpt>
      <trkpt lat="50.50422" lon="2.28174">
        <ele>177</ele>
        <time>2013-08-24T10:06:02.000Z</time>
      </trkpt>
      <trkpt lat="50.50405" lon="2.28158">
        <ele>176</ele>
        <time>2013-08-24T10:06:05.000Z</time>
      </trkpt>
      <trkpt lat="50.50388" lon="2.28142">
        <ele>176</ele>
        <time>2013-08-24T10:06:08.000Z</time>
      </trkpt>
      <trkpt lat="50.50372" lon="2.28127">
        <ele>176</ele>
        <time>2013-08-24T10:06:11.000Z</time>
      </trkpt>
      <trkpt lat="50.50356" lon="2.28112">
        <ele>175</ele>
        <time>2013-08-24T10:06:14.000Z</time>
      </trkpt>
      <trkpt lat="50.5034" lon="2.28096">
        <ele>175</ele>
        <time>2013-08-24T10:06:17.000Z</time>
      </trkpt>
      <trkpt lat="50.50323" lon="2.2808">
        <ele>174</ele>
        <time>2013-08-24T10:06:20.000Z</time>
      </trkpt>
      <trkpt lat="50.50306" lon="2.28064">
        <ele>173</ele>
        <time>2013-08-24T10:06:23.000Z</time>
      </trkpt>
      <trkpt lat="50.5029" lon="2.28049">
        <ele>172</ele>
        <time>2013-08-24T10:06:26.000Z</time>
      </trkpt>
      <trkpt lat="50.50274" lon="2.28033">
        <ele>171</ele>
        <time>2013-08-24T10:06:29.000Z</time>
      </trkpt>
      <trkpt lat="50.50258" lon="2.28017">
        <ele>171</ele>
        <time>2013-08-24T10:06:32.000Z</time>
      </trkpt>
      <trkpt lat="50.50243" lon="2.27997">
        <ele>172</ele>
        <time>2013-08-24T10:06:35.000Z</time>
      </trkpt>
      <trkpt lat="50.5023" lon="2.27975">
        <ele>173</ele>
        <time>2013-08-24T10:06:38.000Z</time>
      </trkpt>
      <trkpt lat="50.50217" lon="2.2795">
        <ele>173</ele>
        <time>2013-08-24T10:06:41.000Z</time>
      </trkpt>
      <trkpt lat="50.50206" lon="2.27925">
        <ele>172</ele>
        <time>2013-08-24T10:06:44.000Z</time>
      </trkpt>
      <trkpt lat="50.50196" lon="2.27897">
        <ele>171</ele>
        <time>2013-08-24T10:06:47.000Z</time>
      </trkpt>
      <trkpt lat="50.50188" lon="2.27869">
        <ele>170</ele>
        <time>2013-08-24T10:06:50.000Z</time>
      </trkpt>
      <trkpt lat="50.50179" lon="2.27842">
        <ele>169</ele>
        <time>2013-08-24T10:06:53.000Z</time>
      </trkpt>
      <trkpt lat="50.50171" lon="2.27816">
        <ele>168</ele>
        <time>2013-08-24T10:06:56.000Z</time>
      </trkpt>
      <trkpt lat="50.50163" lon="2.27789">
        <ele>168</ele>
        <time>2013-08-24T10:06:59.000Z</time>
      </trkpt>
      <trkpt lat="50.50154" lon="2.27761">
        <ele>167</ele>
        <time>2013-08-24T10:07:02.000Z</time>
      </trkpt>
      <trkpt lat="50.50147" lon="2.27732">
        <ele>166</ele>
        <time>2013-08-24T10:07:05.000Z</time>
      </trkpt>
      <trkpt lat="50.50139" lon="2.27707">
        <ele>166</ele>
        <time>2013-08-24T10:07:08.000Z</time>
      </trkpt>
      <trkpt lat="50.50132" lon="2.27679">
        <ele>166</ele>
        <time>2013-08-24T10:07:11.000Z</time>
      </trkpt>
      <trkpt lat="50.50124" lon="2.2765">
        <ele>166</ele>
        <time>2013-08-24T10:07:14.000Z</time>
      </trkpt>
      <trkpt lat="50.50114" lon="2.27622">
        <ele>166</ele>
        <time>2013-08-24T10:07:17.000Z</time>
      </trkpt>
      <trkpt lat="50.50103" lon="2.27598">
        <ele>166</ele>
        <time>2013-08-24T10:07:20.000Z</time>
      </trkpt>
      <trkpt lat="50.50092" lon="2.27574">
        <ele>166</ele>
        <time>2013-08-24T10:07:23.000Z</time>
      </trkpt>
      <trkpt lat="50.5008" lon="2.27551">
        <ele>166</ele>
        <time>2013-08-24T10:07:26.000Z</time>
      </trkpt>
      <trkpt lat="50.50065" lon="2.27532">
        <ele>166</ele>
        <time>2013-08-24T10:07:29.000Z</time>
      </trkpt>
      <trkpt lat="50.50047" lon="2.27515">
        <ele>165</ele>
        <time>2013-08-24T10:07:32.000Z</time>
      </trkpt>
      <trkpt lat="50.50029" lon="2.27503">
        <ele>163</ele>
        <time>2013-08-24T10:07:35.000Z</time>
      </trkpt>
      <trkpt lat="50.5001" lon="2.27497">
        <ele>162</ele>
        <time>2013-08-24T10:07:38.000Z</time>
      </trkpt>
      <trkpt lat="50.4999" lon="2.27493">
        <ele>162</ele>
        <time>2013-08-24T10:07:41.000Z</time>
      </trkpt>
      <trkpt lat="50.49971" lon="2.2749">
        <ele>162</ele>
        <time>2013-08-24T10:07:44.000Z</time>
      </trkpt>
      <trkpt lat="50.4995" lon="2.27488">
        <ele>162</ele>
        <time>2013-08-24T10:07:47.000Z</time>
      </trkpt>
      <trkpt lat="50.49928" lon="2.27485">
        <ele>163</ele>
        <time>2013-08-24T10:07:50.000Z</time>
      </trkpt>
      <trkpt lat="50.49907" lon="2.27482">
        <ele>164</ele>
        <time>2013-08-24T10:07:53.000Z</time>
      </trkpt>
      <trkpt lat="50.49887" lon="2.27479">
        <ele>165</ele>
        <time>2013-08-24T10:07:56.000Z</time>
      </trkpt>
      <trkpt lat="50.49866" lon="2.27476">
        <ele>163</ele>
        <time>2013-08-24T10:07:59.000Z</time>
      </trkpt>
      <trkpt lat="50.49847" lon="2.27476">
        <ele>162</ele>
        <time>2013-08-24T10:08:02.000Z</time>
      </trkpt>
      <trkpt lat="50.49828" lon="2.2748">
        <ele>161</ele>
        <time>2013-08-24T10:08:05.000Z</time>
      </trkpt>
      <trkpt lat="50.49812" lon="2.27481">
        <ele>161</ele>
        <time>2013-08-24T10:08:08.000Z</time>
      </trkpt>
      <trkpt lat="50.49792" lon="2.27489">
        <ele>162</ele>
        <time>2013-08-24T10:08:11.000Z</time>
      </trkpt>
      <trkpt lat="50.49772" lon="2.27497">
        <ele>162</ele>
        <time>2013-08-24T10:08:14.000Z</time>
      </trkpt>
      <trkpt lat="50.49754" lon="2.27507">
        <ele>162</ele>
        <time>2013-08-24T10:08:17.000Z</time>
      </trkpt>
      <trkpt lat="50.49736" lon="2.27517">
        <ele>161</ele>
        <time>2013-08-24T10:08:20.000Z</time>
      </trkpt>
      <trkpt lat="50.49717" lon="2.27527">
        <ele>160</ele>
        <time>2013-08-24T10:08:23.000Z</time>
      </trkpt>
      <trkpt lat="50.49699" lon="2.27536">
        <ele>159</ele>
        <time>2013-08-24T10:08:26.000Z</time>
      </trkpt>
      <trkpt lat="50.4968" lon="2.27544">
        <ele>159</ele>
        <time>2013-08-24T10:08:29.000Z</time>
      </trkpt>
      <trkpt lat="50.4966" lon="2.27548">
        <ele>158</ele>
        <time>2013-08-24T10:08:32.000Z</time>
      </trkpt>
      <trkpt lat="50.4964" lon="2.27548">
        <ele>158</ele>
        <time>2013-08-24T10:08:35.000Z</time>
      </trkpt>
      <trkpt lat="50.49619" lon="2.27545">
        <ele>158</ele>
        <time>2013-08-24T10:08:38.000Z</time>
      </trkpt>
      <trkpt lat="50.49601" lon="2.27538">
        <ele>159</ele>
        <time>2013-08-24T10:08:41.000Z</time>
      </trkpt>
      <trkpt lat="50.49583" lon="2.27532">
        <ele>158</ele>
        <time>2013-08-24T10:08:44.000Z</time>
      </trkpt>
      <trkpt lat="50.49566" lon="2.27525">
        <ele>157</ele>
        <time>2013-08-24T10:08:47.000Z</time>
      </trkpt>
      <trkpt lat="50.49547" lon="2.27518">
        <ele>158</ele>
        <time>2013-08-24T10:08:50.000Z</time>
      </trkpt>
      <trkpt lat="50.49531" lon="2.2751">
        <ele>158</ele>
        <time>2013-08-24T10:08:53.000Z</time>
      </trkpt>
      <trkpt lat="50.49515" lon="2.27503">
        <ele>158</ele>
        <time>2013-08-24T10:08:56.000Z</time>
      </trkpt>
      <trkpt lat="50.49499" lon="2.27495">
        <ele>158</ele>
        <time>2013-08-24T10:08:59.000Z</time>
      </trkpt>
      <trkpt lat="50.49483" lon="2.27482">
        <ele>159</ele>
        <time>2013-08-24T10:09:02.000Z</time>
      </trkpt>
      <trkpt lat="50.49468" lon="2.2747">
        <ele>159</ele>
        <time>2013-08-24T10:09:05.000Z</time>
      </trkpt>
      <trkpt lat="50.49453" lon="2.27459">
        <ele>158</ele>
        <time>2013-08-24T10:09:08.000Z</time>
      </trkpt>
      <trkpt lat="50.49435" lon="2.27451">
        <ele>157</ele>
        <time>2013-08-24T10:09:11.000Z</time>
      </trkpt>
      <trkpt lat="50.49416" lon="2.27446">
        <ele>157</ele>
        <time>2013-08-24T10:09:14.000Z</time>
      </trkpt>
      <trkpt lat="50.49397" lon="2.27444">
        <ele>158</ele>
        <time>2013-08-24T10:09:17.000Z</time>
      </trkpt>
      <trkpt lat="50.4938" lon="2.27443">
        <ele>158</ele>
        <time>2013-08-24T10:09:20.000Z</time>
      </trkpt>
      <trkpt lat="50.49361" lon="2.27442">
        <ele>159</ele>
        <time>2013-08-24T10:09:23.000Z</time>
      </trkpt>
      <trkpt lat="50.49344" lon="2.27441">
        <ele>158</ele>
        <time>2013-08-24T10:09:26.000Z</time>
      </trkpt>
      <trkpt lat="50.49326" lon="2.27438">
        <ele>157</ele>
        <time>2013-08-24T10:09:29.000Z</time>
      </trkpt>
      <trkpt lat="50.49309" lon="2.27435">
        <ele>158</ele>
        <time>2013-08-24T10:09:32.000Z</time>
      </trkpt>
      <trkpt lat="50.49294" lon="2.27433">
        <ele>158</ele>
        <time>2013-08-24T10:09:35.000Z</time>
      </trkpt>
      <trkpt lat="50.49276" lon="2.2743">
        <ele>157</ele>
        <time>2013-08-24T10:09:38.000Z</time>
      </trkpt>
      <trkpt lat="50.49257" lon="2.27425">
        <ele>157</ele>
        <time>2013-08-24T10:09:41.000Z</time>
      </trkpt>
      <trkpt lat="50.4924" lon="2.27422">
        <ele>158</ele>
        <time>2013-08-24T10:09:44.000Z</time>
      </trkpt>
      <trkpt lat="50.49224" lon="2.27409">
        <ele>160</ele>
        <time>2013-08-24T10:09:47.000Z</time>
      </trkpt>
      <trkpt lat="50.49207" lon="2.27398">
        <ele>161</ele>
        <time>2013-08-24T10:09:50.000Z</time>
      </trkpt>
      <trkpt lat="50.49192" lon="2.27387">
        <ele>161</ele>
        <time>2013-08-24T10:09:53.000Z</time>
      </trkpt>
      <trkpt lat="50.49174" lon="2.27376">
        <ele>161</ele>
        <time>2013-08-24T10:09:56.000Z</time>
      </trkpt>
      <trkpt lat="50.49155" lon="2.27366">
        <ele>159</ele>
        <time>2013-08-24T10:09:59.000Z</time>
      </trkpt>
      <trkpt lat="50.49134" lon="2.27361">
        <ele>158</ele>
        <time>2013-08-24T10:10:02.000Z</time>
      </trkpt>
      <trkpt lat="50.49111" lon="2.27356">
        <ele>157</ele>
        <time>2013-08-24T10:10:05.000Z</time>
      </trkpt>
      <trkpt lat="50.49088" lon="2.27353">
        <ele>157</ele>
        <time>2013-08-24T10:10:08.000Z</time>
      </trkpt>
      <trkpt lat="50.49067" lon="2.2735">
        <ele>157</ele>
        <time>2013-08-24T10:10:11.000Z</time>
      </trkpt>
      <trkpt lat="50.49045" lon="2.27348">
        <ele>157</ele>
        <time>2013-08-24T10:10:14.000Z</time>
      </trkpt>
      <trkpt lat="50.49024" lon="2.27347">
        <ele>155</ele>
        <time>2013-08-24T10:10:17.000Z</time>
      </trkpt>
      <trkpt lat="50.49004" lon="2.27346">
        <ele>155</ele>
        <time>2013-08-24T10:10:20.000Z</time>
      </trkpt>
      <trkpt lat="50.48984" lon="2.27344">
        <ele>154</ele>
        <time>2013-08-24T10:10:23.000Z</time>
      </trkpt>
      <trkpt lat="50.48964" lon="2.27342">
        <ele>153</ele>
        <time>2013-08-24T10:10:26.000Z</time>
      </trkpt>
      <trkpt lat="50.48943" lon="2.27337">
        <ele>153</ele>
        <time>2013-08-24T10:10:29.000Z</time>
      </trkpt>
      <trkpt lat="50.48924" lon="2.2733">
        <ele>152</ele>
        <time>2013-08-24T10:10:32.000Z</time>
      </trkpt>
      <trkpt lat="50.48906" lon="2.27321">
        <ele>152</ele>
        <time>2013-08-24T10:10:35.000Z</time>
      </trkpt>
      <trkpt lat="50.48888" lon="2.27313">
        <ele>152</ele>
        <time>2013-08-24T10:10:38.000Z</time>
      </trkpt>
      <trkpt lat="50.48869" lon="2.27304">
        <ele>152</ele>
        <time>2013-08-24T10:10:41.000Z</time>
      </trkpt>
      <trkpt lat="50.48849" lon="2.27295">
        <ele>152</ele>
        <time>2013-08-24T10:10:44.000Z</time>
      </trkpt>
      <trkpt lat="50.48829" lon="2.27286">
        <ele>151</ele>
        <time>2013-08-24T10:10:47.000Z</time>
      </trkpt>
      <trkpt lat="50.48809" lon="2.27278">
        <ele>150</ele>
        <time>2013-08-24T10:10:50.000Z</time>
      </trkpt>
      <trkpt lat="50.48788" lon="2.27271">
        <ele>149</ele>
        <time>2013-08-24T10:10:53.000Z</time>
      </trkpt>
      <trkpt lat="50.48767" lon="2.27268">
        <ele>148</ele>
        <time>2013-08-24T10:10:56.000Z</time>
      </trkpt>
      <trkpt lat="50.48745" lon="2.27266">
        <ele>147</ele>
        <time>2013-08-24T10:10:59.000Z</time>
      </trkpt>
      <trkpt lat="50.48723" lon="2.27265">
        <ele>146</ele>
        <time>2013-08-24T10:11:02.000Z</time>
      </trkpt>
      <trkpt lat="50.48701" lon="2.27265">
        <ele>146</ele>
        <time>2013-08-24T10:11:05.000Z</time>
      </trkpt>
      <trkpt lat="50.4868" lon="2.27265">
        <ele>147</ele>
        <time>2013-08-24T10:11:08.000Z</time>
      </trkpt>
      <trkpt lat="50.4866" lon="2.27264">
        <ele>147</ele>
        <time>2013-08-24T10:11:11.000Z</time>
      </trkpt>
      <trkpt lat="50.48639" lon="2.27263">
        <ele>148</ele>
        <time>2013-08-24T10:11:14.000Z</time>
      </trkpt>
      <trkpt lat="50.48618" lon="2.27263">
        <ele>148</ele>
        <time>2013-08-24T10:11:17.000Z</time>
      </trkpt>
      <trkpt lat="50.48597" lon="2.27264">
        <ele>148</ele>
        <time>2013-08-24T10:11:20.000Z</time>
      </trkpt>
      <trkpt lat="50.48577" lon="2.27263">
        <ele>149</ele>
        <time>2013-08-24T10:11:23.000Z</time>
      </trkpt>
      <trkpt lat="50.48557" lon="2.27263">
        <ele>149</ele>
        <time>2013-08-24T10:11:26.000Z</time>
      </trkpt>
      <trkpt lat="50.48538" lon="2.27263">
        <ele>147</ele>
        <time>2013-08-24T10:11:29.000Z</time>
      </trkpt>
      <trkpt lat="50.48518" lon="2.27264">
        <ele>146</ele>
        <time>2013-08-24T10:11:32.000Z</time>
      </trkpt>
      <trkpt lat="50.485" lon="2.27263">
        <ele>146</ele>
        <time>2013-08-24T10:11:35.000Z</time>
      </trkpt>
      <trkpt lat="50.48484" lon="2.27262">
        <ele>148</ele>
        <time>2013-08-24T10:11:38.000Z</time>
      </trkpt>
      <trkpt lat="50.48468" lon="2.27262">
        <ele>148</ele>
        <time>2013-08-24T10:11:41.000Z</time>
      </trkpt>
      <trkpt lat="50.48453" lon="2.27261">
        <ele>149</ele>
        <time>2013-08-24T10:11:44.000Z</time>
      </trkpt>
      <trkpt lat="50.48438" lon="2.27261">
        <ele>149</ele>
        <time>2013-08-24T10:11:47.000Z</time>
      </trkpt>
      <trkpt lat="50.48422" lon="2.2726">
        <ele>150</ele>
        <time>2013-08-24T10:11:50.000Z</time>
      </trkpt>
      <trkpt lat="50.48407" lon="2.2726">
        <ele>150</ele>
        <time>2013-08-24T10:11:53.000Z</time>
      </trkpt>
      <trkpt lat="50.48392" lon="2.27259">
        <ele>150</ele>
        <time>2013-08-24T10:11:56.000Z</time>
      </trkpt>
      <trkpt lat="50.48376" lon="2.27259">
        <ele>150</ele>
        <time>2013-08-24T10:11:59.000Z</time>
      </trkpt>
      <trkpt lat="50.4836" lon="2.27258">
        <ele>150</ele>
        <time>2013-08-24T10:12:02.000Z</time>
      </trkpt>
      <trkpt lat="50.48346" lon="2.27258">
        <ele>150</ele>
        <time>2013-08-24T10:12:05.000Z</time>
      </trkpt>
      <trkpt lat="50.48332" lon="2.27257">
        <ele>150</ele>
        <time>2013-08-24T10:12:08.000Z</time>
      </trkpt>
      <trkpt lat="50.48318" lon="2.27258">
        <ele>150</ele>
        <time>2013-08-24T10:12:11.000Z</time>
      </trkpt>
      <trkpt lat="50.48302" lon="2.27258">
        <ele>150</ele>
        <time>2013-08-24T10:12:14.000Z</time>
      </trkpt>
      <trkpt lat="50.48287" lon="2.27258">
        <ele>151</ele>
        <time>2013-08-24T10:12:17.000Z</time>
      </trkpt>
      <trkpt lat="50.4827" lon="2.27259">
        <ele>151</ele>
        <time>2013-08-24T10:12:20.000Z</time>
      </trkpt>
      <trkpt lat="50.48255" lon="2.27264">
        <ele>150</ele>
        <time>2013-08-24T10:12:23.000Z</time>
      </trkpt>
      <trkpt lat="50.48238" lon="2.27273">
        <ele>150</ele>
        <time>2013-08-24T10:12:26.000Z</time>
      </trkpt>
      <trkpt lat="50.48221" lon="2.27284">
        <ele>151</ele>
        <time>2013-08-24T10:12:29.000Z</time>
      </trkpt>
      <trkpt lat="50.48205" lon="2.27297">
        <ele>151</ele>
        <time>2013-08-24T10:12:32.000Z</time>
      </trkpt>
      <trkpt lat="50.48189" lon="2.27308">
        <ele>151</ele>
        <time>2013-08-24T10:12:35.000Z</time>
      </trkpt>
      <trkpt lat="50.48175" lon="2.27318">
        <ele>151</ele>
        <time>2013-08-24T10:12:38.000Z</time>
      </trkpt>
      <trkpt lat="50.4816" lon="2.27329">
        <ele>150</ele>
        <time>2013-08-24T10:12:41.000Z</time>
      </trkpt>
      <trkpt lat="50.48141" lon="2.27337">
        <ele>149</ele>
        <time>2013-08-24T10:12:44.000Z</time>
      </trkpt>
      <trkpt lat="50.4812" lon="2.27349">
        <ele>149</ele>
        <time>2013-08-24T10:12:47.000Z</time>
      </trkpt>
      <trkpt lat="50.48101" lon="2.2736">
        <ele>148</ele>
        <time>2013-08-24T10:12:50.000Z</time>
      </trkpt>
      <trkpt lat="50.48082" lon="2.27372">
        <ele>146</ele>
        <time>2013-08-24T10:12:53.000Z</time>
      </trkpt>
      <trkpt lat="50.4806" lon="2.27384">
        <ele>144</ele>
        <time>2013-08-24T10:12:56.000Z</time>
      </trkpt>
      <trkpt lat="50.48039" lon="2.27397">
        <ele>144</ele>
        <time>2013-08-24T10:12:59.000Z</time>
      </trkpt>
      <trkpt lat="50.48016" lon="2.27406">
        <ele>143</ele>
        <time>2013-08-24T10:13:02.000Z</time>
      </trkpt>
      <trkpt lat="50.4799" lon="2.27406">
        <ele>142</ele>
        <time>2013-08-24T10:13:05.000Z</time>
      </trkpt>
      <trkpt lat="50.47965" lon="2.27395">
        <ele>141</ele>
        <time>2013-08-24T10:13:08.000Z</time>
      </trkpt>
      <trkpt lat="50.4794" lon="2.27382">
        <ele>140</ele>
        <time>2013-08-24T10:13:11.000Z</time>
      </trkpt>
      <trkpt lat="50.47916" lon="2.27365">
        <ele>139</ele>
        <time>2013-08-24T10:13:14.000Z</time>
      </trkpt>
      <trkpt lat="50.47894" lon="2.27343">
        <ele>137</ele>
        <time>2013-08-24T10:13:17.000Z</time>
      </trkpt>
      <trkpt lat="50.47873" lon="2.27319">
        <ele>136</ele>
        <time>2013-08-24T10:13:20.000Z</time>
      </trkpt>
      <trkpt lat="50.47854" lon="2.27293">
        <ele>135</ele>
        <time>2013-08-24T10:13:23.000Z</time>
      </trkpt>
      <trkpt lat="50.47838" lon="2.27269">
        <ele>134</ele>
        <time>2013-08-24T10:13:26.000Z</time>
      </trkpt>
      <trkpt lat="50.47823" lon="2.27246">
        <ele>133</ele>
        <time>2013-08-24T10:13:29.000Z</time>
      </trkpt>
      <trkpt lat="50.47809" lon="2.27223">
        <ele>134</ele>
        <time>2013-08-24T10:13:32.000Z</time>
      </trkpt>
      <trkpt lat="50.47795" lon="2.27203">
        <ele>135</ele>
        <time>2013-08-24T10:13:35.000Z</time>
      </trkpt>
      <trkpt lat="50.4778" lon="2.27185">
        <ele>136</ele>
        <time>2013-08-24T10:13:38.000Z</time>
      </trkpt>
      <trkpt lat="50.47763" lon="2.27166">
        <ele>135</ele>
        <time>2013-08-24T10:13:41.000Z</time>
      </trkpt>
      <trkpt lat="50.47746" lon="2.27146">
        <ele>134</ele>
        <time>2013-08-24T10:13:44.000Z</time>
      </trkpt>
      <trkpt lat="50.47729" lon="2.27127">
        <ele>133</ele>
        <time>2013-08-24T10:13:47.000Z</time>
      </trkpt>
      <trkpt lat="50.47712" lon="2.27108">
        <ele>133</ele>
        <time>2013-08-24T10:13:50.000Z</time>
      </trkpt>
      <trkpt lat="50.47697" lon="2.27091">
        <ele>133</ele>
        <time>2013-08-24T10:13:53.000Z</time>
      </trkpt>
      <trkpt lat="50.47681" lon="2.27075">
        <ele>134</ele>
        <time>2013-08-24T10:13:58.000Z</time>
      </trkpt>
      <trkpt lat="50.47665" lon="2.27057">
        <ele>134</ele>
        <time>2013-08-24T10:13:59.000Z</time>
      </trkpt>
      <trkpt lat="50.47651" lon="2.27037">
        <ele>133</ele>
        <time>2013-08-24T10:14:02.000Z</time>
      </trkpt>
      <trkpt lat="50.47637" lon="2.27017">
        <ele>132</ele>
        <time>2013-08-24T10:14:05.000Z</time>
      </trkpt>
      <trkpt lat="50.47622" lon="2.26998">
        <ele>132</ele>
        <time>2013-08-24T10:14:08.000Z</time>
      </trkpt>
      <trkpt lat="50.47609" lon="2.26981">
        <ele>132</ele>
        <time>2013-08-24T10:14:11.000Z</time>
      </trkpt>
      <trkpt lat="50.47594" lon="2.26962">
        <ele>132</ele>
        <time>2013-08-24T10:14:14.000Z</time>
      </trkpt>
      <trkpt lat="50.4758" lon="2.26944">
        <ele>131</ele>
        <time>2013-08-24T10:14:17.000Z</time>
      </trkpt>
      <trkpt lat="50.47564" lon="2.26925">
        <ele>131</ele>
        <time>2013-08-24T10:14:20.000Z</time>
      </trkpt>
      <trkpt lat="50.47549" lon="2.26906">
        <ele>130</ele>
        <time>2013-08-24T10:14:23.000Z</time>
      </trkpt>
      <trkpt lat="50.47536" lon="2.26888">
        <ele>130</ele>
        <time>2013-08-24T10:14:31.000Z</time>
      </trkpt>
      <trkpt lat="50.47524" lon="2.26872">
        <ele>130</ele>
        <time>2013-08-24T10:14:31.000Z</time>
      </trkpt>
      <trkpt lat="50.47514" lon="2.26858">
        <ele>131</ele>
        <time>2013-08-24T10:14:32.000Z</time>
      </trkpt>
      <trkpt lat="50.47503" lon="2.26842">
        <ele>131</ele>
        <time>2013-08-24T10:14:35.000Z</time>
      </trkpt>
      <trkpt lat="50.47484" lon="2.26818">
        <ele>132</ele>
        <time>2013-08-24T10:14:41.000Z</time>
      </trkpt>
      <trkpt lat="50.47474" lon="2.26804">
        <ele>132</ele>
        <time>2013-08-24T10:14:44.000Z</time>
      </trkpt>
      <trkpt lat="50.47457" lon="2.26781">
        <ele>132</ele>
        <time>2013-08-24T10:14:50.000Z</time>
      </trkpt>
      <trkpt lat="50.47454" lon="2.2676">
        <ele>132</ele>
        <time>2013-08-24T10:14:53.000Z</time>
      </trkpt>
      <trkpt lat="50.47441" lon="2.26748">
        <ele>131</ele>
        <time>2013-08-24T10:14:56.000Z</time>
      </trkpt>
      <trkpt lat="50.4743" lon="2.26735">
        <ele>130</ele>
        <time>2013-08-24T10:14:59.000Z</time>
      </trkpt>
      <trkpt lat="50.47417" lon="2.26724">
        <ele>130</ele>
        <time>2013-08-24T10:15:02.000Z</time>
      </trkpt>
      <trkpt lat="50.47405" lon="2.26713">
        <ele>129</ele>
        <time>2013-08-24T10:15:05.000Z</time>
      </trkpt>
      <trkpt lat="50.47392" lon="2.26705">
        <ele>129</ele>
        <time>2013-08-24T10:15:08.000Z</time>
      </trkpt>
      <trkpt lat="50.4738" lon="2.26695">
        <ele>128</ele>
        <time>2013-08-24T10:15:11.000Z</time>
      </trkpt>
      <trkpt lat="50.47367" lon="2.26684">
        <ele>128</ele>
        <time>2013-08-24T10:15:14.000Z</time>
      </trkpt>
      <trkpt lat="50.47356" lon="2.26669">
        <ele>128</ele>
        <time>2013-08-24T10:15:17.000Z</time>
      </trkpt>
      <trkpt lat="50.47338" lon="2.26634">
        <ele>127</ele>
        <time>2013-08-24T10:15:23.000Z</time>
      </trkpt>
      <trkpt lat="50.47329" lon="2.2661">
        <ele>128</ele>
        <time>2013-08-24T10:15:29.000Z</time>
      </trkpt>
      <trkpt lat="50.47338" lon="2.26637">
        <ele>129</ele>
        <time>2013-08-24T10:18:26.000Z</time>
      </trkpt>
      <trkpt lat="50.47346" lon="2.26654">
        <ele>128</ele>
        <time>2013-08-24T10:18:35.000Z</time>
      </trkpt>
      <trkpt lat="50.47358" lon="2.26671">
        <ele>128</ele>
        <time>2013-08-24T10:18:41.000Z</time>
      </trkpt>
      <trkpt lat="50.47373" lon="2.26668">
        <ele>128</ele>
        <time>2013-08-24T10:18:47.000Z</time>
      </trkpt>
      <trkpt lat="50.47392" lon="2.26655">
        <ele>128</ele>
        <time>2013-08-24T10:18:53.000Z</time>
      </trkpt>
      <trkpt lat="50.47411" lon="2.26639">
        <ele>128</ele>
        <time>2013-08-24T10:18:59.000Z</time>
      </trkpt>
      <trkpt lat="50.47429" lon="2.26625">
        <ele>127</ele>
        <time>2013-08-24T10:19:05.000Z</time>
      </trkpt>
      <trkpt lat="50.47446" lon="2.2661">
        <ele>127</ele>
        <time>2013-08-24T10:19:11.000Z</time>
      </trkpt>
      <trkpt lat="50.47458" lon="2.26587">
        <ele>127</ele>
        <time>2013-08-24T10:19:17.000Z</time>
      </trkpt>
      <trkpt lat="50.47469" lon="2.2657">
        <ele>127</ele>
        <time>2013-08-24T10:19:23.000Z</time>
      </trkpt>
      <trkpt lat="50.47479" lon="2.26555">
        <ele>127</ele>
        <time>2013-08-24T10:19:29.000Z</time>
      </trkpt>
      <trkpt lat="50.4749" lon="2.26537">
        <ele>128</ele>
        <time>2013-08-24T10:19:35.000Z</time>
      </trkpt>
      <trkpt lat="50.47502" lon="2.26518">
        <ele>128</ele>
        <time>2013-08-24T10:19:41.000Z</time>
      </trkpt>
      <trkpt lat="50.47513" lon="2.26501">
        <ele>129</ele>
        <time>2013-08-24T10:19:47.000Z</time>
      </trkpt>
      <trkpt lat="50.47517" lon="2.26494">
        <ele>130</ele>
        <time>2013-08-24T10:19:53.000Z</time>
      </trkpt>
      <trkpt lat="50.47522" lon="2.26487">
        <ele>130</ele>
        <time>2013-08-24T10:19:56.000Z</time>
      </trkpt>
      <trkpt lat="50.47527" lon="2.26479">
        <ele>131</ele>
        <time>2013-08-24T10:19:59.000Z</time>
      </trkpt>
      <trkpt lat="50.47533" lon="2.2647">
        <ele>131</ele>
        <time>2013-08-24T10:20:02.000Z</time>
      </trkpt>
      <trkpt lat="50.47537" lon="2.26459">
        <ele>131</ele>
        <time>2013-08-24T10:20:05.000Z</time>
      </trkpt>
      <trkpt lat="50.47546" lon="2.26441">
        <ele>131</ele>
        <time>2013-08-24T10:20:08.000Z</time>
      </trkpt>
      <trkpt lat="50.47557" lon="2.26427">
        <ele>132</ele>
        <time>2013-08-24T10:20:14.000Z</time>
      </trkpt>
      <trkpt lat="50.47568" lon="2.26414">
        <ele>133</ele>
        <time>2013-08-24T10:20:20.000Z</time>
      </trkpt>
      <trkpt lat="50.47581" lon="2.264">
        <ele>134</ele>
        <time>2013-08-24T10:20:26.000Z</time>
      </trkpt>
      <trkpt lat="50.47593" lon="2.26389">
        <ele>136</ele>
        <time>2013-08-24T10:20:32.000Z</time>
      </trkpt>
      <trkpt lat="50.47605" lon="2.2638">
        <ele>138</ele>
        <time>2013-08-24T10:20:38.000Z</time>
      </trkpt>
      <trkpt lat="50.47621" lon="2.26368">
        <ele>140</ele>
        <time>2013-08-24T10:20:47.000Z</time>
      </trkpt>
      <trkpt lat="50.47634" lon="2.26358">
        <ele>142</ele>
        <time>2013-08-24T10:20:53.000Z</time>
      </trkpt>
      <trkpt lat="50.47649" lon="2.26343">
        <ele>144</ele>
        <time>2013-08-24T10:21:02.000Z</time>
      </trkpt>
      <trkpt lat="50.47662" lon="2.26333">
        <ele>146</ele>
        <time>2013-08-24T10:21:08.000Z</time>
      </trkpt>
      <trkpt lat="50.47674" lon="2.26319">
        <ele>147</ele>
        <time>2013-08-24T10:21:14.000Z</time>
      </trkpt>
      <trkpt lat="50.47689" lon="2.26306">
        <ele>148</ele>
        <time>2013-08-24T10:21:20.000Z</time>
      </trkpt>
      <trkpt lat="50.47705" lon="2.26295">
        <ele>148</ele>
        <time>2013-08-24T10:21:26.000Z</time>
      </trkpt>
      <trkpt lat="50.47718" lon="2.26285">
        <ele>149</ele>
        <time>2013-08-24T10:21:32.000Z</time>
      </trkpt>
      <trkpt lat="50.4773" lon="2.26277">
        <ele>150</ele>
        <time>2013-08-24T10:21:38.000Z</time>
      </trkpt>
      <trkpt lat="50.47744" lon="2.2626">
        <ele>151</ele>
        <time>2013-08-24T10:21:44.000Z</time>
      </trkpt>
      <trkpt lat="50.47757" lon="2.26248">
        <ele>152</ele>
        <time>2013-08-24T10:21:50.000Z</time>
      </trkpt>
      <trkpt lat="50.47771" lon="2.26236">
        <ele>153</ele>
        <time>2013-08-24T10:21:56.000Z</time>
      </trkpt>
      <trkpt lat="50.47786" lon="2.26222">
        <ele>154</ele>
        <time>2013-08-24T10:22:02.000Z</time>
      </trkpt>
      <trkpt lat="50.478" lon="2.26209">
        <ele>155</ele>
        <time>2013-08-24T10:22:08.000Z</time>
      </trkpt>
      <trkpt lat="50.47816" lon="2.26196">
        <ele>157</ele>
        <time>2013-08-24T10:22:14.000Z</time>
      </trkpt>
      <trkpt lat="50.47827" lon="2.26186">
        <ele>158</ele>
        <time>2013-08-24T10:22:20.000Z</time>
      </trkpt>
      <trkpt lat="50.47839" lon="2.26175">
        <ele>159</ele>
        <time>2013-08-24T10:22:26.000Z</time>
      </trkpt>
      <trkpt lat="50.4785" lon="2.26165">
        <ele>160</ele>
        <time>2013-08-24T10:22:32.000Z</time>
      </trkpt>
      <trkpt lat="50.47857" lon="2.26134">
        <ele>161</ele>
        <time>2013-08-24T10:22:38.000Z</time>
      </trkpt>
      <trkpt lat="50.47866" lon="2.2611">
        <ele>161</ele>
        <time>2013-08-24T10:22:44.000Z</time>
      </trkpt>
      <trkpt lat="50.47873" lon="2.26091">
        <ele>162</ele>
        <time>2013-08-24T10:22:50.000Z</time>
      </trkpt>
      <trkpt lat="50.4788" lon="2.26069">
        <ele>162</ele>
        <time>2013-08-24T10:22:56.000Z</time>
      </trkpt>
      <trkpt lat="50.47883" lon="2.26058">
        <ele>163</ele>
        <time>2013-08-24T10:23:02.000Z</time>
      </trkpt>
      <trkpt lat="50.47886" lon="2.26048">
        <ele>164</ele>
        <time>2013-08-24T10:23:05.000Z</time>
      </trkpt>
      <trkpt lat="50.47889" lon="2.26035">
        <ele>164</ele>
        <time>2013-08-24T10:23:11.000Z</time>
      </trkpt>
      <trkpt lat="50.47892" lon="2.26022">
        <ele>165</ele>
        <time>2013-08-24T10:23:14.000Z</time>
      </trkpt>
      <trkpt lat="50.47895" lon="2.2601">
        <ele>165</ele>
        <time>2013-08-24T10:23:17.000Z</time>
      </trkpt>
      <trkpt lat="50.47898" lon="2.25999">
        <ele>166</ele>
        <time>2013-08-24T10:23:20.000Z</time>
      </trkpt>
      <trkpt lat="50.47902" lon="2.25987">
        <ele>167</ele>
        <time>2013-08-24T10:23:23.000Z</time>
      </trkpt>
      <trkpt lat="50.47909" lon="2.25963">
        <ele>167</ele>
        <time>2013-08-24T10:23:26.000Z</time>
      </trkpt>
      <trkpt lat="50.47915" lon="2.25941">
        <ele>169</ele>
        <time>2013-08-24T10:23:32.000Z</time>
      </trkpt>
      <trkpt lat="50.47921" lon="2.25918">
        <ele>170</ele>
        <time>2013-08-24T10:23:38.000Z</time>
      </trkpt>
      <trkpt lat="50.47931" lon="2.25895">
        <ele>172</ele>
        <time>2013-08-24T10:23:44.000Z</time>
      </trkpt>
      <trkpt lat="50.47941" lon="2.25875">
        <ele>173</ele>
        <time>2013-08-24T10:23:50.000Z</time>
      </trkpt>
      <trkpt lat="50.47954" lon="2.25853">
        <ele>174</ele>
        <time>2013-08-24T10:23:56.000Z</time>
      </trkpt>
      <trkpt lat="50.47966" lon="2.25834">
        <ele>175</ele>
        <time>2013-08-24T10:24:03.000Z</time>
      </trkpt>
      <trkpt lat="50.47981" lon="2.25817">
        <ele>175</ele>
        <time>2013-08-24T10:24:08.000Z</time>
      </trkpt>
      <trkpt lat="50.48" lon="2.2581">
        <ele>176</ele>
        <time>2013-08-24T10:24:14.000Z</time>
      </trkpt>
      <trkpt lat="50.48019" lon="2.2581">
        <ele>177</ele>
        <time>2013-08-24T10:24:20.000Z</time>
      </trkpt>
      <trkpt lat="50.4804" lon="2.25812">
        <ele>178</ele>
        <time>2013-08-24T10:24:26.000Z</time>
      </trkpt>
      <trkpt lat="50.48061" lon="2.25811">
        <ele>179</ele>
        <time>2013-08-24T10:24:32.000Z</time>
      </trkpt>
      <trkpt lat="50.48077" lon="2.25804">
        <ele>180</ele>
        <time>2013-08-24T10:24:38.000Z</time>
      </trkpt>
      <trkpt lat="50.48096" lon="2.25791">
        <ele>181</ele>
        <time>2013-08-24T10:24:44.000Z</time>
      </trkpt>
      <trkpt lat="50.48117" lon="2.25776">
        <ele>181</ele>
        <time>2013-08-24T10:24:50.000Z</time>
      </trkpt>
      <trkpt lat="50.48137" lon="2.25763">
        <ele>182</ele>
        <time>2013-08-24T10:24:56.000Z</time>
      </trkpt>
      <trkpt lat="50.48188" lon="2.25713">
        <ele>183</ele>
        <time>2013-08-24T10:25:17.000Z</time>
      </trkpt>
      <trkpt lat="50.48198" lon="2.25701">
        <ele>184</ele>
        <time>2013-08-24T10:25:20.000Z</time>
      </trkpt>
      <trkpt lat="50.48209" lon="2.25686">
        <ele>185</ele>
        <time>2013-08-24T10:25:23.000Z</time>
      </trkpt>
      <trkpt lat="50.48222" lon="2.25668">
        <ele>185</ele>
        <time>2013-08-24T10:25:26.000Z</time>
      </trkpt>
      <trkpt lat="50.48236" lon="2.25651">
        <ele>185</ele>
        <time>2013-08-24T10:25:29.000Z</time>
      </trkpt>
      <trkpt lat="50.4825" lon="2.25632">
        <ele>186</ele>
        <time>2013-08-24T10:25:32.000Z</time>
      </trkpt>
      <trkpt lat="50.48264" lon="2.25615">
        <ele>186</ele>
        <time>2013-08-24T10:25:35.000Z</time>
      </trkpt>
      <trkpt lat="50.48278" lon="2.25597">
        <ele>185</ele>
        <time>2013-08-24T10:25:38.000Z</time>
      </trkpt>
      <trkpt lat="50.48294" lon="2.25579">
        <ele>185</ele>
        <time>2013-08-24T10:25:41.000Z</time>
      </trkpt>
      <trkpt lat="50.48312" lon="2.25565">
        <ele>184</ele>
        <time>2013-08-24T10:25:44.000Z</time>
      </trkpt>
      <trkpt lat="50.4833" lon="2.2556">
        <ele>183</ele>
        <time>2013-08-24T10:25:47.000Z</time>
      </trkpt>
      <trkpt lat="50.48349" lon="2.25559">
        <ele>183</ele>
        <time>2013-08-24T10:25:50.000Z</time>
      </trkpt>
      <trkpt lat="50.48367" lon="2.25559">
        <ele>183</ele>
        <time>2013-08-24T10:25:53.000Z</time>
      </trkpt>
      <trkpt lat="50.48385" lon="2.25556">
        <ele>182</ele>
        <time>2013-08-24T10:25:56.000Z</time>
      </trkpt>
      <trkpt lat="50.48401" lon="2.25544">
        <ele>183</ele>
        <time>2013-08-24T10:25:59.000Z</time>
      </trkpt>
      <trkpt lat="50.48417" lon="2.25539">
        <ele>183</ele>
        <time>2013-08-24T10:26:02.000Z</time>
      </trkpt>
      <trkpt lat="50.48429" lon="2.25534">
        <ele>185</ele>
        <time>2013-08-24T10:26:05.000Z</time>
      </trkpt>
      <trkpt lat="50.48453" lon="2.25523">
        <ele>187</ele>
        <time>2013-08-24T10:26:11.000Z</time>
      </trkpt>
      <trkpt lat="50.48477" lon="2.25513">
        <ele>189</ele>
        <time>2013-08-24T10:26:17.000Z</time>
      </trkpt>
      <trkpt lat="50.48488" lon="2.25444">
        <ele>190</ele>
        <time>2013-08-24T10:26:23.000Z</time>
      </trkpt>
      <trkpt lat="50.48498" lon="2.25433">
        <ele>190</ele>
        <time>2013-08-24T10:26:26.000Z</time>
      </trkpt>
      <trkpt lat="50.48508" lon="2.25421">
        <ele>191</ele>
        <time>2013-08-24T10:26:29.000Z</time>
      </trkpt>
      <trkpt lat="50.48527" lon="2.254">
        <ele>191</ele>
        <time>2013-08-24T10:26:35.000Z</time>
      </trkpt>
      <trkpt lat="50.48544" lon="2.2538">
        <ele>191</ele>
        <time>2013-08-24T10:26:41.000Z</time>
      </trkpt>
      <trkpt lat="50.48565" lon="2.25357">
        <ele>192</ele>
        <time>2013-08-24T10:26:47.000Z</time>
      </trkpt>
      <trkpt lat="50.48584" lon="2.25335">
        <ele>193</ele>
        <time>2013-08-24T10:26:53.000Z</time>
      </trkpt>
      <trkpt lat="50.48605" lon="2.25312">
        <ele>197</ele>
        <time>2013-08-24T10:26:59.000Z</time>
      </trkpt>
      <trkpt lat="50.48613" lon="2.25304">
        <ele>197</ele>
        <time>2013-08-24T10:27:05.000Z</time>
      </trkpt>
      <trkpt lat="50.48621" lon="2.25294">
        <ele>197</ele>
        <time>2013-08-24T10:27:08.000Z</time>
      </trkpt>
      <trkpt lat="50.4863" lon="2.25285">
        <ele>198</ele>
        <time>2013-08-24T10:27:11.000Z</time>
      </trkpt>
      <trkpt lat="50.48639" lon="2.25276">
        <ele>198</ele>
        <time>2013-08-24T10:27:14.000Z</time>
      </trkpt>
      <trkpt lat="50.48648" lon="2.25266">
        <ele>198</ele>
        <time>2013-08-24T10:27:17.000Z</time>
      </trkpt>
      <trkpt lat="50.48665" lon="2.25249">
        <ele>198</ele>
        <time>2013-08-24T10:27:20.000Z</time>
      </trkpt>
      <trkpt lat="50.48685" lon="2.25227">
        <ele>199</ele>
        <time>2013-08-24T10:27:26.000Z</time>
      </trkpt>
      <trkpt lat="50.48704" lon="2.25208">
        <ele>200</ele>
        <time>2013-08-24T10:27:32.000Z</time>
      </trkpt>
      <trkpt lat="50.48722" lon="2.25189">
        <ele>200</ele>
        <time>2013-08-24T10:27:38.000Z</time>
      </trkpt>
      <trkpt lat="50.48741" lon="2.25167">
        <ele>198</ele>
        <time>2013-08-24T10:27:44.000Z</time>
      </trkpt>
      <trkpt lat="50.48752" lon="2.25155">
        <ele>197</ele>
        <time>2013-08-24T10:27:47.000Z</time>
      </trkpt>
      <trkpt lat="50.48764" lon="2.25141">
        <ele>197</ele>
        <time>2013-08-24T10:27:50.000Z</time>
      </trkpt>
      <trkpt lat="50.48777" lon="2.25123">
        <ele>195</ele>
        <time>2013-08-24T10:27:53.000Z</time>
      </trkpt>
      <trkpt lat="50.4879" lon="2.251">
        <ele>196</ele>
        <time>2013-08-24T10:27:56.000Z</time>
      </trkpt>
      <trkpt lat="50.48801" lon="2.25075">
        <ele>197</ele>
        <time>2013-08-24T10:27:59.000Z</time>
      </trkpt>
      <trkpt lat="50.4881" lon="2.25042">
        <ele>198</ele>
        <time>2013-08-24T10:28:02.000Z</time>
      </trkpt>
      <trkpt lat="50.48818" lon="2.25007">
        <ele>198</ele>
        <time>2013-08-24T10:28:05.000Z</time>
      </trkpt>
      <trkpt lat="50.48825" lon="2.24974">
        <ele>197</ele>
        <time>2013-08-24T10:28:08.000Z</time>
      </trkpt>
      <trkpt lat="50.48831" lon="2.24942">
        <ele>196</ele>
        <time>2013-08-24T10:28:11.000Z</time>
      </trkpt>
      <trkpt lat="50.48836" lon="2.24911">
        <ele>192</ele>
        <time>2013-08-24T10:28:14.000Z</time>
      </trkpt>
      <trkpt lat="50.48841" lon="2.24882">
        <ele>188</ele>
        <time>2013-08-24T10:28:17.000Z</time>
      </trkpt>
      <trkpt lat="50.48846" lon="2.24854">
        <ele>185</ele>
        <time>2013-08-24T10:28:20.000Z</time>
      </trkpt>
      <trkpt lat="50.48852" lon="2.2483">
        <ele>184</ele>
        <time>2013-08-24T10:28:23.000Z</time>
      </trkpt>
      <trkpt lat="50.48857" lon="2.24807">
        <ele>184</ele>
        <time>2013-08-24T10:28:26.000Z</time>
      </trkpt>
      <trkpt lat="50.48862" lon="2.24786">
        <ele>185</ele>
        <time>2013-08-24T10:28:29.000Z</time>
      </trkpt>
      <trkpt lat="50.48866" lon="2.24767">
        <ele>188</ele>
        <time>2013-08-24T10:28:32.000Z</time>
      </trkpt>
      <trkpt lat="50.48873" lon="2.24735">
        <ele>192</ele>
        <time>2013-08-24T10:28:38.000Z</time>
      </trkpt>
      <trkpt lat="50.4888" lon="2.24704">
        <ele>195</ele>
        <time>2013-08-24T10:28:44.000Z</time>
      </trkpt>
      <trkpt lat="50.48916" lon="2.24706">
        <ele>198</ele>
        <time>2013-08-24T10:28:47.000Z</time>
      </trkpt>
      <trkpt lat="50.4893" lon="2.24679">
        <ele>198</ele>
        <time>2013-08-24T10:28:53.000Z</time>
      </trkpt>
      <trkpt lat="50.48945" lon="2.24651">
        <ele>198</ele>
        <time>2013-08-24T10:28:59.000Z</time>
      </trkpt>
      <trkpt lat="50.48959" lon="2.24623">
        <ele>198</ele>
        <time>2013-08-24T10:29:05.000Z</time>
      </trkpt>
      <trkpt lat="50.48975" lon="2.24594">
        <ele>201</ele>
        <time>2013-08-24T10:29:11.000Z</time>
      </trkpt>
      <trkpt lat="50.48984" lon="2.24579">
        <ele>203</ele>
        <time>2013-08-24T10:29:14.000Z</time>
      </trkpt>
      <trkpt lat="50.48994" lon="2.24561">
        <ele>202</ele>
        <time>2013-08-24T10:29:17.000Z</time>
      </trkpt>
      <trkpt lat="50.49002" lon="2.24544">
        <ele>200</ele>
        <time>2013-08-24T10:29:20.000Z</time>
      </trkpt>
      <trkpt lat="50.49011" lon="2.24526">
        <ele>198</ele>
        <time>2013-08-24T10:29:23.000Z</time>
      </trkpt>
      <trkpt lat="50.49022" lon="2.24506">
        <ele>196</ele>
        <time>2013-08-24T10:29:26.000Z</time>
      </trkpt>
      <trkpt lat="50.49032" lon="2.24485">
        <ele>195</ele>
        <time>2013-08-24T10:29:29.000Z</time>
      </trkpt>
      <trkpt lat="50.49044" lon="2.24463">
        <ele>194</ele>
        <time>2013-08-24T10:29:32.000Z</time>
      </trkpt>
      <trkpt lat="50.49055" lon="2.24441">
        <ele>194</ele>
        <time>2013-08-24T10:29:35.000Z</time>
      </trkpt>
      <trkpt lat="50.49066" lon="2.24423">
        <ele>195</ele>
        <time>2013-08-24T10:29:38.000Z</time>
      </trkpt>
      <trkpt lat="50.49076" lon="2.24404">
        <ele>194</ele>
        <time>2013-08-24T10:29:41.000Z</time>
      </trkpt>
      <trkpt lat="50.49086" lon="2.24386">
        <ele>194</ele>
        <time>2013-08-24T10:29:44.000Z</time>
      </trkpt>
      <trkpt lat="50.49097" lon="2.2437">
        <ele>195</ele>
        <time>2013-08-24T10:29:47.000Z</time>
      </trkpt>
      <trkpt lat="50.49107" lon="2.24354">
        <ele>197</ele>
        <time>2013-08-24T10:29:50.000Z</time>
      </trkpt>
      <trkpt lat="50.49116" lon="2.24338">
        <ele>198</ele>
        <time>2013-08-24T10:29:53.000Z</time>
      </trkpt>
      <trkpt lat="50.49125" lon="2.24322">
        <ele>199</ele>
        <time>2013-08-24T10:29:56.000Z</time>
      </trkpt>
      <trkpt lat="50.49134" lon="2.24307">
        <ele>200</ele>
        <time>2013-08-24T10:29:59.000Z</time>
      </trkpt>
      <trkpt lat="50.49143" lon="2.24291">
        <ele>199</ele>
        <time>2013-08-24T10:30:02.000Z</time>
      </trkpt>
      <trkpt lat="50.49158" lon="2.24266">
        <ele>198</ele>
        <time>2013-08-24T10:30:08.000Z</time>
      </trkpt>
      <trkpt lat="50.4917" lon="2.24246">
        <ele>196</ele>
        <time>2013-08-24T10:40:26.000Z</time>
      </trkpt>
      <trkpt lat="50.49181" lon="2.24229">
        <ele>195</ele>
        <time>2013-08-24T10:40:29.000Z</time>
      </trkpt>
      <trkpt lat="50.49192" lon="2.24212">
        <ele>193</ele>
        <time>2013-08-24T10:40:32.000Z</time>
      </trkpt>
      <trkpt lat="50.49205" lon="2.24193">
        <ele>191</ele>
        <time>2013-08-24T10:40:35.000Z</time>
      </trkpt>
      <trkpt lat="50.49218" lon="2.24174">
        <ele>190</ele>
        <time>2013-08-24T10:40:38.000Z</time>
      </trkpt>
      <trkpt lat="50.49247" lon="2.24132">
        <ele>189</ele>
        <time>2013-08-24T10:40:41.000Z</time>
      </trkpt>
      <trkpt lat="50.49265" lon="2.24107">
        <ele>187</ele>
        <time>2013-08-24T10:40:44.000Z</time>
      </trkpt>
      <trkpt lat="50.49279" lon="2.24076">
        <ele>187</ele>
        <time>2013-08-24T10:40:47.000Z</time>
      </trkpt>
      <trkpt lat="50.49278" lon="2.24042">
        <ele>186</ele>
        <time>2013-08-24T10:40:50.000Z</time>
      </trkpt>
      <trkpt lat="50.49274" lon="2.24013">
        <ele>185</ele>
        <time>2013-08-24T10:40:53.000Z</time>
      </trkpt>
      <trkpt lat="50.49273" lon="2.23983">
        <ele>185</ele>
        <time>2013-08-24T10:40:56.000Z</time>
      </trkpt>
      <trkpt lat="50.49273" lon="2.23956">
        <ele>185</ele>
        <time>2013-08-24T10:40:59.000Z</time>
      </trkpt>
      <trkpt lat="50.49273" lon="2.23933">
        <ele>186</ele>
        <time>2013-08-24T10:41:02.000Z</time>
      </trkpt>
      <trkpt lat="50.49272" lon="2.23911">
        <ele>187</ele>
        <time>2013-08-24T10:41:05.000Z</time>
      </trkpt>
      <trkpt lat="50.49272" lon="2.2389">
        <ele>189</ele>
        <time>2013-08-24T10:41:08.000Z</time>
      </trkpt>
      <trkpt lat="50.49271" lon="2.23853">
        <ele>191</ele>
        <time>2013-08-24T10:41:14.000Z</time>
      </trkpt>
      <trkpt lat="50.49271" lon="2.23819">
        <ele>191</ele>
        <time>2013-08-24T10:41:20.000Z</time>
      </trkpt>
      <trkpt lat="50.49305" lon="2.23786">
        <ele>194</ele>
        <time>2013-08-24T10:41:26.000Z</time>
      </trkpt>
      <trkpt lat="50.49315" lon="2.2375">
        <ele>195</ele>
        <time>2013-08-24T10:41:32.000Z</time>
      </trkpt>
      <trkpt lat="50.49325" lon="2.23713">
        <ele>196</ele>
        <time>2013-08-24T10:41:38.000Z</time>
      </trkpt>
      <trkpt lat="50.49335" lon="2.2368">
        <ele>196</ele>
        <time>2013-08-24T10:41:44.000Z</time>
      </trkpt>
      <trkpt lat="50.49341" lon="2.23643">
        <ele>196</ele>
        <time>2013-08-24T10:41:50.000Z</time>
      </trkpt>
      <trkpt lat="50.49352" lon="2.23605">
        <ele>197</ele>
        <time>2013-08-24T10:41:56.000Z</time>
      </trkpt>
      <trkpt lat="50.49359" lon="2.23585">
        <ele>197</ele>
        <time>2013-08-24T10:41:59.000Z</time>
      </trkpt>
      <trkpt lat="50.49368" lon="2.23566">
        <ele>198</ele>
        <time>2013-08-24T10:42:02.000Z</time>
      </trkpt>
      <trkpt lat="50.49377" lon="2.23549">
        <ele>197</ele>
        <time>2013-08-24T10:42:05.000Z</time>
      </trkpt>
      <trkpt lat="50.49387" lon="2.23531">
        <ele>197</ele>
        <time>2013-08-24T10:42:08.000Z</time>
      </trkpt>
      <trkpt lat="50.49398" lon="2.23513">
        <ele>196</ele>
        <time>2013-08-24T10:42:11.000Z</time>
      </trkpt>
      <trkpt lat="50.49408" lon="2.23496">
        <ele>196</ele>
        <time>2013-08-24T10:42:14.000Z</time>
      </trkpt>
      <trkpt lat="50.49417" lon="2.23477">
        <ele>196</ele>
        <time>2013-08-24T10:42:17.000Z</time>
      </trkpt>
      <trkpt lat="50.49427" lon="2.2346">
        <ele>195</ele>
        <time>2013-08-24T10:42:20.000Z</time>
      </trkpt>
      <trkpt lat="50.49436" lon="2.23442">
        <ele>194</ele>
        <time>2013-08-24T10:42:23.000Z</time>
      </trkpt>
      <trkpt lat="50.49446" lon="2.23424">
        <ele>193</ele>
        <time>2013-08-24T10:42:26.000Z</time>
      </trkpt>
      <trkpt lat="50.49456" lon="2.23406">
        <ele>193</ele>
        <time>2013-08-24T10:42:29.000Z</time>
      </trkpt>
      <trkpt lat="50.49466" lon="2.23386">
        <ele>194</ele>
        <time>2013-08-24T10:42:32.000Z</time>
      </trkpt>
      <trkpt lat="50.49476" lon="2.23367">
        <ele>195</ele>
        <time>2013-08-24T10:42:35.000Z</time>
      </trkpt>
      <trkpt lat="50.49486" lon="2.23347">
        <ele>196</ele>
        <time>2013-08-24T10:42:38.000Z</time>
      </trkpt>
      <trkpt lat="50.49497" lon="2.23326">
        <ele>196</ele>
        <time>2013-08-24T10:42:41.000Z</time>
      </trkpt>
      <trkpt lat="50.49509" lon="2.23305">
        <ele>196</ele>
        <time>2013-08-24T10:42:44.000Z</time>
      </trkpt>
      <trkpt lat="50.49521" lon="2.23282">
        <ele>195</ele>
        <time>2013-08-24T10:42:47.000Z</time>
      </trkpt>
      <trkpt lat="50.49533" lon="2.23259">
        <ele>195</ele>
        <time>2013-08-24T10:42:50.000Z</time>
      </trkpt>
      <trkpt lat="50.49545" lon="2.23235">
        <ele>193</ele>
        <time>2013-08-24T10:42:53.000Z</time>
      </trkpt>
      <trkpt lat="50.49558" lon="2.23211">
        <ele>192</ele>
        <time>2013-08-24T10:42:56.000Z</time>
      </trkpt>
      <trkpt lat="50.49571" lon="2.23186">
        <ele>192</ele>
        <time>2013-08-24T10:42:59.000Z</time>
      </trkpt>
      <trkpt lat="50.49584" lon="2.23162">
        <ele>191</ele>
        <time>2013-08-24T10:43:02.000Z</time>
      </trkpt>
      <trkpt lat="50.49597" lon="2.23139">
        <ele>192</ele>
        <time>2013-08-24T10:43:05.000Z</time>
      </trkpt>
      <trkpt lat="50.49609" lon="2.23116">
        <ele>193</ele>
        <time>2013-08-24T10:43:08.000Z</time>
      </trkpt>
      <trkpt lat="50.49621" lon="2.23094">
        <ele>194</ele>
        <time>2013-08-24T10:43:11.000Z</time>
      </trkpt>
      <trkpt lat="50.49632" lon="2.23073">
        <ele>193</ele>
        <time>2013-08-24T10:43:14.000Z</time>
      </trkpt>
      <trkpt lat="50.49643" lon="2.23053">
        <ele>194</ele>
        <time>2013-08-24T10:43:17.000Z</time>
      </trkpt>
      <trkpt lat="50.49653" lon="2.23033">
        <ele>194</ele>
        <time>2013-08-24T10:43:20.000Z</time>
      </trkpt>
      <trkpt lat="50.49664" lon="2.23013">
        <ele>194</ele>
        <time>2013-08-24T10:43:23.000Z</time>
      </trkpt>
      <trkpt lat="50.49675" lon="2.22992">
        <ele>195</ele>
        <time>2013-08-24T10:43:26.000Z</time>
      </trkpt>
      <trkpt lat="50.49686" lon="2.22971">
        <ele>195</ele>
        <time>2013-08-24T10:43:32.000Z</time>
      </trkpt>
      <trkpt lat="50.49695" lon="2.22951">
        <ele>196</ele>
        <time>2013-08-24T10:43:32.000Z</time>
      </trkpt>
      <trkpt lat="50.49705" lon="2.2293">
        <ele>197</ele>
        <time>2013-08-24T10:43:35.000Z</time>
      </trkpt>
      <trkpt lat="50.49715" lon="2.2291">
        <ele>196</ele>
        <time>2013-08-24T10:43:38.000Z</time>
      </trkpt>
      <trkpt lat="50.49724" lon="2.22889">
        <ele>196</ele>
        <time>2013-08-24T10:43:41.000Z</time>
      </trkpt>
      <trkpt lat="50.49734" lon="2.22868">
        <ele>196</ele>
        <time>2013-08-24T10:43:44.000Z</time>
      </trkpt>
      <trkpt lat="50.49744" lon="2.22848">
        <ele>196</ele>
        <time>2013-08-24T10:43:47.000Z</time>
      </trkpt>
      <trkpt lat="50.49754" lon="2.22827">
        <ele>196</ele>
        <time>2013-08-24T10:43:50.000Z</time>
      </trkpt>
      <trkpt lat="50.49763" lon="2.22806">
        <ele>196</ele>
        <time>2013-08-24T10:43:53.000Z</time>
      </trkpt>
      <trkpt lat="50.49773" lon="2.22786">
        <ele>196</ele>
        <time>2013-08-24T10:43:56.000Z</time>
      </trkpt>
      <trkpt lat="50.49782" lon="2.22766">
        <ele>196</ele>
        <time>2013-08-24T10:43:59.000Z</time>
      </trkpt>
      <trkpt lat="50.49791" lon="2.22745">
        <ele>196</ele>
        <time>2013-08-24T10:44:03.000Z</time>
      </trkpt>
      <trkpt lat="50.49801" lon="2.22722">
        <ele>195</ele>
        <time>2013-08-24T10:44:05.000Z</time>
      </trkpt>
      <trkpt lat="50.49813" lon="2.22697">
        <ele>195</ele>
        <time>2013-08-24T10:44:08.000Z</time>
      </trkpt>
      <trkpt lat="50.49826" lon="2.22673">
        <ele>194</ele>
        <time>2013-08-24T10:44:11.000Z</time>
      </trkpt>
      <trkpt lat="50.49838" lon="2.22647">
        <ele>194</ele>
        <time>2013-08-24T10:44:14.000Z</time>
      </trkpt>
      <trkpt lat="50.49849" lon="2.22622">
        <ele>193</ele>
        <time>2013-08-24T10:44:17.000Z</time>
      </trkpt>
      <trkpt lat="50.49862" lon="2.22597">
        <ele>192</ele>
        <time>2013-08-24T10:44:20.000Z</time>
      </trkpt>
      <trkpt lat="50.49874" lon="2.2257">
        <ele>192</ele>
        <time>2013-08-24T10:44:23.000Z</time>
      </trkpt>
      <trkpt lat="50.49886" lon="2.22545">
        <ele>192</ele>
        <time>2013-08-24T10:44:26.000Z</time>
      </trkpt>
      <trkpt lat="50.49898" lon="2.2252">
        <ele>193</ele>
        <time>2013-08-24T10:44:29.000Z</time>
      </trkpt>
      <trkpt lat="50.49908" lon="2.22498">
        <ele>193</ele>
        <time>2013-08-24T10:44:32.000Z</time>
      </trkpt>
      <trkpt lat="50.49918" lon="2.22476">
        <ele>194</ele>
        <time>2013-08-24T10:44:35.000Z</time>
      </trkpt>
      <trkpt lat="50.49928" lon="2.22456">
        <ele>193</ele>
        <time>2013-08-24T10:44:38.000Z</time>
      </trkpt>
      <trkpt lat="50.49937" lon="2.22435">
        <ele>193</ele>
        <time>2013-08-24T10:44:41.000Z</time>
      </trkpt>
      <trkpt lat="50.49947" lon="2.22415">
        <ele>194</ele>
        <time>2013-08-24T10:44:44.000Z</time>
      </trkpt>
      <trkpt lat="50.49956" lon="2.22396">
        <ele>196</ele>
        <time>2013-08-24T10:44:47.000Z</time>
      </trkpt>
      <trkpt lat="50.49965" lon="2.22377">
        <ele>196</ele>
        <time>2013-08-24T10:44:50.000Z</time>
      </trkpt>
      <trkpt lat="50.49974" lon="2.22358">
        <ele>196</ele>
        <time>2013-08-24T10:44:53.000Z</time>
      </trkpt>
      <trkpt lat="50.49983" lon="2.22338">
        <ele>196</ele>
        <time>2013-08-24T10:44:57.000Z</time>
      </trkpt>
      <trkpt lat="50.4999" lon="2.22318">
        <ele>197</ele>
        <time>2013-08-24T10:45:01.000Z</time>
      </trkpt>
      <trkpt lat="50.49999" lon="2.223">
        <ele>198</ele>
        <time>2013-08-24T10:45:02.000Z</time>
      </trkpt>
      <trkpt lat="50.50008" lon="2.22282">
        <ele>198</ele>
        <time>2013-08-24T10:45:05.000Z</time>
      </trkpt>
      <trkpt lat="50.50016" lon="2.22264">
        <ele>198</ele>
        <time>2013-08-24T10:45:08.000Z</time>
      </trkpt>
      <trkpt lat="50.50025" lon="2.22247">
        <ele>198</ele>
        <time>2013-08-24T10:45:11.000Z</time>
      </trkpt>
      <trkpt lat="50.50034" lon="2.2223">
        <ele>197</ele>
        <time>2013-08-24T10:45:14.000Z</time>
      </trkpt>
      <trkpt lat="50.5005" lon="2.22221">
        <ele>196</ele>
        <time>2013-08-24T10:45:17.000Z</time>
      </trkpt>
      <trkpt lat="50.50061" lon="2.22205">
        <ele>197</ele>
        <time>2013-08-24T10:45:20.000Z</time>
      </trkpt>
      <trkpt lat="50.50072" lon="2.22189">
        <ele>198</ele>
        <time>2013-08-24T10:45:23.000Z</time>
      </trkpt>
      <trkpt lat="50.50083" lon="2.22172">
        <ele>199</ele>
        <time>2013-08-24T10:45:26.000Z</time>
      </trkpt>
      <trkpt lat="50.50095" lon="2.22156">
        <ele>200</ele>
        <time>2013-08-24T10:45:32.000Z</time>
      </trkpt>
      <trkpt lat="50.50106" lon="2.2214">
        <ele>199</ele>
        <time>2013-08-24T10:45:32.000Z</time>
      </trkpt>
      <trkpt lat="50.50117" lon="2.22124">
        <ele>198</ele>
        <time>2013-08-24T10:45:35.000Z</time>
      </trkpt>
      <trkpt lat="50.50129" lon="2.22108">
        <ele>199</ele>
        <time>2013-08-24T10:45:38.000Z</time>
      </trkpt>
      <trkpt lat="50.50139" lon="2.22092">
        <ele>199</ele>
        <time>2013-08-24T10:45:41.000Z</time>
      </trkpt>
      <trkpt lat="50.50157" lon="2.22069">
        <ele>198</ele>
        <time>2013-08-24T10:45:47.000Z</time>
      </trkpt>
      <trkpt lat="50.50174" lon="2.22042">
        <ele>198</ele>
        <time>2013-08-24T10:45:53.000Z</time>
      </trkpt>
      <trkpt lat="50.50183" lon="2.22026">
        <ele>198</ele>
        <time>2013-08-24T10:45:56.000Z</time>
      </trkpt>
      <trkpt lat="50.50191" lon="2.22009">
        <ele>198</ele>
        <time>2013-08-24T10:46:05.000Z</time>
      </trkpt>
      <trkpt lat="50.50199" lon="2.2199">
        <ele>197</ele>
        <time>2013-08-24T10:46:05.000Z</time>
      </trkpt>
      <trkpt lat="50.50206" lon="2.21972">
        <ele>196</ele>
        <time>2013-08-24T10:46:05.000Z</time>
      </trkpt>
      <trkpt lat="50.50214" lon="2.21953">
        <ele>196</ele>
        <time>2013-08-24T10:46:08.000Z</time>
      </trkpt>
      <trkpt lat="50.50221" lon="2.21935">
        <ele>197</ele>
        <time>2013-08-24T10:46:11.000Z</time>
      </trkpt>
      <trkpt lat="50.50228" lon="2.21916">
        <ele>197</ele>
        <time>2013-08-24T10:46:14.000Z</time>
      </trkpt>
      <trkpt lat="50.50235" lon="2.21897">
        <ele>197</ele>
        <time>2013-08-24T10:46:17.000Z</time>
      </trkpt>
      <trkpt lat="50.50244" lon="2.21874">
        <ele>196</ele>
        <time>2013-08-24T10:46:20.000Z</time>
      </trkpt>
      <trkpt lat="50.50254" lon="2.21848">
        <ele>198</ele>
        <time>2013-08-24T10:46:23.000Z</time>
      </trkpt>
      <trkpt lat="50.50265" lon="2.21823">
        <ele>199</ele>
        <time>2013-08-24T10:46:26.000Z</time>
      </trkpt>
      <trkpt lat="50.50275" lon="2.21797">
        <ele>197</ele>
        <time>2013-08-24T10:46:29.000Z</time>
      </trkpt>
      <trkpt lat="50.5029" lon="2.21774">
        <ele>195</ele>
        <time>2013-08-24T10:46:32.000Z</time>
      </trkpt>
      <trkpt lat="50.50306" lon="2.21755">
        <ele>192</ele>
        <time>2013-08-24T10:46:35.000Z</time>
      </trkpt>
      <trkpt lat="50.50325" lon="2.21746">
        <ele>189</ele>
        <time>2013-08-24T10:46:38.000Z</time>
      </trkpt>
      <trkpt lat="50.50348" lon="2.21738">
        <ele>188</ele>
        <time>2013-08-24T10:46:41.000Z</time>
      </trkpt>
      <trkpt lat="50.50372" lon="2.2173">
        <ele>187</ele>
        <time>2013-08-24T10:46:44.000Z</time>
      </trkpt>
      <trkpt lat="50.50397" lon="2.21722">
        <ele>187</ele>
        <time>2013-08-24T10:46:47.000Z</time>
      </trkpt>
      <trkpt lat="50.50423" lon="2.21715">
        <ele>185</ele>
        <time>2013-08-24T10:46:50.000Z</time>
      </trkpt>
      <trkpt lat="50.50454" lon="2.21709">
        <ele>182</ele>
        <time>2013-08-24T10:46:53.000Z</time>
      </trkpt>
      <trkpt lat="50.50485" lon="2.21703">
        <ele>178</ele>
        <time>2013-08-24T10:46:56.000Z</time>
      </trkpt>
      <trkpt lat="50.50515" lon="2.21694">
        <ele>176</ele>
        <time>2013-08-24T10:47:11.000Z</time>
      </trkpt>
      <trkpt lat="50.50548" lon="2.21679">
        <ele>174</ele>
        <time>2013-08-24T10:47:11.000Z</time>
      </trkpt>
      <trkpt lat="50.50578" lon="2.21663">
        <ele>173</ele>
        <time>2013-08-24T10:47:11.000Z</time>
      </trkpt>
      <trkpt lat="50.50607" lon="2.21646">
        <ele>170</ele>
        <time>2013-08-24T10:47:11.000Z</time>
      </trkpt>
      <trkpt lat="50.50638" lon="2.21632">
        <ele>168</ele>
        <time>2013-08-24T10:47:11.000Z</time>
      </trkpt>
      <trkpt lat="50.50667" lon="2.2162">
        <ele>167</ele>
        <time>2013-08-24T10:47:14.000Z</time>
      </trkpt>
      <trkpt lat="50.50695" lon="2.2162">
        <ele>165</ele>
        <time>2013-08-24T10:47:17.000Z</time>
      </trkpt>
      <trkpt lat="50.50723" lon="2.21631">
        <ele>163</ele>
        <time>2013-08-24T10:47:20.000Z</time>
      </trkpt>
      <trkpt lat="50.50744" lon="2.21648">
        <ele>162</ele>
        <time>2013-08-24T10:47:23.000Z</time>
      </trkpt>
      <trkpt lat="50.5076" lon="2.21676">
        <ele>160</ele>
        <time>2013-08-24T10:47:26.000Z</time>
      </trkpt>
      <trkpt lat="50.50776" lon="2.21706">
        <ele>159</ele>
        <time>2013-08-24T10:47:35.000Z</time>
      </trkpt>
      <trkpt lat="50.5079" lon="2.21734">
        <ele>158</ele>
        <time>2013-08-24T10:47:35.000Z</time>
      </trkpt>
      <trkpt lat="50.50802" lon="2.2176">
        <ele>157</ele>
        <time>2013-08-24T10:47:35.000Z</time>
      </trkpt>
      <trkpt lat="50.50813" lon="2.21785">
        <ele>157</ele>
        <time>2013-08-24T10:47:38.000Z</time>
      </trkpt>
      <trkpt lat="50.50823" lon="2.21809">
        <ele>157</ele>
        <time>2013-08-24T10:47:41.000Z</time>
      </trkpt>
      <trkpt lat="50.50834" lon="2.2183">
        <ele>156</ele>
        <time>2013-08-24T10:47:44.000Z</time>
      </trkpt>
      <trkpt lat="50.50845" lon="2.21853">
        <ele>157</ele>
        <time>2013-08-24T10:47:47.000Z</time>
      </trkpt>
      <trkpt lat="50.50856" lon="2.21873">
        <ele>157</ele>
        <time>2013-08-24T10:47:50.000Z</time>
      </trkpt>
      <trkpt lat="50.50868" lon="2.21895">
        <ele>157</ele>
        <time>2013-08-24T10:47:53.000Z</time>
      </trkpt>
      <trkpt lat="50.50879" lon="2.21917">
        <ele>157</ele>
        <time>2013-08-24T10:47:56.000Z</time>
      </trkpt>
      <trkpt lat="50.50889" lon="2.21939">
        <ele>156</ele>
        <time>2013-08-24T10:47:59.000Z</time>
      </trkpt>
      <trkpt lat="50.50897" lon="2.21963">
        <ele>156</ele>
        <time>2013-08-24T10:48:02.000Z</time>
      </trkpt>
      <trkpt lat="50.50906" lon="2.21984">
        <ele>157</ele>
        <time>2013-08-24T10:48:05.000Z</time>
      </trkpt>
      <trkpt lat="50.50914" lon="2.22004">
        <ele>157</ele>
        <time>2013-08-24T10:48:08.000Z</time>
      </trkpt>
      <trkpt lat="50.50922" lon="2.22026">
        <ele>158</ele>
        <time>2013-08-24T10:48:11.000Z</time>
      </trkpt>
      <trkpt lat="50.5093" lon="2.22047">
        <ele>158</ele>
        <time>2013-08-24T10:48:14.000Z</time>
      </trkpt>
      <trkpt lat="50.50938" lon="2.22068">
        <ele>158</ele>
        <time>2013-08-24T10:48:17.000Z</time>
      </trkpt>
      <trkpt lat="50.50946" lon="2.22088">
        <ele>158</ele>
        <time>2013-08-24T10:48:20.000Z</time>
      </trkpt>
      <trkpt lat="50.50954" lon="2.22108">
        <ele>158</ele>
        <time>2013-08-24T10:48:23.000Z</time>
      </trkpt>
      <trkpt lat="50.50962" lon="2.22127">
        <ele>157</ele>
        <time>2013-08-24T10:48:26.000Z</time>
      </trkpt>
      <trkpt lat="50.50966" lon="2.22151">
        <ele>157</ele>
        <time>2013-08-24T10:48:29.000Z</time>
      </trkpt>
      <trkpt lat="50.50974" lon="2.22171">
        <ele>157</ele>
        <time>2013-08-24T10:48:32.000Z</time>
      </trkpt>
      <trkpt lat="50.50981" lon="2.22191">
        <ele>157</ele>
        <time>2013-08-24T10:48:35.000Z</time>
      </trkpt>
      <trkpt lat="50.50989" lon="2.22211">
        <ele>157</ele>
        <time>2013-08-24T10:48:38.000Z</time>
      </trkpt>
      <trkpt lat="50.50996" lon="2.2223">
        <ele>157</ele>
        <time>2013-08-24T10:48:41.000Z</time>
      </trkpt>
      <trkpt lat="50.51014" lon="2.22241">
        <ele>158</ele>
        <time>2013-08-24T10:48:44.000Z</time>
      </trkpt>
      <trkpt lat="50.51028" lon="2.22252">
        <ele>159</ele>
        <time>2013-08-24T10:48:47.000Z</time>
      </trkpt>
      <trkpt lat="50.51042" lon="2.22262">
        <ele>159</ele>
        <time>2013-08-24T10:48:50.000Z</time>
      </trkpt>
      <trkpt lat="50.51055" lon="2.22272">
        <ele>160</ele>
        <time>2013-08-24T10:48:53.000Z</time>
      </trkpt>
      <trkpt lat="50.5107" lon="2.22272">
        <ele>161</ele>
        <time>2013-08-24T10:48:56.000Z</time>
      </trkpt>
      <trkpt lat="50.51085" lon="2.22279">
        <ele>163</ele>
        <time>2013-08-24T10:48:59.000Z</time>
      </trkpt>
      <trkpt lat="50.51099" lon="2.22286">
        <ele>163</ele>
        <time>2013-08-24T10:49:03.000Z</time>
      </trkpt>
      <trkpt lat="50.51112" lon="2.22291">
        <ele>164</ele>
        <time>2013-08-24T10:49:05.000Z</time>
      </trkpt>
      <trkpt lat="50.51126" lon="2.22292">
        <ele>164</ele>
        <time>2013-08-24T10:49:08.000Z</time>
      </trkpt>
      <trkpt lat="50.51152" lon="2.22284">
        <ele>165</ele>
        <time>2013-08-24T10:49:14.000Z</time>
      </trkpt>
      <trkpt lat="50.51169" lon="2.22279">
        <ele>165</ele>
        <time>2013-08-24T10:49:17.000Z</time>
      </trkpt>
      <trkpt lat="50.51188" lon="2.22279">
        <ele>165</ele>
        <time>2013-08-24T10:49:20.000Z</time>
      </trkpt>
      <trkpt lat="50.51202" lon="2.22286">
        <ele>164</ele>
        <time>2013-08-24T10:49:23.000Z</time>
      </trkpt>
      <trkpt lat="50.51217" lon="2.223">
        <ele>163</ele>
        <time>2013-08-24T10:49:26.000Z</time>
      </trkpt>
      <trkpt lat="50.5123" lon="2.22309">
        <ele>162</ele>
        <time>2013-08-24T10:49:29.000Z</time>
      </trkpt>
      <trkpt lat="50.51244" lon="2.2232">
        <ele>162</ele>
        <time>2013-08-24T10:49:32.000Z</time>
      </trkpt>
      <trkpt lat="50.51258" lon="2.2233">
        <ele>163</ele>
        <time>2013-08-24T10:49:35.000Z</time>
      </trkpt>
      <trkpt lat="50.51272" lon="2.2234">
        <ele>164</ele>
        <time>2013-08-24T10:49:38.000Z</time>
      </trkpt>
      <trkpt lat="50.51285" lon="2.2235">
        <ele>164</ele>
        <time>2013-08-24T10:49:41.000Z</time>
      </trkpt>
      <trkpt lat="50.51297" lon="2.22359">
        <ele>163</ele>
        <time>2013-08-24T10:49:44.000Z</time>
      </trkpt>
      <trkpt lat="50.51299" lon="2.22412">
        <ele>163</ele>
        <time>2013-08-24T10:49:47.000Z</time>
      </trkpt>
      <trkpt lat="50.51309" lon="2.22428">
        <ele>163</ele>
        <time>2013-08-24T10:49:50.000Z</time>
      </trkpt>
      <trkpt lat="50.51319" lon="2.22444">
        <ele>162</ele>
        <time>2013-08-24T10:49:53.000Z</time>
      </trkpt>
      <trkpt lat="50.51329" lon="2.2246">
        <ele>163</ele>
        <time>2013-08-24T10:49:56.000Z</time>
      </trkpt>
      <trkpt lat="50.5135" lon="2.22486">
        <ele>165</ele>
        <time>2013-08-24T10:50:02.000Z</time>
      </trkpt>
      <trkpt lat="50.51372" lon="2.22508">
        <ele>166</ele>
        <time>2013-08-24T10:50:08.000Z</time>
      </trkpt>
      <trkpt lat="50.51384" lon="2.2252">
        <ele>166</ele>
        <time>2013-08-24T10:50:11.000Z</time>
      </trkpt>
      <trkpt lat="50.51395" lon="2.22535">
        <ele>166</ele>
        <time>2013-08-24T10:50:14.000Z</time>
      </trkpt>
      <trkpt lat="50.51405" lon="2.22548">
        <ele>166</ele>
        <time>2013-08-24T10:50:17.000Z</time>
      </trkpt>
      <trkpt lat="50.51423" lon="2.22571">
        <ele>166</ele>
        <time>2013-08-24T10:50:23.000Z</time>
      </trkpt>
      <trkpt lat="50.51439" lon="2.22591">
        <ele>166</ele>
        <time>2013-08-24T10:50:29.000Z</time>
      </trkpt>
      <trkpt lat="50.51455" lon="2.22617">
        <ele>165</ele>
        <time>2013-08-24T10:50:35.000Z</time>
      </trkpt>
      <trkpt lat="50.51473" lon="2.22644">
        <ele>166</ele>
        <time>2013-08-24T10:50:41.000Z</time>
      </trkpt>
      <trkpt lat="50.51483" lon="2.22659">
        <ele>166</ele>
        <time>2013-08-24T10:50:44.000Z</time>
      </trkpt>
      <trkpt lat="50.51493" lon="2.22674">
        <ele>166</ele>
        <time>2013-08-24T10:50:47.000Z</time>
      </trkpt>
      <trkpt lat="50.51503" lon="2.22688">
        <ele>166</ele>
        <time>2013-08-24T10:50:50.000Z</time>
      </trkpt>
      <trkpt lat="50.51514" lon="2.22703">
        <ele>166</ele>
        <time>2013-08-24T10:50:53.000Z</time>
      </trkpt>
      <trkpt lat="50.51524" lon="2.22718">
        <ele>166</ele>
        <time>2013-08-24T10:50:56.000Z</time>
      </trkpt>
      <trkpt lat="50.51534" lon="2.22734">
        <ele>166</ele>
        <time>2013-08-24T10:50:59.000Z</time>
      </trkpt>
      <trkpt lat="50.51545" lon="2.2275">
        <ele>166</ele>
        <time>2013-08-24T10:51:02.000Z</time>
      </trkpt>
      <trkpt lat="50.51555" lon="2.22765">
        <ele>167</ele>
        <time>2013-08-24T10:51:05.000Z</time>
      </trkpt>
      <trkpt lat="50.51567" lon="2.2278">
        <ele>167</ele>
        <time>2013-08-24T10:51:08.000Z</time>
      </trkpt>
      <trkpt lat="50.5158" lon="2.22793">
        <ele>169</ele>
        <time>2013-08-24T10:51:11.000Z</time>
      </trkpt>
      <trkpt lat="50.51593" lon="2.22806">
        <ele>170</ele>
        <time>2013-08-24T10:51:14.000Z</time>
      </trkpt>
      <trkpt lat="50.51605" lon="2.2282">
        <ele>170</ele>
        <time>2013-08-24T10:51:17.000Z</time>
      </trkpt>
      <trkpt lat="50.51617" lon="2.22832">
        <ele>170</ele>
        <time>2013-08-24T10:51:20.000Z</time>
      </trkpt>
      <trkpt lat="50.51629" lon="2.22845">
        <ele>171</ele>
        <time>2013-08-24T10:51:23.000Z</time>
      </trkpt>
      <trkpt lat="50.51643" lon="2.22857">
        <ele>171</ele>
        <time>2013-08-24T10:51:26.000Z</time>
      </trkpt>
      <trkpt lat="50.51656" lon="2.22868">
        <ele>171</ele>
        <time>2013-08-24T10:51:29.000Z</time>
      </trkpt>
      <trkpt lat="50.5167" lon="2.22879">
        <ele>171</ele>
        <time>2013-08-24T10:51:32.000Z</time>
      </trkpt>
      <trkpt lat="50.51684" lon="2.22889">
        <ele>171</ele>
        <time>2013-08-24T10:51:35.000Z</time>
      </trkpt>
      <trkpt lat="50.51699" lon="2.229">
        <ele>171</ele>
        <time>2013-08-24T10:51:38.000Z</time>
      </trkpt>
      <trkpt lat="50.51714" lon="2.22907">
        <ele>171</ele>
        <time>2013-08-24T10:51:41.000Z</time>
      </trkpt>
      <trkpt lat="50.51728" lon="2.22917">
        <ele>171</ele>
        <time>2013-08-24T10:51:44.000Z</time>
      </trkpt>
      <trkpt lat="50.51743" lon="2.22926">
        <ele>170</ele>
        <time>2013-08-24T10:51:47.000Z</time>
      </trkpt>
      <trkpt lat="50.51757" lon="2.22938">
        <ele>170</ele>
        <time>2013-08-24T10:51:50.000Z</time>
      </trkpt>
      <trkpt lat="50.51772" lon="2.22948">
        <ele>171</ele>
        <time>2013-08-24T10:51:53.000Z</time>
      </trkpt>
      <trkpt lat="50.51783" lon="2.22967">
        <ele>171</ele>
        <time>2013-08-24T10:51:56.000Z</time>
      </trkpt>
      <trkpt lat="50.51795" lon="2.22982">
        <ele>171</ele>
        <time>2013-08-24T10:51:59.000Z</time>
      </trkpt>
      <trkpt lat="50.51807" lon="2.22997">
        <ele>171</ele>
        <time>2013-08-24T10:52:02.000Z</time>
      </trkpt>
      <trkpt lat="50.51819" lon="2.23011">
        <ele>171</ele>
        <time>2013-08-24T10:52:05.000Z</time>
      </trkpt>
      <trkpt lat="50.51832" lon="2.23026">
        <ele>171</ele>
        <time>2013-08-24T10:52:08.000Z</time>
      </trkpt>
      <trkpt lat="50.51844" lon="2.23041">
        <ele>172</ele>
        <time>2013-08-24T10:52:11.000Z</time>
      </trkpt>
      <trkpt lat="50.51855" lon="2.23056">
        <ele>172</ele>
        <time>2013-08-24T10:52:14.000Z</time>
      </trkpt>
      <trkpt lat="50.51867" lon="2.23072">
        <ele>172</ele>
        <time>2013-08-24T10:52:17.000Z</time>
      </trkpt>
      <trkpt lat="50.51878" lon="2.23087">
        <ele>173</ele>
        <time>2013-08-24T10:52:20.000Z</time>
      </trkpt>
      <trkpt lat="50.51889" lon="2.23105">
        <ele>173</ele>
        <time>2013-08-24T10:52:23.000Z</time>
      </trkpt>
      <trkpt lat="50.519" lon="2.23121">
        <ele>173</ele>
        <time>2013-08-24T10:52:26.000Z</time>
      </trkpt>
      <trkpt lat="50.51911" lon="2.23136">
        <ele>173</ele>
        <time>2013-08-24T10:52:29.000Z</time>
      </trkpt>
      <trkpt lat="50.51929" lon="2.23162">
        <ele>174</ele>
        <time>2013-08-24T10:52:35.000Z</time>
      </trkpt>
      <trkpt lat="50.51944" lon="2.2319">
        <ele>174</ele>
        <time>2013-08-24T10:52:41.000Z</time>
      </trkpt>
      <trkpt lat="50.51954" lon="2.23207">
        <ele>174</ele>
        <time>2013-08-24T10:52:44.000Z</time>
      </trkpt>
      <trkpt lat="50.51963" lon="2.23225">
        <ele>174</ele>
        <time>2013-08-24T10:52:47.000Z</time>
      </trkpt>
      <trkpt lat="50.51978" lon="2.23253">
        <ele>173</ele>
        <time>2013-08-24T10:52:53.000Z</time>
      </trkpt>
      <trkpt lat="50.51993" lon="2.23283">
        <ele>173</ele>
        <time>2013-08-24T10:52:59.000Z</time>
      </trkpt>
      <trkpt lat="50.52006" lon="2.23306">
        <ele>174</ele>
        <time>2013-08-24T10:53:05.000Z</time>
      </trkpt>
      <trkpt lat="50.5202" lon="2.2333">
        <ele>174</ele>
        <time>2013-08-24T10:53:11.000Z</time>
      </trkpt>
      <trkpt lat="50.52039" lon="2.23349">
        <ele>176</ele>
        <time>2013-08-24T10:53:17.000Z</time>
      </trkpt>
      <trkpt lat="50.5206" lon="2.23363">
        <ele>176</ele>
        <time>2013-08-24T10:53:23.000Z</time>
      </trkpt>
      <trkpt lat="50.52077" lon="2.23375">
        <ele>177</ele>
        <time>2013-08-24T10:53:29.000Z</time>
      </trkpt>
      <trkpt lat="50.52094" lon="2.23386">
        <ele>177</ele>
        <time>2013-08-24T10:53:35.000Z</time>
      </trkpt>
      <trkpt lat="50.52111" lon="2.23398">
        <ele>177</ele>
        <time>2013-08-24T10:53:41.000Z</time>
      </trkpt>
      <trkpt lat="50.52133" lon="2.23409">
        <ele>179</ele>
        <time>2013-08-24T10:53:47.000Z</time>
      </trkpt>
      <trkpt lat="50.52144" lon="2.23416">
        <ele>181</ele>
        <time>2013-08-24T10:53:53.000Z</time>
      </trkpt>
      <trkpt lat="50.52156" lon="2.23423">
        <ele>182</ele>
        <time>2013-08-24T10:53:56.000Z</time>
      </trkpt>
      <trkpt lat="50.52168" lon="2.23428">
        <ele>182</ele>
        <time>2013-08-24T10:54:01.000Z</time>
      </trkpt>
      <trkpt lat="50.5218" lon="2.23432">
        <ele>182</ele>
        <time>2013-08-24T10:54:02.000Z</time>
      </trkpt>
      <trkpt lat="50.52194" lon="2.23433">
        <ele>182</ele>
        <time>2013-08-24T10:54:05.000Z</time>
      </trkpt>
      <trkpt lat="50.52219" lon="2.23434">
        <ele>181</ele>
        <time>2013-08-24T10:54:08.000Z</time>
      </trkpt>
      <trkpt lat="50.52245" lon="2.23436">
        <ele>181</ele>
        <time>2013-08-24T10:54:14.000Z</time>
      </trkpt>
      <trkpt lat="50.52269" lon="2.23439">
        <ele>183</ele>
        <time>2013-08-24T10:54:20.000Z</time>
      </trkpt>
      <trkpt lat="50.52281" lon="2.23452">
        <ele>183</ele>
        <time>2013-08-24T10:54:23.000Z</time>
      </trkpt>
      <trkpt lat="50.52294" lon="2.23458">
        <ele>183</ele>
        <time>2013-08-24T10:54:26.000Z</time>
      </trkpt>
      <trkpt lat="50.52318" lon="2.23468">
        <ele>184</ele>
        <time>2013-08-24T10:54:32.000Z</time>
      </trkpt>
      <trkpt lat="50.52338" lon="2.23477">
        <ele>184</ele>
        <time>2013-08-24T10:54:38.000Z</time>
      </trkpt>
      <trkpt lat="50.52359" lon="2.23493">
        <ele>185</ele>
        <time>2013-08-24T10:54:44.000Z</time>
      </trkpt>
      <trkpt lat="50.52383" lon="2.23507">
        <ele>185</ele>
        <time>2013-08-24T10:54:50.000Z</time>
      </trkpt>
      <trkpt lat="50.52406" lon="2.23521">
        <ele>186</ele>
        <time>2013-08-24T10:54:56.000Z</time>
      </trkpt>
      <trkpt lat="50.52429" lon="2.23535">
        <ele>187</ele>
        <time>2013-08-24T10:55:02.000Z</time>
      </trkpt>
      <trkpt lat="50.52451" lon="2.23549">
        <ele>187</ele>
        <time>2013-08-24T10:55:08.000Z</time>
      </trkpt>
      <trkpt lat="50.52475" lon="2.23564">
        <ele>187</ele>
        <time>2013-08-24T10:55:14.000Z</time>
      </trkpt>
      <trkpt lat="50.52497" lon="2.23582">
        <ele>188</ele>
        <time>2013-08-24T10:55:20.000Z</time>
      </trkpt>
      <trkpt lat="50.52518" lon="2.23603">
        <ele>188</ele>
        <time>2013-08-24T10:55:26.000Z</time>
      </trkpt>
      <trkpt lat="50.52538" lon="2.23627">
        <ele>188</ele>
        <time>2013-08-24T10:55:32.000Z</time>
      </trkpt>
      <trkpt lat="50.52556" lon="2.23653">
        <ele>189</ele>
        <time>2013-08-24T10:55:38.000Z</time>
      </trkpt>
      <trkpt lat="50.52566" lon="2.23667">
        <ele>190</ele>
        <time>2013-08-24T10:55:41.000Z</time>
      </trkpt>
      <trkpt lat="50.52575" lon="2.2368">
        <ele>190</ele>
        <time>2013-08-24T10:55:44.000Z</time>
      </trkpt>
      <trkpt lat="50.52594" lon="2.23708">
        <ele>191</ele>
        <time>2013-08-24T10:55:50.000Z</time>
      </trkpt>
      <trkpt lat="50.52613" lon="2.23735">
        <ele>191</ele>
        <time>2013-08-24T10:55:56.000Z</time>
      </trkpt>
      <trkpt lat="50.52631" lon="2.23761">
        <ele>192</ele>
        <time>2013-08-24T10:56:02.000Z</time>
      </trkpt>
      <trkpt lat="50.52651" lon="2.23784">
        <ele>193</ele>
        <time>2013-08-24T10:56:08.000Z</time>
      </trkpt>
      <trkpt lat="50.52672" lon="2.23807">
        <ele>194</ele>
        <time>2013-08-24T10:56:14.000Z</time>
      </trkpt>
      <trkpt lat="50.52683" lon="2.23818">
        <ele>194</ele>
        <time>2013-08-24T10:56:17.000Z</time>
      </trkpt>
      <trkpt lat="50.52694" lon="2.2383">
        <ele>195</ele>
        <time>2013-08-24T10:56:20.000Z</time>
      </trkpt>
      <trkpt lat="50.52716" lon="2.23852">
        <ele>195</ele>
        <time>2013-08-24T10:56:26.000Z</time>
      </trkpt>
      <trkpt lat="50.52736" lon="2.23872">
        <ele>196</ele>
        <time>2013-08-24T10:56:32.000Z</time>
      </trkpt>
      <trkpt lat="50.52753" lon="2.2389">
        <ele>196</ele>
        <time>2013-08-24T10:56:38.000Z</time>
      </trkpt>
      <trkpt lat="50.52768" lon="2.23906">
        <ele>196</ele>
        <time>2013-08-24T10:56:47.000Z</time>
      </trkpt>
      <trkpt lat="50.52781" lon="2.23918">
        <ele>197</ele>
        <time>2013-08-24T10:56:53.000Z</time>
      </trkpt>
      <trkpt lat="50.52802" lon="2.23916">
        <ele>197</ele>
        <time>2013-08-24T10:56:59.000Z</time>
      </trkpt>
      <trkpt lat="50.52819" lon="2.23929">
        <ele>197</ele>
        <time>2013-08-24T10:57:14.000Z</time>
      </trkpt>
      <trkpt lat="50.52831" lon="2.23938">
        <ele>197</ele>
        <time>2013-08-24T10:57:17.000Z</time>
      </trkpt>
      <trkpt lat="50.52842" lon="2.23945">
        <ele>197</ele>
        <time>2013-08-24T10:57:20.000Z</time>
      </trkpt>
      <trkpt lat="50.5285" lon="2.23952">
        <ele>197</ele>
        <time>2013-08-24T10:57:23.000Z</time>
      </trkpt>
      <trkpt lat="50.52859" lon="2.23958">
        <ele>198</ele>
        <time>2013-08-24T10:57:26.000Z</time>
      </trkpt>
      <trkpt lat="50.52876" lon="2.2397">
        <ele>198</ele>
        <time>2013-08-24T10:57:29.000Z</time>
      </trkpt>
      <trkpt lat="50.52893" lon="2.23983">
        <ele>198</ele>
        <time>2013-08-24T10:57:35.000Z</time>
      </trkpt>
      <trkpt lat="50.5291" lon="2.23999">
        <ele>198</ele>
        <time>2013-08-24T10:57:41.000Z</time>
      </trkpt>
      <trkpt lat="50.52927" lon="2.24013">
        <ele>199</ele>
        <time>2013-08-24T10:57:47.000Z</time>
      </trkpt>
      <trkpt lat="50.52943" lon="2.24028">
        <ele>199</ele>
        <time>2013-08-24T10:57:53.000Z</time>
      </trkpt>
      <trkpt lat="50.5296" lon="2.24043">
        <ele>199</ele>
        <time>2013-08-24T10:57:59.000Z</time>
      </trkpt>
      <trkpt lat="50.52977" lon="2.24058">
        <ele>199</ele>
        <time>2013-08-24T10:58:05.000Z</time>
      </trkpt>
      <trkpt lat="50.52993" lon="2.24073">
        <ele>200</ele>
        <time>2013-08-24T10:58:11.000Z</time>
      </trkpt>
      <trkpt lat="50.53011" lon="2.24087">
        <ele>200</ele>
        <time>2013-08-24T10:58:17.000Z</time>
      </trkpt>
      <trkpt lat="50.53028" lon="2.24103">
        <ele>200</ele>
        <time>2013-08-24T10:58:23.000Z</time>
      </trkpt>
      <trkpt lat="50.53046" lon="2.2412">
        <ele>201</ele>
        <time>2013-08-24T10:58:29.000Z</time>
      </trkpt>
      <trkpt lat="50.53064" lon="2.24141">
        <ele>201</ele>
        <time>2013-08-24T10:58:35.000Z</time>
      </trkpt>
      <trkpt lat="50.53082" lon="2.24162">
        <ele>203</ele>
        <time>2013-08-24T10:58:41.000Z</time>
      </trkpt>
      <trkpt lat="50.53101" lon="2.24184">
        <ele>205</ele>
        <time>2013-08-24T10:58:47.000Z</time>
      </trkpt>
      <trkpt lat="50.53119" lon="2.24202">
        <ele>208</ele>
        <time>2013-08-24T10:58:53.000Z</time>
      </trkpt>
      <trkpt lat="50.53137" lon="2.24221">
        <ele>209</ele>
        <time>2013-08-24T10:58:59.000Z</time>
      </trkpt>
      <trkpt lat="50.53158" lon="2.24239">
        <ele>212</ele>
        <time>2013-08-24T10:59:05.000Z</time>
      </trkpt>
      <trkpt lat="50.53181" lon="2.24257">
        <ele>212</ele>
        <time>2013-08-24T10:59:11.000Z</time>
      </trkpt>
      <trkpt lat="50.53193" lon="2.24267">
        <ele>211</ele>
        <time>2013-08-24T10:59:14.000Z</time>
      </trkpt>
      <trkpt lat="50.53215" lon="2.24284">
        <ele>210</ele>
        <time>2013-08-24T10:59:20.000Z</time>
      </trkpt>
      <trkpt lat="50.53237" lon="2.24301">
        <ele>210</ele>
        <time>2013-08-24T10:59:26.000Z</time>
      </trkpt>
      <trkpt lat="50.53258" lon="2.24319">
        <ele>211</ele>
        <time>2013-08-24T10:59:32.000Z</time>
      </trkpt>
      <trkpt lat="50.5328" lon="2.24338">
        <ele>212</ele>
        <time>2013-08-24T10:59:38.000Z</time>
      </trkpt>
      <trkpt lat="50.53302" lon="2.24357">
        <ele>210</ele>
        <time>2013-08-24T10:59:44.000Z</time>
      </trkpt>
      <trkpt lat="50.53323" lon="2.24377">
        <ele>210</ele>
        <time>2013-08-24T10:59:50.000Z</time>
      </trkpt>
      <trkpt lat="50.53345" lon="2.24397">
        <ele>210</ele>
        <time>2013-08-24T10:59:56.000Z</time>
      </trkpt>
      <trkpt lat="50.53356" lon="2.24408">
        <ele>210</ele>
        <time>2013-08-24T10:59:59.000Z</time>
      </trkpt>
      <trkpt lat="50.53368" lon="2.24418">
        <ele>210</ele>
        <time>2013-08-24T11:00:02.000Z</time>
      </trkpt>
      <trkpt lat="50.53379" lon="2.24428">
        <ele>211</ele>
        <time>2013-08-24T11:00:05.000Z</time>
      </trkpt>
      <trkpt lat="50.53401" lon="2.2445">
        <ele>211</ele>
        <time>2013-08-24T11:00:11.000Z</time>
      </trkpt>
      <trkpt lat="50.53411" lon="2.24462">
        <ele>212</ele>
        <time>2013-08-24T11:00:14.000Z</time>
      </trkpt>
      <trkpt lat="50.53422" lon="2.24473">
        <ele>212</ele>
        <time>2013-08-24T11:00:17.000Z</time>
      </trkpt>
      <trkpt lat="50.53433" lon="2.24485">
        <ele>212</ele>
        <time>2013-08-24T11:00:20.000Z</time>
      </trkpt>
      <trkpt lat="50.53455" lon="2.24508">
        <ele>213</ele>
        <time>2013-08-24T11:00:26.000Z</time>
      </trkpt>
      <trkpt lat="50.53465" lon="2.2452">
        <ele>213</ele>
        <time>2013-08-24T11:00:29.000Z</time>
      </trkpt>
      <trkpt lat="50.53476" lon="2.24532">
        <ele>214</ele>
        <time>2013-08-24T11:00:32.000Z</time>
      </trkpt>
      <trkpt lat="50.53496" lon="2.24554">
        <ele>215</ele>
        <time>2013-08-24T11:00:38.000Z</time>
      </trkpt>
      <trkpt lat="50.53514" lon="2.24575">
        <ele>215</ele>
        <time>2013-08-24T11:00:44.000Z</time>
      </trkpt>
      <trkpt lat="50.53532" lon="2.24594">
        <ele>215</ele>
        <time>2013-08-24T11:00:50.000Z</time>
      </trkpt>
      <trkpt lat="50.53539" lon="2.24602">
        <ele>215</ele>
        <time>2013-08-24T11:00:56.000Z</time>
      </trkpt>
      <trkpt lat="50.53546" lon="2.2461">
        <ele>215</ele>
        <time>2013-08-24T11:00:59.000Z</time>
      </trkpt>
      <trkpt lat="50.53551" lon="2.24616">
        <ele>216</ele>
        <time>2013-08-24T11:01:02.000Z</time>
      </trkpt>
      <trkpt lat="50.5356" lon="2.24604">
        <ele>216</ele>
        <time>2013-08-24T11:02:20.000Z</time>
      </trkpt>
      <trkpt lat="50.53564" lon="2.24593">
        <ele>216</ele>
        <time>2013-08-24T11:02:23.000Z</time>
      </trkpt>
      <trkpt lat="50.53567" lon="2.24582">
        <ele>216</ele>
        <time>2013-08-24T11:02:26.000Z</time>
      </trkpt>
      <trkpt lat="50.53569" lon="2.24568">
        <ele>216</ele>
        <time>2013-08-24T11:02:29.000Z</time>
      </trkpt>
      <trkpt lat="50.5357" lon="2.24555">
        <ele>217</ele>
        <time>2013-08-24T11:02:32.000Z</time>
      </trkpt>
      <trkpt lat="50.53572" lon="2.24524">
        <ele>217</ele>
        <time>2013-08-24T11:02:35.000Z</time>
      </trkpt>
      <trkpt lat="50.53574" lon="2.24485">
        <ele>219</ele>
        <time>2013-08-24T11:02:41.000Z</time>
      </trkpt>
      <trkpt lat="50.53576" lon="2.24461">
        <ele>220</ele>
        <time>2013-08-24T11:02:44.000Z</time>
      </trkpt>
      <trkpt lat="50.53579" lon="2.24438">
        <ele>220</ele>
        <time>2013-08-24T11:02:47.000Z</time>
      </trkpt>
      <trkpt lat="50.53582" lon="2.24416">
        <ele>220</ele>
        <time>2013-08-24T11:02:50.000Z</time>
      </trkpt>
      <trkpt lat="50.53585" lon="2.24395">
        <ele>219</ele>
        <time>2013-08-24T11:02:53.000Z</time>
      </trkpt>
      <trkpt lat="50.53588" lon="2.24372">
        <ele>220</ele>
        <time>2013-08-24T11:02:56.000Z</time>
      </trkpt>
      <trkpt lat="50.53591" lon="2.24347">
        <ele>221</ele>
        <time>2013-08-24T11:02:59.000Z</time>
      </trkpt>
      <trkpt lat="50.53594" lon="2.24324">
        <ele>222</ele>
        <time>2013-08-24T11:03:02.000Z</time>
      </trkpt>
      <trkpt lat="50.53598" lon="2.243">
        <ele>222</ele>
        <time>2013-08-24T11:03:05.000Z</time>
      </trkpt>
      <trkpt lat="50.53601" lon="2.24275">
        <ele>223</ele>
        <time>2013-08-24T11:03:08.000Z</time>
      </trkpt>
      <trkpt lat="50.53603" lon="2.2425">
        <ele>224</ele>
        <time>2013-08-24T11:03:11.000Z</time>
      </trkpt>
      <trkpt lat="50.53606" lon="2.24223">
        <ele>224</ele>
        <time>2013-08-24T11:03:14.000Z</time>
      </trkpt>
      <trkpt lat="50.53609" lon="2.24199">
        <ele>224</ele>
        <time>2013-08-24T11:03:17.000Z</time>
      </trkpt>
      <trkpt lat="50.53612" lon="2.24172">
        <ele>224</ele>
        <time>2013-08-24T11:03:20.000Z</time>
      </trkpt>
      <trkpt lat="50.53615" lon="2.24147">
        <ele>224</ele>
        <time>2013-08-24T11:03:23.000Z</time>
      </trkpt>
      <trkpt lat="50.53618" lon="2.24122">
        <ele>222</ele>
        <time>2013-08-24T11:03:26.000Z</time>
      </trkpt>
      <trkpt lat="50.53621" lon="2.24098">
        <ele>221</ele>
        <time>2013-08-24T11:03:29.000Z</time>
      </trkpt>
      <trkpt lat="50.53623" lon="2.24072">
        <ele>222</ele>
        <time>2013-08-24T11:03:32.000Z</time>
      </trkpt>
      <trkpt lat="50.53626" lon="2.24049">
        <ele>222</ele>
        <time>2013-08-24T11:03:35.000Z</time>
      </trkpt>
      <trkpt lat="50.53629" lon="2.24024">
        <ele>221</ele>
        <time>2013-08-24T11:03:38.000Z</time>
      </trkpt>
      <trkpt lat="50.53631" lon="2.23999">
        <ele>221</ele>
        <time>2013-08-24T11:03:41.000Z</time>
      </trkpt>
      <trkpt lat="50.53646" lon="2.23978">
        <ele>221</ele>
        <time>2013-08-24T11:03:44.000Z</time>
      </trkpt>
      <trkpt lat="50.53651" lon="2.23955">
        <ele>221</ele>
        <time>2013-08-24T11:03:47.000Z</time>
      </trkpt>
      <trkpt lat="50.53657" lon="2.23931">
        <ele>220</ele>
        <time>2013-08-24T11:03:50.000Z</time>
      </trkpt>
      <trkpt lat="50.53662" lon="2.23907">
        <ele>220</ele>
        <time>2013-08-24T11:03:53.000Z</time>
      </trkpt>
      <trkpt lat="50.53668" lon="2.23882">
        <ele>220</ele>
        <time>2013-08-24T11:03:56.000Z</time>
      </trkpt>
      <trkpt lat="50.53674" lon="2.23857">
        <ele>221</ele>
        <time>2013-08-24T11:03:59.000Z</time>
      </trkpt>
      <trkpt lat="50.5368" lon="2.23833">
        <ele>222</ele>
        <time>2013-08-24T11:04:02.000Z</time>
      </trkpt>
      <trkpt lat="50.53685" lon="2.23809">
        <ele>222</ele>
        <time>2013-08-24T11:04:05.000Z</time>
      </trkpt>
      <trkpt lat="50.5369" lon="2.23785">
        <ele>221</ele>
        <time>2013-08-24T11:04:08.000Z</time>
      </trkpt>
      <trkpt lat="50.53695" lon="2.2376">
        <ele>220</ele>
        <time>2013-08-24T11:04:11.000Z</time>
      </trkpt>
      <trkpt lat="50.53701" lon="2.23735">
        <ele>220</ele>
        <time>2013-08-24T11:04:14.000Z</time>
      </trkpt>
      <trkpt lat="50.53708" lon="2.2371">
        <ele>221</ele>
        <time>2013-08-24T11:04:17.000Z</time>
      </trkpt>
      <trkpt lat="50.53713" lon="2.23689">
        <ele>221</ele>
        <time>2013-08-24T11:04:20.000Z</time>
      </trkpt>
      <trkpt lat="50.53719" lon="2.23666">
        <ele>220</ele>
        <time>2013-08-24T11:04:23.000Z</time>
      </trkpt>
      <trkpt lat="50.53726" lon="2.23643">
        <ele>221</ele>
        <time>2013-08-24T11:04:26.000Z</time>
      </trkpt>
      <trkpt lat="50.53733" lon="2.2362">
        <ele>221</ele>
        <time>2013-08-24T11:04:29.000Z</time>
      </trkpt>
      <trkpt lat="50.53739" lon="2.23597">
        <ele>222</ele>
        <time>2013-08-24T11:04:32.000Z</time>
      </trkpt>
      <trkpt lat="50.53745" lon="2.23576">
        <ele>222</ele>
        <time>2013-08-24T11:04:35.000Z</time>
      </trkpt>
      <trkpt lat="50.53751" lon="2.23554">
        <ele>222</ele>
        <time>2013-08-24T11:04:38.000Z</time>
      </trkpt>
      <trkpt lat="50.53758" lon="2.23531">
        <ele>222</ele>
        <time>2013-08-24T11:04:41.000Z</time>
      </trkpt>
      <trkpt lat="50.53764" lon="2.2351">
        <ele>223</ele>
        <time>2013-08-24T11:04:44.000Z</time>
      </trkpt>
      <trkpt lat="50.5377" lon="2.23489">
        <ele>223</ele>
        <time>2013-08-24T11:04:47.000Z</time>
      </trkpt>
      <trkpt lat="50.53776" lon="2.23469">
        <ele>223</ele>
        <time>2013-08-24T11:04:50.000Z</time>
      </trkpt>
      <trkpt lat="50.53782" lon="2.23448">
        <ele>223</ele>
        <time>2013-08-24T11:04:53.000Z</time>
      </trkpt>
      <trkpt lat="50.53788" lon="2.23427">
        <ele>222</ele>
        <time>2013-08-24T11:04:56.000Z</time>
      </trkpt>
      <trkpt lat="50.53794" lon="2.23403">
        <ele>222</ele>
        <time>2013-08-24T11:04:59.000Z</time>
      </trkpt>
      <trkpt lat="50.53814" lon="2.23389">
        <ele>223</ele>
        <time>2013-08-24T11:05:02.000Z</time>
      </trkpt>
      <trkpt lat="50.5382" lon="2.23365">
        <ele>223</ele>
        <time>2013-08-24T11:05:05.000Z</time>
      </trkpt>
      <trkpt lat="50.53827" lon="2.23341">
        <ele>224</ele>
        <time>2013-08-24T11:05:08.000Z</time>
      </trkpt>
      <trkpt lat="50.53833" lon="2.23317">
        <ele>224</ele>
        <time>2013-08-24T11:05:11.000Z</time>
      </trkpt>
      <trkpt lat="50.53839" lon="2.23291">
        <ele>224</ele>
        <time>2013-08-24T11:05:14.000Z</time>
      </trkpt>
      <trkpt lat="50.53847" lon="2.23266">
        <ele>225</ele>
        <time>2013-08-24T11:05:17.000Z</time>
      </trkpt>
      <trkpt lat="50.53854" lon="2.2324">
        <ele>226</ele>
        <time>2013-08-24T11:05:20.000Z</time>
      </trkpt>
      <trkpt lat="50.53862" lon="2.23215">
        <ele>227</ele>
        <time>2013-08-24T11:05:23.000Z</time>
      </trkpt>
      <trkpt lat="50.5387" lon="2.23189">
        <ele>226</ele>
        <time>2013-08-24T11:05:26.000Z</time>
      </trkpt>
      <trkpt lat="50.53876" lon="2.23166">
        <ele>227</ele>
        <time>2013-08-24T11:05:29.000Z</time>
      </trkpt>
      <trkpt lat="50.53883" lon="2.23143">
        <ele>227</ele>
        <time>2013-08-24T11:05:32.000Z</time>
      </trkpt>
      <trkpt lat="50.5389" lon="2.23118">
        <ele>226</ele>
        <time>2013-08-24T11:05:35.000Z</time>
      </trkpt>
      <trkpt lat="50.53896" lon="2.23094">
        <ele>227</ele>
        <time>2013-08-24T11:05:38.000Z</time>
      </trkpt>
      <trkpt lat="50.53902" lon="2.23071">
        <ele>228</ele>
        <time>2013-08-24T11:05:41.000Z</time>
      </trkpt>
      <trkpt lat="50.53907" lon="2.2305">
        <ele>228</ele>
        <time>2013-08-24T11:05:44.000Z</time>
      </trkpt>
      <trkpt lat="50.53912" lon="2.23029">
        <ele>229</ele>
        <time>2013-08-24T11:05:47.000Z</time>
      </trkpt>
      <trkpt lat="50.53917" lon="2.23006">
        <ele>228</ele>
        <time>2013-08-24T11:05:50.000Z</time>
      </trkpt>
      <trkpt lat="50.53923" lon="2.22983">
        <ele>228</ele>
        <time>2013-08-24T11:05:53.000Z</time>
      </trkpt>
      <trkpt lat="50.53921" lon="2.22957">
        <ele>228</ele>
        <time>2013-08-24T11:05:56.000Z</time>
      </trkpt>
      <trkpt lat="50.53929" lon="2.22938">
        <ele>227</ele>
        <time>2013-08-24T11:05:59.000Z</time>
      </trkpt>
      <trkpt lat="50.53937" lon="2.22919">
        <ele>228</ele>
        <time>2013-08-24T11:06:02.000Z</time>
      </trkpt>
      <trkpt lat="50.53946" lon="2.229">
        <ele>228</ele>
        <time>2013-08-24T11:06:05.000Z</time>
      </trkpt>
      <trkpt lat="50.53954" lon="2.2288">
        <ele>227</ele>
        <time>2013-08-24T11:06:08.000Z</time>
      </trkpt>
      <trkpt lat="50.53976" lon="2.22873">
        <ele>227</ele>
        <time>2013-08-24T11:06:11.000Z</time>
      </trkpt>
      <trkpt lat="50.53988" lon="2.22857">
        <ele>226</ele>
        <time>2013-08-24T11:06:14.000Z</time>
      </trkpt>
      <trkpt lat="50.54" lon="2.22841">
        <ele>224</ele>
        <time>2013-08-24T11:06:17.000Z</time>
      </trkpt>
      <trkpt lat="50.54012" lon="2.22825">
        <ele>224</ele>
        <time>2013-08-24T11:06:20.000Z</time>
      </trkpt>
      <trkpt lat="50.54024" lon="2.22809">
        <ele>224</ele>
        <time>2013-08-24T11:06:23.000Z</time>
      </trkpt>
      <trkpt lat="50.54036" lon="2.22793">
        <ele>224</ele>
        <time>2013-08-24T11:06:26.000Z</time>
      </trkpt>
      <trkpt lat="50.54047" lon="2.22778">
        <ele>225</ele>
        <time>2013-08-24T11:06:29.000Z</time>
      </trkpt>
      <trkpt lat="50.54057" lon="2.22765">
        <ele>225</ele>
        <time>2013-08-24T11:06:32.000Z</time>
      </trkpt>
      <trkpt lat="50.54066" lon="2.22752">
        <ele>226</ele>
        <time>2013-08-24T11:06:35.000Z</time>
      </trkpt>
      <trkpt lat="50.54086" lon="2.22726">
        <ele>225</ele>
        <time>2013-08-24T11:06:41.000Z</time>
      </trkpt>
      <trkpt lat="50.54089" lon="2.22699">
        <ele>225</ele>
        <time>2013-08-24T11:06:44.000Z</time>
      </trkpt>
      <trkpt lat="50.54095" lon="2.22679">
        <ele>226</ele>
        <time>2013-08-24T11:06:47.000Z</time>
      </trkpt>
      <trkpt lat="50.54103" lon="2.22659">
        <ele>226</ele>
        <time>2013-08-24T11:06:50.000Z</time>
      </trkpt>
      <trkpt lat="50.5411" lon="2.22639">
        <ele>225</ele>
        <time>2013-08-24T11:06:53.000Z</time>
      </trkpt>
      <trkpt lat="50.54117" lon="2.22619">
        <ele>224</ele>
        <time>2013-08-24T11:06:56.000Z</time>
      </trkpt>
      <trkpt lat="50.54125" lon="2.22598">
        <ele>224</ele>
        <time>2013-08-24T11:07:08.000Z</time>
      </trkpt>
      <trkpt lat="50.54132" lon="2.22578">
        <ele>224</ele>
        <time>2013-08-24T11:07:08.000Z</time>
      </trkpt>
      <trkpt lat="50.54139" lon="2.22557">
        <ele>224</ele>
        <time>2013-08-24T11:07:08.000Z</time>
      </trkpt>
      <trkpt lat="50.54146" lon="2.22535">
        <ele>224</ele>
        <time>2013-08-24T11:07:08.000Z</time>
      </trkpt>
      <trkpt lat="50.54153" lon="2.22515">
        <ele>225</ele>
        <time>2013-08-24T11:07:11.000Z</time>
      </trkpt>
      <trkpt lat="50.5416" lon="2.22495">
        <ele>225</ele>
        <time>2013-08-24T11:07:14.000Z</time>
      </trkpt>
      <trkpt lat="50.54166" lon="2.22474">
        <ele>224</ele>
        <time>2013-08-24T11:07:17.000Z</time>
      </trkpt>
      <trkpt lat="50.54173" lon="2.22454">
        <ele>224</ele>
        <time>2013-08-24T11:07:20.000Z</time>
      </trkpt>
      <trkpt lat="50.54181" lon="2.22434">
        <ele>224</ele>
        <time>2013-08-24T11:07:23.000Z</time>
      </trkpt>
      <trkpt lat="50.54188" lon="2.22414">
        <ele>223</ele>
        <time>2013-08-24T11:07:26.000Z</time>
      </trkpt>
      <trkpt lat="50.54195" lon="2.22395">
        <ele>223</ele>
        <time>2013-08-24T11:07:33.000Z</time>
      </trkpt>
      <trkpt lat="50.54201" lon="2.22377">
        <ele>223</ele>
        <time>2013-08-24T11:07:33.000Z</time>
      </trkpt>
      <trkpt lat="50.54209" lon="2.22356">
        <ele>223</ele>
        <time>2013-08-24T11:07:35.000Z</time>
      </trkpt>
      <trkpt lat="50.54217" lon="2.22334">
        <ele>223</ele>
        <time>2013-08-24T11:07:38.000Z</time>
      </trkpt>
      <trkpt lat="50.54224" lon="2.22313">
        <ele>223</ele>
        <time>2013-08-24T11:07:41.000Z</time>
      </trkpt>
      <trkpt lat="50.54232" lon="2.22292">
        <ele>223</ele>
        <time>2013-08-24T11:07:44.000Z</time>
      </trkpt>
      <trkpt lat="50.5424" lon="2.2227">
        <ele>222</ele>
        <time>2013-08-24T11:07:47.000Z</time>
      </trkpt>
      <trkpt lat="50.54247" lon="2.22248">
        <ele>221</ele>
        <time>2013-08-24T11:07:50.000Z</time>
      </trkpt>
      <trkpt lat="50.54255" lon="2.22228">
        <ele>222</ele>
        <time>2013-08-24T11:07:53.000Z</time>
      </trkpt>
      <trkpt lat="50.54262" lon="2.22207">
        <ele>222</ele>
        <time>2013-08-24T11:07:56.000Z</time>
      </trkpt>
      <trkpt lat="50.5427" lon="2.22186">
        <ele>222</ele>
        <time>2013-08-24T11:08:01.000Z</time>
      </trkpt>
      <trkpt lat="50.54278" lon="2.22164">
        <ele>221</ele>
        <time>2013-08-24T11:08:02.000Z</time>
      </trkpt>
      <trkpt lat="50.54285" lon="2.22143">
        <ele>221</ele>
        <time>2013-08-24T11:08:05.000Z</time>
      </trkpt>
      <trkpt lat="50.54294" lon="2.22123">
        <ele>221</ele>
        <time>2013-08-24T11:08:08.000Z</time>
      </trkpt>
      <trkpt lat="50.54302" lon="2.22101">
        <ele>222</ele>
        <time>2013-08-24T11:08:11.000Z</time>
      </trkpt>
      <trkpt lat="50.5431" lon="2.22081">
        <ele>222</ele>
        <time>2013-08-24T11:08:14.000Z</time>
      </trkpt>
      <trkpt lat="50.5432" lon="2.22062">
        <ele>221</ele>
        <time>2013-08-24T11:08:17.000Z</time>
      </trkpt>
      <trkpt lat="50.54329" lon="2.2204">
        <ele>222</ele>
        <time>2013-08-24T11:08:20.000Z</time>
      </trkpt>
      <trkpt lat="50.54338" lon="2.2202">
        <ele>223</ele>
        <time>2013-08-24T11:08:23.000Z</time>
      </trkpt>
      <trkpt lat="50.54346" lon="2.21998">
        <ele>222</ele>
        <time>2013-08-24T11:08:26.000Z</time>
      </trkpt>
      <trkpt lat="50.54354" lon="2.21977">
        <ele>222</ele>
        <time>2013-08-24T11:08:36.000Z</time>
      </trkpt>
      <trkpt lat="50.54362" lon="2.21956">
        <ele>223</ele>
        <time>2013-08-24T11:08:36.000Z</time>
      </trkpt>
      <trkpt lat="50.54371" lon="2.21935">
        <ele>225</ele>
        <time>2013-08-24T11:08:36.000Z</time>
      </trkpt>
      <trkpt lat="50.5438" lon="2.21913">
        <ele>225</ele>
        <time>2013-08-24T11:08:38.000Z</time>
      </trkpt>
      <trkpt lat="50.54388" lon="2.21892">
        <ele>224</ele>
        <time>2013-08-24T11:08:41.000Z</time>
      </trkpt>
      <trkpt lat="50.54396" lon="2.21871">
        <ele>224</ele>
        <time>2013-08-24T11:08:44.000Z</time>
      </trkpt>
      <trkpt lat="50.54406" lon="2.21849">
        <ele>223</ele>
        <time>2013-08-24T11:08:47.000Z</time>
      </trkpt>
      <trkpt lat="50.54415" lon="2.21827">
        <ele>222</ele>
        <time>2013-08-24T11:08:50.000Z</time>
      </trkpt>
      <trkpt lat="50.54424" lon="2.21807">
        <ele>222</ele>
        <time>2013-08-24T11:08:53.000Z</time>
      </trkpt>
      <trkpt lat="50.54434" lon="2.21785">
        <ele>222</ele>
        <time>2013-08-24T11:08:56.000Z</time>
      </trkpt>
      <trkpt lat="50.54443" lon="2.21765">
        <ele>223</ele>
        <time>2013-08-24T11:09:06.000Z</time>
      </trkpt>
      <trkpt lat="50.54451" lon="2.21745">
        <ele>224</ele>
        <time>2013-08-24T11:09:06.000Z</time>
      </trkpt>
      <trkpt lat="50.5446" lon="2.21725">
        <ele>225</ele>
        <time>2013-08-24T11:09:06.000Z</time>
      </trkpt>
      <trkpt lat="50.54469" lon="2.21704">
        <ele>225</ele>
        <time>2013-08-24T11:09:08.000Z</time>
      </trkpt>
      <trkpt lat="50.54478" lon="2.21684">
        <ele>224</ele>
        <time>2013-08-24T11:09:11.000Z</time>
      </trkpt>
      <trkpt lat="50.54487" lon="2.21663">
        <ele>223</ele>
        <time>2013-08-24T11:09:14.000Z</time>
      </trkpt>
      <trkpt lat="50.54496" lon="2.21643">
        <ele>223</ele>
        <time>2013-08-24T11:09:17.000Z</time>
      </trkpt>
      <trkpt lat="50.54505" lon="2.21622">
        <ele>224</ele>
        <time>2013-08-24T11:09:20.000Z</time>
      </trkpt>
      <trkpt lat="50.54507" lon="2.21592">
        <ele>224</ele>
        <time>2013-08-24T11:09:23.000Z</time>
      </trkpt>
      <trkpt lat="50.54514" lon="2.21567">
        <ele>225</ele>
        <time>2013-08-24T11:09:26.000Z</time>
      </trkpt>
      <trkpt lat="50.5452" lon="2.21543">
        <ele>226</ele>
        <time>2013-08-24T11:09:34.000Z</time>
      </trkpt>
      <trkpt lat="50.54526" lon="2.21521">
        <ele>226</ele>
        <time>2013-08-24T11:09:34.000Z</time>
      </trkpt>
      <trkpt lat="50.54531" lon="2.21497">
        <ele>226</ele>
        <time>2013-08-24T11:09:35.000Z</time>
      </trkpt>
      <trkpt lat="50.54537" lon="2.21472">
        <ele>226</ele>
        <time>2013-08-24T11:09:38.000Z</time>
      </trkpt>
      <trkpt lat="50.54542" lon="2.21445">
        <ele>226</ele>
        <time>2013-08-24T11:09:41.000Z</time>
      </trkpt>
      <trkpt lat="50.54547" lon="2.21419">
        <ele>225</ele>
        <time>2013-08-24T11:09:44.000Z</time>
      </trkpt>
      <trkpt lat="50.54552" lon="2.21391">
        <ele>224</ele>
        <time>2013-08-24T11:09:47.000Z</time>
      </trkpt>
      <trkpt lat="50.54556" lon="2.21363">
        <ele>224</ele>
        <time>2013-08-24T11:09:50.000Z</time>
      </trkpt>
      <trkpt lat="50.5456" lon="2.21336">
        <ele>223</ele>
        <time>2013-08-24T11:09:53.000Z</time>
      </trkpt>
      <trkpt lat="50.54566" lon="2.21309">
        <ele>223</ele>
        <time>2013-08-24T11:09:56.000Z</time>
      </trkpt>
      <trkpt lat="50.54573" lon="2.21282">
        <ele>223</ele>
        <time>2013-08-24T11:09:59.000Z</time>
      </trkpt>
      <trkpt lat="50.54583" lon="2.21258">
        <ele>223</ele>
        <time>2013-08-24T11:10:02.000Z</time>
      </trkpt>
      <trkpt lat="50.54596" lon="2.21238">
        <ele>223</ele>
        <time>2013-08-24T11:10:05.000Z</time>
      </trkpt>
      <trkpt lat="50.5461" lon="2.21219">
        <ele>223</ele>
        <time>2013-08-24T11:10:08.000Z</time>
      </trkpt>
      <trkpt lat="50.54624" lon="2.21199">
        <ele>223</ele>
        <time>2013-08-24T11:10:11.000Z</time>
      </trkpt>
      <trkpt lat="50.54639" lon="2.2118">
        <ele>222</ele>
        <time>2013-08-24T11:10:14.000Z</time>
      </trkpt>
      <trkpt lat="50.54652" lon="2.2116">
        <ele>221</ele>
        <time>2013-08-24T11:10:17.000Z</time>
      </trkpt>
      <trkpt lat="50.54667" lon="2.21141">
        <ele>220</ele>
        <time>2013-08-24T11:10:20.000Z</time>
      </trkpt>
      <trkpt lat="50.5468" lon="2.21122">
        <ele>221</ele>
        <time>2013-08-24T11:10:23.000Z</time>
      </trkpt>
      <trkpt lat="50.54694" lon="2.21101">
        <ele>221</ele>
        <time>2013-08-24T11:10:26.000Z</time>
      </trkpt>
      <trkpt lat="50.5471" lon="2.21079">
        <ele>221</ele>
        <time>2013-08-24T11:10:36.000Z</time>
      </trkpt>
      <trkpt lat="50.54726" lon="2.21058">
        <ele>221</ele>
        <time>2013-08-24T11:10:36.000Z</time>
      </trkpt>
      <trkpt lat="50.54741" lon="2.21038">
        <ele>221</ele>
        <time>2013-08-24T11:10:36.000Z</time>
      </trkpt>
      <trkpt lat="50.54757" lon="2.2102">
        <ele>221</ele>
        <time>2013-08-24T11:10:38.000Z</time>
      </trkpt>
      <trkpt lat="50.54771" lon="2.21004">
        <ele>221</ele>
        <time>2013-08-24T11:10:41.000Z</time>
      </trkpt>
      <trkpt lat="50.54786" lon="2.20989">
        <ele>221</ele>
        <time>2013-08-24T11:10:44.000Z</time>
      </trkpt>
      <trkpt lat="50.54802" lon="2.20972">
        <ele>221</ele>
        <time>2013-08-24T11:10:47.000Z</time>
      </trkpt>
      <trkpt lat="50.54817" lon="2.20957">
        <ele>222</ele>
        <time>2013-08-24T11:10:50.000Z</time>
      </trkpt>
      <trkpt lat="50.54832" lon="2.20941">
        <ele>222</ele>
        <time>2013-08-24T11:10:53.000Z</time>
      </trkpt>
      <trkpt lat="50.54847" lon="2.20924">
        <ele>222</ele>
        <time>2013-08-24T11:10:56.000Z</time>
      </trkpt>
      <trkpt lat="50.54861" lon="2.20908">
        <ele>223</ele>
        <time>2013-08-24T11:11:06.000Z</time>
      </trkpt>
      <trkpt lat="50.54875" lon="2.20894">
        <ele>224</ele>
        <time>2013-08-24T11:11:06.000Z</time>
      </trkpt>
      <trkpt lat="50.54887" lon="2.2088">
        <ele>224</ele>
        <time>2013-08-24T11:11:06.000Z</time>
      </trkpt>
      <trkpt lat="50.549" lon="2.20864">
        <ele>225</ele>
        <time>2013-08-24T11:11:08.000Z</time>
      </trkpt>
      <trkpt lat="50.54911" lon="2.20848">
        <ele>225</ele>
        <time>2013-08-24T11:11:11.000Z</time>
      </trkpt>
      <trkpt lat="50.54924" lon="2.20829">
        <ele>225</ele>
        <time>2013-08-24T11:11:14.000Z</time>
      </trkpt>
      <trkpt lat="50.54935" lon="2.20811">
        <ele>225</ele>
        <time>2013-08-24T11:11:17.000Z</time>
      </trkpt>
      <trkpt lat="50.54946" lon="2.2079">
        <ele>225</ele>
        <time>2013-08-24T11:11:20.000Z</time>
      </trkpt>
      <trkpt lat="50.54958" lon="2.20768">
        <ele>224</ele>
        <time>2013-08-24T11:11:23.000Z</time>
      </trkpt>
      <trkpt lat="50.5497" lon="2.20746">
        <ele>224</ele>
        <time>2013-08-24T11:11:26.000Z</time>
      </trkpt>
      <trkpt lat="50.54982" lon="2.20726">
        <ele>223</ele>
        <time>2013-08-24T11:11:36.000Z</time>
      </trkpt>
      <trkpt lat="50.54995" lon="2.20705">
        <ele>223</ele>
        <time>2013-08-24T11:11:36.000Z</time>
      </trkpt>
      <trkpt lat="50.55008" lon="2.20685">
        <ele>223</ele>
        <time>2013-08-24T11:11:36.000Z</time>
      </trkpt>
      <trkpt lat="50.55019" lon="2.20667">
        <ele>224</ele>
        <time>2013-08-24T11:11:38.000Z</time>
      </trkpt>
      <trkpt lat="50.5503" lon="2.20648">
        <ele>227</ele>
        <time>2013-08-24T11:11:41.000Z</time>
      </trkpt>
      <trkpt lat="50.55042" lon="2.20626">
        <ele>228</ele>
        <time>2013-08-24T11:11:44.000Z</time>
      </trkpt>
      <trkpt lat="50.55055" lon="2.20604">
        <ele>228</ele>
        <time>2013-08-24T11:11:47.000Z</time>
      </trkpt>
      <trkpt lat="50.55068" lon="2.20581">
        <ele>228</ele>
        <time>2013-08-24T11:11:50.000Z</time>
      </trkpt>
      <trkpt lat="50.55082" lon="2.20558">
        <ele>227</ele>
        <time>2013-08-24T11:11:53.000Z</time>
      </trkpt>
      <trkpt lat="50.55097" lon="2.20534">
        <ele>226</ele>
        <time>2013-08-24T11:11:56.000Z</time>
      </trkpt>
      <trkpt lat="50.55112" lon="2.20512">
        <ele>225</ele>
        <time>2013-08-24T11:12:02.000Z</time>
      </trkpt>
      <trkpt lat="50.55128" lon="2.2049">
        <ele>224</ele>
        <time>2013-08-24T11:12:02.000Z</time>
      </trkpt>
      <trkpt lat="50.55145" lon="2.20469">
        <ele>224</ele>
        <time>2013-08-24T11:12:05.000Z</time>
      </trkpt>
      <trkpt lat="50.55162" lon="2.20447">
        <ele>223</ele>
        <time>2013-08-24T11:12:08.000Z</time>
      </trkpt>
      <trkpt lat="50.55178" lon="2.20424">
        <ele>222</ele>
        <time>2013-08-24T11:12:11.000Z</time>
      </trkpt>
      <trkpt lat="50.55195" lon="2.20401">
        <ele>222</ele>
        <time>2013-08-24T11:12:14.000Z</time>
      </trkpt>
      <trkpt lat="50.55211" lon="2.2038">
        <ele>221</ele>
        <time>2013-08-24T11:12:17.000Z</time>
      </trkpt>
      <trkpt lat="50.55227" lon="2.20359">
        <ele>221</ele>
        <time>2013-08-24T11:12:20.000Z</time>
      </trkpt>
      <trkpt lat="50.55241" lon="2.20338">
        <ele>221</ele>
        <time>2013-08-24T11:12:23.000Z</time>
      </trkpt>
      <trkpt lat="50.55257" lon="2.20317">
        <ele>220</ele>
        <time>2013-08-24T11:12:26.000Z</time>
      </trkpt>
      <trkpt lat="50.55271" lon="2.20296">
        <ele>219</ele>
        <time>2013-08-24T11:12:31.000Z</time>
      </trkpt>
      <trkpt lat="50.55285" lon="2.20274">
        <ele>219</ele>
        <time>2013-08-24T11:12:32.000Z</time>
      </trkpt>
      <trkpt lat="50.55299" lon="2.2025">
        <ele>219</ele>
        <time>2013-08-24T11:12:35.000Z</time>
      </trkpt>
      <trkpt lat="50.55316" lon="2.20226">
        <ele>218</ele>
        <time>2013-08-24T11:12:38.000Z</time>
      </trkpt>
      <trkpt lat="50.55331" lon="2.20201">
        <ele>218</ele>
        <time>2013-08-24T11:12:41.000Z</time>
      </trkpt>
      <trkpt lat="50.55346" lon="2.20177">
        <ele>218</ele>
        <time>2013-08-24T11:12:44.000Z</time>
      </trkpt>
      <trkpt lat="50.55361" lon="2.20152">
        <ele>218</ele>
        <time>2013-08-24T11:12:47.000Z</time>
      </trkpt>
      <trkpt lat="50.55375" lon="2.20128">
        <ele>218</ele>
        <time>2013-08-24T11:12:50.000Z</time>
      </trkpt>
      <trkpt lat="50.55388" lon="2.20105">
        <ele>218</ele>
        <time>2013-08-24T11:12:53.000Z</time>
      </trkpt>
      <trkpt lat="50.554" lon="2.20084">
        <ele>219</ele>
        <time>2013-08-24T11:12:56.000Z</time>
      </trkpt>
      <trkpt lat="50.5541" lon="2.20067">
        <ele>220</ele>
        <time>2013-08-24T11:13:06.000Z</time>
      </trkpt>
      <trkpt lat="50.55421" lon="2.20048">
        <ele>220</ele>
        <time>2013-08-24T11:13:06.000Z</time>
      </trkpt>
      <trkpt lat="50.55433" lon="2.20028">
        <ele>221</ele>
        <time>2013-08-24T11:13:06.000Z</time>
      </trkpt>
      <trkpt lat="50.55444" lon="2.20011">
        <ele>224</ele>
        <time>2013-08-24T11:13:08.000Z</time>
      </trkpt>
      <trkpt lat="50.55457" lon="2.19992">
        <ele>224</ele>
        <time>2013-08-24T11:13:11.000Z</time>
      </trkpt>
      <trkpt lat="50.55468" lon="2.19974">
        <ele>223</ele>
        <time>2013-08-24T11:13:14.000Z</time>
      </trkpt>
      <trkpt lat="50.55482" lon="2.19955">
        <ele>222</ele>
        <time>2013-08-24T11:13:17.000Z</time>
      </trkpt>
      <trkpt lat="50.55496" lon="2.19936">
        <ele>221</ele>
        <time>2013-08-24T11:13:20.000Z</time>
      </trkpt>
      <trkpt lat="50.55512" lon="2.19916">
        <ele>221</ele>
        <time>2013-08-24T11:13:23.000Z</time>
      </trkpt>
      <trkpt lat="50.55528" lon="2.19896">
        <ele>221</ele>
        <time>2013-08-24T11:13:26.000Z</time>
      </trkpt>
      <trkpt lat="50.55544" lon="2.19876">
        <ele>221</ele>
        <time>2013-08-24T11:13:29.000Z</time>
      </trkpt>
      <trkpt lat="50.55561" lon="2.19855">
        <ele>220</ele>
        <time>2013-08-24T11:13:32.000Z</time>
      </trkpt>
      <trkpt lat="50.55579" lon="2.19835">
        <ele>220</ele>
        <time>2013-08-24T11:13:35.000Z</time>
      </trkpt>
      <trkpt lat="50.55597" lon="2.19817">
        <ele>220</ele>
        <time>2013-08-24T11:13:38.000Z</time>
      </trkpt>
      <trkpt lat="50.55615" lon="2.19799">
        <ele>219</ele>
        <time>2013-08-24T11:13:41.000Z</time>
      </trkpt>
      <trkpt lat="50.55634" lon="2.19782">
        <ele>219</ele>
        <time>2013-08-24T11:13:44.000Z</time>
      </trkpt>
      <trkpt lat="50.55653" lon="2.19765">
        <ele>219</ele>
        <time>2013-08-24T11:13:47.000Z</time>
      </trkpt>
      <trkpt lat="50.55671" lon="2.19749">
        <ele>219</ele>
        <time>2013-08-24T11:13:50.000Z</time>
      </trkpt>
      <trkpt lat="50.55688" lon="2.19733">
        <ele>219</ele>
        <time>2013-08-24T11:13:53.000Z</time>
      </trkpt>
      <trkpt lat="50.55704" lon="2.19715">
        <ele>219</ele>
        <time>2013-08-24T11:13:56.000Z</time>
      </trkpt>
      <trkpt lat="50.55718" lon="2.19696">
        <ele>219</ele>
        <time>2013-08-24T11:14:03.000Z</time>
      </trkpt>
      <trkpt lat="50.55731" lon="2.19675">
        <ele>219</ele>
        <time>2013-08-24T11:14:03.000Z</time>
      </trkpt>
      <trkpt lat="50.55742" lon="2.19652">
        <ele>219</ele>
        <time>2013-08-24T11:14:05.000Z</time>
      </trkpt>
      <trkpt lat="50.55753" lon="2.19628">
        <ele>220</ele>
        <time>2013-08-24T11:14:08.000Z</time>
      </trkpt>
      <trkpt lat="50.55764" lon="2.196">
        <ele>220</ele>
        <time>2013-08-24T11:14:11.000Z</time>
      </trkpt>
      <trkpt lat="50.55775" lon="2.19574">
        <ele>220</ele>
        <time>2013-08-24T11:14:14.000Z</time>
      </trkpt>
      <trkpt lat="50.55787" lon="2.1955">
        <ele>221</ele>
        <time>2013-08-24T11:14:17.000Z</time>
      </trkpt>
      <trkpt lat="50.55798" lon="2.19524">
        <ele>221</ele>
        <time>2013-08-24T11:14:20.000Z</time>
      </trkpt>
      <trkpt lat="50.55809" lon="2.19498">
        <ele>222</ele>
        <time>2013-08-24T11:14:23.000Z</time>
      </trkpt>
      <trkpt lat="50.5582" lon="2.19473">
        <ele>223</ele>
        <time>2013-08-24T11:14:26.000Z</time>
      </trkpt>
      <trkpt lat="50.55832" lon="2.19447">
        <ele>224</ele>
        <time>2013-08-24T11:14:36.000Z</time>
      </trkpt>
      <trkpt lat="50.55843" lon="2.19421">
        <ele>224</ele>
        <time>2013-08-24T11:14:36.000Z</time>
      </trkpt>
      <trkpt lat="50.55854" lon="2.19393">
        <ele>224</ele>
        <time>2013-08-24T11:14:36.000Z</time>
      </trkpt>
      <trkpt lat="50.55865" lon="2.19364">
        <ele>224</ele>
        <time>2013-08-24T11:14:38.000Z</time>
      </trkpt>
      <trkpt lat="50.55878" lon="2.19334">
        <ele>223</ele>
        <time>2013-08-24T11:14:41.000Z</time>
      </trkpt>
      <trkpt lat="50.55891" lon="2.19306">
        <ele>223</ele>
        <time>2013-08-24T11:14:44.000Z</time>
      </trkpt>
      <trkpt lat="50.55904" lon="2.1928">
        <ele>222</ele>
        <time>2013-08-24T11:14:47.000Z</time>
      </trkpt>
      <trkpt lat="50.55917" lon="2.19253">
        <ele>222</ele>
        <time>2013-08-24T11:14:50.000Z</time>
      </trkpt>
      <trkpt lat="50.55931" lon="2.19224">
        <ele>221</ele>
        <time>2013-08-24T11:14:53.000Z</time>
      </trkpt>
      <trkpt lat="50.55945" lon="2.19196">
        <ele>221</ele>
        <time>2013-08-24T11:14:56.000Z</time>
      </trkpt>
      <trkpt lat="50.55958" lon="2.19169">
        <ele>221</ele>
        <time>2013-08-24T11:15:00.000Z</time>
      </trkpt>
      <trkpt lat="50.55971" lon="2.19143">
        <ele>221</ele>
        <time>2013-08-24T11:15:02.000Z</time>
      </trkpt>
      <trkpt lat="50.55983" lon="2.19117">
        <ele>221</ele>
        <time>2013-08-24T11:15:06.000Z</time>
      </trkpt>
      <trkpt lat="50.55995" lon="2.19092">
        <ele>222</ele>
        <time>2013-08-24T11:15:08.000Z</time>
      </trkpt>
      <trkpt lat="50.56006" lon="2.19068">
        <ele>222</ele>
        <time>2013-08-24T11:15:11.000Z</time>
      </trkpt>
      <trkpt lat="50.56018" lon="2.19042">
        <ele>221</ele>
        <time>2013-08-24T11:15:14.000Z</time>
      </trkpt>
      <trkpt lat="50.56028" lon="2.19018">
        <ele>221</ele>
        <time>2013-08-24T11:15:17.000Z</time>
      </trkpt>
      <trkpt lat="50.56039" lon="2.18994">
        <ele>220</ele>
        <time>2013-08-24T11:15:20.000Z</time>
      </trkpt>
      <trkpt lat="50.5605" lon="2.18971">
        <ele>220</ele>
        <time>2013-08-24T11:15:23.000Z</time>
      </trkpt>
      <trkpt lat="50.56061" lon="2.18947">
        <ele>220</ele>
        <time>2013-08-24T11:15:26.000Z</time>
      </trkpt>
      <trkpt lat="50.56072" lon="2.18923">
        <ele>219</ele>
        <time>2013-08-24T11:15:29.000Z</time>
      </trkpt>
      <trkpt lat="50.56085" lon="2.18898">
        <ele>219</ele>
        <time>2013-08-24T11:15:32.000Z</time>
      </trkpt>
      <trkpt lat="50.56099" lon="2.18872">
        <ele>219</ele>
        <time>2013-08-24T11:15:35.000Z</time>
      </trkpt>
      <trkpt lat="50.56117" lon="2.18846">
        <ele>219</ele>
        <time>2013-08-24T11:15:38.000Z</time>
      </trkpt>
      <trkpt lat="50.56136" lon="2.1882">
        <ele>218</ele>
        <time>2013-08-24T11:15:41.000Z</time>
      </trkpt>
      <trkpt lat="50.56154" lon="2.1879">
        <ele>217</ele>
        <time>2013-08-24T11:15:44.000Z</time>
      </trkpt>
      <trkpt lat="50.56171" lon="2.18751">
        <ele>215</ele>
        <time>2013-08-24T11:15:47.000Z</time>
      </trkpt>
      <trkpt lat="50.56186" lon="2.18708">
        <ele>212</ele>
        <time>2013-08-24T11:15:50.000Z</time>
      </trkpt>
      <trkpt lat="50.56204" lon="2.18668">
        <ele>210</ele>
        <time>2013-08-24T11:15:53.000Z</time>
      </trkpt>
      <trkpt lat="50.5623" lon="2.18636">
        <ele>208</ele>
        <time>2013-08-24T11:15:56.000Z</time>
      </trkpt>
      <trkpt lat="50.56255" lon="2.18607">
        <ele>207</ele>
        <time>2013-08-24T11:15:59.000Z</time>
      </trkpt>
      <trkpt lat="50.56283" lon="2.18575">
        <ele>205</ele>
        <time>2013-08-24T11:16:02.000Z</time>
      </trkpt>
      <trkpt lat="50.56313" lon="2.18538">
        <ele>201</ele>
        <time>2013-08-24T11:16:05.000Z</time>
      </trkpt>
      <trkpt lat="50.5634" lon="2.18503">
        <ele>197</ele>
        <time>2013-08-24T11:16:08.000Z</time>
      </trkpt>
      <trkpt lat="50.56367" lon="2.18472">
        <ele>194</ele>
        <time>2013-08-24T11:16:11.000Z</time>
      </trkpt>
      <trkpt lat="50.56399" lon="2.18436">
        <ele>190</ele>
        <time>2013-08-24T11:16:14.000Z</time>
      </trkpt>
      <trkpt lat="50.56432" lon="2.18404">
        <ele>187</ele>
        <time>2013-08-24T11:16:17.000Z</time>
      </trkpt>
      <trkpt lat="50.56463" lon="2.18381">
        <ele>184</ele>
        <time>2013-08-24T11:16:20.000Z</time>
      </trkpt>
      <trkpt lat="50.56495" lon="2.18369">
        <ele>181</ele>
        <time>2013-08-24T11:16:23.000Z</time>
      </trkpt>
      <trkpt lat="50.5653" lon="2.18371">
        <ele>178</ele>
        <time>2013-08-24T11:16:26.000Z</time>
      </trkpt>
      <trkpt lat="50.56564" lon="2.18374">
        <ele>176</ele>
        <time>2013-08-24T11:16:29.000Z</time>
      </trkpt>
      <trkpt lat="50.56594" lon="2.18358">
        <ele>172</ele>
        <time>2013-08-24T11:16:32.000Z</time>
      </trkpt>
      <trkpt lat="50.56622" lon="2.18326">
        <ele>169</ele>
        <time>2013-08-24T11:16:35.000Z</time>
      </trkpt>
      <trkpt lat="50.56646" lon="2.18288">
        <ele>168</ele>
        <time>2013-08-24T11:16:38.000Z</time>
      </trkpt>
      <trkpt lat="50.56668" lon="2.18246">
        <ele>166</ele>
        <time>2013-08-24T11:16:41.000Z</time>
      </trkpt>
      <trkpt lat="50.56688" lon="2.18202">
        <ele>165</ele>
        <time>2013-08-24T11:16:44.000Z</time>
      </trkpt>
      <trkpt lat="50.56707" lon="2.18158">
        <ele>163</ele>
        <time>2013-08-24T11:16:47.000Z</time>
      </trkpt>
      <trkpt lat="50.56727" lon="2.18115">
        <ele>161</ele>
        <time>2013-08-24T11:16:50.000Z</time>
      </trkpt>
      <trkpt lat="50.56746" lon="2.18074">
        <ele>160</ele>
        <time>2013-08-24T11:16:53.000Z</time>
      </trkpt>
      <trkpt lat="50.56765" lon="2.18033">
        <ele>158</ele>
        <time>2013-08-24T11:16:56.000Z</time>
      </trkpt>
      <trkpt lat="50.56783" lon="2.17991">
        <ele>157</ele>
        <time>2013-08-24T11:16:59.000Z</time>
      </trkpt>
      <trkpt lat="50.568" lon="2.17947">
        <ele>155</ele>
        <time>2013-08-24T11:17:02.000Z</time>
      </trkpt>
      <trkpt lat="50.56818" lon="2.17902">
        <ele>154</ele>
        <time>2013-08-24T11:17:05.000Z</time>
      </trkpt>
      <trkpt lat="50.56835" lon="2.17858">
        <ele>152</ele>
        <time>2013-08-24T11:17:08.000Z</time>
      </trkpt>
      <trkpt lat="50.56855" lon="2.17816">
        <ele>150</ele>
        <time>2013-08-24T11:17:11.000Z</time>
      </trkpt>
      <trkpt lat="50.56882" lon="2.17774">
        <ele>148</ele>
        <time>2013-08-24T11:17:14.000Z</time>
      </trkpt>
      <trkpt lat="50.56908" lon="2.17735">
        <ele>146</ele>
        <time>2013-08-24T11:17:17.000Z</time>
      </trkpt>
      <trkpt lat="50.56937" lon="2.17695">
        <ele>144</ele>
        <time>2013-08-24T11:17:21.000Z</time>
      </trkpt>
      <trkpt lat="50.56965" lon="2.17655">
        <ele>141</ele>
        <time>2013-08-24T11:17:23.000Z</time>
      </trkpt>
      <trkpt lat="50.56992" lon="2.17612">
        <ele>138</ele>
        <time>2013-08-24T11:17:26.000Z</time>
      </trkpt>
      <trkpt lat="50.57013" lon="2.17568">
        <ele>135</ele>
        <time>2013-08-24T11:17:29.000Z</time>
      </trkpt>
      <trkpt lat="50.57028" lon="2.17521">
        <ele>135</ele>
        <time>2013-08-24T11:17:32.000Z</time>
      </trkpt>
      <trkpt lat="50.5704" lon="2.17474">
        <ele>134</ele>
        <time>2013-08-24T11:17:35.000Z</time>
      </trkpt>
      <trkpt lat="50.5705" lon="2.17429">
        <ele>133</ele>
        <time>2013-08-24T11:17:38.000Z</time>
      </trkpt>
      <trkpt lat="50.5706" lon="2.17384">
        <ele>133</ele>
        <time>2013-08-24T11:17:41.000Z</time>
      </trkpt>
      <trkpt lat="50.57074" lon="2.17345">
        <ele>132</ele>
        <time>2013-08-24T11:17:44.000Z</time>
      </trkpt>
      <trkpt lat="50.57089" lon="2.17309">
        <ele>130</ele>
        <time>2013-08-24T11:17:47.000Z</time>
      </trkpt>
      <trkpt lat="50.57105" lon="2.17274">
        <ele>129</ele>
        <time>2013-08-24T11:17:50.000Z</time>
      </trkpt>
      <trkpt lat="50.57121" lon="2.17242">
        <ele>128</ele>
        <time>2013-08-24T11:17:53.000Z</time>
      </trkpt>
      <trkpt lat="50.57135" lon="2.17213">
        <ele>127</ele>
        <time>2013-08-24T11:17:56.000Z</time>
      </trkpt>
      <trkpt lat="50.57147" lon="2.17187">
        <ele>126</ele>
        <time>2013-08-24T11:18:00.000Z</time>
      </trkpt>
      <trkpt lat="50.57157" lon="2.17168">
        <ele>128</ele>
        <time>2013-08-24T11:18:02.000Z</time>
      </trkpt>
      <trkpt lat="50.57166" lon="2.1715">
        <ele>130</ele>
        <time>2013-08-24T11:18:05.000Z</time>
      </trkpt>
      <trkpt lat="50.5718" lon="2.1712">
        <ele>132</ele>
        <time>2013-08-24T11:18:11.000Z</time>
      </trkpt>
      <trkpt lat="50.57199" lon="2.17091">
        <ele>132</ele>
        <time>2013-08-24T11:18:17.000Z</time>
      </trkpt>
      <trkpt lat="50.57208" lon="2.17071">
        <ele>132</ele>
        <time>2013-08-24T11:18:20.000Z</time>
      </trkpt>
      <trkpt lat="50.57217" lon="2.17053">
        <ele>133</ele>
        <time>2013-08-24T11:18:23.000Z</time>
      </trkpt>
      <trkpt lat="50.57225" lon="2.17035">
        <ele>133</ele>
        <time>2013-08-24T11:18:26.000Z</time>
      </trkpt>
      <trkpt lat="50.57233" lon="2.17016">
        <ele>133</ele>
        <time>2013-08-24T11:18:29.000Z</time>
      </trkpt>
      <trkpt lat="50.57241" lon="2.16978">
        <ele>134</ele>
        <time>2013-08-24T11:18:35.000Z</time>
      </trkpt>
      <trkpt lat="50.57245" lon="2.16957">
        <ele>134</ele>
        <time>2013-08-24T11:18:38.000Z</time>
      </trkpt>
      <trkpt lat="50.57251" lon="2.16936">
        <ele>133</ele>
        <time>2013-08-24T11:18:41.000Z</time>
      </trkpt>
      <trkpt lat="50.57257" lon="2.16914">
        <ele>132</ele>
        <time>2013-08-24T11:18:44.000Z</time>
      </trkpt>
      <trkpt lat="50.57262" lon="2.16893">
        <ele>132</ele>
        <time>2013-08-24T11:18:47.000Z</time>
      </trkpt>
      <trkpt lat="50.57269" lon="2.1687">
        <ele>132</ele>
        <time>2013-08-24T11:18:50.000Z</time>
      </trkpt>
      <trkpt lat="50.57275" lon="2.16847">
        <ele>131</ele>
        <time>2013-08-24T11:18:53.000Z</time>
      </trkpt>
      <trkpt lat="50.57281" lon="2.16824">
        <ele>131</ele>
        <time>2013-08-24T11:18:56.000Z</time>
      </trkpt>
      <trkpt lat="50.57287" lon="2.16802">
        <ele>130</ele>
        <time>2013-08-24T11:18:59.000Z</time>
      </trkpt>
      <trkpt lat="50.57294" lon="2.16781">
        <ele>130</ele>
        <time>2013-08-24T11:19:02.000Z</time>
      </trkpt>
      <trkpt lat="50.57301" lon="2.16759">
        <ele>130</ele>
        <time>2013-08-24T11:19:05.000Z</time>
      </trkpt>
      <trkpt lat="50.57308" lon="2.16736">
        <ele>130</ele>
        <time>2013-08-24T11:19:08.000Z</time>
      </trkpt>
      <trkpt lat="50.57313" lon="2.16713">
        <ele>130</ele>
        <time>2013-08-24T11:19:11.000Z</time>
      </trkpt>
      <trkpt lat="50.57317" lon="2.16689">
        <ele>131</ele>
        <time>2013-08-24T11:19:14.000Z</time>
      </trkpt>
      <trkpt lat="50.57321" lon="2.16664">
        <ele>132</ele>
        <time>2013-08-24T11:19:17.000Z</time>
      </trkpt>
      <trkpt lat="50.57325" lon="2.16642">
        <ele>132</ele>
        <time>2013-08-24T11:19:20.000Z</time>
      </trkpt>
      <trkpt lat="50.57329" lon="2.16619">
        <ele>131</ele>
        <time>2013-08-24T11:19:23.000Z</time>
      </trkpt>
      <trkpt lat="50.5733" lon="2.16592">
        <ele>131</ele>
        <time>2013-08-24T11:19:26.000Z</time>
      </trkpt>
      <trkpt lat="50.57332" lon="2.16567">
        <ele>130</ele>
        <time>2013-08-24T11:19:29.000Z</time>
      </trkpt>
      <trkpt lat="50.57334" lon="2.16544">
        <ele>130</ele>
        <time>2013-08-24T11:19:32.000Z</time>
      </trkpt>
      <trkpt lat="50.57335" lon="2.16521">
        <ele>130</ele>
        <time>2013-08-24T11:19:35.000Z</time>
      </trkpt>
      <trkpt lat="50.57337" lon="2.16501">
        <ele>130</ele>
        <time>2013-08-24T11:19:38.000Z</time>
      </trkpt>
      <trkpt lat="50.57339" lon="2.16465">
        <ele>130</ele>
        <time>2013-08-24T11:19:44.000Z</time>
      </trkpt>
      <trkpt lat="50.57342" lon="2.1643">
        <ele>129</ele>
        <time>2013-08-24T11:19:50.000Z</time>
      </trkpt>
      <trkpt lat="50.57315" lon="2.1639">
        <ele>129</ele>
        <time>2013-08-24T11:19:56.000Z</time>
      </trkpt>
      <trkpt lat="50.5731" lon="2.1637">
        <ele>128</ele>
        <time>2013-08-24T11:19:59.000Z</time>
      </trkpt>
      <trkpt lat="50.57305" lon="2.16347">
        <ele>128</ele>
        <time>2013-08-24T11:20:02.000Z</time>
      </trkpt>
      <trkpt lat="50.57301" lon="2.16324">
        <ele>127</ele>
        <time>2013-08-24T11:20:05.000Z</time>
      </trkpt>
      <trkpt lat="50.57296" lon="2.16298">
        <ele>126</ele>
        <time>2013-08-24T11:20:09.000Z</time>
      </trkpt>
      <trkpt lat="50.57291" lon="2.16269">
        <ele>125</ele>
        <time>2013-08-24T11:20:11.000Z</time>
      </trkpt>
      <trkpt lat="50.57288" lon="2.16237">
        <ele>124</ele>
        <time>2013-08-24T11:20:14.000Z</time>
      </trkpt>
      <trkpt lat="50.57286" lon="2.16204">
        <ele>123</ele>
        <time>2013-08-24T11:20:17.000Z</time>
      </trkpt>
      <trkpt lat="50.57283" lon="2.16173">
        <ele>122</ele>
        <time>2013-08-24T11:20:20.000Z</time>
      </trkpt>
      <trkpt lat="50.57282" lon="2.16142">
        <ele>122</ele>
        <time>2013-08-24T11:20:23.000Z</time>
      </trkpt>
      <trkpt lat="50.57281" lon="2.1611">
        <ele>121</ele>
        <time>2013-08-24T11:20:26.000Z</time>
      </trkpt>
      <trkpt lat="50.57285" lon="2.16079">
        <ele>120</ele>
        <time>2013-08-24T11:20:29.000Z</time>
      </trkpt>
      <trkpt lat="50.57287" lon="2.16045">
        <ele>119</ele>
        <time>2013-08-24T11:20:32.000Z</time>
      </trkpt>
      <trkpt lat="50.57289" lon="2.16007">
        <ele>117</ele>
        <time>2013-08-24T11:20:35.000Z</time>
      </trkpt>
      <trkpt lat="50.5729" lon="2.15967">
        <ele>114</ele>
        <time>2013-08-24T11:20:38.000Z</time>
      </trkpt>
      <trkpt lat="50.57287" lon="2.15924">
        <ele>112</ele>
        <time>2013-08-24T11:20:41.000Z</time>
      </trkpt>
      <trkpt lat="50.57283" lon="2.15879">
        <ele>109</ele>
        <time>2013-08-24T11:20:44.000Z</time>
      </trkpt>
      <trkpt lat="50.5728" lon="2.15833">
        <ele>107</ele>
        <time>2013-08-24T11:20:47.000Z</time>
      </trkpt>
      <trkpt lat="50.57285" lon="2.15788">
        <ele>105</ele>
        <time>2013-08-24T11:20:50.000Z</time>
      </trkpt>
      <trkpt lat="50.57296" lon="2.15749">
        <ele>105</ele>
        <time>2013-08-24T11:20:53.000Z</time>
      </trkpt>
      <trkpt lat="50.57308" lon="2.15714">
        <ele>104</ele>
        <time>2013-08-24T11:20:56.000Z</time>
      </trkpt>
      <trkpt lat="50.57319" lon="2.15682">
        <ele>104</ele>
        <time>2013-08-24T11:20:59.000Z</time>
      </trkpt>
      <trkpt lat="50.57329" lon="2.15654">
        <ele>104</ele>
        <time>2013-08-24T11:21:02.000Z</time>
      </trkpt>
      <trkpt lat="50.57337" lon="2.15629">
        <ele>105</ele>
        <time>2013-08-24T11:21:05.000Z</time>
      </trkpt>
      <trkpt lat="50.57344" lon="2.15601">
        <ele>105</ele>
        <time>2013-08-24T11:21:08.000Z</time>
      </trkpt>
      <trkpt lat="50.57348" lon="2.15573">
        <ele>106</ele>
        <time>2013-08-24T11:21:11.000Z</time>
      </trkpt>
      <trkpt lat="50.57352" lon="2.15551">
        <ele>107</ele>
        <time>2013-08-24T11:21:14.000Z</time>
      </trkpt>
      <trkpt lat="50.57356" lon="2.15531">
        <ele>108</ele>
        <time>2013-08-24T11:21:17.000Z</time>
      </trkpt>
      <trkpt lat="50.57363" lon="2.15494">
        <ele>109</ele>
        <time>2013-08-24T11:21:23.000Z</time>
      </trkpt>
      <trkpt lat="50.5737" lon="2.15459">
        <ele>110</ele>
        <time>2013-08-24T11:21:29.000Z</time>
      </trkpt>
      <trkpt lat="50.57376" lon="2.15428">
        <ele>111</ele>
        <time>2013-08-24T11:21:35.000Z</time>
      </trkpt>
      <trkpt lat="50.5738" lon="2.15404">
        <ele>111</ele>
        <time>2013-08-24T11:21:41.000Z</time>
      </trkpt>
      <trkpt lat="50.57367" lon="2.15385">
        <ele>111</ele>
        <time>2013-08-24T11:21:44.000Z</time>
      </trkpt>
      <trkpt lat="50.57379" lon="2.15406">
        <ele>111</ele>
        <time>2013-08-24T11:23:11.000Z</time>
      </trkpt>
      <trkpt lat="50.57374" lon="2.15415">
        <ele>111</ele>
        <time>2013-08-24T11:24:29.000Z</time>
      </trkpt>
      <trkpt lat="50.57383" lon="2.15423">
        <ele>113</ele>
        <time>2013-08-24T11:34:23.000Z</time>
      </trkpt>
      <trkpt lat="50.57389" lon="2.15428">
        <ele>113</ele>
        <time>2013-08-24T11:34:26.000Z</time>
      </trkpt>
      <trkpt lat="50.57384" lon="2.15407">
        <ele>113</ele>
        <time>2013-08-24T11:36:35.000Z</time>
      </trkpt>
      <trkpt lat="50.5737" lon="2.15401">
        <ele>113</ele>
        <time>2013-08-24T11:36:41.000Z</time>
      </trkpt>
      <trkpt lat="50.57368" lon="2.15375">
        <ele>114</ele>
        <time>2013-08-24T11:36:47.000Z</time>
      </trkpt>
      <trkpt lat="50.57372" lon="2.15341">
        <ele>114</ele>
        <time>2013-08-24T11:36:53.000Z</time>
      </trkpt>
      <trkpt lat="50.57378" lon="2.15306">
        <ele>114</ele>
        <time>2013-08-24T11:36:59.000Z</time>
      </trkpt>
      <trkpt lat="50.57384" lon="2.15276">
        <ele>115</ele>
        <time>2013-08-24T11:37:05.000Z</time>
      </trkpt>
      <trkpt lat="50.5739" lon="2.15245">
        <ele>115</ele>
        <time>2013-08-24T11:37:11.000Z</time>
      </trkpt>
      <trkpt lat="50.57396" lon="2.15214">
        <ele>115</ele>
        <time>2013-08-24T11:37:17.000Z</time>
      </trkpt>
      <trkpt lat="50.57402" lon="2.15185">
        <ele>115</ele>
        <time>2013-08-24T11:37:23.000Z</time>
      </trkpt>
      <trkpt lat="50.57407" lon="2.15163">
        <ele>116</ele>
        <time>2013-08-24T11:37:30.000Z</time>
      </trkpt>
      <trkpt lat="50.57428" lon="2.15148">
        <ele>116</ele>
        <time>2013-08-24T11:37:35.000Z</time>
      </trkpt>
      <trkpt lat="50.57441" lon="2.15121">
        <ele>116</ele>
        <time>2013-08-24T11:37:41.000Z</time>
      </trkpt>
      <trkpt lat="50.57453" lon="2.15099">
        <ele>116</ele>
        <time>2013-08-24T11:37:48.000Z</time>
      </trkpt>
      <trkpt lat="50.57466" lon="2.15078">
        <ele>116</ele>
        <time>2013-08-24T11:37:53.000Z</time>
      </trkpt>
      <trkpt lat="50.57482" lon="2.15059">
        <ele>117</ele>
        <time>2013-08-24T11:37:59.000Z</time>
      </trkpt>
      <trkpt lat="50.57499" lon="2.15042">
        <ele>117</ele>
        <time>2013-08-24T11:38:05.000Z</time>
      </trkpt>
      <trkpt lat="50.57514" lon="2.15026">
        <ele>118</ele>
        <time>2013-08-24T11:38:11.000Z</time>
      </trkpt>
      <trkpt lat="50.57531" lon="2.15012">
        <ele>118</ele>
        <time>2013-08-24T11:38:17.000Z</time>
      </trkpt>
      <trkpt lat="50.57551" lon="2.14995">
        <ele>119</ele>
        <time>2013-08-24T11:38:23.000Z</time>
      </trkpt>
      <trkpt lat="50.5756" lon="2.14985">
        <ele>120</ele>
        <time>2013-08-24T11:38:30.000Z</time>
      </trkpt>
      <trkpt lat="50.5757" lon="2.14974">
        <ele>120</ele>
        <time>2013-08-24T11:38:32.000Z</time>
      </trkpt>
      <trkpt lat="50.57579" lon="2.14963">
        <ele>121</ele>
        <time>2013-08-24T11:38:35.000Z</time>
      </trkpt>
      <trkpt lat="50.57586" lon="2.14954">
        <ele>121</ele>
        <time>2013-08-24T11:38:38.000Z</time>
      </trkpt>
      <trkpt lat="50.57594" lon="2.14945">
        <ele>122</ele>
        <time>2013-08-24T11:38:41.000Z</time>
      </trkpt>
      <trkpt lat="50.57606" lon="2.14915">
        <ele>122</ele>
        <time>2013-08-24T11:38:44.000Z</time>
      </trkpt>
      <trkpt lat="50.57622" lon="2.14882">
        <ele>125</ele>
        <time>2013-08-24T11:38:51.000Z</time>
      </trkpt>
      <trkpt lat="50.57633" lon="2.14861">
        <ele>126</ele>
        <time>2013-08-24T11:38:53.000Z</time>
      </trkpt>
      <trkpt lat="50.5765" lon="2.14837">
        <ele>126</ele>
        <time>2013-08-24T11:38:56.000Z</time>
      </trkpt>
      <trkpt lat="50.57669" lon="2.1481">
        <ele>126</ele>
        <time>2013-08-24T11:38:59.000Z</time>
      </trkpt>
      <trkpt lat="50.57692" lon="2.14779">
        <ele>125</ele>
        <time>2013-08-24T11:39:02.000Z</time>
      </trkpt>
      <trkpt lat="50.57718" lon="2.14746">
        <ele>123</ele>
        <time>2013-08-24T11:39:05.000Z</time>
      </trkpt>
      <trkpt lat="50.57746" lon="2.14715">
        <ele>119</ele>
        <time>2013-08-24T11:39:08.000Z</time>
      </trkpt>
      <trkpt lat="50.57771" lon="2.14688">
        <ele>117</ele>
        <time>2013-08-24T11:39:11.000Z</time>
      </trkpt>
      <trkpt lat="50.57791" lon="2.1467">
        <ele>116</ele>
        <time>2013-08-24T11:39:14.000Z</time>
      </trkpt>
      <trkpt lat="50.57808" lon="2.14655">
        <ele>117</ele>
        <time>2013-08-24T11:39:17.000Z</time>
      </trkpt>
      <trkpt lat="50.57823" lon="2.14642">
        <ele>117</ele>
        <time>2013-08-24T11:39:20.000Z</time>
      </trkpt>
      <trkpt lat="50.57838" lon="2.14629">
        <ele>118</ele>
        <time>2013-08-24T11:39:23.000Z</time>
      </trkpt>
      <trkpt lat="50.5785" lon="2.14619">
        <ele>118</ele>
        <time>2013-08-24T11:39:26.000Z</time>
      </trkpt>
      <trkpt lat="50.57871" lon="2.146">
        <ele>119</ele>
        <time>2013-08-24T11:39:32.000Z</time>
      </trkpt>
      <trkpt lat="50.57891" lon="2.14583">
        <ele>122</ele>
        <time>2013-08-24T11:39:38.000Z</time>
      </trkpt>
      <trkpt lat="50.57911" lon="2.14565">
        <ele>123</ele>
        <time>2013-08-24T11:39:44.000Z</time>
      </trkpt>
      <trkpt lat="50.5793" lon="2.14549">
        <ele>124</ele>
        <time>2013-08-24T11:39:50.000Z</time>
      </trkpt>
      <trkpt lat="50.57948" lon="2.14524">
        <ele>125</ele>
        <time>2013-08-24T11:39:56.000Z</time>
      </trkpt>
      <trkpt lat="50.57969" lon="2.14506">
        <ele>127</ele>
        <time>2013-08-24T11:40:02.000Z</time>
      </trkpt>
      <trkpt lat="50.5799" lon="2.14487">
        <ele>131</ele>
        <time>2013-08-24T11:40:08.000Z</time>
      </trkpt>
      <trkpt lat="50.58009" lon="2.14471">
        <ele>131</ele>
        <time>2013-08-24T11:40:14.000Z</time>
      </trkpt>
      <trkpt lat="50.58026" lon="2.14456">
        <ele>131</ele>
        <time>2013-08-24T11:40:20.000Z</time>
      </trkpt>
      <trkpt lat="50.58049" lon="2.14449">
        <ele>131</ele>
        <time>2013-08-24T11:40:26.000Z</time>
      </trkpt>
      <trkpt lat="50.58071" lon="2.14438">
        <ele>130</ele>
        <time>2013-08-24T11:40:32.000Z</time>
      </trkpt>
      <trkpt lat="50.58092" lon="2.14429">
        <ele>130</ele>
        <time>2013-08-24T11:40:38.000Z</time>
      </trkpt>
      <trkpt lat="50.58114" lon="2.14418">
        <ele>129</ele>
        <time>2013-08-24T11:40:44.000Z</time>
      </trkpt>
      <trkpt lat="50.58135" lon="2.14406">
        <ele>131</ele>
        <time>2013-08-24T11:40:50.000Z</time>
      </trkpt>
      <trkpt lat="50.58158" lon="2.14389">
        <ele>136</ele>
        <time>2013-08-24T11:40:56.000Z</time>
      </trkpt>
      <trkpt lat="50.5818" lon="2.14372">
        <ele>135</ele>
        <time>2013-08-24T11:41:02.000Z</time>
      </trkpt>
      <trkpt lat="50.58202" lon="2.14357">
        <ele>135</ele>
        <time>2013-08-24T11:41:08.000Z</time>
      </trkpt>
      <trkpt lat="50.5822" lon="2.14332">
        <ele>137</ele>
        <time>2013-08-24T11:41:14.000Z</time>
      </trkpt>
      <trkpt lat="50.58238" lon="2.14311">
        <ele>137</ele>
        <time>2013-08-24T11:41:20.000Z</time>
      </trkpt>
      <trkpt lat="50.58285" lon="2.14259">
        <ele>137</ele>
        <time>2013-08-24T11:41:35.000Z</time>
      </trkpt>
      <trkpt lat="50.58303" lon="2.1424">
        <ele>139</ele>
        <time>2013-08-24T11:41:41.000Z</time>
      </trkpt>
      <trkpt lat="50.58324" lon="2.1422">
        <ele>141</ele>
        <time>2013-08-24T11:41:47.000Z</time>
      </trkpt>
      <trkpt lat="50.58344" lon="2.14199">
        <ele>143</ele>
        <time>2013-08-24T11:41:53.000Z</time>
      </trkpt>
      <trkpt lat="50.58354" lon="2.14184">
        <ele>142</ele>
        <time>2013-08-24T11:41:56.000Z</time>
      </trkpt>
      <trkpt lat="50.58364" lon="2.14166">
        <ele>141</ele>
        <time>2013-08-24T11:41:59.000Z</time>
      </trkpt>
      <trkpt lat="50.58373" lon="2.14148">
        <ele>141</ele>
        <time>2013-08-24T11:42:02.000Z</time>
      </trkpt>
      <trkpt lat="50.58383" lon="2.14127">
        <ele>143</ele>
        <time>2013-08-24T11:42:05.000Z</time>
      </trkpt>
      <trkpt lat="50.58393" lon="2.14107">
        <ele>144</ele>
        <time>2013-08-24T11:42:08.000Z</time>
      </trkpt>
      <trkpt lat="50.58403" lon="2.14087">
        <ele>145</ele>
        <time>2013-08-24T11:42:11.000Z</time>
      </trkpt>
      <trkpt lat="50.58414" lon="2.14067">
        <ele>145</ele>
        <time>2013-08-24T11:42:14.000Z</time>
      </trkpt>
      <trkpt lat="50.58423" lon="2.14049">
        <ele>145</ele>
        <time>2013-08-24T11:42:17.000Z</time>
      </trkpt>
      <trkpt lat="50.58431" lon="2.14032">
        <ele>144</ele>
        <time>2013-08-24T11:42:20.000Z</time>
      </trkpt>
      <trkpt lat="50.5844" lon="2.14014">
        <ele>144</ele>
        <time>2013-08-24T11:42:23.000Z</time>
      </trkpt>
      <trkpt lat="50.5845" lon="2.13993">
        <ele>145</ele>
        <time>2013-08-24T11:42:26.000Z</time>
      </trkpt>
      <trkpt lat="50.58462" lon="2.13973">
        <ele>146</ele>
        <time>2013-08-24T11:42:29.000Z</time>
      </trkpt>
      <trkpt lat="50.58474" lon="2.13954">
        <ele>146</ele>
        <time>2013-08-24T11:42:32.000Z</time>
      </trkpt>
      <trkpt lat="50.58488" lon="2.13934">
        <ele>145</ele>
        <time>2013-08-24T11:42:35.000Z</time>
      </trkpt>
      <trkpt lat="50.58501" lon="2.13915">
        <ele>144</ele>
        <time>2013-08-24T11:42:38.000Z</time>
      </trkpt>
      <trkpt lat="50.58515" lon="2.13897">
        <ele>142</ele>
        <time>2013-08-24T11:42:41.000Z</time>
      </trkpt>
      <trkpt lat="50.58528" lon="2.13879">
        <ele>140</ele>
        <time>2013-08-24T11:42:44.000Z</time>
      </trkpt>
      <trkpt lat="50.58538" lon="2.13865">
        <ele>142</ele>
        <time>2013-08-24T11:42:47.000Z</time>
      </trkpt>
      <trkpt lat="50.58549" lon="2.13849">
        <ele>143</ele>
        <time>2013-08-24T11:42:50.000Z</time>
      </trkpt>
      <trkpt lat="50.58561" lon="2.13833">
        <ele>144</ele>
        <time>2013-08-24T11:42:53.000Z</time>
      </trkpt>
      <trkpt lat="50.58569" lon="2.13814">
        <ele>144</ele>
        <time>2013-08-24T11:42:56.000Z</time>
      </trkpt>
      <trkpt lat="50.58579" lon="2.13795">
        <ele>145</ele>
        <time>2013-08-24T11:42:59.000Z</time>
      </trkpt>
      <trkpt lat="50.5859" lon="2.13773">
        <ele>145</ele>
        <time>2013-08-24T11:43:02.000Z</time>
      </trkpt>
      <trkpt lat="50.58603" lon="2.13755">
        <ele>143</ele>
        <time>2013-08-24T11:43:05.000Z</time>
      </trkpt>
      <trkpt lat="50.58612" lon="2.13739">
        <ele>143</ele>
        <time>2013-08-24T11:43:08.000Z</time>
      </trkpt>
      <trkpt lat="50.58624" lon="2.13724">
        <ele>143</ele>
        <time>2013-08-24T11:43:11.000Z</time>
      </trkpt>
      <trkpt lat="50.58637" lon="2.13708">
        <ele>142</ele>
        <time>2013-08-24T11:43:14.000Z</time>
      </trkpt>
      <trkpt lat="50.58649" lon="2.13692">
        <ele>142</ele>
        <time>2013-08-24T11:43:17.000Z</time>
      </trkpt>
      <trkpt lat="50.5866" lon="2.13678">
        <ele>142</ele>
        <time>2013-08-24T11:43:20.000Z</time>
      </trkpt>
      <trkpt lat="50.58672" lon="2.13662">
        <ele>142</ele>
        <time>2013-08-24T11:43:23.000Z</time>
      </trkpt>
      <trkpt lat="50.58685" lon="2.13646">
        <ele>143</ele>
        <time>2013-08-24T11:43:26.000Z</time>
      </trkpt>
      <trkpt lat="50.58697" lon="2.1363">
        <ele>142</ele>
        <time>2013-08-24T11:43:29.000Z</time>
      </trkpt>
      <trkpt lat="50.58707" lon="2.13617">
        <ele>143</ele>
        <time>2013-08-24T11:43:32.000Z</time>
      </trkpt>
      <trkpt lat="50.58718" lon="2.13603">
        <ele>144</ele>
        <time>2013-08-24T11:43:35.000Z</time>
      </trkpt>
      <trkpt lat="50.58733" lon="2.13583">
        <ele>145</ele>
        <time>2013-08-24T11:43:41.000Z</time>
      </trkpt>
      <trkpt lat="50.58745" lon="2.13568">
        <ele>145</ele>
        <time>2013-08-24T11:43:47.000Z</time>
      </trkpt>
      <trkpt lat="50.58737" lon="2.13535">
        <ele>145</ele>
        <time>2013-08-24T11:43:53.000Z</time>
      </trkpt>
      <trkpt lat="50.58734" lon="2.13511">
        <ele>145</ele>
        <time>2013-08-24T11:43:56.000Z</time>
      </trkpt>
      <trkpt lat="50.58733" lon="2.13491">
        <ele>145</ele>
        <time>2013-08-24T11:43:59.000Z</time>
      </trkpt>
      <trkpt lat="50.58735" lon="2.13472">
        <ele>145</ele>
        <time>2013-08-24T11:44:02.000Z</time>
      </trkpt>
      <trkpt lat="50.58737" lon="2.13455">
        <ele>145</ele>
        <time>2013-08-24T11:44:05.000Z</time>
      </trkpt>
      <trkpt lat="50.58741" lon="2.1342">
        <ele>146</ele>
        <time>2013-08-24T11:44:08.000Z</time>
      </trkpt>
      <trkpt lat="50.58746" lon="2.13388">
        <ele>146</ele>
        <time>2013-08-24T11:44:14.000Z</time>
      </trkpt>
      <trkpt lat="50.58749" lon="2.13357">
        <ele>146</ele>
        <time>2013-08-24T11:44:20.000Z</time>
      </trkpt>
      <trkpt lat="50.58774" lon="2.13336">
        <ele>146</ele>
        <time>2013-08-24T11:44:26.000Z</time>
      </trkpt>
      <trkpt lat="50.58791" lon="2.13311">
        <ele>147</ele>
        <time>2013-08-24T11:44:32.000Z</time>
      </trkpt>
      <trkpt lat="50.58807" lon="2.13284">
        <ele>149</ele>
        <time>2013-08-24T11:44:38.000Z</time>
      </trkpt>
      <trkpt lat="50.5882" lon="2.13252">
        <ele>149</ele>
        <time>2013-08-24T11:44:44.000Z</time>
      </trkpt>
      <trkpt lat="50.58831" lon="2.13224">
        <ele>150</ele>
        <time>2013-08-24T11:44:50.000Z</time>
      </trkpt>
      <trkpt lat="50.58839" lon="2.13205">
        <ele>150</ele>
        <time>2013-08-24T11:44:56.000Z</time>
      </trkpt>
      <trkpt lat="50.58849" lon="2.13182">
        <ele>150</ele>
        <time>2013-08-24T11:45:05.000Z</time>
      </trkpt>
      <trkpt lat="50.58832" lon="2.13153">
        <ele>150</ele>
        <time>2013-08-24T11:45:11.000Z</time>
      </trkpt>
      <trkpt lat="50.58822" lon="2.13124">
        <ele>151</ele>
        <time>2013-08-24T11:45:18.000Z</time>
      </trkpt>
      <trkpt lat="50.58812" lon="2.13091">
        <ele>151</ele>
        <time>2013-08-24T11:45:23.000Z</time>
      </trkpt>
      <trkpt lat="50.58804" lon="2.13061">
        <ele>151</ele>
        <time>2013-08-24T11:45:29.000Z</time>
      </trkpt>
      <trkpt lat="50.588" lon="2.13029">
        <ele>151</ele>
        <time>2013-08-24T11:45:35.000Z</time>
      </trkpt>
      <trkpt lat="50.58798" lon="2.12995">
        <ele>151</ele>
        <time>2013-08-24T11:45:41.000Z</time>
      </trkpt>
      <trkpt lat="50.58797" lon="2.12964">
        <ele>152</ele>
        <time>2013-08-24T11:45:47.000Z</time>
      </trkpt>
      <trkpt lat="50.58795" lon="2.1294">
        <ele>152</ele>
        <time>2013-08-24T11:45:53.000Z</time>
      </trkpt>
      <trkpt lat="50.58794" lon="2.12915">
        <ele>153</ele>
        <time>2013-08-24T11:45:59.000Z</time>
      </trkpt>
      <trkpt lat="50.58792" lon="2.12891">
        <ele>153</ele>
        <time>2013-08-24T11:46:05.000Z</time>
      </trkpt>
      <trkpt lat="50.58791" lon="2.12869">
        <ele>154</ele>
        <time>2013-08-24T11:46:11.000Z</time>
      </trkpt>
      <trkpt lat="50.5879" lon="2.12839">
        <ele>155</ele>
        <time>2013-08-24T11:46:20.000Z</time>
      </trkpt>
      <trkpt lat="50.58789" lon="2.12819">
        <ele>155</ele>
        <time>2013-08-24T11:46:26.000Z</time>
      </trkpt>
      <trkpt lat="50.58788" lon="2.12799">
        <ele>156</ele>
        <time>2013-08-24T11:46:32.000Z</time>
      </trkpt>
      <trkpt lat="50.58776" lon="2.12789">
        <ele>156</ele>
        <time>2013-08-24T11:46:35.000Z</time>
      </trkpt>
      <trkpt lat="50.58768" lon="2.12772">
        <ele>157</ele>
        <time>2013-08-24T11:46:41.000Z</time>
      </trkpt>
      <trkpt lat="50.58759" lon="2.12748">
        <ele>159</ele>
        <time>2013-08-24T11:46:50.000Z</time>
      </trkpt>
      <trkpt lat="50.58754" lon="2.12737">
        <ele>160</ele>
        <time>2013-08-24T11:46:59.000Z</time>
      </trkpt>
      <trkpt lat="50.58751" lon="2.12728">
        <ele>161</ele>
        <time>2013-08-24T11:47:02.000Z</time>
      </trkpt>
      <trkpt lat="50.58746" lon="2.12716">
        <ele>162</ele>
        <time>2013-08-24T11:47:08.000Z</time>
      </trkpt>
      <trkpt lat="50.58739" lon="2.12708">
        <ele>162</ele>
        <time>2013-08-24T11:47:11.000Z</time>
      </trkpt>
      <trkpt lat="50.58734" lon="2.12699">
        <ele>163</ele>
        <time>2013-08-24T11:47:14.000Z</time>
      </trkpt>
      <trkpt lat="50.58729" lon="2.1269">
        <ele>163</ele>
        <time>2013-08-24T11:47:17.000Z</time>
      </trkpt>
      <trkpt lat="50.58725" lon="2.12681">
        <ele>164</ele>
        <time>2013-08-24T11:47:20.000Z</time>
      </trkpt>
      <trkpt lat="50.58714" lon="2.12657">
        <ele>165</ele>
        <time>2013-08-24T11:47:26.000Z</time>
      </trkpt>
      <trkpt lat="50.58704" lon="2.1263">
        <ele>166</ele>
        <time>2013-08-24T11:47:35.000Z</time>
      </trkpt>
      <trkpt lat="50.58696" lon="2.12612">
        <ele>167</ele>
        <time>2013-08-24T11:47:41.000Z</time>
      </trkpt>
      <trkpt lat="50.58686" lon="2.12588">
        <ele>169</ele>
        <time>2013-08-24T11:47:50.000Z</time>
      </trkpt>
      <trkpt lat="50.58678" lon="2.12568">
        <ele>170</ele>
        <time>2013-08-24T11:47:56.000Z</time>
      </trkpt>
      <trkpt lat="50.58671" lon="2.12551">
        <ele>171</ele>
        <time>2013-08-24T11:48:02.000Z</time>
      </trkpt>
      <trkpt lat="50.58664" lon="2.12529">
        <ele>171</ele>
        <time>2013-08-24T11:48:08.000Z</time>
      </trkpt>
      <trkpt lat="50.58657" lon="2.12506">
        <ele>172</ele>
        <time>2013-08-24T11:48:17.000Z</time>
      </trkpt>
      <trkpt lat="50.58649" lon="2.12481">
        <ele>174</ele>
        <time>2013-08-24T11:48:26.000Z</time>
      </trkpt>
      <trkpt lat="50.58639" lon="2.12465">
        <ele>176</ele>
        <time>2013-08-24T11:48:32.000Z</time>
      </trkpt>
      <trkpt lat="50.5863" lon="2.12441">
        <ele>178</ele>
        <time>2013-08-24T11:48:41.000Z</time>
      </trkpt>
      <trkpt lat="50.58619" lon="2.12418">
        <ele>180</ele>
        <time>2013-08-24T11:48:50.000Z</time>
      </trkpt>
      <trkpt lat="50.58619" lon="2.12392">
        <ele>181</ele>
        <time>2013-08-24T11:48:56.000Z</time>
      </trkpt>
      <trkpt lat="50.58614" lon="2.1233">
        <ele>184</ele>
        <time>2013-08-24T11:49:17.000Z</time>
      </trkpt>
      <trkpt lat="50.58606" lon="2.12279">
        <ele>193</ele>
        <time>2013-08-24T11:49:59.000Z</time>
      </trkpt>
      <trkpt lat="50.58601" lon="2.12248">
        <ele>194</ele>
        <time>2013-08-24T11:50:02.000Z</time>
      </trkpt>
      <trkpt lat="50.58599" lon="2.12228">
        <ele>194</ele>
        <time>2013-08-24T11:50:05.000Z</time>
      </trkpt>
      <trkpt lat="50.58597" lon="2.12214">
        <ele>195</ele>
        <time>2013-08-24T11:50:08.000Z</time>
      </trkpt>
      <trkpt lat="50.58595" lon="2.12203">
        <ele>195</ele>
        <time>2013-08-24T11:50:11.000Z</time>
      </trkpt>
      <trkpt lat="50.58591" lon="2.12175">
        <ele>196</ele>
        <time>2013-08-24T11:50:17.000Z</time>
      </trkpt>
      <trkpt lat="50.58595" lon="2.12156">
        <ele>196</ele>
        <time>2013-08-24T11:50:23.000Z</time>
      </trkpt>
      <trkpt lat="50.5859" lon="2.12125">
        <ele>198</ele>
        <time>2013-08-24T11:50:35.000Z</time>
      </trkpt>
      <trkpt lat="50.5859" lon="2.121">
        <ele>200</ele>
        <time>2013-08-24T11:50:44.000Z</time>
      </trkpt>
      <trkpt lat="50.5859" lon="2.12078">
        <ele>202</ele>
        <time>2013-08-24T11:50:53.000Z</time>
      </trkpt>
      <trkpt lat="50.58581" lon="2.12057">
        <ele>203</ele>
        <time>2013-08-24T11:50:59.000Z</time>
      </trkpt>
      <trkpt lat="50.58577" lon="2.11987">
        <ele>211</ele>
        <time>2013-08-24T11:51:23.000Z</time>
      </trkpt>
      <trkpt lat="50.58583" lon="2.11969">
        <ele>212</ele>
        <time>2013-08-24T11:51:29.000Z</time>
      </trkpt>
      <trkpt lat="50.58596" lon="2.1194">
        <ele>214</ele>
        <time>2013-08-24T11:51:41.000Z</time>
      </trkpt>
      <trkpt lat="50.58608" lon="2.11923">
        <ele>216</ele>
        <time>2013-08-24T11:51:50.000Z</time>
      </trkpt>
      <trkpt lat="50.58619" lon="2.11909">
        <ele>217</ele>
        <time>2013-08-24T11:51:56.000Z</time>
      </trkpt>
      <trkpt lat="50.5863" lon="2.11894">
        <ele>218</ele>
        <time>2013-08-24T11:52:02.000Z</time>
      </trkpt>
      <trkpt lat="50.5864" lon="2.11878">
        <ele>219</ele>
        <time>2013-08-24T11:52:08.000Z</time>
      </trkpt>
      <trkpt lat="50.58652" lon="2.11862">
        <ele>220</ele>
        <time>2013-08-24T11:52:14.000Z</time>
      </trkpt>
      <trkpt lat="50.58665" lon="2.11844">
        <ele>220</ele>
        <time>2013-08-24T11:52:20.000Z</time>
      </trkpt>
      <trkpt lat="50.58678" lon="2.11826">
        <ele>221</ele>
        <time>2013-08-24T11:52:26.000Z</time>
      </trkpt>
      <trkpt lat="50.58685" lon="2.11815">
        <ele>222</ele>
        <time>2013-08-24T11:52:32.000Z</time>
      </trkpt>
      <trkpt lat="50.58692" lon="2.11804">
        <ele>223</ele>
        <time>2013-08-24T11:52:35.000Z</time>
      </trkpt>
      <trkpt lat="50.58699" lon="2.11791">
        <ele>223</ele>
        <time>2013-08-24T11:52:38.000Z</time>
      </trkpt>
      <trkpt lat="50.58705" lon="2.11778">
        <ele>223</ele>
        <time>2013-08-24T11:52:41.000Z</time>
      </trkpt>
      <trkpt lat="50.58711" lon="2.11766">
        <ele>223</ele>
        <time>2013-08-24T11:52:44.000Z</time>
      </trkpt>
      <trkpt lat="50.58725" lon="2.11744">
        <ele>223</ele>
        <time>2013-08-24T11:52:47.000Z</time>
      </trkpt>
      <trkpt lat="50.58739" lon="2.11721">
        <ele>224</ele>
        <time>2013-08-24T11:52:53.000Z</time>
      </trkpt>
      <trkpt lat="50.58751" lon="2.11702">
        <ele>225</ele>
        <time>2013-08-24T11:52:59.000Z</time>
      </trkpt>
      <trkpt lat="50.58758" lon="2.11685">
        <ele>228</ele>
        <time>2013-08-24T11:55:23.000Z</time>
      </trkpt>
      <trkpt lat="50.58764" lon="2.11673">
        <ele>228</ele>
        <time>2013-08-24T11:55:26.000Z</time>
      </trkpt>
      <trkpt lat="50.5877" lon="2.11662">
        <ele>228</ele>
        <time>2013-08-24T11:55:29.000Z</time>
      </trkpt>
      <trkpt lat="50.58778" lon="2.1165">
        <ele>227</ele>
        <time>2013-08-24T11:55:32.000Z</time>
      </trkpt>
      <trkpt lat="50.58786" lon="2.11638">
        <ele>225</ele>
        <time>2013-08-24T11:55:35.000Z</time>
      </trkpt>
      <trkpt lat="50.58802" lon="2.11612">
        <ele>225</ele>
        <time>2013-08-24T11:55:38.000Z</time>
      </trkpt>
      <trkpt lat="50.58819" lon="2.11585">
        <ele>222</ele>
        <time>2013-08-24T11:55:44.000Z</time>
      </trkpt>
      <trkpt lat="50.58828" lon="2.11571">
        <ele>221</ele>
        <time>2013-08-24T11:55:47.000Z</time>
      </trkpt>
      <trkpt lat="50.58839" lon="2.11554">
        <ele>221</ele>
        <time>2013-08-24T11:55:50.000Z</time>
      </trkpt>
      <trkpt lat="50.5885" lon="2.11539">
        <ele>221</ele>
        <time>2013-08-24T11:55:53.000Z</time>
      </trkpt>
      <trkpt lat="50.58865" lon="2.1152">
        <ele>221</ele>
        <time>2013-08-24T11:55:56.000Z</time>
      </trkpt>
      <trkpt lat="50.58882" lon="2.115">
        <ele>221</ele>
        <time>2013-08-24T11:55:59.000Z</time>
      </trkpt>
      <trkpt lat="50.58901" lon="2.11478">
        <ele>220</ele>
        <time>2013-08-24T11:56:02.000Z</time>
      </trkpt>
      <trkpt lat="50.58923" lon="2.11452">
        <ele>220</ele>
        <time>2013-08-24T11:56:05.000Z</time>
      </trkpt>
      <trkpt lat="50.58945" lon="2.11422">
        <ele>219</ele>
        <time>2013-08-24T11:56:08.000Z</time>
      </trkpt>
      <trkpt lat="50.58969" lon="2.11386">
        <ele>220</ele>
        <time>2013-08-24T11:56:11.000Z</time>
      </trkpt>
      <trkpt lat="50.58995" lon="2.11349">
        <ele>221</ele>
        <time>2013-08-24T11:56:14.000Z</time>
      </trkpt>
      <trkpt lat="50.59023" lon="2.11311">
        <ele>221</ele>
        <time>2013-08-24T11:56:17.000Z</time>
      </trkpt>
      <trkpt lat="50.59051" lon="2.11275">
        <ele>220</ele>
        <time>2013-08-24T11:56:20.000Z</time>
      </trkpt>
      <trkpt lat="50.59079" lon="2.1124">
        <ele>218</ele>
        <time>2013-08-24T11:56:23.000Z</time>
      </trkpt>
      <trkpt lat="50.5911" lon="2.11211">
        <ele>213</ele>
        <time>2013-08-24T11:56:26.000Z</time>
      </trkpt>
      <trkpt lat="50.59142" lon="2.11184">
        <ele>210</ele>
        <time>2013-08-24T11:56:29.000Z</time>
      </trkpt>
      <trkpt lat="50.59173" lon="2.11159">
        <ele>207</ele>
        <time>2013-08-24T11:56:32.000Z</time>
      </trkpt>
      <trkpt lat="50.59205" lon="2.11135">
        <ele>204</ele>
        <time>2013-08-24T11:56:35.000Z</time>
      </trkpt>
      <trkpt lat="50.59238" lon="2.11109">
        <ele>200</ele>
        <time>2013-08-24T11:56:38.000Z</time>
      </trkpt>
      <trkpt lat="50.59272" lon="2.11083">
        <ele>197</ele>
        <time>2013-08-24T11:56:41.000Z</time>
      </trkpt>
      <trkpt lat="50.59307" lon="2.11054">
        <ele>193</ele>
        <time>2013-08-24T11:56:44.000Z</time>
      </trkpt>
      <trkpt lat="50.59341" lon="2.11025">
        <ele>190</ele>
        <time>2013-08-24T11:56:47.000Z</time>
      </trkpt>
      <trkpt lat="50.59374" lon="2.10996">
        <ele>187</ele>
        <time>2013-08-24T11:56:50.000Z</time>
      </trkpt>
      <trkpt lat="50.59404" lon="2.10965">
        <ele>183</ele>
        <time>2013-08-24T11:56:53.000Z</time>
      </trkpt>
      <trkpt lat="50.59433" lon="2.10935">
        <ele>181</ele>
        <time>2013-08-24T11:56:56.000Z</time>
      </trkpt>
      <trkpt lat="50.59461" lon="2.10907">
        <ele>179</ele>
        <time>2013-08-24T11:56:59.000Z</time>
      </trkpt>
      <trkpt lat="50.59489" lon="2.10878">
        <ele>179</ele>
        <time>2013-08-24T11:57:09.000Z</time>
      </trkpt>
      <trkpt lat="50.59518" lon="2.10847">
        <ele>179</ele>
        <time>2013-08-24T11:57:09.000Z</time>
      </trkpt>
      <trkpt lat="50.59546" lon="2.10815">
        <ele>178</ele>
        <time>2013-08-24T11:57:09.000Z</time>
      </trkpt>
      <trkpt lat="50.59575" lon="2.10784">
        <ele>177</ele>
        <time>2013-08-24T11:57:11.000Z</time>
      </trkpt>
      <trkpt lat="50.59599" lon="2.10754">
        <ele>174</ele>
        <time>2013-08-24T11:57:14.000Z</time>
      </trkpt>
      <trkpt lat="50.59624" lon="2.10723">
        <ele>173</ele>
        <time>2013-08-24T11:57:17.000Z</time>
      </trkpt>
      <trkpt lat="50.59649" lon="2.10692">
        <ele>173</ele>
        <time>2013-08-24T11:57:20.000Z</time>
      </trkpt>
      <trkpt lat="50.59673" lon="2.1066">
        <ele>170</ele>
        <time>2013-08-24T11:57:23.000Z</time>
      </trkpt>
      <trkpt lat="50.59695" lon="2.10627">
        <ele>170</ele>
        <time>2013-08-24T11:57:26.000Z</time>
      </trkpt>
      <trkpt lat="50.59718" lon="2.10593">
        <ele>169</ele>
        <time>2013-08-24T11:57:29.000Z</time>
      </trkpt>
      <trkpt lat="50.59737" lon="2.10559">
        <ele>167</ele>
        <time>2013-08-24T11:57:32.000Z</time>
      </trkpt>
      <trkpt lat="50.59755" lon="2.10526">
        <ele>165</ele>
        <time>2013-08-24T11:57:35.000Z</time>
      </trkpt>
      <trkpt lat="50.59771" lon="2.10492">
        <ele>163</ele>
        <time>2013-08-24T11:57:38.000Z</time>
      </trkpt>
      <trkpt lat="50.59784" lon="2.10458">
        <ele>163</ele>
        <time>2013-08-24T11:57:41.000Z</time>
      </trkpt>
      <trkpt lat="50.59795" lon="2.10419">
        <ele>162</ele>
        <time>2013-08-24T11:57:44.000Z</time>
      </trkpt>
      <trkpt lat="50.59806" lon="2.10381">
        <ele>163</ele>
        <time>2013-08-24T11:57:47.000Z</time>
      </trkpt>
      <trkpt lat="50.59816" lon="2.10343">
        <ele>162</ele>
        <time>2013-08-24T11:57:50.000Z</time>
      </trkpt>
      <trkpt lat="50.59825" lon="2.10303">
        <ele>160</ele>
        <time>2013-08-24T11:57:53.000Z</time>
      </trkpt>
      <trkpt lat="50.59837" lon="2.10263">
        <ele>159</ele>
        <time>2013-08-24T11:57:56.000Z</time>
      </trkpt>
      <trkpt lat="50.59851" lon="2.10226">
        <ele>158</ele>
        <time>2013-08-24T11:58:00.000Z</time>
      </trkpt>
      <trkpt lat="50.59868" lon="2.10188">
        <ele>156</ele>
        <time>2013-08-24T11:58:04.000Z</time>
      </trkpt>
      <trkpt lat="50.59886" lon="2.10154">
        <ele>156</ele>
        <time>2013-08-24T11:58:05.000Z</time>
      </trkpt>
      <trkpt lat="50.59906" lon="2.1012">
        <ele>157</ele>
        <time>2013-08-24T11:58:08.000Z</time>
      </trkpt>
      <trkpt lat="50.59926" lon="2.10084">
        <ele>157</ele>
        <time>2013-08-24T11:58:11.000Z</time>
      </trkpt>
      <trkpt lat="50.59941" lon="2.10051">
        <ele>155</ele>
        <time>2013-08-24T11:58:14.000Z</time>
      </trkpt>
      <trkpt lat="50.59956" lon="2.10014">
        <ele>152</ele>
        <time>2013-08-24T11:58:17.000Z</time>
      </trkpt>
      <trkpt lat="50.59972" lon="2.09977">
        <ele>148</ele>
        <time>2013-08-24T11:58:23.000Z</time>
      </trkpt>
      <trkpt lat="50.59972" lon="2.0995">
        <ele>148</ele>
        <time>2013-08-24T11:58:53.000Z</time>
      </trkpt>
      <trkpt lat="50.59977" lon="2.09906">
        <ele>145</ele>
        <time>2013-08-24T11:59:00.000Z</time>
      </trkpt>
      <trkpt lat="50.5998" lon="2.0988">
        <ele>145</ele>
        <time>2013-08-24T11:59:09.000Z</time>
      </trkpt>
      <trkpt lat="50.59986" lon="2.09852">
        <ele>144</ele>
        <time>2013-08-24T11:59:09.000Z</time>
      </trkpt>
      <trkpt lat="50.5999" lon="2.0983">
        <ele>144</ele>
        <time>2013-08-24T11:59:09.000Z</time>
      </trkpt>
      <trkpt lat="50.59994" lon="2.09804">
        <ele>143</ele>
        <time>2013-08-24T11:59:14.000Z</time>
      </trkpt>
      <trkpt lat="50.6001" lon="2.0982">
        <ele>142</ele>
        <time>2013-08-24T11:59:26.000Z</time>
      </trkpt>
      <trkpt lat="50.60019" lon="2.09799">
        <ele>142</ele>
        <time>2013-08-24T11:59:32.000Z</time>
      </trkpt>
      <trkpt lat="50.6003" lon="2.09774">
        <ele>142</ele>
        <time>2013-08-24T11:59:38.000Z</time>
      </trkpt>
      <trkpt lat="50.60017" lon="2.09733">
        <ele>139</ele>
        <time>2013-08-24T11:59:44.000Z</time>
      </trkpt>
      <trkpt lat="50.60004" lon="2.09714">
        <ele>137</ele>
        <time>2013-08-24T11:59:47.000Z</time>
      </trkpt>
      <trkpt lat="50.59989" lon="2.09694">
        <ele>137</ele>
        <time>2013-08-24T11:59:50.000Z</time>
      </trkpt>
      <trkpt lat="50.59975" lon="2.09674">
        <ele>136</ele>
        <time>2013-08-24T11:59:53.000Z</time>
      </trkpt>
      <trkpt lat="50.59962" lon="2.09658">
        <ele>134</ele>
        <time>2013-08-24T11:59:56.000Z</time>
      </trkpt>
      <trkpt lat="50.59951" lon="2.09642">
        <ele>132</ele>
        <time>2013-08-24T12:00:02.000Z</time>
      </trkpt>
      <trkpt lat="50.59959" lon="2.09615">
        <ele>131</ele>
        <time>2013-08-24T12:00:05.000Z</time>
      </trkpt>
      <trkpt lat="50.59957" lon="2.09586">
        <ele>129</ele>
        <time>2013-08-24T12:00:11.000Z</time>
      </trkpt>
      <trkpt lat="50.59958" lon="2.0955">
        <ele>127</ele>
        <time>2013-08-24T12:00:17.000Z</time>
      </trkpt>
      <trkpt lat="50.59958" lon="2.09508">
        <ele>126</ele>
        <time>2013-08-24T12:00:23.000Z</time>
      </trkpt>
      <trkpt lat="50.59959" lon="2.09486">
        <ele>125</ele>
        <time>2013-08-24T12:00:26.000Z</time>
      </trkpt>
      <trkpt lat="50.59961" lon="2.09447">
        <ele>126</ele>
        <time>2013-08-24T12:00:32.000Z</time>
      </trkpt>
      <trkpt lat="50.59962" lon="2.09426">
        <ele>124</ele>
        <time>2013-08-24T12:00:36.000Z</time>
      </trkpt>
      <trkpt lat="50.59964" lon="2.09401">
        <ele>124</ele>
        <time>2013-08-24T12:00:38.000Z</time>
      </trkpt>
      <trkpt lat="50.59966" lon="2.09381">
        <ele>124</ele>
        <time>2013-08-24T12:00:41.000Z</time>
      </trkpt>
      <trkpt lat="50.59968" lon="2.09358">
        <ele>124</ele>
        <time>2013-08-24T12:00:44.000Z</time>
      </trkpt>
      <trkpt lat="50.59966" lon="2.09322">
        <ele>121</ele>
        <time>2013-08-24T12:00:51.000Z</time>
      </trkpt>
      <trkpt lat="50.59967" lon="2.09302">
        <ele>120</ele>
        <time>2013-08-24T12:00:53.000Z</time>
      </trkpt>
      <trkpt lat="50.59968" lon="2.0928">
        <ele>118</ele>
        <time>2013-08-24T12:00:56.000Z</time>
      </trkpt>
      <trkpt lat="50.5996" lon="2.09242">
        <ele>118</ele>
        <time>2013-08-24T12:01:02.000Z</time>
      </trkpt>
      <trkpt lat="50.59956" lon="2.09208">
        <ele>119</ele>
        <time>2013-08-24T12:01:08.000Z</time>
      </trkpt>
      <trkpt lat="50.59953" lon="2.09183">
        <ele>119</ele>
        <time>2013-08-24T12:01:14.000Z</time>
      </trkpt>
      <trkpt lat="50.59951" lon="2.09158">
        <ele>119</ele>
        <time>2013-08-24T12:01:20.000Z</time>
      </trkpt>
      <trkpt lat="50.59948" lon="2.09127">
        <ele>119</ele>
        <time>2013-08-24T12:01:26.000Z</time>
      </trkpt>
      <trkpt lat="50.59948" lon="2.09094">
        <ele>120</ele>
        <time>2013-08-24T12:01:32.000Z</time>
      </trkpt>
      <trkpt lat="50.59947" lon="2.09058">
        <ele>121</ele>
        <time>2013-08-24T12:01:38.000Z</time>
      </trkpt>
      <trkpt lat="50.59948" lon="2.09028">
        <ele>121</ele>
        <time>2013-08-24T12:01:44.000Z</time>
      </trkpt>
      <trkpt lat="50.59957" lon="2.0895">
        <ele>123</ele>
        <time>2013-08-24T12:01:59.000Z</time>
      </trkpt>
      <trkpt lat="50.59962" lon="2.0892">
        <ele>124</ele>
        <time>2013-08-24T12:02:05.000Z</time>
      </trkpt>
      <trkpt lat="50.59967" lon="2.08891">
        <ele>124</ele>
        <time>2013-08-24T12:02:11.000Z</time>
      </trkpt>
      <trkpt lat="50.59972" lon="2.08866">
        <ele>125</ele>
        <time>2013-08-24T12:02:17.000Z</time>
      </trkpt>
      <trkpt lat="50.59974" lon="2.08852">
        <ele>126</ele>
        <time>2013-08-24T12:02:23.000Z</time>
      </trkpt>
      <trkpt lat="50.59975" lon="2.08839">
        <ele>127</ele>
        <time>2013-08-24T12:02:26.000Z</time>
      </trkpt>
      <trkpt lat="50.59977" lon="2.08825">
        <ele>127</ele>
        <time>2013-08-24T12:02:29.000Z</time>
      </trkpt>
      <trkpt lat="50.59978" lon="2.08813">
        <ele>128</ele>
        <time>2013-08-24T12:02:32.000Z</time>
      </trkpt>
      <trkpt lat="50.5998" lon="2.08801">
        <ele>128</ele>
        <time>2013-08-24T12:02:35.000Z</time>
      </trkpt>
      <trkpt lat="50.59984" lon="2.08777">
        <ele>129</ele>
        <time>2013-08-24T12:02:38.000Z</time>
      </trkpt>
      <trkpt lat="50.59988" lon="2.08753">
        <ele>130</ele>
        <time>2013-08-24T12:02:44.000Z</time>
      </trkpt>
      <trkpt lat="50.59991" lon="2.0873">
        <ele>131</ele>
        <time>2013-08-24T12:02:50.000Z</time>
      </trkpt>
      <trkpt lat="50.59994" lon="2.08704">
        <ele>133</ele>
        <time>2013-08-24T12:02:56.000Z</time>
      </trkpt>
      <trkpt lat="50.59996" lon="2.08677">
        <ele>135</ele>
        <time>2013-08-24T12:03:02.000Z</time>
      </trkpt>
      <trkpt lat="50.60003" lon="2.08645">
        <ele>138</ele>
        <time>2013-08-24T12:03:10.000Z</time>
      </trkpt>
      <trkpt lat="50.60011" lon="2.0861">
        <ele>139</ele>
        <time>2013-08-24T12:03:14.000Z</time>
      </trkpt>
      <trkpt lat="50.60015" lon="2.08591">
        <ele>140</ele>
        <time>2013-08-24T12:03:17.000Z</time>
      </trkpt>
      <trkpt lat="50.60028" lon="2.08564">
        <ele>140</ele>
        <time>2013-08-24T12:03:23.000Z</time>
      </trkpt>
      <trkpt lat="50.60035" lon="2.08527">
        <ele>142</ele>
        <time>2013-08-24T12:03:29.000Z</time>
      </trkpt>
      <trkpt lat="50.60038" lon="2.08499">
        <ele>142</ele>
        <time>2013-08-24T12:03:35.000Z</time>
      </trkpt>
      <trkpt lat="50.60038" lon="2.08473">
        <ele>143</ele>
        <time>2013-08-24T12:03:41.000Z</time>
      </trkpt>
      <trkpt lat="50.60038" lon="2.08444">
        <ele>143</ele>
        <time>2013-08-24T12:03:47.000Z</time>
      </trkpt>
      <trkpt lat="50.60039" lon="2.08418">
        <ele>143</ele>
        <time>2013-08-24T12:03:53.000Z</time>
      </trkpt>
      <trkpt lat="50.60036" lon="2.08397">
        <ele>143</ele>
        <time>2013-08-24T12:03:59.000Z</time>
      </trkpt>
      <trkpt lat="50.60038" lon="2.08371">
        <ele>144</ele>
        <time>2013-08-24T12:04:05.000Z</time>
      </trkpt>
      <trkpt lat="50.60039" lon="2.08349">
        <ele>145</ele>
        <time>2013-08-24T12:04:11.000Z</time>
      </trkpt>
      <trkpt lat="50.60039" lon="2.08324">
        <ele>145</ele>
        <time>2013-08-24T12:04:17.000Z</time>
      </trkpt>
      <trkpt lat="50.60036" lon="2.083">
        <ele>146</ele>
        <time>2013-08-24T12:04:23.000Z</time>
      </trkpt>
      <trkpt lat="50.60031" lon="2.08278">
        <ele>147</ele>
        <time>2013-08-24T12:04:29.000Z</time>
      </trkpt>
      <trkpt lat="50.60026" lon="2.08255">
        <ele>147</ele>
        <time>2013-08-24T12:04:35.000Z</time>
      </trkpt>
      <trkpt lat="50.6002" lon="2.08231">
        <ele>148</ele>
        <time>2013-08-24T12:04:41.000Z</time>
      </trkpt>
      <trkpt lat="50.60023" lon="2.08204">
        <ele>149</ele>
        <time>2013-08-24T12:04:47.000Z</time>
      </trkpt>
      <trkpt lat="50.6002" lon="2.08178">
        <ele>149</ele>
        <time>2013-08-24T12:04:53.000Z</time>
      </trkpt>
      <trkpt lat="50.60017" lon="2.08154">
        <ele>150</ele>
        <time>2013-08-24T12:04:59.000Z</time>
      </trkpt>
      <trkpt lat="50.60015" lon="2.08131">
        <ele>151</ele>
        <time>2013-08-24T12:05:05.000Z</time>
      </trkpt>
      <trkpt lat="50.60012" lon="2.08106">
        <ele>151</ele>
        <time>2013-08-24T12:05:11.000Z</time>
      </trkpt>
      <trkpt lat="50.60009" lon="2.08083">
        <ele>152</ele>
        <time>2013-08-24T12:05:17.000Z</time>
      </trkpt>
      <trkpt lat="50.60005" lon="2.08054">
        <ele>154</ele>
        <time>2013-08-24T12:05:26.000Z</time>
      </trkpt>
      <trkpt lat="50.60002" lon="2.08033">
        <ele>155</ele>
        <time>2013-08-24T12:05:32.000Z</time>
      </trkpt>
      <trkpt lat="50.60001" lon="2.08023">
        <ele>156</ele>
        <time>2013-08-24T12:05:38.000Z</time>
      </trkpt>
      <trkpt lat="50.6" lon="2.08013">
        <ele>156</ele>
        <time>2013-08-24T12:05:41.000Z</time>
      </trkpt>
      <trkpt lat="50.59998" lon="2.08003">
        <ele>157</ele>
        <time>2013-08-24T12:05:44.000Z</time>
      </trkpt>
      <trkpt lat="50.59997" lon="2.07992">
        <ele>157</ele>
        <time>2013-08-24T12:05:47.000Z</time>
      </trkpt>
      <trkpt lat="50.59995" lon="2.07979">
        <ele>158</ele>
        <time>2013-08-24T12:05:53.000Z</time>
      </trkpt>
      <trkpt lat="50.59994" lon="2.07967">
        <ele>158</ele>
        <time>2013-08-24T12:05:56.000Z</time>
      </trkpt>
      <trkpt lat="50.59993" lon="2.07956">
        <ele>159</ele>
        <time>2013-08-24T12:05:59.000Z</time>
      </trkpt>
      <trkpt lat="50.59986" lon="2.07944">
        <ele>160</ele>
        <time>2013-08-24T12:06:05.000Z</time>
      </trkpt>
      <trkpt lat="50.59982" lon="2.07933">
        <ele>160</ele>
        <time>2013-08-24T12:06:08.000Z</time>
      </trkpt>
      <trkpt lat="50.5998" lon="2.07924">
        <ele>161</ele>
        <time>2013-08-24T12:06:11.000Z</time>
      </trkpt>
      <trkpt lat="50.59977" lon="2.07911">
        <ele>162</ele>
        <time>2013-08-24T12:06:17.000Z</time>
      </trkpt>
      <trkpt lat="50.59975" lon="2.07901">
        <ele>163</ele>
        <time>2013-08-24T12:06:20.000Z</time>
      </trkpt>
      <trkpt lat="50.59972" lon="2.07889">
        <ele>164</ele>
        <time>2013-08-24T12:06:26.000Z</time>
      </trkpt>
      <trkpt lat="50.59969" lon="2.07877">
        <ele>166</ele>
        <time>2013-08-24T12:06:32.000Z</time>
      </trkpt>
      <trkpt lat="50.59966" lon="2.07867">
        <ele>166</ele>
        <time>2013-08-24T12:06:35.000Z</time>
      </trkpt>
      <trkpt lat="50.59964" lon="2.07856">
        <ele>168</ele>
        <time>2013-08-24T12:06:41.000Z</time>
      </trkpt>
      <trkpt lat="50.59962" lon="2.07843">
        <ele>170</ele>
        <time>2013-08-24T12:06:47.000Z</time>
      </trkpt>
      <trkpt lat="50.5996" lon="2.07833">
        <ele>171</ele>
        <time>2013-08-24T12:06:50.000Z</time>
      </trkpt>
      <trkpt lat="50.59959" lon="2.07821">
        <ele>172</ele>
        <time>2013-08-24T12:06:56.000Z</time>
      </trkpt>
      <trkpt lat="50.59958" lon="2.07811">
        <ele>173</ele>
        <time>2013-08-24T12:06:59.000Z</time>
      </trkpt>
      <trkpt lat="50.59956" lon="2.07798">
        <ele>174</ele>
        <time>2013-08-24T12:07:05.000Z</time>
      </trkpt>
      <trkpt lat="50.59954" lon="2.07787">
        <ele>174</ele>
        <time>2013-08-24T12:07:08.000Z</time>
      </trkpt>
      <trkpt lat="50.59953" lon="2.07774">
        <ele>175</ele>
        <time>2013-08-24T12:07:14.000Z</time>
      </trkpt>
      <trkpt lat="50.59952" lon="2.07763">
        <ele>176</ele>
        <time>2013-08-24T12:07:17.000Z</time>
      </trkpt>
      <trkpt lat="50.59951" lon="2.0775">
        <ele>177</ele>
        <time>2013-08-24T12:07:23.000Z</time>
      </trkpt>
      <trkpt lat="50.5995" lon="2.07739">
        <ele>178</ele>
        <time>2013-08-24T12:07:26.000Z</time>
      </trkpt>
      <trkpt lat="50.59948" lon="2.07727">
        <ele>178</ele>
        <time>2013-08-24T12:07:32.000Z</time>
      </trkpt>
      <trkpt lat="50.59947" lon="2.07715">
        <ele>180</ele>
        <time>2013-08-24T12:07:38.000Z</time>
      </trkpt>
      <trkpt lat="50.59946" lon="2.07701">
        <ele>182</ele>
        <time>2013-08-24T12:07:44.000Z</time>
      </trkpt>
      <trkpt lat="50.59946" lon="2.07689">
        <ele>182</ele>
        <time>2013-08-24T12:07:47.000Z</time>
      </trkpt>
      <trkpt lat="50.59947" lon="2.07676">
        <ele>183</ele>
        <time>2013-08-24T12:07:53.000Z</time>
      </trkpt>
      <trkpt lat="50.59948" lon="2.07664">
        <ele>184</ele>
        <time>2013-08-24T12:07:56.000Z</time>
      </trkpt>
      <trkpt lat="50.59949" lon="2.07651">
        <ele>185</ele>
        <time>2013-08-24T12:08:02.000Z</time>
      </trkpt>
      <trkpt lat="50.5995" lon="2.07641">
        <ele>185</ele>
        <time>2013-08-24T12:08:05.000Z</time>
      </trkpt>
      <trkpt lat="50.59951" lon="2.07628">
        <ele>186</ele>
        <time>2013-08-24T12:08:11.000Z</time>
      </trkpt>
      <trkpt lat="50.59952" lon="2.07617">
        <ele>186</ele>
        <time>2013-08-24T12:08:14.000Z</time>
      </trkpt>
      <trkpt lat="50.59955" lon="2.07608">
        <ele>187</ele>
        <time>2013-08-24T12:08:18.000Z</time>
      </trkpt>
      <trkpt lat="50.59959" lon="2.07596">
        <ele>187</ele>
        <time>2013-08-24T12:08:23.000Z</time>
      </trkpt>
      <trkpt lat="50.59963" lon="2.07586">
        <ele>187</ele>
        <time>2013-08-24T12:08:26.000Z</time>
      </trkpt>
      <trkpt lat="50.59966" lon="2.07577">
        <ele>188</ele>
        <time>2013-08-24T12:08:29.000Z</time>
      </trkpt>
      <trkpt lat="50.59972" lon="2.07567">
        <ele>189</ele>
        <time>2013-08-24T12:08:35.000Z</time>
      </trkpt>
      <trkpt lat="50.59977" lon="2.07559">
        <ele>190</ele>
        <time>2013-08-24T12:08:38.000Z</time>
      </trkpt>
      <trkpt lat="50.59981" lon="2.07551">
        <ele>190</ele>
        <time>2013-08-24T12:08:41.000Z</time>
      </trkpt>
      <trkpt lat="50.59986" lon="2.07544">
        <ele>191</ele>
        <time>2013-08-24T12:08:44.000Z</time>
      </trkpt>
      <trkpt lat="50.59991" lon="2.07536">
        <ele>192</ele>
        <time>2013-08-24T12:08:47.000Z</time>
      </trkpt>
      <trkpt lat="50.6" lon="2.07519">
        <ele>192</ele>
        <time>2013-08-24T12:08:50.000Z</time>
      </trkpt>
      <trkpt lat="50.60009" lon="2.07501">
        <ele>193</ele>
        <time>2013-08-24T12:08:56.000Z</time>
      </trkpt>
      <trkpt lat="50.60018" lon="2.07481">
        <ele>194</ele>
        <time>2013-08-24T12:09:02.000Z</time>
      </trkpt>
      <trkpt lat="50.60027" lon="2.07457">
        <ele>194</ele>
        <time>2013-08-24T12:09:09.000Z</time>
      </trkpt>
      <trkpt lat="50.60036" lon="2.07436">
        <ele>195</ele>
        <time>2013-08-24T12:09:14.000Z</time>
      </trkpt>
      <trkpt lat="50.60047" lon="2.07413">
        <ele>196</ele>
        <time>2013-08-24T12:09:20.000Z</time>
      </trkpt>
      <trkpt lat="50.60056" lon="2.07387">
        <ele>197</ele>
        <time>2013-08-24T12:09:26.000Z</time>
      </trkpt>
      <trkpt lat="50.60065" lon="2.07364">
        <ele>198</ele>
        <time>2013-08-24T12:09:32.000Z</time>
      </trkpt>
      <trkpt lat="50.60073" lon="2.0734">
        <ele>199</ele>
        <time>2013-08-24T12:09:38.000Z</time>
      </trkpt>
      <trkpt lat="50.60084" lon="2.07313">
        <ele>199</ele>
        <time>2013-08-24T12:09:44.000Z</time>
      </trkpt>
      <trkpt lat="50.60094" lon="2.07286">
        <ele>200</ele>
        <time>2013-08-24T12:09:50.000Z</time>
      </trkpt>
      <trkpt lat="50.60105" lon="2.07255">
        <ele>201</ele>
        <time>2013-08-24T12:09:56.000Z</time>
      </trkpt>
      <trkpt lat="50.60114" lon="2.07229">
        <ele>202</ele>
        <time>2013-08-24T12:10:02.000Z</time>
      </trkpt>
      <trkpt lat="50.60122" lon="2.07207">
        <ele>203</ele>
        <time>2013-08-24T12:10:08.000Z</time>
      </trkpt>
      <trkpt lat="50.6013" lon="2.07186">
        <ele>203</ele>
        <time>2013-08-24T12:10:14.000Z</time>
      </trkpt>
      <trkpt lat="50.60138" lon="2.07164">
        <ele>204</ele>
        <time>2013-08-24T12:10:20.000Z</time>
      </trkpt>
      <trkpt lat="50.60142" lon="2.07156">
        <ele>208</ele>
        <time>2013-08-24T12:14:38.000Z</time>
      </trkpt>
      <trkpt lat="50.60147" lon="2.07144">
        <ele>208</ele>
        <time>2013-08-24T12:14:41.000Z</time>
      </trkpt>
      <trkpt lat="50.60154" lon="2.0713">
        <ele>208</ele>
        <time>2013-08-24T12:14:44.000Z</time>
      </trkpt>
      <trkpt lat="50.6016" lon="2.07115">
        <ele>209</ele>
        <time>2013-08-24T12:14:48.000Z</time>
      </trkpt>
      <trkpt lat="50.60166" lon="2.071">
        <ele>209</ele>
        <time>2013-08-24T12:14:50.000Z</time>
      </trkpt>
      <trkpt lat="50.60178" lon="2.07069">
        <ele>209</ele>
        <time>2013-08-24T12:14:53.000Z</time>
      </trkpt>
      <trkpt lat="50.60188" lon="2.0704">
        <ele>208</ele>
        <time>2013-08-24T12:14:59.000Z</time>
      </trkpt>
      <trkpt lat="50.60196" lon="2.07022">
        <ele>208</ele>
        <time>2013-08-24T12:15:02.000Z</time>
      </trkpt>
      <trkpt lat="50.60203" lon="2.07">
        <ele>207</ele>
        <time>2013-08-24T12:15:05.000Z</time>
      </trkpt>
      <trkpt lat="50.6021" lon="2.06978">
        <ele>206</ele>
        <time>2013-08-24T12:15:08.000Z</time>
      </trkpt>
      <trkpt lat="50.60216" lon="2.06955">
        <ele>206</ele>
        <time>2013-08-24T12:15:11.000Z</time>
      </trkpt>
      <trkpt lat="50.60223" lon="2.0693">
        <ele>205</ele>
        <time>2013-08-24T12:15:14.000Z</time>
      </trkpt>
      <trkpt lat="50.60231" lon="2.06901">
        <ele>204</ele>
        <time>2013-08-24T12:15:17.000Z</time>
      </trkpt>
      <trkpt lat="50.60239" lon="2.06872">
        <ele>203</ele>
        <time>2013-08-24T12:15:20.000Z</time>
      </trkpt>
      <trkpt lat="50.60247" lon="2.06843">
        <ele>203</ele>
        <time>2013-08-24T12:15:23.000Z</time>
      </trkpt>
      <trkpt lat="50.60255" lon="2.06813">
        <ele>202</ele>
        <time>2013-08-24T12:15:27.000Z</time>
      </trkpt>
      <trkpt lat="50.60262" lon="2.06782">
        <ele>201</ele>
        <time>2013-08-24T12:15:29.000Z</time>
      </trkpt>
      <trkpt lat="50.60269" lon="2.06754">
        <ele>200</ele>
        <time>2013-08-24T12:15:32.000Z</time>
      </trkpt>
      <trkpt lat="50.60275" lon="2.06725">
        <ele>199</ele>
        <time>2013-08-24T12:15:35.000Z</time>
      </trkpt>
      <trkpt lat="50.60279" lon="2.06696">
        <ele>200</ele>
        <time>2013-08-24T12:15:38.000Z</time>
      </trkpt>
      <trkpt lat="50.60284" lon="2.0667">
        <ele>201</ele>
        <time>2013-08-24T12:15:41.000Z</time>
      </trkpt>
      <trkpt lat="50.60287" lon="2.06644">
        <ele>203</ele>
        <time>2013-08-24T12:15:44.000Z</time>
      </trkpt>
      <trkpt lat="50.60291" lon="2.06619">
        <ele>205</ele>
        <time>2013-08-24T12:15:47.000Z</time>
      </trkpt>
      <trkpt lat="50.60294" lon="2.06595">
        <ele>206</ele>
        <time>2013-08-24T12:15:50.000Z</time>
      </trkpt>
      <trkpt lat="50.60298" lon="2.0657">
        <ele>205</ele>
        <time>2013-08-24T12:15:53.000Z</time>
      </trkpt>
      <trkpt lat="50.60301" lon="2.06547">
        <ele>205</ele>
        <time>2013-08-24T12:15:56.000Z</time>
      </trkpt>
      <trkpt lat="50.60305" lon="2.06522">
        <ele>204</ele>
        <time>2013-08-24T12:15:59.000Z</time>
      </trkpt>
      <trkpt lat="50.60308" lon="2.06498">
        <ele>202</ele>
        <time>2013-08-24T12:16:02.000Z</time>
      </trkpt>
      <trkpt lat="50.60311" lon="2.06477">
        <ele>202</ele>
        <time>2013-08-24T12:16:05.000Z</time>
      </trkpt>
      <trkpt lat="50.60314" lon="2.06456">
        <ele>201</ele>
        <time>2013-08-24T12:16:08.000Z</time>
      </trkpt>
      <trkpt lat="50.60317" lon="2.06435">
        <ele>201</ele>
        <time>2013-08-24T12:16:11.000Z</time>
      </trkpt>
      <trkpt lat="50.6032" lon="2.06414">
        <ele>201</ele>
        <time>2013-08-24T12:16:14.000Z</time>
      </trkpt>
      <trkpt lat="50.60317" lon="2.06391">
        <ele>202</ele>
        <time>2013-08-24T12:16:17.000Z</time>
      </trkpt>
      <trkpt lat="50.6032" lon="2.06371">
        <ele>204</ele>
        <time>2013-08-24T12:16:20.000Z</time>
      </trkpt>
      <trkpt lat="50.60326" lon="2.06334">
        <ele>207</ele>
        <time>2013-08-24T12:16:26.000Z</time>
      </trkpt>
      <trkpt lat="50.60329" lon="2.06298">
        <ele>207</ele>
        <time>2013-08-24T12:16:32.000Z</time>
      </trkpt>
      <trkpt lat="50.60332" lon="2.06278">
        <ele>205</ele>
        <time>2013-08-24T12:16:35.000Z</time>
      </trkpt>
      <trkpt lat="50.60334" lon="2.06256">
        <ele>205</ele>
        <time>2013-08-24T12:16:38.000Z</time>
      </trkpt>
      <trkpt lat="50.60338" lon="2.06233">
        <ele>206</ele>
        <time>2013-08-24T12:16:41.000Z</time>
      </trkpt>
      <trkpt lat="50.60341" lon="2.0621">
        <ele>208</ele>
        <time>2013-08-24T12:16:44.000Z</time>
      </trkpt>
      <trkpt lat="50.60344" lon="2.06187">
        <ele>208</ele>
        <time>2013-08-24T12:16:47.000Z</time>
      </trkpt>
      <trkpt lat="50.6035" lon="2.06162">
        <ele>209</ele>
        <time>2013-08-24T12:16:50.000Z</time>
      </trkpt>
      <trkpt lat="50.60357" lon="2.06133">
        <ele>207</ele>
        <time>2013-08-24T12:16:53.000Z</time>
      </trkpt>
      <trkpt lat="50.60363" lon="2.06107">
        <ele>204</ele>
        <time>2013-08-24T12:16:56.000Z</time>
      </trkpt>
      <trkpt lat="50.60369" lon="2.06079">
        <ele>203</ele>
        <time>2013-08-24T12:16:59.000Z</time>
      </trkpt>
      <trkpt lat="50.60376" lon="2.06054">
        <ele>202</ele>
        <time>2013-08-24T12:17:02.000Z</time>
      </trkpt>
      <trkpt lat="50.60382" lon="2.06024">
        <ele>202</ele>
        <time>2013-08-24T12:17:05.000Z</time>
      </trkpt>
      <trkpt lat="50.60388" lon="2.05992">
        <ele>203</ele>
        <time>2013-08-24T12:17:08.000Z</time>
      </trkpt>
      <trkpt lat="50.60392" lon="2.05958">
        <ele>203</ele>
        <time>2013-08-24T12:17:11.000Z</time>
      </trkpt>
      <trkpt lat="50.60397" lon="2.05921">
        <ele>202</ele>
        <time>2013-08-24T12:17:14.000Z</time>
      </trkpt>
      <trkpt lat="50.60399" lon="2.05887">
        <ele>202</ele>
        <time>2013-08-24T12:17:17.000Z</time>
      </trkpt>
      <trkpt lat="50.604" lon="2.05855">
        <ele>202</ele>
        <time>2013-08-24T12:17:20.000Z</time>
      </trkpt>
      <trkpt lat="50.60402" lon="2.05823">
        <ele>202</ele>
        <time>2013-08-24T12:17:23.000Z</time>
      </trkpt>
      <trkpt lat="50.60403" lon="2.05791">
        <ele>202</ele>
        <time>2013-08-24T12:17:26.000Z</time>
      </trkpt>
      <trkpt lat="50.60403" lon="2.05764">
        <ele>202</ele>
        <time>2013-08-24T12:17:29.000Z</time>
      </trkpt>
      <trkpt lat="50.60402" lon="2.05738">
        <ele>202</ele>
        <time>2013-08-24T12:17:32.000Z</time>
      </trkpt>
      <trkpt lat="50.604" lon="2.05712">
        <ele>202</ele>
        <time>2013-08-24T12:17:35.000Z</time>
      </trkpt>
      <trkpt lat="50.60396" lon="2.05688">
        <ele>202</ele>
        <time>2013-08-24T12:17:38.000Z</time>
      </trkpt>
      <trkpt lat="50.60391" lon="2.05664">
        <ele>202</ele>
        <time>2013-08-24T12:17:41.000Z</time>
      </trkpt>
      <trkpt lat="50.60386" lon="2.05638">
        <ele>201</ele>
        <time>2013-08-24T12:17:44.000Z</time>
      </trkpt>
      <trkpt lat="50.60373" lon="2.05615">
        <ele>200</ele>
        <time>2013-08-24T12:17:47.000Z</time>
      </trkpt>
      <trkpt lat="50.60363" lon="2.05593">
        <ele>200</ele>
        <time>2013-08-24T12:17:50.000Z</time>
      </trkpt>
      <trkpt lat="50.60352" lon="2.0557">
        <ele>198</ele>
        <time>2013-08-24T12:17:53.000Z</time>
      </trkpt>
      <trkpt lat="50.6034" lon="2.05549">
        <ele>200</ele>
        <time>2013-08-24T12:17:56.000Z</time>
      </trkpt>
      <trkpt lat="50.60329" lon="2.05529">
        <ele>201</ele>
        <time>2013-08-24T12:17:59.000Z</time>
      </trkpt>
      <trkpt lat="50.60318" lon="2.05507">
        <ele>201</ele>
        <time>2013-08-24T12:18:02.000Z</time>
      </trkpt>
      <trkpt lat="50.60307" lon="2.05481">
        <ele>201</ele>
        <time>2013-08-24T12:18:05.000Z</time>
      </trkpt>
      <trkpt lat="50.60299" lon="2.05444">
        <ele>199</ele>
        <time>2013-08-24T12:18:08.000Z</time>
      </trkpt>
      <trkpt lat="50.60297" lon="2.05398">
        <ele>198</ele>
        <time>2013-08-24T12:18:11.000Z</time>
      </trkpt>
      <trkpt lat="50.60299" lon="2.05356">
        <ele>197</ele>
        <time>2013-08-24T12:18:14.000Z</time>
      </trkpt>
      <trkpt lat="50.60303" lon="2.05318">
        <ele>197</ele>
        <time>2013-08-24T12:18:17.000Z</time>
      </trkpt>
      <trkpt lat="50.60307" lon="2.05288">
        <ele>198</ele>
        <time>2013-08-24T12:18:20.000Z</time>
      </trkpt>
      <trkpt lat="50.6031" lon="2.0526">
        <ele>197</ele>
        <time>2013-08-24T12:18:23.000Z</time>
      </trkpt>
      <trkpt lat="50.60313" lon="2.05225">
        <ele>195</ele>
        <time>2013-08-24T12:18:29.000Z</time>
      </trkpt>
      <trkpt lat="50.60335" lon="2.05212">
        <ele>196</ele>
        <time>2013-08-24T12:18:32.000Z</time>
      </trkpt>
      <trkpt lat="50.60345" lon="2.05195">
        <ele>198</ele>
        <time>2013-08-24T12:18:35.000Z</time>
      </trkpt>
      <trkpt lat="50.60352" lon="2.05177">
        <ele>197</ele>
        <time>2013-08-24T12:18:38.000Z</time>
      </trkpt>
      <trkpt lat="50.6036" lon="2.05161">
        <ele>197</ele>
        <time>2013-08-24T12:18:41.000Z</time>
      </trkpt>
      <trkpt lat="50.60371" lon="2.05137">
        <ele>196</ele>
        <time>2013-08-24T12:18:48.000Z</time>
      </trkpt>
      <trkpt lat="50.60381" lon="2.05115">
        <ele>196</ele>
        <time>2013-08-24T12:18:53.000Z</time>
      </trkpt>
      <trkpt lat="50.6036" lon="2.05074">
        <ele>197</ele>
        <time>2013-08-24T12:18:56.000Z</time>
      </trkpt>
      <trkpt lat="50.6036" lon="2.0504">
        <ele>197</ele>
        <time>2013-08-24T12:19:02.000Z</time>
      </trkpt>
      <trkpt lat="50.6036" lon="2.05008">
        <ele>198</ele>
        <time>2013-08-24T12:19:08.000Z</time>
      </trkpt>
      <trkpt lat="50.60359" lon="2.04974">
        <ele>199</ele>
        <time>2013-08-24T12:19:14.000Z</time>
      </trkpt>
      <trkpt lat="50.60358" lon="2.04934">
        <ele>201</ele>
        <time>2013-08-24T12:19:20.000Z</time>
      </trkpt>
      <trkpt lat="50.60357" lon="2.04912">
        <ele>201</ele>
        <time>2013-08-24T12:19:23.000Z</time>
      </trkpt>
      <trkpt lat="50.60356" lon="2.04889">
        <ele>200</ele>
        <time>2013-08-24T12:19:26.000Z</time>
      </trkpt>
      <trkpt lat="50.60355" lon="2.04866">
        <ele>200</ele>
        <time>2013-08-24T12:19:29.000Z</time>
      </trkpt>
      <trkpt lat="50.60355" lon="2.04841">
        <ele>200</ele>
        <time>2013-08-24T12:19:32.000Z</time>
      </trkpt>
      <trkpt lat="50.60355" lon="2.04817">
        <ele>200</ele>
        <time>2013-08-24T12:19:35.000Z</time>
      </trkpt>
      <trkpt lat="50.60355" lon="2.04793">
        <ele>201</ele>
        <time>2013-08-24T12:19:38.000Z</time>
      </trkpt>
      <trkpt lat="50.60355" lon="2.04768">
        <ele>202</ele>
        <time>2013-08-24T12:19:41.000Z</time>
      </trkpt>
      <trkpt lat="50.60355" lon="2.04744">
        <ele>204</ele>
        <time>2013-08-24T12:19:44.000Z</time>
      </trkpt>
      <trkpt lat="50.60357" lon="2.04721">
        <ele>206</ele>
        <time>2013-08-24T12:19:47.000Z</time>
      </trkpt>
      <trkpt lat="50.60359" lon="2.04697">
        <ele>208</ele>
        <time>2013-08-24T12:19:50.000Z</time>
      </trkpt>
      <trkpt lat="50.60361" lon="2.04671">
        <ele>209</ele>
        <time>2013-08-24T12:19:53.000Z</time>
      </trkpt>
      <trkpt lat="50.60362" lon="2.04648">
        <ele>209</ele>
        <time>2013-08-24T12:19:56.000Z</time>
      </trkpt>
      <trkpt lat="50.60364" lon="2.04626">
        <ele>208</ele>
        <time>2013-08-24T12:19:59.000Z</time>
      </trkpt>
      <trkpt lat="50.60366" lon="2.04604">
        <ele>208</ele>
        <time>2013-08-24T12:20:02.000Z</time>
      </trkpt>
      <trkpt lat="50.60368" lon="2.04567">
        <ele>208</ele>
        <time>2013-08-24T12:20:08.000Z</time>
      </trkpt>
      <trkpt lat="50.60371" lon="2.04533">
        <ele>209</ele>
        <time>2013-08-24T12:20:14.000Z</time>
      </trkpt>
      <trkpt lat="50.60374" lon="2.04496">
        <ele>208</ele>
        <time>2013-08-24T12:20:20.000Z</time>
      </trkpt>
      <trkpt lat="50.60378" lon="2.0446">
        <ele>206</ele>
        <time>2013-08-24T12:20:26.000Z</time>
      </trkpt>
      <trkpt lat="50.60383" lon="2.04426">
        <ele>206</ele>
        <time>2013-08-24T12:20:32.000Z</time>
      </trkpt>
      <trkpt lat="50.60387" lon="2.04395">
        <ele>206</ele>
        <time>2013-08-24T12:20:38.000Z</time>
      </trkpt>
      <trkpt lat="50.60394" lon="2.04361">
        <ele>207</ele>
        <time>2013-08-24T12:20:44.000Z</time>
      </trkpt>
      <trkpt lat="50.60398" lon="2.04325">
        <ele>205</ele>
        <time>2013-08-24T12:20:50.000Z</time>
      </trkpt>
      <trkpt lat="50.60403" lon="2.0429">
        <ele>204</ele>
        <time>2013-08-24T12:20:56.000Z</time>
      </trkpt>
      <trkpt lat="50.60406" lon="2.04254">
        <ele>205</ele>
        <time>2013-08-24T12:21:02.000Z</time>
      </trkpt>
      <trkpt lat="50.60408" lon="2.04228">
        <ele>205</ele>
        <time>2013-08-24T12:21:08.000Z</time>
      </trkpt>
      <trkpt lat="50.60409" lon="2.042">
        <ele>206</ele>
        <time>2013-08-24T12:21:14.000Z</time>
      </trkpt>
      <trkpt lat="50.6041" lon="2.04174">
        <ele>207</ele>
        <time>2013-08-24T12:21:20.000Z</time>
      </trkpt>
      <trkpt lat="50.60411" lon="2.04146">
        <ele>208</ele>
        <time>2013-08-24T12:21:26.000Z</time>
      </trkpt>
      <trkpt lat="50.60412" lon="2.04117">
        <ele>209</ele>
        <time>2013-08-24T12:21:32.000Z</time>
      </trkpt>
      <trkpt lat="50.60413" lon="2.04087">
        <ele>210</ele>
        <time>2013-08-24T12:21:38.000Z</time>
      </trkpt>
      <trkpt lat="50.60415" lon="2.04056">
        <ele>211</ele>
        <time>2013-08-24T12:21:44.000Z</time>
      </trkpt>
      <trkpt lat="50.60416" lon="2.04022">
        <ele>211</ele>
        <time>2013-08-24T12:21:50.000Z</time>
      </trkpt>
      <trkpt lat="50.60416" lon="2.03982">
        <ele>212</ele>
        <time>2013-08-24T12:21:56.000Z</time>
      </trkpt>
      <trkpt lat="50.60415" lon="2.03961">
        <ele>212</ele>
        <time>2013-08-24T12:21:59.000Z</time>
      </trkpt>
      <trkpt lat="50.60413" lon="2.03937">
        <ele>212</ele>
        <time>2013-08-24T12:22:02.000Z</time>
      </trkpt>
      <trkpt lat="50.60412" lon="2.03914">
        <ele>210</ele>
        <time>2013-08-24T12:22:05.000Z</time>
      </trkpt>
      <trkpt lat="50.6041" lon="2.0389">
        <ele>209</ele>
        <time>2013-08-24T12:22:08.000Z</time>
      </trkpt>
      <trkpt lat="50.60408" lon="2.03866">
        <ele>208</ele>
        <time>2013-08-24T12:22:11.000Z</time>
      </trkpt>
      <trkpt lat="50.60404" lon="2.03841">
        <ele>208</ele>
        <time>2013-08-24T12:22:14.000Z</time>
      </trkpt>
      <trkpt lat="50.60402" lon="2.03817">
        <ele>207</ele>
        <time>2013-08-24T12:22:17.000Z</time>
      </trkpt>
      <trkpt lat="50.60398" lon="2.03793">
        <ele>206</ele>
        <time>2013-08-24T12:22:20.000Z</time>
      </trkpt>
      <trkpt lat="50.60395" lon="2.03768">
        <ele>205</ele>
        <time>2013-08-24T12:22:23.000Z</time>
      </trkpt>
      <trkpt lat="50.60392" lon="2.03742">
        <ele>205</ele>
        <time>2013-08-24T12:22:26.000Z</time>
      </trkpt>
      <trkpt lat="50.60388" lon="2.03717">
        <ele>207</ele>
        <time>2013-08-24T12:22:29.000Z</time>
      </trkpt>
      <trkpt lat="50.60383" lon="2.0369">
        <ele>207</ele>
        <time>2013-08-24T12:22:32.000Z</time>
      </trkpt>
      <trkpt lat="50.6038" lon="2.03664">
        <ele>207</ele>
        <time>2013-08-24T12:22:40.000Z</time>
      </trkpt>
      <trkpt lat="50.60376" lon="2.03639">
        <ele>207</ele>
        <time>2013-08-24T12:22:40.000Z</time>
      </trkpt>
      <trkpt lat="50.60371" lon="2.03614">
        <ele>207</ele>
        <time>2013-08-24T12:22:41.000Z</time>
      </trkpt>
      <trkpt lat="50.60367" lon="2.03587">
        <ele>207</ele>
        <time>2013-08-24T12:22:44.000Z</time>
      </trkpt>
      <trkpt lat="50.60364" lon="2.0356">
        <ele>208</ele>
        <time>2013-08-24T12:22:47.000Z</time>
      </trkpt>
      <trkpt lat="50.60361" lon="2.03537">
        <ele>210</ele>
        <time>2013-08-24T12:22:50.000Z</time>
      </trkpt>
      <trkpt lat="50.60358" lon="2.03514">
        <ele>212</ele>
        <time>2013-08-24T12:22:53.000Z</time>
      </trkpt>
      <trkpt lat="50.60355" lon="2.03492">
        <ele>214</ele>
        <time>2013-08-24T12:22:56.000Z</time>
      </trkpt>
      <trkpt lat="50.60352" lon="2.03471">
        <ele>216</ele>
        <time>2013-08-24T12:22:59.000Z</time>
      </trkpt>
      <trkpt lat="50.60349" lon="2.0345">
        <ele>215</ele>
        <time>2013-08-24T12:23:02.000Z</time>
      </trkpt>
      <trkpt lat="50.60347" lon="2.03428">
        <ele>211</ele>
        <time>2013-08-24T12:23:06.000Z</time>
      </trkpt>
      <trkpt lat="50.60344" lon="2.03406">
        <ele>207</ele>
        <time>2013-08-24T12:23:08.000Z</time>
      </trkpt>
      <trkpt lat="50.60341" lon="2.03384">
        <ele>207</ele>
        <time>2013-08-24T12:23:11.000Z</time>
      </trkpt>
      <trkpt lat="50.60404" lon="2.03339">
        <ele>209</ele>
        <time>2013-08-24T12:23:14.000Z</time>
      </trkpt>
      <trkpt lat="50.60407" lon="2.03317">
        <ele>209</ele>
        <time>2013-08-24T12:23:18.000Z</time>
      </trkpt>
      <trkpt lat="50.6041" lon="2.03295">
        <ele>209</ele>
        <time>2013-08-24T12:23:20.000Z</time>
      </trkpt>
      <trkpt lat="50.60413" lon="2.03274">
        <ele>210</ele>
        <time>2013-08-24T12:23:23.000Z</time>
      </trkpt>
      <trkpt lat="50.60416" lon="2.03252">
        <ele>210</ele>
        <time>2013-08-24T12:23:26.000Z</time>
      </trkpt>
      <trkpt lat="50.60424" lon="2.0323">
        <ele>208</ele>
        <time>2013-08-24T12:23:29.000Z</time>
      </trkpt>
      <trkpt lat="50.60427" lon="2.03209">
        <ele>206</ele>
        <time>2013-08-24T12:23:32.000Z</time>
      </trkpt>
      <trkpt lat="50.60431" lon="2.03186">
        <ele>205</ele>
        <time>2013-08-24T12:23:35.000Z</time>
      </trkpt>
      <trkpt lat="50.60435" lon="2.03164">
        <ele>203</ele>
        <time>2013-08-24T12:23:38.000Z</time>
      </trkpt>
      <trkpt lat="50.60439" lon="2.03144">
        <ele>201</ele>
        <time>2013-08-24T12:23:41.000Z</time>
      </trkpt>
      <trkpt lat="50.60442" lon="2.03124">
        <ele>201</ele>
        <time>2013-08-24T12:23:44.000Z</time>
      </trkpt>
      <trkpt lat="50.60445" lon="2.03103">
        <ele>200</ele>
        <time>2013-08-24T12:23:47.000Z</time>
      </trkpt>
      <trkpt lat="50.60446" lon="2.03079">
        <ele>200</ele>
        <time>2013-08-24T12:23:50.000Z</time>
      </trkpt>
      <trkpt lat="50.6045" lon="2.03058">
        <ele>199</ele>
        <time>2013-08-24T12:23:53.000Z</time>
      </trkpt>
      <trkpt lat="50.60453" lon="2.03036">
        <ele>197</ele>
        <time>2013-08-24T12:23:56.000Z</time>
      </trkpt>
      <trkpt lat="50.60456" lon="2.03016">
        <ele>197</ele>
        <time>2013-08-24T12:23:59.000Z</time>
      </trkpt>
      <trkpt lat="50.60461" lon="2.02994">
        <ele>198</ele>
        <time>2013-08-24T12:24:02.000Z</time>
      </trkpt>
      <trkpt lat="50.60465" lon="2.02973">
        <ele>199</ele>
        <time>2013-08-24T12:24:10.000Z</time>
      </trkpt>
      <trkpt lat="50.6047" lon="2.02951">
        <ele>200</ele>
        <time>2013-08-24T12:24:11.000Z</time>
      </trkpt>
      <trkpt lat="50.60476" lon="2.02929">
        <ele>203</ele>
        <time>2013-08-24T12:24:11.000Z</time>
      </trkpt>
      <trkpt lat="50.60483" lon="2.02906">
        <ele>205</ele>
        <time>2013-08-24T12:24:14.000Z</time>
      </trkpt>
      <trkpt lat="50.60491" lon="2.02884">
        <ele>206</ele>
        <time>2013-08-24T12:24:17.000Z</time>
      </trkpt>
      <trkpt lat="50.605" lon="2.02862">
        <ele>206</ele>
        <time>2013-08-24T12:24:20.000Z</time>
      </trkpt>
      <trkpt lat="50.60512" lon="2.02839">
        <ele>205</ele>
        <time>2013-08-24T12:24:23.000Z</time>
      </trkpt>
      <trkpt lat="50.60527" lon="2.02814">
        <ele>205</ele>
        <time>2013-08-24T12:24:26.000Z</time>
      </trkpt>
      <trkpt lat="50.60542" lon="2.02785">
        <ele>205</ele>
        <time>2013-08-24T12:24:29.000Z</time>
      </trkpt>
      <trkpt lat="50.60553" lon="2.02753">
        <ele>204</ele>
        <time>2013-08-24T12:24:32.000Z</time>
      </trkpt>
      <trkpt lat="50.60554" lon="2.02709">
        <ele>201</ele>
        <time>2013-08-24T12:24:41.000Z</time>
      </trkpt>
      <trkpt lat="50.60548" lon="2.02651">
        <ele>199</ele>
        <time>2013-08-24T12:24:41.000Z</time>
      </trkpt>
      <trkpt lat="50.60541" lon="2.02596">
        <ele>197</ele>
        <time>2013-08-24T12:24:41.000Z</time>
      </trkpt>
      <trkpt lat="50.60538" lon="2.02541">
        <ele>195</ele>
        <time>2013-08-24T12:24:44.000Z</time>
      </trkpt>
      <trkpt lat="50.60546" lon="2.02491">
        <ele>192</ele>
        <time>2013-08-24T12:24:47.000Z</time>
      </trkpt>
      <trkpt lat="50.60558" lon="2.02445">
        <ele>190</ele>
        <time>2013-08-24T12:24:50.000Z</time>
      </trkpt>
      <trkpt lat="50.60568" lon="2.02411">
        <ele>189</ele>
        <time>2013-08-24T12:24:53.000Z</time>
      </trkpt>
      <trkpt lat="50.60579" lon="2.02383">
        <ele>190</ele>
        <time>2013-08-24T12:24:56.000Z</time>
      </trkpt>
      <trkpt lat="50.60588" lon="2.02358">
        <ele>191</ele>
        <time>2013-08-24T12:24:59.000Z</time>
      </trkpt>
      <trkpt lat="50.60596" lon="2.02337">
        <ele>191</ele>
        <time>2013-08-24T12:25:02.000Z</time>
      </trkpt>
      <trkpt lat="50.60603" lon="2.02319">
        <ele>192</ele>
        <time>2013-08-24T12:25:05.000Z</time>
      </trkpt>
      <trkpt lat="50.6061" lon="2.02301">
        <ele>195</ele>
        <time>2013-08-24T12:25:08.000Z</time>
      </trkpt>
      <trkpt lat="50.60615" lon="2.02288">
        <ele>197</ele>
        <time>2013-08-24T12:25:14.000Z</time>
      </trkpt>
      <trkpt lat="50.6062" lon="2.02276">
        <ele>197</ele>
        <time>2013-08-24T12:25:17.000Z</time>
      </trkpt>
      <trkpt lat="50.60631" lon="2.0227">
        <ele>198</ele>
        <time>2013-08-24T12:25:20.000Z</time>
      </trkpt>
      <trkpt lat="50.6064" lon="2.02262">
        <ele>198</ele>
        <time>2013-08-24T12:25:23.000Z</time>
      </trkpt>
      <trkpt lat="50.60648" lon="2.02251">
        <ele>198</ele>
        <time>2013-08-24T12:25:26.000Z</time>
      </trkpt>
      <trkpt lat="50.60664" lon="2.02226">
        <ele>199</ele>
        <time>2013-08-24T12:25:29.000Z</time>
      </trkpt>
      <trkpt lat="50.60677" lon="2.02202">
        <ele>199</ele>
        <time>2013-08-24T12:25:36.000Z</time>
      </trkpt>
      <trkpt lat="50.60689" lon="2.02174">
        <ele>201</ele>
        <time>2013-08-24T12:25:41.000Z</time>
      </trkpt>
      <trkpt lat="50.60703" lon="2.02144">
        <ele>203</ele>
        <time>2013-08-24T12:25:47.000Z</time>
      </trkpt>
      <trkpt lat="50.60715" lon="2.02116">
        <ele>203</ele>
        <time>2013-08-24T12:25:53.000Z</time>
      </trkpt>
      <trkpt lat="50.60724" lon="2.02087">
        <ele>203</ele>
        <time>2013-08-24T12:25:59.000Z</time>
      </trkpt>
      <trkpt lat="50.60733" lon="2.02056">
        <ele>204</ele>
        <time>2013-08-24T12:26:05.000Z</time>
      </trkpt>
      <trkpt lat="50.60738" lon="2.02036">
        <ele>205</ele>
        <time>2013-08-24T12:26:08.000Z</time>
      </trkpt>
      <trkpt lat="50.60746" lon="2.02004">
        <ele>208</ele>
        <time>2013-08-24T12:26:14.000Z</time>
      </trkpt>
      <trkpt lat="50.60756" lon="2.01971">
        <ele>209</ele>
        <time>2013-08-24T12:26:20.000Z</time>
      </trkpt>
      <trkpt lat="50.60766" lon="2.01937">
        <ele>210</ele>
        <time>2013-08-24T12:26:26.000Z</time>
      </trkpt>
      <trkpt lat="50.60775" lon="2.01905">
        <ele>210</ele>
        <time>2013-08-24T12:26:32.000Z</time>
      </trkpt>
      <trkpt lat="50.60782" lon="2.01874">
        <ele>210</ele>
        <time>2013-08-24T12:26:38.000Z</time>
      </trkpt>
      <trkpt lat="50.60791" lon="2.01842">
        <ele>210</ele>
        <time>2013-08-24T12:26:44.000Z</time>
      </trkpt>
      <trkpt lat="50.60796" lon="2.01807">
        <ele>209</ele>
        <time>2013-08-24T12:26:50.000Z</time>
      </trkpt>
      <trkpt lat="50.60801" lon="2.01789">
        <ele>210</ele>
        <time>2013-08-24T12:26:53.000Z</time>
      </trkpt>
      <trkpt lat="50.6081" lon="2.01755">
        <ele>209</ele>
        <time>2013-08-24T12:26:59.000Z</time>
      </trkpt>
      <trkpt lat="50.60815" lon="2.01736">
        <ele>209</ele>
        <time>2013-08-24T12:27:02.000Z</time>
      </trkpt>
      <trkpt lat="50.60825" lon="2.01701">
        <ele>208</ele>
        <time>2013-08-24T12:27:08.000Z</time>
      </trkpt>
      <trkpt lat="50.60834" lon="2.01667">
        <ele>210</ele>
        <time>2013-08-24T12:27:14.000Z</time>
      </trkpt>
      <trkpt lat="50.60843" lon="2.01634">
        <ele>213</ele>
        <time>2013-08-24T12:27:20.000Z</time>
      </trkpt>
      <trkpt lat="50.60848" lon="2.01615">
        <ele>212</ele>
        <time>2013-08-24T12:27:23.000Z</time>
      </trkpt>
      <trkpt lat="50.60857" lon="2.01579">
        <ele>212</ele>
        <time>2013-08-24T12:27:29.000Z</time>
      </trkpt>
      <trkpt lat="50.60865" lon="2.01547">
        <ele>215</ele>
        <time>2013-08-24T12:27:35.000Z</time>
      </trkpt>
      <trkpt lat="50.60871" lon="2.01522">
        <ele>215</ele>
        <time>2013-08-24T12:27:41.000Z</time>
      </trkpt>
      <trkpt lat="50.60881" lon="2.01507">
        <ele>214</ele>
        <time>2013-08-24T12:35:02.000Z</time>
      </trkpt>
      <trkpt lat="50.60889" lon="2.01493">
        <ele>213</ele>
        <time>2013-08-24T12:35:05.000Z</time>
      </trkpt>
      <trkpt lat="50.60895" lon="2.01478">
        <ele>213</ele>
        <time>2013-08-24T12:35:08.000Z</time>
      </trkpt>
      <trkpt lat="50.60902" lon="2.01464">
        <ele>213</ele>
        <time>2013-08-24T12:35:11.000Z</time>
      </trkpt>
      <trkpt lat="50.60909" lon="2.01449">
        <ele>213</ele>
        <time>2013-08-24T12:35:14.000Z</time>
      </trkpt>
      <trkpt lat="50.60922" lon="2.01418">
        <ele>211</ele>
        <time>2013-08-24T12:35:17.000Z</time>
      </trkpt>
      <trkpt lat="50.60934" lon="2.01387">
        <ele>211</ele>
        <time>2013-08-24T12:35:23.000Z</time>
      </trkpt>
      <trkpt lat="50.60941" lon="2.01367">
        <ele>210</ele>
        <time>2013-08-24T12:35:26.000Z</time>
      </trkpt>
      <trkpt lat="50.60948" lon="2.01348">
        <ele>210</ele>
        <time>2013-08-24T12:35:29.000Z</time>
      </trkpt>
      <trkpt lat="50.60955" lon="2.01327">
        <ele>211</ele>
        <time>2013-08-24T12:35:32.000Z</time>
      </trkpt>
      <trkpt lat="50.60962" lon="2.01306">
        <ele>213</ele>
        <time>2013-08-24T12:35:35.000Z</time>
      </trkpt>
      <trkpt lat="50.60967" lon="2.01283">
        <ele>213</ele>
        <time>2013-08-24T12:35:38.000Z</time>
      </trkpt>
      <trkpt lat="50.60971" lon="2.0126">
        <ele>213</ele>
        <time>2013-08-24T12:35:41.000Z</time>
      </trkpt>
      <trkpt lat="50.60975" lon="2.01236">
        <ele>212</ele>
        <time>2013-08-24T12:35:44.000Z</time>
      </trkpt>
      <trkpt lat="50.60981" lon="2.01211">
        <ele>212</ele>
        <time>2013-08-24T12:35:47.000Z</time>
      </trkpt>
      <trkpt lat="50.60987" lon="2.01187">
        <ele>212</ele>
        <time>2013-08-24T12:35:50.000Z</time>
      </trkpt>
      <trkpt lat="50.60991" lon="2.01161">
        <ele>211</ele>
        <time>2013-08-24T12:35:53.000Z</time>
      </trkpt>
      <trkpt lat="50.60994" lon="2.01138">
        <ele>211</ele>
        <time>2013-08-24T12:35:56.000Z</time>
      </trkpt>
      <trkpt lat="50.60997" lon="2.01113">
        <ele>211</ele>
        <time>2013-08-24T12:35:59.000Z</time>
      </trkpt>
      <trkpt lat="50.61" lon="2.01085">
        <ele>211</ele>
        <time>2013-08-24T12:36:02.000Z</time>
      </trkpt>
      <trkpt lat="50.61003" lon="2.01062">
        <ele>209</ele>
        <time>2013-08-24T12:36:05.000Z</time>
      </trkpt>
      <trkpt lat="50.61007" lon="2.01037">
        <ele>209</ele>
        <time>2013-08-24T12:36:08.000Z</time>
      </trkpt>
      <trkpt lat="50.61012" lon="2.01014">
        <ele>210</ele>
        <time>2013-08-24T12:36:11.000Z</time>
      </trkpt>
      <trkpt lat="50.61017" lon="2.00989">
        <ele>212</ele>
        <time>2013-08-24T12:36:14.000Z</time>
      </trkpt>
      <trkpt lat="50.61023" lon="2.00962">
        <ele>213</ele>
        <time>2013-08-24T12:36:17.000Z</time>
      </trkpt>
      <trkpt lat="50.61029" lon="2.00936">
        <ele>212</ele>
        <time>2013-08-24T12:36:20.000Z</time>
      </trkpt>
      <trkpt lat="50.61033" lon="2.00912">
        <ele>213</ele>
        <time>2013-08-24T12:36:23.000Z</time>
      </trkpt>
      <trkpt lat="50.61037" lon="2.00886">
        <ele>213</ele>
        <time>2013-08-24T12:36:26.000Z</time>
      </trkpt>
      <trkpt lat="50.6104" lon="2.00859">
        <ele>212</ele>
        <time>2013-08-24T12:36:29.000Z</time>
      </trkpt>
      <trkpt lat="50.61043" lon="2.00833">
        <ele>212</ele>
        <time>2013-08-24T12:36:32.000Z</time>
      </trkpt>
      <trkpt lat="50.61048" lon="2.00803">
        <ele>212</ele>
        <time>2013-08-24T12:36:35.000Z</time>
      </trkpt>
      <trkpt lat="50.61052" lon="2.00773">
        <ele>213</ele>
        <time>2013-08-24T12:36:39.000Z</time>
      </trkpt>
      <trkpt lat="50.61055" lon="2.00747">
        <ele>213</ele>
        <time>2013-08-24T12:36:41.000Z</time>
      </trkpt>
      <trkpt lat="50.61059" lon="2.00721">
        <ele>213</ele>
        <time>2013-08-24T12:36:44.000Z</time>
      </trkpt>
      <trkpt lat="50.61063" lon="2.00696">
        <ele>215</ele>
        <time>2013-08-24T12:36:47.000Z</time>
      </trkpt>
      <trkpt lat="50.61065" lon="2.0067">
        <ele>215</ele>
        <time>2013-08-24T12:36:50.000Z</time>
      </trkpt>
      <trkpt lat="50.61066" lon="2.00645">
        <ele>214</ele>
        <time>2013-08-24T12:36:53.000Z</time>
      </trkpt>
      <trkpt lat="50.61068" lon="2.00622">
        <ele>212</ele>
        <time>2013-08-24T12:36:56.000Z</time>
      </trkpt>
      <trkpt lat="50.61069" lon="2.00597">
        <ele>211</ele>
        <time>2013-08-24T12:36:59.000Z</time>
      </trkpt>
      <trkpt lat="50.6107" lon="2.00573">
        <ele>212</ele>
        <time>2013-08-24T12:37:02.000Z</time>
      </trkpt>
      <trkpt lat="50.61073" lon="2.00548">
        <ele>212</ele>
        <time>2013-08-24T12:37:05.000Z</time>
      </trkpt>
      <trkpt lat="50.61076" lon="2.00523">
        <ele>213</ele>
        <time>2013-08-24T12:37:08.000Z</time>
      </trkpt>
      <trkpt lat="50.6108" lon="2.00497">
        <ele>212</ele>
        <time>2013-08-24T12:37:11.000Z</time>
      </trkpt>
      <trkpt lat="50.61086" lon="2.00471">
        <ele>213</ele>
        <time>2013-08-24T12:37:14.000Z</time>
      </trkpt>
      <trkpt lat="50.61093" lon="2.00448">
        <ele>212</ele>
        <time>2013-08-24T12:37:17.000Z</time>
      </trkpt>
      <trkpt lat="50.61103" lon="2.00426">
        <ele>212</ele>
        <time>2013-08-24T12:37:20.000Z</time>
      </trkpt>
      <trkpt lat="50.61111" lon="2.004">
        <ele>211</ele>
        <time>2013-08-24T12:37:23.000Z</time>
      </trkpt>
      <trkpt lat="50.61116" lon="2.00372">
        <ele>209</ele>
        <time>2013-08-24T12:37:26.000Z</time>
      </trkpt>
      <trkpt lat="50.6112" lon="2.00345">
        <ele>208</ele>
        <time>2013-08-24T12:37:29.000Z</time>
      </trkpt>
      <trkpt lat="50.61123" lon="2.00317">
        <ele>208</ele>
        <time>2013-08-24T12:37:32.000Z</time>
      </trkpt>
      <trkpt lat="50.61124" lon="2.00288">
        <ele>209</ele>
        <time>2013-08-24T12:37:35.000Z</time>
      </trkpt>
      <trkpt lat="50.61123" lon="2.00257">
        <ele>208</ele>
        <time>2013-08-24T12:37:38.000Z</time>
      </trkpt>
      <trkpt lat="50.61119" lon="2.00227">
        <ele>209</ele>
        <time>2013-08-24T12:37:41.000Z</time>
      </trkpt>
      <trkpt lat="50.61115" lon="2.00196">
        <ele>207</ele>
        <time>2013-08-24T12:37:44.000Z</time>
      </trkpt>
      <trkpt lat="50.61111" lon="2.00167">
        <ele>206</ele>
        <time>2013-08-24T12:37:47.000Z</time>
      </trkpt>
      <trkpt lat="50.61109" lon="2.0014">
        <ele>205</ele>
        <time>2013-08-24T12:37:50.000Z</time>
      </trkpt>
      <trkpt lat="50.61107" lon="2.00113">
        <ele>205</ele>
        <time>2013-08-24T12:37:53.000Z</time>
      </trkpt>
      <trkpt lat="50.61105" lon="2.00087">
        <ele>206</ele>
        <time>2013-08-24T12:37:56.000Z</time>
      </trkpt>
      <trkpt lat="50.61103" lon="2.0006">
        <ele>208</ele>
        <time>2013-08-24T12:37:59.000Z</time>
      </trkpt>
      <trkpt lat="50.61099" lon="2.00032">
        <ele>208</ele>
        <time>2013-08-24T12:38:02.000Z</time>
      </trkpt>
      <trkpt lat="50.61094" lon="2.00007">
        <ele>206</ele>
        <time>2013-08-24T12:38:05.000Z</time>
      </trkpt>
      <trkpt lat="50.61086" lon="1.99982">
        <ele>205</ele>
        <time>2013-08-24T12:38:08.000Z</time>
      </trkpt>
      <trkpt lat="50.61076" lon="1.99961">
        <ele>205</ele>
        <time>2013-08-24T12:38:11.000Z</time>
      </trkpt>
      <trkpt lat="50.61066" lon="1.99939">
        <ele>205</ele>
        <time>2013-08-24T12:38:14.000Z</time>
      </trkpt>
      <trkpt lat="50.61055" lon="1.99917">
        <ele>205</ele>
        <time>2013-08-24T12:38:17.000Z</time>
      </trkpt>
      <trkpt lat="50.61045" lon="1.99895">
        <ele>205</ele>
        <time>2013-08-24T12:38:20.000Z</time>
      </trkpt>
      <trkpt lat="50.61035" lon="1.99872">
        <ele>205</ele>
        <time>2013-08-24T12:38:23.000Z</time>
      </trkpt>
      <trkpt lat="50.61023" lon="1.9985">
        <ele>205</ele>
        <time>2013-08-24T12:38:26.000Z</time>
      </trkpt>
      <trkpt lat="50.61011" lon="1.9983">
        <ele>205</ele>
        <time>2013-08-24T12:38:29.000Z</time>
      </trkpt>
      <trkpt lat="50.60997" lon="1.99812">
        <ele>206</ele>
        <time>2013-08-24T12:38:32.000Z</time>
      </trkpt>
      <trkpt lat="50.60985" lon="1.99792">
        <ele>207</ele>
        <time>2013-08-24T12:38:35.000Z</time>
      </trkpt>
      <trkpt lat="50.60975" lon="1.99769">
        <ele>206</ele>
        <time>2013-08-24T12:38:38.000Z</time>
      </trkpt>
      <trkpt lat="50.60966" lon="1.99752">
        <ele>207</ele>
        <time>2013-08-24T12:38:41.000Z</time>
      </trkpt>
      <trkpt lat="50.60984" lon="1.99715">
        <ele>207</ele>
        <time>2013-08-24T12:38:44.000Z</time>
      </trkpt>
      <trkpt lat="50.60997" lon="1.99694">
        <ele>206</ele>
        <time>2013-08-24T12:38:47.000Z</time>
      </trkpt>
      <trkpt lat="50.61011" lon="1.99677">
        <ele>205</ele>
        <time>2013-08-24T12:38:50.000Z</time>
      </trkpt>
      <trkpt lat="50.61023" lon="1.99659">
        <ele>205</ele>
        <time>2013-08-24T12:38:53.000Z</time>
      </trkpt>
      <trkpt lat="50.61034" lon="1.99644">
        <ele>206</ele>
        <time>2013-08-24T12:38:56.000Z</time>
      </trkpt>
      <trkpt lat="50.61045" lon="1.9963">
        <ele>208</ele>
        <time>2013-08-24T12:38:59.000Z</time>
      </trkpt>
      <trkpt lat="50.61055" lon="1.99615">
        <ele>207</ele>
        <time>2013-08-24T12:39:02.000Z</time>
      </trkpt>
      <trkpt lat="50.61075" lon="1.99593">
        <ele>209</ele>
        <time>2013-08-24T12:39:08.000Z</time>
      </trkpt>
      <trkpt lat="50.61088" lon="1.99561">
        <ele>209</ele>
        <time>2013-08-24T12:39:14.000Z</time>
      </trkpt>
      <trkpt lat="50.61104" lon="1.99531">
        <ele>209</ele>
        <time>2013-08-24T12:39:20.000Z</time>
      </trkpt>
      <trkpt lat="50.61122" lon="1.99501">
        <ele>211</ele>
        <time>2013-08-24T12:39:26.000Z</time>
      </trkpt>
      <trkpt lat="50.61131" lon="1.99485">
        <ele>210</ele>
        <time>2013-08-24T12:39:29.000Z</time>
      </trkpt>
      <trkpt lat="50.6114" lon="1.99449">
        <ele>213</ele>
        <time>2013-08-24T12:39:35.000Z</time>
      </trkpt>
      <trkpt lat="50.61142" lon="1.99428">
        <ele>212</ele>
        <time>2013-08-24T12:39:38.000Z</time>
      </trkpt>
      <trkpt lat="50.61145" lon="1.99393">
        <ele>209</ele>
        <time>2013-08-24T12:39:44.000Z</time>
      </trkpt>
      <trkpt lat="50.61148" lon="1.99362">
        <ele>209</ele>
        <time>2013-08-24T12:39:50.000Z</time>
      </trkpt>
      <trkpt lat="50.61165" lon="1.99334">
        <ele>210</ele>
        <time>2013-08-24T12:39:56.000Z</time>
      </trkpt>
      <trkpt lat="50.61182" lon="1.99326">
        <ele>212</ele>
        <time>2013-08-24T12:39:59.000Z</time>
      </trkpt>
      <trkpt lat="50.61201" lon="1.99323">
        <ele>215</ele>
        <time>2013-08-24T12:40:02.000Z</time>
      </trkpt>
      <trkpt lat="50.61218" lon="1.9933">
        <ele>216</ele>
        <time>2013-08-24T12:40:05.000Z</time>
      </trkpt>
      <trkpt lat="50.61235" lon="1.99342">
        <ele>216</ele>
        <time>2013-08-24T12:40:08.000Z</time>
      </trkpt>
      <trkpt lat="50.61253" lon="1.99355">
        <ele>217</ele>
        <time>2013-08-24T12:40:11.000Z</time>
      </trkpt>
      <trkpt lat="50.61272" lon="1.9937">
        <ele>218</ele>
        <time>2013-08-24T12:40:14.000Z</time>
      </trkpt>
      <trkpt lat="50.61291" lon="1.99385">
        <ele>218</ele>
        <time>2013-08-24T12:40:17.000Z</time>
      </trkpt>
      <trkpt lat="50.61309" lon="1.99399">
        <ele>217</ele>
        <time>2013-08-24T12:40:20.000Z</time>
      </trkpt>
      <trkpt lat="50.61326" lon="1.99412">
        <ele>217</ele>
        <time>2013-08-24T12:40:23.000Z</time>
      </trkpt>
      <trkpt lat="50.61343" lon="1.99425">
        <ele>217</ele>
        <time>2013-08-24T12:40:26.000Z</time>
      </trkpt>
      <trkpt lat="50.61359" lon="1.99438">
        <ele>216</ele>
        <time>2013-08-24T12:40:29.000Z</time>
      </trkpt>
      <trkpt lat="50.61378" lon="1.99453">
        <ele>216</ele>
        <time>2013-08-24T12:40:32.000Z</time>
      </trkpt>
      <trkpt lat="50.61394" lon="1.9947">
        <ele>215</ele>
        <time>2013-08-24T12:40:35.000Z</time>
      </trkpt>
      <trkpt lat="50.61408" lon="1.99489">
        <ele>215</ele>
        <time>2013-08-24T12:40:38.000Z</time>
      </trkpt>
      <trkpt lat="50.61421" lon="1.99508">
        <ele>215</ele>
        <time>2013-08-24T12:40:41.000Z</time>
      </trkpt>
      <trkpt lat="50.61432" lon="1.99528">
        <ele>215</ele>
        <time>2013-08-24T12:40:44.000Z</time>
      </trkpt>
      <trkpt lat="50.61444" lon="1.99548">
        <ele>215</ele>
        <time>2013-08-24T12:40:47.000Z</time>
      </trkpt>
      <trkpt lat="50.6146" lon="1.99554">
        <ele>213</ele>
        <time>2013-08-24T12:40:50.000Z</time>
      </trkpt>
      <trkpt lat="50.61475" lon="1.99537">
        <ele>212</ele>
        <time>2013-08-24T12:40:53.000Z</time>
      </trkpt>
      <trkpt lat="50.61485" lon="1.99511">
        <ele>210</ele>
        <time>2013-08-24T12:40:56.000Z</time>
      </trkpt>
      <trkpt lat="50.61491" lon="1.99486">
        <ele>207</ele>
        <time>2013-08-24T12:40:59.000Z</time>
      </trkpt>
      <trkpt lat="50.615" lon="1.99461">
        <ele>204</ele>
        <time>2013-08-24T12:41:02.000Z</time>
      </trkpt>
      <trkpt lat="50.61508" lon="1.99438">
        <ele>201</ele>
        <time>2013-08-24T12:41:10.000Z</time>
      </trkpt>
      <trkpt lat="50.61515" lon="1.99413">
        <ele>200</ele>
        <time>2013-08-24T12:41:10.000Z</time>
      </trkpt>
      <trkpt lat="50.61525" lon="1.99391">
        <ele>200</ele>
        <time>2013-08-24T12:41:11.000Z</time>
      </trkpt>
      <trkpt lat="50.61533" lon="1.99371">
        <ele>203</ele>
        <time>2013-08-24T12:41:14.000Z</time>
      </trkpt>
      <trkpt lat="50.61543" lon="1.9935">
        <ele>203</ele>
        <time>2013-08-24T12:41:17.000Z</time>
      </trkpt>
      <trkpt lat="50.61555" lon="1.9933">
        <ele>202</ele>
        <time>2013-08-24T12:41:20.000Z</time>
      </trkpt>
      <trkpt lat="50.61565" lon="1.99309">
        <ele>202</ele>
        <time>2013-08-24T12:41:23.000Z</time>
      </trkpt>
      <trkpt lat="50.61578" lon="1.99288">
        <ele>202</ele>
        <time>2013-08-24T12:41:26.000Z</time>
      </trkpt>
      <trkpt lat="50.61589" lon="1.99266">
        <ele>204</ele>
        <time>2013-08-24T12:41:29.000Z</time>
      </trkpt>
      <trkpt lat="50.616" lon="1.99243">
        <ele>204</ele>
        <time>2013-08-24T12:41:32.000Z</time>
      </trkpt>
      <trkpt lat="50.61611" lon="1.99221">
        <ele>204</ele>
        <time>2013-08-24T12:41:35.000Z</time>
      </trkpt>
      <trkpt lat="50.61621" lon="1.99196">
        <ele>204</ele>
        <time>2013-08-24T12:41:38.000Z</time>
      </trkpt>
      <trkpt lat="50.61631" lon="1.9917">
        <ele>204</ele>
        <time>2013-08-24T12:41:41.000Z</time>
      </trkpt>
      <trkpt lat="50.61638" lon="1.99143">
        <ele>204</ele>
        <time>2013-08-24T12:41:44.000Z</time>
      </trkpt>
      <trkpt lat="50.61643" lon="1.99115">
        <ele>202</ele>
        <time>2013-08-24T12:41:47.000Z</time>
      </trkpt>
      <trkpt lat="50.61646" lon="1.99087">
        <ele>200</ele>
        <time>2013-08-24T12:41:50.000Z</time>
      </trkpt>
      <trkpt lat="50.61649" lon="1.99061">
        <ele>199</ele>
        <time>2013-08-24T12:41:53.000Z</time>
      </trkpt>
      <trkpt lat="50.61652" lon="1.99034">
        <ele>198</ele>
        <time>2013-08-24T12:41:56.000Z</time>
      </trkpt>
      <trkpt lat="50.61656" lon="1.99009">
        <ele>197</ele>
        <time>2013-08-24T12:41:59.000Z</time>
      </trkpt>
      <trkpt lat="50.61661" lon="1.98984">
        <ele>198</ele>
        <time>2013-08-24T12:42:02.000Z</time>
      </trkpt>
      <trkpt lat="50.61666" lon="1.98959">
        <ele>199</ele>
        <time>2013-08-24T12:42:05.000Z</time>
      </trkpt>
      <trkpt lat="50.61674" lon="1.98935">
        <ele>201</ele>
        <time>2013-08-24T12:42:08.000Z</time>
      </trkpt>
      <trkpt lat="50.61679" lon="1.98912">
        <ele>200</ele>
        <time>2013-08-24T12:42:11.000Z</time>
      </trkpt>
      <trkpt lat="50.61685" lon="1.98892">
        <ele>202</ele>
        <time>2013-08-24T12:42:14.000Z</time>
      </trkpt>
      <trkpt lat="50.6169" lon="1.98872">
        <ele>203</ele>
        <time>2013-08-24T12:42:17.000Z</time>
      </trkpt>
      <trkpt lat="50.61695" lon="1.98853">
        <ele>204</ele>
        <time>2013-08-24T12:42:20.000Z</time>
      </trkpt>
      <trkpt lat="50.61723" lon="1.98849">
        <ele>205</ele>
        <time>2013-08-24T12:42:23.000Z</time>
      </trkpt>
      <trkpt lat="50.61733" lon="1.98833">
        <ele>206</ele>
        <time>2013-08-24T12:42:26.000Z</time>
      </trkpt>
      <trkpt lat="50.61744" lon="1.98817">
        <ele>207</ele>
        <time>2013-08-24T12:42:29.000Z</time>
      </trkpt>
      <trkpt lat="50.61755" lon="1.98801">
        <ele>209</ele>
        <time>2013-08-24T12:42:32.000Z</time>
      </trkpt>
      <trkpt lat="50.61767" lon="1.98786">
        <ele>211</ele>
        <time>2013-08-24T12:42:35.000Z</time>
      </trkpt>
      <trkpt lat="50.61778" lon="1.98773">
        <ele>213</ele>
        <time>2013-08-24T12:42:38.000Z</time>
      </trkpt>
      <trkpt lat="50.61789" lon="1.9876">
        <ele>212</ele>
        <time>2013-08-24T12:42:41.000Z</time>
      </trkpt>
      <trkpt lat="50.61801" lon="1.98747">
        <ele>212</ele>
        <time>2013-08-24T12:42:44.000Z</time>
      </trkpt>
      <trkpt lat="50.61813" lon="1.98732">
        <ele>212</ele>
        <time>2013-08-24T12:42:47.000Z</time>
      </trkpt>
      <trkpt lat="50.61827" lon="1.98725">
        <ele>212</ele>
        <time>2013-08-24T12:42:50.000Z</time>
      </trkpt>
      <trkpt lat="50.6184" lon="1.98712">
        <ele>210</ele>
        <time>2013-08-24T12:42:53.000Z</time>
      </trkpt>
      <trkpt lat="50.61852" lon="1.987">
        <ele>209</ele>
        <time>2013-08-24T12:42:56.000Z</time>
      </trkpt>
      <trkpt lat="50.61866" lon="1.98688">
        <ele>209</ele>
        <time>2013-08-24T12:42:59.000Z</time>
      </trkpt>
      <trkpt lat="50.61879" lon="1.98676">
        <ele>209</ele>
        <time>2013-08-24T12:43:02.000Z</time>
      </trkpt>
      <trkpt lat="50.61892" lon="1.98665">
        <ele>209</ele>
        <time>2013-08-24T12:43:05.000Z</time>
      </trkpt>
      <trkpt lat="50.61906" lon="1.98653">
        <ele>208</ele>
        <time>2013-08-24T12:43:08.000Z</time>
      </trkpt>
      <trkpt lat="50.61919" lon="1.98641">
        <ele>207</ele>
        <time>2013-08-24T12:43:11.000Z</time>
      </trkpt>
      <trkpt lat="50.61934" lon="1.98628">
        <ele>207</ele>
        <time>2013-08-24T12:43:14.000Z</time>
      </trkpt>
      <trkpt lat="50.61948" lon="1.98613">
        <ele>208</ele>
        <time>2013-08-24T12:43:17.000Z</time>
      </trkpt>
      <trkpt lat="50.61961" lon="1.98598">
        <ele>209</ele>
        <time>2013-08-24T12:43:20.000Z</time>
      </trkpt>
      <trkpt lat="50.61975" lon="1.98584">
        <ele>209</ele>
        <time>2013-08-24T12:43:23.000Z</time>
      </trkpt>
      <trkpt lat="50.61988" lon="1.9857">
        <ele>211</ele>
        <time>2013-08-24T12:43:26.000Z</time>
      </trkpt>
      <trkpt lat="50.62001" lon="1.98557">
        <ele>212</ele>
        <time>2013-08-24T12:43:29.000Z</time>
      </trkpt>
      <trkpt lat="50.62014" lon="1.98544">
        <ele>213</ele>
        <time>2013-08-24T12:43:32.000Z</time>
      </trkpt>
      <trkpt lat="50.6202" lon="1.98512">
        <ele>212</ele>
        <time>2013-08-24T12:43:36.000Z</time>
      </trkpt>
      <trkpt lat="50.62031" lon="1.98494">
        <ele>209</ele>
        <time>2013-08-24T12:43:38.000Z</time>
      </trkpt>
      <trkpt lat="50.62042" lon="1.98476">
        <ele>208</ele>
        <time>2013-08-24T12:43:41.000Z</time>
      </trkpt>
      <trkpt lat="50.62055" lon="1.98461">
        <ele>207</ele>
        <time>2013-08-24T12:43:44.000Z</time>
      </trkpt>
      <trkpt lat="50.62068" lon="1.98447">
        <ele>207</ele>
        <time>2013-08-24T12:43:47.000Z</time>
      </trkpt>
      <trkpt lat="50.62081" lon="1.98436">
        <ele>206</ele>
        <time>2013-08-24T12:43:50.000Z</time>
      </trkpt>
      <trkpt lat="50.62093" lon="1.98424">
        <ele>206</ele>
        <time>2013-08-24T12:43:53.000Z</time>
      </trkpt>
      <trkpt lat="50.62108" lon="1.98412">
        <ele>208</ele>
        <time>2013-08-24T12:43:56.000Z</time>
      </trkpt>
      <trkpt lat="50.62123" lon="1.98401">
        <ele>208</ele>
        <time>2013-08-24T12:44:00.000Z</time>
      </trkpt>
      <trkpt lat="50.62141" lon="1.98392">
        <ele>207</ele>
        <time>2013-08-24T12:44:02.000Z</time>
      </trkpt>
      <trkpt lat="50.62159" lon="1.98383">
        <ele>207</ele>
        <time>2013-08-24T12:44:06.000Z</time>
      </trkpt>
      <trkpt lat="50.62177" lon="1.98376">
        <ele>209</ele>
        <time>2013-08-24T12:44:08.000Z</time>
      </trkpt>
      <trkpt lat="50.62194" lon="1.98365">
        <ele>209</ele>
        <time>2013-08-24T12:44:11.000Z</time>
      </trkpt>
      <trkpt lat="50.62212" lon="1.98349">
        <ele>209</ele>
        <time>2013-08-24T12:44:14.000Z</time>
      </trkpt>
      <trkpt lat="50.62227" lon="1.9833">
        <ele>212</ele>
        <time>2013-08-24T12:44:17.000Z</time>
      </trkpt>
      <trkpt lat="50.62242" lon="1.9831">
        <ele>214</ele>
        <time>2013-08-24T12:44:20.000Z</time>
      </trkpt>
      <trkpt lat="50.62255" lon="1.98293">
        <ele>216</ele>
        <time>2013-08-24T12:44:23.000Z</time>
      </trkpt>
      <trkpt lat="50.62268" lon="1.98277">
        <ele>216</ele>
        <time>2013-08-24T12:44:26.000Z</time>
      </trkpt>
      <trkpt lat="50.62278" lon="1.98264">
        <ele>215</ele>
        <time>2013-08-24T12:44:29.000Z</time>
      </trkpt>
      <trkpt lat="50.62288" lon="1.98251">
        <ele>213</ele>
        <time>2013-08-24T12:44:32.000Z</time>
      </trkpt>
      <trkpt lat="50.6231" lon="1.98224">
        <ele>211</ele>
        <time>2013-08-24T12:44:38.000Z</time>
      </trkpt>
      <trkpt lat="50.62314" lon="1.98197">
        <ele>211</ele>
        <time>2013-08-24T12:44:41.000Z</time>
      </trkpt>
      <trkpt lat="50.62325" lon="1.98184">
        <ele>211</ele>
        <time>2013-08-24T12:44:44.000Z</time>
      </trkpt>
      <trkpt lat="50.62337" lon="1.98171">
        <ele>212</ele>
        <time>2013-08-24T12:44:47.000Z</time>
      </trkpt>
      <trkpt lat="50.62347" lon="1.98158">
        <ele>214</ele>
        <time>2013-08-24T12:44:50.000Z</time>
      </trkpt>
      <trkpt lat="50.62358" lon="1.98147">
        <ele>214</ele>
        <time>2013-08-24T12:44:53.000Z</time>
      </trkpt>
      <trkpt lat="50.62373" lon="1.98144">
        <ele>214</ele>
        <time>2013-08-24T12:44:56.000Z</time>
      </trkpt>
      <trkpt lat="50.62384" lon="1.98136">
        <ele>215</ele>
        <time>2013-08-24T12:44:59.000Z</time>
      </trkpt>
      <trkpt lat="50.62396" lon="1.98128">
        <ele>217</ele>
        <time>2013-08-24T12:45:02.000Z</time>
      </trkpt>
      <trkpt lat="50.62408" lon="1.9812">
        <ele>219</ele>
        <time>2013-08-24T12:45:05.000Z</time>
      </trkpt>
      <trkpt lat="50.62421" lon="1.98113">
        <ele>219</ele>
        <time>2013-08-24T12:45:08.000Z</time>
      </trkpt>
      <trkpt lat="50.62434" lon="1.98104">
        <ele>219</ele>
        <time>2013-08-24T12:45:11.000Z</time>
      </trkpt>
      <trkpt lat="50.62447" lon="1.98095">
        <ele>218</ele>
        <time>2013-08-24T12:45:14.000Z</time>
      </trkpt>
      <trkpt lat="50.62461" lon="1.98087">
        <ele>218</ele>
        <time>2013-08-24T12:45:17.000Z</time>
      </trkpt>
      <trkpt lat="50.62475" lon="1.98079">
        <ele>217</ele>
        <time>2013-08-24T12:45:20.000Z</time>
      </trkpt>
      <trkpt lat="50.62489" lon="1.98068">
        <ele>216</ele>
        <time>2013-08-24T12:45:23.000Z</time>
      </trkpt>
      <trkpt lat="50.62503" lon="1.98059">
        <ele>215</ele>
        <time>2013-08-24T12:45:26.000Z</time>
      </trkpt>
      <trkpt lat="50.62516" lon="1.98046">
        <ele>215</ele>
        <time>2013-08-24T12:45:30.000Z</time>
      </trkpt>
      <trkpt lat="50.62529" lon="1.98034">
        <ele>214</ele>
        <time>2013-08-24T12:45:32.000Z</time>
      </trkpt>
      <trkpt lat="50.62542" lon="1.98023">
        <ele>214</ele>
        <time>2013-08-24T12:45:35.000Z</time>
      </trkpt>
      <trkpt lat="50.62555" lon="1.98012">
        <ele>215</ele>
        <time>2013-08-24T12:45:39.000Z</time>
      </trkpt>
      <trkpt lat="50.62566" lon="1.97992">
        <ele>216</ele>
        <time>2013-08-24T12:45:41.000Z</time>
      </trkpt>
      <trkpt lat="50.62577" lon="1.97975">
        <ele>216</ele>
        <time>2013-08-24T12:45:44.000Z</time>
      </trkpt>
      <trkpt lat="50.6259" lon="1.97956">
        <ele>215</ele>
        <time>2013-08-24T12:45:47.000Z</time>
      </trkpt>
      <trkpt lat="50.62602" lon="1.97937">
        <ele>214</ele>
        <time>2013-08-24T12:45:50.000Z</time>
      </trkpt>
      <trkpt lat="50.62615" lon="1.97918">
        <ele>212</ele>
        <time>2013-08-24T12:45:53.000Z</time>
      </trkpt>
      <trkpt lat="50.62627" lon="1.97897">
        <ele>211</ele>
        <time>2013-08-24T12:45:57.000Z</time>
      </trkpt>
      <trkpt lat="50.62641" lon="1.97876">
        <ele>210</ele>
        <time>2013-08-24T12:45:59.000Z</time>
      </trkpt>
      <trkpt lat="50.62654" lon="1.97855">
        <ele>211</ele>
        <time>2013-08-24T12:46:02.000Z</time>
      </trkpt>
      <trkpt lat="50.62669" lon="1.97839">
        <ele>211</ele>
        <time>2013-08-24T12:46:05.000Z</time>
      </trkpt>
      <trkpt lat="50.62683" lon="1.97826">
        <ele>210</ele>
        <time>2013-08-24T12:46:08.000Z</time>
      </trkpt>
      <trkpt lat="50.62696" lon="1.97814">
        <ele>212</ele>
        <time>2013-08-24T12:46:11.000Z</time>
      </trkpt>
      <trkpt lat="50.6271" lon="1.97802">
        <ele>212</ele>
        <time>2013-08-24T12:46:14.000Z</time>
      </trkpt>
      <trkpt lat="50.62722" lon="1.9779">
        <ele>210</ele>
        <time>2013-08-24T12:46:17.000Z</time>
      </trkpt>
      <trkpt lat="50.62734" lon="1.97779">
        <ele>210</ele>
        <time>2013-08-24T12:46:20.000Z</time>
      </trkpt>
      <trkpt lat="50.62746" lon="1.97768">
        <ele>210</ele>
        <time>2013-08-24T12:46:23.000Z</time>
      </trkpt>
      <trkpt lat="50.62757" lon="1.97757">
        <ele>212</ele>
        <time>2013-08-24T12:46:26.000Z</time>
      </trkpt>
      <trkpt lat="50.62769" lon="1.97745">
        <ele>211</ele>
        <time>2013-08-24T12:46:29.000Z</time>
      </trkpt>
      <trkpt lat="50.6278" lon="1.97734">
        <ele>210</ele>
        <time>2013-08-24T12:46:32.000Z</time>
      </trkpt>
      <trkpt lat="50.62792" lon="1.97723">
        <ele>209</ele>
        <time>2013-08-24T12:46:35.000Z</time>
      </trkpt>
      <trkpt lat="50.62804" lon="1.97712">
        <ele>211</ele>
        <time>2013-08-24T12:46:38.000Z</time>
      </trkpt>
      <trkpt lat="50.62815" lon="1.97701">
        <ele>211</ele>
        <time>2013-08-24T12:46:41.000Z</time>
      </trkpt>
      <trkpt lat="50.62826" lon="1.9769">
        <ele>212</ele>
        <time>2013-08-24T12:46:44.000Z</time>
      </trkpt>
      <trkpt lat="50.62837" lon="1.97678">
        <ele>213</ele>
        <time>2013-08-24T12:46:47.000Z</time>
      </trkpt>
      <trkpt lat="50.62848" lon="1.97667">
        <ele>213</ele>
        <time>2013-08-24T12:46:50.000Z</time>
      </trkpt>
      <trkpt lat="50.62859" lon="1.97656">
        <ele>214</ele>
        <time>2013-08-24T12:46:53.000Z</time>
      </trkpt>
      <trkpt lat="50.62871" lon="1.97644">
        <ele>215</ele>
        <time>2013-08-24T12:46:56.000Z</time>
      </trkpt>
      <trkpt lat="50.62881" lon="1.97633">
        <ele>214</ele>
        <time>2013-08-24T12:46:59.000Z</time>
      </trkpt>
      <trkpt lat="50.62904" lon="1.97613">
        <ele>216</ele>
        <time>2013-08-24T12:47:05.000Z</time>
      </trkpt>
      <trkpt lat="50.62915" lon="1.97603">
        <ele>218</ele>
        <time>2013-08-24T12:47:08.000Z</time>
      </trkpt>
      <trkpt lat="50.62936" lon="1.97582">
        <ele>218</ele>
        <time>2013-08-24T12:47:14.000Z</time>
      </trkpt>
      <trkpt lat="50.62954" lon="1.9756">
        <ele>214</ele>
        <time>2013-08-24T12:47:20.000Z</time>
      </trkpt>
      <trkpt lat="50.62972" lon="1.97538">
        <ele>211</ele>
        <time>2013-08-24T12:47:26.000Z</time>
      </trkpt>
      <trkpt lat="50.62983" lon="1.97526">
        <ele>213</ele>
        <time>2013-08-24T12:47:29.000Z</time>
      </trkpt>
      <trkpt lat="50.63001" lon="1.97505">
        <ele>216</ele>
        <time>2013-08-24T12:47:35.000Z</time>
      </trkpt>
      <trkpt lat="50.63012" lon="1.97492">
        <ele>217</ele>
        <time>2013-08-24T12:47:38.000Z</time>
      </trkpt>
      <trkpt lat="50.63024" lon="1.97478">
        <ele>216</ele>
        <time>2013-08-24T12:47:41.000Z</time>
      </trkpt>
      <trkpt lat="50.63034" lon="1.97466">
        <ele>213</ele>
        <time>2013-08-24T12:47:44.000Z</time>
      </trkpt>
      <trkpt lat="50.63046" lon="1.97453">
        <ele>213</ele>
        <time>2013-08-24T12:47:48.000Z</time>
      </trkpt>
      <trkpt lat="50.63059" lon="1.97442">
        <ele>213</ele>
        <time>2013-08-24T12:47:50.000Z</time>
      </trkpt>
      <trkpt lat="50.63074" lon="1.97429">
        <ele>211</ele>
        <time>2013-08-24T12:47:53.000Z</time>
      </trkpt>
      <trkpt lat="50.63091" lon="1.97416">
        <ele>210</ele>
        <time>2013-08-24T12:47:56.000Z</time>
      </trkpt>
      <trkpt lat="50.63106" lon="1.97402">
        <ele>210</ele>
        <time>2013-08-24T12:47:59.000Z</time>
      </trkpt>
      <trkpt lat="50.6312" lon="1.97391">
        <ele>212</ele>
        <time>2013-08-24T12:48:02.000Z</time>
      </trkpt>
      <trkpt lat="50.63133" lon="1.9738">
        <ele>213</ele>
        <time>2013-08-24T12:48:05.000Z</time>
      </trkpt>
      <trkpt lat="50.63145" lon="1.97369">
        <ele>213</ele>
        <time>2013-08-24T12:48:08.000Z</time>
      </trkpt>
      <trkpt lat="50.63157" lon="1.97359">
        <ele>213</ele>
        <time>2013-08-24T12:48:11.000Z</time>
      </trkpt>
      <trkpt lat="50.63179" lon="1.97338">
        <ele>213</ele>
        <time>2013-08-24T12:48:17.000Z</time>
      </trkpt>
      <trkpt lat="50.6319" lon="1.97327">
        <ele>213</ele>
        <time>2013-08-24T12:48:20.000Z</time>
      </trkpt>
      <trkpt lat="50.63208" lon="1.97308">
        <ele>214</ele>
        <time>2013-08-24T12:48:26.000Z</time>
      </trkpt>
      <trkpt lat="50.63225" lon="1.9729">
        <ele>217</ele>
        <time>2013-08-24T12:48:32.000Z</time>
      </trkpt>
      <trkpt lat="50.63244" lon="1.97271">
        <ele>217</ele>
        <time>2013-08-24T12:48:38.000Z</time>
      </trkpt>
      <trkpt lat="50.6326" lon="1.97255">
        <ele>218</ele>
        <time>2013-08-24T12:48:44.000Z</time>
      </trkpt>
      <trkpt lat="50.63262" lon="1.97231">
        <ele>219</ele>
        <time>2013-08-24T12:48:47.000Z</time>
      </trkpt>
      <trkpt lat="50.63274" lon="1.9721">
        <ele>220</ele>
        <time>2013-08-24T12:48:53.000Z</time>
      </trkpt>
      <trkpt lat="50.63286" lon="1.97187">
        <ele>220</ele>
        <time>2013-08-24T12:48:59.000Z</time>
      </trkpt>
      <trkpt lat="50.633" lon="1.97164">
        <ele>220</ele>
        <time>2013-08-24T12:49:05.000Z</time>
      </trkpt>
      <trkpt lat="50.63316" lon="1.97137">
        <ele>220</ele>
        <time>2013-08-24T12:49:11.000Z</time>
      </trkpt>
      <trkpt lat="50.63333" lon="1.97111">
        <ele>220</ele>
        <time>2013-08-24T12:49:17.000Z</time>
      </trkpt>
      <trkpt lat="50.63352" lon="1.9709">
        <ele>221</ele>
        <time>2013-08-24T12:49:23.000Z</time>
      </trkpt>
      <trkpt lat="50.63374" lon="1.9707">
        <ele>223</ele>
        <time>2013-08-24T12:49:29.000Z</time>
      </trkpt>
      <trkpt lat="50.63393" lon="1.97053">
        <ele>221</ele>
        <time>2013-08-24T12:49:35.000Z</time>
      </trkpt>
      <trkpt lat="50.63412" lon="1.97035">
        <ele>222</ele>
        <time>2013-08-24T12:49:41.000Z</time>
      </trkpt>
      <trkpt lat="50.63423" lon="1.97025">
        <ele>222</ele>
        <time>2013-08-24T12:49:47.000Z</time>
      </trkpt>
      <trkpt lat="50.63434" lon="1.97014">
        <ele>222</ele>
        <time>2013-08-24T12:49:50.000Z</time>
      </trkpt>
      <trkpt lat="50.63445" lon="1.97004">
        <ele>222</ele>
        <time>2013-08-24T12:49:53.000Z</time>
      </trkpt>
      <trkpt lat="50.63456" lon="1.96993">
        <ele>221</ele>
        <time>2013-08-24T12:49:56.000Z</time>
      </trkpt>
      <trkpt lat="50.63467" lon="1.96983">
        <ele>221</ele>
        <time>2013-08-24T12:49:59.000Z</time>
      </trkpt>
      <trkpt lat="50.63489" lon="1.96963">
        <ele>221</ele>
        <time>2013-08-24T12:50:02.000Z</time>
      </trkpt>
      <trkpt lat="50.63543" lon="1.96923">
        <ele>222</ele>
        <time>2013-08-24T12:50:18.000Z</time>
      </trkpt>
      <trkpt lat="50.63564" lon="1.96915">
        <ele>223</ele>
        <time>2013-08-24T12:50:24.000Z</time>
      </trkpt>
      <trkpt lat="50.63581" lon="1.96908">
        <ele>223</ele>
        <time>2013-08-24T12:50:30.000Z</time>
      </trkpt>
      <trkpt lat="50.63602" lon="1.969">
        <ele>224</ele>
        <time>2013-08-24T12:50:36.000Z</time>
      </trkpt>
      <trkpt lat="50.63624" lon="1.96896">
        <ele>224</ele>
        <time>2013-08-24T12:50:42.000Z</time>
      </trkpt>
      <trkpt lat="50.63641" lon="1.96889">
        <ele>225</ele>
        <time>2013-08-24T12:50:48.000Z</time>
      </trkpt>
      <trkpt lat="50.63664" lon="1.9688">
        <ele>224</ele>
        <time>2013-08-24T12:50:54.000Z</time>
      </trkpt>
      <trkpt lat="50.63676" lon="1.96876">
        <ele>225</ele>
        <time>2013-08-24T12:50:57.000Z</time>
      </trkpt>
      <trkpt lat="50.63699" lon="1.9687">
        <ele>226</ele>
        <time>2013-08-24T12:51:03.000Z</time>
      </trkpt>
      <trkpt lat="50.63714" lon="1.96864">
        <ele>228</ele>
        <time>2013-08-24T12:51:06.000Z</time>
      </trkpt>
      <trkpt lat="50.63731" lon="1.96859">
        <ele>229</ele>
        <time>2013-08-24T12:51:09.000Z</time>
      </trkpt>
      <trkpt lat="50.63749" lon="1.96852">
        <ele>230</ele>
        <time>2013-08-24T12:51:12.000Z</time>
      </trkpt>
      <trkpt lat="50.63766" lon="1.96844">
        <ele>230</ele>
        <time>2013-08-24T12:51:15.000Z</time>
      </trkpt>
      <trkpt lat="50.63784" lon="1.96836">
        <ele>229</ele>
        <time>2013-08-24T12:51:18.000Z</time>
      </trkpt>
      <trkpt lat="50.63802" lon="1.96831">
        <ele>229</ele>
        <time>2013-08-24T12:51:21.000Z</time>
      </trkpt>
      <trkpt lat="50.63816" lon="1.96826">
        <ele>230</ele>
        <time>2013-08-24T12:51:24.000Z</time>
      </trkpt>
      <trkpt lat="50.63828" lon="1.96822">
        <ele>229</ele>
        <time>2013-08-24T12:51:27.000Z</time>
      </trkpt>
      <trkpt lat="50.6385" lon="1.96814">
        <ele>230</ele>
        <time>2013-08-24T12:51:33.000Z</time>
      </trkpt>
      <trkpt lat="50.63869" lon="1.96807">
        <ele>230</ele>
        <time>2013-08-24T12:51:39.000Z</time>
      </trkpt>
      <trkpt lat="50.63882" lon="1.96802">
        <ele>230</ele>
        <time>2013-08-24T12:51:45.000Z</time>
      </trkpt>
      <trkpt lat="50.63895" lon="1.96797">
        <ele>231</ele>
        <time>2013-08-24T12:51:51.000Z</time>
      </trkpt>
      <trkpt lat="50.63913" lon="1.96791">
        <ele>231</ele>
        <time>2013-08-24T12:51:57.000Z</time>
      </trkpt>
      <trkpt lat="50.63935" lon="1.96785">
        <ele>232</ele>
        <time>2013-08-24T12:52:03.000Z</time>
      </trkpt>
      <trkpt lat="50.63957" lon="1.96776">
        <ele>233</ele>
        <time>2013-08-24T12:52:09.000Z</time>
      </trkpt>
      <trkpt lat="50.6398" lon="1.96767">
        <ele>235</ele>
        <time>2013-08-24T12:52:15.000Z</time>
      </trkpt>
      <trkpt lat="50.63993" lon="1.96761">
        <ele>234</ele>
        <time>2013-08-24T12:52:18.000Z</time>
      </trkpt>
      <trkpt lat="50.64007" lon="1.96756">
        <ele>234</ele>
        <time>2013-08-24T12:52:21.000Z</time>
      </trkpt>
      <trkpt lat="50.64023" lon="1.9675">
        <ele>235</ele>
        <time>2013-08-24T12:52:24.000Z</time>
      </trkpt>
      <trkpt lat="50.6404" lon="1.96743">
        <ele>234</ele>
        <time>2013-08-24T12:52:28.000Z</time>
      </trkpt>
      <trkpt lat="50.64056" lon="1.96736">
        <ele>233</ele>
        <time>2013-08-24T12:52:30.000Z</time>
      </trkpt>
      <trkpt lat="50.64073" lon="1.9673">
        <ele>233</ele>
        <time>2013-08-24T12:52:33.000Z</time>
      </trkpt>
      <trkpt lat="50.64089" lon="1.96723">
        <ele>233</ele>
        <time>2013-08-24T12:52:36.000Z</time>
      </trkpt>
      <trkpt lat="50.64104" lon="1.96717">
        <ele>234</ele>
        <time>2013-08-24T12:52:39.000Z</time>
      </trkpt>
      <trkpt lat="50.64117" lon="1.96711">
        <ele>236</ele>
        <time>2013-08-24T12:52:42.000Z</time>
      </trkpt>
      <trkpt lat="50.6413" lon="1.96706">
        <ele>237</ele>
        <time>2013-08-24T12:52:45.000Z</time>
      </trkpt>
      <trkpt lat="50.64153" lon="1.96696">
        <ele>239</ele>
        <time>2013-08-24T12:52:51.000Z</time>
      </trkpt>
      <trkpt lat="50.64175" lon="1.96687">
        <ele>241</ele>
        <time>2013-08-24T12:52:58.000Z</time>
      </trkpt>
      <trkpt lat="50.64194" lon="1.96679">
        <ele>240</ele>
        <time>2013-08-24T12:53:03.000Z</time>
      </trkpt>
      <trkpt lat="50.64214" lon="1.96671">
        <ele>240</ele>
        <time>2013-08-24T12:53:09.000Z</time>
      </trkpt>
      <trkpt lat="50.64233" lon="1.96663">
        <ele>240</ele>
        <time>2013-08-24T12:53:15.000Z</time>
      </trkpt>
      <trkpt lat="50.64251" lon="1.96656">
        <ele>240</ele>
        <time>2013-08-24T12:53:21.000Z</time>
      </trkpt>
      <trkpt lat="50.64269" lon="1.96648">
        <ele>240</ele>
        <time>2013-08-24T12:53:27.000Z</time>
      </trkpt>
      <trkpt lat="50.64283" lon="1.96642">
        <ele>241</ele>
        <time>2013-08-24T12:53:33.000Z</time>
      </trkpt>
      <trkpt lat="50.64299" lon="1.96636">
        <ele>241</ele>
        <time>2013-08-24T12:53:39.000Z</time>
      </trkpt>
      <trkpt lat="50.64317" lon="1.9664">
        <ele>241</ele>
        <time>2013-08-24T12:53:45.000Z</time>
      </trkpt>
      <trkpt lat="50.64325" lon="1.96636">
        <ele>241</ele>
        <time>2013-08-24T12:53:51.000Z</time>
      </trkpt>
      <trkpt lat="50.64331" lon="1.96632">
        <ele>242</ele>
        <time>2013-08-24T12:53:54.000Z</time>
      </trkpt>
      <trkpt lat="50.64343" lon="1.96622">
        <ele>242</ele>
        <time>2013-08-24T12:55:24.000Z</time>
      </trkpt>
      <trkpt lat="50.6435" lon="1.96608">
        <ele>243</ele>
        <time>2013-08-24T12:55:27.000Z</time>
      </trkpt>
      <trkpt lat="50.64354" lon="1.9659">
        <ele>242</ele>
        <time>2013-08-24T12:55:30.000Z</time>
      </trkpt>
      <trkpt lat="50.64357" lon="1.96569">
        <ele>241</ele>
        <time>2013-08-24T12:55:33.000Z</time>
      </trkpt>
      <trkpt lat="50.6436" lon="1.96548">
        <ele>240</ele>
        <time>2013-08-24T12:55:37.000Z</time>
      </trkpt>
      <trkpt lat="50.64364" lon="1.96507">
        <ele>239</ele>
        <time>2013-08-24T12:55:39.000Z</time>
      </trkpt>
      <trkpt lat="50.64365" lon="1.96485">
        <ele>239</ele>
        <time>2013-08-24T12:55:42.000Z</time>
      </trkpt>
      <trkpt lat="50.64367" lon="1.96462">
        <ele>238</ele>
        <time>2013-08-24T12:55:45.000Z</time>
      </trkpt>
      <trkpt lat="50.64369" lon="1.96439">
        <ele>237</ele>
        <time>2013-08-24T12:55:48.000Z</time>
      </trkpt>
      <trkpt lat="50.64372" lon="1.96414">
        <ele>237</ele>
        <time>2013-08-24T12:55:51.000Z</time>
      </trkpt>
      <trkpt lat="50.64374" lon="1.96388">
        <ele>237</ele>
        <time>2013-08-24T12:55:54.000Z</time>
      </trkpt>
      <trkpt lat="50.64376" lon="1.96362">
        <ele>236</ele>
        <time>2013-08-24T12:55:57.000Z</time>
      </trkpt>
      <trkpt lat="50.64379" lon="1.96335">
        <ele>236</ele>
        <time>2013-08-24T12:56:00.000Z</time>
      </trkpt>
      <trkpt lat="50.64381" lon="1.96307">
        <ele>235</ele>
        <time>2013-08-24T12:56:03.000Z</time>
      </trkpt>
      <trkpt lat="50.64384" lon="1.96281">
        <ele>234</ele>
        <time>2013-08-24T12:56:06.000Z</time>
      </trkpt>
      <trkpt lat="50.64387" lon="1.96256">
        <ele>235</ele>
        <time>2013-08-24T12:56:09.000Z</time>
      </trkpt>
      <trkpt lat="50.64389" lon="1.96231">
        <ele>236</ele>
        <time>2013-08-24T12:56:12.000Z</time>
      </trkpt>
      <trkpt lat="50.64392" lon="1.96206">
        <ele>236</ele>
        <time>2013-08-24T12:56:15.000Z</time>
      </trkpt>
      <trkpt lat="50.64395" lon="1.96183">
        <ele>236</ele>
        <time>2013-08-24T12:56:18.000Z</time>
      </trkpt>
      <trkpt lat="50.64397" lon="1.96161">
        <ele>237</ele>
        <time>2013-08-24T12:56:21.000Z</time>
      </trkpt>
      <trkpt lat="50.64399" lon="1.96137">
        <ele>238</ele>
        <time>2013-08-24T12:56:24.000Z</time>
      </trkpt>
      <trkpt lat="50.64402" lon="1.96113">
        <ele>239</ele>
        <time>2013-08-24T12:56:27.000Z</time>
      </trkpt>
      <trkpt lat="50.64403" lon="1.96085">
        <ele>239</ele>
        <time>2013-08-24T12:56:30.000Z</time>
      </trkpt>
      <trkpt lat="50.64405" lon="1.96057">
        <ele>237</ele>
        <time>2013-08-24T12:56:33.000Z</time>
      </trkpt>
      <trkpt lat="50.64408" lon="1.9603">
        <ele>236</ele>
        <time>2013-08-24T12:56:36.000Z</time>
      </trkpt>
      <trkpt lat="50.6441" lon="1.96002">
        <ele>235</ele>
        <time>2013-08-24T12:56:39.000Z</time>
      </trkpt>
      <trkpt lat="50.64413" lon="1.95978">
        <ele>234</ele>
        <time>2013-08-24T12:56:42.000Z</time>
      </trkpt>
      <trkpt lat="50.64415" lon="1.95956">
        <ele>234</ele>
        <time>2013-08-24T12:56:45.000Z</time>
      </trkpt>
      <trkpt lat="50.64417" lon="1.9593">
        <ele>234</ele>
        <time>2013-08-24T12:56:48.000Z</time>
      </trkpt>
      <trkpt lat="50.6442" lon="1.95903">
        <ele>236</ele>
        <time>2013-08-24T12:56:51.000Z</time>
      </trkpt>
      <trkpt lat="50.64422" lon="1.95879">
        <ele>236</ele>
        <time>2013-08-24T12:56:54.000Z</time>
      </trkpt>
      <trkpt lat="50.64424" lon="1.95852">
        <ele>235</ele>
        <time>2013-08-24T12:56:57.000Z</time>
      </trkpt>
      <trkpt lat="50.64427" lon="1.95825">
        <ele>235</ele>
        <time>2013-08-24T12:57:00.000Z</time>
      </trkpt>
      <trkpt lat="50.64429" lon="1.95799">
        <ele>235</ele>
        <time>2013-08-24T12:57:03.000Z</time>
      </trkpt>
      <trkpt lat="50.64432" lon="1.95773">
        <ele>234</ele>
        <time>2013-08-24T12:57:06.000Z</time>
      </trkpt>
      <trkpt lat="50.64435" lon="1.95748">
        <ele>232</ele>
        <time>2013-08-24T12:57:10.000Z</time>
      </trkpt>
      <trkpt lat="50.64437" lon="1.95722">
        <ele>231</ele>
        <time>2013-08-24T12:57:12.000Z</time>
      </trkpt>
      <trkpt lat="50.6444" lon="1.95697">
        <ele>232</ele>
        <time>2013-08-24T12:57:15.000Z</time>
      </trkpt>
      <trkpt lat="50.64443" lon="1.95671">
        <ele>232</ele>
        <time>2013-08-24T12:57:18.000Z</time>
      </trkpt>
      <trkpt lat="50.64445" lon="1.95647">
        <ele>232</ele>
        <time>2013-08-24T12:57:21.000Z</time>
      </trkpt>
      <trkpt lat="50.64448" lon="1.9562">
        <ele>232</ele>
        <time>2013-08-24T12:57:24.000Z</time>
      </trkpt>
      <trkpt lat="50.6445" lon="1.95595">
        <ele>232</ele>
        <time>2013-08-24T12:57:27.000Z</time>
      </trkpt>
      <trkpt lat="50.64453" lon="1.95569">
        <ele>232</ele>
        <time>2013-08-24T12:57:30.000Z</time>
      </trkpt>
      <trkpt lat="50.64455" lon="1.95544">
        <ele>232</ele>
        <time>2013-08-24T12:57:34.000Z</time>
      </trkpt>
      <trkpt lat="50.64458" lon="1.9552">
        <ele>232</ele>
        <time>2013-08-24T12:57:36.000Z</time>
      </trkpt>
      <trkpt lat="50.6446" lon="1.95496">
        <ele>232</ele>
        <time>2013-08-24T12:57:39.000Z</time>
      </trkpt>
      <trkpt lat="50.64462" lon="1.95471">
        <ele>232</ele>
        <time>2013-08-24T12:57:42.000Z</time>
      </trkpt>
      <trkpt lat="50.64463" lon="1.95444">
        <ele>232</ele>
        <time>2013-08-24T12:57:45.000Z</time>
      </trkpt>
      <trkpt lat="50.64465" lon="1.95421">
        <ele>232</ele>
        <time>2013-08-24T12:57:48.000Z</time>
      </trkpt>
      <trkpt lat="50.64467" lon="1.95398">
        <ele>232</ele>
        <time>2013-08-24T12:57:51.000Z</time>
      </trkpt>
      <trkpt lat="50.64469" lon="1.95374">
        <ele>232</ele>
        <time>2013-08-24T12:57:54.000Z</time>
      </trkpt>
      <trkpt lat="50.64471" lon="1.9535">
        <ele>233</ele>
        <time>2013-08-24T12:57:57.000Z</time>
      </trkpt>
      <trkpt lat="50.64473" lon="1.95329">
        <ele>233</ele>
        <time>2013-08-24T12:58:00.000Z</time>
      </trkpt>
      <trkpt lat="50.64474" lon="1.95308">
        <ele>233</ele>
        <time>2013-08-24T12:58:03.000Z</time>
      </trkpt>
      <trkpt lat="50.64477" lon="1.95287">
        <ele>234</ele>
        <time>2013-08-24T12:58:06.000Z</time>
      </trkpt>
      <trkpt lat="50.64479" lon="1.95248">
        <ele>236</ele>
        <time>2013-08-24T12:58:12.000Z</time>
      </trkpt>
      <trkpt lat="50.64482" lon="1.9521">
        <ele>237</ele>
        <time>2013-08-24T12:58:18.000Z</time>
      </trkpt>
      <trkpt lat="50.64484" lon="1.95189">
        <ele>237</ele>
        <time>2013-08-24T12:58:21.000Z</time>
      </trkpt>
      <trkpt lat="50.64486" lon="1.95168">
        <ele>237</ele>
        <time>2013-08-24T12:58:24.000Z</time>
      </trkpt>
      <trkpt lat="50.64488" lon="1.95147">
        <ele>237</ele>
        <time>2013-08-24T12:58:27.000Z</time>
      </trkpt>
      <trkpt lat="50.6449" lon="1.95125">
        <ele>237</ele>
        <time>2013-08-24T12:58:31.000Z</time>
      </trkpt>
      <trkpt lat="50.64492" lon="1.95101">
        <ele>238</ele>
        <time>2013-08-24T12:58:33.000Z</time>
      </trkpt>
      <trkpt lat="50.64494" lon="1.95079">
        <ele>239</ele>
        <time>2013-08-24T12:58:36.000Z</time>
      </trkpt>
      <trkpt lat="50.64495" lon="1.95057">
        <ele>240</ele>
        <time>2013-08-24T12:58:39.000Z</time>
      </trkpt>
      <trkpt lat="50.64498" lon="1.95034">
        <ele>241</ele>
        <time>2013-08-24T12:58:42.000Z</time>
      </trkpt>
      <trkpt lat="50.645" lon="1.9501">
        <ele>241</ele>
        <time>2013-08-24T12:58:45.000Z</time>
      </trkpt>
      <trkpt lat="50.64502" lon="1.94984">
        <ele>239</ele>
        <time>2013-08-24T12:58:48.000Z</time>
      </trkpt>
      <trkpt lat="50.64504" lon="1.94954">
        <ele>238</ele>
        <time>2013-08-24T12:58:51.000Z</time>
      </trkpt>
      <trkpt lat="50.64506" lon="1.94923">
        <ele>238</ele>
        <time>2013-08-24T12:58:54.000Z</time>
      </trkpt>
      <trkpt lat="50.64508" lon="1.9489">
        <ele>237</ele>
        <time>2013-08-24T12:58:57.000Z</time>
      </trkpt>
      <trkpt lat="50.6451" lon="1.9486">
        <ele>236</ele>
        <time>2013-08-24T12:59:00.000Z</time>
      </trkpt>
      <trkpt lat="50.64513" lon="1.94827">
        <ele>236</ele>
        <time>2013-08-24T12:59:03.000Z</time>
      </trkpt>
      <trkpt lat="50.64516" lon="1.94792">
        <ele>236</ele>
        <time>2013-08-24T12:59:06.000Z</time>
      </trkpt>
      <trkpt lat="50.64519" lon="1.9476">
        <ele>236</ele>
        <time>2013-08-24T12:59:09.000Z</time>
      </trkpt>
      <trkpt lat="50.64521" lon="1.94728">
        <ele>234</ele>
        <time>2013-08-24T12:59:12.000Z</time>
      </trkpt>
      <trkpt lat="50.64523" lon="1.94698">
        <ele>233</ele>
        <time>2013-08-24T12:59:15.000Z</time>
      </trkpt>
      <trkpt lat="50.64526" lon="1.94671">
        <ele>233</ele>
        <time>2013-08-24T12:59:18.000Z</time>
      </trkpt>
      <trkpt lat="50.64528" lon="1.9464">
        <ele>233</ele>
        <time>2013-08-24T12:59:21.000Z</time>
      </trkpt>
      <trkpt lat="50.6453" lon="1.94611">
        <ele>233</ele>
        <time>2013-08-24T12:59:24.000Z</time>
      </trkpt>
      <trkpt lat="50.64532" lon="1.94585">
        <ele>232</ele>
        <time>2013-08-24T12:59:27.000Z</time>
      </trkpt>
      <trkpt lat="50.64534" lon="1.94558">
        <ele>232</ele>
        <time>2013-08-24T12:59:30.000Z</time>
      </trkpt>
      <trkpt lat="50.64536" lon="1.94532">
        <ele>232</ele>
        <time>2013-08-24T12:59:33.000Z</time>
      </trkpt>
      <trkpt lat="50.64539" lon="1.94504">
        <ele>232</ele>
        <time>2013-08-24T12:59:36.000Z</time>
      </trkpt>
      <trkpt lat="50.64542" lon="1.94477">
        <ele>230</ele>
        <time>2013-08-24T12:59:39.000Z</time>
      </trkpt>
      <trkpt lat="50.64544" lon="1.94454">
        <ele>229</ele>
        <time>2013-08-24T12:59:42.000Z</time>
      </trkpt>
      <trkpt lat="50.64547" lon="1.9443">
        <ele>228</ele>
        <time>2013-08-24T12:59:45.000Z</time>
      </trkpt>
      <trkpt lat="50.64549" lon="1.94405">
        <ele>228</ele>
        <time>2013-08-24T12:59:48.000Z</time>
      </trkpt>
      <trkpt lat="50.64552" lon="1.94381">
        <ele>229</ele>
        <time>2013-08-24T12:59:51.000Z</time>
      </trkpt>
      <trkpt lat="50.64554" lon="1.94357">
        <ele>230</ele>
        <time>2013-08-24T12:59:54.000Z</time>
      </trkpt>
      <trkpt lat="50.64556" lon="1.94335">
        <ele>231</ele>
        <time>2013-08-24T12:59:57.000Z</time>
      </trkpt>
      <trkpt lat="50.64558" lon="1.94313">
        <ele>232</ele>
        <time>2013-08-24T13:00:00.000Z</time>
      </trkpt>
      <trkpt lat="50.6456" lon="1.9429">
        <ele>232</ele>
        <time>2013-08-24T13:00:03.000Z</time>
      </trkpt>
      <trkpt lat="50.64563" lon="1.94268">
        <ele>232</ele>
        <time>2013-08-24T13:00:06.000Z</time>
      </trkpt>
      <trkpt lat="50.64565" lon="1.94248">
        <ele>231</ele>
        <time>2013-08-24T13:00:09.000Z</time>
      </trkpt>
      <trkpt lat="50.64563" lon="1.94225">
        <ele>231</ele>
        <time>2013-08-24T13:00:12.000Z</time>
      </trkpt>
      <trkpt lat="50.64565" lon="1.94201">
        <ele>231</ele>
        <time>2013-08-24T13:00:15.000Z</time>
      </trkpt>
      <trkpt lat="50.64567" lon="1.9417">
        <ele>230</ele>
        <time>2013-08-24T13:00:18.000Z</time>
      </trkpt>
      <trkpt lat="50.64569" lon="1.94137">
        <ele>229</ele>
        <time>2013-08-24T13:00:21.000Z</time>
      </trkpt>
      <trkpt lat="50.64572" lon="1.94099">
        <ele>228</ele>
        <time>2013-08-24T13:00:24.000Z</time>
      </trkpt>
      <trkpt lat="50.64574" lon="1.9406">
        <ele>226</ele>
        <time>2013-08-24T13:00:27.000Z</time>
      </trkpt>
      <trkpt lat="50.64578" lon="1.9402">
        <ele>225</ele>
        <time>2013-08-24T13:00:30.000Z</time>
      </trkpt>
      <trkpt lat="50.64581" lon="1.9398">
        <ele>226</ele>
        <time>2013-08-24T13:00:33.000Z</time>
      </trkpt>
      <trkpt lat="50.64585" lon="1.93938">
        <ele>225</ele>
        <time>2013-08-24T13:00:36.000Z</time>
      </trkpt>
      <trkpt lat="50.64589" lon="1.939">
        <ele>224</ele>
        <time>2013-08-24T13:00:39.000Z</time>
      </trkpt>
      <trkpt lat="50.64593" lon="1.93863">
        <ele>223</ele>
        <time>2013-08-24T13:00:42.000Z</time>
      </trkpt>
      <trkpt lat="50.64597" lon="1.9383">
        <ele>222</ele>
        <time>2013-08-24T13:00:45.000Z</time>
      </trkpt>
      <trkpt lat="50.646" lon="1.93798">
        <ele>221</ele>
        <time>2013-08-24T13:00:48.000Z</time>
      </trkpt>
      <trkpt lat="50.64603" lon="1.93766">
        <ele>223</ele>
        <time>2013-08-24T13:00:51.000Z</time>
      </trkpt>
      <trkpt lat="50.64606" lon="1.93742">
        <ele>225</ele>
        <time>2013-08-24T13:00:54.000Z</time>
      </trkpt>
      <trkpt lat="50.64608" lon="1.93722">
        <ele>225</ele>
        <time>2013-08-24T13:00:57.000Z</time>
      </trkpt>
      <trkpt lat="50.64612" lon="1.93687">
        <ele>225</ele>
        <time>2013-08-24T13:01:03.000Z</time>
      </trkpt>
      <trkpt lat="50.64613" lon="1.93652">
        <ele>226</ele>
        <time>2013-08-24T13:01:09.000Z</time>
      </trkpt>
      <trkpt lat="50.64616" lon="1.9362">
        <ele>227</ele>
        <time>2013-08-24T13:01:15.000Z</time>
      </trkpt>
      <trkpt lat="50.64618" lon="1.93587">
        <ele>227</ele>
        <time>2013-08-24T13:01:21.000Z</time>
      </trkpt>
      <trkpt lat="50.64622" lon="1.93551">
        <ele>227</ele>
        <time>2013-08-24T13:01:27.000Z</time>
      </trkpt>
      <trkpt lat="50.64625" lon="1.93516">
        <ele>228</ele>
        <time>2013-08-24T13:01:33.000Z</time>
      </trkpt>
      <trkpt lat="50.64628" lon="1.93484">
        <ele>228</ele>
        <time>2013-08-24T13:01:39.000Z</time>
      </trkpt>
      <trkpt lat="50.64632" lon="1.9345">
        <ele>228</ele>
        <time>2013-08-24T13:01:45.000Z</time>
      </trkpt>
      <trkpt lat="50.64634" lon="1.93413">
        <ele>229</ele>
        <time>2013-08-24T13:01:51.000Z</time>
      </trkpt>
      <trkpt lat="50.64637" lon="1.93392">
        <ele>231</ele>
        <time>2013-08-24T13:01:54.000Z</time>
      </trkpt>
      <trkpt lat="50.64639" lon="1.93369">
        <ele>233</ele>
        <time>2013-08-24T13:01:57.000Z</time>
      </trkpt>
      <trkpt lat="50.6464" lon="1.93344">
        <ele>233</ele>
        <time>2013-08-24T13:02:00.000Z</time>
      </trkpt>
      <trkpt lat="50.64642" lon="1.93322">
        <ele>232</ele>
        <time>2013-08-24T13:02:03.000Z</time>
      </trkpt>
      <trkpt lat="50.64644" lon="1.93296">
        <ele>231</ele>
        <time>2013-08-24T13:02:06.000Z</time>
      </trkpt>
      <trkpt lat="50.64646" lon="1.9327">
        <ele>232</ele>
        <time>2013-08-24T13:02:09.000Z</time>
      </trkpt>
      <trkpt lat="50.64648" lon="1.93246">
        <ele>234</ele>
        <time>2013-08-24T13:02:12.000Z</time>
      </trkpt>
      <trkpt lat="50.6465" lon="1.93221">
        <ele>234</ele>
        <time>2013-08-24T13:02:15.000Z</time>
      </trkpt>
      <trkpt lat="50.64651" lon="1.93197">
        <ele>233</ele>
        <time>2013-08-24T13:02:18.000Z</time>
      </trkpt>
      <trkpt lat="50.64653" lon="1.93173">
        <ele>234</ele>
        <time>2013-08-24T13:02:21.000Z</time>
      </trkpt>
      <trkpt lat="50.64655" lon="1.93147">
        <ele>234</ele>
        <time>2013-08-24T13:02:24.000Z</time>
      </trkpt>
      <trkpt lat="50.64656" lon="1.93122">
        <ele>233</ele>
        <time>2013-08-24T13:02:27.000Z</time>
      </trkpt>
      <trkpt lat="50.64658" lon="1.93099">
        <ele>233</ele>
        <time>2013-08-24T13:02:30.000Z</time>
      </trkpt>
      <trkpt lat="50.64659" lon="1.93077">
        <ele>231</ele>
        <time>2013-08-24T13:02:34.000Z</time>
      </trkpt>
      <trkpt lat="50.64661" lon="1.93055">
        <ele>230</ele>
        <time>2013-08-24T13:02:36.000Z</time>
      </trkpt>
      <trkpt lat="50.64666" lon="1.93018">
        <ele>231</ele>
        <time>2013-08-24T13:02:42.000Z</time>
      </trkpt>
      <trkpt lat="50.64669" lon="1.92995">
        <ele>231</ele>
        <time>2013-08-24T13:02:45.000Z</time>
      </trkpt>
      <trkpt lat="50.64671" lon="1.92974">
        <ele>231</ele>
        <time>2013-08-24T13:02:48.000Z</time>
      </trkpt>
      <trkpt lat="50.64673" lon="1.92954">
        <ele>232</ele>
        <time>2013-08-24T13:02:51.000Z</time>
      </trkpt>
      <trkpt lat="50.64676" lon="1.92932">
        <ele>233</ele>
        <time>2013-08-24T13:02:54.000Z</time>
      </trkpt>
      <trkpt lat="50.64678" lon="1.92911">
        <ele>233</ele>
        <time>2013-08-24T13:02:57.000Z</time>
      </trkpt>
      <trkpt lat="50.64679" lon="1.9289">
        <ele>233</ele>
        <time>2013-08-24T13:03:00.000Z</time>
      </trkpt>
      <trkpt lat="50.64682" lon="1.92868">
        <ele>232</ele>
        <time>2013-08-24T13:03:03.000Z</time>
      </trkpt>
      <trkpt lat="50.64685" lon="1.92844">
        <ele>234</ele>
        <time>2013-08-24T13:03:06.000Z</time>
      </trkpt>
      <trkpt lat="50.64688" lon="1.92817">
        <ele>236</ele>
        <time>2013-08-24T13:03:09.000Z</time>
      </trkpt>
      <trkpt lat="50.64691" lon="1.9279">
        <ele>237</ele>
        <time>2013-08-24T13:03:12.000Z</time>
      </trkpt>
      <trkpt lat="50.64693" lon="1.92761">
        <ele>238</ele>
        <time>2013-08-24T13:03:15.000Z</time>
      </trkpt>
      <trkpt lat="50.64696" lon="1.92733">
        <ele>238</ele>
        <time>2013-08-24T13:03:18.000Z</time>
      </trkpt>
      <trkpt lat="50.64699" lon="1.92704">
        <ele>238</ele>
        <time>2013-08-24T13:03:21.000Z</time>
      </trkpt>
      <trkpt lat="50.64701" lon="1.92676">
        <ele>237</ele>
        <time>2013-08-24T13:03:25.000Z</time>
      </trkpt>
      <trkpt lat="50.64704" lon="1.92647">
        <ele>235</ele>
        <time>2013-08-24T13:03:27.000Z</time>
      </trkpt>
      <trkpt lat="50.64706" lon="1.92624">
        <ele>234</ele>
        <time>2013-08-24T13:03:30.000Z</time>
      </trkpt>
      <trkpt lat="50.64708" lon="1.926">
        <ele>232</ele>
        <time>2013-08-24T13:03:33.000Z</time>
      </trkpt>
      <trkpt lat="50.64711" lon="1.92578">
        <ele>231</ele>
        <time>2013-08-24T13:03:36.000Z</time>
      </trkpt>
      <trkpt lat="50.64713" lon="1.92556">
        <ele>231</ele>
        <time>2013-08-24T13:03:39.000Z</time>
      </trkpt>
      <trkpt lat="50.64715" lon="1.92533">
        <ele>231</ele>
        <time>2013-08-24T13:03:42.000Z</time>
      </trkpt>
      <trkpt lat="50.64717" lon="1.9251">
        <ele>232</ele>
        <time>2013-08-24T13:03:45.000Z</time>
      </trkpt>
      <trkpt lat="50.6472" lon="1.92486">
        <ele>232</ele>
        <time>2013-08-24T13:03:48.000Z</time>
      </trkpt>
      <trkpt lat="50.64722" lon="1.92462">
        <ele>233</ele>
        <time>2013-08-24T13:03:51.000Z</time>
      </trkpt>
      <trkpt lat="50.64724" lon="1.92436">
        <ele>233</ele>
        <time>2013-08-24T13:03:54.000Z</time>
      </trkpt>
      <trkpt lat="50.64726" lon="1.92414">
        <ele>233</ele>
        <time>2013-08-24T13:03:57.000Z</time>
      </trkpt>
      <trkpt lat="50.64728" lon="1.92391">
        <ele>234</ele>
        <time>2013-08-24T13:04:00.000Z</time>
      </trkpt>
      <trkpt lat="50.6473" lon="1.92366">
        <ele>234</ele>
        <time>2013-08-24T13:04:03.000Z</time>
      </trkpt>
      <trkpt lat="50.64731" lon="1.92341">
        <ele>234</ele>
        <time>2013-08-24T13:04:13.000Z</time>
      </trkpt>
      <trkpt lat="50.64733" lon="1.92316">
        <ele>234</ele>
        <time>2013-08-24T13:04:13.000Z</time>
      </trkpt>
      <trkpt lat="50.64735" lon="1.92291">
        <ele>234</ele>
        <time>2013-08-24T13:04:13.000Z</time>
      </trkpt>
      <trkpt lat="50.64737" lon="1.92269">
        <ele>234</ele>
        <time>2013-08-24T13:04:15.000Z</time>
      </trkpt>
      <trkpt lat="50.64738" lon="1.92247">
        <ele>234</ele>
        <time>2013-08-24T13:04:18.000Z</time>
      </trkpt>
      <trkpt lat="50.6474" lon="1.92224">
        <ele>235</ele>
        <time>2013-08-24T13:04:21.000Z</time>
      </trkpt>
      <trkpt lat="50.64741" lon="1.92202">
        <ele>235</ele>
        <time>2013-08-24T13:04:24.000Z</time>
      </trkpt>
      <trkpt lat="50.64746" lon="1.9218">
        <ele>235</ele>
        <time>2013-08-24T13:04:27.000Z</time>
      </trkpt>
      <trkpt lat="50.64747" lon="1.92159">
        <ele>236</ele>
        <time>2013-08-24T13:04:30.000Z</time>
      </trkpt>
      <trkpt lat="50.64749" lon="1.92137">
        <ele>237</ele>
        <time>2013-08-24T13:04:33.000Z</time>
      </trkpt>
      <trkpt lat="50.64751" lon="1.92112">
        <ele>237</ele>
        <time>2013-08-24T13:04:43.000Z</time>
      </trkpt>
      <trkpt lat="50.64753" lon="1.92087">
        <ele>236</ele>
        <time>2013-08-24T13:04:43.000Z</time>
      </trkpt>
      <trkpt lat="50.64754" lon="1.92064">
        <ele>235</ele>
        <time>2013-08-24T13:04:43.000Z</time>
      </trkpt>
      <trkpt lat="50.64756" lon="1.9204">
        <ele>234</ele>
        <time>2013-08-24T13:04:45.000Z</time>
      </trkpt>
      <trkpt lat="50.64759" lon="1.92016">
        <ele>234</ele>
        <time>2013-08-24T13:04:48.000Z</time>
      </trkpt>
      <trkpt lat="50.64762" lon="1.91993">
        <ele>233</ele>
        <time>2013-08-24T13:04:51.000Z</time>
      </trkpt>
      <trkpt lat="50.64764" lon="1.91969">
        <ele>233</ele>
        <time>2013-08-24T13:04:54.000Z</time>
      </trkpt>
      <trkpt lat="50.64767" lon="1.91946">
        <ele>233</ele>
        <time>2013-08-24T13:04:57.000Z</time>
      </trkpt>
      <trkpt lat="50.6477" lon="1.91921">
        <ele>234</ele>
        <time>2013-08-24T13:05:00.000Z</time>
      </trkpt>
      <trkpt lat="50.64773" lon="1.91898">
        <ele>235</ele>
        <time>2013-08-24T13:05:03.000Z</time>
      </trkpt>
      <trkpt lat="50.64775" lon="1.91877">
        <ele>237</ele>
        <time>2013-08-24T13:05:13.000Z</time>
      </trkpt>
      <trkpt lat="50.64778" lon="1.91855">
        <ele>237</ele>
        <time>2013-08-24T13:05:13.000Z</time>
      </trkpt>
      <trkpt lat="50.6478" lon="1.91835">
        <ele>237</ele>
        <time>2013-08-24T13:05:13.000Z</time>
      </trkpt>
      <trkpt lat="50.64782" lon="1.91815">
        <ele>237</ele>
        <time>2013-08-24T13:05:15.000Z</time>
      </trkpt>
      <trkpt lat="50.64783" lon="1.91774">
        <ele>236</ele>
        <time>2013-08-24T13:05:22.000Z</time>
      </trkpt>
      <trkpt lat="50.64785" lon="1.91751">
        <ele>236</ele>
        <time>2013-08-24T13:05:24.000Z</time>
      </trkpt>
      <trkpt lat="50.64787" lon="1.91729">
        <ele>236</ele>
        <time>2013-08-24T13:05:27.000Z</time>
      </trkpt>
      <trkpt lat="50.64789" lon="1.91708">
        <ele>236</ele>
        <time>2013-08-24T13:05:30.000Z</time>
      </trkpt>
      <trkpt lat="50.6479" lon="1.91685">
        <ele>237</ele>
        <time>2013-08-24T13:05:33.000Z</time>
      </trkpt>
      <trkpt lat="50.64792" lon="1.91664">
        <ele>237</ele>
        <time>2013-08-24T13:05:36.000Z</time>
      </trkpt>
      <trkpt lat="50.64794" lon="1.91642">
        <ele>237</ele>
        <time>2013-08-24T13:05:40.000Z</time>
      </trkpt>
      <trkpt lat="50.64796" lon="1.91621">
        <ele>238</ele>
        <time>2013-08-24T13:05:42.000Z</time>
      </trkpt>
      <trkpt lat="50.64798" lon="1.916">
        <ele>238</ele>
        <time>2013-08-24T13:05:45.000Z</time>
      </trkpt>
      <trkpt lat="50.64799" lon="1.9158">
        <ele>238</ele>
        <time>2013-08-24T13:05:48.000Z</time>
      </trkpt>
      <trkpt lat="50.64804" lon="1.91539">
        <ele>241</ele>
        <time>2013-08-24T13:05:54.000Z</time>
      </trkpt>
      <trkpt lat="50.64807" lon="1.91517">
        <ele>242</ele>
        <time>2013-08-24T13:05:57.000Z</time>
      </trkpt>
      <trkpt lat="50.64809" lon="1.91495">
        <ele>242</ele>
        <time>2013-08-24T13:06:00.000Z</time>
      </trkpt>
      <trkpt lat="50.64812" lon="1.91474">
        <ele>242</ele>
        <time>2013-08-24T13:06:03.000Z</time>
      </trkpt>
      <trkpt lat="50.64816" lon="1.91452">
        <ele>241</ele>
        <time>2013-08-24T13:06:06.000Z</time>
      </trkpt>
      <trkpt lat="50.64819" lon="1.91428">
        <ele>240</ele>
        <time>2013-08-24T13:06:09.000Z</time>
      </trkpt>
      <trkpt lat="50.64822" lon="1.91405">
        <ele>241</ele>
        <time>2013-08-24T13:06:12.000Z</time>
      </trkpt>
      <trkpt lat="50.64825" lon="1.9138">
        <ele>242</ele>
        <time>2013-08-24T13:06:15.000Z</time>
      </trkpt>
      <trkpt lat="50.64828" lon="1.91353">
        <ele>243</ele>
        <time>2013-08-24T13:06:18.000Z</time>
      </trkpt>
      <trkpt lat="50.64832" lon="1.91323">
        <ele>243</ele>
        <time>2013-08-24T13:06:21.000Z</time>
      </trkpt>
      <trkpt lat="50.64835" lon="1.91288">
        <ele>241</ele>
        <time>2013-08-24T13:06:24.000Z</time>
      </trkpt>
      <trkpt lat="50.6484" lon="1.91252">
        <ele>239</ele>
        <time>2013-08-24T13:06:27.000Z</time>
      </trkpt>
      <trkpt lat="50.64846" lon="1.91214">
        <ele>236</ele>
        <time>2013-08-24T13:06:30.000Z</time>
      </trkpt>
      <trkpt lat="50.64851" lon="1.91173">
        <ele>234</ele>
        <time>2013-08-24T13:06:33.000Z</time>
      </trkpt>
      <trkpt lat="50.64856" lon="1.91131">
        <ele>232</ele>
        <time>2013-08-24T13:06:36.000Z</time>
      </trkpt>
      <trkpt lat="50.64862" lon="1.91088">
        <ele>230</ele>
        <time>2013-08-24T13:06:39.000Z</time>
      </trkpt>
      <trkpt lat="50.64867" lon="1.91041">
        <ele>228</ele>
        <time>2013-08-24T13:06:42.000Z</time>
      </trkpt>
      <trkpt lat="50.64872" lon="1.90994">
        <ele>227</ele>
        <time>2013-08-24T13:06:45.000Z</time>
      </trkpt>
      <trkpt lat="50.64877" lon="1.90942">
        <ele>225</ele>
        <time>2013-08-24T13:06:48.000Z</time>
      </trkpt>
      <trkpt lat="50.64883" lon="1.90889">
        <ele>223</ele>
        <time>2013-08-24T13:06:51.000Z</time>
      </trkpt>
      <trkpt lat="50.64889" lon="1.90835">
        <ele>220</ele>
        <time>2013-08-24T13:06:54.000Z</time>
      </trkpt>
      <trkpt lat="50.64895" lon="1.90774">
        <ele>217</ele>
        <time>2013-08-24T13:06:57.000Z</time>
      </trkpt>
      <trkpt lat="50.64902" lon="1.90712">
        <ele>214</ele>
        <time>2013-08-24T13:07:00.000Z</time>
      </trkpt>
      <trkpt lat="50.6491" lon="1.90653">
        <ele>212</ele>
        <time>2013-08-24T13:07:03.000Z</time>
      </trkpt>
      <trkpt lat="50.64917" lon="1.90605">
        <ele>210</ele>
        <time>2013-08-24T13:07:12.000Z</time>
      </trkpt>
      <trkpt lat="50.64922" lon="1.90561">
        <ele>209</ele>
        <time>2013-08-24T13:07:12.000Z</time>
      </trkpt>
      <trkpt lat="50.64927" lon="1.90522">
        <ele>209</ele>
        <time>2013-08-24T13:07:13.000Z</time>
      </trkpt>
      <trkpt lat="50.64931" lon="1.90487">
        <ele>208</ele>
        <time>2013-08-24T13:07:16.000Z</time>
      </trkpt>
      <trkpt lat="50.64934" lon="1.90457">
        <ele>208</ele>
        <time>2013-08-24T13:07:18.000Z</time>
      </trkpt>
      <trkpt lat="50.64937" lon="1.90432">
        <ele>208</ele>
        <time>2013-08-24T13:07:21.000Z</time>
      </trkpt>
      <trkpt lat="50.6494" lon="1.90409">
        <ele>208</ele>
        <time>2013-08-24T13:07:24.000Z</time>
      </trkpt>
      <trkpt lat="50.64942" lon="1.90386">
        <ele>209</ele>
        <time>2013-08-24T13:07:27.000Z</time>
      </trkpt>
      <trkpt lat="50.64946" lon="1.90349">
        <ele>210</ele>
        <time>2013-08-24T13:07:33.000Z</time>
      </trkpt>
      <trkpt lat="50.6495" lon="1.90316">
        <ele>210</ele>
        <time>2013-08-24T13:07:39.000Z</time>
      </trkpt>
      <trkpt lat="50.64951" lon="1.90281">
        <ele>209</ele>
        <time>2013-08-24T13:07:45.000Z</time>
      </trkpt>
      <trkpt lat="50.64953" lon="1.90247">
        <ele>208</ele>
        <time>2013-08-24T13:07:51.000Z</time>
      </trkpt>
      <trkpt lat="50.64957" lon="1.90227">
        <ele>209</ele>
        <time>2013-08-24T13:07:54.000Z</time>
      </trkpt>
      <trkpt lat="50.6497" lon="1.90111">
        <ele>214</ele>
        <time>2013-08-24T13:08:15.000Z</time>
      </trkpt>
      <trkpt lat="50.64978" lon="1.90051">
        <ele>216</ele>
        <time>2013-08-24T13:08:39.000Z</time>
      </trkpt>
      <trkpt lat="50.64983" lon="1.90015">
        <ele>216</ele>
        <time>2013-08-24T13:08:42.000Z</time>
      </trkpt>
      <trkpt lat="50.64986" lon="1.8999">
        <ele>217</ele>
        <time>2013-08-24T13:08:45.000Z</time>
      </trkpt>
      <trkpt lat="50.64989" lon="1.89971">
        <ele>217</ele>
        <time>2013-08-24T13:08:48.000Z</time>
      </trkpt>
      <trkpt lat="50.64991" lon="1.89954">
        <ele>217</ele>
        <time>2013-08-24T13:08:51.000Z</time>
      </trkpt>
      <trkpt lat="50.64996" lon="1.89924">
        <ele>218</ele>
        <time>2013-08-24T13:08:54.000Z</time>
      </trkpt>
      <trkpt lat="50.65001" lon="1.89899">
        <ele>218</ele>
        <time>2013-08-24T13:09:00.000Z</time>
      </trkpt>
      <trkpt lat="50.65005" lon="1.89873">
        <ele>219</ele>
        <time>2013-08-24T13:09:06.000Z</time>
      </trkpt>
      <trkpt lat="50.65008" lon="1.89847">
        <ele>220</ele>
        <time>2013-08-24T13:09:12.000Z</time>
      </trkpt>
      <trkpt lat="50.65015" lon="1.89807">
        <ele>221</ele>
        <time>2013-08-24T13:09:21.000Z</time>
      </trkpt>
      <trkpt lat="50.65022" lon="1.89769">
        <ele>223</ele>
        <time>2013-08-24T13:09:30.000Z</time>
      </trkpt>
      <trkpt lat="50.65025" lon="1.8974">
        <ele>224</ele>
        <time>2013-08-24T13:09:36.000Z</time>
      </trkpt>
      <trkpt lat="50.65029" lon="1.89704">
        <ele>229</ele>
        <time>2013-08-24T13:09:42.000Z</time>
      </trkpt>
      <trkpt lat="50.65032" lon="1.89683">
        <ele>231</ele>
        <time>2013-08-24T13:09:45.000Z</time>
      </trkpt>
      <trkpt lat="50.65034" lon="1.89663">
        <ele>231</ele>
        <time>2013-08-24T13:09:48.000Z</time>
      </trkpt>
      <trkpt lat="50.65037" lon="1.89641">
        <ele>231</ele>
        <time>2013-08-24T13:09:51.000Z</time>
      </trkpt>
      <trkpt lat="50.6504" lon="1.89619">
        <ele>231</ele>
        <time>2013-08-24T13:09:54.000Z</time>
      </trkpt>
      <trkpt lat="50.65046" lon="1.89579">
        <ele>232</ele>
        <time>2013-08-24T13:10:00.000Z</time>
      </trkpt>
      <trkpt lat="50.6505" lon="1.89557">
        <ele>231</ele>
        <time>2013-08-24T13:10:03.000Z</time>
      </trkpt>
      <trkpt lat="50.65053" lon="1.89536">
        <ele>231</ele>
        <time>2013-08-24T13:10:06.000Z</time>
      </trkpt>
      <trkpt lat="50.65056" lon="1.89516">
        <ele>230</ele>
        <time>2013-08-24T13:10:09.000Z</time>
      </trkpt>
      <trkpt lat="50.65059" lon="1.89496">
        <ele>229</ele>
        <time>2013-08-24T13:10:12.000Z</time>
      </trkpt>
      <trkpt lat="50.65058" lon="1.89474">
        <ele>229</ele>
        <time>2013-08-24T13:10:15.000Z</time>
      </trkpt>
      <trkpt lat="50.65061" lon="1.89453">
        <ele>229</ele>
        <time>2013-08-24T13:10:18.000Z</time>
      </trkpt>
      <trkpt lat="50.65063" lon="1.89432">
        <ele>229</ele>
        <time>2013-08-24T13:10:21.000Z</time>
      </trkpt>
      <trkpt lat="50.65066" lon="1.89411">
        <ele>229</ele>
        <time>2013-08-24T13:10:24.000Z</time>
      </trkpt>
      <trkpt lat="50.65069" lon="1.89391">
        <ele>229</ele>
        <time>2013-08-24T13:10:27.000Z</time>
      </trkpt>
      <trkpt lat="50.65072" lon="1.89371">
        <ele>229</ele>
        <time>2013-08-24T13:10:30.000Z</time>
      </trkpt>
      <trkpt lat="50.65075" lon="1.8935">
        <ele>229</ele>
        <time>2013-08-24T13:10:33.000Z</time>
      </trkpt>
      <trkpt lat="50.65078" lon="1.8933">
        <ele>228</ele>
        <time>2013-08-24T13:10:36.000Z</time>
      </trkpt>
      <trkpt lat="50.65084" lon="1.89298">
        <ele>229</ele>
        <time>2013-08-24T13:10:42.000Z</time>
      </trkpt>
      <trkpt lat="50.6509" lon="1.89265">
        <ele>230</ele>
        <time>2013-08-24T13:10:48.000Z</time>
      </trkpt>
      <trkpt lat="50.65094" lon="1.8924">
        <ele>231</ele>
        <time>2013-08-24T13:10:54.000Z</time>
      </trkpt>
      <trkpt lat="50.65099" lon="1.89215">
        <ele>231</ele>
        <time>2013-08-24T13:11:00.000Z</time>
      </trkpt>
      <trkpt lat="50.65106" lon="1.89193">
        <ele>232</ele>
        <time>2013-08-24T13:11:06.000Z</time>
      </trkpt>
      <trkpt lat="50.65111" lon="1.89168">
        <ele>233</ele>
        <time>2013-08-24T13:11:12.000Z</time>
      </trkpt>
      <trkpt lat="50.65115" lon="1.89141">
        <ele>235</ele>
        <time>2013-08-24T13:11:18.000Z</time>
      </trkpt>
      <trkpt lat="50.65121" lon="1.89117">
        <ele>237</ele>
        <time>2013-08-24T13:11:24.000Z</time>
      </trkpt>
      <trkpt lat="50.65126" lon="1.89091">
        <ele>238</ele>
        <time>2013-08-24T13:11:30.000Z</time>
      </trkpt>
      <trkpt lat="50.65132" lon="1.89064">
        <ele>240</ele>
        <time>2013-08-24T13:11:36.000Z</time>
      </trkpt>
      <trkpt lat="50.65137" lon="1.89027">
        <ele>241</ele>
        <time>2013-08-24T13:11:42.000Z</time>
      </trkpt>
      <trkpt lat="50.65143" lon="1.88992">
        <ele>242</ele>
        <time>2013-08-24T13:11:48.000Z</time>
      </trkpt>
      <trkpt lat="50.6515" lon="1.88958">
        <ele>244</ele>
        <time>2013-08-24T13:11:54.000Z</time>
      </trkpt>
      <trkpt lat="50.65158" lon="1.88923">
        <ele>245</ele>
        <time>2013-08-24T13:12:00.000Z</time>
      </trkpt>
      <trkpt lat="50.65162" lon="1.88903">
        <ele>244</ele>
        <time>2013-08-24T13:12:03.000Z</time>
      </trkpt>
      <trkpt lat="50.65166" lon="1.88884">
        <ele>244</ele>
        <time>2013-08-24T13:12:06.000Z</time>
      </trkpt>
      <trkpt lat="50.65169" lon="1.88864">
        <ele>246</ele>
        <time>2013-08-24T13:12:10.000Z</time>
      </trkpt>
      <trkpt lat="50.65175" lon="1.8883">
        <ele>247</ele>
        <time>2013-08-24T13:12:15.000Z</time>
      </trkpt>
      <trkpt lat="50.65182" lon="1.88793">
        <ele>248</ele>
        <time>2013-08-24T13:12:21.000Z</time>
      </trkpt>
      <trkpt lat="50.65185" lon="1.88773">
        <ele>248</ele>
        <time>2013-08-24T13:12:24.000Z</time>
      </trkpt>
      <trkpt lat="50.65189" lon="1.88753">
        <ele>247</ele>
        <time>2013-08-24T13:12:27.000Z</time>
      </trkpt>
      <trkpt lat="50.65192" lon="1.88732">
        <ele>247</ele>
        <time>2013-08-24T13:12:30.000Z</time>
      </trkpt>
      <trkpt lat="50.65195" lon="1.88712">
        <ele>247</ele>
        <time>2013-08-24T13:12:33.000Z</time>
      </trkpt>
      <trkpt lat="50.65199" lon="1.88691">
        <ele>246</ele>
        <time>2013-08-24T13:12:36.000Z</time>
      </trkpt>
      <trkpt lat="50.65202" lon="1.8867">
        <ele>245</ele>
        <time>2013-08-24T13:12:39.000Z</time>
      </trkpt>
      <trkpt lat="50.65206" lon="1.88648">
        <ele>245</ele>
        <time>2013-08-24T13:12:42.000Z</time>
      </trkpt>
      <trkpt lat="50.65209" lon="1.88626">
        <ele>246</ele>
        <time>2013-08-24T13:12:45.000Z</time>
      </trkpt>
      <trkpt lat="50.65213" lon="1.88606">
        <ele>246</ele>
        <time>2013-08-24T13:12:48.000Z</time>
      </trkpt>
      <trkpt lat="50.65216" lon="1.88584">
        <ele>245</ele>
        <time>2013-08-24T13:12:51.000Z</time>
      </trkpt>
      <trkpt lat="50.6522" lon="1.88564">
        <ele>245</ele>
        <time>2013-08-24T13:12:54.000Z</time>
      </trkpt>
      <trkpt lat="50.65227" lon="1.88521">
        <ele>246</ele>
        <time>2013-08-24T13:13:00.000Z</time>
      </trkpt>
      <trkpt lat="50.6523" lon="1.88498">
        <ele>246</ele>
        <time>2013-08-24T13:13:03.000Z</time>
      </trkpt>
      <trkpt lat="50.65234" lon="1.88476">
        <ele>246</ele>
        <time>2013-08-24T13:13:06.000Z</time>
      </trkpt>
      <trkpt lat="50.65236" lon="1.88454">
        <ele>246</ele>
        <time>2013-08-24T13:13:09.000Z</time>
      </trkpt>
      <trkpt lat="50.65239" lon="1.88431">
        <ele>245</ele>
        <time>2013-08-24T13:13:12.000Z</time>
      </trkpt>
      <trkpt lat="50.65242" lon="1.88407">
        <ele>244</ele>
        <time>2013-08-24T13:13:15.000Z</time>
      </trkpt>
      <trkpt lat="50.65247" lon="1.88386">
        <ele>245</ele>
        <time>2013-08-24T13:13:18.000Z</time>
      </trkpt>
      <trkpt lat="50.65252" lon="1.88348">
        <ele>249</ele>
        <time>2013-08-24T13:13:24.000Z</time>
      </trkpt>
      <trkpt lat="50.65256" lon="1.88312">
        <ele>249</ele>
        <time>2013-08-24T13:13:30.000Z</time>
      </trkpt>
      <trkpt lat="50.65259" lon="1.8829">
        <ele>249</ele>
        <time>2013-08-24T13:13:33.000Z</time>
      </trkpt>
      <trkpt lat="50.65262" lon="1.88265">
        <ele>249</ele>
        <time>2013-08-24T13:13:36.000Z</time>
      </trkpt>
      <trkpt lat="50.65266" lon="1.88242">
        <ele>249</ele>
        <time>2013-08-24T13:13:39.000Z</time>
      </trkpt>
      <trkpt lat="50.65269" lon="1.8822">
        <ele>248</ele>
        <time>2013-08-24T13:13:42.000Z</time>
      </trkpt>
      <trkpt lat="50.65273" lon="1.88199">
        <ele>247</ele>
        <time>2013-08-24T13:13:45.000Z</time>
      </trkpt>
      <trkpt lat="50.65277" lon="1.88176">
        <ele>246</ele>
        <time>2013-08-24T13:13:48.000Z</time>
      </trkpt>
      <trkpt lat="50.65279" lon="1.88153">
        <ele>246</ele>
        <time>2013-08-24T13:13:51.000Z</time>
      </trkpt>
      <trkpt lat="50.65282" lon="1.88133">
        <ele>245</ele>
        <time>2013-08-24T13:13:54.000Z</time>
      </trkpt>
      <trkpt lat="50.65284" lon="1.88112">
        <ele>245</ele>
        <time>2013-08-24T13:13:57.000Z</time>
      </trkpt>
      <trkpt lat="50.65286" lon="1.88089">
        <ele>246</ele>
        <time>2013-08-24T13:14:00.000Z</time>
      </trkpt>
      <trkpt lat="50.65289" lon="1.88064">
        <ele>247</ele>
        <time>2013-08-24T13:14:03.000Z</time>
      </trkpt>
      <trkpt lat="50.65291" lon="1.88041">
        <ele>247</ele>
        <time>2013-08-24T13:14:06.000Z</time>
      </trkpt>
      <trkpt lat="50.65294" lon="1.8802">
        <ele>247</ele>
        <time>2013-08-24T13:14:12.000Z</time>
      </trkpt>
      <trkpt lat="50.65296" lon="1.87999">
        <ele>247</ele>
        <time>2013-08-24T13:14:15.000Z</time>
      </trkpt>
      <trkpt lat="50.65298" lon="1.87978">
        <ele>247</ele>
        <time>2013-08-24T13:14:18.000Z</time>
      </trkpt>
      <trkpt lat="50.653" lon="1.87959">
        <ele>246</ele>
        <time>2013-08-24T13:14:21.000Z</time>
      </trkpt>
      <trkpt lat="50.65302" lon="1.8794">
        <ele>245</ele>
        <time>2013-08-24T13:14:24.000Z</time>
      </trkpt>
      <trkpt lat="50.65306" lon="1.879">
        <ele>246</ele>
        <time>2013-08-24T13:14:27.000Z</time>
      </trkpt>
      <trkpt lat="50.65306" lon="1.87878">
        <ele>245</ele>
        <time>2013-08-24T13:14:30.000Z</time>
      </trkpt>
      <trkpt lat="50.65309" lon="1.87853">
        <ele>243</ele>
        <time>2013-08-24T13:14:33.000Z</time>
      </trkpt>
      <trkpt lat="50.65312" lon="1.87828">
        <ele>243</ele>
        <time>2013-08-24T13:14:37.000Z</time>
      </trkpt>
      <trkpt lat="50.65315" lon="1.87801">
        <ele>243</ele>
        <time>2013-08-24T13:14:39.000Z</time>
      </trkpt>
      <trkpt lat="50.65319" lon="1.87773">
        <ele>243</ele>
        <time>2013-08-24T13:14:42.000Z</time>
      </trkpt>
      <trkpt lat="50.65322" lon="1.87746">
        <ele>244</ele>
        <time>2013-08-24T13:14:45.000Z</time>
      </trkpt>
      <trkpt lat="50.65325" lon="1.8772">
        <ele>245</ele>
        <time>2013-08-24T13:14:48.000Z</time>
      </trkpt>
      <trkpt lat="50.65328" lon="1.87692">
        <ele>245</ele>
        <time>2013-08-24T13:14:51.000Z</time>
      </trkpt>
      <trkpt lat="50.65331" lon="1.87665">
        <ele>245</ele>
        <time>2013-08-24T13:14:54.000Z</time>
      </trkpt>
      <trkpt lat="50.65334" lon="1.87639">
        <ele>246</ele>
        <time>2013-08-24T13:14:57.000Z</time>
      </trkpt>
      <trkpt lat="50.65337" lon="1.87611">
        <ele>244</ele>
        <time>2013-08-24T13:15:00.000Z</time>
      </trkpt>
      <trkpt lat="50.65339" lon="1.87583">
        <ele>243</ele>
        <time>2013-08-24T13:15:03.000Z</time>
      </trkpt>
      <trkpt lat="50.65342" lon="1.87555">
        <ele>243</ele>
        <time>2013-08-24T13:15:06.000Z</time>
      </trkpt>
      <trkpt lat="50.65345" lon="1.8753">
        <ele>242</ele>
        <time>2013-08-24T13:15:09.000Z</time>
      </trkpt>
      <trkpt lat="50.65348" lon="1.87504">
        <ele>242</ele>
        <time>2013-08-24T13:15:12.000Z</time>
      </trkpt>
      <trkpt lat="50.6535" lon="1.87478">
        <ele>243</ele>
        <time>2013-08-24T13:15:15.000Z</time>
      </trkpt>
      <trkpt lat="50.65353" lon="1.87453">
        <ele>244</ele>
        <time>2013-08-24T13:15:18.000Z</time>
      </trkpt>
      <trkpt lat="50.65355" lon="1.87429">
        <ele>245</ele>
        <time>2013-08-24T13:15:21.000Z</time>
      </trkpt>
      <trkpt lat="50.65357" lon="1.87406">
        <ele>245</ele>
        <time>2013-08-24T13:15:24.000Z</time>
      </trkpt>
      <trkpt lat="50.65359" lon="1.87383">
        <ele>245</ele>
        <time>2013-08-24T13:15:27.000Z</time>
      </trkpt>
      <trkpt lat="50.65362" lon="1.8736">
        <ele>245</ele>
        <time>2013-08-24T13:15:30.000Z</time>
      </trkpt>
      <trkpt lat="50.65364" lon="1.87338">
        <ele>244</ele>
        <time>2013-08-24T13:15:33.000Z</time>
      </trkpt>
      <trkpt lat="50.65366" lon="1.87316">
        <ele>244</ele>
        <time>2013-08-24T13:15:37.000Z</time>
      </trkpt>
      <trkpt lat="50.65369" lon="1.87291">
        <ele>244</ele>
        <time>2013-08-24T13:15:39.000Z</time>
      </trkpt>
      <trkpt lat="50.65371" lon="1.87268">
        <ele>244</ele>
        <time>2013-08-24T13:15:42.000Z</time>
      </trkpt>
      <trkpt lat="50.65373" lon="1.87247">
        <ele>245</ele>
        <time>2013-08-24T13:15:45.000Z</time>
      </trkpt>
      <trkpt lat="50.65375" lon="1.87225">
        <ele>245</ele>
        <time>2013-08-24T13:15:48.000Z</time>
      </trkpt>
      <trkpt lat="50.65379" lon="1.87193">
        <ele>245</ele>
        <time>2013-08-24T13:15:54.000Z</time>
      </trkpt>
      <trkpt lat="50.65382" lon="1.87155">
        <ele>245</ele>
        <time>2013-08-24T13:16:00.000Z</time>
      </trkpt>
      <trkpt lat="50.65384" lon="1.87135">
        <ele>245</ele>
        <time>2013-08-24T13:16:03.000Z</time>
      </trkpt>
      <trkpt lat="50.65388" lon="1.87096">
        <ele>247</ele>
        <time>2013-08-24T13:16:09.000Z</time>
      </trkpt>
      <trkpt lat="50.65394" lon="1.87078">
        <ele>247</ele>
        <time>2013-08-24T13:16:12.000Z</time>
      </trkpt>
      <trkpt lat="50.65398" lon="1.8704">
        <ele>247</ele>
        <time>2013-08-24T13:16:18.000Z</time>
      </trkpt>
      <trkpt lat="50.65401" lon="1.8702">
        <ele>247</ele>
        <time>2013-08-24T13:16:21.000Z</time>
      </trkpt>
      <trkpt lat="50.65404" lon="1.86989">
        <ele>247</ele>
        <time>2013-08-24T13:16:27.000Z</time>
      </trkpt>
      <trkpt lat="50.65408" lon="1.86958">
        <ele>247</ele>
        <time>2013-08-24T13:16:33.000Z</time>
      </trkpt>
      <trkpt lat="50.65411" lon="1.86924">
        <ele>247</ele>
        <time>2013-08-24T13:16:39.000Z</time>
      </trkpt>
      <trkpt lat="50.65415" lon="1.86885">
        <ele>248</ele>
        <time>2013-08-24T13:16:45.000Z</time>
      </trkpt>
      <trkpt lat="50.65416" lon="1.86865">
        <ele>248</ele>
        <time>2013-08-24T13:16:48.000Z</time>
      </trkpt>
      <trkpt lat="50.65421" lon="1.86827">
        <ele>247</ele>
        <time>2013-08-24T13:16:54.000Z</time>
      </trkpt>
      <trkpt lat="50.65424" lon="1.86801">
        <ele>246</ele>
        <time>2013-08-24T13:16:57.000Z</time>
      </trkpt>
      <trkpt lat="50.65425" lon="1.86775">
        <ele>246</ele>
        <time>2013-08-24T13:17:00.000Z</time>
      </trkpt>
      <trkpt lat="50.65427" lon="1.86749">
        <ele>247</ele>
        <time>2013-08-24T13:17:03.000Z</time>
      </trkpt>
      <trkpt lat="50.6543" lon="1.86724">
        <ele>247</ele>
        <time>2013-08-24T13:17:06.000Z</time>
      </trkpt>
      <trkpt lat="50.65432" lon="1.867">
        <ele>247</ele>
        <time>2013-08-24T13:17:09.000Z</time>
      </trkpt>
      <trkpt lat="50.65434" lon="1.86678">
        <ele>247</ele>
        <time>2013-08-24T13:17:12.000Z</time>
      </trkpt>
      <trkpt lat="50.65436" lon="1.86653">
        <ele>247</ele>
        <time>2013-08-24T13:17:15.000Z</time>
      </trkpt>
      <trkpt lat="50.65438" lon="1.86629">
        <ele>246</ele>
        <time>2013-08-24T13:17:19.000Z</time>
      </trkpt>
      <trkpt lat="50.6544" lon="1.86604">
        <ele>246</ele>
        <time>2013-08-24T13:17:21.000Z</time>
      </trkpt>
      <trkpt lat="50.65443" lon="1.86579">
        <ele>246</ele>
        <time>2013-08-24T13:17:24.000Z</time>
      </trkpt>
      <trkpt lat="50.65446" lon="1.86557">
        <ele>246</ele>
        <time>2013-08-24T13:17:27.000Z</time>
      </trkpt>
      <trkpt lat="50.65448" lon="1.86535">
        <ele>246</ele>
        <time>2013-08-24T13:17:30.000Z</time>
      </trkpt>
      <trkpt lat="50.65453" lon="1.86499">
        <ele>246</ele>
        <time>2013-08-24T13:17:36.000Z</time>
      </trkpt>
      <trkpt lat="50.65456" lon="1.86463">
        <ele>246</ele>
        <time>2013-08-24T13:17:42.000Z</time>
      </trkpt>
      <trkpt lat="50.65459" lon="1.86443">
        <ele>246</ele>
        <time>2013-08-24T13:17:45.000Z</time>
      </trkpt>
      <trkpt lat="50.65465" lon="1.86402">
        <ele>248</ele>
        <time>2013-08-24T13:17:51.000Z</time>
      </trkpt>
      <trkpt lat="50.65467" lon="1.8638">
        <ele>248</ele>
        <time>2013-08-24T13:17:54.000Z</time>
      </trkpt>
      <trkpt lat="50.65469" lon="1.86359">
        <ele>248</ele>
        <time>2013-08-24T13:17:57.000Z</time>
      </trkpt>
      <trkpt lat="50.65471" lon="1.86337">
        <ele>247</ele>
        <time>2013-08-24T13:18:00.000Z</time>
      </trkpt>
      <trkpt lat="50.65474" lon="1.86314">
        <ele>247</ele>
        <time>2013-08-24T13:18:03.000Z</time>
      </trkpt>
      <trkpt lat="50.65476" lon="1.86292">
        <ele>247</ele>
        <time>2013-08-24T13:18:06.000Z</time>
      </trkpt>
      <trkpt lat="50.6548" lon="1.86254">
        <ele>250</ele>
        <time>2013-08-24T13:18:12.000Z</time>
      </trkpt>
      <trkpt lat="50.65483" lon="1.86232">
        <ele>250</ele>
        <time>2013-08-24T13:18:15.000Z</time>
      </trkpt>
      <trkpt lat="50.65486" lon="1.86209">
        <ele>249</ele>
        <time>2013-08-24T13:18:18.000Z</time>
      </trkpt>
      <trkpt lat="50.65488" lon="1.86189">
        <ele>249</ele>
        <time>2013-08-24T13:18:21.000Z</time>
      </trkpt>
      <trkpt lat="50.6549" lon="1.86168">
        <ele>252</ele>
        <time>2013-08-24T13:18:24.000Z</time>
      </trkpt>
      <trkpt lat="50.65493" lon="1.86147">
        <ele>252</ele>
        <time>2013-08-24T13:18:27.000Z</time>
      </trkpt>
      <trkpt lat="50.65495" lon="1.86124">
        <ele>251</ele>
        <time>2013-08-24T13:18:30.000Z</time>
      </trkpt>
      <trkpt lat="50.65498" lon="1.86101">
        <ele>250</ele>
        <time>2013-08-24T13:18:33.000Z</time>
      </trkpt>
      <trkpt lat="50.655" lon="1.86078">
        <ele>249</ele>
        <time>2013-08-24T13:18:37.000Z</time>
      </trkpt>
      <trkpt lat="50.65503" lon="1.86054">
        <ele>249</ele>
        <time>2013-08-24T13:18:39.000Z</time>
      </trkpt>
      <trkpt lat="50.65505" lon="1.86032">
        <ele>251</ele>
        <time>2013-08-24T13:18:42.000Z</time>
      </trkpt>
      <trkpt lat="50.65508" lon="1.86009">
        <ele>252</ele>
        <time>2013-08-24T13:18:45.000Z</time>
      </trkpt>
      <trkpt lat="50.65511" lon="1.85983">
        <ele>250</ele>
        <time>2013-08-24T13:18:48.000Z</time>
      </trkpt>
      <trkpt lat="50.65514" lon="1.85959">
        <ele>249</ele>
        <time>2013-08-24T13:18:51.000Z</time>
      </trkpt>
      <trkpt lat="50.65517" lon="1.85935">
        <ele>248</ele>
        <time>2013-08-24T13:18:54.000Z</time>
      </trkpt>
      <trkpt lat="50.6552" lon="1.85907">
        <ele>247</ele>
        <time>2013-08-24T13:18:57.000Z</time>
      </trkpt>
      <trkpt lat="50.65522" lon="1.8588">
        <ele>246</ele>
        <time>2013-08-24T13:19:00.000Z</time>
      </trkpt>
      <trkpt lat="50.65525" lon="1.85855">
        <ele>246</ele>
        <time>2013-08-24T13:19:03.000Z</time>
      </trkpt>
      <trkpt lat="50.65528" lon="1.85831">
        <ele>246</ele>
        <time>2013-08-24T13:19:06.000Z</time>
      </trkpt>
      <trkpt lat="50.65531" lon="1.85806">
        <ele>246</ele>
        <time>2013-08-24T13:19:09.000Z</time>
      </trkpt>
      <trkpt lat="50.65533" lon="1.85783">
        <ele>247</ele>
        <time>2013-08-24T13:19:12.000Z</time>
      </trkpt>
      <trkpt lat="50.65536" lon="1.85759">
        <ele>249</ele>
        <time>2013-08-24T13:19:15.000Z</time>
      </trkpt>
      <trkpt lat="50.6554" lon="1.85734">
        <ele>251</ele>
        <time>2013-08-24T13:19:18.000Z</time>
      </trkpt>
      <trkpt lat="50.65543" lon="1.85708">
        <ele>253</ele>
        <time>2013-08-24T13:19:21.000Z</time>
      </trkpt>
      <trkpt lat="50.65547" lon="1.85683">
        <ele>253</ele>
        <time>2013-08-24T13:19:24.000Z</time>
      </trkpt>
      <trkpt lat="50.6555" lon="1.8566">
        <ele>255</ele>
        <time>2013-08-24T13:19:27.000Z</time>
      </trkpt>
      <trkpt lat="50.65553" lon="1.85638">
        <ele>259</ele>
        <time>2013-08-24T13:19:30.000Z</time>
      </trkpt>
      <trkpt lat="50.65556" lon="1.85618">
        <ele>261</ele>
        <time>2013-08-24T13:19:33.000Z</time>
      </trkpt>
      <trkpt lat="50.65559" lon="1.85597">
        <ele>261</ele>
        <time>2013-08-24T13:19:36.000Z</time>
      </trkpt>
      <trkpt lat="50.65562" lon="1.85575">
        <ele>261</ele>
        <time>2013-08-24T13:19:39.000Z</time>
      </trkpt>
      <trkpt lat="50.65565" lon="1.85548">
        <ele>259</ele>
        <time>2013-08-24T13:19:42.000Z</time>
      </trkpt>
      <trkpt lat="50.65568" lon="1.85525">
        <ele>254</ele>
        <time>2013-08-24T13:19:45.000Z</time>
      </trkpt>
      <trkpt lat="50.65572" lon="1.85496">
        <ele>252</ele>
        <time>2013-08-24T13:19:51.000Z</time>
      </trkpt>
      <trkpt lat="50.65592" lon="1.85481">
        <ele>250</ele>
        <time>2013-08-24T13:24:36.000Z</time>
      </trkpt>
      <trkpt lat="50.65604" lon="1.85466">
        <ele>250</ele>
        <time>2013-08-24T13:24:39.000Z</time>
      </trkpt>
      <trkpt lat="50.65612" lon="1.8545">
        <ele>250</ele>
        <time>2013-08-24T13:24:42.000Z</time>
      </trkpt>
      <trkpt lat="50.65617" lon="1.85433">
        <ele>250</ele>
        <time>2013-08-24T13:24:45.000Z</time>
      </trkpt>
      <trkpt lat="50.6562" lon="1.85416">
        <ele>250</ele>
        <time>2013-08-24T13:24:48.000Z</time>
      </trkpt>
      <trkpt lat="50.65625" lon="1.85379">
        <ele>249</ele>
        <time>2013-08-24T13:24:51.000Z</time>
      </trkpt>
      <trkpt lat="50.65625" lon="1.85357">
        <ele>247</ele>
        <time>2013-08-24T13:24:54.000Z</time>
      </trkpt>
      <trkpt lat="50.65627" lon="1.85329">
        <ele>247</ele>
        <time>2013-08-24T13:24:57.000Z</time>
      </trkpt>
      <trkpt lat="50.65629" lon="1.85295">
        <ele>244</ele>
        <time>2013-08-24T13:25:00.000Z</time>
      </trkpt>
      <trkpt lat="50.65631" lon="1.8526">
        <ele>241</ele>
        <time>2013-08-24T13:25:03.000Z</time>
      </trkpt>
      <trkpt lat="50.65633" lon="1.85225">
        <ele>239</ele>
        <time>2013-08-24T13:25:06.000Z</time>
      </trkpt>
      <trkpt lat="50.65633" lon="1.85187">
        <ele>238</ele>
        <time>2013-08-24T13:25:09.000Z</time>
      </trkpt>
      <trkpt lat="50.65632" lon="1.85149">
        <ele>237</ele>
        <time>2013-08-24T13:25:12.000Z</time>
      </trkpt>
      <trkpt lat="50.65631" lon="1.85102">
        <ele>236</ele>
        <time>2013-08-24T13:25:15.000Z</time>
      </trkpt>
      <trkpt lat="50.65628" lon="1.85049">
        <ele>233</ele>
        <time>2013-08-24T13:25:18.000Z</time>
      </trkpt>
      <trkpt lat="50.65625" lon="1.8499">
        <ele>231</ele>
        <time>2013-08-24T13:25:21.000Z</time>
      </trkpt>
      <trkpt lat="50.65625" lon="1.84921">
        <ele>230</ele>
        <time>2013-08-24T13:25:24.000Z</time>
      </trkpt>
      <trkpt lat="50.65624" lon="1.84859">
        <ele>226</ele>
        <time>2013-08-24T13:25:27.000Z</time>
      </trkpt>
      <trkpt lat="50.65625" lon="1.848">
        <ele>222</ele>
        <time>2013-08-24T13:25:30.000Z</time>
      </trkpt>
      <trkpt lat="50.65629" lon="1.8474">
        <ele>219</ele>
        <time>2013-08-24T13:25:33.000Z</time>
      </trkpt>
      <trkpt lat="50.65634" lon="1.8468">
        <ele>215</ele>
        <time>2013-08-24T13:25:36.000Z</time>
      </trkpt>
      <trkpt lat="50.65638" lon="1.84621">
        <ele>210</ele>
        <time>2013-08-24T13:25:41.000Z</time>
      </trkpt>
      <trkpt lat="50.65643" lon="1.8456">
        <ele>207</ele>
        <time>2013-08-24T13:25:43.000Z</time>
      </trkpt>
      <trkpt lat="50.65646" lon="1.84501">
        <ele>204</ele>
        <time>2013-08-24T13:25:45.000Z</time>
      </trkpt>
      <trkpt lat="50.65649" lon="1.84443">
        <ele>200</ele>
        <time>2013-08-24T13:25:48.000Z</time>
      </trkpt>
      <trkpt lat="50.65651" lon="1.84388">
        <ele>198</ele>
        <time>2013-08-24T13:25:51.000Z</time>
      </trkpt>
      <trkpt lat="50.65654" lon="1.84332">
        <ele>195</ele>
        <time>2013-08-24T13:25:54.000Z</time>
      </trkpt>
      <trkpt lat="50.65659" lon="1.84276">
        <ele>193</ele>
        <time>2013-08-24T13:25:57.000Z</time>
      </trkpt>
      <trkpt lat="50.65663" lon="1.84222">
        <ele>192</ele>
        <time>2013-08-24T13:26:00.000Z</time>
      </trkpt>
      <trkpt lat="50.6567" lon="1.8417">
        <ele>189</ele>
        <time>2013-08-24T13:26:03.000Z</time>
      </trkpt>
      <trkpt lat="50.65675" lon="1.84117">
        <ele>188</ele>
        <time>2013-08-24T13:26:06.000Z</time>
      </trkpt>
      <trkpt lat="50.6568" lon="1.84068">
        <ele>185</ele>
        <time>2013-08-24T13:26:09.000Z</time>
      </trkpt>
      <trkpt lat="50.65684" lon="1.84019">
        <ele>183</ele>
        <time>2013-08-24T13:26:12.000Z</time>
      </trkpt>
      <trkpt lat="50.65687" lon="1.83972">
        <ele>181</ele>
        <time>2013-08-24T13:26:15.000Z</time>
      </trkpt>
      <trkpt lat="50.65691" lon="1.83928">
        <ele>178</ele>
        <time>2013-08-24T13:26:18.000Z</time>
      </trkpt>
      <trkpt lat="50.65696" lon="1.83889">
        <ele>175</ele>
        <time>2013-08-24T13:26:21.000Z</time>
      </trkpt>
      <trkpt lat="50.65702" lon="1.83855">
        <ele>171</ele>
        <time>2013-08-24T13:26:24.000Z</time>
      </trkpt>
      <trkpt lat="50.6571" lon="1.83825">
        <ele>167</ele>
        <time>2013-08-24T13:26:28.000Z</time>
      </trkpt>
      <trkpt lat="50.65715" lon="1.83801">
        <ele>166</ele>
        <time>2013-08-24T13:26:30.000Z</time>
      </trkpt>
      <trkpt lat="50.65726" lon="1.83778">
        <ele>164</ele>
        <time>2013-08-24T13:26:34.000Z</time>
      </trkpt>
      <trkpt lat="50.65739" lon="1.83747">
        <ele>161</ele>
        <time>2013-08-24T13:26:36.000Z</time>
      </trkpt>
      <trkpt lat="50.65756" lon="1.8371">
        <ele>158</ele>
        <time>2013-08-24T13:26:39.000Z</time>
      </trkpt>
      <trkpt lat="50.65775" lon="1.83673">
        <ele>156</ele>
        <time>2013-08-24T13:26:42.000Z</time>
      </trkpt>
      <trkpt lat="50.65795" lon="1.83643">
        <ele>154</ele>
        <time>2013-08-24T13:26:45.000Z</time>
      </trkpt>
      <trkpt lat="50.6582" lon="1.83621">
        <ele>153</ele>
        <time>2013-08-24T13:26:48.000Z</time>
      </trkpt>
      <trkpt lat="50.65845" lon="1.83606">
        <ele>152</ele>
        <time>2013-08-24T13:26:51.000Z</time>
      </trkpt>
      <trkpt lat="50.65873" lon="1.83596">
        <ele>153</ele>
        <time>2013-08-24T13:26:54.000Z</time>
      </trkpt>
      <trkpt lat="50.65899" lon="1.83587">
        <ele>153</ele>
        <time>2013-08-24T13:26:57.000Z</time>
      </trkpt>
      <trkpt lat="50.65926" lon="1.83581">
        <ele>153</ele>
        <time>2013-08-24T13:27:00.000Z</time>
      </trkpt>
      <trkpt lat="50.65953" lon="1.83572">
        <ele>152</ele>
        <time>2013-08-24T13:27:03.000Z</time>
      </trkpt>
      <trkpt lat="50.65977" lon="1.83562">
        <ele>153</ele>
        <time>2013-08-24T13:27:06.000Z</time>
      </trkpt>
      <trkpt lat="50.65999" lon="1.83549">
        <ele>154</ele>
        <time>2013-08-24T13:27:09.000Z</time>
      </trkpt>
      <trkpt lat="50.66019" lon="1.83536">
        <ele>155</ele>
        <time>2013-08-24T13:27:12.000Z</time>
      </trkpt>
      <trkpt lat="50.66037" lon="1.83522">
        <ele>157</ele>
        <time>2013-08-24T13:27:15.000Z</time>
      </trkpt>
      <trkpt lat="50.66053" lon="1.83509">
        <ele>160</ele>
        <time>2013-08-24T13:27:18.000Z</time>
      </trkpt>
      <trkpt lat="50.66068" lon="1.83496">
        <ele>162</ele>
        <time>2013-08-24T13:27:21.000Z</time>
      </trkpt>
      <trkpt lat="50.66084" lon="1.83483">
        <ele>165</ele>
        <time>2013-08-24T13:27:24.000Z</time>
      </trkpt>
      <trkpt lat="50.66101" lon="1.83472">
        <ele>168</ele>
        <time>2013-08-24T13:27:27.000Z</time>
      </trkpt>
      <trkpt lat="50.66121" lon="1.83462">
        <ele>168</ele>
        <time>2013-08-24T13:27:30.000Z</time>
      </trkpt>
      <trkpt lat="50.66143" lon="1.83453">
        <ele>166</ele>
        <time>2013-08-24T13:27:33.000Z</time>
      </trkpt>
      <trkpt lat="50.66166" lon="1.83443">
        <ele>164</ele>
        <time>2013-08-24T13:27:37.000Z</time>
      </trkpt>
      <trkpt lat="50.66188" lon="1.83433">
        <ele>163</ele>
        <time>2013-08-24T13:27:39.000Z</time>
      </trkpt>
      <trkpt lat="50.6621" lon="1.83424">
        <ele>163</ele>
        <time>2013-08-24T13:27:42.000Z</time>
      </trkpt>
      <trkpt lat="50.66233" lon="1.83415">
        <ele>163</ele>
        <time>2013-08-24T13:27:45.000Z</time>
      </trkpt>
      <trkpt lat="50.66256" lon="1.83408">
        <ele>161</ele>
        <time>2013-08-24T13:27:48.000Z</time>
      </trkpt>
      <trkpt lat="50.66275" lon="1.83403">
        <ele>160</ele>
        <time>2013-08-24T13:27:51.000Z</time>
      </trkpt>
      <trkpt lat="50.66291" lon="1.83398">
        <ele>161</ele>
        <time>2013-08-24T13:27:54.000Z</time>
      </trkpt>
      <trkpt lat="50.66305" lon="1.83393">
        <ele>159</ele>
        <time>2013-08-24T13:27:57.000Z</time>
      </trkpt>
      <trkpt lat="50.66312" lon="1.83425">
        <ele>155</ele>
        <time>2013-08-24T13:28:09.000Z</time>
      </trkpt>
      <trkpt lat="50.66326" lon="1.83425">
        <ele>154</ele>
        <time>2013-08-24T13:28:13.000Z</time>
      </trkpt>
      <trkpt lat="50.66342" lon="1.83438">
        <ele>152</ele>
        <time>2013-08-24T13:28:15.000Z</time>
      </trkpt>
      <trkpt lat="50.66359" lon="1.83457">
        <ele>151</ele>
        <time>2013-08-24T13:28:19.000Z</time>
      </trkpt>
      <trkpt lat="50.66376" lon="1.83479">
        <ele>150</ele>
        <time>2013-08-24T13:28:21.000Z</time>
      </trkpt>
      <trkpt lat="50.66392" lon="1.83498">
        <ele>148</ele>
        <time>2013-08-24T13:28:24.000Z</time>
      </trkpt>
      <trkpt lat="50.6641" lon="1.83512">
        <ele>148</ele>
        <time>2013-08-24T13:28:27.000Z</time>
      </trkpt>
      <trkpt lat="50.66431" lon="1.83525">
        <ele>149</ele>
        <time>2013-08-24T13:28:30.000Z</time>
      </trkpt>
      <trkpt lat="50.66453" lon="1.83535">
        <ele>151</ele>
        <time>2013-08-24T13:28:33.000Z</time>
      </trkpt>
      <trkpt lat="50.66477" lon="1.83545">
        <ele>151</ele>
        <time>2013-08-24T13:28:36.000Z</time>
      </trkpt>
      <trkpt lat="50.66502" lon="1.83554">
        <ele>149</ele>
        <time>2013-08-24T13:28:39.000Z</time>
      </trkpt>
      <trkpt lat="50.66527" lon="1.83565">
        <ele>147</ele>
        <time>2013-08-24T13:28:42.000Z</time>
      </trkpt>
      <trkpt lat="50.66552" lon="1.83584">
        <ele>145</ele>
        <time>2013-08-24T13:28:45.000Z</time>
      </trkpt>
      <trkpt lat="50.66574" lon="1.83604">
        <ele>143</ele>
        <time>2013-08-24T13:28:48.000Z</time>
      </trkpt>
      <trkpt lat="50.66593" lon="1.83624">
        <ele>142</ele>
        <time>2013-08-24T13:28:51.000Z</time>
      </trkpt>
      <trkpt lat="50.66609" lon="1.83649">
        <ele>141</ele>
        <time>2013-08-24T13:28:54.000Z</time>
      </trkpt>
      <trkpt lat="50.66627" lon="1.83671">
        <ele>142</ele>
        <time>2013-08-24T13:28:57.000Z</time>
      </trkpt>
      <trkpt lat="50.66646" lon="1.83676">
        <ele>143</ele>
        <time>2013-08-24T13:29:00.000Z</time>
      </trkpt>
      <trkpt lat="50.66663" lon="1.83692">
        <ele>141</ele>
        <time>2013-08-24T13:29:07.000Z</time>
      </trkpt>
      <trkpt lat="50.66675" lon="1.837">
        <ele>139</ele>
        <time>2013-08-24T13:29:12.000Z</time>
      </trkpt>
      <trkpt lat="50.66689" lon="1.8371">
        <ele>143</ele>
        <time>2013-08-24T13:29:24.000Z</time>
      </trkpt>
      <trkpt lat="50.66741" lon="1.83572">
        <ele>144</ele>
        <time>2013-08-24T13:29:33.000Z</time>
      </trkpt>
      <trkpt lat="50.66755" lon="1.83577">
        <ele>145</ele>
        <time>2013-08-24T13:29:42.000Z</time>
      </trkpt>
      <trkpt lat="50.66769" lon="1.8359">
        <ele>146</ele>
        <time>2013-08-24T13:29:48.000Z</time>
      </trkpt>
      <trkpt lat="50.66769" lon="1.83555">
        <ele>146</ele>
        <time>2013-08-24T13:30:00.000Z</time>
      </trkpt>
      <trkpt lat="50.66759" lon="1.8353">
        <ele>146</ele>
        <time>2013-08-24T13:30:03.000Z</time>
      </trkpt>
      <trkpt lat="50.66753" lon="1.83504">
        <ele>147</ele>
        <time>2013-08-24T13:30:06.000Z</time>
      </trkpt>
      <trkpt lat="50.66745" lon="1.83482">
        <ele>147</ele>
        <time>2013-08-24T13:30:13.000Z</time>
      </trkpt>
      <trkpt lat="50.66739" lon="1.83464">
        <ele>147</ele>
        <time>2013-08-24T13:30:18.000Z</time>
      </trkpt>
      <trkpt lat="50.66768" lon="1.83436">
        <ele>147</ele>
        <time>2013-08-24T13:30:21.000Z</time>
      </trkpt>
      <trkpt lat="50.66782" lon="1.83414">
        <ele>147</ele>
        <time>2013-08-24T13:30:27.000Z</time>
      </trkpt>
      <trkpt lat="50.66794" lon="1.834">
        <ele>149</ele>
        <time>2013-08-24T13:30:33.000Z</time>
      </trkpt>
      <trkpt lat="50.66807" lon="1.83382">
        <ele>150</ele>
        <time>2013-08-24T13:30:39.000Z</time>
      </trkpt>
      <trkpt lat="50.66822" lon="1.83362">
        <ele>151</ele>
        <time>2013-08-24T13:30:45.000Z</time>
      </trkpt>
      <trkpt lat="50.6683" lon="1.8334">
        <ele>152</ele>
        <time>2013-08-24T13:30:48.000Z</time>
      </trkpt>
      <trkpt lat="50.66842" lon="1.83321">
        <ele>152</ele>
        <time>2013-08-24T13:30:55.000Z</time>
      </trkpt>
      <trkpt lat="50.66834" lon="1.83305">
        <ele>151</ele>
        <time>2013-08-24T13:31:00.000Z</time>
      </trkpt>
      <trkpt lat="50.66832" lon="1.83277">
        <ele>150</ele>
        <time>2013-08-24T13:31:09.000Z</time>
      </trkpt>
      <trkpt lat="50.66845" lon="1.83213">
        <ele>141</ele>
        <time>2013-08-24T15:02:08.000Z</time>
      </trkpt>
      <trkpt lat="50.66832" lon="1.83277">
        <ele>150</ele>
        <time>2013-08-24T15:02:23.000Z</time>
      </trkpt>
      <trkpt lat="50.66823" lon="1.83269">
        <ele>140</ele>
        <time>2013-08-24T15:10:30.000Z</time>
      </trkpt>
      <trkpt lat="50.6682" lon="1.8326">
        <ele>140</ele>
        <time>2013-08-24T15:10:36.000Z</time>
      </trkpt>
      <trkpt lat="50.66821" lon="1.83246">
        <ele>141</ele>
        <time>2013-08-24T15:10:42.000Z</time>
      </trkpt>
      <trkpt lat="50.66822" lon="1.83234">
        <ele>141</ele>
        <time>2013-08-24T15:10:45.000Z</time>
      </trkpt>
      <trkpt lat="50.66824" lon="1.83222">
        <ele>141</ele>
        <time>2013-08-24T15:10:49.000Z</time>
      </trkpt>
      <trkpt lat="50.66825" lon="1.83209">
        <ele>141</ele>
        <time>2013-08-24T15:10:51.000Z</time>
      </trkpt>
      <trkpt lat="50.66827" lon="1.83199">
        <ele>141</ele>
        <time>2013-08-24T15:10:54.000Z</time>
      </trkpt>
      <trkpt lat="50.66827" lon="1.83165">
        <ele>142</ele>
        <time>2013-08-24T15:11:18.000Z</time>
      </trkpt>
      <trkpt lat="50.66819" lon="1.83142">
        <ele>142</ele>
        <time>2013-08-24T15:11:24.000Z</time>
      </trkpt>
      <trkpt lat="50.66811" lon="1.83118">
        <ele>142</ele>
        <time>2013-08-24T15:11:31.000Z</time>
      </trkpt>
      <trkpt lat="50.66814" lon="1.83104">
        <ele>135</ele>
        <time>2013-08-24T15:14:00.000Z</time>
      </trkpt>
      <trkpt lat="50.66821" lon="1.83095">
        <ele>135</ele>
        <time>2013-08-24T15:14:03.000Z</time>
      </trkpt>
      <trkpt lat="50.6683" lon="1.83088">
        <ele>134</ele>
        <time>2013-08-24T15:14:06.000Z</time>
      </trkpt>
      <trkpt lat="50.6684" lon="1.83083">
        <ele>133</ele>
        <time>2013-08-24T15:14:09.000Z</time>
      </trkpt>
      <trkpt lat="50.66852" lon="1.83079">
        <ele>133</ele>
        <time>2013-08-24T15:14:12.000Z</time>
      </trkpt>
      <trkpt lat="50.66877" lon="1.83075">
        <ele>131</ele>
        <time>2013-08-24T15:14:15.000Z</time>
      </trkpt>
      <trkpt lat="50.66897" lon="1.83078">
        <ele>129</ele>
        <time>2013-08-24T15:14:21.000Z</time>
      </trkpt>
      <trkpt lat="50.66909" lon="1.8307">
        <ele>128</ele>
        <time>2013-08-24T15:14:55.000Z</time>
      </trkpt>
      <trkpt lat="50.66911" lon="1.83047">
        <ele>128</ele>
        <time>2013-08-24T15:14:57.000Z</time>
      </trkpt>
      <trkpt lat="50.66915" lon="1.83019">
        <ele>129</ele>
        <time>2013-08-24T15:15:00.000Z</time>
      </trkpt>
      <trkpt lat="50.66924" lon="1.82995">
        <ele>129</ele>
        <time>2013-08-24T15:15:04.000Z</time>
      </trkpt>
      <trkpt lat="50.66935" lon="1.82978">
        <ele>127</ele>
        <time>2013-08-24T15:15:06.000Z</time>
      </trkpt>
      <trkpt lat="50.66946" lon="1.82959">
        <ele>124</ele>
        <time>2013-08-24T15:15:09.000Z</time>
      </trkpt>
      <trkpt lat="50.66954" lon="1.8294">
        <ele>121</ele>
        <time>2013-08-24T15:15:12.000Z</time>
      </trkpt>
      <trkpt lat="50.66958" lon="1.82919">
        <ele>121</ele>
        <time>2013-08-24T15:15:15.000Z</time>
      </trkpt>
      <trkpt lat="50.66965" lon="1.82896">
        <ele>121</ele>
        <time>2013-08-24T15:15:21.000Z</time>
      </trkpt>
      <trkpt lat="50.6697" lon="1.82877">
        <ele>121</ele>
        <time>2013-08-24T15:15:27.000Z</time>
      </trkpt>
      <trkpt lat="50.66977" lon="1.82857">
        <ele>122</ele>
        <time>2013-08-24T15:15:36.000Z</time>
      </trkpt>
      <trkpt lat="50.66982" lon="1.82837">
        <ele>123</ele>
        <time>2013-08-24T15:15:42.000Z</time>
      </trkpt>
      <trkpt lat="50.66973" lon="1.82818">
        <ele>124</ele>
        <time>2013-08-24T15:15:45.000Z</time>
      </trkpt>
      <trkpt lat="50.66991" lon="1.8281">
        <ele>125</ele>
        <time>2013-08-24T15:15:51.000Z</time>
      </trkpt>
      <trkpt lat="50.67008" lon="1.82801">
        <ele>126</ele>
        <time>2013-08-24T15:15:57.000Z</time>
      </trkpt>
      <trkpt lat="50.67029" lon="1.82792">
        <ele>127</ele>
        <time>2013-08-24T15:16:03.000Z</time>
      </trkpt>
      <trkpt lat="50.67046" lon="1.82771">
        <ele>129</ele>
        <time>2013-08-24T15:16:09.000Z</time>
      </trkpt>
      <trkpt lat="50.67066" lon="1.82748">
        <ele>130</ele>
        <time>2013-08-24T15:16:15.000Z</time>
      </trkpt>
      <trkpt lat="50.67086" lon="1.82725">
        <ele>130</ele>
        <time>2013-08-24T15:16:21.000Z</time>
      </trkpt>
      <trkpt lat="50.67096" lon="1.82712">
        <ele>129</ele>
        <time>2013-08-24T15:16:24.000Z</time>
      </trkpt>
      <trkpt lat="50.67112" lon="1.8269">
        <ele>132</ele>
        <time>2013-08-24T15:16:31.000Z</time>
      </trkpt>
      <trkpt lat="50.67123" lon="1.82676">
        <ele>133</ele>
        <time>2013-08-24T15:16:34.000Z</time>
      </trkpt>
      <trkpt lat="50.67135" lon="1.82661">
        <ele>135</ele>
        <time>2013-08-24T15:16:36.000Z</time>
      </trkpt>
      <trkpt lat="50.67148" lon="1.82644">
        <ele>135</ele>
        <time>2013-08-24T15:16:39.000Z</time>
      </trkpt>
      <trkpt lat="50.67163" lon="1.82624">
        <ele>133</ele>
        <time>2013-08-24T15:16:42.000Z</time>
      </trkpt>
      <trkpt lat="50.67181" lon="1.82603">
        <ele>132</ele>
        <time>2013-08-24T15:16:45.000Z</time>
      </trkpt>
      <trkpt lat="50.672" lon="1.82577">
        <ele>131</ele>
        <time>2013-08-24T15:16:48.000Z</time>
      </trkpt>
      <trkpt lat="50.67222" lon="1.8255">
        <ele>128</ele>
        <time>2013-08-24T15:16:51.000Z</time>
      </trkpt>
      <trkpt lat="50.67244" lon="1.82523">
        <ele>126</ele>
        <time>2013-08-24T15:16:54.000Z</time>
      </trkpt>
      <trkpt lat="50.67265" lon="1.82499">
        <ele>124</ele>
        <time>2013-08-24T15:16:57.000Z</time>
      </trkpt>
      <trkpt lat="50.67281" lon="1.8248">
        <ele>122</ele>
        <time>2013-08-24T15:17:01.000Z</time>
      </trkpt>
      <trkpt lat="50.67294" lon="1.82466">
        <ele>122</ele>
        <time>2013-08-24T15:17:03.000Z</time>
      </trkpt>
      <trkpt lat="50.67313" lon="1.82444">
        <ele>124</ele>
        <time>2013-08-24T15:17:09.000Z</time>
      </trkpt>
      <trkpt lat="50.67336" lon="1.8242">
        <ele>127</ele>
        <time>2013-08-24T15:17:15.000Z</time>
      </trkpt>
      <trkpt lat="50.67346" lon="1.82405">
        <ele>125</ele>
        <time>2013-08-24T15:17:19.000Z</time>
      </trkpt>
      <trkpt lat="50.67357" lon="1.82385">
        <ele>126</ele>
        <time>2013-08-24T15:17:21.000Z</time>
      </trkpt>
      <trkpt lat="50.67368" lon="1.82362">
        <ele>127</ele>
        <time>2013-08-24T15:17:24.000Z</time>
      </trkpt>
      <trkpt lat="50.6738" lon="1.82336">
        <ele>128</ele>
        <time>2013-08-24T15:17:27.000Z</time>
      </trkpt>
      <trkpt lat="50.6739" lon="1.82307">
        <ele>128</ele>
        <time>2013-08-24T15:17:30.000Z</time>
      </trkpt>
      <trkpt lat="50.67399" lon="1.82286">
        <ele>127</ele>
        <time>2013-08-24T15:17:33.000Z</time>
      </trkpt>
      <trkpt lat="50.67406" lon="1.82267">
        <ele>127</ele>
        <time>2013-08-24T15:17:39.000Z</time>
      </trkpt>
      <trkpt lat="50.67402" lon="1.82246">
        <ele>126</ele>
        <time>2013-08-24T15:17:42.000Z</time>
      </trkpt>
      <trkpt lat="50.67398" lon="1.82216">
        <ele>126</ele>
        <time>2013-08-24T15:17:49.000Z</time>
      </trkpt>
      <trkpt lat="50.67397" lon="1.82195">
        <ele>124</ele>
        <time>2013-08-24T15:17:51.000Z</time>
      </trkpt>
      <trkpt lat="50.67397" lon="1.82158">
        <ele>123</ele>
        <time>2013-08-24T15:17:57.000Z</time>
      </trkpt>
      <trkpt lat="50.67402" lon="1.8214">
        <ele>123</ele>
        <time>2013-08-24T15:18:00.000Z</time>
      </trkpt>
      <trkpt lat="50.67406" lon="1.82121">
        <ele>123</ele>
        <time>2013-08-24T15:18:03.000Z</time>
      </trkpt>
      <trkpt lat="50.67414" lon="1.82102">
        <ele>124</ele>
        <time>2013-08-24T15:18:06.000Z</time>
      </trkpt>
      <trkpt lat="50.67426" lon="1.82082">
        <ele>124</ele>
        <time>2013-08-24T15:18:09.000Z</time>
      </trkpt>
      <trkpt lat="50.67442" lon="1.8206">
        <ele>124</ele>
        <time>2013-08-24T15:18:12.000Z</time>
      </trkpt>
      <trkpt lat="50.67458" lon="1.82034">
        <ele>123</ele>
        <time>2013-08-24T15:18:15.000Z</time>
      </trkpt>
      <trkpt lat="50.67478" lon="1.82005">
        <ele>123</ele>
        <time>2013-08-24T15:18:18.000Z</time>
      </trkpt>
      <trkpt lat="50.675" lon="1.81975">
        <ele>121</ele>
        <time>2013-08-24T15:18:21.000Z</time>
      </trkpt>
      <trkpt lat="50.67524" lon="1.8194">
        <ele>119</ele>
        <time>2013-08-24T15:18:24.000Z</time>
      </trkpt>
      <trkpt lat="50.6755" lon="1.81901">
        <ele>115</ele>
        <time>2013-08-24T15:18:27.000Z</time>
      </trkpt>
      <trkpt lat="50.67576" lon="1.81861">
        <ele>111</ele>
        <time>2013-08-24T15:18:30.000Z</time>
      </trkpt>
      <trkpt lat="50.67601" lon="1.81827">
        <ele>108</ele>
        <time>2013-08-24T15:18:33.000Z</time>
      </trkpt>
      <trkpt lat="50.67624" lon="1.81796">
        <ele>107</ele>
        <time>2013-08-24T15:18:36.000Z</time>
      </trkpt>
      <trkpt lat="50.67647" lon="1.81767">
        <ele>106</ele>
        <time>2013-08-24T15:18:39.000Z</time>
      </trkpt>
      <trkpt lat="50.67668" lon="1.81738">
        <ele>107</ele>
        <time>2013-08-24T15:18:42.000Z</time>
      </trkpt>
      <trkpt lat="50.67689" lon="1.81708">
        <ele>109</ele>
        <time>2013-08-24T15:18:45.000Z</time>
      </trkpt>
      <trkpt lat="50.67708" lon="1.81672">
        <ele>107</ele>
        <time>2013-08-24T15:18:48.000Z</time>
      </trkpt>
      <trkpt lat="50.67728" lon="1.8164">
        <ele>107</ele>
        <time>2013-08-24T15:18:51.000Z</time>
      </trkpt>
      <trkpt lat="50.67748" lon="1.81609">
        <ele>107</ele>
        <time>2013-08-24T15:18:54.000Z</time>
      </trkpt>
      <trkpt lat="50.67767" lon="1.81581">
        <ele>106</ele>
        <time>2013-08-24T15:18:57.000Z</time>
      </trkpt>
      <trkpt lat="50.67785" lon="1.81556">
        <ele>106</ele>
        <time>2013-08-24T15:19:00.000Z</time>
      </trkpt>
      <trkpt lat="50.67801" lon="1.8153">
        <ele>106</ele>
        <time>2013-08-24T15:19:03.000Z</time>
      </trkpt>
      <trkpt lat="50.67814" lon="1.81504">
        <ele>107</ele>
        <time>2013-08-24T15:19:06.000Z</time>
      </trkpt>
      <trkpt lat="50.67826" lon="1.81478">
        <ele>109</ele>
        <time>2013-08-24T15:19:09.000Z</time>
      </trkpt>
      <trkpt lat="50.67838" lon="1.81448">
        <ele>109</ele>
        <time>2013-08-24T15:19:12.000Z</time>
      </trkpt>
      <trkpt lat="50.67849" lon="1.81418">
        <ele>109</ele>
        <time>2013-08-24T15:19:15.000Z</time>
      </trkpt>
      <trkpt lat="50.6786" lon="1.81386">
        <ele>108</ele>
        <time>2013-08-24T15:19:18.000Z</time>
      </trkpt>
      <trkpt lat="50.67871" lon="1.81353">
        <ele>107</ele>
        <time>2013-08-24T15:19:21.000Z</time>
      </trkpt>
      <trkpt lat="50.67883" lon="1.81317">
        <ele>106</ele>
        <time>2013-08-24T15:19:24.000Z</time>
      </trkpt>
      <trkpt lat="50.67897" lon="1.81276">
        <ele>103</ele>
        <time>2013-08-24T15:19:27.000Z</time>
      </trkpt>
      <trkpt lat="50.6791" lon="1.81233">
        <ele>101</ele>
        <time>2013-08-24T15:19:30.000Z</time>
      </trkpt>
      <trkpt lat="50.6792" lon="1.81188">
        <ele>101</ele>
        <time>2013-08-24T15:19:33.000Z</time>
      </trkpt>
      <trkpt lat="50.67928" lon="1.81157">
        <ele>102</ele>
        <time>2013-08-24T15:19:36.000Z</time>
      </trkpt>
      <trkpt lat="50.67935" lon="1.81129">
        <ele>103</ele>
        <time>2013-08-24T15:19:39.000Z</time>
      </trkpt>
      <trkpt lat="50.67942" lon="1.81101">
        <ele>102</ele>
        <time>2013-08-24T15:19:42.000Z</time>
      </trkpt>
      <trkpt lat="50.67948" lon="1.81072">
        <ele>101</ele>
        <time>2013-08-24T15:19:45.000Z</time>
      </trkpt>
      <trkpt lat="50.67953" lon="1.81044">
        <ele>100</ele>
        <time>2013-08-24T15:19:48.000Z</time>
      </trkpt>
      <trkpt lat="50.6796" lon="1.81013">
        <ele>99</ele>
        <time>2013-08-24T15:19:51.000Z</time>
      </trkpt>
      <trkpt lat="50.67966" lon="1.80983">
        <ele>99</ele>
        <time>2013-08-24T15:19:54.000Z</time>
      </trkpt>
      <trkpt lat="50.67973" lon="1.80953">
        <ele>99</ele>
        <time>2013-08-24T15:19:57.000Z</time>
      </trkpt>
      <trkpt lat="50.67979" lon="1.80925">
        <ele>100</ele>
        <time>2013-08-24T15:20:00.000Z</time>
      </trkpt>
      <trkpt lat="50.67985" lon="1.80895">
        <ele>100</ele>
        <time>2013-08-24T15:20:03.000Z</time>
      </trkpt>
      <trkpt lat="50.67992" lon="1.80862">
        <ele>99</ele>
        <time>2013-08-24T15:20:06.000Z</time>
      </trkpt>
      <trkpt lat="50.67999" lon="1.80827">
        <ele>99</ele>
        <time>2013-08-24T15:20:09.000Z</time>
      </trkpt>
      <trkpt lat="50.68005" lon="1.80795">
        <ele>97</ele>
        <time>2013-08-24T15:20:12.000Z</time>
      </trkpt>
      <trkpt lat="50.68014" lon="1.80758">
        <ele>97</ele>
        <time>2013-08-24T15:20:20.000Z</time>
      </trkpt>
      <trkpt lat="50.68025" lon="1.80722">
        <ele>96</ele>
        <time>2013-08-24T15:20:20.000Z</time>
      </trkpt>
      <trkpt lat="50.68039" lon="1.80692">
        <ele>96</ele>
        <time>2013-08-24T15:20:21.000Z</time>
      </trkpt>
      <trkpt lat="50.68054" lon="1.80664">
        <ele>95</ele>
        <time>2013-08-24T15:20:24.000Z</time>
      </trkpt>
      <trkpt lat="50.68068" lon="1.80643">
        <ele>94</ele>
        <time>2013-08-24T15:20:27.000Z</time>
      </trkpt>
      <trkpt lat="50.6808" lon="1.80622">
        <ele>94</ele>
        <time>2013-08-24T15:20:31.000Z</time>
      </trkpt>
      <trkpt lat="50.6809" lon="1.80604">
        <ele>94</ele>
        <time>2013-08-24T15:20:33.000Z</time>
      </trkpt>
      <trkpt lat="50.68101" lon="1.80586">
        <ele>93</ele>
        <time>2013-08-24T15:20:36.000Z</time>
      </trkpt>
      <trkpt lat="50.68111" lon="1.80569">
        <ele>93</ele>
        <time>2013-08-24T15:20:39.000Z</time>
      </trkpt>
      <trkpt lat="50.68122" lon="1.80551">
        <ele>95</ele>
        <time>2013-08-24T15:20:42.000Z</time>
      </trkpt>
      <trkpt lat="50.6813" lon="1.80526">
        <ele>96</ele>
        <time>2013-08-24T15:20:45.000Z</time>
      </trkpt>
      <trkpt lat="50.68141" lon="1.80507">
        <ele>97</ele>
        <time>2013-08-24T15:20:49.000Z</time>
      </trkpt>
      <trkpt lat="50.68149" lon="1.8049">
        <ele>98</ele>
        <time>2013-08-24T15:20:51.000Z</time>
      </trkpt>
      <trkpt lat="50.68163" lon="1.80463">
        <ele>98</ele>
        <time>2013-08-24T15:20:57.000Z</time>
      </trkpt>
      <trkpt lat="50.6817" lon="1.80447">
        <ele>100</ele>
        <time>2013-08-24T15:21:00.000Z</time>
      </trkpt>
      <trkpt lat="50.68188" lon="1.80414">
        <ele>107</ele>
        <time>2013-08-24T15:21:16.000Z</time>
      </trkpt>
      <trkpt lat="50.68203" lon="1.80391">
        <ele>106</ele>
        <time>2013-08-24T15:21:18.000Z</time>
      </trkpt>
      <trkpt lat="50.68216" lon="1.80375">
        <ele>104</ele>
        <time>2013-08-24T15:21:21.000Z</time>
      </trkpt>
      <trkpt lat="50.68229" lon="1.8036">
        <ele>103</ele>
        <time>2013-08-24T15:21:24.000Z</time>
      </trkpt>
      <trkpt lat="50.68242" lon="1.80347">
        <ele>103</ele>
        <time>2013-08-24T15:21:27.000Z</time>
      </trkpt>
      <trkpt lat="50.68267" lon="1.80318">
        <ele>103</ele>
        <time>2013-08-24T15:21:30.000Z</time>
      </trkpt>
      <trkpt lat="50.6828" lon="1.80302">
        <ele>103</ele>
        <time>2013-08-24T15:21:33.000Z</time>
      </trkpt>
      <trkpt lat="50.68294" lon="1.80279">
        <ele>102</ele>
        <time>2013-08-24T15:21:36.000Z</time>
      </trkpt>
      <trkpt lat="50.68304" lon="1.80254">
        <ele>101</ele>
        <time>2013-08-24T15:21:39.000Z</time>
      </trkpt>
      <trkpt lat="50.68313" lon="1.80226">
        <ele>100</ele>
        <time>2013-08-24T15:21:42.000Z</time>
      </trkpt>
      <trkpt lat="50.6832" lon="1.80199">
        <ele>100</ele>
        <time>2013-08-24T15:21:45.000Z</time>
      </trkpt>
      <trkpt lat="50.68333" lon="1.80159">
        <ele>99</ele>
        <time>2013-08-24T15:21:49.000Z</time>
      </trkpt>
      <trkpt lat="50.68343" lon="1.80123">
        <ele>97</ele>
        <time>2013-08-24T15:21:52.000Z</time>
      </trkpt>
      <trkpt lat="50.68353" lon="1.80086">
        <ele>95</ele>
        <time>2013-08-24T15:21:56.000Z</time>
      </trkpt>
      <trkpt lat="50.68362" lon="1.80051">
        <ele>93</ele>
        <time>2013-08-24T15:21:58.000Z</time>
      </trkpt>
      <trkpt lat="50.68372" lon="1.8002">
        <ele>92</ele>
        <time>2013-08-24T15:22:01.000Z</time>
      </trkpt>
      <trkpt lat="50.68383" lon="1.79987">
        <ele>91</ele>
        <time>2013-08-24T15:22:04.000Z</time>
      </trkpt>
      <trkpt lat="50.68392" lon="1.79952">
        <ele>91</ele>
        <time>2013-08-24T15:22:07.000Z</time>
      </trkpt>
      <trkpt lat="50.68399" lon="1.79918">
        <ele>90</ele>
        <time>2013-08-24T15:22:10.000Z</time>
      </trkpt>
      <trkpt lat="50.68403" lon="1.7989">
        <ele>91</ele>
        <time>2013-08-24T15:22:13.000Z</time>
      </trkpt>
      <trkpt lat="50.68408" lon="1.79858">
        <ele>93</ele>
        <time>2013-08-24T15:22:16.000Z</time>
      </trkpt>
      <trkpt lat="50.68411" lon="1.79828">
        <ele>95</ele>
        <time>2013-08-24T15:22:19.000Z</time>
      </trkpt>
      <trkpt lat="50.68414" lon="1.79798">
        <ele>96</ele>
        <time>2013-08-24T15:22:22.000Z</time>
      </trkpt>
      <trkpt lat="50.68415" lon="1.79767">
        <ele>96</ele>
        <time>2013-08-24T15:22:25.000Z</time>
      </trkpt>
      <trkpt lat="50.68417" lon="1.79734">
        <ele>95</ele>
        <time>2013-08-24T15:22:29.000Z</time>
      </trkpt>
      <trkpt lat="50.68417" lon="1.79701">
        <ele>94</ele>
        <time>2013-08-24T15:22:31.000Z</time>
      </trkpt>
      <trkpt lat="50.68416" lon="1.79666">
        <ele>93</ele>
        <time>2013-08-24T15:22:34.000Z</time>
      </trkpt>
      <trkpt lat="50.68413" lon="1.79638">
        <ele>92</ele>
        <time>2013-08-24T15:22:37.000Z</time>
      </trkpt>
      <trkpt lat="50.68408" lon="1.79605">
        <ele>89</ele>
        <time>2013-08-24T15:22:40.000Z</time>
      </trkpt>
      <trkpt lat="50.68405" lon="1.79574">
        <ele>87</ele>
        <time>2013-08-24T15:22:44.000Z</time>
      </trkpt>
      <trkpt lat="50.68404" lon="1.79541">
        <ele>87</ele>
        <time>2013-08-24T15:22:46.000Z</time>
      </trkpt>
      <trkpt lat="50.68404" lon="1.79505">
        <ele>87</ele>
        <time>2013-08-24T15:22:50.000Z</time>
      </trkpt>
      <trkpt lat="50.68406" lon="1.79473">
        <ele>86</ele>
        <time>2013-08-24T15:22:52.000Z</time>
      </trkpt>
      <trkpt lat="50.68407" lon="1.79446">
        <ele>86</ele>
        <time>2013-08-24T15:22:55.000Z</time>
      </trkpt>
      <trkpt lat="50.68408" lon="1.79424">
        <ele>86</ele>
        <time>2013-08-24T15:22:59.000Z</time>
      </trkpt>
      <trkpt lat="50.68409" lon="1.79403">
        <ele>86</ele>
        <time>2013-08-24T15:23:01.000Z</time>
      </trkpt>
      <trkpt lat="50.68409" lon="1.79383">
        <ele>88</ele>
        <time>2013-08-24T15:23:04.000Z</time>
      </trkpt>
      <trkpt lat="50.6841" lon="1.79362">
        <ele>88</ele>
        <time>2013-08-24T15:23:08.000Z</time>
      </trkpt>
      <trkpt lat="50.68441" lon="1.79328">
        <ele>90</ele>
        <time>2013-08-24T15:23:13.000Z</time>
      </trkpt>
      <trkpt lat="50.68444" lon="1.79303">
        <ele>91</ele>
        <time>2013-08-24T15:23:17.000Z</time>
      </trkpt>
      <trkpt lat="50.68447" lon="1.79281">
        <ele>91</ele>
        <time>2013-08-24T15:23:19.000Z</time>
      </trkpt>
      <trkpt lat="50.68452" lon="1.79244">
        <ele>90</ele>
        <time>2013-08-24T15:23:25.000Z</time>
      </trkpt>
      <trkpt lat="50.68443" lon="1.7922">
        <ele>90</ele>
        <time>2013-08-24T15:23:29.000Z</time>
      </trkpt>
      <trkpt lat="50.68441" lon="1.79198">
        <ele>91</ele>
        <time>2013-08-24T15:23:31.000Z</time>
      </trkpt>
      <trkpt lat="50.68442" lon="1.79175">
        <ele>92</ele>
        <time>2013-08-24T15:23:34.000Z</time>
      </trkpt>
      <trkpt lat="50.68449" lon="1.79152">
        <ele>92</ele>
        <time>2013-08-24T15:23:37.000Z</time>
      </trkpt>
      <trkpt lat="50.68457" lon="1.79129">
        <ele>93</ele>
        <time>2013-08-24T15:23:40.000Z</time>
      </trkpt>
      <trkpt lat="50.68466" lon="1.79105">
        <ele>93</ele>
        <time>2013-08-24T15:23:44.000Z</time>
      </trkpt>
      <trkpt lat="50.68477" lon="1.79083">
        <ele>92</ele>
        <time>2013-08-24T15:23:46.000Z</time>
      </trkpt>
      <trkpt lat="50.68498" lon="1.79072">
        <ele>92</ele>
        <time>2013-08-24T15:23:49.000Z</time>
      </trkpt>
      <trkpt lat="50.6852" lon="1.79072">
        <ele>89</ele>
        <time>2013-08-24T15:23:52.000Z</time>
      </trkpt>
      <trkpt lat="50.68543" lon="1.79076">
        <ele>87</ele>
        <time>2013-08-24T15:23:55.000Z</time>
      </trkpt>
      <trkpt lat="50.68565" lon="1.7908">
        <ele>85</ele>
        <time>2013-08-24T15:23:59.000Z</time>
      </trkpt>
      <trkpt lat="50.68588" lon="1.79085">
        <ele>84</ele>
        <time>2013-08-24T15:24:02.000Z</time>
      </trkpt>
      <trkpt lat="50.6861" lon="1.79082">
        <ele>83</ele>
        <time>2013-08-24T15:24:04.000Z</time>
      </trkpt>
      <trkpt lat="50.68629" lon="1.79063">
        <ele>82</ele>
        <time>2013-08-24T15:24:07.000Z</time>
      </trkpt>
      <trkpt lat="50.6864" lon="1.79028">
        <ele>81</ele>
        <time>2013-08-24T15:24:10.000Z</time>
      </trkpt>
      <trkpt lat="50.68646" lon="1.78997">
        <ele>81</ele>
        <time>2013-08-24T15:24:13.000Z</time>
      </trkpt>
      <trkpt lat="50.68651" lon="1.78965">
        <ele>81</ele>
        <time>2013-08-24T15:24:18.000Z</time>
      </trkpt>
      <trkpt lat="50.68655" lon="1.78937">
        <ele>81</ele>
        <time>2013-08-24T15:24:19.000Z</time>
      </trkpt>
      <trkpt lat="50.6866" lon="1.78907">
        <ele>83</ele>
        <time>2013-08-24T15:24:22.000Z</time>
      </trkpt>
      <trkpt lat="50.68665" lon="1.78878">
        <ele>84</ele>
        <time>2013-08-24T15:24:25.000Z</time>
      </trkpt>
      <trkpt lat="50.68668" lon="1.78852">
        <ele>85</ele>
        <time>2013-08-24T15:24:28.000Z</time>
      </trkpt>
      <trkpt lat="50.68672" lon="1.78825">
        <ele>84</ele>
        <time>2013-08-24T15:24:31.000Z</time>
      </trkpt>
      <trkpt lat="50.68675" lon="1.788">
        <ele>85</ele>
        <time>2013-08-24T15:24:34.000Z</time>
      </trkpt>
      <trkpt lat="50.68679" lon="1.78771">
        <ele>85</ele>
        <time>2013-08-24T15:24:37.000Z</time>
      </trkpt>
      <trkpt lat="50.68681" lon="1.78744">
        <ele>83</ele>
        <time>2013-08-24T15:24:40.000Z</time>
      </trkpt>
      <trkpt lat="50.68683" lon="1.78717">
        <ele>83</ele>
        <time>2013-08-24T15:24:43.000Z</time>
      </trkpt>
      <trkpt lat="50.68686" lon="1.78687">
        <ele>84</ele>
        <time>2013-08-24T15:24:46.000Z</time>
      </trkpt>
      <trkpt lat="50.68688" lon="1.78661">
        <ele>85</ele>
        <time>2013-08-24T15:24:50.000Z</time>
      </trkpt>
      <trkpt lat="50.68691" lon="1.7863">
        <ele>85</ele>
        <time>2013-08-24T15:24:52.000Z</time>
      </trkpt>
      <trkpt lat="50.68694" lon="1.78599">
        <ele>85</ele>
        <time>2013-08-24T15:24:55.000Z</time>
      </trkpt>
      <trkpt lat="50.68695" lon="1.78573">
        <ele>86</ele>
        <time>2013-08-24T15:24:59.000Z</time>
      </trkpt>
      <trkpt lat="50.68693" lon="1.78545">
        <ele>86</ele>
        <time>2013-08-24T15:25:02.000Z</time>
      </trkpt>
      <trkpt lat="50.68694" lon="1.78518">
        <ele>86</ele>
        <time>2013-08-24T15:25:04.000Z</time>
      </trkpt>
      <trkpt lat="50.68689" lon="1.7849">
        <ele>85</ele>
        <time>2013-08-24T15:25:07.000Z</time>
      </trkpt>
      <trkpt lat="50.68697" lon="1.78466">
        <ele>86</ele>
        <time>2013-08-24T15:25:10.000Z</time>
      </trkpt>
      <trkpt lat="50.68705" lon="1.78441">
        <ele>86</ele>
        <time>2013-08-24T15:25:13.000Z</time>
      </trkpt>
      <trkpt lat="50.68713" lon="1.78418">
        <ele>85</ele>
        <time>2013-08-24T15:25:21.000Z</time>
      </trkpt>
      <trkpt lat="50.68729" lon="1.78402">
        <ele>85</ele>
        <time>2013-08-24T15:25:21.000Z</time>
      </trkpt>
      <trkpt lat="50.68743" lon="1.78381">
        <ele>85</ele>
        <time>2013-08-24T15:25:22.000Z</time>
      </trkpt>
      <trkpt lat="50.68762" lon="1.78364">
        <ele>86</ele>
        <time>2013-08-24T15:25:25.000Z</time>
      </trkpt>
      <trkpt lat="50.68786" lon="1.78364">
        <ele>84</ele>
        <time>2013-08-24T15:25:28.000Z</time>
      </trkpt>
      <trkpt lat="50.68806" lon="1.78372">
        <ele>82</ele>
        <time>2013-08-24T15:25:31.000Z</time>
      </trkpt>
      <trkpt lat="50.68827" lon="1.78378">
        <ele>82</ele>
        <time>2013-08-24T15:25:34.000Z</time>
      </trkpt>
      <trkpt lat="50.6885" lon="1.78379">
        <ele>82</ele>
        <time>2013-08-24T15:25:37.000Z</time>
      </trkpt>
      <trkpt lat="50.68874" lon="1.78378">
        <ele>80</ele>
        <time>2013-08-24T15:25:40.000Z</time>
      </trkpt>
      <trkpt lat="50.68896" lon="1.78377">
        <ele>78</ele>
        <time>2013-08-24T15:25:43.000Z</time>
      </trkpt>
      <trkpt lat="50.68918" lon="1.78376">
        <ele>78</ele>
        <time>2013-08-24T15:25:48.000Z</time>
      </trkpt>
      <trkpt lat="50.68939" lon="1.78376">
        <ele>78</ele>
        <time>2013-08-24T15:25:49.000Z</time>
      </trkpt>
      <trkpt lat="50.68961" lon="1.78379">
        <ele>78</ele>
        <time>2013-08-24T15:25:52.000Z</time>
      </trkpt>
      <trkpt lat="50.6898" lon="1.78387">
        <ele>77</ele>
        <time>2013-08-24T15:25:55.000Z</time>
      </trkpt>
      <trkpt lat="50.68998" lon="1.78403">
        <ele>74</ele>
        <time>2013-08-24T15:25:58.000Z</time>
      </trkpt>
      <trkpt lat="50.69015" lon="1.78419">
        <ele>73</ele>
        <time>2013-08-24T15:26:01.000Z</time>
      </trkpt>
      <trkpt lat="50.69032" lon="1.78436">
        <ele>73</ele>
        <time>2013-08-24T15:26:04.000Z</time>
      </trkpt>
      <trkpt lat="50.69046" lon="1.7845">
        <ele>73</ele>
        <time>2013-08-24T15:26:08.000Z</time>
      </trkpt>
      <trkpt lat="50.69061" lon="1.78464">
        <ele>74</ele>
        <time>2013-08-24T15:26:10.000Z</time>
      </trkpt>
      <trkpt lat="50.69075" lon="1.78479">
        <ele>74</ele>
        <time>2013-08-24T15:26:14.000Z</time>
      </trkpt>
      <trkpt lat="50.6909" lon="1.78492">
        <ele>74</ele>
        <time>2013-08-24T15:26:16.000Z</time>
      </trkpt>
      <trkpt lat="50.69101" lon="1.78504">
        <ele>75</ele>
        <time>2013-08-24T15:26:19.000Z</time>
      </trkpt>
      <trkpt lat="50.69115" lon="1.78517">
        <ele>75</ele>
        <time>2013-08-24T15:26:22.000Z</time>
      </trkpt>
      <trkpt lat="50.69127" lon="1.78531">
        <ele>74</ele>
        <time>2013-08-24T15:26:25.000Z</time>
      </trkpt>
      <trkpt lat="50.69139" lon="1.78542">
        <ele>74</ele>
        <time>2013-08-24T15:26:28.000Z</time>
      </trkpt>
      <trkpt lat="50.69151" lon="1.78551">
        <ele>74</ele>
        <time>2013-08-24T15:26:31.000Z</time>
      </trkpt>
      <trkpt lat="50.69162" lon="1.78564">
        <ele>74</ele>
        <time>2013-08-24T15:26:34.000Z</time>
      </trkpt>
      <trkpt lat="50.69174" lon="1.78581">
        <ele>74</ele>
        <time>2013-08-24T15:26:37.000Z</time>
      </trkpt>
      <trkpt lat="50.69184" lon="1.78605">
        <ele>75</ele>
        <time>2013-08-24T15:26:41.000Z</time>
      </trkpt>
      <trkpt lat="50.69193" lon="1.78628">
        <ele>77</ele>
        <time>2013-08-24T15:26:43.000Z</time>
      </trkpt>
      <trkpt lat="50.69201" lon="1.78648">
        <ele>77</ele>
        <time>2013-08-24T15:26:46.000Z</time>
      </trkpt>
      <trkpt lat="50.6922" lon="1.78653">
        <ele>78</ele>
        <time>2013-08-24T15:26:49.000Z</time>
      </trkpt>
      <trkpt lat="50.69236" lon="1.7866">
        <ele>79</ele>
        <time>2013-08-24T15:26:52.000Z</time>
      </trkpt>
      <trkpt lat="50.69252" lon="1.78666">
        <ele>79</ele>
        <time>2013-08-24T15:26:55.000Z</time>
      </trkpt>
      <trkpt lat="50.69265" lon="1.78672">
        <ele>78</ele>
        <time>2013-08-24T15:26:58.000Z</time>
      </trkpt>
      <trkpt lat="50.69278" lon="1.78681">
        <ele>77</ele>
        <time>2013-08-24T15:27:01.000Z</time>
      </trkpt>
      <trkpt lat="50.69291" lon="1.7869">
        <ele>76</ele>
        <time>2013-08-24T15:27:04.000Z</time>
      </trkpt>
      <trkpt lat="50.69305" lon="1.78701">
        <ele>75</ele>
        <time>2013-08-24T15:27:07.000Z</time>
      </trkpt>
      <trkpt lat="50.6932" lon="1.78711">
        <ele>76</ele>
        <time>2013-08-24T15:27:10.000Z</time>
      </trkpt>
      <trkpt lat="50.69336" lon="1.78721">
        <ele>75</ele>
        <time>2013-08-24T15:27:13.000Z</time>
      </trkpt>
      <trkpt lat="50.69352" lon="1.78732">
        <ele>74</ele>
        <time>2013-08-24T15:27:16.000Z</time>
      </trkpt>
      <trkpt lat="50.69366" lon="1.78741">
        <ele>75</ele>
        <time>2013-08-24T15:27:19.000Z</time>
      </trkpt>
      <trkpt lat="50.69381" lon="1.78751">
        <ele>75</ele>
        <time>2013-08-24T15:27:22.000Z</time>
      </trkpt>
      <trkpt lat="50.69396" lon="1.78756">
        <ele>75</ele>
        <time>2013-08-24T15:27:25.000Z</time>
      </trkpt>
      <trkpt lat="50.69411" lon="1.78763">
        <ele>75</ele>
        <time>2013-08-24T15:27:28.000Z</time>
      </trkpt>
      <trkpt lat="50.69426" lon="1.78769">
        <ele>74</ele>
        <time>2013-08-24T15:27:31.000Z</time>
      </trkpt>
      <trkpt lat="50.69443" lon="1.78775">
        <ele>74</ele>
        <time>2013-08-24T15:27:34.000Z</time>
      </trkpt>
      <trkpt lat="50.6946" lon="1.78781">
        <ele>73</ele>
        <time>2013-08-24T15:27:37.000Z</time>
      </trkpt>
      <trkpt lat="50.69477" lon="1.78788">
        <ele>73</ele>
        <time>2013-08-24T15:27:40.000Z</time>
      </trkpt>
      <trkpt lat="50.69496" lon="1.78798">
        <ele>72</ele>
        <time>2013-08-24T15:27:43.000Z</time>
      </trkpt>
      <trkpt lat="50.69514" lon="1.78806">
        <ele>72</ele>
        <time>2013-08-24T15:27:46.000Z</time>
      </trkpt>
      <trkpt lat="50.69535" lon="1.78816">
        <ele>72</ele>
        <time>2013-08-24T15:27:49.000Z</time>
      </trkpt>
      <trkpt lat="50.69556" lon="1.78826">
        <ele>72</ele>
        <time>2013-08-24T15:27:52.000Z</time>
      </trkpt>
      <trkpt lat="50.69576" lon="1.78837">
        <ele>71</ele>
        <time>2013-08-24T15:27:55.000Z</time>
      </trkpt>
      <trkpt lat="50.69596" lon="1.78846">
        <ele>71</ele>
        <time>2013-08-24T15:27:58.000Z</time>
      </trkpt>
      <trkpt lat="50.69616" lon="1.78853">
        <ele>71</ele>
        <time>2013-08-24T15:28:01.000Z</time>
      </trkpt>
      <trkpt lat="50.69636" lon="1.78857">
        <ele>70</ele>
        <time>2013-08-24T15:28:04.000Z</time>
      </trkpt>
      <trkpt lat="50.69656" lon="1.7885">
        <ele>70</ele>
        <time>2013-08-24T15:28:07.000Z</time>
      </trkpt>
      <trkpt lat="50.69671" lon="1.78839">
        <ele>70</ele>
        <time>2013-08-24T15:28:10.000Z</time>
      </trkpt>
      <trkpt lat="50.69685" lon="1.78833">
        <ele>73</ele>
        <time>2013-08-24T15:28:13.000Z</time>
      </trkpt>
      <trkpt lat="50.69698" lon="1.78818">
        <ele>76</ele>
        <time>2013-08-24T15:28:16.000Z</time>
      </trkpt>
      <trkpt lat="50.69715" lon="1.78808">
        <ele>78</ele>
        <time>2013-08-24T15:28:19.000Z</time>
      </trkpt>
      <trkpt lat="50.69732" lon="1.78796">
        <ele>79</ele>
        <time>2013-08-24T15:28:22.000Z</time>
      </trkpt>
      <trkpt lat="50.69751" lon="1.78784">
        <ele>79</ele>
        <time>2013-08-24T15:28:25.000Z</time>
      </trkpt>
      <trkpt lat="50.69769" lon="1.78772">
        <ele>77</ele>
        <time>2013-08-24T15:28:28.000Z</time>
      </trkpt>
      <trkpt lat="50.69786" lon="1.78761">
        <ele>77</ele>
        <time>2013-08-24T15:28:31.000Z</time>
      </trkpt>
      <trkpt lat="50.69804" lon="1.78749">
        <ele>76</ele>
        <time>2013-08-24T15:28:35.000Z</time>
      </trkpt>
      <trkpt lat="50.69819" lon="1.78735">
        <ele>77</ele>
        <time>2013-08-24T15:28:37.000Z</time>
      </trkpt>
      <trkpt lat="50.69833" lon="1.78717">
        <ele>78</ele>
        <time>2013-08-24T15:28:40.000Z</time>
      </trkpt>
      <trkpt lat="50.69845" lon="1.78697">
        <ele>80</ele>
        <time>2013-08-24T15:28:43.000Z</time>
      </trkpt>
      <trkpt lat="50.69858" lon="1.78676">
        <ele>81</ele>
        <time>2013-08-24T15:28:53.000Z</time>
      </trkpt>
      <trkpt lat="50.69873" lon="1.78658">
        <ele>81</ele>
        <time>2013-08-24T15:28:53.000Z</time>
      </trkpt>
      <trkpt lat="50.69887" lon="1.78643">
        <ele>81</ele>
        <time>2013-08-24T15:28:53.000Z</time>
      </trkpt>
      <trkpt lat="50.69901" lon="1.78625">
        <ele>80</ele>
        <time>2013-08-24T15:28:55.000Z</time>
      </trkpt>
      <trkpt lat="50.69914" lon="1.7861">
        <ele>79</ele>
        <time>2013-08-24T15:28:58.000Z</time>
      </trkpt>
      <trkpt lat="50.69924" lon="1.78597">
        <ele>78</ele>
        <time>2013-08-24T15:29:01.000Z</time>
      </trkpt>
      <trkpt lat="50.69891" lon="1.7854">
        <ele>78</ele>
        <time>2013-08-24T15:29:13.000Z</time>
      </trkpt>
      <trkpt lat="50.69873" lon="1.78524">
        <ele>79</ele>
        <time>2013-08-24T15:29:22.000Z</time>
      </trkpt>
      <trkpt lat="50.69859" lon="1.78499">
        <ele>79</ele>
        <time>2013-08-24T15:29:25.000Z</time>
      </trkpt>
      <trkpt lat="50.69847" lon="1.78469">
        <ele>79</ele>
        <time>2013-08-24T15:29:32.000Z</time>
      </trkpt>
      <trkpt lat="50.69841" lon="1.78449">
        <ele>79</ele>
        <time>2013-08-24T15:29:34.000Z</time>
      </trkpt>
      <trkpt lat="50.69832" lon="1.78418">
        <ele>80</ele>
        <time>2013-08-24T15:29:40.000Z</time>
      </trkpt>
      <trkpt lat="50.69823" lon="1.7839">
        <ele>80</ele>
        <time>2013-08-24T15:29:47.000Z</time>
      </trkpt>
      <trkpt lat="50.69816" lon="1.78364">
        <ele>81</ele>
        <time>2013-08-24T15:29:52.000Z</time>
      </trkpt>
      <trkpt lat="50.69808" lon="1.78337">
        <ele>82</ele>
        <time>2013-08-24T15:29:59.000Z</time>
      </trkpt>
      <trkpt lat="50.69828" lon="1.78296">
        <ele>82</ele>
        <time>2013-08-24T15:30:04.000Z</time>
      </trkpt>
      <trkpt lat="50.69826" lon="1.78273">
        <ele>83</ele>
        <time>2013-08-24T15:30:10.000Z</time>
      </trkpt>
      <trkpt lat="50.69824" lon="1.7825">
        <ele>83</ele>
        <time>2013-08-24T15:30:16.000Z</time>
      </trkpt>
      <trkpt lat="50.69823" lon="1.78227">
        <ele>83</ele>
        <time>2013-08-24T15:30:23.000Z</time>
      </trkpt>
      <trkpt lat="50.69821" lon="1.78203">
        <ele>84</ele>
        <time>2013-08-24T15:30:28.000Z</time>
      </trkpt>
      <trkpt lat="50.69822" lon="1.7818">
        <ele>85</ele>
        <time>2013-08-24T15:30:34.000Z</time>
      </trkpt>
      <trkpt lat="50.69822" lon="1.78157">
        <ele>85</ele>
        <time>2013-08-24T15:30:40.000Z</time>
      </trkpt>
      <trkpt lat="50.69824" lon="1.78135">
        <ele>86</ele>
        <time>2013-08-24T15:30:46.000Z</time>
      </trkpt>
      <trkpt lat="50.69827" lon="1.78112">
        <ele>87</ele>
        <time>2013-08-24T15:30:52.000Z</time>
      </trkpt>
      <trkpt lat="50.69826" lon="1.78085">
        <ele>89</ele>
        <time>2013-08-24T15:30:58.000Z</time>
      </trkpt>
      <trkpt lat="50.69827" lon="1.78058">
        <ele>90</ele>
        <time>2013-08-24T15:31:04.000Z</time>
      </trkpt>
      <trkpt lat="50.6983" lon="1.7803">
        <ele>91</ele>
        <time>2013-08-24T15:31:10.000Z</time>
      </trkpt>
      <trkpt lat="50.69829" lon="1.78003">
        <ele>92</ele>
        <time>2013-08-24T15:31:16.000Z</time>
      </trkpt>
      <trkpt lat="50.69826" lon="1.77975">
        <ele>93</ele>
        <time>2013-08-24T15:31:22.000Z</time>
      </trkpt>
      <trkpt lat="50.69821" lon="1.77946">
        <ele>93</ele>
        <time>2013-08-24T15:31:28.000Z</time>
      </trkpt>
      <trkpt lat="50.69815" lon="1.77918">
        <ele>94</ele>
        <time>2013-08-24T15:31:34.000Z</time>
      </trkpt>
      <trkpt lat="50.69813" lon="1.77879">
        <ele>97</ele>
        <time>2013-08-24T15:31:52.000Z</time>
      </trkpt>
      <trkpt lat="50.69813" lon="1.77852">
        <ele>97</ele>
        <time>2013-08-24T15:31:55.000Z</time>
      </trkpt>
      <trkpt lat="50.69814" lon="1.77832">
        <ele>98</ele>
        <time>2013-08-24T15:31:58.000Z</time>
      </trkpt>
      <trkpt lat="50.69815" lon="1.77815">
        <ele>98</ele>
        <time>2013-08-24T15:32:01.000Z</time>
      </trkpt>
      <trkpt lat="50.69815" lon="1.778">
        <ele>99</ele>
        <time>2013-08-24T15:32:04.000Z</time>
      </trkpt>
      <trkpt lat="50.69816" lon="1.77774">
        <ele>100</ele>
        <time>2013-08-24T15:32:07.000Z</time>
      </trkpt>
      <trkpt lat="50.69817" lon="1.77747">
        <ele>101</ele>
        <time>2013-08-24T15:32:16.000Z</time>
      </trkpt>
      <trkpt lat="50.69832" lon="1.77736">
        <ele>102</ele>
        <time>2013-08-24T15:32:34.000Z</time>
      </trkpt>
      <trkpt lat="50.69838" lon="1.77717">
        <ele>103</ele>
        <time>2013-08-24T15:32:40.000Z</time>
      </trkpt>
      <trkpt lat="50.69846" lon="1.77686">
        <ele>103</ele>
        <time>2013-08-24T15:32:47.000Z</time>
      </trkpt>
      <trkpt lat="50.69854" lon="1.77655">
        <ele>104</ele>
        <time>2013-08-24T15:32:53.000Z</time>
      </trkpt>
      <trkpt lat="50.69865" lon="1.77621">
        <ele>105</ele>
        <time>2013-08-24T15:32:58.000Z</time>
      </trkpt>
      <trkpt lat="50.69872" lon="1.77602">
        <ele>106</ele>
        <time>2013-08-24T15:33:01.000Z</time>
      </trkpt>
      <trkpt lat="50.69888" lon="1.77568">
        <ele>106</ele>
        <time>2013-08-24T15:33:07.000Z</time>
      </trkpt>
      <trkpt lat="50.69896" lon="1.7755">
        <ele>106</ele>
        <time>2013-08-24T15:33:10.000Z</time>
      </trkpt>
      <trkpt lat="50.69903" lon="1.77534">
        <ele>106</ele>
        <time>2013-08-24T15:33:14.000Z</time>
      </trkpt>
      <trkpt lat="50.69911" lon="1.77518">
        <ele>108</ele>
        <time>2013-08-24T15:33:16.000Z</time>
      </trkpt>
      <trkpt lat="50.69921" lon="1.77501">
        <ele>109</ele>
        <time>2013-08-24T15:33:19.000Z</time>
      </trkpt>
      <trkpt lat="50.69931" lon="1.77488">
        <ele>110</ele>
        <time>2013-08-24T15:33:22.000Z</time>
      </trkpt>
      <trkpt lat="50.69949" lon="1.77462">
        <ele>113</ele>
        <time>2013-08-24T15:33:28.000Z</time>
      </trkpt>
      <trkpt lat="50.69964" lon="1.77453">
        <ele>111</ele>
        <time>2013-08-24T15:33:31.000Z</time>
      </trkpt>
      <trkpt lat="50.69976" lon="1.77441">
        <ele>110</ele>
        <time>2013-08-24T15:33:34.000Z</time>
      </trkpt>
      <trkpt lat="50.69986" lon="1.77429">
        <ele>110</ele>
        <time>2013-08-24T15:33:37.000Z</time>
      </trkpt>
      <trkpt lat="50.69997" lon="1.77416">
        <ele>111</ele>
        <time>2013-08-24T15:33:40.000Z</time>
      </trkpt>
      <trkpt lat="50.70006" lon="1.77402">
        <ele>112</ele>
        <time>2013-08-24T15:33:43.000Z</time>
      </trkpt>
      <trkpt lat="50.70024" lon="1.77377">
        <ele>113</ele>
        <time>2013-08-24T15:33:49.000Z</time>
      </trkpt>
      <trkpt lat="50.70034" lon="1.77363">
        <ele>112</ele>
        <time>2013-08-24T15:33:52.000Z</time>
      </trkpt>
      <trkpt lat="50.70032" lon="1.77306">
        <ele>110</ele>
        <time>2013-08-24T15:33:58.000Z</time>
      </trkpt>
      <trkpt lat="50.70032" lon="1.77284">
        <ele>111</ele>
        <time>2013-08-24T15:34:01.000Z</time>
      </trkpt>
      <trkpt lat="50.70031" lon="1.77263">
        <ele>111</ele>
        <time>2013-08-24T15:34:04.000Z</time>
      </trkpt>
      <trkpt lat="50.70031" lon="1.77242">
        <ele>112</ele>
        <time>2013-08-24T15:34:08.000Z</time>
      </trkpt>
      <trkpt lat="50.70031" lon="1.77222">
        <ele>112</ele>
        <time>2013-08-24T15:34:10.000Z</time>
      </trkpt>
      <trkpt lat="50.70031" lon="1.77189">
        <ele>112</ele>
        <time>2013-08-24T15:34:16.000Z</time>
      </trkpt>
      <trkpt lat="50.70031" lon="1.77166">
        <ele>114</ele>
        <time>2013-08-24T15:34:22.000Z</time>
      </trkpt>
      <trkpt lat="50.70085" lon="1.77149">
        <ele>115</ele>
        <time>2013-08-24T15:34:28.000Z</time>
      </trkpt>
      <trkpt lat="50.70096" lon="1.7714">
        <ele>116</ele>
        <time>2013-08-24T15:34:31.000Z</time>
      </trkpt>
      <trkpt lat="50.70116" lon="1.77124">
        <ele>116</ele>
        <time>2013-08-24T15:34:38.000Z</time>
      </trkpt>
      <trkpt lat="50.70134" lon="1.77109">
        <ele>116</ele>
        <time>2013-08-24T15:34:43.000Z</time>
      </trkpt>
      <trkpt lat="50.70148" lon="1.77098">
        <ele>116</ele>
        <time>2013-08-24T15:34:49.000Z</time>
      </trkpt>
      <trkpt lat="50.70163" lon="1.77086">
        <ele>116</ele>
        <time>2013-08-24T15:34:55.000Z</time>
      </trkpt>
      <trkpt lat="50.70179" lon="1.77073">
        <ele>117</ele>
        <time>2013-08-24T15:35:01.000Z</time>
      </trkpt>
      <trkpt lat="50.70174" lon="1.76994">
        <ele>117</ele>
        <time>2013-08-24T15:35:07.000Z</time>
      </trkpt>
      <trkpt lat="50.70218" lon="1.76933">
        <ele>125</ele>
        <time>2013-08-24T15:35:46.000Z</time>
      </trkpt>
      <trkpt lat="50.70244" lon="1.76899">
        <ele>126</ele>
        <time>2013-08-24T15:35:49.000Z</time>
      </trkpt>
      <trkpt lat="50.70261" lon="1.76877">
        <ele>127</ele>
        <time>2013-08-24T15:35:52.000Z</time>
      </trkpt>
      <trkpt lat="50.70275" lon="1.76861">
        <ele>127</ele>
        <time>2013-08-24T15:35:55.000Z</time>
      </trkpt>
      <trkpt lat="50.70286" lon="1.76849">
        <ele>128</ele>
        <time>2013-08-24T15:35:58.000Z</time>
      </trkpt>
      <trkpt lat="50.70306" lon="1.76828">
        <ele>129</ele>
        <time>2013-08-24T15:36:01.000Z</time>
      </trkpt>
      <trkpt lat="50.70326" lon="1.76807">
        <ele>134</ele>
        <time>2013-08-24T15:36:07.000Z</time>
      </trkpt>
      <trkpt lat="50.70343" lon="1.7678">
        <ele>139</ele>
        <time>2013-08-24T15:36:13.000Z</time>
      </trkpt>
      <trkpt lat="50.70361" lon="1.76756">
        <ele>140</ele>
        <time>2013-08-24T15:36:19.000Z</time>
      </trkpt>
      <trkpt lat="50.70378" lon="1.76732">
        <ele>140</ele>
        <time>2013-08-24T15:36:25.000Z</time>
      </trkpt>
      <trkpt lat="50.70397" lon="1.76707">
        <ele>139</ele>
        <time>2013-08-24T15:36:31.000Z</time>
      </trkpt>
      <trkpt lat="50.70414" lon="1.76681">
        <ele>138</ele>
        <time>2013-08-24T15:36:37.000Z</time>
      </trkpt>
      <trkpt lat="50.70424" lon="1.76668">
        <ele>137</ele>
        <time>2013-08-24T15:36:40.000Z</time>
      </trkpt>
      <trkpt lat="50.70434" lon="1.76655">
        <ele>137</ele>
        <time>2013-08-24T15:36:43.000Z</time>
      </trkpt>
      <trkpt lat="50.70444" lon="1.76638">
        <ele>137</ele>
        <time>2013-08-24T15:36:46.000Z</time>
      </trkpt>
      <trkpt lat="50.70454" lon="1.76619">
        <ele>136</ele>
        <time>2013-08-24T15:36:49.000Z</time>
      </trkpt>
      <trkpt lat="50.70462" lon="1.766">
        <ele>133</ele>
        <time>2013-08-24T15:36:53.000Z</time>
      </trkpt>
      <trkpt lat="50.70471" lon="1.76581">
        <ele>132</ele>
        <time>2013-08-24T15:36:55.000Z</time>
      </trkpt>
      <trkpt lat="50.7048" lon="1.7656">
        <ele>130</ele>
        <time>2013-08-24T15:36:58.000Z</time>
      </trkpt>
      <trkpt lat="50.7049" lon="1.76539">
        <ele>129</ele>
        <time>2013-08-24T15:37:01.000Z</time>
      </trkpt>
      <trkpt lat="50.70499" lon="1.76518">
        <ele>128</ele>
        <time>2013-08-24T15:37:04.000Z</time>
      </trkpt>
      <trkpt lat="50.70509" lon="1.76496">
        <ele>129</ele>
        <time>2013-08-24T15:37:07.000Z</time>
      </trkpt>
      <trkpt lat="50.70519" lon="1.76475">
        <ele>129</ele>
        <time>2013-08-24T15:37:10.000Z</time>
      </trkpt>
      <trkpt lat="50.70531" lon="1.76453">
        <ele>129</ele>
        <time>2013-08-24T15:37:13.000Z</time>
      </trkpt>
      <trkpt lat="50.70546" lon="1.76432">
        <ele>130</ele>
        <time>2013-08-24T15:37:16.000Z</time>
      </trkpt>
      <trkpt lat="50.70559" lon="1.76411">
        <ele>130</ele>
        <time>2013-08-24T15:37:19.000Z</time>
      </trkpt>
      <trkpt lat="50.70573" lon="1.7639">
        <ele>130</ele>
        <time>2013-08-24T15:37:22.000Z</time>
      </trkpt>
      <trkpt lat="50.70587" lon="1.76369">
        <ele>130</ele>
        <time>2013-08-24T15:37:25.000Z</time>
      </trkpt>
      <trkpt lat="50.70601" lon="1.76348">
        <ele>130</ele>
        <time>2013-08-24T15:37:28.000Z</time>
      </trkpt>
      <trkpt lat="50.70615" lon="1.76327">
        <ele>130</ele>
        <time>2013-08-24T15:37:31.000Z</time>
      </trkpt>
      <trkpt lat="50.70629" lon="1.76304">
        <ele>130</ele>
        <time>2013-08-24T15:37:34.000Z</time>
      </trkpt>
      <trkpt lat="50.70636" lon="1.76275">
        <ele>128</ele>
        <time>2013-08-24T15:37:38.000Z</time>
      </trkpt>
      <trkpt lat="50.70639" lon="1.76244">
        <ele>127</ele>
        <time>2013-08-24T15:37:40.000Z</time>
      </trkpt>
      <trkpt lat="50.70641" lon="1.76214">
        <ele>126</ele>
        <time>2013-08-24T15:37:43.000Z</time>
      </trkpt>
      <trkpt lat="50.70643" lon="1.76187">
        <ele>126</ele>
        <time>2013-08-24T15:37:48.000Z</time>
      </trkpt>
      <trkpt lat="50.70645" lon="1.76159">
        <ele>127</ele>
        <time>2013-08-24T15:37:49.000Z</time>
      </trkpt>
      <trkpt lat="50.70649" lon="1.76133">
        <ele>127</ele>
        <time>2013-08-24T15:37:52.000Z</time>
      </trkpt>
      <trkpt lat="50.70656" lon="1.7611">
        <ele>127</ele>
        <time>2013-08-24T15:37:56.000Z</time>
      </trkpt>
      <trkpt lat="50.70661" lon="1.76087">
        <ele>126</ele>
        <time>2013-08-24T15:37:58.000Z</time>
      </trkpt>
      <trkpt lat="50.70666" lon="1.76066">
        <ele>127</ele>
        <time>2013-08-24T15:38:01.000Z</time>
      </trkpt>
      <trkpt lat="50.70674" lon="1.76029">
        <ele>129</ele>
        <time>2013-08-24T15:38:07.000Z</time>
      </trkpt>
      <trkpt lat="50.70681" lon="1.75998">
        <ele>131</ele>
        <time>2013-08-24T15:38:13.000Z</time>
      </trkpt>
      <trkpt lat="50.70687" lon="1.7597">
        <ele>131</ele>
        <time>2013-08-24T15:38:19.000Z</time>
      </trkpt>
      <trkpt lat="50.70692" lon="1.75948">
        <ele>131</ele>
        <time>2013-08-24T15:38:25.000Z</time>
      </trkpt>
      <trkpt lat="50.70741" lon="1.75951">
        <ele>132</ele>
        <time>2013-08-24T15:38:31.000Z</time>
      </trkpt>
      <trkpt lat="50.7075" lon="1.75933">
        <ele>133</ele>
        <time>2013-08-24T15:38:37.000Z</time>
      </trkpt>
      <trkpt lat="50.70759" lon="1.75917">
        <ele>134</ele>
        <time>2013-08-24T15:38:43.000Z</time>
      </trkpt>
      <trkpt lat="50.70776" lon="1.75902">
        <ele>136</ele>
        <time>2013-08-24T15:38:52.000Z</time>
      </trkpt>
      <trkpt lat="50.70788" lon="1.75889">
        <ele>138</ele>
        <time>2013-08-24T15:38:58.000Z</time>
      </trkpt>
      <trkpt lat="50.70802" lon="1.75872">
        <ele>139</ele>
        <time>2013-08-24T15:39:04.000Z</time>
      </trkpt>
      <trkpt lat="50.70816" lon="1.75856">
        <ele>140</ele>
        <time>2013-08-24T15:39:10.000Z</time>
      </trkpt>
      <trkpt lat="50.70823" lon="1.75834">
        <ele>140</ele>
        <time>2013-08-24T15:39:17.000Z</time>
      </trkpt>
      <trkpt lat="50.70828" lon="1.75808">
        <ele>141</ele>
        <time>2013-08-24T15:39:22.000Z</time>
      </trkpt>
      <trkpt lat="50.70834" lon="1.75777">
        <ele>142</ele>
        <time>2013-08-24T15:39:28.000Z</time>
      </trkpt>
      <trkpt lat="50.70842" lon="1.75749">
        <ele>143</ele>
        <time>2013-08-24T15:39:34.000Z</time>
      </trkpt>
      <trkpt lat="50.70857" lon="1.75726">
        <ele>144</ele>
        <time>2013-08-24T15:39:40.000Z</time>
      </trkpt>
      <trkpt lat="50.70879" lon="1.75718">
        <ele>146</ele>
        <time>2013-08-24T15:39:46.000Z</time>
      </trkpt>
      <trkpt lat="50.70893" lon="1.75714">
        <ele>145</ele>
        <time>2013-08-24T15:39:52.000Z</time>
      </trkpt>
      <trkpt lat="50.70906" lon="1.75708">
        <ele>143</ele>
        <time>2013-08-24T15:39:52.000Z</time>
      </trkpt>
      <trkpt lat="50.70919" lon="1.75696">
        <ele>143</ele>
        <time>2013-08-24T15:39:55.000Z</time>
      </trkpt>
      <trkpt lat="50.7093" lon="1.75678">
        <ele>144</ele>
        <time>2013-08-24T15:39:58.000Z</time>
      </trkpt>
      <trkpt lat="50.70941" lon="1.75658">
        <ele>145</ele>
        <time>2013-08-24T15:40:01.000Z</time>
      </trkpt>
      <trkpt lat="50.70953" lon="1.75637">
        <ele>147</ele>
        <time>2013-08-24T15:40:04.000Z</time>
      </trkpt>
      <trkpt lat="50.70966" lon="1.75616">
        <ele>148</ele>
        <time>2013-08-24T15:40:07.000Z</time>
      </trkpt>
      <trkpt lat="50.70978" lon="1.75593">
        <ele>150</ele>
        <time>2013-08-24T15:40:10.000Z</time>
      </trkpt>
      <trkpt lat="50.7099" lon="1.75569">
        <ele>150</ele>
        <time>2013-08-24T15:40:13.000Z</time>
      </trkpt>
      <trkpt lat="50.71003" lon="1.75547">
        <ele>149</ele>
        <time>2013-08-24T15:40:16.000Z</time>
      </trkpt>
      <trkpt lat="50.71017" lon="1.75525">
        <ele>147</ele>
        <time>2013-08-24T15:40:19.000Z</time>
      </trkpt>
      <trkpt lat="50.71032" lon="1.75502">
        <ele>145</ele>
        <time>2013-08-24T15:40:22.000Z</time>
      </trkpt>
      <trkpt lat="50.71046" lon="1.75479">
        <ele>144</ele>
        <time>2013-08-24T15:40:25.000Z</time>
      </trkpt>
      <trkpt lat="50.71059" lon="1.75458">
        <ele>142</ele>
        <time>2013-08-24T15:40:28.000Z</time>
      </trkpt>
      <trkpt lat="50.71069" lon="1.75434">
        <ele>142</ele>
        <time>2013-08-24T15:40:31.000Z</time>
      </trkpt>
      <trkpt lat="50.7108" lon="1.75413">
        <ele>141</ele>
        <time>2013-08-24T15:40:34.000Z</time>
      </trkpt>
      <trkpt lat="50.7109" lon="1.75394">
        <ele>139</ele>
        <time>2013-08-24T15:40:37.000Z</time>
      </trkpt>
      <trkpt lat="50.71099" lon="1.75376">
        <ele>139</ele>
        <time>2013-08-24T15:40:40.000Z</time>
      </trkpt>
      <trkpt lat="50.71108" lon="1.75359">
        <ele>139</ele>
        <time>2013-08-24T15:40:43.000Z</time>
      </trkpt>
      <trkpt lat="50.71116" lon="1.75342">
        <ele>139</ele>
        <time>2013-08-24T15:40:52.000Z</time>
      </trkpt>
      <trkpt lat="50.71124" lon="1.75327">
        <ele>140</ele>
        <time>2013-08-24T15:40:52.000Z</time>
      </trkpt>
      <trkpt lat="50.71133" lon="1.7531">
        <ele>141</ele>
        <time>2013-08-24T15:40:52.000Z</time>
      </trkpt>
      <trkpt lat="50.71144" lon="1.75287">
        <ele>142</ele>
        <time>2013-08-24T15:40:58.000Z</time>
      </trkpt>
      <trkpt lat="50.7113" lon="1.75244">
        <ele>142</ele>
        <time>2013-08-24T15:41:01.000Z</time>
      </trkpt>
      <trkpt lat="50.71131" lon="1.75222">
        <ele>140</ele>
        <time>2013-08-24T15:41:04.000Z</time>
      </trkpt>
      <trkpt lat="50.71132" lon="1.75199">
        <ele>139</ele>
        <time>2013-08-24T15:41:07.000Z</time>
      </trkpt>
      <trkpt lat="50.71134" lon="1.75174">
        <ele>138</ele>
        <time>2013-08-24T15:41:10.000Z</time>
      </trkpt>
      <trkpt lat="50.71135" lon="1.7515">
        <ele>137</ele>
        <time>2013-08-24T15:41:13.000Z</time>
      </trkpt>
      <trkpt lat="50.71137" lon="1.75125">
        <ele>138</ele>
        <time>2013-08-24T15:41:22.000Z</time>
      </trkpt>
      <trkpt lat="50.71139" lon="1.75101">
        <ele>138</ele>
        <time>2013-08-24T15:41:22.000Z</time>
      </trkpt>
      <trkpt lat="50.71141" lon="1.75076">
        <ele>139</ele>
        <time>2013-08-24T15:41:22.000Z</time>
      </trkpt>
      <trkpt lat="50.71143" lon="1.75051">
        <ele>140</ele>
        <time>2013-08-24T15:41:25.000Z</time>
      </trkpt>
      <trkpt lat="50.71144" lon="1.75028">
        <ele>141</ele>
        <time>2013-08-24T15:41:28.000Z</time>
      </trkpt>
      <trkpt lat="50.71146" lon="1.75003">
        <ele>141</ele>
        <time>2013-08-24T15:41:31.000Z</time>
      </trkpt>
      <trkpt lat="50.71149" lon="1.74977">
        <ele>142</ele>
        <time>2013-08-24T15:41:34.000Z</time>
      </trkpt>
      <trkpt lat="50.71154" lon="1.74952">
        <ele>142</ele>
        <time>2013-08-24T15:41:37.000Z</time>
      </trkpt>
      <trkpt lat="50.71157" lon="1.74928">
        <ele>141</ele>
        <time>2013-08-24T15:41:40.000Z</time>
      </trkpt>
      <trkpt lat="50.71172" lon="1.74911">
        <ele>140</ele>
        <time>2013-08-24T15:41:43.000Z</time>
      </trkpt>
      <trkpt lat="50.71184" lon="1.7489">
        <ele>141</ele>
        <time>2013-08-24T15:41:46.000Z</time>
      </trkpt>
      <trkpt lat="50.71195" lon="1.7487">
        <ele>141</ele>
        <time>2013-08-24T15:41:49.000Z</time>
      </trkpt>
      <trkpt lat="50.71206" lon="1.7485">
        <ele>141</ele>
        <time>2013-08-24T15:41:52.000Z</time>
      </trkpt>
      <trkpt lat="50.71217" lon="1.7483">
        <ele>142</ele>
        <time>2013-08-24T15:41:55.000Z</time>
      </trkpt>
      <trkpt lat="50.71227" lon="1.7481">
        <ele>143</ele>
        <time>2013-08-24T15:41:58.000Z</time>
      </trkpt>
      <trkpt lat="50.71238" lon="1.74789">
        <ele>145</ele>
        <time>2013-08-24T15:42:01.000Z</time>
      </trkpt>
      <trkpt lat="50.7125" lon="1.74765">
        <ele>146</ele>
        <time>2013-08-24T15:42:04.000Z</time>
      </trkpt>
      <trkpt lat="50.71263" lon="1.74737">
        <ele>146</ele>
        <time>2013-08-24T15:42:07.000Z</time>
      </trkpt>
      <trkpt lat="50.71279" lon="1.74708">
        <ele>146</ele>
        <time>2013-08-24T15:42:10.000Z</time>
      </trkpt>
      <trkpt lat="50.71297" lon="1.74671">
        <ele>144</ele>
        <time>2013-08-24T15:42:13.000Z</time>
      </trkpt>
      <trkpt lat="50.71317" lon="1.74631">
        <ele>141</ele>
        <time>2013-08-24T15:42:17.000Z</time>
      </trkpt>
      <trkpt lat="50.71338" lon="1.74592">
        <ele>139</ele>
        <time>2013-08-24T15:42:19.000Z</time>
      </trkpt>
      <trkpt lat="50.71357" lon="1.74559">
        <ele>137</ele>
        <time>2013-08-24T15:42:22.000Z</time>
      </trkpt>
      <trkpt lat="50.71373" lon="1.74529">
        <ele>136</ele>
        <time>2013-08-24T15:42:25.000Z</time>
      </trkpt>
      <trkpt lat="50.71389" lon="1.74498">
        <ele>136</ele>
        <time>2013-08-24T15:42:28.000Z</time>
      </trkpt>
      <trkpt lat="50.71404" lon="1.74467">
        <ele>136</ele>
        <time>2013-08-24T15:42:31.000Z</time>
      </trkpt>
      <trkpt lat="50.71419" lon="1.74438">
        <ele>137</ele>
        <time>2013-08-24T15:42:34.000Z</time>
      </trkpt>
      <trkpt lat="50.71433" lon="1.7441">
        <ele>137</ele>
        <time>2013-08-24T15:42:37.000Z</time>
      </trkpt>
      <trkpt lat="50.71445" lon="1.74387">
        <ele>138</ele>
        <time>2013-08-24T15:42:40.000Z</time>
      </trkpt>
      <trkpt lat="50.71457" lon="1.74364">
        <ele>138</ele>
        <time>2013-08-24T15:42:43.000Z</time>
      </trkpt>
      <trkpt lat="50.71468" lon="1.74341">
        <ele>136</ele>
        <time>2013-08-24T15:42:46.000Z</time>
      </trkpt>
      <trkpt lat="50.7148" lon="1.7432">
        <ele>135</ele>
        <time>2013-08-24T15:42:49.000Z</time>
      </trkpt>
      <trkpt lat="50.71492" lon="1.74297">
        <ele>136</ele>
        <time>2013-08-24T15:42:52.000Z</time>
      </trkpt>
      <trkpt lat="50.71505" lon="1.74272">
        <ele>137</ele>
        <time>2013-08-24T15:42:55.000Z</time>
      </trkpt>
      <trkpt lat="50.71518" lon="1.74245">
        <ele>137</ele>
        <time>2013-08-24T15:42:58.000Z</time>
      </trkpt>
      <trkpt lat="50.71534" lon="1.74215">
        <ele>136</ele>
        <time>2013-08-24T15:43:01.000Z</time>
      </trkpt>
      <trkpt lat="50.7155" lon="1.74182">
        <ele>136</ele>
        <time>2013-08-24T15:43:04.000Z</time>
      </trkpt>
      <trkpt lat="50.71566" lon="1.74147">
        <ele>135</ele>
        <time>2013-08-24T15:43:07.000Z</time>
      </trkpt>
      <trkpt lat="50.71584" lon="1.74114">
        <ele>134</ele>
        <time>2013-08-24T15:43:10.000Z</time>
      </trkpt>
      <trkpt lat="50.716" lon="1.74083">
        <ele>134</ele>
        <time>2013-08-24T15:43:13.000Z</time>
      </trkpt>
      <trkpt lat="50.71616" lon="1.74053">
        <ele>133</ele>
        <time>2013-08-24T15:43:16.000Z</time>
      </trkpt>
      <trkpt lat="50.71632" lon="1.74022">
        <ele>133</ele>
        <time>2013-08-24T15:43:19.000Z</time>
      </trkpt>
      <trkpt lat="50.71647" lon="1.73991">
        <ele>132</ele>
        <time>2013-08-24T15:43:22.000Z</time>
      </trkpt>
      <trkpt lat="50.71663" lon="1.7396">
        <ele>132</ele>
        <time>2013-08-24T15:43:25.000Z</time>
      </trkpt>
      <trkpt lat="50.71679" lon="1.73928">
        <ele>133</ele>
        <time>2013-08-24T15:43:28.000Z</time>
      </trkpt>
      <trkpt lat="50.71695" lon="1.73895">
        <ele>132</ele>
        <time>2013-08-24T15:43:31.000Z</time>
      </trkpt>
      <trkpt lat="50.71712" lon="1.7386">
        <ele>131</ele>
        <time>2013-08-24T15:43:34.000Z</time>
      </trkpt>
      <trkpt lat="50.7173" lon="1.73824">
        <ele>130</ele>
        <time>2013-08-24T15:43:37.000Z</time>
      </trkpt>
      <trkpt lat="50.71747" lon="1.73789">
        <ele>129</ele>
        <time>2013-08-24T15:43:40.000Z</time>
      </trkpt>
      <trkpt lat="50.71763" lon="1.73758">
        <ele>129</ele>
        <time>2013-08-24T15:43:43.000Z</time>
      </trkpt>
      <trkpt lat="50.71777" lon="1.7373">
        <ele>130</ele>
        <time>2013-08-24T15:43:46.000Z</time>
      </trkpt>
      <trkpt lat="50.71791" lon="1.73706">
        <ele>133</ele>
        <time>2013-08-24T15:43:49.000Z</time>
      </trkpt>
      <trkpt lat="50.71803" lon="1.73683">
        <ele>136</ele>
        <time>2013-08-24T15:43:52.000Z</time>
      </trkpt>
      <trkpt lat="50.71814" lon="1.73662">
        <ele>137</ele>
        <time>2013-08-24T15:43:55.000Z</time>
      </trkpt>
      <trkpt lat="50.71825" lon="1.73643">
        <ele>136</ele>
        <time>2013-08-24T15:43:58.000Z</time>
      </trkpt>
      <trkpt lat="50.71834" lon="1.73625">
        <ele>135</ele>
        <time>2013-08-24T15:44:01.000Z</time>
      </trkpt>
      <trkpt lat="50.71843" lon="1.73608">
        <ele>133</ele>
        <time>2013-08-24T15:44:04.000Z</time>
      </trkpt>
      <trkpt lat="50.71852" lon="1.73592">
        <ele>133</ele>
        <time>2013-08-24T15:44:07.000Z</time>
      </trkpt>
      <trkpt lat="50.71863" lon="1.73576">
        <ele>132</ele>
        <time>2013-08-24T15:44:10.000Z</time>
      </trkpt>
      <trkpt lat="50.71873" lon="1.73558">
        <ele>132</ele>
        <time>2013-08-24T15:44:13.000Z</time>
      </trkpt>
      <trkpt lat="50.71884" lon="1.7354">
        <ele>133</ele>
        <time>2013-08-24T15:44:16.000Z</time>
      </trkpt>
      <trkpt lat="50.71895" lon="1.73524">
        <ele>133</ele>
        <time>2013-08-24T15:44:19.000Z</time>
      </trkpt>
      <trkpt lat="50.71907" lon="1.73509">
        <ele>133</ele>
        <time>2013-08-24T15:44:22.000Z</time>
      </trkpt>
      <trkpt lat="50.71918" lon="1.73492">
        <ele>133</ele>
        <time>2013-08-24T15:44:25.000Z</time>
      </trkpt>
      <trkpt lat="50.71926" lon="1.7347">
        <ele>134</ele>
        <time>2013-08-24T15:44:28.000Z</time>
      </trkpt>
      <trkpt lat="50.71936" lon="1.73449">
        <ele>135</ele>
        <time>2013-08-24T15:44:31.000Z</time>
      </trkpt>
      <trkpt lat="50.71945" lon="1.73427">
        <ele>134</ele>
        <time>2013-08-24T15:44:34.000Z</time>
      </trkpt>
      <trkpt lat="50.71955" lon="1.73405">
        <ele>133</ele>
        <time>2013-08-24T15:44:37.000Z</time>
      </trkpt>
      <trkpt lat="50.71963" lon="1.73387">
        <ele>131</ele>
        <time>2013-08-24T15:44:40.000Z</time>
      </trkpt>
      <trkpt lat="50.71971" lon="1.73368">
        <ele>130</ele>
        <time>2013-08-24T15:44:43.000Z</time>
      </trkpt>
      <trkpt lat="50.71979" lon="1.73349">
        <ele>130</ele>
        <time>2013-08-24T15:44:46.000Z</time>
      </trkpt>
      <trkpt lat="50.71988" lon="1.73329">
        <ele>130</ele>
        <time>2013-08-24T15:44:49.000Z</time>
      </trkpt>
      <trkpt lat="50.72002" lon="1.73311">
        <ele>129</ele>
        <time>2013-08-24T15:44:52.000Z</time>
      </trkpt>
      <trkpt lat="50.72013" lon="1.7329">
        <ele>129</ele>
        <time>2013-08-24T15:44:55.000Z</time>
      </trkpt>
      <trkpt lat="50.72026" lon="1.7327">
        <ele>129</ele>
        <time>2013-08-24T15:44:58.000Z</time>
      </trkpt>
      <trkpt lat="50.72037" lon="1.7325">
        <ele>128</ele>
        <time>2013-08-24T15:45:01.000Z</time>
      </trkpt>
      <trkpt lat="50.72049" lon="1.73229">
        <ele>128</ele>
        <time>2013-08-24T15:45:05.000Z</time>
      </trkpt>
      <trkpt lat="50.7206" lon="1.73208">
        <ele>128</ele>
        <time>2013-08-24T15:45:07.000Z</time>
      </trkpt>
      <trkpt lat="50.72073" lon="1.73184">
        <ele>127</ele>
        <time>2013-08-24T15:45:10.000Z</time>
      </trkpt>
      <trkpt lat="50.72086" lon="1.73162">
        <ele>127</ele>
        <time>2013-08-24T15:45:13.000Z</time>
      </trkpt>
      <trkpt lat="50.72098" lon="1.73142">
        <ele>128</ele>
        <time>2013-08-24T15:45:16.000Z</time>
      </trkpt>
      <trkpt lat="50.7211" lon="1.73122">
        <ele>128</ele>
        <time>2013-08-24T15:45:19.000Z</time>
      </trkpt>
      <trkpt lat="50.72121" lon="1.73103">
        <ele>129</ele>
        <time>2013-08-24T15:45:22.000Z</time>
      </trkpt>
      <trkpt lat="50.72131" lon="1.73086">
        <ele>130</ele>
        <time>2013-08-24T15:45:25.000Z</time>
      </trkpt>
      <trkpt lat="50.72142" lon="1.73067">
        <ele>129</ele>
        <time>2013-08-24T15:45:28.000Z</time>
      </trkpt>
      <trkpt lat="50.72153" lon="1.73049">
        <ele>130</ele>
        <time>2013-08-24T15:45:31.000Z</time>
      </trkpt>
      <trkpt lat="50.72164" lon="1.73029">
        <ele>130</ele>
        <time>2013-08-24T15:45:34.000Z</time>
      </trkpt>
      <trkpt lat="50.72174" lon="1.7301">
        <ele>130</ele>
        <time>2013-08-24T15:45:37.000Z</time>
      </trkpt>
      <trkpt lat="50.72184" lon="1.72991">
        <ele>132</ele>
        <time>2013-08-24T15:45:40.000Z</time>
      </trkpt>
      <trkpt lat="50.72192" lon="1.72975">
        <ele>134</ele>
        <time>2013-08-24T15:45:43.000Z</time>
      </trkpt>
      <trkpt lat="50.722" lon="1.72959">
        <ele>134</ele>
        <time>2013-08-24T15:45:52.000Z</time>
      </trkpt>
      <trkpt lat="50.72213" lon="1.72938">
        <ele>134</ele>
        <time>2013-08-24T15:45:52.000Z</time>
      </trkpt>
      <trkpt lat="50.72225" lon="1.72916">
        <ele>135</ele>
        <time>2013-08-24T15:45:58.000Z</time>
      </trkpt>
      <trkpt lat="50.72235" lon="1.72898">
        <ele>135</ele>
        <time>2013-08-24T15:46:04.000Z</time>
      </trkpt>
      <trkpt lat="50.72245" lon="1.7288">
        <ele>136</ele>
        <time>2013-08-24T15:46:10.000Z</time>
      </trkpt>
      <trkpt lat="50.7225" lon="1.7287">
        <ele>136</ele>
        <time>2013-08-24T15:46:16.000Z</time>
      </trkpt>
      <trkpt lat="50.72255" lon="1.7286">
        <ele>137</ele>
        <time>2013-08-24T15:46:19.000Z</time>
      </trkpt>
      <trkpt lat="50.7226" lon="1.72849">
        <ele>137</ele>
        <time>2013-08-24T15:46:22.000Z</time>
      </trkpt>
      <trkpt lat="50.72266" lon="1.72838">
        <ele>137</ele>
        <time>2013-08-24T15:46:25.000Z</time>
      </trkpt>
      <trkpt lat="50.72272" lon="1.72828">
        <ele>137</ele>
        <time>2013-08-24T15:46:28.000Z</time>
      </trkpt>
      <trkpt lat="50.72285" lon="1.72806">
        <ele>137</ele>
        <time>2013-08-24T15:46:31.000Z</time>
      </trkpt>
      <trkpt lat="50.72298" lon="1.72785">
        <ele>138</ele>
        <time>2013-08-24T15:46:37.000Z</time>
      </trkpt>
      <trkpt lat="50.72313" lon="1.72757">
        <ele>138</ele>
        <time>2013-08-24T15:46:43.000Z</time>
      </trkpt>
      <trkpt lat="50.72329" lon="1.72731">
        <ele>138</ele>
        <time>2013-08-24T15:46:49.000Z</time>
      </trkpt>
      <trkpt lat="50.72345" lon="1.72704">
        <ele>137</ele>
        <time>2013-08-24T15:46:55.000Z</time>
      </trkpt>
      <trkpt lat="50.7236" lon="1.7268">
        <ele>137</ele>
        <time>2013-08-24T15:47:01.000Z</time>
      </trkpt>
      <trkpt lat="50.72374" lon="1.72658">
        <ele>138</ele>
        <time>2013-08-24T15:47:07.000Z</time>
      </trkpt>
      <trkpt lat="50.72383" lon="1.72632">
        <ele>139</ele>
        <time>2013-08-24T15:47:13.000Z</time>
      </trkpt>
      <trkpt lat="50.72398" lon="1.72605">
        <ele>141</ele>
        <time>2013-08-24T15:47:20.000Z</time>
      </trkpt>
      <trkpt lat="50.72406" lon="1.72589">
        <ele>142</ele>
        <time>2013-08-24T15:47:22.000Z</time>
      </trkpt>
      <trkpt lat="50.72415" lon="1.72573">
        <ele>142</ele>
        <time>2013-08-24T15:47:25.000Z</time>
      </trkpt>
      <trkpt lat="50.72425" lon="1.72557">
        <ele>142</ele>
        <time>2013-08-24T15:47:28.000Z</time>
      </trkpt>
      <trkpt lat="50.72433" lon="1.72538">
        <ele>141</ele>
        <time>2013-08-24T15:47:31.000Z</time>
      </trkpt>
      <trkpt lat="50.72444" lon="1.72519">
        <ele>141</ele>
        <time>2013-08-24T15:47:34.000Z</time>
      </trkpt>
      <trkpt lat="50.72457" lon="1.72499">
        <ele>140</ele>
        <time>2013-08-24T15:47:37.000Z</time>
      </trkpt>
      <trkpt lat="50.7247" lon="1.72478">
        <ele>139</ele>
        <time>2013-08-24T15:47:40.000Z</time>
      </trkpt>
      <trkpt lat="50.72482" lon="1.72456">
        <ele>139</ele>
        <time>2013-08-24T15:47:43.000Z</time>
      </trkpt>
      <trkpt lat="50.72493" lon="1.72433">
        <ele>139</ele>
        <time>2013-08-24T15:47:48.000Z</time>
      </trkpt>
      <trkpt lat="50.72506" lon="1.7241">
        <ele>138</ele>
        <time>2013-08-24T15:47:49.000Z</time>
      </trkpt>
      <trkpt lat="50.7252" lon="1.72389">
        <ele>138</ele>
        <time>2013-08-24T15:47:52.000Z</time>
      </trkpt>
      <trkpt lat="50.72535" lon="1.72362">
        <ele>136</ele>
        <time>2013-08-24T15:47:55.000Z</time>
      </trkpt>
      <trkpt lat="50.72549" lon="1.72337">
        <ele>133</ele>
        <time>2013-08-24T15:47:58.000Z</time>
      </trkpt>
      <trkpt lat="50.72561" lon="1.72314">
        <ele>131</ele>
        <time>2013-08-24T15:48:01.000Z</time>
      </trkpt>
      <trkpt lat="50.72573" lon="1.72292">
        <ele>130</ele>
        <time>2013-08-24T15:48:04.000Z</time>
      </trkpt>
      <trkpt lat="50.72585" lon="1.72271">
        <ele>129</ele>
        <time>2013-08-24T15:48:07.000Z</time>
      </trkpt>
      <trkpt lat="50.72596" lon="1.72251">
        <ele>129</ele>
        <time>2013-08-24T15:48:14.000Z</time>
      </trkpt>
      <trkpt lat="50.72608" lon="1.72234">
        <ele>128</ele>
        <time>2013-08-24T15:49:25.000Z</time>
      </trkpt>
      <trkpt lat="50.72628" lon="1.72212">
        <ele>132</ele>
        <time>2013-08-24T15:49:31.000Z</time>
      </trkpt>
      <trkpt lat="50.72637" lon="1.72189">
        <ele>134</ele>
        <time>2013-08-24T15:49:34.000Z</time>
      </trkpt>
      <trkpt lat="50.72647" lon="1.72168">
        <ele>135</ele>
        <time>2013-08-24T15:49:37.000Z</time>
      </trkpt>
      <trkpt lat="50.72659" lon="1.72148">
        <ele>136</ele>
        <time>2013-08-24T15:49:40.000Z</time>
      </trkpt>
      <trkpt lat="50.72671" lon="1.72128">
        <ele>136</ele>
        <time>2013-08-24T15:49:44.000Z</time>
      </trkpt>
      <trkpt lat="50.72683" lon="1.72106">
        <ele>137</ele>
        <time>2013-08-24T15:49:46.000Z</time>
      </trkpt>
      <trkpt lat="50.72696" lon="1.72081">
        <ele>138</ele>
        <time>2013-08-24T15:49:49.000Z</time>
      </trkpt>
      <trkpt lat="50.72711" lon="1.72053">
        <ele>139</ele>
        <time>2013-08-24T15:49:52.000Z</time>
      </trkpt>
      <trkpt lat="50.72729" lon="1.72017">
        <ele>136</ele>
        <time>2013-08-24T15:49:55.000Z</time>
      </trkpt>
      <trkpt lat="50.72747" lon="1.7198">
        <ele>132</ele>
        <time>2013-08-24T15:49:58.000Z</time>
      </trkpt>
      <trkpt lat="50.72764" lon="1.71948">
        <ele>128</ele>
        <time>2013-08-24T15:50:01.000Z</time>
      </trkpt>
      <trkpt lat="50.72784" lon="1.71917">
        <ele>126</ele>
        <time>2013-08-24T15:50:04.000Z</time>
      </trkpt>
      <trkpt lat="50.72802" lon="1.71887">
        <ele>125</ele>
        <time>2013-08-24T15:50:07.000Z</time>
      </trkpt>
      <trkpt lat="50.72817" lon="1.71855">
        <ele>125</ele>
        <time>2013-08-24T15:50:10.000Z</time>
      </trkpt>
      <trkpt lat="50.72832" lon="1.71824">
        <ele>125</ele>
        <time>2013-08-24T15:50:13.000Z</time>
      </trkpt>
      <trkpt lat="50.72847" lon="1.71796">
        <ele>124</ele>
        <time>2013-08-24T15:50:16.000Z</time>
      </trkpt>
      <trkpt lat="50.7286" lon="1.71772">
        <ele>124</ele>
        <time>2013-08-24T15:50:20.000Z</time>
      </trkpt>
      <trkpt lat="50.72871" lon="1.7175">
        <ele>125</ele>
        <time>2013-08-24T15:50:22.000Z</time>
      </trkpt>
      <trkpt lat="50.72877" lon="1.71725">
        <ele>126</ele>
        <time>2013-08-24T15:50:25.000Z</time>
      </trkpt>
      <trkpt lat="50.72886" lon="1.71703">
        <ele>126</ele>
        <time>2013-08-24T15:50:28.000Z</time>
      </trkpt>
      <trkpt lat="50.72886" lon="1.71675">
        <ele>127</ele>
        <time>2013-08-24T15:50:31.000Z</time>
      </trkpt>
      <trkpt lat="50.72892" lon="1.7165">
        <ele>126</ele>
        <time>2013-08-24T15:50:34.000Z</time>
      </trkpt>
      <trkpt lat="50.72899" lon="1.71625">
        <ele>126</ele>
        <time>2013-08-24T15:50:37.000Z</time>
      </trkpt>
      <trkpt lat="50.72904" lon="1.71602">
        <ele>126</ele>
        <time>2013-08-24T15:50:40.000Z</time>
      </trkpt>
      <trkpt lat="50.72911" lon="1.71573">
        <ele>127</ele>
        <time>2013-08-24T15:50:45.000Z</time>
      </trkpt>
      <trkpt lat="50.72916" lon="1.71554">
        <ele>128</ele>
        <time>2013-08-24T15:50:47.000Z</time>
      </trkpt>
      <trkpt lat="50.72923" lon="1.71519">
        <ele>128</ele>
        <time>2013-08-24T15:50:53.000Z</time>
      </trkpt>
      <trkpt lat="50.72927" lon="1.71493">
        <ele>128</ele>
        <time>2013-08-24T15:50:59.000Z</time>
      </trkpt>
      <trkpt lat="50.72931" lon="1.7147">
        <ele>129</ele>
        <time>2013-08-24T15:51:05.000Z</time>
      </trkpt>
      <trkpt lat="50.72934" lon="1.71443">
        <ele>129</ele>
        <time>2013-08-24T15:51:14.000Z</time>
      </trkpt>
      <trkpt lat="50.72935" lon="1.71413">
        <ele>130</ele>
        <time>2013-08-24T15:51:23.000Z</time>
      </trkpt>
      <trkpt lat="50.72937" lon="1.71386">
        <ele>131</ele>
        <time>2013-08-24T15:51:29.000Z</time>
      </trkpt>
      <trkpt lat="50.72941" lon="1.7136">
        <ele>132</ele>
        <time>2013-08-24T15:51:35.000Z</time>
      </trkpt>
      <trkpt lat="50.72945" lon="1.71339">
        <ele>132</ele>
        <time>2013-08-24T15:51:42.000Z</time>
      </trkpt>
      <trkpt lat="50.72947" lon="1.71315">
        <ele>133</ele>
        <time>2013-08-24T15:51:47.000Z</time>
      </trkpt>
      <trkpt lat="50.72949" lon="1.71287">
        <ele>133</ele>
        <time>2013-08-24T15:51:53.000Z</time>
      </trkpt>
      <trkpt lat="50.7295" lon="1.71256">
        <ele>134</ele>
        <time>2013-08-24T15:51:59.000Z</time>
      </trkpt>
      <trkpt lat="50.72934" lon="1.71231">
        <ele>136</ele>
        <time>2013-08-24T15:52:05.000Z</time>
      </trkpt>
      <trkpt lat="50.72925" lon="1.7121">
        <ele>136</ele>
        <time>2013-08-24T15:52:08.000Z</time>
      </trkpt>
      <trkpt lat="50.72928" lon="1.71184">
        <ele>135</ele>
        <time>2013-08-24T15:52:11.000Z</time>
      </trkpt>
      <trkpt lat="50.72932" lon="1.71158">
        <ele>134</ele>
        <time>2013-08-24T15:52:14.000Z</time>
      </trkpt>
      <trkpt lat="50.72935" lon="1.71132">
        <ele>134</ele>
        <time>2013-08-24T15:52:17.000Z</time>
      </trkpt>
      <trkpt lat="50.72939" lon="1.71108">
        <ele>133</ele>
        <time>2013-08-24T15:52:21.000Z</time>
      </trkpt>
      <trkpt lat="50.72942" lon="1.71086">
        <ele>132</ele>
        <time>2013-08-24T15:52:23.000Z</time>
      </trkpt>
      <trkpt lat="50.72945" lon="1.71065">
        <ele>133</ele>
        <time>2013-08-24T15:52:26.000Z</time>
      </trkpt>
      <trkpt lat="50.72947" lon="1.71045">
        <ele>133</ele>
        <time>2013-08-24T15:52:29.000Z</time>
      </trkpt>
      <trkpt lat="50.72952" lon="1.71012">
        <ele>134</ele>
        <time>2013-08-24T15:52:35.000Z</time>
      </trkpt>
      <trkpt lat="50.72955" lon="1.70987">
        <ele>134</ele>
        <time>2013-08-24T15:52:41.000Z</time>
      </trkpt>
      <trkpt lat="50.72944" lon="1.70981">
        <ele>134</ele>
        <time>2013-08-24T15:52:50.000Z</time>
      </trkpt>
      <trkpt lat="50.7293" lon="1.70972">
        <ele>135</ele>
        <time>2013-08-24T15:52:53.000Z</time>
      </trkpt>
      <trkpt lat="50.72914" lon="1.70959">
        <ele>135</ele>
        <time>2013-08-24T15:52:56.000Z</time>
      </trkpt>
      <trkpt lat="50.72898" lon="1.70943">
        <ele>134</ele>
        <time>2013-08-24T15:52:59.000Z</time>
      </trkpt>
      <trkpt lat="50.72884" lon="1.70925">
        <ele>134</ele>
        <time>2013-08-24T15:53:02.000Z</time>
      </trkpt>
      <trkpt lat="50.7286" lon="1.70888">
        <ele>135</ele>
        <time>2013-08-24T15:53:05.000Z</time>
      </trkpt>
      <trkpt lat="50.72848" lon="1.70872">
        <ele>136</ele>
        <time>2013-08-24T15:53:08.000Z</time>
      </trkpt>
      <trkpt lat="50.72836" lon="1.70856">
        <ele>136</ele>
        <time>2013-08-24T15:53:11.000Z</time>
      </trkpt>
      <trkpt lat="50.72826" lon="1.70841">
        <ele>136</ele>
        <time>2013-08-24T15:53:14.000Z</time>
      </trkpt>
      <trkpt lat="50.7291" lon="1.70662">
        <ele>140</ele>
        <time>2013-08-24T15:53:59.000Z</time>
      </trkpt>
      <trkpt lat="50.72918" lon="1.70646">
        <ele>140</ele>
        <time>2013-08-24T15:54:05.000Z</time>
      </trkpt>
      <trkpt lat="50.72908" lon="1.70622">
        <ele>142</ele>
        <time>2013-08-24T15:54:41.000Z</time>
      </trkpt>
      <trkpt lat="50.72888" lon="1.706">
        <ele>145</ele>
        <time>2013-08-24T15:54:47.000Z</time>
      </trkpt>
      <trkpt lat="50.72874" lon="1.70587">
        <ele>148</ele>
        <time>2013-08-24T15:54:50.000Z</time>
      </trkpt>
      <trkpt lat="50.72861" lon="1.70575">
        <ele>149</ele>
        <time>2013-08-24T15:54:53.000Z</time>
      </trkpt>
      <trkpt lat="50.72846" lon="1.70562">
        <ele>149</ele>
        <time>2013-08-24T15:54:56.000Z</time>
      </trkpt>
      <trkpt lat="50.72831" lon="1.70549">
        <ele>148</ele>
        <time>2013-08-24T15:54:59.000Z</time>
      </trkpt>
      <trkpt lat="50.72815" lon="1.70536">
        <ele>148</ele>
        <time>2013-08-24T15:55:02.000Z</time>
      </trkpt>
      <trkpt lat="50.72798" lon="1.70522">
        <ele>147</ele>
        <time>2013-08-24T15:55:05.000Z</time>
      </trkpt>
      <trkpt lat="50.72781" lon="1.70508">
        <ele>147</ele>
        <time>2013-08-24T15:55:08.000Z</time>
      </trkpt>
      <trkpt lat="50.72763" lon="1.70494">
        <ele>146</ele>
        <time>2013-08-24T15:55:11.000Z</time>
      </trkpt>
      <trkpt lat="50.72746" lon="1.70482">
        <ele>145</ele>
        <time>2013-08-24T15:55:14.000Z</time>
      </trkpt>
      <trkpt lat="50.72729" lon="1.70472">
        <ele>145</ele>
        <time>2013-08-24T15:55:17.000Z</time>
      </trkpt>
      <trkpt lat="50.72711" lon="1.70467">
        <ele>145</ele>
        <time>2013-08-24T15:55:20.000Z</time>
      </trkpt>
      <trkpt lat="50.72692" lon="1.70465">
        <ele>145</ele>
        <time>2013-08-24T15:55:23.000Z</time>
      </trkpt>
      <trkpt lat="50.72672" lon="1.70464">
        <ele>145</ele>
        <time>2013-08-24T15:55:26.000Z</time>
      </trkpt>
      <trkpt lat="50.72652" lon="1.70462">
        <ele>144</ele>
        <time>2013-08-24T15:55:30.000Z</time>
      </trkpt>
      <trkpt lat="50.72631" lon="1.70458">
        <ele>143</ele>
        <time>2013-08-24T15:55:32.000Z</time>
      </trkpt>
      <trkpt lat="50.72609" lon="1.70453">
        <ele>142</ele>
        <time>2013-08-24T15:55:35.000Z</time>
      </trkpt>
      <trkpt lat="50.7259" lon="1.70447">
        <ele>141</ele>
        <time>2013-08-24T15:55:38.000Z</time>
      </trkpt>
      <trkpt lat="50.72571" lon="1.70438">
        <ele>140</ele>
        <time>2013-08-24T15:55:41.000Z</time>
      </trkpt>
      <trkpt lat="50.72553" lon="1.70426">
        <ele>140</ele>
        <time>2013-08-24T15:55:44.000Z</time>
      </trkpt>
      <trkpt lat="50.72535" lon="1.70413">
        <ele>139</ele>
        <time>2013-08-24T15:55:47.000Z</time>
      </trkpt>
      <trkpt lat="50.72516" lon="1.70399">
        <ele>139</ele>
        <time>2013-08-24T15:55:51.000Z</time>
      </trkpt>
      <trkpt lat="50.72498" lon="1.70385">
        <ele>139</ele>
        <time>2013-08-24T15:55:53.000Z</time>
      </trkpt>
      <trkpt lat="50.7248" lon="1.7037">
        <ele>139</ele>
        <time>2013-08-24T15:55:56.000Z</time>
      </trkpt>
      <trkpt lat="50.72463" lon="1.70354">
        <ele>138</ele>
        <time>2013-08-24T15:55:59.000Z</time>
      </trkpt>
      <trkpt lat="50.72446" lon="1.70338">
        <ele>137</ele>
        <time>2013-08-24T15:56:02.000Z</time>
      </trkpt>
      <trkpt lat="50.7243" lon="1.7032">
        <ele>137</ele>
        <time>2013-08-24T15:56:06.000Z</time>
      </trkpt>
      <trkpt lat="50.72413" lon="1.70302">
        <ele>138</ele>
        <time>2013-08-24T15:56:08.000Z</time>
      </trkpt>
      <trkpt lat="50.72398" lon="1.70285">
        <ele>138</ele>
        <time>2013-08-24T15:56:11.000Z</time>
      </trkpt>
      <trkpt lat="50.72383" lon="1.70267">
        <ele>138</ele>
        <time>2013-08-24T15:56:14.000Z</time>
      </trkpt>
      <trkpt lat="50.72367" lon="1.70248">
        <ele>138</ele>
        <time>2013-08-24T15:56:17.000Z</time>
      </trkpt>
      <trkpt lat="50.72353" lon="1.70229">
        <ele>138</ele>
        <time>2013-08-24T15:56:20.000Z</time>
      </trkpt>
      <trkpt lat="50.72338" lon="1.7021">
        <ele>138</ele>
        <time>2013-08-24T15:56:23.000Z</time>
      </trkpt>
      <trkpt lat="50.72324" lon="1.70192">
        <ele>138</ele>
        <time>2013-08-24T15:56:26.000Z</time>
      </trkpt>
      <trkpt lat="50.72308" lon="1.70175">
        <ele>138</ele>
        <time>2013-08-24T15:56:29.000Z</time>
      </trkpt>
      <trkpt lat="50.72291" lon="1.70159">
        <ele>138</ele>
        <time>2013-08-24T15:56:33.000Z</time>
      </trkpt>
      <trkpt lat="50.72273" lon="1.70144">
        <ele>138</ele>
        <time>2013-08-24T15:56:35.000Z</time>
      </trkpt>
      <trkpt lat="50.72253" lon="1.70126">
        <ele>136</ele>
        <time>2013-08-24T15:56:38.000Z</time>
      </trkpt>
      <trkpt lat="50.72235" lon="1.70103">
        <ele>134</ele>
        <time>2013-08-24T15:56:41.000Z</time>
      </trkpt>
      <trkpt lat="50.72218" lon="1.70079">
        <ele>134</ele>
        <time>2013-08-24T15:56:44.000Z</time>
      </trkpt>
      <trkpt lat="50.72203" lon="1.70055">
        <ele>132</ele>
        <time>2013-08-24T15:56:47.000Z</time>
      </trkpt>
      <trkpt lat="50.72187" lon="1.70032">
        <ele>132</ele>
        <time>2013-08-24T15:56:50.000Z</time>
      </trkpt>
      <trkpt lat="50.72171" lon="1.70009">
        <ele>132</ele>
        <time>2013-08-24T15:56:53.000Z</time>
      </trkpt>
      <trkpt lat="50.72157" lon="1.69987">
        <ele>132</ele>
        <time>2013-08-24T15:56:56.000Z</time>
      </trkpt>
      <trkpt lat="50.72141" lon="1.69966">
        <ele>132</ele>
        <time>2013-08-24T15:56:59.000Z</time>
      </trkpt>
      <trkpt lat="50.72126" lon="1.69947">
        <ele>131</ele>
        <time>2013-08-24T15:57:02.000Z</time>
      </trkpt>
      <trkpt lat="50.72109" lon="1.6993">
        <ele>130</ele>
        <time>2013-08-24T15:57:05.000Z</time>
      </trkpt>
      <trkpt lat="50.72092" lon="1.69915">
        <ele>130</ele>
        <time>2013-08-24T15:57:08.000Z</time>
      </trkpt>
      <trkpt lat="50.72076" lon="1.69899">
        <ele>130</ele>
        <time>2013-08-24T15:57:11.000Z</time>
      </trkpt>
      <trkpt lat="50.72059" lon="1.69883">
        <ele>130</ele>
        <time>2013-08-24T15:57:14.000Z</time>
      </trkpt>
      <trkpt lat="50.72044" lon="1.69868">
        <ele>131</ele>
        <time>2013-08-24T15:57:17.000Z</time>
      </trkpt>
      <trkpt lat="50.72028" lon="1.69854">
        <ele>132</ele>
        <time>2013-08-24T15:57:20.000Z</time>
      </trkpt>
      <trkpt lat="50.72012" lon="1.69841">
        <ele>132</ele>
        <time>2013-08-24T15:57:23.000Z</time>
      </trkpt>
      <trkpt lat="50.71994" lon="1.6983">
        <ele>131</ele>
        <time>2013-08-24T15:57:26.000Z</time>
      </trkpt>
      <trkpt lat="50.71977" lon="1.6982">
        <ele>131</ele>
        <time>2013-08-24T15:57:29.000Z</time>
      </trkpt>
      <trkpt lat="50.71959" lon="1.6981">
        <ele>132</ele>
        <time>2013-08-24T15:57:33.000Z</time>
      </trkpt>
      <trkpt lat="50.71941" lon="1.69801">
        <ele>132</ele>
        <time>2013-08-24T15:57:35.000Z</time>
      </trkpt>
      <trkpt lat="50.71923" lon="1.6979">
        <ele>132</ele>
        <time>2013-08-24T15:57:38.000Z</time>
      </trkpt>
      <trkpt lat="50.71907" lon="1.69781">
        <ele>132</ele>
        <time>2013-08-24T15:57:42.000Z</time>
      </trkpt>
      <trkpt lat="50.71891" lon="1.69772">
        <ele>132</ele>
        <time>2013-08-24T15:57:44.000Z</time>
      </trkpt>
      <trkpt lat="50.71875" lon="1.69763">
        <ele>131</ele>
        <time>2013-08-24T15:57:47.000Z</time>
      </trkpt>
      <trkpt lat="50.71861" lon="1.69752">
        <ele>130</ele>
        <time>2013-08-24T15:57:50.000Z</time>
      </trkpt>
      <trkpt lat="50.71846" lon="1.69741">
        <ele>130</ele>
        <time>2013-08-24T15:57:53.000Z</time>
      </trkpt>
      <trkpt lat="50.71832" lon="1.69731">
        <ele>131</ele>
        <time>2013-08-24T15:57:56.000Z</time>
      </trkpt>
      <trkpt lat="50.71819" lon="1.69722">
        <ele>131</ele>
        <time>2013-08-24T15:57:59.000Z</time>
      </trkpt>
      <trkpt lat="50.71805" lon="1.69712">
        <ele>130</ele>
        <time>2013-08-24T15:58:02.000Z</time>
      </trkpt>
      <trkpt lat="50.71793" lon="1.69703">
        <ele>130</ele>
        <time>2013-08-24T15:58:05.000Z</time>
      </trkpt>
      <trkpt lat="50.71781" lon="1.69694">
        <ele>130</ele>
        <time>2013-08-24T15:58:08.000Z</time>
      </trkpt>
      <trkpt lat="50.71776" lon="1.69657">
        <ele>130</ele>
        <time>2013-08-24T15:58:11.000Z</time>
      </trkpt>
      <trkpt lat="50.71766" lon="1.6964">
        <ele>130</ele>
        <time>2013-08-24T15:58:14.000Z</time>
      </trkpt>
      <trkpt lat="50.71756" lon="1.69624">
        <ele>130</ele>
        <time>2013-08-24T15:58:17.000Z</time>
      </trkpt>
      <trkpt lat="50.71746" lon="1.69608">
        <ele>131</ele>
        <time>2013-08-24T15:58:20.000Z</time>
      </trkpt>
      <trkpt lat="50.71736" lon="1.6959">
        <ele>132</ele>
        <time>2013-08-24T15:58:23.000Z</time>
      </trkpt>
      <trkpt lat="50.71724" lon="1.69556">
        <ele>133</ele>
        <time>2013-08-24T15:58:29.000Z</time>
      </trkpt>
      <trkpt lat="50.7168" lon="1.69455">
        <ele>132</ele>
        <time>2013-08-24T15:58:51.000Z</time>
      </trkpt>
      <trkpt lat="50.71669" lon="1.69429">
        <ele>132</ele>
        <time>2013-08-24T15:58:56.000Z</time>
      </trkpt>
      <trkpt lat="50.7166" lon="1.69402">
        <ele>133</ele>
        <time>2013-08-24T15:59:02.000Z</time>
      </trkpt>
      <trkpt lat="50.71649" lon="1.69371">
        <ele>133</ele>
        <time>2013-08-24T15:59:08.000Z</time>
      </trkpt>
      <trkpt lat="50.71648" lon="1.69355">
        <ele>133</ele>
        <time>2013-08-24T15:59:14.000Z</time>
      </trkpt>
      <trkpt lat="50.71646" lon="1.69338">
        <ele>133</ele>
        <time>2013-08-24T15:59:17.000Z</time>
      </trkpt>
      <trkpt lat="50.71645" lon="1.69321">
        <ele>133</ele>
        <time>2013-08-24T15:59:20.000Z</time>
      </trkpt>
      <trkpt lat="50.71643" lon="1.69304">
        <ele>133</ele>
        <time>2013-08-24T15:59:23.000Z</time>
      </trkpt>
      <trkpt lat="50.71641" lon="1.69287">
        <ele>133</ele>
        <time>2013-08-24T15:59:26.000Z</time>
      </trkpt>
      <trkpt lat="50.71635" lon="1.69252">
        <ele>134</ele>
        <time>2013-08-24T15:59:29.000Z</time>
      </trkpt>
      <trkpt lat="50.71629" lon="1.69213">
        <ele>135</ele>
        <time>2013-08-24T15:59:35.000Z</time>
      </trkpt>
      <trkpt lat="50.71626" lon="1.69191">
        <ele>135</ele>
        <time>2013-08-24T15:59:38.000Z</time>
      </trkpt>
      <trkpt lat="50.71623" lon="1.69168">
        <ele>135</ele>
        <time>2013-08-24T15:59:41.000Z</time>
      </trkpt>
      <trkpt lat="50.7162" lon="1.69144">
        <ele>135</ele>
        <time>2013-08-24T15:59:44.000Z</time>
      </trkpt>
      <trkpt lat="50.71616" lon="1.69115">
        <ele>135</ele>
        <time>2013-08-24T15:59:47.000Z</time>
      </trkpt>
      <trkpt lat="50.7161" lon="1.69081">
        <ele>134</ele>
        <time>2013-08-24T15:59:51.000Z</time>
      </trkpt>
      <trkpt lat="50.71605" lon="1.69045">
        <ele>133</ele>
        <time>2013-08-24T15:59:53.000Z</time>
      </trkpt>
      <trkpt lat="50.716" lon="1.69006">
        <ele>133</ele>
        <time>2013-08-24T15:59:56.000Z</time>
      </trkpt>
      <trkpt lat="50.71595" lon="1.68966">
        <ele>132</ele>
        <time>2013-08-24T15:59:59.000Z</time>
      </trkpt>
      <trkpt lat="50.7159" lon="1.68927">
        <ele>131</ele>
        <time>2013-08-24T16:00:02.000Z</time>
      </trkpt>
      <trkpt lat="50.71584" lon="1.6889">
        <ele>130</ele>
        <time>2013-08-24T16:00:05.000Z</time>
      </trkpt>
      <trkpt lat="50.71578" lon="1.68855">
        <ele>129</ele>
        <time>2013-08-24T16:00:08.000Z</time>
      </trkpt>
      <trkpt lat="50.71572" lon="1.68822">
        <ele>129</ele>
        <time>2013-08-24T16:00:11.000Z</time>
      </trkpt>
      <trkpt lat="50.71567" lon="1.68789">
        <ele>129</ele>
        <time>2013-08-24T16:00:14.000Z</time>
      </trkpt>
      <trkpt lat="50.71562" lon="1.68756">
        <ele>130</ele>
        <time>2013-08-24T16:00:17.000Z</time>
      </trkpt>
      <trkpt lat="50.71558" lon="1.68726">
        <ele>130</ele>
        <time>2013-08-24T16:00:20.000Z</time>
      </trkpt>
      <trkpt lat="50.71558" lon="1.68697">
        <ele>129</ele>
        <time>2013-08-24T16:00:23.000Z</time>
      </trkpt>
      <trkpt lat="50.71557" lon="1.68671">
        <ele>128</ele>
        <time>2013-08-24T16:00:26.000Z</time>
      </trkpt>
      <trkpt lat="50.71557" lon="1.68642">
        <ele>128</ele>
        <time>2013-08-24T16:00:29.000Z</time>
      </trkpt>
      <trkpt lat="50.71557" lon="1.68612">
        <ele>127</ele>
        <time>2013-08-24T16:00:32.000Z</time>
      </trkpt>
      <trkpt lat="50.71558" lon="1.68582">
        <ele>127</ele>
        <time>2013-08-24T16:00:35.000Z</time>
      </trkpt>
      <trkpt lat="50.71558" lon="1.68553">
        <ele>126</ele>
        <time>2013-08-24T16:00:38.000Z</time>
      </trkpt>
      <trkpt lat="50.71558" lon="1.68521">
        <ele>126</ele>
        <time>2013-08-24T16:00:41.000Z</time>
      </trkpt>
      <trkpt lat="50.71558" lon="1.68489">
        <ele>126</ele>
        <time>2013-08-24T16:00:44.000Z</time>
      </trkpt>
      <trkpt lat="50.71558" lon="1.68458">
        <ele>125</ele>
        <time>2013-08-24T16:00:49.000Z</time>
      </trkpt>
      <trkpt lat="50.71554" lon="1.68427">
        <ele>124</ele>
        <time>2013-08-24T16:00:50.000Z</time>
      </trkpt>
      <trkpt lat="50.71548" lon="1.68395">
        <ele>123</ele>
        <time>2013-08-24T16:00:53.000Z</time>
      </trkpt>
      <trkpt lat="50.71541" lon="1.68364">
        <ele>122</ele>
        <time>2013-08-24T16:00:56.000Z</time>
      </trkpt>
      <trkpt lat="50.71532" lon="1.68335">
        <ele>121</ele>
        <time>2013-08-24T16:00:59.000Z</time>
      </trkpt>
      <trkpt lat="50.71522" lon="1.68304">
        <ele>120</ele>
        <time>2013-08-24T16:01:02.000Z</time>
      </trkpt>
      <trkpt lat="50.71511" lon="1.68275">
        <ele>119</ele>
        <time>2013-08-24T16:01:05.000Z</time>
      </trkpt>
      <trkpt lat="50.71502" lon="1.68245">
        <ele>118</ele>
        <time>2013-08-24T16:01:08.000Z</time>
      </trkpt>
      <trkpt lat="50.71491" lon="1.68214">
        <ele>116</ele>
        <time>2013-08-24T16:01:11.000Z</time>
      </trkpt>
      <trkpt lat="50.71481" lon="1.6818">
        <ele>115</ele>
        <time>2013-08-24T16:01:14.000Z</time>
      </trkpt>
      <trkpt lat="50.71471" lon="1.68146">
        <ele>113</ele>
        <time>2013-08-24T16:01:17.000Z</time>
      </trkpt>
      <trkpt lat="50.71461" lon="1.68111">
        <ele>112</ele>
        <time>2013-08-24T16:01:20.000Z</time>
      </trkpt>
      <trkpt lat="50.71448" lon="1.68081">
        <ele>110</ele>
        <time>2013-08-24T16:01:23.000Z</time>
      </trkpt>
      <trkpt lat="50.71429" lon="1.68055">
        <ele>109</ele>
        <time>2013-08-24T16:01:27.000Z</time>
      </trkpt>
      <trkpt lat="50.71407" lon="1.6803">
        <ele>108</ele>
        <time>2013-08-24T16:01:29.000Z</time>
      </trkpt>
      <trkpt lat="50.71381" lon="1.68009">
        <ele>106</ele>
        <time>2013-08-24T16:01:32.000Z</time>
      </trkpt>
      <trkpt lat="50.7135" lon="1.67986">
        <ele>104</ele>
        <time>2013-08-24T16:01:35.000Z</time>
      </trkpt>
      <trkpt lat="50.71317" lon="1.67967">
        <ele>101</ele>
        <time>2013-08-24T16:01:38.000Z</time>
      </trkpt>
      <trkpt lat="50.71286" lon="1.67948">
        <ele>99</ele>
        <time>2013-08-24T16:01:41.000Z</time>
      </trkpt>
      <trkpt lat="50.71255" lon="1.67927">
        <ele>97</ele>
        <time>2013-08-24T16:01:44.000Z</time>
      </trkpt>
      <trkpt lat="50.71223" lon="1.67905">
        <ele>96</ele>
        <time>2013-08-24T16:01:47.000Z</time>
      </trkpt>
      <trkpt lat="50.71191" lon="1.67883">
        <ele>95</ele>
        <time>2013-08-24T16:01:50.000Z</time>
      </trkpt>
      <trkpt lat="50.71163" lon="1.67861">
        <ele>94</ele>
        <time>2013-08-24T16:01:53.000Z</time>
      </trkpt>
      <trkpt lat="50.7114" lon="1.67846">
        <ele>91</ele>
        <time>2013-08-24T16:01:56.000Z</time>
      </trkpt>
      <trkpt lat="50.71117" lon="1.67847">
        <ele>88</ele>
        <time>2013-08-24T16:01:59.000Z</time>
      </trkpt>
      <trkpt lat="50.71101" lon="1.67856">
        <ele>85</ele>
        <time>2013-08-24T16:02:02.000Z</time>
      </trkpt>
      <trkpt lat="50.71088" lon="1.67857">
        <ele>83</ele>
        <time>2013-08-24T16:02:05.000Z</time>
      </trkpt>
      <trkpt lat="50.71083" lon="1.67834">
        <ele>78</ele>
        <time>2013-08-24T16:06:17.000Z</time>
      </trkpt>
      <trkpt lat="50.71088" lon="1.67809">
        <ele>77</ele>
        <time>2013-08-24T16:06:23.000Z</time>
      </trkpt>
      <trkpt lat="50.71096" lon="1.67775">
        <ele>76</ele>
        <time>2013-08-24T16:06:29.000Z</time>
      </trkpt>
      <trkpt lat="50.71101" lon="1.67754">
        <ele>75</ele>
        <time>2013-08-24T16:06:32.000Z</time>
      </trkpt>
      <trkpt lat="50.71105" lon="1.67732">
        <ele>74</ele>
        <time>2013-08-24T16:06:36.000Z</time>
      </trkpt>
      <trkpt lat="50.71109" lon="1.67712">
        <ele>75</ele>
        <time>2013-08-24T16:06:38.000Z</time>
      </trkpt>
      <trkpt lat="50.71113" lon="1.6769">
        <ele>74</ele>
        <time>2013-08-24T16:06:41.000Z</time>
      </trkpt>
      <trkpt lat="50.71117" lon="1.67668">
        <ele>75</ele>
        <time>2013-08-24T16:06:44.000Z</time>
      </trkpt>
      <trkpt lat="50.71122" lon="1.67646">
        <ele>75</ele>
        <time>2013-08-24T16:06:47.000Z</time>
      </trkpt>
      <trkpt lat="50.71126" lon="1.67625">
        <ele>75</ele>
        <time>2013-08-24T16:06:51.000Z</time>
      </trkpt>
      <trkpt lat="50.7113" lon="1.67605">
        <ele>74</ele>
        <time>2013-08-24T16:06:53.000Z</time>
      </trkpt>
      <trkpt lat="50.71134" lon="1.67585">
        <ele>74</ele>
        <time>2013-08-24T16:06:56.000Z</time>
      </trkpt>
      <trkpt lat="50.71139" lon="1.67566">
        <ele>74</ele>
        <time>2013-08-24T16:06:59.000Z</time>
      </trkpt>
      <trkpt lat="50.71147" lon="1.67532">
        <ele>76</ele>
        <time>2013-08-24T16:07:05.000Z</time>
      </trkpt>
      <trkpt lat="50.71153" lon="1.67503">
        <ele>76</ele>
        <time>2013-08-24T16:07:11.000Z</time>
      </trkpt>
      <trkpt lat="50.7116" lon="1.67472">
        <ele>76</ele>
        <time>2013-08-24T16:07:17.000Z</time>
      </trkpt>
      <trkpt lat="50.71166" lon="1.67445">
        <ele>76</ele>
        <time>2013-08-24T16:07:23.000Z</time>
      </trkpt>
      <trkpt lat="50.7117" lon="1.67424">
        <ele>77</ele>
        <time>2013-08-24T16:07:29.000Z</time>
      </trkpt>
      <trkpt lat="50.71175" lon="1.67405">
        <ele>78</ele>
        <time>2013-08-24T16:07:35.000Z</time>
      </trkpt>
      <trkpt lat="50.7118" lon="1.67379">
        <ele>79</ele>
        <time>2013-08-24T16:07:44.000Z</time>
      </trkpt>
      <trkpt lat="50.71185" lon="1.67358">
        <ele>80</ele>
        <time>2013-08-24T16:07:54.000Z</time>
      </trkpt>
      <trkpt lat="50.71189" lon="1.67339">
        <ele>82</ele>
        <time>2013-08-24T16:08:02.000Z</time>
      </trkpt>
      <trkpt lat="50.71262" lon="1.67364">
        <ele>84</ele>
        <time>2013-08-24T16:08:11.000Z</time>
      </trkpt>
      <trkpt lat="50.71286" lon="1.67353">
        <ele>88</ele>
        <time>2013-08-24T16:08:35.000Z</time>
      </trkpt>
      <trkpt lat="50.71302" lon="1.67346">
        <ele>88</ele>
        <time>2013-08-24T16:08:38.000Z</time>
      </trkpt>
      <trkpt lat="50.71312" lon="1.67341">
        <ele>88</ele>
        <time>2013-08-24T16:08:41.000Z</time>
      </trkpt>
      <trkpt lat="50.71321" lon="1.67336">
        <ele>89</ele>
        <time>2013-08-24T16:08:44.000Z</time>
      </trkpt>
      <trkpt lat="50.71328" lon="1.67332">
        <ele>89</ele>
        <time>2013-08-24T16:08:54.000Z</time>
      </trkpt>
      <trkpt lat="50.71341" lon="1.67325">
        <ele>90</ele>
        <time>2013-08-24T16:08:54.000Z</time>
      </trkpt>
      <trkpt lat="50.71356" lon="1.67314">
        <ele>92</ele>
        <time>2013-08-24T16:08:59.000Z</time>
      </trkpt>
      <trkpt lat="50.71396" lon="1.67298">
        <ele>95</ele>
        <time>2013-08-24T16:09:17.000Z</time>
      </trkpt>
      <trkpt lat="50.71409" lon="1.67295">
        <ele>96</ele>
        <time>2013-08-24T16:09:23.000Z</time>
      </trkpt>
      <trkpt lat="50.71472" lon="1.67268">
        <ele>100</ele>
        <time>2013-08-24T16:09:57.000Z</time>
      </trkpt>
      <trkpt lat="50.71504" lon="1.67247">
        <ele>104</ele>
        <time>2013-08-24T16:10:14.000Z</time>
      </trkpt>
      <trkpt lat="50.7152" lon="1.67235">
        <ele>105</ele>
        <time>2013-08-24T16:10:23.000Z</time>
      </trkpt>
      <trkpt lat="50.71534" lon="1.67225">
        <ele>107</ele>
        <time>2013-08-24T16:10:32.000Z</time>
      </trkpt>
      <trkpt lat="50.71545" lon="1.67213">
        <ele>108</ele>
        <time>2013-08-24T16:10:38.000Z</time>
      </trkpt>
      <trkpt lat="50.71552" lon="1.67206">
        <ele>110</ele>
        <time>2013-08-24T16:10:47.000Z</time>
      </trkpt>
      <trkpt lat="50.71558" lon="1.67199">
        <ele>110</ele>
        <time>2013-08-24T16:10:50.000Z</time>
      </trkpt>
      <trkpt lat="50.71565" lon="1.67192">
        <ele>111</ele>
        <time>2013-08-24T16:10:56.000Z</time>
      </trkpt>
      <trkpt lat="50.71571" lon="1.67185">
        <ele>112</ele>
        <time>2013-08-24T16:10:59.000Z</time>
      </trkpt>
      <trkpt lat="50.71577" lon="1.6718">
        <ele>113</ele>
        <time>2013-08-24T16:11:02.000Z</time>
      </trkpt>
      <trkpt lat="50.71584" lon="1.67173">
        <ele>114</ele>
        <time>2013-08-24T16:11:08.000Z</time>
      </trkpt>
      <trkpt lat="50.7159" lon="1.67167">
        <ele>115</ele>
        <time>2013-08-24T16:11:11.000Z</time>
      </trkpt>
      <trkpt lat="50.71597" lon="1.67158">
        <ele>115</ele>
        <time>2013-08-24T16:11:17.000Z</time>
      </trkpt>
      <trkpt lat="50.71603" lon="1.67151">
        <ele>116</ele>
        <time>2013-08-24T16:11:20.000Z</time>
      </trkpt>
      <trkpt lat="50.71607" lon="1.67144">
        <ele>116</ele>
        <time>2013-08-24T16:11:23.000Z</time>
      </trkpt>
      <trkpt lat="50.71614" lon="1.67134">
        <ele>118</ele>
        <time>2013-08-24T16:11:29.000Z</time>
      </trkpt>
      <trkpt lat="50.71619" lon="1.67126">
        <ele>118</ele>
        <time>2013-08-24T16:11:32.000Z</time>
      </trkpt>
      <trkpt lat="50.71626" lon="1.67117">
        <ele>119</ele>
        <time>2013-08-24T16:11:38.000Z</time>
      </trkpt>
      <trkpt lat="50.71631" lon="1.67109">
        <ele>120</ele>
        <time>2013-08-24T16:11:41.000Z</time>
      </trkpt>
      <trkpt lat="50.71636" lon="1.67102">
        <ele>121</ele>
        <time>2013-08-24T16:11:44.000Z</time>
      </trkpt>
      <trkpt lat="50.71642" lon="1.67092">
        <ele>122</ele>
        <time>2013-08-24T16:11:50.000Z</time>
      </trkpt>
      <trkpt lat="50.71648" lon="1.67085">
        <ele>123</ele>
        <time>2013-08-24T16:11:53.000Z</time>
      </trkpt>
      <trkpt lat="50.71654" lon="1.67075">
        <ele>124</ele>
        <time>2013-08-24T16:11:59.000Z</time>
      </trkpt>
      <trkpt lat="50.71659" lon="1.67066">
        <ele>124</ele>
        <time>2013-08-24T16:12:03.000Z</time>
      </trkpt>
      <trkpt lat="50.71663" lon="1.67059">
        <ele>125</ele>
        <time>2013-08-24T16:12:05.000Z</time>
      </trkpt>
      <trkpt lat="50.71669" lon="1.67049">
        <ele>126</ele>
        <time>2013-08-24T16:12:11.000Z</time>
      </trkpt>
      <trkpt lat="50.71673" lon="1.6704">
        <ele>126</ele>
        <time>2013-08-24T16:12:14.000Z</time>
      </trkpt>
      <trkpt lat="50.71677" lon="1.67031">
        <ele>127</ele>
        <time>2013-08-24T16:12:17.000Z</time>
      </trkpt>
      <trkpt lat="50.71682" lon="1.6702">
        <ele>128</ele>
        <time>2013-08-24T16:12:23.000Z</time>
      </trkpt>
      <trkpt lat="50.71687" lon="1.67011">
        <ele>129</ele>
        <time>2013-08-24T16:12:26.000Z</time>
      </trkpt>
      <trkpt lat="50.7169" lon="1.67002">
        <ele>129</ele>
        <time>2013-08-24T16:12:29.000Z</time>
      </trkpt>
      <trkpt lat="50.71695" lon="1.66991">
        <ele>131</ele>
        <time>2013-08-24T16:12:35.000Z</time>
      </trkpt>
      <trkpt lat="50.71699" lon="1.66982">
        <ele>132</ele>
        <time>2013-08-24T16:12:38.000Z</time>
      </trkpt>
      <trkpt lat="50.71704" lon="1.6697">
        <ele>133</ele>
        <time>2013-08-24T16:12:44.000Z</time>
      </trkpt>
      <trkpt lat="50.71708" lon="1.66961">
        <ele>134</ele>
        <time>2013-08-24T16:12:47.000Z</time>
      </trkpt>
      <trkpt lat="50.71711" lon="1.66952">
        <ele>135</ele>
        <time>2013-08-24T16:12:51.000Z</time>
      </trkpt>
      <trkpt lat="50.71716" lon="1.66941">
        <ele>136</ele>
        <time>2013-08-24T16:12:56.000Z</time>
      </trkpt>
      <trkpt lat="50.7172" lon="1.66931">
        <ele>136</ele>
        <time>2013-08-24T16:12:59.000Z</time>
      </trkpt>
      <trkpt lat="50.7172" lon="1.66919">
        <ele>137</ele>
        <time>2013-08-24T16:13:03.000Z</time>
      </trkpt>
      <trkpt lat="50.71721" lon="1.66909">
        <ele>137</ele>
        <time>2013-08-24T16:13:05.000Z</time>
      </trkpt>
      <trkpt lat="50.71724" lon="1.66896">
        <ele>138</ele>
        <time>2013-08-24T16:13:11.000Z</time>
      </trkpt>
      <trkpt lat="50.71727" lon="1.66885">
        <ele>139</ele>
        <time>2013-08-24T16:13:15.000Z</time>
      </trkpt>
      <trkpt lat="50.71729" lon="1.66874">
        <ele>139</ele>
        <time>2013-08-24T16:13:17.000Z</time>
      </trkpt>
      <trkpt lat="50.71732" lon="1.66861">
        <ele>140</ele>
        <time>2013-08-24T16:13:23.000Z</time>
      </trkpt>
      <trkpt lat="50.71735" lon="1.66849">
        <ele>141</ele>
        <time>2013-08-24T16:13:26.000Z</time>
      </trkpt>
      <trkpt lat="50.71737" lon="1.66839">
        <ele>141</ele>
        <time>2013-08-24T16:13:29.000Z</time>
      </trkpt>
      <trkpt lat="50.71738" lon="1.66825">
        <ele>142</ele>
        <time>2013-08-24T16:13:35.000Z</time>
      </trkpt>
      <trkpt lat="50.71738" lon="1.66814">
        <ele>143</ele>
        <time>2013-08-24T16:13:38.000Z</time>
      </trkpt>
      <trkpt lat="50.71738" lon="1.668">
        <ele>144</ele>
        <time>2013-08-24T16:13:44.000Z</time>
      </trkpt>
      <trkpt lat="50.71738" lon="1.66788">
        <ele>145</ele>
        <time>2013-08-24T16:13:47.000Z</time>
      </trkpt>
      <trkpt lat="50.71739" lon="1.66777">
        <ele>145</ele>
        <time>2013-08-24T16:13:50.000Z</time>
      </trkpt>
      <trkpt lat="50.7174" lon="1.66767">
        <ele>145</ele>
        <time>2013-08-24T16:13:53.000Z</time>
      </trkpt>
      <trkpt lat="50.71739" lon="1.66751">
        <ele>146</ele>
        <time>2013-08-24T16:13:59.000Z</time>
      </trkpt>
      <trkpt lat="50.71739" lon="1.66738">
        <ele>147</ele>
        <time>2013-08-24T16:14:03.000Z</time>
      </trkpt>
      <trkpt lat="50.71738" lon="1.66727">
        <ele>148</ele>
        <time>2013-08-24T16:14:05.000Z</time>
      </trkpt>
      <trkpt lat="50.71738" lon="1.66717">
        <ele>148</ele>
        <time>2013-08-24T16:14:08.000Z</time>
      </trkpt>
      <trkpt lat="50.71737" lon="1.66705">
        <ele>149</ele>
        <time>2013-08-24T16:14:14.000Z</time>
      </trkpt>
      <trkpt lat="50.71737" lon="1.66694">
        <ele>150</ele>
        <time>2013-08-24T16:14:17.000Z</time>
      </trkpt>
      <trkpt lat="50.71738" lon="1.6668">
        <ele>151</ele>
        <time>2013-08-24T16:14:23.000Z</time>
      </trkpt>
      <trkpt lat="50.71738" lon="1.66668">
        <ele>151</ele>
        <time>2013-08-24T16:14:26.000Z</time>
      </trkpt>
      <trkpt lat="50.71738" lon="1.66658">
        <ele>152</ele>
        <time>2013-08-24T16:14:29.000Z</time>
      </trkpt>
      <trkpt lat="50.71738" lon="1.66645">
        <ele>153</ele>
        <time>2013-08-24T16:14:35.000Z</time>
      </trkpt>
      <trkpt lat="50.71737" lon="1.66634">
        <ele>153</ele>
        <time>2013-08-24T16:14:38.000Z</time>
      </trkpt>
      <trkpt lat="50.71736" lon="1.66619">
        <ele>154</ele>
        <time>2013-08-24T16:14:44.000Z</time>
      </trkpt>
      <trkpt lat="50.71735" lon="1.66608">
        <ele>155</ele>
        <time>2013-08-24T16:14:47.000Z</time>
      </trkpt>
      <trkpt lat="50.71733" lon="1.66595">
        <ele>156</ele>
        <time>2013-08-24T16:14:53.000Z</time>
      </trkpt>
      <trkpt lat="50.7173" lon="1.66585">
        <ele>156</ele>
        <time>2013-08-24T16:14:56.000Z</time>
      </trkpt>
      <trkpt lat="50.71728" lon="1.66574">
        <ele>157</ele>
        <time>2013-08-24T16:14:59.000Z</time>
      </trkpt>
      <trkpt lat="50.71725" lon="1.66563">
        <ele>157</ele>
        <time>2013-08-24T16:15:02.000Z</time>
      </trkpt>
      <trkpt lat="50.71723" lon="1.66554">
        <ele>158</ele>
        <time>2013-08-24T16:15:05.000Z</time>
      </trkpt>
      <trkpt lat="50.71717" lon="1.66528">
        <ele>159</ele>
        <time>2013-08-24T16:15:11.000Z</time>
      </trkpt>
      <trkpt lat="50.71712" lon="1.66502">
        <ele>160</ele>
        <time>2013-08-24T16:15:20.000Z</time>
      </trkpt>
      <trkpt lat="50.71704" lon="1.66478">
        <ele>162</ele>
        <time>2013-08-24T16:15:29.000Z</time>
      </trkpt>
      <trkpt lat="50.71699" lon="1.66453">
        <ele>163</ele>
        <time>2013-08-24T16:15:38.000Z</time>
      </trkpt>
      <trkpt lat="50.71693" lon="1.66428">
        <ele>165</ele>
        <time>2013-08-24T16:15:47.000Z</time>
      </trkpt>
      <trkpt lat="50.7169" lon="1.66401">
        <ele>166</ele>
        <time>2013-08-24T16:15:56.000Z</time>
      </trkpt>
      <trkpt lat="50.71688" lon="1.66375">
        <ele>167</ele>
        <time>2013-08-24T16:16:05.000Z</time>
      </trkpt>
      <trkpt lat="50.71686" lon="1.6635">
        <ele>169</ele>
        <time>2013-08-24T16:16:14.000Z</time>
      </trkpt>
      <trkpt lat="50.7168" lon="1.66322">
        <ele>171</ele>
        <time>2013-08-24T16:16:23.000Z</time>
      </trkpt>
      <trkpt lat="50.71679" lon="1.66293">
        <ele>172</ele>
        <time>2013-08-24T16:16:32.000Z</time>
      </trkpt>
      <trkpt lat="50.71677" lon="1.6627">
        <ele>174</ele>
        <time>2013-08-24T16:16:38.000Z</time>
      </trkpt>
      <trkpt lat="50.71676" lon="1.66247">
        <ele>175</ele>
        <time>2013-08-24T16:16:44.000Z</time>
      </trkpt>
      <trkpt lat="50.71675" lon="1.66226">
        <ele>176</ele>
        <time>2013-08-24T16:16:50.000Z</time>
      </trkpt>
      <trkpt lat="50.71674" lon="1.66201">
        <ele>177</ele>
        <time>2013-08-24T16:16:56.000Z</time>
      </trkpt>
      <trkpt lat="50.71673" lon="1.66174">
        <ele>179</ele>
        <time>2013-08-24T16:17:02.000Z</time>
      </trkpt>
      <trkpt lat="50.71672" lon="1.66151">
        <ele>181</ele>
        <time>2013-08-24T16:17:09.000Z</time>
      </trkpt>
      <trkpt lat="50.71672" lon="1.66126">
        <ele>182</ele>
        <time>2013-08-24T16:17:15.000Z</time>
      </trkpt>
      <trkpt lat="50.71671" lon="1.66099">
        <ele>183</ele>
        <time>2013-08-24T16:17:20.000Z</time>
      </trkpt>
      <trkpt lat="50.71669" lon="1.66071">
        <ele>185</ele>
        <time>2013-08-24T16:17:26.000Z</time>
      </trkpt>
      <trkpt lat="50.71668" lon="1.66041">
        <ele>186</ele>
        <time>2013-08-24T16:17:32.000Z</time>
      </trkpt>
      <trkpt lat="50.7167" lon="1.66023">
        <ele>187</ele>
        <time>2013-08-24T16:17:38.000Z</time>
      </trkpt>
      <trkpt lat="50.71672" lon="1.66007">
        <ele>188</ele>
        <time>2013-08-24T16:17:41.000Z</time>
      </trkpt>
      <trkpt lat="50.71675" lon="1.6599">
        <ele>188</ele>
        <time>2013-08-24T16:17:44.000Z</time>
      </trkpt>
      <trkpt lat="50.71678" lon="1.65972">
        <ele>192</ele>
        <time>2013-08-24T16:17:47.000Z</time>
      </trkpt>
      <trkpt lat="50.71682" lon="1.65954">
        <ele>194</ele>
        <time>2013-08-24T16:17:50.000Z</time>
      </trkpt>
      <trkpt lat="50.71691" lon="1.65919">
        <ele>197</ele>
        <time>2013-08-24T16:17:53.000Z</time>
      </trkpt>
      <trkpt lat="50.71702" lon="1.65884">
        <ele>200</ele>
        <time>2013-08-24T16:17:59.000Z</time>
      </trkpt>
      <trkpt lat="50.71711" lon="1.65869">
        <ele>200</ele>
        <time>2013-08-24T16:18:02.000Z</time>
      </trkpt>
      <trkpt lat="50.71724" lon="1.65835">
        <ele>199</ele>
        <time>2013-08-24T16:18:08.000Z</time>
      </trkpt>
      <trkpt lat="50.71731" lon="1.65818">
        <ele>199</ele>
        <time>2013-08-24T16:18:11.000Z</time>
      </trkpt>
      <trkpt lat="50.7174" lon="1.65802">
        <ele>198</ele>
        <time>2013-08-24T16:18:15.000Z</time>
      </trkpt>
      <trkpt lat="50.71755" lon="1.65771">
        <ele>200</ele>
        <time>2013-08-24T16:18:20.000Z</time>
      </trkpt>
      <trkpt lat="50.71763" lon="1.65755">
        <ele>201</ele>
        <time>2013-08-24T16:18:23.000Z</time>
      </trkpt>
      <trkpt lat="50.71771" lon="1.65738">
        <ele>201</ele>
        <time>2013-08-24T16:18:26.000Z</time>
      </trkpt>
      <trkpt lat="50.71779" lon="1.65722">
        <ele>201</ele>
        <time>2013-08-24T16:18:29.000Z</time>
      </trkpt>
      <trkpt lat="50.71788" lon="1.65707">
        <ele>200</ele>
        <time>2013-08-24T16:18:32.000Z</time>
      </trkpt>
      <trkpt lat="50.71796" lon="1.65691">
        <ele>200</ele>
        <time>2013-08-24T16:18:35.000Z</time>
      </trkpt>
      <trkpt lat="50.71809" lon="1.65666">
        <ele>200</ele>
        <time>2013-08-24T16:18:41.000Z</time>
      </trkpt>
      <trkpt lat="50.71813" lon="1.65657">
        <ele>200</ele>
        <time>2013-08-24T16:23:23.000Z</time>
      </trkpt>
      <trkpt lat="50.71818" lon="1.65646">
        <ele>200</ele>
        <time>2013-08-24T16:23:26.000Z</time>
      </trkpt>
      <trkpt lat="50.71823" lon="1.65636">
        <ele>200</ele>
        <time>2013-08-24T16:23:29.000Z</time>
      </trkpt>
      <trkpt lat="50.71829" lon="1.65625">
        <ele>200</ele>
        <time>2013-08-24T16:23:32.000Z</time>
      </trkpt>
      <trkpt lat="50.71836" lon="1.65612">
        <ele>200</ele>
        <time>2013-08-24T16:23:35.000Z</time>
      </trkpt>
      <trkpt lat="50.71854" lon="1.65586">
        <ele>203</ele>
        <time>2013-08-24T16:23:38.000Z</time>
      </trkpt>
      <trkpt lat="50.71863" lon="1.6557">
        <ele>204</ele>
        <time>2013-08-24T16:23:41.000Z</time>
      </trkpt>
      <trkpt lat="50.71877" lon="1.65541">
        <ele>203</ele>
        <time>2013-08-24T16:23:47.000Z</time>
      </trkpt>
      <trkpt lat="50.71889" lon="1.65513">
        <ele>203</ele>
        <time>2013-08-24T16:23:53.000Z</time>
      </trkpt>
      <trkpt lat="50.71897" lon="1.65496">
        <ele>204</ele>
        <time>2013-08-24T16:23:56.000Z</time>
      </trkpt>
      <trkpt lat="50.71905" lon="1.65479">
        <ele>205</ele>
        <time>2013-08-24T16:23:59.000Z</time>
      </trkpt>
      <trkpt lat="50.71913" lon="1.65462">
        <ele>206</ele>
        <time>2013-08-24T16:24:02.000Z</time>
      </trkpt>
      <trkpt lat="50.71923" lon="1.65441">
        <ele>207</ele>
        <time>2013-08-24T16:24:05.000Z</time>
      </trkpt>
      <trkpt lat="50.71933" lon="1.65418">
        <ele>206</ele>
        <time>2013-08-24T16:24:08.000Z</time>
      </trkpt>
      <trkpt lat="50.71945" lon="1.65395">
        <ele>205</ele>
        <time>2013-08-24T16:24:11.000Z</time>
      </trkpt>
      <trkpt lat="50.71957" lon="1.6537">
        <ele>204</ele>
        <time>2013-08-24T16:24:15.000Z</time>
      </trkpt>
      <trkpt lat="50.71969" lon="1.65344">
        <ele>203</ele>
        <time>2013-08-24T16:24:17.000Z</time>
      </trkpt>
      <trkpt lat="50.71981" lon="1.65317">
        <ele>201</ele>
        <time>2013-08-24T16:24:20.000Z</time>
      </trkpt>
      <trkpt lat="50.71994" lon="1.65289">
        <ele>200</ele>
        <time>2013-08-24T16:24:23.000Z</time>
      </trkpt>
      <trkpt lat="50.72007" lon="1.65262">
        <ele>200</ele>
        <time>2013-08-24T16:24:26.000Z</time>
      </trkpt>
      <trkpt lat="50.7202" lon="1.65237">
        <ele>200</ele>
        <time>2013-08-24T16:24:29.000Z</time>
      </trkpt>
      <trkpt lat="50.72033" lon="1.65214">
        <ele>200</ele>
        <time>2013-08-24T16:24:32.000Z</time>
      </trkpt>
      <trkpt lat="50.72046" lon="1.6519">
        <ele>201</ele>
        <time>2013-08-24T16:24:35.000Z</time>
      </trkpt>
      <trkpt lat="50.72056" lon="1.65165">
        <ele>202</ele>
        <time>2013-08-24T16:24:38.000Z</time>
      </trkpt>
      <trkpt lat="50.72066" lon="1.65138">
        <ele>201</ele>
        <time>2013-08-24T16:24:41.000Z</time>
      </trkpt>
      <trkpt lat="50.72076" lon="1.6511">
        <ele>200</ele>
        <time>2013-08-24T16:24:44.000Z</time>
      </trkpt>
      <trkpt lat="50.72087" lon="1.65081">
        <ele>198</ele>
        <time>2013-08-24T16:24:47.000Z</time>
      </trkpt>
      <trkpt lat="50.72099" lon="1.65051">
        <ele>196</ele>
        <time>2013-08-24T16:24:50.000Z</time>
      </trkpt>
      <trkpt lat="50.72107" lon="1.6502">
        <ele>193</ele>
        <time>2013-08-24T16:24:53.000Z</time>
      </trkpt>
      <trkpt lat="50.72115" lon="1.64988">
        <ele>192</ele>
        <time>2013-08-24T16:24:56.000Z</time>
      </trkpt>
      <trkpt lat="50.72122" lon="1.64957">
        <ele>191</ele>
        <time>2013-08-24T16:24:59.000Z</time>
      </trkpt>
      <trkpt lat="50.72129" lon="1.64926">
        <ele>190</ele>
        <time>2013-08-24T16:25:02.000Z</time>
      </trkpt>
      <trkpt lat="50.72135" lon="1.64898">
        <ele>190</ele>
        <time>2013-08-24T16:25:05.000Z</time>
      </trkpt>
      <trkpt lat="50.72141" lon="1.64871">
        <ele>189</ele>
        <time>2013-08-24T16:25:08.000Z</time>
      </trkpt>
      <trkpt lat="50.72148" lon="1.64842">
        <ele>189</ele>
        <time>2013-08-24T16:25:11.000Z</time>
      </trkpt>
      <trkpt lat="50.72155" lon="1.64815">
        <ele>189</ele>
        <time>2013-08-24T16:25:14.000Z</time>
      </trkpt>
      <trkpt lat="50.72162" lon="1.64785">
        <ele>189</ele>
        <time>2013-08-24T16:25:17.000Z</time>
      </trkpt>
      <trkpt lat="50.7217" lon="1.64755">
        <ele>188</ele>
        <time>2013-08-24T16:25:20.000Z</time>
      </trkpt>
      <trkpt lat="50.72177" lon="1.64724">
        <ele>188</ele>
        <time>2013-08-24T16:25:23.000Z</time>
      </trkpt>
      <trkpt lat="50.72184" lon="1.64693">
        <ele>187</ele>
        <time>2013-08-24T16:25:27.000Z</time>
      </trkpt>
      <trkpt lat="50.72191" lon="1.64662">
        <ele>187</ele>
        <time>2013-08-24T16:25:29.000Z</time>
      </trkpt>
      <trkpt lat="50.72199" lon="1.64632">
        <ele>185</ele>
        <time>2013-08-24T16:25:32.000Z</time>
      </trkpt>
      <trkpt lat="50.72206" lon="1.64602">
        <ele>184</ele>
        <time>2013-08-24T16:25:35.000Z</time>
      </trkpt>
      <trkpt lat="50.72212" lon="1.64574">
        <ele>183</ele>
        <time>2013-08-24T16:25:38.000Z</time>
      </trkpt>
      <trkpt lat="50.72219" lon="1.64545">
        <ele>182</ele>
        <time>2013-08-24T16:25:41.000Z</time>
      </trkpt>
      <trkpt lat="50.72226" lon="1.64518">
        <ele>182</ele>
        <time>2013-08-24T16:25:44.000Z</time>
      </trkpt>
      <trkpt lat="50.72232" lon="1.64493">
        <ele>181</ele>
        <time>2013-08-24T16:25:47.000Z</time>
      </trkpt>
      <trkpt lat="50.72237" lon="1.6447">
        <ele>181</ele>
        <time>2013-08-24T16:25:50.000Z</time>
      </trkpt>
      <trkpt lat="50.72243" lon="1.64446">
        <ele>181</ele>
        <time>2013-08-24T16:25:53.000Z</time>
      </trkpt>
      <trkpt lat="50.72249" lon="1.64422">
        <ele>181</ele>
        <time>2013-08-24T16:25:56.000Z</time>
      </trkpt>
      <trkpt lat="50.72254" lon="1.644">
        <ele>180</ele>
        <time>2013-08-24T16:25:59.000Z</time>
      </trkpt>
      <trkpt lat="50.72259" lon="1.64381">
        <ele>178</ele>
        <time>2013-08-24T16:26:02.000Z</time>
      </trkpt>
      <trkpt lat="50.72266" lon="1.64352">
        <ele>178</ele>
        <time>2013-08-24T16:26:08.000Z</time>
      </trkpt>
      <trkpt lat="50.72272" lon="1.64331">
        <ele>178</ele>
        <time>2013-08-24T16:26:17.000Z</time>
      </trkpt>
      <trkpt lat="50.72281" lon="1.64296">
        <ele>178</ele>
        <time>2013-08-24T16:26:23.000Z</time>
      </trkpt>
      <trkpt lat="50.72286" lon="1.64271">
        <ele>177</ele>
        <time>2013-08-24T16:26:26.000Z</time>
      </trkpt>
      <trkpt lat="50.72293" lon="1.64244">
        <ele>177</ele>
        <time>2013-08-24T16:26:29.000Z</time>
      </trkpt>
      <trkpt lat="50.72301" lon="1.64211">
        <ele>177</ele>
        <time>2013-08-24T16:26:32.000Z</time>
      </trkpt>
      <trkpt lat="50.72308" lon="1.64179">
        <ele>177</ele>
        <time>2013-08-24T16:26:35.000Z</time>
      </trkpt>
      <trkpt lat="50.72314" lon="1.64148">
        <ele>177</ele>
        <time>2013-08-24T16:26:39.000Z</time>
      </trkpt>
      <trkpt lat="50.72321" lon="1.64117">
        <ele>176</ele>
        <time>2013-08-24T16:26:41.000Z</time>
      </trkpt>
      <trkpt lat="50.72329" lon="1.64087">
        <ele>176</ele>
        <time>2013-08-24T16:26:44.000Z</time>
      </trkpt>
      <trkpt lat="50.72335" lon="1.6406">
        <ele>176</ele>
        <time>2013-08-24T16:26:47.000Z</time>
      </trkpt>
      <trkpt lat="50.72341" lon="1.64035">
        <ele>176</ele>
        <time>2013-08-24T16:26:50.000Z</time>
      </trkpt>
      <trkpt lat="50.72346" lon="1.64011">
        <ele>175</ele>
        <time>2013-08-24T16:26:54.000Z</time>
      </trkpt>
      <trkpt lat="50.72354" lon="1.63985">
        <ele>175</ele>
        <time>2013-08-24T16:26:56.000Z</time>
      </trkpt>
      <trkpt lat="50.72361" lon="1.63961">
        <ele>175</ele>
        <time>2013-08-24T16:26:59.000Z</time>
      </trkpt>
      <trkpt lat="50.72368" lon="1.63937">
        <ele>175</ele>
        <time>2013-08-24T16:27:02.000Z</time>
      </trkpt>
      <trkpt lat="50.72374" lon="1.63916">
        <ele>175</ele>
        <time>2013-08-24T16:27:05.000Z</time>
      </trkpt>
      <trkpt lat="50.7238" lon="1.63895">
        <ele>173</ele>
        <time>2013-08-24T16:27:08.000Z</time>
      </trkpt>
      <trkpt lat="50.72388" lon="1.63869">
        <ele>172</ele>
        <time>2013-08-24T16:27:14.000Z</time>
      </trkpt>
      <trkpt lat="50.72419" lon="1.63876">
        <ele>172</ele>
        <time>2013-08-24T16:27:17.000Z</time>
      </trkpt>
      <trkpt lat="50.72436" lon="1.63871">
        <ele>172</ele>
        <time>2013-08-24T16:27:20.000Z</time>
      </trkpt>
      <trkpt lat="50.72453" lon="1.63867">
        <ele>171</ele>
        <time>2013-08-24T16:27:23.000Z</time>
      </trkpt>
      <trkpt lat="50.72473" lon="1.63869">
        <ele>171</ele>
        <time>2013-08-24T16:27:26.000Z</time>
      </trkpt>
      <trkpt lat="50.72495" lon="1.63871">
        <ele>169</ele>
        <time>2013-08-24T16:27:29.000Z</time>
      </trkpt>
    </trkseg>
  </trk>
</gpx>